<?xml version="1.0" encoding="UTF-8" standalone="no" ?>
<gpx xmlns="http://www.topografix.com/GPX/1/1" xmlns:xsi="http://www.w3.org/2001/XMLSchema-instance" xsi:schemaLocation="http://www.topografix.com/GPX/1/1 http://www.topografix.com/GPX/1/1/gpx.xsd" version="1.1" creator="VisuGPX - https://www.visugpx.com">
  <metadata>
    <name>Rondes des roches 2011</name>
    <desc><![CDATA[RONDES DES ROCHES 2011]]></desc>
  </metadata>
  <trk>
    <name><![CDATA[2011-05-01T06:20:06Z]]></name>
    <trkseg>
      <trkpt lat="49.3885" lon="1.14064">
        <ele>210</ele>
        <time>2011-05-01T06:20:06Z</time>
      </trkpt>
      <trkpt lat="49.3885" lon="1.14065">
        <ele>210</ele>
        <time>2011-05-01T06:20:11Z</time>
      </trkpt>
      <trkpt lat="49.3885" lon="1.14065">
        <ele>210</ele>
        <time>2011-05-01T06:20:12Z</time>
      </trkpt>
      <trkpt lat="49.38848" lon="1.14065">
        <ele>210</ele>
        <time>2011-05-01T06:20:15Z</time>
      </trkpt>
      <trkpt lat="49.38838" lon="1.14067">
        <ele>210</ele>
        <time>2011-05-01T06:20:21Z</time>
      </trkpt>
      <trkpt lat="49.38836" lon="1.1407">
        <ele>210</ele>
        <time>2011-05-01T06:20:22Z</time>
      </trkpt>
      <trkpt lat="49.38823" lon="1.14092">
        <ele>210</ele>
        <time>2011-05-01T06:20:29Z</time>
      </trkpt>
      <trkpt lat="49.38816" lon="1.14098">
        <ele>210</ele>
        <time>2011-05-01T06:20:32Z</time>
      </trkpt>
      <trkpt lat="49.38809" lon="1.14097">
        <ele>210</ele>
        <time>2011-05-01T06:20:36Z</time>
      </trkpt>
      <trkpt lat="49.38793" lon="1.14065">
        <ele>210</ele>
        <time>2011-05-01T06:20:45Z</time>
      </trkpt>
      <trkpt lat="49.38778" lon="1.1404">
        <ele>210</ele>
        <time>2011-05-01T06:20:54Z</time>
      </trkpt>
      <trkpt lat="49.38767" lon="1.14023">
        <ele>210</ele>
        <time>2011-05-01T06:21:00Z</time>
      </trkpt>
      <trkpt lat="49.38753" lon="1.13999">
        <ele>210</ele>
        <time>2011-05-01T06:21:07Z</time>
      </trkpt>
      <trkpt lat="49.3874" lon="1.13976">
        <ele>210</ele>
        <time>2011-05-01T06:21:13Z</time>
      </trkpt>
      <trkpt lat="49.38737" lon="1.13971">
        <ele>209.8</ele>
        <time>2011-05-01T06:21:15Z</time>
      </trkpt>
      <trkpt lat="49.38733" lon="1.1397">
        <ele>209.6</ele>
        <time>2011-05-01T06:21:17Z</time>
      </trkpt>
      <trkpt lat="49.38729" lon="1.13973">
        <ele>209.2</ele>
        <time>2011-05-01T06:21:19Z</time>
      </trkpt>
      <trkpt lat="49.38723" lon="1.13979">
        <ele>209</ele>
        <time>2011-05-01T06:21:21Z</time>
      </trkpt>
      <trkpt lat="49.38717" lon="1.13985">
        <ele>208.8</ele>
        <time>2011-05-01T06:21:23Z</time>
      </trkpt>
      <trkpt lat="49.38694" lon="1.14">
        <ele>208.4</ele>
        <time>2011-05-01T06:21:31Z</time>
      </trkpt>
      <trkpt lat="49.38661" lon="1.14011">
        <ele>208.2</ele>
        <time>2011-05-01T06:21:41Z</time>
      </trkpt>
      <trkpt lat="49.38623" lon="1.14028">
        <ele>208</ele>
        <time>2011-05-01T06:21:52Z</time>
      </trkpt>
      <trkpt lat="49.38596" lon="1.14045">
        <ele>208</ele>
        <time>2011-05-01T06:22:00Z</time>
      </trkpt>
      <trkpt lat="49.38569" lon="1.14067">
        <ele>208</ele>
        <time>2011-05-01T06:22:09Z</time>
      </trkpt>
      <trkpt lat="49.38543" lon="1.1409">
        <ele>208</ele>
        <time>2011-05-01T06:22:16Z</time>
      </trkpt>
      <trkpt lat="49.38528" lon="1.14106">
        <ele>208</ele>
        <time>2011-05-01T06:22:21Z</time>
      </trkpt>
      <trkpt lat="49.3851" lon="1.14139">
        <ele>208</ele>
        <time>2011-05-01T06:22:28Z</time>
      </trkpt>
      <trkpt lat="49.38482" lon="1.14182">
        <ele>207.8</ele>
        <time>2011-05-01T06:22:36Z</time>
      </trkpt>
      <trkpt lat="49.38472" lon="1.14195">
        <ele>207.4</ele>
        <time>2011-05-01T06:22:38Z</time>
      </trkpt>
      <trkpt lat="49.38464" lon="1.14205">
        <ele>207.2</ele>
        <time>2011-05-01T06:22:40Z</time>
      </trkpt>
      <trkpt lat="49.38457" lon="1.14213">
        <ele>207</ele>
        <time>2011-05-01T06:22:42Z</time>
      </trkpt>
      <trkpt lat="49.38449" lon="1.14223">
        <ele>206.8</ele>
        <time>2011-05-01T06:22:44Z</time>
      </trkpt>
      <trkpt lat="49.38434" lon="1.14243">
        <ele>206.4</ele>
        <time>2011-05-01T06:22:48Z</time>
      </trkpt>
      <trkpt lat="49.38429" lon="1.14254">
        <ele>206</ele>
        <time>2011-05-01T06:22:50Z</time>
      </trkpt>
      <trkpt lat="49.38428" lon="1.14262">
        <ele>205.6</ele>
        <time>2011-05-01T06:22:52Z</time>
      </trkpt>
      <trkpt lat="49.38429" lon="1.14265">
        <ele>205.4</ele>
        <time>2011-05-01T06:22:53Z</time>
      </trkpt>
      <trkpt lat="49.38435" lon="1.14267">
        <ele>205</ele>
        <time>2011-05-01T06:22:55Z</time>
      </trkpt>
      <trkpt lat="49.38438" lon="1.14266">
        <ele>204.8</ele>
        <time>2011-05-01T06:22:56Z</time>
      </trkpt>
      <trkpt lat="49.38446" lon="1.14264">
        <ele>204.6</ele>
        <time>2011-05-01T06:22:58Z</time>
      </trkpt>
      <trkpt lat="49.38471" lon="1.14264">
        <ele>204.2</ele>
        <time>2011-05-01T06:23:04Z</time>
      </trkpt>
      <trkpt lat="49.38482" lon="1.14277">
        <ele>204</ele>
        <time>2011-05-01T06:23:07Z</time>
      </trkpt>
      <trkpt lat="49.38496" lon="1.143">
        <ele>203.8</ele>
        <time>2011-05-01T06:23:12Z</time>
      </trkpt>
      <trkpt lat="49.3851" lon="1.1431">
        <ele>203.6</ele>
        <time>2011-05-01T06:23:16Z</time>
      </trkpt>
      <trkpt lat="49.38528" lon="1.14315">
        <ele>203.6</ele>
        <time>2011-05-01T06:23:22Z</time>
      </trkpt>
      <trkpt lat="49.38541" lon="1.14315">
        <ele>203.8</ele>
        <time>2011-05-01T06:23:25Z</time>
      </trkpt>
      <trkpt lat="49.38547" lon="1.14317">
        <ele>204.2</ele>
        <time>2011-05-01T06:23:27Z</time>
      </trkpt>
      <trkpt lat="49.38552" lon="1.14318">
        <ele>204.4</ele>
        <time>2011-05-01T06:23:29Z</time>
      </trkpt>
      <trkpt lat="49.38559" lon="1.14318">
        <ele>204.6</ele>
        <time>2011-05-01T06:23:31Z</time>
      </trkpt>
      <trkpt lat="49.38566" lon="1.14317">
        <ele>204.8</ele>
        <time>2011-05-01T06:23:33Z</time>
      </trkpt>
      <trkpt lat="49.38584" lon="1.14319">
        <ele>205.4</ele>
        <time>2011-05-01T06:23:38Z</time>
      </trkpt>
      <trkpt lat="49.38587" lon="1.14319">
        <ele>205.6</ele>
        <time>2011-05-01T06:23:39Z</time>
      </trkpt>
      <trkpt lat="49.386" lon="1.14313">
        <ele>206.2</ele>
        <time>2011-05-01T06:23:42Z</time>
      </trkpt>
      <trkpt lat="49.38609" lon="1.14311">
        <ele>206.4</ele>
        <time>2011-05-01T06:23:44Z</time>
      </trkpt>
      <trkpt lat="49.38617" lon="1.14311">
        <ele>206.6</ele>
        <time>2011-05-01T06:23:46Z</time>
      </trkpt>
      <trkpt lat="49.38642" lon="1.14312">
        <ele>207.2</ele>
        <time>2011-05-01T06:23:52Z</time>
      </trkpt>
      <trkpt lat="49.3865" lon="1.14315">
        <ele>207.2</ele>
        <time>2011-05-01T06:23:54Z</time>
      </trkpt>
      <trkpt lat="49.38661" lon="1.14317">
        <ele>207.4</ele>
        <time>2011-05-01T06:23:58Z</time>
      </trkpt>
      <trkpt lat="49.38662" lon="1.14329">
        <ele>207.4</ele>
        <time>2011-05-01T06:24:01Z</time>
      </trkpt>
      <trkpt lat="49.38659" lon="1.14333">
        <ele>207.4</ele>
        <time>2011-05-01T06:24:02Z</time>
      </trkpt>
      <trkpt lat="49.38638" lon="1.14358">
        <ele>207.6</ele>
        <time>2011-05-01T06:24:08Z</time>
      </trkpt>
      <trkpt lat="49.38622" lon="1.14384">
        <ele>207.6</ele>
        <time>2011-05-01T06:24:14Z</time>
      </trkpt>
      <trkpt lat="49.38619" lon="1.14387">
        <ele>207.6</ele>
        <time>2011-05-01T06:24:15Z</time>
      </trkpt>
      <trkpt lat="49.3861" lon="1.14418">
        <ele>207.6</ele>
        <time>2011-05-01T06:24:20Z</time>
      </trkpt>
      <trkpt lat="49.38599" lon="1.14471">
        <ele>207.6</ele>
        <time>2011-05-01T06:24:28Z</time>
      </trkpt>
      <trkpt lat="49.38588" lon="1.14532">
        <ele>207.6</ele>
        <time>2011-05-01T06:24:37Z</time>
      </trkpt>
      <trkpt lat="49.38574" lon="1.14581">
        <ele>207.6</ele>
        <time>2011-05-01T06:24:44Z</time>
      </trkpt>
      <trkpt lat="49.38574" lon="1.14587">
        <ele>207.6</ele>
        <time>2011-05-01T06:24:45Z</time>
      </trkpt>
      <trkpt lat="49.38574" lon="1.14592">
        <ele>207.4</ele>
        <time>2011-05-01T06:24:46Z</time>
      </trkpt>
      <trkpt lat="49.38575" lon="1.14595">
        <ele>207.2</ele>
        <time>2011-05-01T06:24:47Z</time>
      </trkpt>
      <trkpt lat="49.38583" lon="1.14597">
        <ele>206.6</ele>
        <time>2011-05-01T06:24:50Z</time>
      </trkpt>
      <trkpt lat="49.38588" lon="1.14598">
        <ele>206</ele>
        <time>2011-05-01T06:24:52Z</time>
      </trkpt>
      <trkpt lat="49.3859" lon="1.14601">
        <ele>205.4</ele>
        <time>2011-05-01T06:24:53Z</time>
      </trkpt>
      <trkpt lat="49.38596" lon="1.14607">
        <ele>204.6</ele>
        <time>2011-05-01T06:24:55Z</time>
      </trkpt>
      <trkpt lat="49.38598" lon="1.14609">
        <ele>204</ele>
        <time>2011-05-01T06:24:56Z</time>
      </trkpt>
      <trkpt lat="49.38601" lon="1.14612">
        <ele>203.4</ele>
        <time>2011-05-01T06:24:57Z</time>
      </trkpt>
      <trkpt lat="49.38604" lon="1.14615">
        <ele>203</ele>
        <time>2011-05-01T06:24:58Z</time>
      </trkpt>
      <trkpt lat="49.38606" lon="1.14618">
        <ele>202.4</ele>
        <time>2011-05-01T06:24:59Z</time>
      </trkpt>
      <trkpt lat="49.38613" lon="1.14626">
        <ele>201.2</ele>
        <time>2011-05-01T06:25:01Z</time>
      </trkpt>
      <trkpt lat="49.38615" lon="1.1463">
        <ele>200.4</ele>
        <time>2011-05-01T06:25:02Z</time>
      </trkpt>
      <trkpt lat="49.38621" lon="1.14635">
        <ele>199</ele>
        <time>2011-05-01T06:25:04Z</time>
      </trkpt>
      <trkpt lat="49.38626" lon="1.14641">
        <ele>197.6</ele>
        <time>2011-05-01T06:25:06Z</time>
      </trkpt>
      <trkpt lat="49.3863" lon="1.14644">
        <ele>196.8</ele>
        <time>2011-05-01T06:25:07Z</time>
      </trkpt>
      <trkpt lat="49.38633" lon="1.14648">
        <ele>196</ele>
        <time>2011-05-01T06:25:08Z</time>
      </trkpt>
      <trkpt lat="49.38635" lon="1.14649">
        <ele>195.2</ele>
        <time>2011-05-01T06:25:09Z</time>
      </trkpt>
      <trkpt lat="49.38637" lon="1.14651">
        <ele>194.4</ele>
        <time>2011-05-01T06:25:10Z</time>
      </trkpt>
      <trkpt lat="49.38638" lon="1.14658">
        <ele>192.8</ele>
        <time>2011-05-01T06:25:12Z</time>
      </trkpt>
      <trkpt lat="49.38638" lon="1.14662">
        <ele>191.8</ele>
        <time>2011-05-01T06:25:13Z</time>
      </trkpt>
      <trkpt lat="49.38637" lon="1.14665">
        <ele>191</ele>
        <time>2011-05-01T06:25:14Z</time>
      </trkpt>
      <trkpt lat="49.38633" lon="1.14669">
        <ele>189.4</ele>
        <time>2011-05-01T06:25:16Z</time>
      </trkpt>
      <trkpt lat="49.38628" lon="1.14672">
        <ele>187.8</ele>
        <time>2011-05-01T06:25:18Z</time>
      </trkpt>
      <trkpt lat="49.38626" lon="1.14675">
        <ele>187</ele>
        <time>2011-05-01T06:25:19Z</time>
      </trkpt>
      <trkpt lat="49.38619" lon="1.14682">
        <ele>185.4</ele>
        <time>2011-05-01T06:25:21Z</time>
      </trkpt>
      <trkpt lat="49.38617" lon="1.14685">
        <ele>184.4</ele>
        <time>2011-05-01T06:25:22Z</time>
      </trkpt>
      <trkpt lat="49.38616" lon="1.14688">
        <ele>183.6</ele>
        <time>2011-05-01T06:25:23Z</time>
      </trkpt>
      <trkpt lat="49.38615" lon="1.14691">
        <ele>183</ele>
        <time>2011-05-01T06:25:24Z</time>
      </trkpt>
      <trkpt lat="49.38616" lon="1.14694">
        <ele>182</ele>
        <time>2011-05-01T06:25:25Z</time>
      </trkpt>
      <trkpt lat="49.38618" lon="1.14702">
        <ele>180.2</ele>
        <time>2011-05-01T06:25:27Z</time>
      </trkpt>
      <trkpt lat="49.3862" lon="1.14715">
        <ele>178.2</ele>
        <time>2011-05-01T06:25:29Z</time>
      </trkpt>
      <trkpt lat="49.38621" lon="1.14721">
        <ele>177.2</ele>
        <time>2011-05-01T06:25:30Z</time>
      </trkpt>
      <trkpt lat="49.38623" lon="1.14726">
        <ele>176.2</ele>
        <time>2011-05-01T06:25:31Z</time>
      </trkpt>
      <trkpt lat="49.38625" lon="1.14736">
        <ele>173.8</ele>
        <time>2011-05-01T06:25:33Z</time>
      </trkpt>
      <trkpt lat="49.38627" lon="1.14748">
        <ele>171.6</ele>
        <time>2011-05-01T06:25:35Z</time>
      </trkpt>
      <trkpt lat="49.3863" lon="1.14759">
        <ele>169.2</ele>
        <time>2011-05-01T06:25:37Z</time>
      </trkpt>
      <trkpt lat="49.38632" lon="1.14772">
        <ele>166.6</ele>
        <time>2011-05-01T06:25:39Z</time>
      </trkpt>
      <trkpt lat="49.38637" lon="1.14784">
        <ele>164.2</ele>
        <time>2011-05-01T06:25:41Z</time>
      </trkpt>
      <trkpt lat="49.38642" lon="1.14792">
        <ele>161.8</ele>
        <time>2011-05-01T06:25:43Z</time>
      </trkpt>
      <trkpt lat="49.38643" lon="1.14797">
        <ele>159.6</ele>
        <time>2011-05-01T06:25:45Z</time>
      </trkpt>
      <trkpt lat="49.38642" lon="1.148">
        <ele>158.4</ele>
        <time>2011-05-01T06:25:46Z</time>
      </trkpt>
      <trkpt lat="49.38644" lon="1.14804">
        <ele>157.4</ele>
        <time>2011-05-01T06:25:47Z</time>
      </trkpt>
      <trkpt lat="49.38645" lon="1.14807">
        <ele>156.4</ele>
        <time>2011-05-01T06:25:48Z</time>
      </trkpt>
      <trkpt lat="49.38648" lon="1.14813">
        <ele>154.6</ele>
        <time>2011-05-01T06:25:50Z</time>
      </trkpt>
      <trkpt lat="49.38649" lon="1.14816">
        <ele>152.8</ele>
        <time>2011-05-01T06:25:52Z</time>
      </trkpt>
      <trkpt lat="49.38652" lon="1.1482">
        <ele>151.4</ele>
        <time>2011-05-01T06:25:54Z</time>
      </trkpt>
      <trkpt lat="49.38653" lon="1.14824">
        <ele>150.8</ele>
        <time>2011-05-01T06:25:55Z</time>
      </trkpt>
      <trkpt lat="49.38654" lon="1.14827">
        <ele>150.2</ele>
        <time>2011-05-01T06:25:56Z</time>
      </trkpt>
      <trkpt lat="49.38657" lon="1.14831">
        <ele>149.8</ele>
        <time>2011-05-01T06:25:57Z</time>
      </trkpt>
      <trkpt lat="49.38658" lon="1.14834">
        <ele>149.2</ele>
        <time>2011-05-01T06:25:58Z</time>
      </trkpt>
      <trkpt lat="49.38664" lon="1.14841">
        <ele>148.4</ele>
        <time>2011-05-01T06:26:00Z</time>
      </trkpt>
      <trkpt lat="49.38667" lon="1.14843">
        <ele>147.8</ele>
        <time>2011-05-01T06:26:01Z</time>
      </trkpt>
      <trkpt lat="49.38668" lon="1.14846">
        <ele>147.4</ele>
        <time>2011-05-01T06:26:02Z</time>
      </trkpt>
      <trkpt lat="49.3867" lon="1.14849">
        <ele>146.8</ele>
        <time>2011-05-01T06:26:03Z</time>
      </trkpt>
      <trkpt lat="49.38672" lon="1.14853">
        <ele>145.6</ele>
        <time>2011-05-01T06:26:05Z</time>
      </trkpt>
      <trkpt lat="49.38673" lon="1.14855">
        <ele>145</ele>
        <time>2011-05-01T06:26:06Z</time>
      </trkpt>
      <trkpt lat="49.38674" lon="1.14858">
        <ele>143.8</ele>
        <time>2011-05-01T06:26:08Z</time>
      </trkpt>
      <trkpt lat="49.38675" lon="1.1486">
        <ele>143.4</ele>
        <time>2011-05-01T06:26:09Z</time>
      </trkpt>
      <trkpt lat="49.38675" lon="1.14863">
        <ele>142.6</ele>
        <time>2011-05-01T06:26:10Z</time>
      </trkpt>
      <trkpt lat="49.38677" lon="1.14874">
        <ele>141.2</ele>
        <time>2011-05-01T06:26:12Z</time>
      </trkpt>
      <trkpt lat="49.38676" lon="1.14879">
        <ele>140.6</ele>
        <time>2011-05-01T06:26:13Z</time>
      </trkpt>
      <trkpt lat="49.38674" lon="1.14883">
        <ele>139.6</ele>
        <time>2011-05-01T06:26:14Z</time>
      </trkpt>
      <trkpt lat="49.38668" lon="1.14894">
        <ele>137.8</ele>
        <time>2011-05-01T06:26:16Z</time>
      </trkpt>
      <trkpt lat="49.38666" lon="1.14906">
        <ele>136</ele>
        <time>2011-05-01T06:26:18Z</time>
      </trkpt>
      <trkpt lat="49.3867" lon="1.14912">
        <ele>134.2</ele>
        <time>2011-05-01T06:26:20Z</time>
      </trkpt>
      <trkpt lat="49.38675" lon="1.14914">
        <ele>132.6</ele>
        <time>2011-05-01T06:26:22Z</time>
      </trkpt>
      <trkpt lat="49.38679" lon="1.14922">
        <ele>131.4</ele>
        <time>2011-05-01T06:26:24Z</time>
      </trkpt>
      <trkpt lat="49.3868" lon="1.14924">
        <ele>131</ele>
        <time>2011-05-01T06:26:25Z</time>
      </trkpt>
      <trkpt lat="49.38682" lon="1.14926">
        <ele>130.6</ele>
        <time>2011-05-01T06:26:26Z</time>
      </trkpt>
      <trkpt lat="49.38692" lon="1.14953">
        <ele>128.6</ele>
        <time>2011-05-01T06:26:32Z</time>
      </trkpt>
      <trkpt lat="49.38693" lon="1.14957">
        <ele>128.4</ele>
        <time>2011-05-01T06:26:33Z</time>
      </trkpt>
      <trkpt lat="49.38701" lon="1.14974">
        <ele>127.4</ele>
        <time>2011-05-01T06:26:39Z</time>
      </trkpt>
      <trkpt lat="49.38704" lon="1.14986">
        <ele>127</ele>
        <time>2011-05-01T06:26:44Z</time>
      </trkpt>
      <trkpt lat="49.38706" lon="1.14997">
        <ele>126.8</ele>
        <time>2011-05-01T06:26:47Z</time>
      </trkpt>
      <trkpt lat="49.38708" lon="1.15">
        <ele>127</ele>
        <time>2011-05-01T06:26:49Z</time>
      </trkpt>
      <trkpt lat="49.38711" lon="1.15003">
        <ele>127.2</ele>
        <time>2011-05-01T06:26:51Z</time>
      </trkpt>
      <trkpt lat="49.38713" lon="1.15008">
        <ele>127.6</ele>
        <time>2011-05-01T06:26:53Z</time>
      </trkpt>
      <trkpt lat="49.38714" lon="1.15012">
        <ele>127.8</ele>
        <time>2011-05-01T06:26:55Z</time>
      </trkpt>
      <trkpt lat="49.38715" lon="1.15015">
        <ele>127.8</ele>
        <time>2011-05-01T06:26:57Z</time>
      </trkpt>
      <trkpt lat="49.38718" lon="1.15023">
        <ele>128.2</ele>
        <time>2011-05-01T06:27:00Z</time>
      </trkpt>
      <trkpt lat="49.38721" lon="1.15031">
        <ele>128.6</ele>
        <time>2011-05-01T06:27:02Z</time>
      </trkpt>
      <trkpt lat="49.38722" lon="1.15034">
        <ele>128.8</ele>
        <time>2011-05-01T06:27:03Z</time>
      </trkpt>
      <trkpt lat="49.3873" lon="1.1505">
        <ele>129.4</ele>
        <time>2011-05-01T06:27:06Z</time>
      </trkpt>
      <trkpt lat="49.38735" lon="1.15054">
        <ele>129.4</ele>
        <time>2011-05-01T06:27:07Z</time>
      </trkpt>
      <trkpt lat="49.38742" lon="1.15061">
        <ele>129.8</ele>
        <time>2011-05-01T06:27:10Z</time>
      </trkpt>
      <trkpt lat="49.38747" lon="1.15073">
        <ele>130</ele>
        <time>2011-05-01T06:27:15Z</time>
      </trkpt>
      <trkpt lat="49.38749" lon="1.1508">
        <ele>130.2</ele>
        <time>2011-05-01T06:27:17Z</time>
      </trkpt>
      <trkpt lat="49.38764" lon="1.15105">
        <ele>130.4</ele>
        <time>2011-05-01T06:27:23Z</time>
      </trkpt>
      <trkpt lat="49.38767" lon="1.15111">
        <ele>130.4</ele>
        <time>2011-05-01T06:27:24Z</time>
      </trkpt>
      <trkpt lat="49.3877" lon="1.1512">
        <ele>130.4</ele>
        <time>2011-05-01T06:27:26Z</time>
      </trkpt>
      <trkpt lat="49.38778" lon="1.15139">
        <ele>130.4</ele>
        <time>2011-05-01T06:27:31Z</time>
      </trkpt>
      <trkpt lat="49.38782" lon="1.1516">
        <ele>130.6</ele>
        <time>2011-05-01T06:27:35Z</time>
      </trkpt>
      <trkpt lat="49.38782" lon="1.15169">
        <ele>130.8</ele>
        <time>2011-05-01T06:27:38Z</time>
      </trkpt>
      <trkpt lat="49.38782" lon="1.15175">
        <ele>131.2</ele>
        <time>2011-05-01T06:27:39Z</time>
      </trkpt>
      <trkpt lat="49.38788" lon="1.1519">
        <ele>131.4</ele>
        <time>2011-05-01T06:27:41Z</time>
      </trkpt>
      <trkpt lat="49.3879" lon="1.15199">
        <ele>131.6</ele>
        <time>2011-05-01T06:27:43Z</time>
      </trkpt>
      <trkpt lat="49.38792" lon="1.15207">
        <ele>131.8</ele>
        <time>2011-05-01T06:27:45Z</time>
      </trkpt>
      <trkpt lat="49.38793" lon="1.15212">
        <ele>132</ele>
        <time>2011-05-01T06:27:46Z</time>
      </trkpt>
      <trkpt lat="49.38796" lon="1.15229">
        <ele>132.2</ele>
        <time>2011-05-01T06:27:50Z</time>
      </trkpt>
      <trkpt lat="49.38797" lon="1.15249">
        <ele>132.4</ele>
        <time>2011-05-01T06:27:54Z</time>
      </trkpt>
      <trkpt lat="49.38797" lon="1.15254">
        <ele>132.6</ele>
        <time>2011-05-01T06:27:55Z</time>
      </trkpt>
      <trkpt lat="49.38797" lon="1.15262">
        <ele>133</ele>
        <time>2011-05-01T06:27:57Z</time>
      </trkpt>
      <trkpt lat="49.38795" lon="1.15264">
        <ele>133.2</ele>
        <time>2011-05-01T06:27:58Z</time>
      </trkpt>
      <trkpt lat="49.38791" lon="1.15269">
        <ele>133.6</ele>
        <time>2011-05-01T06:28:00Z</time>
      </trkpt>
      <trkpt lat="49.38786" lon="1.1528">
        <ele>133.8</ele>
        <time>2011-05-01T06:28:03Z</time>
      </trkpt>
      <trkpt lat="49.38785" lon="1.15285">
        <ele>134</ele>
        <time>2011-05-01T06:28:04Z</time>
      </trkpt>
      <trkpt lat="49.38786" lon="1.15319">
        <ele>134.6</ele>
        <time>2011-05-01T06:28:10Z</time>
      </trkpt>
      <trkpt lat="49.38786" lon="1.15331">
        <ele>135</ele>
        <time>2011-05-01T06:28:12Z</time>
      </trkpt>
      <trkpt lat="49.38784" lon="1.15343">
        <ele>135.4</ele>
        <time>2011-05-01T06:28:14Z</time>
      </trkpt>
      <trkpt lat="49.38783" lon="1.15356">
        <ele>135.6</ele>
        <time>2011-05-01T06:28:16Z</time>
      </trkpt>
      <trkpt lat="49.38784" lon="1.15364">
        <ele>135.8</ele>
        <time>2011-05-01T06:28:18Z</time>
      </trkpt>
      <trkpt lat="49.38787" lon="1.15377">
        <ele>136.2</ele>
        <time>2011-05-01T06:28:22Z</time>
      </trkpt>
      <trkpt lat="49.38786" lon="1.15385">
        <ele>136.4</ele>
        <time>2011-05-01T06:28:24Z</time>
      </trkpt>
      <trkpt lat="49.38785" lon="1.15403">
        <ele>136.6</ele>
        <time>2011-05-01T06:28:29Z</time>
      </trkpt>
      <trkpt lat="49.38788" lon="1.15416">
        <ele>136.6</ele>
        <time>2011-05-01T06:28:32Z</time>
      </trkpt>
      <trkpt lat="49.38788" lon="1.15439">
        <ele>136.8</ele>
        <time>2011-05-01T06:28:37Z</time>
      </trkpt>
      <trkpt lat="49.38792" lon="1.15451">
        <ele>136.8</ele>
        <time>2011-05-01T06:28:39Z</time>
      </trkpt>
      <trkpt lat="49.38791" lon="1.15458">
        <ele>137</ele>
        <time>2011-05-01T06:28:41Z</time>
      </trkpt>
      <trkpt lat="49.38789" lon="1.15461">
        <ele>137.4</ele>
        <time>2011-05-01T06:28:43Z</time>
      </trkpt>
      <trkpt lat="49.38788" lon="1.15462">
        <ele>137.6</ele>
        <time>2011-05-01T06:28:44Z</time>
      </trkpt>
      <trkpt lat="49.38787" lon="1.15465">
        <ele>137.8</ele>
        <time>2011-05-01T06:28:45Z</time>
      </trkpt>
      <trkpt lat="49.38784" lon="1.15474">
        <ele>138</ele>
        <time>2011-05-01T06:28:47Z</time>
      </trkpt>
      <trkpt lat="49.38778" lon="1.15487">
        <ele>138.2</ele>
        <time>2011-05-01T06:28:49Z</time>
      </trkpt>
      <trkpt lat="49.38776" lon="1.15503">
        <ele>138.4</ele>
        <time>2011-05-01T06:28:53Z</time>
      </trkpt>
      <trkpt lat="49.38787" lon="1.15532">
        <ele>138.6</ele>
        <time>2011-05-01T06:28:57Z</time>
      </trkpt>
      <trkpt lat="49.38791" lon="1.15561">
        <ele>138.8</ele>
        <time>2011-05-01T06:29:02Z</time>
      </trkpt>
      <trkpt lat="49.38793" lon="1.15564">
        <ele>138.8</ele>
        <time>2011-05-01T06:29:03Z</time>
      </trkpt>
      <trkpt lat="49.38797" lon="1.15573">
        <ele>139</ele>
        <time>2011-05-01T06:29:07Z</time>
      </trkpt>
      <trkpt lat="49.38795" lon="1.15577">
        <ele>139</ele>
        <time>2011-05-01T06:29:08Z</time>
      </trkpt>
      <trkpt lat="49.38795" lon="1.15596">
        <ele>139</ele>
        <time>2011-05-01T06:29:12Z</time>
      </trkpt>
      <trkpt lat="49.38795" lon="1.15601">
        <ele>139</ele>
        <time>2011-05-01T06:29:13Z</time>
      </trkpt>
      <trkpt lat="49.38796" lon="1.15613">
        <ele>139.2</ele>
        <time>2011-05-01T06:29:16Z</time>
      </trkpt>
      <trkpt lat="49.38798" lon="1.1562">
        <ele>139.4</ele>
        <time>2011-05-01T06:29:17Z</time>
      </trkpt>
      <trkpt lat="49.388" lon="1.15633">
        <ele>140</ele>
        <time>2011-05-01T06:29:20Z</time>
      </trkpt>
      <trkpt lat="49.388" lon="1.15637">
        <ele>140</ele>
        <time>2011-05-01T06:29:21Z</time>
      </trkpt>
      <trkpt lat="49.388" lon="1.15643">
        <ele>140.2</ele>
        <time>2011-05-01T06:29:22Z</time>
      </trkpt>
      <trkpt lat="49.388" lon="1.15653">
        <ele>140.4</ele>
        <time>2011-05-01T06:29:24Z</time>
      </trkpt>
      <trkpt lat="49.38806" lon="1.15671">
        <ele>140.8</ele>
        <time>2011-05-01T06:29:28Z</time>
      </trkpt>
      <trkpt lat="49.38808" lon="1.15676">
        <ele>140.8</ele>
        <time>2011-05-01T06:29:29Z</time>
      </trkpt>
      <trkpt lat="49.38804" lon="1.15697">
        <ele>141</ele>
        <time>2011-05-01T06:29:33Z</time>
      </trkpt>
      <trkpt lat="49.38811" lon="1.15717">
        <ele>141.2</ele>
        <time>2011-05-01T06:29:36Z</time>
      </trkpt>
      <trkpt lat="49.38816" lon="1.15725">
        <ele>141.6</ele>
        <time>2011-05-01T06:29:38Z</time>
      </trkpt>
      <trkpt lat="49.38819" lon="1.15739">
        <ele>142</ele>
        <time>2011-05-01T06:29:40Z</time>
      </trkpt>
      <trkpt lat="49.38822" lon="1.15756">
        <ele>142.2</ele>
        <time>2011-05-01T06:29:42Z</time>
      </trkpt>
      <trkpt lat="49.38824" lon="1.15768">
        <ele>142.4</ele>
        <time>2011-05-01T06:29:44Z</time>
      </trkpt>
      <trkpt lat="49.38822" lon="1.15788">
        <ele>142.8</ele>
        <time>2011-05-01T06:29:48Z</time>
      </trkpt>
      <trkpt lat="49.38825" lon="1.15806">
        <ele>142.8</ele>
        <time>2011-05-01T06:29:51Z</time>
      </trkpt>
      <trkpt lat="49.38826" lon="1.15813">
        <ele>143</ele>
        <time>2011-05-01T06:29:52Z</time>
      </trkpt>
      <trkpt lat="49.38824" lon="1.15838">
        <ele>143</ele>
        <time>2011-05-01T06:29:57Z</time>
      </trkpt>
      <trkpt lat="49.38824" lon="1.1585">
        <ele>143.2</ele>
        <time>2011-05-01T06:29:59Z</time>
      </trkpt>
      <trkpt lat="49.38819" lon="1.15865">
        <ele>143.8</ele>
        <time>2011-05-01T06:30:02Z</time>
      </trkpt>
      <trkpt lat="49.38815" lon="1.15869">
        <ele>144</ele>
        <time>2011-05-01T06:30:04Z</time>
      </trkpt>
      <trkpt lat="49.38816" lon="1.15873">
        <ele>144.4</ele>
        <time>2011-05-01T06:30:06Z</time>
      </trkpt>
      <trkpt lat="49.38817" lon="1.15876">
        <ele>144.6</ele>
        <time>2011-05-01T06:30:08Z</time>
      </trkpt>
      <trkpt lat="49.38815" lon="1.15885">
        <ele>144.8</ele>
        <time>2011-05-01T06:30:11Z</time>
      </trkpt>
      <trkpt lat="49.38816" lon="1.1589">
        <ele>144.8</ele>
        <time>2011-05-01T06:30:12Z</time>
      </trkpt>
      <trkpt lat="49.38822" lon="1.15913">
        <ele>145</ele>
        <time>2011-05-01T06:30:16Z</time>
      </trkpt>
      <trkpt lat="49.38824" lon="1.15923">
        <ele>145.4</ele>
        <time>2011-05-01T06:30:18Z</time>
      </trkpt>
      <trkpt lat="49.38824" lon="1.15932">
        <ele>145.8</ele>
        <time>2011-05-01T06:30:20Z</time>
      </trkpt>
      <trkpt lat="49.38824" lon="1.15942">
        <ele>146.2</ele>
        <time>2011-05-01T06:30:22Z</time>
      </trkpt>
      <trkpt lat="49.38824" lon="1.15955">
        <ele>146.4</ele>
        <time>2011-05-01T06:30:24Z</time>
      </trkpt>
      <trkpt lat="49.38823" lon="1.15968">
        <ele>146.6</ele>
        <time>2011-05-01T06:30:26Z</time>
      </trkpt>
      <trkpt lat="49.38824" lon="1.16001">
        <ele>147.4</ele>
        <time>2011-05-01T06:30:32Z</time>
      </trkpt>
      <trkpt lat="49.38822" lon="1.16004">
        <ele>147.6</ele>
        <time>2011-05-01T06:30:33Z</time>
      </trkpt>
      <trkpt lat="49.38822" lon="1.16008">
        <ele>148</ele>
        <time>2011-05-01T06:30:34Z</time>
      </trkpt>
      <trkpt lat="49.38822" lon="1.1601">
        <ele>148.4</ele>
        <time>2011-05-01T06:30:36Z</time>
      </trkpt>
      <trkpt lat="49.38822" lon="1.16008">
        <ele>148.4</ele>
        <time>2011-05-01T06:30:37Z</time>
      </trkpt>
      <trkpt lat="49.38821" lon="1.16006">
        <ele>148.6</ele>
        <time>2011-05-01T06:30:38Z</time>
      </trkpt>
      <trkpt lat="49.38821" lon="1.16004">
        <ele>148.8</ele>
        <time>2011-05-01T06:30:39Z</time>
      </trkpt>
      <trkpt lat="49.3882" lon="1.16002">
        <ele>149</ele>
        <time>2011-05-01T06:30:40Z</time>
      </trkpt>
      <trkpt lat="49.3882" lon="1.16001">
        <ele>149.4</ele>
        <time>2011-05-01T06:30:43Z</time>
      </trkpt>
      <trkpt lat="49.38819" lon="1.16">
        <ele>150</ele>
        <time>2011-05-01T06:30:45Z</time>
      </trkpt>
      <trkpt lat="49.38819" lon="1.15999">
        <ele>150.4</ele>
        <time>2011-05-01T06:30:47Z</time>
      </trkpt>
      <trkpt lat="49.38817" lon="1.15998">
        <ele>150.8</ele>
        <time>2011-05-01T06:30:49Z</time>
      </trkpt>
      <trkpt lat="49.38815" lon="1.15997">
        <ele>151</ele>
        <time>2011-05-01T06:30:51Z</time>
      </trkpt>
      <trkpt lat="49.38814" lon="1.15997">
        <ele>151.4</ele>
        <time>2011-05-01T06:30:52Z</time>
      </trkpt>
      <trkpt lat="49.38814" lon="1.15996">
        <ele>151.8</ele>
        <time>2011-05-01T06:30:53Z</time>
      </trkpt>
      <trkpt lat="49.38813" lon="1.15995">
        <ele>152</ele>
        <time>2011-05-01T06:30:54Z</time>
      </trkpt>
      <trkpt lat="49.38812" lon="1.15994">
        <ele>152.6</ele>
        <time>2011-05-01T06:30:56Z</time>
      </trkpt>
      <trkpt lat="49.3881" lon="1.15993">
        <ele>153</ele>
        <time>2011-05-01T06:30:58Z</time>
      </trkpt>
      <trkpt lat="49.38809" lon="1.15992">
        <ele>153.2</ele>
        <time>2011-05-01T06:30:59Z</time>
      </trkpt>
      <trkpt lat="49.38807" lon="1.15992">
        <ele>154</ele>
        <time>2011-05-01T06:31:01Z</time>
      </trkpt>
      <trkpt lat="49.38806" lon="1.15993">
        <ele>154.4</ele>
        <time>2011-05-01T06:31:03Z</time>
      </trkpt>
      <trkpt lat="49.38804" lon="1.15993">
        <ele>154.8</ele>
        <time>2011-05-01T06:31:05Z</time>
      </trkpt>
      <trkpt lat="49.38801" lon="1.15991">
        <ele>155.4</ele>
        <time>2011-05-01T06:31:07Z</time>
      </trkpt>
      <trkpt lat="49.38799" lon="1.15989">
        <ele>156</ele>
        <time>2011-05-01T06:31:09Z</time>
      </trkpt>
      <trkpt lat="49.38799" lon="1.15986">
        <ele>156.6</ele>
        <time>2011-05-01T06:31:11Z</time>
      </trkpt>
      <trkpt lat="49.38798" lon="1.15983">
        <ele>157</ele>
        <time>2011-05-01T06:31:13Z</time>
      </trkpt>
      <trkpt lat="49.38798" lon="1.15979">
        <ele>157.4</ele>
        <time>2011-05-01T06:31:15Z</time>
      </trkpt>
      <trkpt lat="49.38798" lon="1.15978">
        <ele>157.8</ele>
        <time>2011-05-01T06:31:16Z</time>
      </trkpt>
      <trkpt lat="49.38798" lon="1.15975">
        <ele>158.4</ele>
        <time>2011-05-01T06:31:18Z</time>
      </trkpt>
      <trkpt lat="49.38796" lon="1.15972">
        <ele>158.8</ele>
        <time>2011-05-01T06:31:20Z</time>
      </trkpt>
      <trkpt lat="49.38793" lon="1.15969">
        <ele>159.2</ele>
        <time>2011-05-01T06:31:22Z</time>
      </trkpt>
      <trkpt lat="49.38792" lon="1.15967">
        <ele>159.6</ele>
        <time>2011-05-01T06:31:23Z</time>
      </trkpt>
      <trkpt lat="49.38792" lon="1.15965">
        <ele>160.2</ele>
        <time>2011-05-01T06:31:25Z</time>
      </trkpt>
      <trkpt lat="49.3879" lon="1.15964">
        <ele>160.8</ele>
        <time>2011-05-01T06:31:27Z</time>
      </trkpt>
      <trkpt lat="49.38786" lon="1.15962">
        <ele>161.2</ele>
        <time>2011-05-01T06:31:29Z</time>
      </trkpt>
      <trkpt lat="49.38783" lon="1.1596">
        <ele>161.8</ele>
        <time>2011-05-01T06:31:31Z</time>
      </trkpt>
      <trkpt lat="49.38781" lon="1.1596">
        <ele>162.4</ele>
        <time>2011-05-01T06:31:33Z</time>
      </trkpt>
      <trkpt lat="49.38778" lon="1.15958">
        <ele>163</ele>
        <time>2011-05-01T06:31:35Z</time>
      </trkpt>
      <trkpt lat="49.38775" lon="1.15956">
        <ele>163.4</ele>
        <time>2011-05-01T06:31:37Z</time>
      </trkpt>
      <trkpt lat="49.38774" lon="1.15954">
        <ele>163.8</ele>
        <time>2011-05-01T06:31:38Z</time>
      </trkpt>
      <trkpt lat="49.38772" lon="1.15953">
        <ele>164</ele>
        <time>2011-05-01T06:31:39Z</time>
      </trkpt>
      <trkpt lat="49.38765" lon="1.15953">
        <ele>165</ele>
        <time>2011-05-01T06:31:42Z</time>
      </trkpt>
      <trkpt lat="49.38762" lon="1.15948">
        <ele>165.4</ele>
        <time>2011-05-01T06:31:45Z</time>
      </trkpt>
      <trkpt lat="49.38763" lon="1.15945">
        <ele>165.8</ele>
        <time>2011-05-01T06:31:46Z</time>
      </trkpt>
      <trkpt lat="49.38762" lon="1.15943">
        <ele>166.6</ele>
        <time>2011-05-01T06:31:47Z</time>
      </trkpt>
      <trkpt lat="49.38759" lon="1.15943">
        <ele>167.2</ele>
        <time>2011-05-01T06:31:49Z</time>
      </trkpt>
      <trkpt lat="49.38756" lon="1.15942">
        <ele>167.6</ele>
        <time>2011-05-01T06:31:51Z</time>
      </trkpt>
      <trkpt lat="49.38755" lon="1.1594">
        <ele>168</ele>
        <time>2011-05-01T06:31:53Z</time>
      </trkpt>
      <trkpt lat="49.38753" lon="1.15938">
        <ele>168.6</ele>
        <time>2011-05-01T06:31:55Z</time>
      </trkpt>
      <trkpt lat="49.38752" lon="1.15936">
        <ele>169.2</ele>
        <time>2011-05-01T06:31:57Z</time>
      </trkpt>
      <trkpt lat="49.38751" lon="1.15934">
        <ele>169.8</ele>
        <time>2011-05-01T06:31:59Z</time>
      </trkpt>
      <trkpt lat="49.38748" lon="1.15933">
        <ele>170.2</ele>
        <time>2011-05-01T06:32:01Z</time>
      </trkpt>
      <trkpt lat="49.38746" lon="1.15932">
        <ele>170.6</ele>
        <time>2011-05-01T06:32:02Z</time>
      </trkpt>
      <trkpt lat="49.38741" lon="1.1593">
        <ele>171.2</ele>
        <time>2011-05-01T06:32:04Z</time>
      </trkpt>
      <trkpt lat="49.38737" lon="1.15927">
        <ele>171.8</ele>
        <time>2011-05-01T06:32:06Z</time>
      </trkpt>
      <trkpt lat="49.38735" lon="1.15924">
        <ele>172.2</ele>
        <time>2011-05-01T06:32:08Z</time>
      </trkpt>
      <trkpt lat="49.38734" lon="1.15922">
        <ele>172.6</ele>
        <time>2011-05-01T06:32:10Z</time>
      </trkpt>
      <trkpt lat="49.38733" lon="1.15921">
        <ele>173</ele>
        <time>2011-05-01T06:32:11Z</time>
      </trkpt>
      <trkpt lat="49.38731" lon="1.15918">
        <ele>173.6</ele>
        <time>2011-05-01T06:32:13Z</time>
      </trkpt>
      <trkpt lat="49.3873" lon="1.15917">
        <ele>174.2</ele>
        <time>2011-05-01T06:32:15Z</time>
      </trkpt>
      <trkpt lat="49.38728" lon="1.15915">
        <ele>174.6</ele>
        <time>2011-05-01T06:32:17Z</time>
      </trkpt>
      <trkpt lat="49.38724" lon="1.15911">
        <ele>175</ele>
        <time>2011-05-01T06:32:19Z</time>
      </trkpt>
      <trkpt lat="49.38722" lon="1.15911">
        <ele>175.2</ele>
        <time>2011-05-01T06:32:20Z</time>
      </trkpt>
      <trkpt lat="49.3872" lon="1.15909">
        <ele>175.6</ele>
        <time>2011-05-01T06:32:21Z</time>
      </trkpt>
      <trkpt lat="49.38715" lon="1.15908">
        <ele>176.4</ele>
        <time>2011-05-01T06:32:24Z</time>
      </trkpt>
      <trkpt lat="49.38714" lon="1.15907">
        <ele>176.6</ele>
        <time>2011-05-01T06:32:25Z</time>
      </trkpt>
      <trkpt lat="49.38714" lon="1.15906">
        <ele>177</ele>
        <time>2011-05-01T06:32:26Z</time>
      </trkpt>
      <trkpt lat="49.38713" lon="1.15902">
        <ele>177.6</ele>
        <time>2011-05-01T06:32:28Z</time>
      </trkpt>
      <trkpt lat="49.38712" lon="1.159">
        <ele>178</ele>
        <time>2011-05-01T06:32:29Z</time>
      </trkpt>
      <trkpt lat="49.3871" lon="1.15898">
        <ele>178.2</ele>
        <time>2011-05-01T06:32:30Z</time>
      </trkpt>
      <trkpt lat="49.38705" lon="1.15896">
        <ele>178.8</ele>
        <time>2011-05-01T06:32:32Z</time>
      </trkpt>
      <trkpt lat="49.38703" lon="1.15897">
        <ele>179.2</ele>
        <time>2011-05-01T06:32:34Z</time>
      </trkpt>
      <trkpt lat="49.38703" lon="1.15897">
        <ele>179.4</ele>
        <time>2011-05-01T06:32:35Z</time>
      </trkpt>
      <trkpt lat="49.38704" lon="1.15895">
        <ele>180.2</ele>
        <time>2011-05-01T06:32:37Z</time>
      </trkpt>
      <trkpt lat="49.38703" lon="1.15893">
        <ele>180.4</ele>
        <time>2011-05-01T06:32:38Z</time>
      </trkpt>
      <trkpt lat="49.38703" lon="1.15892">
        <ele>180.6</ele>
        <time>2011-05-01T06:32:39Z</time>
      </trkpt>
      <trkpt lat="49.38702" lon="1.1589">
        <ele>181.2</ele>
        <time>2011-05-01T06:32:41Z</time>
      </trkpt>
      <trkpt lat="49.38701" lon="1.15888">
        <ele>181.4</ele>
        <time>2011-05-01T06:32:43Z</time>
      </trkpt>
      <trkpt lat="49.387" lon="1.15882">
        <ele>182</ele>
        <time>2011-05-01T06:32:46Z</time>
      </trkpt>
      <trkpt lat="49.38699" lon="1.15878">
        <ele>182.6</ele>
        <time>2011-05-01T06:32:48Z</time>
      </trkpt>
      <trkpt lat="49.38697" lon="1.15876">
        <ele>183.2</ele>
        <time>2011-05-01T06:32:50Z</time>
      </trkpt>
      <trkpt lat="49.38696" lon="1.15875">
        <ele>183.4</ele>
        <time>2011-05-01T06:32:52Z</time>
      </trkpt>
      <trkpt lat="49.38693" lon="1.15871">
        <ele>184</ele>
        <time>2011-05-01T06:32:54Z</time>
      </trkpt>
      <trkpt lat="49.38693" lon="1.1587">
        <ele>184.6</ele>
        <time>2011-05-01T06:32:56Z</time>
      </trkpt>
      <trkpt lat="49.38693" lon="1.15869">
        <ele>185</ele>
        <time>2011-05-01T06:32:58Z</time>
      </trkpt>
      <trkpt lat="49.38691" lon="1.15867">
        <ele>185.4</ele>
        <time>2011-05-01T06:33:00Z</time>
      </trkpt>
      <trkpt lat="49.38689" lon="1.15866">
        <ele>185.8</ele>
        <time>2011-05-01T06:33:02Z</time>
      </trkpt>
      <trkpt lat="49.38689" lon="1.15866">
        <ele>186.2</ele>
        <time>2011-05-01T06:33:03Z</time>
      </trkpt>
      <trkpt lat="49.38688" lon="1.15864">
        <ele>186.8</ele>
        <time>2011-05-01T06:33:05Z</time>
      </trkpt>
      <trkpt lat="49.38686" lon="1.15862">
        <ele>187.2</ele>
        <time>2011-05-01T06:33:07Z</time>
      </trkpt>
      <trkpt lat="49.38683" lon="1.1586">
        <ele>187.6</ele>
        <time>2011-05-01T06:33:09Z</time>
      </trkpt>
      <trkpt lat="49.38681" lon="1.15857">
        <ele>188</ele>
        <time>2011-05-01T06:33:11Z</time>
      </trkpt>
      <trkpt lat="49.38677" lon="1.15851">
        <ele>188.6</ele>
        <time>2011-05-01T06:33:15Z</time>
      </trkpt>
      <trkpt lat="49.38675" lon="1.15844">
        <ele>189.2</ele>
        <time>2011-05-01T06:33:17Z</time>
      </trkpt>
      <trkpt lat="49.38675" lon="1.15842">
        <ele>189.4</ele>
        <time>2011-05-01T06:33:18Z</time>
      </trkpt>
      <trkpt lat="49.38672" lon="1.15839">
        <ele>190.2</ele>
        <time>2011-05-01T06:33:21Z</time>
      </trkpt>
      <trkpt lat="49.38671" lon="1.15838">
        <ele>190.6</ele>
        <time>2011-05-01T06:33:22Z</time>
      </trkpt>
      <trkpt lat="49.3867" lon="1.15838">
        <ele>190.8</ele>
        <time>2011-05-01T06:33:23Z</time>
      </trkpt>
      <trkpt lat="49.38669" lon="1.15838">
        <ele>191.4</ele>
        <time>2011-05-01T06:33:25Z</time>
      </trkpt>
      <trkpt lat="49.38668" lon="1.15838">
        <ele>191.8</ele>
        <time>2011-05-01T06:33:27Z</time>
      </trkpt>
      <trkpt lat="49.38666" lon="1.15838">
        <ele>192.4</ele>
        <time>2011-05-01T06:33:29Z</time>
      </trkpt>
      <trkpt lat="49.38664" lon="1.15839">
        <ele>193</ele>
        <time>2011-05-01T06:33:31Z</time>
      </trkpt>
      <trkpt lat="49.38662" lon="1.15839">
        <ele>193.6</ele>
        <time>2011-05-01T06:33:33Z</time>
      </trkpt>
      <trkpt lat="49.38661" lon="1.1584">
        <ele>194</ele>
        <time>2011-05-01T06:33:35Z</time>
      </trkpt>
      <trkpt lat="49.38661" lon="1.15841">
        <ele>194.4</ele>
        <time>2011-05-01T06:33:36Z</time>
      </trkpt>
      <trkpt lat="49.38661" lon="1.15841">
        <ele>194.8</ele>
        <time>2011-05-01T06:33:37Z</time>
      </trkpt>
      <trkpt lat="49.38659" lon="1.1584">
        <ele>195.4</ele>
        <time>2011-05-01T06:33:39Z</time>
      </trkpt>
      <trkpt lat="49.38658" lon="1.15841">
        <ele>195.6</ele>
        <time>2011-05-01T06:33:40Z</time>
      </trkpt>
      <trkpt lat="49.38657" lon="1.15841">
        <ele>195.8</ele>
        <time>2011-05-01T06:33:41Z</time>
      </trkpt>
      <trkpt lat="49.38654" lon="1.15842">
        <ele>196</ele>
        <time>2011-05-01T06:33:42Z</time>
      </trkpt>
      <trkpt lat="49.3865" lon="1.15842">
        <ele>196.6</ele>
        <time>2011-05-01T06:33:44Z</time>
      </trkpt>
      <trkpt lat="49.38647" lon="1.15842">
        <ele>197.2</ele>
        <time>2011-05-01T06:33:46Z</time>
      </trkpt>
      <trkpt lat="49.38645" lon="1.15844">
        <ele>197.8</ele>
        <time>2011-05-01T06:33:48Z</time>
      </trkpt>
      <trkpt lat="49.38641" lon="1.15845">
        <ele>198.2</ele>
        <time>2011-05-01T06:33:50Z</time>
      </trkpt>
      <trkpt lat="49.38639" lon="1.15844">
        <ele>198.4</ele>
        <time>2011-05-01T06:33:51Z</time>
      </trkpt>
      <trkpt lat="49.38632" lon="1.15841">
        <ele>199.6</ele>
        <time>2011-05-01T06:33:54Z</time>
      </trkpt>
      <trkpt lat="49.3863" lon="1.15839">
        <ele>199.8</ele>
        <time>2011-05-01T06:33:55Z</time>
      </trkpt>
      <trkpt lat="49.38625" lon="1.15837">
        <ele>200.6</ele>
        <time>2011-05-01T06:33:58Z</time>
      </trkpt>
      <trkpt lat="49.38624" lon="1.15836">
        <ele>201</ele>
        <time>2011-05-01T06:33:59Z</time>
      </trkpt>
      <trkpt lat="49.38621" lon="1.15835">
        <ele>201.6</ele>
        <time>2011-05-01T06:34:01Z</time>
      </trkpt>
      <trkpt lat="49.38619" lon="1.15835">
        <ele>202.2</ele>
        <time>2011-05-01T06:34:03Z</time>
      </trkpt>
      <trkpt lat="49.38616" lon="1.15835">
        <ele>202.8</ele>
        <time>2011-05-01T06:34:05Z</time>
      </trkpt>
      <trkpt lat="49.38613" lon="1.15835">
        <ele>203.2</ele>
        <time>2011-05-01T06:34:07Z</time>
      </trkpt>
      <trkpt lat="49.38605" lon="1.15836">
        <ele>204</ele>
        <time>2011-05-01T06:34:14Z</time>
      </trkpt>
      <trkpt lat="49.38602" lon="1.15837">
        <ele>204.4</ele>
        <time>2011-05-01T06:34:16Z</time>
      </trkpt>
      <trkpt lat="49.38598" lon="1.15837">
        <ele>204.8</ele>
        <time>2011-05-01T06:34:18Z</time>
      </trkpt>
      <trkpt lat="49.38595" lon="1.15836">
        <ele>205.2</ele>
        <time>2011-05-01T06:34:20Z</time>
      </trkpt>
      <trkpt lat="49.38591" lon="1.15835">
        <ele>205.6</ele>
        <time>2011-05-01T06:34:22Z</time>
      </trkpt>
      <trkpt lat="49.38588" lon="1.15833">
        <ele>205.8</ele>
        <time>2011-05-01T06:34:24Z</time>
      </trkpt>
      <trkpt lat="49.38578" lon="1.15831">
        <ele>206.4</ele>
        <time>2011-05-01T06:34:30Z</time>
      </trkpt>
      <trkpt lat="49.38572" lon="1.15828">
        <ele>206.6</ele>
        <time>2011-05-01T06:34:34Z</time>
      </trkpt>
      <trkpt lat="49.3856" lon="1.15823">
        <ele>206.8</ele>
        <time>2011-05-01T06:34:42Z</time>
      </trkpt>
      <trkpt lat="49.38549" lon="1.15819">
        <ele>207</ele>
        <time>2011-05-01T06:34:48Z</time>
      </trkpt>
      <trkpt lat="49.38536" lon="1.15814">
        <ele>207</ele>
        <time>2011-05-01T06:34:54Z</time>
      </trkpt>
      <trkpt lat="49.38519" lon="1.15808">
        <ele>207</ele>
        <time>2011-05-01T06:35:02Z</time>
      </trkpt>
      <trkpt lat="49.38502" lon="1.15801">
        <ele>207.2</ele>
        <time>2011-05-01T06:35:09Z</time>
      </trkpt>
      <trkpt lat="49.38497" lon="1.158">
        <ele>207.6</ele>
        <time>2011-05-01T06:35:11Z</time>
      </trkpt>
      <trkpt lat="49.38494" lon="1.158">
        <ele>207.8</ele>
        <time>2011-05-01T06:35:13Z</time>
      </trkpt>
      <trkpt lat="49.38492" lon="1.15799">
        <ele>208</ele>
        <time>2011-05-01T06:35:15Z</time>
      </trkpt>
      <trkpt lat="49.38491" lon="1.15799">
        <ele>208.2</ele>
        <time>2011-05-01T06:35:16Z</time>
      </trkpt>
      <trkpt lat="49.38491" lon="1.15799">
        <ele>209</ele>
        <time>2011-05-01T06:35:45Z</time>
      </trkpt>
      <trkpt lat="49.38491" lon="1.15799">
        <ele>209</ele>
        <time>2011-05-01T06:35:46Z</time>
      </trkpt>
      <trkpt lat="49.38491" lon="1.15799">
        <ele>209</ele>
        <time>2011-05-01T06:35:47Z</time>
      </trkpt>
      <trkpt lat="49.38479" lon="1.15795">
        <ele>209</ele>
        <time>2011-05-01T06:35:55Z</time>
      </trkpt>
      <trkpt lat="49.38457" lon="1.15791">
        <ele>209</ele>
        <time>2011-05-01T06:36:04Z</time>
      </trkpt>
      <trkpt lat="49.38432" lon="1.15784">
        <ele>209.2</ele>
        <time>2011-05-01T06:36:13Z</time>
      </trkpt>
      <trkpt lat="49.38414" lon="1.15779">
        <ele>209.2</ele>
        <time>2011-05-01T06:36:19Z</time>
      </trkpt>
      <trkpt lat="49.38388" lon="1.15772">
        <ele>209.2</ele>
        <time>2011-05-01T06:36:27Z</time>
      </trkpt>
      <trkpt lat="49.38353" lon="1.15764">
        <ele>209.2</ele>
        <time>2011-05-01T06:36:37Z</time>
      </trkpt>
      <trkpt lat="49.38332" lon="1.15757">
        <ele>209.2</ele>
        <time>2011-05-01T06:36:43Z</time>
      </trkpt>
      <trkpt lat="49.38324" lon="1.15757">
        <ele>208.8</ele>
        <time>2011-05-01T06:36:45Z</time>
      </trkpt>
      <trkpt lat="49.38317" lon="1.15757">
        <ele>208.6</ele>
        <time>2011-05-01T06:36:47Z</time>
      </trkpt>
      <trkpt lat="49.38309" lon="1.15759">
        <ele>208.2</ele>
        <time>2011-05-01T06:36:49Z</time>
      </trkpt>
      <trkpt lat="49.38302" lon="1.15762">
        <ele>208</ele>
        <time>2011-05-01T06:36:51Z</time>
      </trkpt>
      <trkpt lat="49.38294" lon="1.15765">
        <ele>207.8</ele>
        <time>2011-05-01T06:36:53Z</time>
      </trkpt>
      <trkpt lat="49.38269" lon="1.15771">
        <ele>207.4</ele>
        <time>2011-05-01T06:37:00Z</time>
      </trkpt>
      <trkpt lat="49.38238" lon="1.15773">
        <ele>207.2</ele>
        <time>2011-05-01T06:37:08Z</time>
      </trkpt>
      <trkpt lat="49.38199" lon="1.15771">
        <ele>207</ele>
        <time>2011-05-01T06:37:17Z</time>
      </trkpt>
      <trkpt lat="49.38183" lon="1.15768">
        <ele>207</ele>
        <time>2011-05-01T06:37:21Z</time>
      </trkpt>
      <trkpt lat="49.38152" lon="1.15762">
        <ele>207</ele>
        <time>2011-05-01T06:37:29Z</time>
      </trkpt>
      <trkpt lat="49.38128" lon="1.15762">
        <ele>207</ele>
        <time>2011-05-01T06:37:35Z</time>
      </trkpt>
      <trkpt lat="49.38104" lon="1.15765">
        <ele>207</ele>
        <time>2011-05-01T06:37:41Z</time>
      </trkpt>
      <trkpt lat="49.381" lon="1.15766">
        <ele>206.8</ele>
        <time>2011-05-01T06:37:42Z</time>
      </trkpt>
      <trkpt lat="49.38091" lon="1.15767">
        <ele>206.4</ele>
        <time>2011-05-01T06:37:44Z</time>
      </trkpt>
      <trkpt lat="49.38082" lon="1.15768">
        <ele>206</ele>
        <time>2011-05-01T06:37:46Z</time>
      </trkpt>
      <trkpt lat="49.38073" lon="1.15769">
        <ele>205.8</ele>
        <time>2011-05-01T06:37:48Z</time>
      </trkpt>
      <trkpt lat="49.38063" lon="1.15769">
        <ele>205.6</ele>
        <time>2011-05-01T06:37:50Z</time>
      </trkpt>
      <trkpt lat="49.38047" lon="1.15769">
        <ele>205.4</ele>
        <time>2011-05-01T06:37:54Z</time>
      </trkpt>
      <trkpt lat="49.38036" lon="1.15771">
        <ele>205.2</ele>
        <time>2011-05-01T06:37:58Z</time>
      </trkpt>
      <trkpt lat="49.38021" lon="1.15774">
        <ele>205.2</ele>
        <time>2011-05-01T06:38:02Z</time>
      </trkpt>
      <trkpt lat="49.38" lon="1.1579">
        <ele>205</ele>
        <time>2011-05-01T06:38:07Z</time>
      </trkpt>
      <trkpt lat="49.37976" lon="1.15825">
        <ele>205</ele>
        <time>2011-05-01T06:38:15Z</time>
      </trkpt>
      <trkpt lat="49.3797" lon="1.15832">
        <ele>204.8</ele>
        <time>2011-05-01T06:38:17Z</time>
      </trkpt>
      <trkpt lat="49.37964" lon="1.15839">
        <ele>204.4</ele>
        <time>2011-05-01T06:38:19Z</time>
      </trkpt>
      <trkpt lat="49.37961" lon="1.15842">
        <ele>204.2</ele>
        <time>2011-05-01T06:38:20Z</time>
      </trkpt>
      <trkpt lat="49.37952" lon="1.15855">
        <ele>203.8</ele>
        <time>2011-05-01T06:38:23Z</time>
      </trkpt>
      <trkpt lat="49.37946" lon="1.15865">
        <ele>203.6</ele>
        <time>2011-05-01T06:38:25Z</time>
      </trkpt>
      <trkpt lat="49.37932" lon="1.15889">
        <ele>203.4</ele>
        <time>2011-05-01T06:38:30Z</time>
      </trkpt>
      <trkpt lat="49.37909" lon="1.15918">
        <ele>203.2</ele>
        <time>2011-05-01T06:38:36Z</time>
      </trkpt>
      <trkpt lat="49.37886" lon="1.15946">
        <ele>202.8</ele>
        <time>2011-05-01T06:38:43Z</time>
      </trkpt>
      <trkpt lat="49.3788" lon="1.15953">
        <ele>202.4</ele>
        <time>2011-05-01T06:38:45Z</time>
      </trkpt>
      <trkpt lat="49.37874" lon="1.1596">
        <ele>202</ele>
        <time>2011-05-01T06:38:47Z</time>
      </trkpt>
      <trkpt lat="49.37867" lon="1.15967">
        <ele>201.8</ele>
        <time>2011-05-01T06:38:49Z</time>
      </trkpt>
      <trkpt lat="49.37861" lon="1.15974">
        <ele>201.6</ele>
        <time>2011-05-01T06:38:51Z</time>
      </trkpt>
      <trkpt lat="49.37848" lon="1.15989">
        <ele>201.2</ele>
        <time>2011-05-01T06:38:56Z</time>
      </trkpt>
      <trkpt lat="49.3784" lon="1.16001">
        <ele>201.2</ele>
        <time>2011-05-01T06:39:00Z</time>
      </trkpt>
      <trkpt lat="49.37823" lon="1.16023">
        <ele>201</ele>
        <time>2011-05-01T06:39:06Z</time>
      </trkpt>
      <trkpt lat="49.37816" lon="1.16037">
        <ele>201</ele>
        <time>2011-05-01T06:39:09Z</time>
      </trkpt>
      <trkpt lat="49.37793" lon="1.16076">
        <ele>200.8</ele>
        <time>2011-05-01T06:39:16Z</time>
      </trkpt>
      <trkpt lat="49.3778" lon="1.16107">
        <ele>200.8</ele>
        <time>2011-05-01T06:39:23Z</time>
      </trkpt>
      <trkpt lat="49.37773" lon="1.1612">
        <ele>200.8</ele>
        <time>2011-05-01T06:39:27Z</time>
      </trkpt>
      <trkpt lat="49.37767" lon="1.16123">
        <ele>201</ele>
        <time>2011-05-01T06:39:29Z</time>
      </trkpt>
      <trkpt lat="49.37762" lon="1.1612">
        <ele>201.4</ele>
        <time>2011-05-01T06:39:31Z</time>
      </trkpt>
      <trkpt lat="49.3776" lon="1.16117">
        <ele>201.4</ele>
        <time>2011-05-01T06:39:32Z</time>
      </trkpt>
      <trkpt lat="49.37758" lon="1.16112">
        <ele>201.6</ele>
        <time>2011-05-01T06:39:33Z</time>
      </trkpt>
      <trkpt lat="49.37755" lon="1.161">
        <ele>201.8</ele>
        <time>2011-05-01T06:39:35Z</time>
      </trkpt>
      <trkpt lat="49.37753" lon="1.16088">
        <ele>202</ele>
        <time>2011-05-01T06:39:37Z</time>
      </trkpt>
      <trkpt lat="49.37749" lon="1.16065">
        <ele>202.4</ele>
        <time>2011-05-01T06:39:41Z</time>
      </trkpt>
      <trkpt lat="49.37734" lon="1.16004">
        <ele>202.6</ele>
        <time>2011-05-01T06:39:51Z</time>
      </trkpt>
      <trkpt lat="49.37723" lon="1.15953">
        <ele>202.6</ele>
        <time>2011-05-01T06:39:59Z</time>
      </trkpt>
      <trkpt lat="49.37719" lon="1.15938">
        <ele>202.2</ele>
        <time>2011-05-01T06:40:01Z</time>
      </trkpt>
      <trkpt lat="49.37715" lon="1.15919">
        <ele>202</ele>
        <time>2011-05-01T06:40:03Z</time>
      </trkpt>
      <trkpt lat="49.3771" lon="1.15899">
        <ele>201.8</ele>
        <time>2011-05-01T06:40:05Z</time>
      </trkpt>
      <trkpt lat="49.37706" lon="1.15882">
        <ele>201.6</ele>
        <time>2011-05-01T06:40:08Z</time>
      </trkpt>
      <trkpt lat="49.37692" lon="1.1582">
        <ele>200.8</ele>
        <time>2011-05-01T06:40:16Z</time>
      </trkpt>
      <trkpt lat="49.37689" lon="1.15804">
        <ele>200.4</ele>
        <time>2011-05-01T06:40:18Z</time>
      </trkpt>
      <trkpt lat="49.37685" lon="1.15788">
        <ele>200</ele>
        <time>2011-05-01T06:40:20Z</time>
      </trkpt>
      <trkpt lat="49.3768" lon="1.15772">
        <ele>199.8</ele>
        <time>2011-05-01T06:40:22Z</time>
      </trkpt>
      <trkpt lat="49.37676" lon="1.15754">
        <ele>199.6</ele>
        <time>2011-05-01T06:40:24Z</time>
      </trkpt>
      <trkpt lat="49.37663" lon="1.15696">
        <ele>199</ele>
        <time>2011-05-01T06:40:31Z</time>
      </trkpt>
      <trkpt lat="49.37651" lon="1.15683">
        <ele>198.4</ele>
        <time>2011-05-01T06:40:34Z</time>
      </trkpt>
      <trkpt lat="49.37646" lon="1.15682">
        <ele>198.2</ele>
        <time>2011-05-01T06:40:35Z</time>
      </trkpt>
      <trkpt lat="49.37636" lon="1.15681">
        <ele>197.8</ele>
        <time>2011-05-01T06:40:37Z</time>
      </trkpt>
      <trkpt lat="49.37631" lon="1.1568">
        <ele>197.6</ele>
        <time>2011-05-01T06:40:38Z</time>
      </trkpt>
      <trkpt lat="49.37622" lon="1.15677">
        <ele>197.4</ele>
        <time>2011-05-01T06:40:40Z</time>
      </trkpt>
      <trkpt lat="49.37578" lon="1.15658">
        <ele>196.8</ele>
        <time>2011-05-01T06:40:50Z</time>
      </trkpt>
      <trkpt lat="49.37536" lon="1.15644">
        <ele>196.6</ele>
        <time>2011-05-01T06:41:00Z</time>
      </trkpt>
      <trkpt lat="49.375" lon="1.1564">
        <ele>196.4</ele>
        <time>2011-05-01T06:41:08Z</time>
      </trkpt>
      <trkpt lat="49.37468" lon="1.1565">
        <ele>196.4</ele>
        <time>2011-05-01T06:41:15Z</time>
      </trkpt>
      <trkpt lat="49.37447" lon="1.1566">
        <ele>196.4</ele>
        <time>2011-05-01T06:41:20Z</time>
      </trkpt>
      <trkpt lat="49.37422" lon="1.15675">
        <ele>196.4</ele>
        <time>2011-05-01T06:41:26Z</time>
      </trkpt>
      <trkpt lat="49.37414" lon="1.15679">
        <ele>196.6</ele>
        <time>2011-05-01T06:41:28Z</time>
      </trkpt>
      <trkpt lat="49.37406" lon="1.15683">
        <ele>197</ele>
        <time>2011-05-01T06:41:30Z</time>
      </trkpt>
      <trkpt lat="49.37398" lon="1.15687">
        <ele>197.2</ele>
        <time>2011-05-01T06:41:32Z</time>
      </trkpt>
      <trkpt lat="49.37391" lon="1.15691">
        <ele>197.6</ele>
        <time>2011-05-01T06:41:34Z</time>
      </trkpt>
      <trkpt lat="49.37383" lon="1.15695">
        <ele>197.6</ele>
        <time>2011-05-01T06:41:36Z</time>
      </trkpt>
      <trkpt lat="49.37349" lon="1.15715">
        <ele>198.2</ele>
        <time>2011-05-01T06:41:44Z</time>
      </trkpt>
      <trkpt lat="49.37344" lon="1.15717">
        <ele>198.2</ele>
        <time>2011-05-01T06:41:45Z</time>
      </trkpt>
      <trkpt lat="49.37327" lon="1.15727">
        <ele>198.2</ele>
        <time>2011-05-01T06:41:49Z</time>
      </trkpt>
      <trkpt lat="49.37325" lon="1.15726">
        <ele>198.2</ele>
        <time>2011-05-01T06:41:50Z</time>
      </trkpt>
      <trkpt lat="49.37319" lon="1.15718">
        <ele>198.4</ele>
        <time>2011-05-01T06:41:53Z</time>
      </trkpt>
      <trkpt lat="49.37316" lon="1.15713">
        <ele>198.4</ele>
        <time>2011-05-01T06:41:54Z</time>
      </trkpt>
      <trkpt lat="49.37305" lon="1.15694">
        <ele>198.4</ele>
        <time>2011-05-01T06:41:58Z</time>
      </trkpt>
      <trkpt lat="49.37278" lon="1.15656">
        <ele>198.4</ele>
        <time>2011-05-01T06:42:05Z</time>
      </trkpt>
      <trkpt lat="49.37244" lon="1.1562">
        <ele>198.2</ele>
        <time>2011-05-01T06:42:14Z</time>
      </trkpt>
      <trkpt lat="49.37235" lon="1.15614">
        <ele>197.8</ele>
        <time>2011-05-01T06:42:15Z</time>
      </trkpt>
      <trkpt lat="49.37224" lon="1.15608">
        <ele>197.6</ele>
        <time>2011-05-01T06:42:17Z</time>
      </trkpt>
      <trkpt lat="49.37213" lon="1.15602">
        <ele>197.4</ele>
        <time>2011-05-01T06:42:19Z</time>
      </trkpt>
      <trkpt lat="49.37201" lon="1.15598">
        <ele>197.2</ele>
        <time>2011-05-01T06:42:21Z</time>
      </trkpt>
      <trkpt lat="49.37183" lon="1.1559">
        <ele>196.6</ele>
        <time>2011-05-01T06:42:24Z</time>
      </trkpt>
      <trkpt lat="49.3717" lon="1.15585">
        <ele>196.2</ele>
        <time>2011-05-01T06:42:26Z</time>
      </trkpt>
      <trkpt lat="49.37158" lon="1.1558">
        <ele>195.8</ele>
        <time>2011-05-01T06:42:28Z</time>
      </trkpt>
      <trkpt lat="49.37145" lon="1.15576">
        <ele>195.2</ele>
        <time>2011-05-01T06:42:30Z</time>
      </trkpt>
      <trkpt lat="49.37133" lon="1.15573">
        <ele>194.6</ele>
        <time>2011-05-01T06:42:32Z</time>
      </trkpt>
      <trkpt lat="49.37126" lon="1.15573">
        <ele>194.4</ele>
        <time>2011-05-01T06:42:33Z</time>
      </trkpt>
      <trkpt lat="49.3712" lon="1.15573">
        <ele>194.2</ele>
        <time>2011-05-01T06:42:34Z</time>
      </trkpt>
      <trkpt lat="49.37106" lon="1.15572">
        <ele>193.8</ele>
        <time>2011-05-01T06:42:36Z</time>
      </trkpt>
      <trkpt lat="49.371" lon="1.15571">
        <ele>193.4</ele>
        <time>2011-05-01T06:42:37Z</time>
      </trkpt>
      <trkpt lat="49.37086" lon="1.1557">
        <ele>192.6</ele>
        <time>2011-05-01T06:42:39Z</time>
      </trkpt>
      <trkpt lat="49.37074" lon="1.15571">
        <ele>192.2</ele>
        <time>2011-05-01T06:42:41Z</time>
      </trkpt>
      <trkpt lat="49.37066" lon="1.15572">
        <ele>191.6</ele>
        <time>2011-05-01T06:42:43Z</time>
      </trkpt>
      <trkpt lat="49.37063" lon="1.15572">
        <ele>190.8</ele>
        <time>2011-05-01T06:42:45Z</time>
      </trkpt>
      <trkpt lat="49.37058" lon="1.15571">
        <ele>190.2</ele>
        <time>2011-05-01T06:42:47Z</time>
      </trkpt>
      <trkpt lat="49.37054" lon="1.15569">
        <ele>190</ele>
        <time>2011-05-01T06:42:48Z</time>
      </trkpt>
      <trkpt lat="49.37051" lon="1.15554">
        <ele>189.4</ele>
        <time>2011-05-01T06:42:51Z</time>
      </trkpt>
      <trkpt lat="49.37059" lon="1.15541">
        <ele>189</ele>
        <time>2011-05-01T06:42:54Z</time>
      </trkpt>
      <trkpt lat="49.37063" lon="1.15538">
        <ele>188.8</ele>
        <time>2011-05-01T06:42:55Z</time>
      </trkpt>
      <trkpt lat="49.37081" lon="1.15514">
        <ele>188.4</ele>
        <time>2011-05-01T06:43:01Z</time>
      </trkpt>
      <trkpt lat="49.37099" lon="1.15496">
        <ele>188.2</ele>
        <time>2011-05-01T06:43:06Z</time>
      </trkpt>
      <trkpt lat="49.37138" lon="1.15449">
        <ele>187.8</ele>
        <time>2011-05-01T06:43:18Z</time>
      </trkpt>
      <trkpt lat="49.37163" lon="1.1542">
        <ele>187.8</ele>
        <time>2011-05-01T06:43:25Z</time>
      </trkpt>
      <trkpt lat="49.37174" lon="1.15406">
        <ele>188</ele>
        <time>2011-05-01T06:43:28Z</time>
      </trkpt>
      <trkpt lat="49.37181" lon="1.15397">
        <ele>188.4</ele>
        <time>2011-05-01T06:43:30Z</time>
      </trkpt>
      <trkpt lat="49.37189" lon="1.15388">
        <ele>188.6</ele>
        <time>2011-05-01T06:43:32Z</time>
      </trkpt>
      <trkpt lat="49.37196" lon="1.15378">
        <ele>188.8</ele>
        <time>2011-05-01T06:43:34Z</time>
      </trkpt>
      <trkpt lat="49.372" lon="1.15373">
        <ele>189</ele>
        <time>2011-05-01T06:43:35Z</time>
      </trkpt>
      <trkpt lat="49.37219" lon="1.1535">
        <ele>189.4</ele>
        <time>2011-05-01T06:43:41Z</time>
      </trkpt>
      <trkpt lat="49.37223" lon="1.15347">
        <ele>189.4</ele>
        <time>2011-05-01T06:43:42Z</time>
      </trkpt>
      <trkpt lat="49.37234" lon="1.15334">
        <ele>189.6</ele>
        <time>2011-05-01T06:43:45Z</time>
      </trkpt>
      <trkpt lat="49.37247" lon="1.15315">
        <ele>189.6</ele>
        <time>2011-05-01T06:43:49Z</time>
      </trkpt>
      <trkpt lat="49.37251" lon="1.15291">
        <ele>189.6</ele>
        <time>2011-05-01T06:43:53Z</time>
      </trkpt>
      <trkpt lat="49.37239" lon="1.15261">
        <ele>189.8</ele>
        <time>2011-05-01T06:43:57Z</time>
      </trkpt>
      <trkpt lat="49.37235" lon="1.15255">
        <ele>189.8</ele>
        <time>2011-05-01T06:43:58Z</time>
      </trkpt>
      <trkpt lat="49.37225" lon="1.15244">
        <ele>189.6</ele>
        <time>2011-05-01T06:44:00Z</time>
      </trkpt>
      <trkpt lat="49.37216" lon="1.15233">
        <ele>189.2</ele>
        <time>2011-05-01T06:44:02Z</time>
      </trkpt>
      <trkpt lat="49.37207" lon="1.15221">
        <ele>188.8</ele>
        <time>2011-05-01T06:44:04Z</time>
      </trkpt>
      <trkpt lat="49.37199" lon="1.1521">
        <ele>188.6</ele>
        <time>2011-05-01T06:44:06Z</time>
      </trkpt>
      <trkpt lat="49.37191" lon="1.152">
        <ele>188.4</ele>
        <time>2011-05-01T06:44:08Z</time>
      </trkpt>
      <trkpt lat="49.37152" lon="1.15157">
        <ele>187.6</ele>
        <time>2011-05-01T06:44:17Z</time>
      </trkpt>
      <trkpt lat="49.37144" lon="1.15147">
        <ele>187.2</ele>
        <time>2011-05-01T06:44:19Z</time>
      </trkpt>
      <trkpt lat="49.37134" lon="1.15136">
        <ele>186.8</ele>
        <time>2011-05-01T06:44:22Z</time>
      </trkpt>
      <trkpt lat="49.37126" lon="1.15127">
        <ele>186.6</ele>
        <time>2011-05-01T06:44:23Z</time>
      </trkpt>
      <trkpt lat="49.37092" lon="1.15082">
        <ele>186</ele>
        <time>2011-05-01T06:44:31Z</time>
      </trkpt>
      <trkpt lat="49.37087" lon="1.15076">
        <ele>185.6</ele>
        <time>2011-05-01T06:44:32Z</time>
      </trkpt>
      <trkpt lat="49.37075" lon="1.15065">
        <ele>185.2</ele>
        <time>2011-05-01T06:44:34Z</time>
      </trkpt>
      <trkpt lat="49.37066" lon="1.15052">
        <ele>184.8</ele>
        <time>2011-05-01T06:44:36Z</time>
      </trkpt>
      <trkpt lat="49.37061" lon="1.15046">
        <ele>184.8</ele>
        <time>2011-05-01T06:44:37Z</time>
      </trkpt>
      <trkpt lat="49.37049" lon="1.15026">
        <ele>184.4</ele>
        <time>2011-05-01T06:44:40Z</time>
      </trkpt>
      <trkpt lat="49.37037" lon="1.14981">
        <ele>184</ele>
        <time>2011-05-01T06:44:45Z</time>
      </trkpt>
      <trkpt lat="49.37034" lon="1.14973">
        <ele>184</ele>
        <time>2011-05-01T06:44:46Z</time>
      </trkpt>
      <trkpt lat="49.37028" lon="1.14946">
        <ele>183.8</ele>
        <time>2011-05-01T06:44:49Z</time>
      </trkpt>
      <trkpt lat="49.3703" lon="1.14916">
        <ele>183.2</ele>
        <time>2011-05-01T06:44:52Z</time>
      </trkpt>
      <trkpt lat="49.37033" lon="1.14906">
        <ele>183</ele>
        <time>2011-05-01T06:44:53Z</time>
      </trkpt>
      <trkpt lat="49.37039" lon="1.14887">
        <ele>182.6</ele>
        <time>2011-05-01T06:44:55Z</time>
      </trkpt>
      <trkpt lat="49.37041" lon="1.14879">
        <ele>182.6</ele>
        <time>2011-05-01T06:44:56Z</time>
      </trkpt>
      <trkpt lat="49.37042" lon="1.14862">
        <ele>182.2</ele>
        <time>2011-05-01T06:44:58Z</time>
      </trkpt>
      <trkpt lat="49.37042" lon="1.14844">
        <ele>182.2</ele>
        <time>2011-05-01T06:45:00Z</time>
      </trkpt>
      <trkpt lat="49.37037" lon="1.14825">
        <ele>181.8</ele>
        <time>2011-05-01T06:45:02Z</time>
      </trkpt>
      <trkpt lat="49.37026" lon="1.14814">
        <ele>181.4</ele>
        <time>2011-05-01T06:45:04Z</time>
      </trkpt>
      <trkpt lat="49.37019" lon="1.14811">
        <ele>181.2</ele>
        <time>2011-05-01T06:45:05Z</time>
      </trkpt>
      <trkpt lat="49.37011" lon="1.14809">
        <ele>181</ele>
        <time>2011-05-01T06:45:06Z</time>
      </trkpt>
      <trkpt lat="49.37004" lon="1.14805">
        <ele>180.6</ele>
        <time>2011-05-01T06:45:07Z</time>
      </trkpt>
      <trkpt lat="49.3699" lon="1.14798">
        <ele>180</ele>
        <time>2011-05-01T06:45:09Z</time>
      </trkpt>
      <trkpt lat="49.36983" lon="1.14796">
        <ele>179.6</ele>
        <time>2011-05-01T06:45:10Z</time>
      </trkpt>
      <trkpt lat="49.36975" lon="1.14794">
        <ele>179.2</ele>
        <time>2011-05-01T06:45:11Z</time>
      </trkpt>
      <trkpt lat="49.36959" lon="1.14793">
        <ele>178.4</ele>
        <time>2011-05-01T06:45:13Z</time>
      </trkpt>
      <trkpt lat="49.36945" lon="1.14795">
        <ele>177.8</ele>
        <time>2011-05-01T06:45:15Z</time>
      </trkpt>
      <trkpt lat="49.36937" lon="1.14795">
        <ele>177.6</ele>
        <time>2011-05-01T06:45:16Z</time>
      </trkpt>
      <trkpt lat="49.36922" lon="1.1479">
        <ele>177</ele>
        <time>2011-05-01T06:45:18Z</time>
      </trkpt>
      <trkpt lat="49.36908" lon="1.1478">
        <ele>176.2</ele>
        <time>2011-05-01T06:45:20Z</time>
      </trkpt>
      <trkpt lat="49.36902" lon="1.14774">
        <ele>175.8</ele>
        <time>2011-05-01T06:45:21Z</time>
      </trkpt>
      <trkpt lat="49.36897" lon="1.14768">
        <ele>175.6</ele>
        <time>2011-05-01T06:45:22Z</time>
      </trkpt>
      <trkpt lat="49.36891" lon="1.14763">
        <ele>175.2</ele>
        <time>2011-05-01T06:45:23Z</time>
      </trkpt>
      <trkpt lat="49.36886" lon="1.1476">
        <ele>175</ele>
        <time>2011-05-01T06:45:24Z</time>
      </trkpt>
      <trkpt lat="49.36878" lon="1.14763">
        <ele>174.6</ele>
        <time>2011-05-01T06:45:26Z</time>
      </trkpt>
      <trkpt lat="49.36875" lon="1.14767">
        <ele>174.4</ele>
        <time>2011-05-01T06:45:27Z</time>
      </trkpt>
      <trkpt lat="49.36868" lon="1.14777">
        <ele>174.2</ele>
        <time>2011-05-01T06:45:29Z</time>
      </trkpt>
      <trkpt lat="49.36845" lon="1.14807">
        <ele>173.6</ele>
        <time>2011-05-01T06:45:35Z</time>
      </trkpt>
      <trkpt lat="49.36818" lon="1.14838">
        <ele>173.2</ele>
        <time>2011-05-01T06:45:42Z</time>
      </trkpt>
      <trkpt lat="49.36792" lon="1.14865">
        <ele>173</ele>
        <time>2011-05-01T06:45:48Z</time>
      </trkpt>
      <trkpt lat="49.36788" lon="1.14869">
        <ele>173</ele>
        <time>2011-05-01T06:45:49Z</time>
      </trkpt>
      <trkpt lat="49.36771" lon="1.14886">
        <ele>173</ele>
        <time>2011-05-01T06:45:53Z</time>
      </trkpt>
      <trkpt lat="49.36763" lon="1.14895">
        <ele>173</ele>
        <time>2011-05-01T06:45:55Z</time>
      </trkpt>
      <trkpt lat="49.36753" lon="1.14919">
        <ele>173</ele>
        <time>2011-05-01T06:45:59Z</time>
      </trkpt>
      <trkpt lat="49.36744" lon="1.14933">
        <ele>172.8</ele>
        <time>2011-05-01T06:46:02Z</time>
      </trkpt>
      <trkpt lat="49.36741" lon="1.14938">
        <ele>172.6</ele>
        <time>2011-05-01T06:46:03Z</time>
      </trkpt>
      <trkpt lat="49.36733" lon="1.14956">
        <ele>172</ele>
        <time>2011-05-01T06:46:06Z</time>
      </trkpt>
      <trkpt lat="49.36728" lon="1.14966">
        <ele>171.6</ele>
        <time>2011-05-01T06:46:08Z</time>
      </trkpt>
      <trkpt lat="49.36724" lon="1.14976">
        <ele>171</ele>
        <time>2011-05-01T06:46:10Z</time>
      </trkpt>
      <trkpt lat="49.3672" lon="1.14986">
        <ele>170.4</ele>
        <time>2011-05-01T06:46:12Z</time>
      </trkpt>
      <trkpt lat="49.36716" lon="1.14995">
        <ele>169.6</ele>
        <time>2011-05-01T06:46:14Z</time>
      </trkpt>
      <trkpt lat="49.36713" lon="1.14999">
        <ele>169</ele>
        <time>2011-05-01T06:46:15Z</time>
      </trkpt>
      <trkpt lat="49.3671" lon="1.15004">
        <ele>168.6</ele>
        <time>2011-05-01T06:46:16Z</time>
      </trkpt>
      <trkpt lat="49.36702" lon="1.15013">
        <ele>167.6</ele>
        <time>2011-05-01T06:46:18Z</time>
      </trkpt>
      <trkpt lat="49.36697" lon="1.15022">
        <ele>166.4</ele>
        <time>2011-05-01T06:46:20Z</time>
      </trkpt>
      <trkpt lat="49.36694" lon="1.15027">
        <ele>166</ele>
        <time>2011-05-01T06:46:21Z</time>
      </trkpt>
      <trkpt lat="49.36682" lon="1.15049">
        <ele>164.2</ele>
        <time>2011-05-01T06:46:24Z</time>
      </trkpt>
      <trkpt lat="49.36675" lon="1.15065">
        <ele>163</ele>
        <time>2011-05-01T06:46:26Z</time>
      </trkpt>
      <trkpt lat="49.36671" lon="1.15076">
        <ele>162</ele>
        <time>2011-05-01T06:46:28Z</time>
      </trkpt>
      <trkpt lat="49.3667" lon="1.15079">
        <ele>161.4</ele>
        <time>2011-05-01T06:46:29Z</time>
      </trkpt>
      <trkpt lat="49.36668" lon="1.15098">
        <ele>159.6</ele>
        <time>2011-05-01T06:46:32Z</time>
      </trkpt>
      <trkpt lat="49.36668" lon="1.15103">
        <ele>158.8</ele>
        <time>2011-05-01T06:46:34Z</time>
      </trkpt>
      <trkpt lat="49.36668" lon="1.15104">
        <ele>158</ele>
        <time>2011-05-01T06:46:36Z</time>
      </trkpt>
      <trkpt lat="49.36667" lon="1.15106">
        <ele>157.6</ele>
        <time>2011-05-01T06:46:37Z</time>
      </trkpt>
      <trkpt lat="49.36667" lon="1.15109">
        <ele>157.4</ele>
        <time>2011-05-01T06:46:38Z</time>
      </trkpt>
      <trkpt lat="49.36665" lon="1.15111">
        <ele>156.8</ele>
        <time>2011-05-01T06:46:41Z</time>
      </trkpt>
      <trkpt lat="49.36662" lon="1.15112">
        <ele>156.4</ele>
        <time>2011-05-01T06:46:43Z</time>
      </trkpt>
      <trkpt lat="49.36658" lon="1.15122">
        <ele>155.6</ele>
        <time>2011-05-01T06:46:47Z</time>
      </trkpt>
      <trkpt lat="49.36656" lon="1.15125">
        <ele>155.2</ele>
        <time>2011-05-01T06:46:49Z</time>
      </trkpt>
      <trkpt lat="49.36655" lon="1.15126">
        <ele>154.4</ele>
        <time>2011-05-01T06:46:53Z</time>
      </trkpt>
      <trkpt lat="49.36655" lon="1.15126">
        <ele>154.2</ele>
        <time>2011-05-01T06:46:54Z</time>
      </trkpt>
      <trkpt lat="49.3665" lon="1.15128">
        <ele>153.8</ele>
        <time>2011-05-01T06:46:57Z</time>
      </trkpt>
      <trkpt lat="49.36645" lon="1.15134">
        <ele>153.6</ele>
        <time>2011-05-01T06:46:59Z</time>
      </trkpt>
      <trkpt lat="49.36638" lon="1.15137">
        <ele>153.2</ele>
        <time>2011-05-01T06:47:06Z</time>
      </trkpt>
      <trkpt lat="49.36633" lon="1.15142">
        <ele>153</ele>
        <time>2011-05-01T06:47:12Z</time>
      </trkpt>
      <trkpt lat="49.36632" lon="1.15143">
        <ele>153.2</ele>
        <time>2011-05-01T06:47:13Z</time>
      </trkpt>
      <trkpt lat="49.36629" lon="1.15145">
        <ele>153.6</ele>
        <time>2011-05-01T06:47:15Z</time>
      </trkpt>
      <trkpt lat="49.36628" lon="1.15147">
        <ele>153.8</ele>
        <time>2011-05-01T06:47:17Z</time>
      </trkpt>
      <trkpt lat="49.36628" lon="1.1515">
        <ele>154</ele>
        <time>2011-05-01T06:47:19Z</time>
      </trkpt>
      <trkpt lat="49.36628" lon="1.15156">
        <ele>154.2</ele>
        <time>2011-05-01T06:47:21Z</time>
      </trkpt>
      <trkpt lat="49.36627" lon="1.1516">
        <ele>154.6</ele>
        <time>2011-05-01T06:47:23Z</time>
      </trkpt>
      <trkpt lat="49.36625" lon="1.15163">
        <ele>155</ele>
        <time>2011-05-01T06:47:25Z</time>
      </trkpt>
      <trkpt lat="49.36623" lon="1.15166">
        <ele>155.4</ele>
        <time>2011-05-01T06:47:27Z</time>
      </trkpt>
      <trkpt lat="49.36616" lon="1.15171">
        <ele>155.8</ele>
        <time>2011-05-01T06:47:29Z</time>
      </trkpt>
      <trkpt lat="49.36614" lon="1.15176">
        <ele>156</ele>
        <time>2011-05-01T06:47:31Z</time>
      </trkpt>
      <trkpt lat="49.36612" lon="1.15183">
        <ele>156.8</ele>
        <time>2011-05-01T06:47:35Z</time>
      </trkpt>
      <trkpt lat="49.36611" lon="1.15185">
        <ele>157.2</ele>
        <time>2011-05-01T06:47:37Z</time>
      </trkpt>
      <trkpt lat="49.36608" lon="1.15187">
        <ele>157.6</ele>
        <time>2011-05-01T06:47:39Z</time>
      </trkpt>
      <trkpt lat="49.36606" lon="1.1519">
        <ele>158.2</ele>
        <time>2011-05-01T06:47:41Z</time>
      </trkpt>
      <trkpt lat="49.36605" lon="1.15195">
        <ele>158.8</ele>
        <time>2011-05-01T06:47:43Z</time>
      </trkpt>
      <trkpt lat="49.36606" lon="1.15203">
        <ele>159.4</ele>
        <time>2011-05-01T06:47:45Z</time>
      </trkpt>
      <trkpt lat="49.36605" lon="1.15208">
        <ele>159.8</ele>
        <time>2011-05-01T06:47:47Z</time>
      </trkpt>
      <trkpt lat="49.36604" lon="1.15212">
        <ele>160.4</ele>
        <time>2011-05-01T06:47:49Z</time>
      </trkpt>
      <trkpt lat="49.366" lon="1.15216">
        <ele>161</ele>
        <time>2011-05-01T06:47:51Z</time>
      </trkpt>
      <trkpt lat="49.36595" lon="1.15221">
        <ele>161.4</ele>
        <time>2011-05-01T06:47:53Z</time>
      </trkpt>
      <trkpt lat="49.36593" lon="1.15225">
        <ele>161.8</ele>
        <time>2011-05-01T06:47:55Z</time>
      </trkpt>
      <trkpt lat="49.36591" lon="1.15227">
        <ele>162.2</ele>
        <time>2011-05-01T06:47:57Z</time>
      </trkpt>
      <trkpt lat="49.36589" lon="1.15229">
        <ele>162.6</ele>
        <time>2011-05-01T06:47:58Z</time>
      </trkpt>
      <trkpt lat="49.36587" lon="1.15232">
        <ele>163.2</ele>
        <time>2011-05-01T06:48:00Z</time>
      </trkpt>
      <trkpt lat="49.36585" lon="1.15235">
        <ele>163.8</ele>
        <time>2011-05-01T06:48:02Z</time>
      </trkpt>
      <trkpt lat="49.36582" lon="1.15239">
        <ele>164.2</ele>
        <time>2011-05-01T06:48:04Z</time>
      </trkpt>
      <trkpt lat="49.3658" lon="1.15241">
        <ele>164.6</ele>
        <time>2011-05-01T06:48:05Z</time>
      </trkpt>
      <trkpt lat="49.36577" lon="1.15245">
        <ele>165.2</ele>
        <time>2011-05-01T06:48:07Z</time>
      </trkpt>
      <trkpt lat="49.36574" lon="1.15249">
        <ele>165.8</ele>
        <time>2011-05-01T06:48:09Z</time>
      </trkpt>
      <trkpt lat="49.36572" lon="1.15251">
        <ele>166</ele>
        <time>2011-05-01T06:48:10Z</time>
      </trkpt>
      <trkpt lat="49.36569" lon="1.15253">
        <ele>166.2</ele>
        <time>2011-05-01T06:48:11Z</time>
      </trkpt>
      <trkpt lat="49.36567" lon="1.15257">
        <ele>166.6</ele>
        <time>2011-05-01T06:48:13Z</time>
      </trkpt>
      <trkpt lat="49.36566" lon="1.15261">
        <ele>167</ele>
        <time>2011-05-01T06:48:15Z</time>
      </trkpt>
      <trkpt lat="49.36565" lon="1.15264">
        <ele>167.8</ele>
        <time>2011-05-01T06:48:17Z</time>
      </trkpt>
      <trkpt lat="49.36565" lon="1.15267">
        <ele>168.2</ele>
        <time>2011-05-01T06:48:19Z</time>
      </trkpt>
      <trkpt lat="49.36563" lon="1.15269">
        <ele>168.6</ele>
        <time>2011-05-01T06:48:21Z</time>
      </trkpt>
      <trkpt lat="49.3656" lon="1.15271">
        <ele>169</ele>
        <time>2011-05-01T06:48:23Z</time>
      </trkpt>
      <trkpt lat="49.36559" lon="1.15271">
        <ele>169.2</ele>
        <time>2011-05-01T06:48:24Z</time>
      </trkpt>
      <trkpt lat="49.36557" lon="1.15271">
        <ele>170</ele>
        <time>2011-05-01T06:48:26Z</time>
      </trkpt>
      <trkpt lat="49.36555" lon="1.15273">
        <ele>170.4</ele>
        <time>2011-05-01T06:48:29Z</time>
      </trkpt>
      <trkpt lat="49.36553" lon="1.15274">
        <ele>170.8</ele>
        <time>2011-05-01T06:48:30Z</time>
      </trkpt>
      <trkpt lat="49.36552" lon="1.15276">
        <ele>171.2</ele>
        <time>2011-05-01T06:48:32Z</time>
      </trkpt>
      <trkpt lat="49.36544" lon="1.15287">
        <ele>172</ele>
        <time>2011-05-01T06:48:39Z</time>
      </trkpt>
      <trkpt lat="49.36544" lon="1.15289">
        <ele>172.4</ele>
        <time>2011-05-01T06:48:40Z</time>
      </trkpt>
      <trkpt lat="49.36545" lon="1.15297">
        <ele>172.8</ele>
        <time>2011-05-01T06:48:42Z</time>
      </trkpt>
      <trkpt lat="49.36542" lon="1.1531">
        <ele>173.2</ele>
        <time>2011-05-01T06:48:45Z</time>
      </trkpt>
      <trkpt lat="49.36539" lon="1.1532">
        <ele>173.6</ele>
        <time>2011-05-01T06:48:47Z</time>
      </trkpt>
      <trkpt lat="49.3654" lon="1.15328">
        <ele>173.8</ele>
        <time>2011-05-01T06:48:50Z</time>
      </trkpt>
      <trkpt lat="49.3654" lon="1.15348">
        <ele>174.2</ele>
        <time>2011-05-01T06:48:55Z</time>
      </trkpt>
      <trkpt lat="49.36531" lon="1.1536">
        <ele>174.2</ele>
        <time>2011-05-01T06:48:58Z</time>
      </trkpt>
      <trkpt lat="49.36522" lon="1.15374">
        <ele>174.6</ele>
        <time>2011-05-01T06:49:01Z</time>
      </trkpt>
      <trkpt lat="49.36515" lon="1.15379">
        <ele>175</ele>
        <time>2011-05-01T06:49:03Z</time>
      </trkpt>
      <trkpt lat="49.36506" lon="1.15382">
        <ele>175.2</ele>
        <time>2011-05-01T06:49:05Z</time>
      </trkpt>
      <trkpt lat="49.36499" lon="1.15386">
        <ele>175.6</ele>
        <time>2011-05-01T06:49:07Z</time>
      </trkpt>
      <trkpt lat="49.36492" lon="1.15387">
        <ele>175.8</ele>
        <time>2011-05-01T06:49:09Z</time>
      </trkpt>
      <trkpt lat="49.36489" lon="1.15385">
        <ele>175.8</ele>
        <time>2011-05-01T06:49:10Z</time>
      </trkpt>
      <trkpt lat="49.36487" lon="1.15382">
        <ele>175.8</ele>
        <time>2011-05-01T06:49:11Z</time>
      </trkpt>
      <trkpt lat="49.36484" lon="1.15376">
        <ele>175.6</ele>
        <time>2011-05-01T06:49:13Z</time>
      </trkpt>
      <trkpt lat="49.36482" lon="1.15373">
        <ele>175.4</ele>
        <time>2011-05-01T06:49:14Z</time>
      </trkpt>
      <trkpt lat="49.36481" lon="1.15372">
        <ele>175.4</ele>
        <time>2011-05-01T06:49:15Z</time>
      </trkpt>
      <trkpt lat="49.36479" lon="1.15373">
        <ele>175.2</ele>
        <time>2011-05-01T06:49:17Z</time>
      </trkpt>
      <trkpt lat="49.36476" lon="1.15372">
        <ele>175.2</ele>
        <time>2011-05-01T06:49:19Z</time>
      </trkpt>
      <trkpt lat="49.36474" lon="1.15369">
        <ele>175</ele>
        <time>2011-05-01T06:49:21Z</time>
      </trkpt>
      <trkpt lat="49.36464" lon="1.15369">
        <ele>174.8</ele>
        <time>2011-05-01T06:49:26Z</time>
      </trkpt>
      <trkpt lat="49.36448" lon="1.15382">
        <ele>174.8</ele>
        <time>2011-05-01T06:49:31Z</time>
      </trkpt>
      <trkpt lat="49.36433" lon="1.15389">
        <ele>174.8</ele>
        <time>2011-05-01T06:49:35Z</time>
      </trkpt>
      <trkpt lat="49.36431" lon="1.15391">
        <ele>174.8</ele>
        <time>2011-05-01T06:49:36Z</time>
      </trkpt>
      <trkpt lat="49.36427" lon="1.15406">
        <ele>174.8</ele>
        <time>2011-05-01T06:49:39Z</time>
      </trkpt>
      <trkpt lat="49.36425" lon="1.15411">
        <ele>174.6</ele>
        <time>2011-05-01T06:49:40Z</time>
      </trkpt>
      <trkpt lat="49.36416" lon="1.15424">
        <ele>174.6</ele>
        <time>2011-05-01T06:49:45Z</time>
      </trkpt>
      <trkpt lat="49.36416" lon="1.15427">
        <ele>174.6</ele>
        <time>2011-05-01T06:49:46Z</time>
      </trkpt>
      <trkpt lat="49.36411" lon="1.15443">
        <ele>174.4</ele>
        <time>2011-05-01T06:49:49Z</time>
      </trkpt>
      <trkpt lat="49.36409" lon="1.15456">
        <ele>174</ele>
        <time>2011-05-01T06:49:51Z</time>
      </trkpt>
      <trkpt lat="49.36406" lon="1.15466">
        <ele>173.8</ele>
        <time>2011-05-01T06:49:53Z</time>
      </trkpt>
      <trkpt lat="49.36405" lon="1.15473">
        <ele>173.6</ele>
        <time>2011-05-01T06:49:55Z</time>
      </trkpt>
      <trkpt lat="49.36402" lon="1.15484">
        <ele>173.4</ele>
        <time>2011-05-01T06:49:57Z</time>
      </trkpt>
      <trkpt lat="49.364" lon="1.15488">
        <ele>173.2</ele>
        <time>2011-05-01T06:49:58Z</time>
      </trkpt>
      <trkpt lat="49.36393" lon="1.15496">
        <ele>173</ele>
        <time>2011-05-01T06:50:00Z</time>
      </trkpt>
      <trkpt lat="49.36385" lon="1.155">
        <ele>172.8</ele>
        <time>2011-05-01T06:50:02Z</time>
      </trkpt>
      <trkpt lat="49.36375" lon="1.15506">
        <ele>172.4</ele>
        <time>2011-05-01T06:50:04Z</time>
      </trkpt>
      <trkpt lat="49.36371" lon="1.15509">
        <ele>172.2</ele>
        <time>2011-05-01T06:50:05Z</time>
      </trkpt>
      <trkpt lat="49.36366" lon="1.15513">
        <ele>172</ele>
        <time>2011-05-01T06:50:06Z</time>
      </trkpt>
      <trkpt lat="49.36361" lon="1.15517">
        <ele>171.6</ele>
        <time>2011-05-01T06:50:07Z</time>
      </trkpt>
      <trkpt lat="49.36351" lon="1.15525">
        <ele>171</ele>
        <time>2011-05-01T06:50:09Z</time>
      </trkpt>
      <trkpt lat="49.3634" lon="1.15533">
        <ele>170.4</ele>
        <time>2011-05-01T06:50:11Z</time>
      </trkpt>
      <trkpt lat="49.36334" lon="1.15538">
        <ele>170.2</ele>
        <time>2011-05-01T06:50:12Z</time>
      </trkpt>
      <trkpt lat="49.36329" lon="1.15543">
        <ele>170</ele>
        <time>2011-05-01T06:50:13Z</time>
      </trkpt>
      <trkpt lat="49.36324" lon="1.15548">
        <ele>169.6</ele>
        <time>2011-05-01T06:50:14Z</time>
      </trkpt>
      <trkpt lat="49.3632" lon="1.15562">
        <ele>169</ele>
        <time>2011-05-01T06:50:16Z</time>
      </trkpt>
      <trkpt lat="49.36321" lon="1.15576">
        <ele>168.6</ele>
        <time>2011-05-01T06:50:18Z</time>
      </trkpt>
      <trkpt lat="49.36323" lon="1.15584">
        <ele>168.4</ele>
        <time>2011-05-01T06:50:19Z</time>
      </trkpt>
      <trkpt lat="49.36325" lon="1.15591">
        <ele>168.2</ele>
        <time>2011-05-01T06:50:20Z</time>
      </trkpt>
      <trkpt lat="49.36327" lon="1.15598">
        <ele>168</ele>
        <time>2011-05-01T06:50:21Z</time>
      </trkpt>
      <trkpt lat="49.36329" lon="1.15604">
        <ele>167.8</ele>
        <time>2011-05-01T06:50:22Z</time>
      </trkpt>
      <trkpt lat="49.36328" lon="1.15611">
        <ele>167.6</ele>
        <time>2011-05-01T06:50:23Z</time>
      </trkpt>
      <trkpt lat="49.36321" lon="1.15619">
        <ele>167.2</ele>
        <time>2011-05-01T06:50:25Z</time>
      </trkpt>
      <trkpt lat="49.36308" lon="1.15622">
        <ele>166.6</ele>
        <time>2011-05-01T06:50:27Z</time>
      </trkpt>
      <trkpt lat="49.36293" lon="1.15627">
        <ele>165.8</ele>
        <time>2011-05-01T06:50:29Z</time>
      </trkpt>
      <trkpt lat="49.36281" lon="1.15632">
        <ele>165.2</ele>
        <time>2011-05-01T06:50:31Z</time>
      </trkpt>
      <trkpt lat="49.36277" lon="1.15633">
        <ele>164.6</ele>
        <time>2011-05-01T06:50:32Z</time>
      </trkpt>
      <trkpt lat="49.36275" lon="1.15635">
        <ele>164</ele>
        <time>2011-05-01T06:50:33Z</time>
      </trkpt>
      <trkpt lat="49.36274" lon="1.15637">
        <ele>163.6</ele>
        <time>2011-05-01T06:50:34Z</time>
      </trkpt>
      <trkpt lat="49.36275" lon="1.15645">
        <ele>162.8</ele>
        <time>2011-05-01T06:50:36Z</time>
      </trkpt>
      <trkpt lat="49.36276" lon="1.15649">
        <ele>162.6</ele>
        <time>2011-05-01T06:50:37Z</time>
      </trkpt>
      <trkpt lat="49.36277" lon="1.15654">
        <ele>162.2</ele>
        <time>2011-05-01T06:50:38Z</time>
      </trkpt>
      <trkpt lat="49.36279" lon="1.15662">
        <ele>161.8</ele>
        <time>2011-05-01T06:50:40Z</time>
      </trkpt>
      <trkpt lat="49.36283" lon="1.15679">
        <ele>161</ele>
        <time>2011-05-01T06:50:44Z</time>
      </trkpt>
      <trkpt lat="49.36285" lon="1.15693">
        <ele>160.6</ele>
        <time>2011-05-01T06:50:48Z</time>
      </trkpt>
      <trkpt lat="49.36289" lon="1.1571">
        <ele>160.2</ele>
        <time>2011-05-01T06:50:52Z</time>
      </trkpt>
      <trkpt lat="49.3629" lon="1.15714">
        <ele>160.2</ele>
        <time>2011-05-01T06:50:53Z</time>
      </trkpt>
      <trkpt lat="49.36293" lon="1.15728">
        <ele>160.2</ele>
        <time>2011-05-01T06:50:56Z</time>
      </trkpt>
      <trkpt lat="49.36296" lon="1.15735">
        <ele>160.4</ele>
        <time>2011-05-01T06:50:57Z</time>
      </trkpt>
      <trkpt lat="49.36299" lon="1.15741">
        <ele>160.4</ele>
        <time>2011-05-01T06:50:58Z</time>
      </trkpt>
      <trkpt lat="49.36305" lon="1.15752">
        <ele>160.8</ele>
        <time>2011-05-01T06:51:00Z</time>
      </trkpt>
      <trkpt lat="49.36311" lon="1.15761">
        <ele>161</ele>
        <time>2011-05-01T06:51:02Z</time>
      </trkpt>
      <trkpt lat="49.36315" lon="1.15772">
        <ele>161</ele>
        <time>2011-05-01T06:51:04Z</time>
      </trkpt>
      <trkpt lat="49.36323" lon="1.15799">
        <ele>161.6</ele>
        <time>2011-05-01T06:51:09Z</time>
      </trkpt>
      <trkpt lat="49.36324" lon="1.15809">
        <ele>162</ele>
        <time>2011-05-01T06:51:11Z</time>
      </trkpt>
      <trkpt lat="49.36325" lon="1.15818">
        <ele>162.4</ele>
        <time>2011-05-01T06:51:13Z</time>
      </trkpt>
      <trkpt lat="49.36327" lon="1.15827">
        <ele>162.6</ele>
        <time>2011-05-01T06:51:15Z</time>
      </trkpt>
      <trkpt lat="49.36329" lon="1.15837">
        <ele>162.8</ele>
        <time>2011-05-01T06:51:17Z</time>
      </trkpt>
      <trkpt lat="49.3633" lon="1.15846">
        <ele>163</ele>
        <time>2011-05-01T06:51:19Z</time>
      </trkpt>
      <trkpt lat="49.36324" lon="1.15863">
        <ele>163.2</ele>
        <time>2011-05-01T06:51:23Z</time>
      </trkpt>
      <trkpt lat="49.3632" lon="1.15871">
        <ele>163.6</ele>
        <time>2011-05-01T06:51:25Z</time>
      </trkpt>
      <trkpt lat="49.36314" lon="1.15876">
        <ele>164</ele>
        <time>2011-05-01T06:51:27Z</time>
      </trkpt>
      <trkpt lat="49.36309" lon="1.15879">
        <ele>164.4</ele>
        <time>2011-05-01T06:51:29Z</time>
      </trkpt>
      <trkpt lat="49.36304" lon="1.15882">
        <ele>164.6</ele>
        <time>2011-05-01T06:51:31Z</time>
      </trkpt>
      <trkpt lat="49.36299" lon="1.15885">
        <ele>164.8</ele>
        <time>2011-05-01T06:51:33Z</time>
      </trkpt>
      <trkpt lat="49.36295" lon="1.1589">
        <ele>165.2</ele>
        <time>2011-05-01T06:51:35Z</time>
      </trkpt>
      <trkpt lat="49.36291" lon="1.15894">
        <ele>165.8</ele>
        <time>2011-05-01T06:51:37Z</time>
      </trkpt>
      <trkpt lat="49.36286" lon="1.15897">
        <ele>166.2</ele>
        <time>2011-05-01T06:51:39Z</time>
      </trkpt>
      <trkpt lat="49.36282" lon="1.15901">
        <ele>166.4</ele>
        <time>2011-05-01T06:51:41Z</time>
      </trkpt>
      <trkpt lat="49.36278" lon="1.15906">
        <ele>167</ele>
        <time>2011-05-01T06:51:43Z</time>
      </trkpt>
      <trkpt lat="49.36274" lon="1.15911">
        <ele>167.6</ele>
        <time>2011-05-01T06:51:45Z</time>
      </trkpt>
      <trkpt lat="49.3627" lon="1.15915">
        <ele>168</ele>
        <time>2011-05-01T06:51:47Z</time>
      </trkpt>
      <trkpt lat="49.36266" lon="1.15921">
        <ele>168.4</ele>
        <time>2011-05-01T06:51:49Z</time>
      </trkpt>
      <trkpt lat="49.36263" lon="1.15926">
        <ele>168.6</ele>
        <time>2011-05-01T06:51:51Z</time>
      </trkpt>
      <trkpt lat="49.36258" lon="1.15934">
        <ele>169.2</ele>
        <time>2011-05-01T06:51:54Z</time>
      </trkpt>
      <trkpt lat="49.36254" lon="1.15941">
        <ele>169.8</ele>
        <time>2011-05-01T06:51:56Z</time>
      </trkpt>
      <trkpt lat="49.36249" lon="1.15947">
        <ele>170.2</ele>
        <time>2011-05-01T06:51:58Z</time>
      </trkpt>
      <trkpt lat="49.36245" lon="1.15955">
        <ele>170.6</ele>
        <time>2011-05-01T06:52:00Z</time>
      </trkpt>
      <trkpt lat="49.36242" lon="1.15963">
        <ele>170.8</ele>
        <time>2011-05-01T06:52:02Z</time>
      </trkpt>
      <trkpt lat="49.36236" lon="1.15974">
        <ele>171.2</ele>
        <time>2011-05-01T06:52:05Z</time>
      </trkpt>
      <trkpt lat="49.36214" lon="1.15971">
        <ele>171.6</ele>
        <time>2011-05-01T06:52:10Z</time>
      </trkpt>
      <trkpt lat="49.36177" lon="1.15963">
        <ele>171.8</ele>
        <time>2011-05-01T06:52:17Z</time>
      </trkpt>
      <trkpt lat="49.36144" lon="1.15963">
        <ele>172</ele>
        <time>2011-05-01T06:52:25Z</time>
      </trkpt>
      <trkpt lat="49.3614" lon="1.15963">
        <ele>172</ele>
        <time>2011-05-01T06:52:26Z</time>
      </trkpt>
      <trkpt lat="49.36126" lon="1.1595">
        <ele>172</ele>
        <time>2011-05-01T06:52:30Z</time>
      </trkpt>
      <trkpt lat="49.36123" lon="1.15945">
        <ele>172</ele>
        <time>2011-05-01T06:52:31Z</time>
      </trkpt>
      <trkpt lat="49.36101" lon="1.15927">
        <ele>172</ele>
        <time>2011-05-01T06:52:37Z</time>
      </trkpt>
      <trkpt lat="49.36092" lon="1.15924">
        <ele>171.8</ele>
        <time>2011-05-01T06:52:39Z</time>
      </trkpt>
      <trkpt lat="49.36087" lon="1.15921">
        <ele>171.6</ele>
        <time>2011-05-01T06:52:40Z</time>
      </trkpt>
      <trkpt lat="49.36082" lon="1.15918">
        <ele>171.4</ele>
        <time>2011-05-01T06:52:41Z</time>
      </trkpt>
      <trkpt lat="49.36072" lon="1.15907">
        <ele>171.2</ele>
        <time>2011-05-01T06:52:43Z</time>
      </trkpt>
      <trkpt lat="49.36067" lon="1.15901">
        <ele>170.8</ele>
        <time>2011-05-01T06:52:44Z</time>
      </trkpt>
      <trkpt lat="49.36056" lon="1.1589">
        <ele>170.2</ele>
        <time>2011-05-01T06:52:46Z</time>
      </trkpt>
      <trkpt lat="49.3605" lon="1.15885">
        <ele>169.8</ele>
        <time>2011-05-01T06:52:47Z</time>
      </trkpt>
      <trkpt lat="49.36045" lon="1.1588">
        <ele>169.4</ele>
        <time>2011-05-01T06:52:48Z</time>
      </trkpt>
      <trkpt lat="49.36039" lon="1.15876">
        <ele>169</ele>
        <time>2011-05-01T06:52:49Z</time>
      </trkpt>
      <trkpt lat="49.36034" lon="1.15872">
        <ele>168.4</ele>
        <time>2011-05-01T06:52:50Z</time>
      </trkpt>
      <trkpt lat="49.3603" lon="1.15869">
        <ele>167.8</ele>
        <time>2011-05-01T06:52:51Z</time>
      </trkpt>
      <trkpt lat="49.36019" lon="1.15859">
        <ele>166.4</ele>
        <time>2011-05-01T06:52:54Z</time>
      </trkpt>
      <trkpt lat="49.36013" lon="1.15853">
        <ele>165.4</ele>
        <time>2011-05-01T06:52:56Z</time>
      </trkpt>
      <trkpt lat="49.36009" lon="1.15849">
        <ele>164.8</ele>
        <time>2011-05-01T06:52:57Z</time>
      </trkpt>
      <trkpt lat="49.36001" lon="1.15843">
        <ele>163.6</ele>
        <time>2011-05-01T06:52:59Z</time>
      </trkpt>
      <trkpt lat="49.35998" lon="1.1584">
        <ele>162.8</ele>
        <time>2011-05-01T06:53:00Z</time>
      </trkpt>
      <trkpt lat="49.35994" lon="1.15838">
        <ele>161.6</ele>
        <time>2011-05-01T06:53:02Z</time>
      </trkpt>
      <trkpt lat="49.35992" lon="1.15835">
        <ele>160.8</ele>
        <time>2011-05-01T06:53:03Z</time>
      </trkpt>
      <trkpt lat="49.35986" lon="1.15826">
        <ele>159</ele>
        <time>2011-05-01T06:53:05Z</time>
      </trkpt>
      <trkpt lat="49.35979" lon="1.15814">
        <ele>157.4</ele>
        <time>2011-05-01T06:53:07Z</time>
      </trkpt>
      <trkpt lat="49.35976" lon="1.15805">
        <ele>156.4</ele>
        <time>2011-05-01T06:53:08Z</time>
      </trkpt>
      <trkpt lat="49.35975" lon="1.15799">
        <ele>155.6</ele>
        <time>2011-05-01T06:53:09Z</time>
      </trkpt>
      <trkpt lat="49.35971" lon="1.15785">
        <ele>153.2</ele>
        <time>2011-05-01T06:53:12Z</time>
      </trkpt>
      <trkpt lat="49.35968" lon="1.15782">
        <ele>151.8</ele>
        <time>2011-05-01T06:53:14Z</time>
      </trkpt>
      <trkpt lat="49.35967" lon="1.15782">
        <ele>151</ele>
        <time>2011-05-01T06:53:15Z</time>
      </trkpt>
      <trkpt lat="49.35966" lon="1.15782">
        <ele>150.4</ele>
        <time>2011-05-01T06:53:16Z</time>
      </trkpt>
      <trkpt lat="49.35963" lon="1.15784">
        <ele>149.4</ele>
        <time>2011-05-01T06:53:18Z</time>
      </trkpt>
      <trkpt lat="49.3596" lon="1.15784">
        <ele>148.6</ele>
        <time>2011-05-01T06:53:20Z</time>
      </trkpt>
      <trkpt lat="49.35956" lon="1.15785">
        <ele>147.4</ele>
        <time>2011-05-01T06:53:25Z</time>
      </trkpt>
      <trkpt lat="49.35956" lon="1.15786">
        <ele>147.4</ele>
        <time>2011-05-01T06:53:27Z</time>
      </trkpt>
      <trkpt lat="49.35955" lon="1.15786">
        <ele>147.4</ele>
        <time>2011-05-01T06:53:28Z</time>
      </trkpt>
      <trkpt lat="49.35955" lon="1.15787">
        <ele>147.4</ele>
        <time>2011-05-01T06:53:30Z</time>
      </trkpt>
      <trkpt lat="49.35954" lon="1.15787">
        <ele>147.4</ele>
        <time>2011-05-01T06:53:31Z</time>
      </trkpt>
      <trkpt lat="49.35953" lon="1.15787">
        <ele>147.4</ele>
        <time>2011-05-01T06:53:33Z</time>
      </trkpt>
      <trkpt lat="49.35952" lon="1.15789">
        <ele>147.4</ele>
        <time>2011-05-01T06:53:35Z</time>
      </trkpt>
      <trkpt lat="49.35951" lon="1.15796">
        <ele>147.4</ele>
        <time>2011-05-01T06:53:42Z</time>
      </trkpt>
      <trkpt lat="49.35951" lon="1.15798">
        <ele>147.8</ele>
        <time>2011-05-01T06:53:44Z</time>
      </trkpt>
      <trkpt lat="49.35951" lon="1.15801">
        <ele>148.2</ele>
        <time>2011-05-01T06:53:46Z</time>
      </trkpt>
      <trkpt lat="49.3595" lon="1.15803">
        <ele>148.4</ele>
        <time>2011-05-01T06:53:48Z</time>
      </trkpt>
      <trkpt lat="49.3595" lon="1.15806">
        <ele>148.6</ele>
        <time>2011-05-01T06:53:50Z</time>
      </trkpt>
      <trkpt lat="49.35943" lon="1.15815">
        <ele>149.2</ele>
        <time>2011-05-01T06:53:57Z</time>
      </trkpt>
      <trkpt lat="49.35943" lon="1.15817">
        <ele>149.6</ele>
        <time>2011-05-01T06:53:59Z</time>
      </trkpt>
      <trkpt lat="49.35943" lon="1.1582">
        <ele>150</ele>
        <time>2011-05-01T06:54:01Z</time>
      </trkpt>
      <trkpt lat="49.35943" lon="1.15823">
        <ele>150.2</ele>
        <time>2011-05-01T06:54:03Z</time>
      </trkpt>
      <trkpt lat="49.35941" lon="1.15828">
        <ele>150.4</ele>
        <time>2011-05-01T06:54:05Z</time>
      </trkpt>
      <trkpt lat="49.3594" lon="1.15849">
        <ele>151</ele>
        <time>2011-05-01T06:54:12Z</time>
      </trkpt>
      <trkpt lat="49.35939" lon="1.15853">
        <ele>151.2</ele>
        <time>2011-05-01T06:54:14Z</time>
      </trkpt>
      <trkpt lat="49.3594" lon="1.1586">
        <ele>151.8</ele>
        <time>2011-05-01T06:54:16Z</time>
      </trkpt>
      <trkpt lat="49.35939" lon="1.15865">
        <ele>152</ele>
        <time>2011-05-01T06:54:18Z</time>
      </trkpt>
      <trkpt lat="49.35936" lon="1.15868">
        <ele>152.6</ele>
        <time>2011-05-01T06:54:20Z</time>
      </trkpt>
      <trkpt lat="49.35935" lon="1.1587">
        <ele>153.2</ele>
        <time>2011-05-01T06:54:22Z</time>
      </trkpt>
      <trkpt lat="49.35935" lon="1.15873">
        <ele>153.6</ele>
        <time>2011-05-01T06:54:24Z</time>
      </trkpt>
      <trkpt lat="49.35934" lon="1.15877">
        <ele>154</ele>
        <time>2011-05-01T06:54:26Z</time>
      </trkpt>
      <trkpt lat="49.35931" lon="1.1588">
        <ele>154.4</ele>
        <time>2011-05-01T06:54:28Z</time>
      </trkpt>
      <trkpt lat="49.35929" lon="1.15882">
        <ele>154.6</ele>
        <time>2011-05-01T06:54:29Z</time>
      </trkpt>
      <trkpt lat="49.35926" lon="1.15892">
        <ele>155</ele>
        <time>2011-05-01T06:54:34Z</time>
      </trkpt>
      <trkpt lat="49.35924" lon="1.15895">
        <ele>155.2</ele>
        <time>2011-05-01T06:54:36Z</time>
      </trkpt>
      <trkpt lat="49.35921" lon="1.15899">
        <ele>155.6</ele>
        <time>2011-05-01T06:54:38Z</time>
      </trkpt>
      <trkpt lat="49.3592" lon="1.159">
        <ele>155.8</ele>
        <time>2011-05-01T06:54:39Z</time>
      </trkpt>
      <trkpt lat="49.3592" lon="1.15906">
        <ele>156.4</ele>
        <time>2011-05-01T06:54:42Z</time>
      </trkpt>
      <trkpt lat="49.3592" lon="1.15909">
        <ele>156.6</ele>
        <time>2011-05-01T06:54:43Z</time>
      </trkpt>
      <trkpt lat="49.35918" lon="1.15916">
        <ele>156.8</ele>
        <time>2011-05-01T06:54:46Z</time>
      </trkpt>
      <trkpt lat="49.35917" lon="1.15921">
        <ele>157</ele>
        <time>2011-05-01T06:54:48Z</time>
      </trkpt>
      <trkpt lat="49.35917" lon="1.15925">
        <ele>157.4</ele>
        <time>2011-05-01T06:54:50Z</time>
      </trkpt>
      <trkpt lat="49.35917" lon="1.15928">
        <ele>158</ele>
        <time>2011-05-01T06:54:52Z</time>
      </trkpt>
      <trkpt lat="49.35913" lon="1.15932">
        <ele>158.4</ele>
        <time>2011-05-01T06:54:54Z</time>
      </trkpt>
      <trkpt lat="49.35911" lon="1.15938">
        <ele>158.6</ele>
        <time>2011-05-01T06:54:56Z</time>
      </trkpt>
      <trkpt lat="49.3591" lon="1.15942">
        <ele>159</ele>
        <time>2011-05-01T06:54:58Z</time>
      </trkpt>
      <trkpt lat="49.35899" lon="1.15956">
        <ele>159.4</ele>
        <time>2011-05-01T06:55:04Z</time>
      </trkpt>
      <trkpt lat="49.35893" lon="1.15968">
        <ele>160</ele>
        <time>2011-05-01T06:55:09Z</time>
      </trkpt>
      <trkpt lat="49.35888" lon="1.15974">
        <ele>160.4</ele>
        <time>2011-05-01T06:55:11Z</time>
      </trkpt>
      <trkpt lat="49.35882" lon="1.15979">
        <ele>160.6</ele>
        <time>2011-05-01T06:55:13Z</time>
      </trkpt>
      <trkpt lat="49.35878" lon="1.15985">
        <ele>161</ele>
        <time>2011-05-01T06:55:15Z</time>
      </trkpt>
      <trkpt lat="49.35875" lon="1.15989">
        <ele>161.2</ele>
        <time>2011-05-01T06:55:17Z</time>
      </trkpt>
      <trkpt lat="49.35873" lon="1.15991">
        <ele>161.2</ele>
        <time>2011-05-01T06:55:18Z</time>
      </trkpt>
      <trkpt lat="49.35866" lon="1.16">
        <ele>161.6</ele>
        <time>2011-05-01T06:55:23Z</time>
      </trkpt>
      <trkpt lat="49.35857" lon="1.16011">
        <ele>161.8</ele>
        <time>2011-05-01T06:55:27Z</time>
      </trkpt>
      <trkpt lat="49.35853" lon="1.16017">
        <ele>162.4</ele>
        <time>2011-05-01T06:55:30Z</time>
      </trkpt>
      <trkpt lat="49.35846" lon="1.16024">
        <ele>162.8</ele>
        <time>2011-05-01T06:55:32Z</time>
      </trkpt>
      <trkpt lat="49.35843" lon="1.16028">
        <ele>162.8</ele>
        <time>2011-05-01T06:55:33Z</time>
      </trkpt>
      <trkpt lat="49.35842" lon="1.1603">
        <ele>163</ele>
        <time>2011-05-01T06:55:34Z</time>
      </trkpt>
      <trkpt lat="49.35844" lon="1.16033">
        <ele>163.2</ele>
        <time>2011-05-01T06:55:36Z</time>
      </trkpt>
      <trkpt lat="49.35847" lon="1.16036">
        <ele>163.4</ele>
        <time>2011-05-01T06:55:39Z</time>
      </trkpt>
      <trkpt lat="49.35848" lon="1.1605">
        <ele>163.8</ele>
        <time>2011-05-01T06:55:44Z</time>
      </trkpt>
      <trkpt lat="49.35838" lon="1.16062">
        <ele>163.8</ele>
        <time>2011-05-01T06:55:48Z</time>
      </trkpt>
      <trkpt lat="49.35836" lon="1.1607">
        <ele>164.2</ele>
        <time>2011-05-01T06:55:50Z</time>
      </trkpt>
      <trkpt lat="49.35835" lon="1.16073">
        <ele>164.4</ele>
        <time>2011-05-01T06:55:51Z</time>
      </trkpt>
      <trkpt lat="49.35833" lon="1.16076">
        <ele>164.6</ele>
        <time>2011-05-01T06:55:52Z</time>
      </trkpt>
      <trkpt lat="49.3583" lon="1.16083">
        <ele>164.8</ele>
        <time>2011-05-01T06:55:54Z</time>
      </trkpt>
      <trkpt lat="49.35828" lon="1.16091">
        <ele>165</ele>
        <time>2011-05-01T06:55:56Z</time>
      </trkpt>
      <trkpt lat="49.35826" lon="1.16099">
        <ele>165.4</ele>
        <time>2011-05-01T06:55:58Z</time>
      </trkpt>
      <trkpt lat="49.35823" lon="1.16114">
        <ele>165.6</ele>
        <time>2011-05-01T06:56:02Z</time>
      </trkpt>
      <trkpt lat="49.35814" lon="1.16132">
        <ele>166</ele>
        <time>2011-05-01T06:56:07Z</time>
      </trkpt>
      <trkpt lat="49.3581" lon="1.16137">
        <ele>166.4</ele>
        <time>2011-05-01T06:56:09Z</time>
      </trkpt>
      <trkpt lat="49.35805" lon="1.16143">
        <ele>166.8</ele>
        <time>2011-05-01T06:56:11Z</time>
      </trkpt>
      <trkpt lat="49.35801" lon="1.16149">
        <ele>167.2</ele>
        <time>2011-05-01T06:56:13Z</time>
      </trkpt>
      <trkpt lat="49.35798" lon="1.16156">
        <ele>167.4</ele>
        <time>2011-05-01T06:56:15Z</time>
      </trkpt>
      <trkpt lat="49.35793" lon="1.16167">
        <ele>167.6</ele>
        <time>2011-05-01T06:56:18Z</time>
      </trkpt>
      <trkpt lat="49.35793" lon="1.16174">
        <ele>167.8</ele>
        <time>2011-05-01T06:56:20Z</time>
      </trkpt>
      <trkpt lat="49.35789" lon="1.16189">
        <ele>168</ele>
        <time>2011-05-01T06:56:24Z</time>
      </trkpt>
      <trkpt lat="49.35788" lon="1.16193">
        <ele>168</ele>
        <time>2011-05-01T06:56:25Z</time>
      </trkpt>
      <trkpt lat="49.35784" lon="1.16207">
        <ele>168</ele>
        <time>2011-05-01T06:56:29Z</time>
      </trkpt>
      <trkpt lat="49.35785" lon="1.16209">
        <ele>168</ele>
        <time>2011-05-01T06:56:30Z</time>
      </trkpt>
      <trkpt lat="49.35791" lon="1.16217">
        <ele>168.2</ele>
        <time>2011-05-01T06:56:34Z</time>
      </trkpt>
      <trkpt lat="49.35795" lon="1.16223">
        <ele>168.4</ele>
        <time>2011-05-01T06:56:37Z</time>
      </trkpt>
      <trkpt lat="49.35796" lon="1.16228">
        <ele>168.8</ele>
        <time>2011-05-01T06:56:39Z</time>
      </trkpt>
      <trkpt lat="49.35798" lon="1.16231">
        <ele>169</ele>
        <time>2011-05-01T06:56:40Z</time>
      </trkpt>
      <trkpt lat="49.35799" lon="1.16234">
        <ele>169.2</ele>
        <time>2011-05-01T06:56:41Z</time>
      </trkpt>
      <trkpt lat="49.35804" lon="1.1624">
        <ele>169.4</ele>
        <time>2011-05-01T06:56:44Z</time>
      </trkpt>
      <trkpt lat="49.35806" lon="1.16244">
        <ele>169.6</ele>
        <time>2011-05-01T06:56:45Z</time>
      </trkpt>
      <trkpt lat="49.3581" lon="1.16252">
        <ele>169.8</ele>
        <time>2011-05-01T06:56:48Z</time>
      </trkpt>
      <trkpt lat="49.35814" lon="1.16262">
        <ele>170.2</ele>
        <time>2011-05-01T06:56:51Z</time>
      </trkpt>
      <trkpt lat="49.35813" lon="1.16267">
        <ele>170.8</ele>
        <time>2011-05-01T06:56:53Z</time>
      </trkpt>
      <trkpt lat="49.3581" lon="1.1627">
        <ele>171</ele>
        <time>2011-05-01T06:56:55Z</time>
      </trkpt>
      <trkpt lat="49.35806" lon="1.16273">
        <ele>171.4</ele>
        <time>2011-05-01T06:56:57Z</time>
      </trkpt>
      <trkpt lat="49.35805" lon="1.16276">
        <ele>171.6</ele>
        <time>2011-05-01T06:56:58Z</time>
      </trkpt>
      <trkpt lat="49.35798" lon="1.16285">
        <ele>171.8</ele>
        <time>2011-05-01T06:57:01Z</time>
      </trkpt>
      <trkpt lat="49.35781" lon="1.16295">
        <ele>172.2</ele>
        <time>2011-05-01T06:57:07Z</time>
      </trkpt>
      <trkpt lat="49.35768" lon="1.16306">
        <ele>172.4</ele>
        <time>2011-05-01T06:57:11Z</time>
      </trkpt>
      <trkpt lat="49.35754" lon="1.16318">
        <ele>172.6</ele>
        <time>2011-05-01T06:57:16Z</time>
      </trkpt>
      <trkpt lat="49.35746" lon="1.16324">
        <ele>172.6</ele>
        <time>2011-05-01T06:57:20Z</time>
      </trkpt>
      <trkpt lat="49.35742" lon="1.16326">
        <ele>172.6</ele>
        <time>2011-05-01T06:57:21Z</time>
      </trkpt>
      <trkpt lat="49.35723" lon="1.16341">
        <ele>172.4</ele>
        <time>2011-05-01T06:57:23Z</time>
      </trkpt>
      <trkpt lat="49.3572" lon="1.16344">
        <ele>172.2</ele>
        <time>2011-05-01T06:57:24Z</time>
      </trkpt>
      <trkpt lat="49.35703" lon="1.16355">
        <ele>171.8</ele>
        <time>2011-05-01T06:57:27Z</time>
      </trkpt>
      <trkpt lat="49.35699" lon="1.16358">
        <ele>171.6</ele>
        <time>2011-05-01T06:57:29Z</time>
      </trkpt>
      <trkpt lat="49.35692" lon="1.16366">
        <ele>171.4</ele>
        <time>2011-05-01T06:57:31Z</time>
      </trkpt>
      <trkpt lat="49.35682" lon="1.16376">
        <ele>171</ele>
        <time>2011-05-01T06:57:34Z</time>
      </trkpt>
      <trkpt lat="49.35678" lon="1.1638">
        <ele>170.8</ele>
        <time>2011-05-01T06:57:35Z</time>
      </trkpt>
      <trkpt lat="49.35665" lon="1.1639">
        <ele>170</ele>
        <time>2011-05-01T06:57:38Z</time>
      </trkpt>
      <trkpt lat="49.35655" lon="1.16397">
        <ele>169.8</ele>
        <time>2011-05-01T06:57:40Z</time>
      </trkpt>
      <trkpt lat="49.35641" lon="1.16407">
        <ele>169.6</ele>
        <time>2011-05-01T06:57:41Z</time>
      </trkpt>
      <trkpt lat="49.35633" lon="1.16418">
        <ele>169.2</ele>
        <time>2011-05-01T06:57:43Z</time>
      </trkpt>
      <trkpt lat="49.35626" lon="1.16429">
        <ele>168.6</ele>
        <time>2011-05-01T06:57:45Z</time>
      </trkpt>
      <trkpt lat="49.35622" lon="1.16436">
        <ele>168.4</ele>
        <time>2011-05-01T06:57:46Z</time>
      </trkpt>
      <trkpt lat="49.35614" lon="1.16456">
        <ele>167.8</ele>
        <time>2011-05-01T06:57:49Z</time>
      </trkpt>
      <trkpt lat="49.35611" lon="1.16465">
        <ele>167.6</ele>
        <time>2011-05-01T06:57:51Z</time>
      </trkpt>
      <trkpt lat="49.35605" lon="1.16471">
        <ele>167</ele>
        <time>2011-05-01T06:57:53Z</time>
      </trkpt>
      <trkpt lat="49.35601" lon="1.16478">
        <ele>166.8</ele>
        <time>2011-05-01T06:57:54Z</time>
      </trkpt>
      <trkpt lat="49.35597" lon="1.16484">
        <ele>166.6</ele>
        <time>2011-05-01T06:57:55Z</time>
      </trkpt>
      <trkpt lat="49.35589" lon="1.16493">
        <ele>166</ele>
        <time>2011-05-01T06:57:57Z</time>
      </trkpt>
      <trkpt lat="49.35583" lon="1.16495">
        <ele>165.8</ele>
        <time>2011-05-01T06:57:58Z</time>
      </trkpt>
      <trkpt lat="49.35577" lon="1.16497">
        <ele>165.4</ele>
        <time>2011-05-01T06:57:59Z</time>
      </trkpt>
      <trkpt lat="49.35564" lon="1.16501">
        <ele>164.8</ele>
        <time>2011-05-01T06:58:01Z</time>
      </trkpt>
      <trkpt lat="49.35557" lon="1.16503">
        <ele>164.6</ele>
        <time>2011-05-01T06:58:02Z</time>
      </trkpt>
      <trkpt lat="49.35551" lon="1.16504">
        <ele>164</ele>
        <time>2011-05-01T06:58:03Z</time>
      </trkpt>
      <trkpt lat="49.35542" lon="1.16501">
        <ele>163.2</ele>
        <time>2011-05-01T06:58:05Z</time>
      </trkpt>
      <trkpt lat="49.35539" lon="1.16498">
        <ele>162.8</ele>
        <time>2011-05-01T06:58:06Z</time>
      </trkpt>
      <trkpt lat="49.35537" lon="1.16494">
        <ele>162.4</ele>
        <time>2011-05-01T06:58:07Z</time>
      </trkpt>
      <trkpt lat="49.35533" lon="1.16487">
        <ele>161.4</ele>
        <time>2011-05-01T06:58:09Z</time>
      </trkpt>
      <trkpt lat="49.3553" lon="1.16477">
        <ele>160.6</ele>
        <time>2011-05-01T06:58:11Z</time>
      </trkpt>
      <trkpt lat="49.35526" lon="1.16472">
        <ele>160.4</ele>
        <time>2011-05-01T06:58:12Z</time>
      </trkpt>
      <trkpt lat="49.35523" lon="1.16467">
        <ele>160</ele>
        <time>2011-05-01T06:58:13Z</time>
      </trkpt>
      <trkpt lat="49.35519" lon="1.16462">
        <ele>159.6</ele>
        <time>2011-05-01T06:58:14Z</time>
      </trkpt>
      <trkpt lat="49.35516" lon="1.16458">
        <ele>159.2</ele>
        <time>2011-05-01T06:58:15Z</time>
      </trkpt>
      <trkpt lat="49.35511" lon="1.16448">
        <ele>158.4</ele>
        <time>2011-05-01T06:58:17Z</time>
      </trkpt>
      <trkpt lat="49.35503" lon="1.16443">
        <ele>157</ele>
        <time>2011-05-01T06:58:20Z</time>
      </trkpt>
      <trkpt lat="49.35496" lon="1.16441">
        <ele>156.2</ele>
        <time>2011-05-01T06:58:22Z</time>
      </trkpt>
      <trkpt lat="49.35488" lon="1.1644">
        <ele>155.6</ele>
        <time>2011-05-01T06:58:24Z</time>
      </trkpt>
      <trkpt lat="49.35482" lon="1.16443">
        <ele>155</ele>
        <time>2011-05-01T06:58:26Z</time>
      </trkpt>
      <trkpt lat="49.35474" lon="1.16445">
        <ele>154.6</ele>
        <time>2011-05-01T06:58:29Z</time>
      </trkpt>
      <trkpt lat="49.35469" lon="1.16447">
        <ele>154.2</ele>
        <time>2011-05-01T06:58:31Z</time>
      </trkpt>
      <trkpt lat="49.35454" lon="1.16462">
        <ele>153.8</ele>
        <time>2011-05-01T06:58:36Z</time>
      </trkpt>
      <trkpt lat="49.35442" lon="1.16472">
        <ele>153.4</ele>
        <time>2011-05-01T06:58:40Z</time>
      </trkpt>
      <trkpt lat="49.35441" lon="1.16474">
        <ele>153.4</ele>
        <time>2011-05-01T06:58:41Z</time>
      </trkpt>
      <trkpt lat="49.35428" lon="1.16483">
        <ele>153.2</ele>
        <time>2011-05-01T06:58:45Z</time>
      </trkpt>
      <trkpt lat="49.35424" lon="1.16488">
        <ele>153.2</ele>
        <time>2011-05-01T06:58:48Z</time>
      </trkpt>
      <trkpt lat="49.35415" lon="1.16486">
        <ele>153.2</ele>
        <time>2011-05-01T06:58:52Z</time>
      </trkpt>
      <trkpt lat="49.35402" lon="1.16466">
        <ele>153</ele>
        <time>2011-05-01T06:58:56Z</time>
      </trkpt>
      <trkpt lat="49.35394" lon="1.16456">
        <ele>153</ele>
        <time>2011-05-01T06:58:59Z</time>
      </trkpt>
      <trkpt lat="49.35386" lon="1.16445">
        <ele>152.8</ele>
        <time>2011-05-01T06:59:02Z</time>
      </trkpt>
      <trkpt lat="49.3538" lon="1.16441">
        <ele>152.4</ele>
        <time>2011-05-01T06:59:04Z</time>
      </trkpt>
      <trkpt lat="49.35373" lon="1.16437">
        <ele>151.8</ele>
        <time>2011-05-01T06:59:06Z</time>
      </trkpt>
      <trkpt lat="49.35366" lon="1.16431">
        <ele>151.2</ele>
        <time>2011-05-01T06:59:08Z</time>
      </trkpt>
      <trkpt lat="49.35363" lon="1.16429">
        <ele>151</ele>
        <time>2011-05-01T06:59:09Z</time>
      </trkpt>
      <trkpt lat="49.35358" lon="1.16428">
        <ele>150.2</ele>
        <time>2011-05-01T06:59:11Z</time>
      </trkpt>
      <trkpt lat="49.35351" lon="1.16429">
        <ele>149.4</ele>
        <time>2011-05-01T06:59:13Z</time>
      </trkpt>
      <trkpt lat="49.35342" lon="1.16433">
        <ele>148.8</ele>
        <time>2011-05-01T06:59:15Z</time>
      </trkpt>
      <trkpt lat="49.35334" lon="1.16438">
        <ele>148.4</ele>
        <time>2011-05-01T06:59:17Z</time>
      </trkpt>
      <trkpt lat="49.35329" lon="1.1644">
        <ele>148.2</ele>
        <time>2011-05-01T06:59:18Z</time>
      </trkpt>
      <trkpt lat="49.35325" lon="1.16442">
        <ele>148</ele>
        <time>2011-05-01T06:59:19Z</time>
      </trkpt>
      <trkpt lat="49.35294" lon="1.16457">
        <ele>147</ele>
        <time>2011-05-01T06:59:26Z</time>
      </trkpt>
      <trkpt lat="49.35281" lon="1.16464">
        <ele>146.6</ele>
        <time>2011-05-01T06:59:29Z</time>
      </trkpt>
      <trkpt lat="49.35271" lon="1.16469">
        <ele>146</ele>
        <time>2011-05-01T06:59:31Z</time>
      </trkpt>
      <trkpt lat="49.35261" lon="1.16474">
        <ele>145.8</ele>
        <time>2011-05-01T06:59:33Z</time>
      </trkpt>
      <trkpt lat="49.35251" lon="1.16479">
        <ele>145.4</ele>
        <time>2011-05-01T06:59:35Z</time>
      </trkpt>
      <trkpt lat="49.35246" lon="1.16481">
        <ele>145.2</ele>
        <time>2011-05-01T06:59:36Z</time>
      </trkpt>
      <trkpt lat="49.35241" lon="1.16481">
        <ele>145.2</ele>
        <time>2011-05-01T06:59:37Z</time>
      </trkpt>
      <trkpt lat="49.35207" lon="1.16477">
        <ele>144.6</ele>
        <time>2011-05-01T06:59:43Z</time>
      </trkpt>
      <trkpt lat="49.35201" lon="1.16477">
        <ele>144.4</ele>
        <time>2011-05-01T06:59:44Z</time>
      </trkpt>
      <trkpt lat="49.35189" lon="1.16476">
        <ele>144</ele>
        <time>2011-05-01T06:59:46Z</time>
      </trkpt>
      <trkpt lat="49.35177" lon="1.16475">
        <ele>143.6</ele>
        <time>2011-05-01T06:59:48Z</time>
      </trkpt>
      <trkpt lat="49.35166" lon="1.16475">
        <ele>143.2</ele>
        <time>2011-05-01T06:59:50Z</time>
      </trkpt>
      <trkpt lat="49.35153" lon="1.16476">
        <ele>143</ele>
        <time>2011-05-01T06:59:52Z</time>
      </trkpt>
      <trkpt lat="49.35147" lon="1.16476">
        <ele>142.6</ele>
        <time>2011-05-01T06:59:53Z</time>
      </trkpt>
      <trkpt lat="49.35134" lon="1.16475">
        <ele>142.2</ele>
        <time>2011-05-01T06:59:55Z</time>
      </trkpt>
      <trkpt lat="49.35127" lon="1.16476">
        <ele>141.6</ele>
        <time>2011-05-01T06:59:56Z</time>
      </trkpt>
      <trkpt lat="49.35121" lon="1.16477">
        <ele>141.2</ele>
        <time>2011-05-01T06:59:57Z</time>
      </trkpt>
      <trkpt lat="49.35115" lon="1.1648">
        <ele>141</ele>
        <time>2011-05-01T06:59:58Z</time>
      </trkpt>
      <trkpt lat="49.35109" lon="1.16482">
        <ele>140.4</ele>
        <time>2011-05-01T06:59:59Z</time>
      </trkpt>
      <trkpt lat="49.35099" lon="1.1649">
        <ele>139.4</ele>
        <time>2011-05-01T07:00:01Z</time>
      </trkpt>
      <trkpt lat="49.35088" lon="1.16498">
        <ele>138.8</ele>
        <time>2011-05-01T07:00:03Z</time>
      </trkpt>
      <trkpt lat="49.35083" lon="1.16502">
        <ele>138.4</ele>
        <time>2011-05-01T07:00:04Z</time>
      </trkpt>
      <trkpt lat="49.35062" lon="1.16506">
        <ele>137</ele>
        <time>2011-05-01T07:00:07Z</time>
      </trkpt>
      <trkpt lat="49.35047" lon="1.16501">
        <ele>136</ele>
        <time>2011-05-01T07:00:09Z</time>
      </trkpt>
      <trkpt lat="49.35032" lon="1.16497">
        <ele>135</ele>
        <time>2011-05-01T07:00:11Z</time>
      </trkpt>
      <trkpt lat="49.35026" lon="1.16496">
        <ele>134.4</ele>
        <time>2011-05-01T07:00:12Z</time>
      </trkpt>
      <trkpt lat="49.35015" lon="1.16498">
        <ele>133.2</ele>
        <time>2011-05-01T07:00:14Z</time>
      </trkpt>
      <trkpt lat="49.3501" lon="1.165">
        <ele>132.4</ele>
        <time>2011-05-01T07:00:15Z</time>
      </trkpt>
      <trkpt lat="49.35002" lon="1.16504">
        <ele>131.2</ele>
        <time>2011-05-01T07:00:17Z</time>
      </trkpt>
      <trkpt lat="49.34997" lon="1.16505">
        <ele>130.2</ele>
        <time>2011-05-01T07:00:19Z</time>
      </trkpt>
      <trkpt lat="49.34994" lon="1.16503">
        <ele>129.8</ele>
        <time>2011-05-01T07:00:20Z</time>
      </trkpt>
      <trkpt lat="49.34992" lon="1.165">
        <ele>129.4</ele>
        <time>2011-05-01T07:00:21Z</time>
      </trkpt>
      <trkpt lat="49.34986" lon="1.16491">
        <ele>128.8</ele>
        <time>2011-05-01T07:00:23Z</time>
      </trkpt>
      <trkpt lat="49.34983" lon="1.16485">
        <ele>128.6</ele>
        <time>2011-05-01T07:00:24Z</time>
      </trkpt>
      <trkpt lat="49.34962" lon="1.16451">
        <ele>127.4</ele>
        <time>2011-05-01T07:00:30Z</time>
      </trkpt>
      <trkpt lat="49.34959" lon="1.16446">
        <ele>127.2</ele>
        <time>2011-05-01T07:00:31Z</time>
      </trkpt>
      <trkpt lat="49.34947" lon="1.1643">
        <ele>126.4</ele>
        <time>2011-05-01T07:00:34Z</time>
      </trkpt>
      <trkpt lat="49.34942" lon="1.16425">
        <ele>126.2</ele>
        <time>2011-05-01T07:00:35Z</time>
      </trkpt>
      <trkpt lat="49.34939" lon="1.16421">
        <ele>126</ele>
        <time>2011-05-01T07:00:36Z</time>
      </trkpt>
      <trkpt lat="49.3493" lon="1.16411">
        <ele>125.4</ele>
        <time>2011-05-01T07:00:38Z</time>
      </trkpt>
      <trkpt lat="49.34919" lon="1.164">
        <ele>124.6</ele>
        <time>2011-05-01T07:00:40Z</time>
      </trkpt>
      <trkpt lat="49.34913" lon="1.16394">
        <ele>124.4</ele>
        <time>2011-05-01T07:00:41Z</time>
      </trkpt>
      <trkpt lat="49.34899" lon="1.16392">
        <ele>123.4</ele>
        <time>2011-05-01T07:00:44Z</time>
      </trkpt>
      <trkpt lat="49.34896" lon="1.16395">
        <ele>123</ele>
        <time>2011-05-01T07:00:45Z</time>
      </trkpt>
      <trkpt lat="49.34886" lon="1.1641">
        <ele>122.2</ele>
        <time>2011-05-01T07:00:48Z</time>
      </trkpt>
      <trkpt lat="49.34875" lon="1.1642">
        <ele>121.4</ele>
        <time>2011-05-01T07:00:51Z</time>
      </trkpt>
      <trkpt lat="49.3487" lon="1.16422">
        <ele>121.2</ele>
        <time>2011-05-01T07:00:52Z</time>
      </trkpt>
      <trkpt lat="49.34843" lon="1.16424">
        <ele>120.4</ele>
        <time>2011-05-01T07:00:58Z</time>
      </trkpt>
      <trkpt lat="49.34816" lon="1.16427">
        <ele>120.2</ele>
        <time>2011-05-01T07:01:03Z</time>
      </trkpt>
      <trkpt lat="49.34811" lon="1.16428">
        <ele>120</ele>
        <time>2011-05-01T07:01:04Z</time>
      </trkpt>
      <trkpt lat="49.34789" lon="1.16444">
        <ele>119.8</ele>
        <time>2011-05-01T07:01:09Z</time>
      </trkpt>
      <trkpt lat="49.34785" lon="1.16449">
        <ele>119.8</ele>
        <time>2011-05-01T07:01:10Z</time>
      </trkpt>
      <trkpt lat="49.34775" lon="1.16469">
        <ele>119.8</ele>
        <time>2011-05-01T07:01:14Z</time>
      </trkpt>
      <trkpt lat="49.34769" lon="1.16479">
        <ele>119.8</ele>
        <time>2011-05-01T07:01:17Z</time>
      </trkpt>
      <trkpt lat="49.34767" lon="1.16483">
        <ele>119.6</ele>
        <time>2011-05-01T07:01:18Z</time>
      </trkpt>
      <trkpt lat="49.34759" lon="1.1649">
        <ele>119.2</ele>
        <time>2011-05-01T07:01:20Z</time>
      </trkpt>
      <trkpt lat="49.34748" lon="1.16504">
        <ele>118.8</ele>
        <time>2011-05-01T07:01:23Z</time>
      </trkpt>
      <trkpt lat="49.34741" lon="1.16516">
        <ele>118.6</ele>
        <time>2011-05-01T07:01:25Z</time>
      </trkpt>
      <trkpt lat="49.34736" lon="1.16527">
        <ele>118.4</ele>
        <time>2011-05-01T07:01:27Z</time>
      </trkpt>
      <trkpt lat="49.34729" lon="1.16559">
        <ele>118</ele>
        <time>2011-05-01T07:01:33Z</time>
      </trkpt>
      <trkpt lat="49.34728" lon="1.16567">
        <ele>118</ele>
        <time>2011-05-01T07:01:35Z</time>
      </trkpt>
      <trkpt lat="49.34727" lon="1.16575">
        <ele>118.4</ele>
        <time>2011-05-01T07:01:37Z</time>
      </trkpt>
      <trkpt lat="49.34726" lon="1.16583">
        <ele>118.6</ele>
        <time>2011-05-01T07:01:39Z</time>
      </trkpt>
      <trkpt lat="49.34725" lon="1.16591">
        <ele>118.8</ele>
        <time>2011-05-01T07:01:41Z</time>
      </trkpt>
      <trkpt lat="49.34724" lon="1.166">
        <ele>119</ele>
        <time>2011-05-01T07:01:43Z</time>
      </trkpt>
      <trkpt lat="49.34723" lon="1.16609">
        <ele>119.2</ele>
        <time>2011-05-01T07:01:45Z</time>
      </trkpt>
      <trkpt lat="49.34722" lon="1.16617">
        <ele>119.8</ele>
        <time>2011-05-01T07:01:47Z</time>
      </trkpt>
      <trkpt lat="49.34721" lon="1.16625">
        <ele>120.2</ele>
        <time>2011-05-01T07:01:49Z</time>
      </trkpt>
      <trkpt lat="49.3472" lon="1.16632">
        <ele>120.4</ele>
        <time>2011-05-01T07:01:51Z</time>
      </trkpt>
      <trkpt lat="49.34719" lon="1.16639">
        <ele>121</ele>
        <time>2011-05-01T07:01:53Z</time>
      </trkpt>
      <trkpt lat="49.34718" lon="1.16645">
        <ele>121.4</ele>
        <time>2011-05-01T07:01:55Z</time>
      </trkpt>
      <trkpt lat="49.34718" lon="1.16653">
        <ele>122</ele>
        <time>2011-05-01T07:01:57Z</time>
      </trkpt>
      <trkpt lat="49.34718" lon="1.1666">
        <ele>122.4</ele>
        <time>2011-05-01T07:01:59Z</time>
      </trkpt>
      <trkpt lat="49.34718" lon="1.16667">
        <ele>122.6</ele>
        <time>2011-05-01T07:02:01Z</time>
      </trkpt>
      <trkpt lat="49.34717" lon="1.16669">
        <ele>122.8</ele>
        <time>2011-05-01T07:02:02Z</time>
      </trkpt>
      <trkpt lat="49.34711" lon="1.16672">
        <ele>123.2</ele>
        <time>2011-05-01T07:02:05Z</time>
      </trkpt>
      <trkpt lat="49.34706" lon="1.1667">
        <ele>123.8</ele>
        <time>2011-05-01T07:02:07Z</time>
      </trkpt>
      <trkpt lat="49.347" lon="1.16664">
        <ele>124.2</ele>
        <time>2011-05-01T07:02:09Z</time>
      </trkpt>
      <trkpt lat="49.34695" lon="1.16658">
        <ele>124.6</ele>
        <time>2011-05-01T07:02:11Z</time>
      </trkpt>
      <trkpt lat="49.3469" lon="1.16651">
        <ele>124.8</ele>
        <time>2011-05-01T07:02:13Z</time>
      </trkpt>
      <trkpt lat="49.34685" lon="1.16632">
        <ele>125.2</ele>
        <time>2011-05-01T07:02:17Z</time>
      </trkpt>
      <trkpt lat="49.34668" lon="1.16606">
        <ele>125.6</ele>
        <time>2011-05-01T07:02:22Z</time>
      </trkpt>
      <trkpt lat="49.34664" lon="1.16602">
        <ele>125.6</ele>
        <time>2011-05-01T07:02:23Z</time>
      </trkpt>
      <trkpt lat="49.34657" lon="1.16596">
        <ele>125.6</ele>
        <time>2011-05-01T07:02:25Z</time>
      </trkpt>
      <trkpt lat="49.34651" lon="1.16592">
        <ele>125.8</ele>
        <time>2011-05-01T07:02:27Z</time>
      </trkpt>
      <trkpt lat="49.34642" lon="1.16586">
        <ele>125.6</ele>
        <time>2011-05-01T07:02:30Z</time>
      </trkpt>
      <trkpt lat="49.34634" lon="1.16581">
        <ele>125.2</ele>
        <time>2011-05-01T07:02:32Z</time>
      </trkpt>
      <trkpt lat="49.34627" lon="1.16576">
        <ele>125</ele>
        <time>2011-05-01T07:02:34Z</time>
      </trkpt>
      <trkpt lat="49.34621" lon="1.1657">
        <ele>124.8</ele>
        <time>2011-05-01T07:02:36Z</time>
      </trkpt>
      <trkpt lat="49.34617" lon="1.16566">
        <ele>124.8</ele>
        <time>2011-05-01T07:02:37Z</time>
      </trkpt>
      <trkpt lat="49.34613" lon="1.16561">
        <ele>124.4</ele>
        <time>2011-05-01T07:02:38Z</time>
      </trkpt>
      <trkpt lat="49.34602" lon="1.16551">
        <ele>124</ele>
        <time>2011-05-01T07:02:40Z</time>
      </trkpt>
      <trkpt lat="49.34591" lon="1.16542">
        <ele>123.6</ele>
        <time>2011-05-01T07:02:42Z</time>
      </trkpt>
      <trkpt lat="49.34579" lon="1.16536">
        <ele>123.2</ele>
        <time>2011-05-01T07:02:44Z</time>
      </trkpt>
      <trkpt lat="49.34568" lon="1.1653">
        <ele>123</ele>
        <time>2011-05-01T07:02:46Z</time>
      </trkpt>
      <trkpt lat="49.34562" lon="1.16528">
        <ele>122.6</ele>
        <time>2011-05-01T07:02:47Z</time>
      </trkpt>
      <trkpt lat="49.3455" lon="1.16522">
        <ele>122</ele>
        <time>2011-05-01T07:02:49Z</time>
      </trkpt>
      <trkpt lat="49.34538" lon="1.16516">
        <ele>121.6</ele>
        <time>2011-05-01T07:02:51Z</time>
      </trkpt>
      <trkpt lat="49.34526" lon="1.1651">
        <ele>121</ele>
        <time>2011-05-01T07:02:53Z</time>
      </trkpt>
      <trkpt lat="49.34513" lon="1.16502">
        <ele>120.4</ele>
        <time>2011-05-01T07:02:55Z</time>
      </trkpt>
      <trkpt lat="49.34499" lon="1.16495">
        <ele>120</ele>
        <time>2011-05-01T07:02:57Z</time>
      </trkpt>
      <trkpt lat="49.34486" lon="1.16488">
        <ele>119.4</ele>
        <time>2011-05-01T07:02:59Z</time>
      </trkpt>
      <trkpt lat="49.3448" lon="1.16482">
        <ele>119.2</ele>
        <time>2011-05-01T07:03:00Z</time>
      </trkpt>
      <trkpt lat="49.34467" lon="1.1647">
        <ele>118.4</ele>
        <time>2011-05-01T07:03:02Z</time>
      </trkpt>
      <trkpt lat="49.34455" lon="1.16454">
        <ele>118</ele>
        <time>2011-05-01T07:03:04Z</time>
      </trkpt>
      <trkpt lat="49.3445" lon="1.16446">
        <ele>117.4</ele>
        <time>2011-05-01T07:03:05Z</time>
      </trkpt>
      <trkpt lat="49.34441" lon="1.16426">
        <ele>116.8</ele>
        <time>2011-05-01T07:03:07Z</time>
      </trkpt>
      <trkpt lat="49.34436" lon="1.16402">
        <ele>116.2</ele>
        <time>2011-05-01T07:03:09Z</time>
      </trkpt>
      <trkpt lat="49.34435" lon="1.1639">
        <ele>115.6</ele>
        <time>2011-05-01T07:03:10Z</time>
      </trkpt>
      <trkpt lat="49.3443" lon="1.16371">
        <ele>114.8</ele>
        <time>2011-05-01T07:03:12Z</time>
      </trkpt>
      <trkpt lat="49.34423" lon="1.16371">
        <ele>114.2</ele>
        <time>2011-05-01T07:03:14Z</time>
      </trkpt>
      <trkpt lat="49.34416" lon="1.16384">
        <ele>113.6</ele>
        <time>2011-05-01T07:03:16Z</time>
      </trkpt>
      <trkpt lat="49.34409" lon="1.16399">
        <ele>113</ele>
        <time>2011-05-01T07:03:18Z</time>
      </trkpt>
      <trkpt lat="49.34406" lon="1.16405">
        <ele>113</ele>
        <time>2011-05-01T07:03:19Z</time>
      </trkpt>
      <trkpt lat="49.34397" lon="1.16414">
        <ele>112.4</ele>
        <time>2011-05-01T07:03:21Z</time>
      </trkpt>
      <trkpt lat="49.34388" lon="1.16421">
        <ele>111.8</ele>
        <time>2011-05-01T07:03:23Z</time>
      </trkpt>
      <trkpt lat="49.34383" lon="1.16425">
        <ele>111.6</ele>
        <time>2011-05-01T07:03:24Z</time>
      </trkpt>
      <trkpt lat="49.34368" lon="1.16433">
        <ele>110.8</ele>
        <time>2011-05-01T07:03:27Z</time>
      </trkpt>
      <trkpt lat="49.34357" lon="1.16437">
        <ele>110.6</ele>
        <time>2011-05-01T07:03:29Z</time>
      </trkpt>
      <trkpt lat="49.3433" lon="1.16449">
        <ele>109.8</ele>
        <time>2011-05-01T07:03:35Z</time>
      </trkpt>
      <trkpt lat="49.34315" lon="1.16452">
        <ele>109.6</ele>
        <time>2011-05-01T07:03:39Z</time>
      </trkpt>
      <trkpt lat="49.34311" lon="1.16454">
        <ele>109.6</ele>
        <time>2011-05-01T07:03:40Z</time>
      </trkpt>
      <trkpt lat="49.34294" lon="1.16472">
        <ele>109.4</ele>
        <time>2011-05-01T07:03:44Z</time>
      </trkpt>
      <trkpt lat="49.34281" lon="1.16491">
        <ele>109.4</ele>
        <time>2011-05-01T07:03:49Z</time>
      </trkpt>
      <trkpt lat="49.34275" lon="1.16505">
        <ele>109.4</ele>
        <time>2011-05-01T07:03:53Z</time>
      </trkpt>
      <trkpt lat="49.3427" lon="1.16516">
        <ele>109.8</ele>
        <time>2011-05-01T07:03:55Z</time>
      </trkpt>
      <trkpt lat="49.34267" lon="1.16521">
        <ele>110</ele>
        <time>2011-05-01T07:03:56Z</time>
      </trkpt>
      <trkpt lat="49.34266" lon="1.16526">
        <ele>110</ele>
        <time>2011-05-01T07:03:57Z</time>
      </trkpt>
      <trkpt lat="49.34263" lon="1.16532">
        <ele>110.4</ele>
        <time>2011-05-01T07:03:59Z</time>
      </trkpt>
      <trkpt lat="49.34262" lon="1.16535">
        <ele>110.4</ele>
        <time>2011-05-01T07:04:01Z</time>
      </trkpt>
      <trkpt lat="49.34257" lon="1.16546">
        <ele>110.6</ele>
        <time>2011-05-01T07:04:04Z</time>
      </trkpt>
      <trkpt lat="49.34249" lon="1.16556">
        <ele>111.2</ele>
        <time>2011-05-01T07:04:08Z</time>
      </trkpt>
      <trkpt lat="49.34244" lon="1.16561">
        <ele>111.6</ele>
        <time>2011-05-01T07:04:10Z</time>
      </trkpt>
      <trkpt lat="49.3424" lon="1.16566">
        <ele>112</ele>
        <time>2011-05-01T07:04:12Z</time>
      </trkpt>
      <trkpt lat="49.34234" lon="1.16572">
        <ele>112.2</ele>
        <time>2011-05-01T07:04:14Z</time>
      </trkpt>
      <trkpt lat="49.34225" lon="1.16578">
        <ele>112.4</ele>
        <time>2011-05-01T07:04:16Z</time>
      </trkpt>
      <trkpt lat="49.34218" lon="1.16583">
        <ele>112.6</ele>
        <time>2011-05-01T07:04:18Z</time>
      </trkpt>
      <trkpt lat="49.34201" lon="1.16596">
        <ele>113.2</ele>
        <time>2011-05-01T07:04:23Z</time>
      </trkpt>
      <trkpt lat="49.34193" lon="1.16597">
        <ele>113.6</ele>
        <time>2011-05-01T07:04:25Z</time>
      </trkpt>
      <trkpt lat="49.34186" lon="1.16598">
        <ele>114</ele>
        <time>2011-05-01T07:04:27Z</time>
      </trkpt>
      <trkpt lat="49.34176" lon="1.16605">
        <ele>114.2</ele>
        <time>2011-05-01T07:04:29Z</time>
      </trkpt>
      <trkpt lat="49.34166" lon="1.16615">
        <ele>114.6</ele>
        <time>2011-05-01T07:04:31Z</time>
      </trkpt>
      <trkpt lat="49.34143" lon="1.16639">
        <ele>115</ele>
        <time>2011-05-01T07:04:36Z</time>
      </trkpt>
      <trkpt lat="49.34126" lon="1.16657">
        <ele>115.2</ele>
        <time>2011-05-01T07:04:41Z</time>
      </trkpt>
      <trkpt lat="49.34112" lon="1.16667">
        <ele>115.6</ele>
        <time>2011-05-01T07:04:45Z</time>
      </trkpt>
      <trkpt lat="49.34106" lon="1.16672">
        <ele>115.8</ele>
        <time>2011-05-01T07:04:47Z</time>
      </trkpt>
      <trkpt lat="49.34102" lon="1.16673">
        <ele>116</ele>
        <time>2011-05-01T07:04:48Z</time>
      </trkpt>
      <trkpt lat="49.34099" lon="1.16674">
        <ele>116.2</ele>
        <time>2011-05-01T07:04:49Z</time>
      </trkpt>
      <trkpt lat="49.3409" lon="1.16677">
        <ele>116.4</ele>
        <time>2011-05-01T07:04:51Z</time>
      </trkpt>
      <trkpt lat="49.34083" lon="1.16684">
        <ele>116.6</ele>
        <time>2011-05-01T07:04:53Z</time>
      </trkpt>
      <trkpt lat="49.34061" lon="1.16694">
        <ele>117</ele>
        <time>2011-05-01T07:04:58Z</time>
      </trkpt>
      <trkpt lat="49.34056" lon="1.16695">
        <ele>117</ele>
        <time>2011-05-01T07:04:59Z</time>
      </trkpt>
      <trkpt lat="49.3403" lon="1.16702">
        <ele>117.4</ele>
        <time>2011-05-01T07:05:05Z</time>
      </trkpt>
      <trkpt lat="49.34008" lon="1.16709">
        <ele>117.4</ele>
        <time>2011-05-01T07:05:11Z</time>
      </trkpt>
      <trkpt lat="49.3399" lon="1.16714">
        <ele>117.4</ele>
        <time>2011-05-01T07:05:15Z</time>
      </trkpt>
      <trkpt lat="49.33973" lon="1.16716">
        <ele>117.8</ele>
        <time>2011-05-01T07:05:19Z</time>
      </trkpt>
      <trkpt lat="49.33967" lon="1.16717">
        <ele>118.2</ele>
        <time>2011-05-01T07:05:21Z</time>
      </trkpt>
      <trkpt lat="49.3396" lon="1.16719">
        <ele>118.6</ele>
        <time>2011-05-01T07:05:23Z</time>
      </trkpt>
      <trkpt lat="49.33954" lon="1.16719">
        <ele>118.8</ele>
        <time>2011-05-01T07:05:25Z</time>
      </trkpt>
      <trkpt lat="49.33948" lon="1.16719">
        <ele>119</ele>
        <time>2011-05-01T07:05:27Z</time>
      </trkpt>
      <trkpt lat="49.33935" lon="1.16726">
        <ele>119.6</ele>
        <time>2011-05-01T07:05:32Z</time>
      </trkpt>
      <trkpt lat="49.3393" lon="1.16729">
        <ele>120</ele>
        <time>2011-05-01T07:05:34Z</time>
      </trkpt>
      <trkpt lat="49.33925" lon="1.16732">
        <ele>120.4</ele>
        <time>2011-05-01T07:05:36Z</time>
      </trkpt>
      <trkpt lat="49.33922" lon="1.16732">
        <ele>120.6</ele>
        <time>2011-05-01T07:05:37Z</time>
      </trkpt>
      <trkpt lat="49.33919" lon="1.16732">
        <ele>120.8</ele>
        <time>2011-05-01T07:05:38Z</time>
      </trkpt>
      <trkpt lat="49.33912" lon="1.16731">
        <ele>121</ele>
        <time>2011-05-01T07:05:40Z</time>
      </trkpt>
      <trkpt lat="49.339" lon="1.16728">
        <ele>121.2</ele>
        <time>2011-05-01T07:05:43Z</time>
      </trkpt>
      <trkpt lat="49.33869" lon="1.16734">
        <ele>121.6</ele>
        <time>2011-05-01T07:05:48Z</time>
      </trkpt>
      <trkpt lat="49.3385" lon="1.16752">
        <ele>121.8</ele>
        <time>2011-05-01T07:05:53Z</time>
      </trkpt>
      <trkpt lat="49.33846" lon="1.1676">
        <ele>121.8</ele>
        <time>2011-05-01T07:05:57Z</time>
      </trkpt>
      <trkpt lat="49.33838" lon="1.16743">
        <ele>122</ele>
        <time>2011-05-01T07:06:02Z</time>
      </trkpt>
      <trkpt lat="49.33829" lon="1.16733">
        <ele>122</ele>
        <time>2011-05-01T07:06:05Z</time>
      </trkpt>
      <trkpt lat="49.33818" lon="1.1672">
        <ele>122</ele>
        <time>2011-05-01T07:06:09Z</time>
      </trkpt>
      <trkpt lat="49.33807" lon="1.16716">
        <ele>122</ele>
        <time>2011-05-01T07:06:13Z</time>
      </trkpt>
      <trkpt lat="49.33794" lon="1.16714">
        <ele>122</ele>
        <time>2011-05-01T07:06:17Z</time>
      </trkpt>
      <trkpt lat="49.33791" lon="1.16715">
        <ele>122</ele>
        <time>2011-05-01T07:06:18Z</time>
      </trkpt>
      <trkpt lat="49.33784" lon="1.16717">
        <ele>122</ele>
        <time>2011-05-01T07:06:21Z</time>
      </trkpt>
      <trkpt lat="49.33774" lon="1.16711">
        <ele>122</ele>
        <time>2011-05-01T07:06:24Z</time>
      </trkpt>
      <trkpt lat="49.33763" lon="1.16703">
        <ele>121.8</ele>
        <time>2011-05-01T07:06:27Z</time>
      </trkpt>
      <trkpt lat="49.33758" lon="1.16699">
        <ele>121.4</ele>
        <time>2011-05-01T07:06:29Z</time>
      </trkpt>
      <trkpt lat="49.33747" lon="1.16692">
        <ele>121</ele>
        <time>2011-05-01T07:06:31Z</time>
      </trkpt>
      <trkpt lat="49.33742" lon="1.16692">
        <ele>120.6</ele>
        <time>2011-05-01T07:06:32Z</time>
      </trkpt>
      <trkpt lat="49.3373" lon="1.16697">
        <ele>120</ele>
        <time>2011-05-01T07:06:35Z</time>
      </trkpt>
      <trkpt lat="49.33721" lon="1.16705">
        <ele>119.6</ele>
        <time>2011-05-01T07:06:39Z</time>
      </trkpt>
      <trkpt lat="49.33719" lon="1.1671">
        <ele>119.2</ele>
        <time>2011-05-01T07:06:40Z</time>
      </trkpt>
      <trkpt lat="49.33711" lon="1.1672">
        <ele>118.8</ele>
        <time>2011-05-01T07:06:44Z</time>
      </trkpt>
      <trkpt lat="49.33708" lon="1.16723">
        <ele>119</ele>
        <time>2011-05-01T07:06:45Z</time>
      </trkpt>
      <trkpt lat="49.337" lon="1.16729">
        <ele>119.2</ele>
        <time>2011-05-01T07:06:47Z</time>
      </trkpt>
      <trkpt lat="49.33693" lon="1.16734">
        <ele>119.4</ele>
        <time>2011-05-01T07:06:49Z</time>
      </trkpt>
      <trkpt lat="49.33686" lon="1.16738">
        <ele>119.4</ele>
        <time>2011-05-01T07:06:51Z</time>
      </trkpt>
      <trkpt lat="49.3368" lon="1.16743">
        <ele>119.6</ele>
        <time>2011-05-01T07:06:53Z</time>
      </trkpt>
      <trkpt lat="49.33665" lon="1.16755">
        <ele>119.8</ele>
        <time>2011-05-01T07:06:58Z</time>
      </trkpt>
      <trkpt lat="49.33655" lon="1.16769">
        <ele>120</ele>
        <time>2011-05-01T07:07:02Z</time>
      </trkpt>
      <trkpt lat="49.3365" lon="1.16775">
        <ele>120</ele>
        <time>2011-05-01T07:07:04Z</time>
      </trkpt>
      <trkpt lat="49.33644" lon="1.16781">
        <ele>120.2</ele>
        <time>2011-05-01T07:07:06Z</time>
      </trkpt>
      <trkpt lat="49.33639" lon="1.16789">
        <ele>120.6</ele>
        <time>2011-05-01T07:07:08Z</time>
      </trkpt>
      <trkpt lat="49.33637" lon="1.16791">
        <ele>120.8</ele>
        <time>2011-05-01T07:07:09Z</time>
      </trkpt>
      <trkpt lat="49.33628" lon="1.16804">
        <ele>121.2</ele>
        <time>2011-05-01T07:07:12Z</time>
      </trkpt>
      <trkpt lat="49.33626" lon="1.16818">
        <ele>121.4</ele>
        <time>2011-05-01T07:07:14Z</time>
      </trkpt>
      <trkpt lat="49.33626" lon="1.16831">
        <ele>121.6</ele>
        <time>2011-05-01T07:07:16Z</time>
      </trkpt>
      <trkpt lat="49.33629" lon="1.1684">
        <ele>121.8</ele>
        <time>2011-05-01T07:07:20Z</time>
      </trkpt>
      <trkpt lat="49.33629" lon="1.16842">
        <ele>121.8</ele>
        <time>2011-05-01T07:07:21Z</time>
      </trkpt>
      <trkpt lat="49.33629" lon="1.16854">
        <ele>122</ele>
        <time>2011-05-01T07:07:25Z</time>
      </trkpt>
      <trkpt lat="49.3363" lon="1.16856">
        <ele>122</ele>
        <time>2011-05-01T07:07:26Z</time>
      </trkpt>
      <trkpt lat="49.33632" lon="1.16857">
        <ele>122</ele>
        <time>2011-05-01T07:07:27Z</time>
      </trkpt>
      <trkpt lat="49.33636" lon="1.16867">
        <ele>122.2</ele>
        <time>2011-05-01T07:07:31Z</time>
      </trkpt>
      <trkpt lat="49.33638" lon="1.16871">
        <ele>122.4</ele>
        <time>2011-05-01T07:07:32Z</time>
      </trkpt>
      <trkpt lat="49.33642" lon="1.16883">
        <ele>122.8</ele>
        <time>2011-05-01T07:07:34Z</time>
      </trkpt>
      <trkpt lat="49.33644" lon="1.16887">
        <ele>123</ele>
        <time>2011-05-01T07:07:35Z</time>
      </trkpt>
      <trkpt lat="49.33646" lon="1.16891">
        <ele>123</ele>
        <time>2011-05-01T07:07:36Z</time>
      </trkpt>
      <trkpt lat="49.33649" lon="1.16896">
        <ele>123.4</ele>
        <time>2011-05-01T07:07:38Z</time>
      </trkpt>
      <trkpt lat="49.3365" lon="1.169">
        <ele>123.4</ele>
        <time>2011-05-01T07:07:39Z</time>
      </trkpt>
      <trkpt lat="49.33653" lon="1.16904">
        <ele>123.6</ele>
        <time>2011-05-01T07:07:40Z</time>
      </trkpt>
      <trkpt lat="49.33655" lon="1.16909">
        <ele>124</ele>
        <time>2011-05-01T07:07:42Z</time>
      </trkpt>
      <trkpt lat="49.33656" lon="1.16913">
        <ele>124.4</ele>
        <time>2011-05-01T07:07:44Z</time>
      </trkpt>
      <trkpt lat="49.33657" lon="1.16916">
        <ele>124.6</ele>
        <time>2011-05-01T07:07:45Z</time>
      </trkpt>
      <trkpt lat="49.33658" lon="1.16919">
        <ele>124.8</ele>
        <time>2011-05-01T07:07:46Z</time>
      </trkpt>
      <trkpt lat="49.3366" lon="1.16926">
        <ele>125.2</ele>
        <time>2011-05-01T07:07:48Z</time>
      </trkpt>
      <trkpt lat="49.33663" lon="1.16932">
        <ele>125.4</ele>
        <time>2011-05-01T07:07:50Z</time>
      </trkpt>
      <trkpt lat="49.3367" lon="1.16946">
        <ele>126.2</ele>
        <time>2011-05-01T07:07:54Z</time>
      </trkpt>
      <trkpt lat="49.33677" lon="1.1696">
        <ele>126.6</ele>
        <time>2011-05-01T07:07:56Z</time>
      </trkpt>
      <trkpt lat="49.33682" lon="1.16969">
        <ele>127</ele>
        <time>2011-05-01T07:07:58Z</time>
      </trkpt>
      <trkpt lat="49.33685" lon="1.16971">
        <ele>127.4</ele>
        <time>2011-05-01T07:08:00Z</time>
      </trkpt>
      <trkpt lat="49.33689" lon="1.16974">
        <ele>127.6</ele>
        <time>2011-05-01T07:08:02Z</time>
      </trkpt>
      <trkpt lat="49.33692" lon="1.16977">
        <ele>127.8</ele>
        <time>2011-05-01T07:08:03Z</time>
      </trkpt>
      <trkpt lat="49.337" lon="1.16987">
        <ele>128.2</ele>
        <time>2011-05-01T07:08:06Z</time>
      </trkpt>
      <trkpt lat="49.33705" lon="1.16991">
        <ele>128.8</ele>
        <time>2011-05-01T07:08:08Z</time>
      </trkpt>
      <trkpt lat="49.33709" lon="1.16994">
        <ele>129.2</ele>
        <time>2011-05-01T07:08:10Z</time>
      </trkpt>
      <trkpt lat="49.33714" lon="1.17002">
        <ele>129.6</ele>
        <time>2011-05-01T07:08:12Z</time>
      </trkpt>
      <trkpt lat="49.33717" lon="1.17006">
        <ele>129.8</ele>
        <time>2011-05-01T07:08:13Z</time>
      </trkpt>
      <trkpt lat="49.33723" lon="1.17011">
        <ele>130</ele>
        <time>2011-05-01T07:08:16Z</time>
      </trkpt>
      <trkpt lat="49.33727" lon="1.17018">
        <ele>130.6</ele>
        <time>2011-05-01T07:08:19Z</time>
      </trkpt>
      <trkpt lat="49.33728" lon="1.17022">
        <ele>130.8</ele>
        <time>2011-05-01T07:08:20Z</time>
      </trkpt>
      <trkpt lat="49.33733" lon="1.17028">
        <ele>131.4</ele>
        <time>2011-05-01T07:08:23Z</time>
      </trkpt>
      <trkpt lat="49.33736" lon="1.17033">
        <ele>131.8</ele>
        <time>2011-05-01T07:08:25Z</time>
      </trkpt>
      <trkpt lat="49.33742" lon="1.17043">
        <ele>132</ele>
        <time>2011-05-01T07:08:27Z</time>
      </trkpt>
      <trkpt lat="49.33747" lon="1.1705">
        <ele>132.6</ele>
        <time>2011-05-01T07:08:29Z</time>
      </trkpt>
      <trkpt lat="49.3375" lon="1.17055">
        <ele>133</ele>
        <time>2011-05-01T07:08:31Z</time>
      </trkpt>
      <trkpt lat="49.33753" lon="1.17058">
        <ele>133.4</ele>
        <time>2011-05-01T07:08:32Z</time>
      </trkpt>
      <trkpt lat="49.3376" lon="1.17064">
        <ele>133.8</ele>
        <time>2011-05-01T07:08:35Z</time>
      </trkpt>
      <trkpt lat="49.33764" lon="1.17068">
        <ele>134.2</ele>
        <time>2011-05-01T07:08:37Z</time>
      </trkpt>
      <trkpt lat="49.3377" lon="1.17079">
        <ele>134.4</ele>
        <time>2011-05-01T07:08:40Z</time>
      </trkpt>
      <trkpt lat="49.33775" lon="1.17085">
        <ele>134.8</ele>
        <time>2011-05-01T07:08:42Z</time>
      </trkpt>
      <trkpt lat="49.33782" lon="1.17092">
        <ele>135.4</ele>
        <time>2011-05-01T07:08:44Z</time>
      </trkpt>
      <trkpt lat="49.33787" lon="1.17097">
        <ele>135.8</ele>
        <time>2011-05-01T07:08:46Z</time>
      </trkpt>
      <trkpt lat="49.33791" lon="1.17102">
        <ele>136</ele>
        <time>2011-05-01T07:08:48Z</time>
      </trkpt>
      <trkpt lat="49.33799" lon="1.17109">
        <ele>136.4</ele>
        <time>2011-05-01T07:08:50Z</time>
      </trkpt>
      <trkpt lat="49.33812" lon="1.17123">
        <ele>136.8</ele>
        <time>2011-05-01T07:08:55Z</time>
      </trkpt>
      <trkpt lat="49.33823" lon="1.17133">
        <ele>137.2</ele>
        <time>2011-05-01T07:08:59Z</time>
      </trkpt>
      <trkpt lat="49.33829" lon="1.17141">
        <ele>137.8</ele>
        <time>2011-05-01T07:09:01Z</time>
      </trkpt>
      <trkpt lat="49.33833" lon="1.17149">
        <ele>138</ele>
        <time>2011-05-01T07:09:03Z</time>
      </trkpt>
      <trkpt lat="49.33835" lon="1.17156">
        <ele>138.4</ele>
        <time>2011-05-01T07:09:05Z</time>
      </trkpt>
      <trkpt lat="49.33839" lon="1.17164">
        <ele>138.6</ele>
        <time>2011-05-01T07:09:07Z</time>
      </trkpt>
      <trkpt lat="49.33846" lon="1.17175">
        <ele>138.8</ele>
        <time>2011-05-01T07:09:10Z</time>
      </trkpt>
      <trkpt lat="49.33862" lon="1.17196">
        <ele>139.2</ele>
        <time>2011-05-01T07:09:15Z</time>
      </trkpt>
      <trkpt lat="49.33865" lon="1.17198">
        <ele>139.4</ele>
        <time>2011-05-01T07:09:16Z</time>
      </trkpt>
      <trkpt lat="49.33869" lon="1.17198">
        <ele>139.6</ele>
        <time>2011-05-01T07:09:17Z</time>
      </trkpt>
      <trkpt lat="49.33872" lon="1.17198">
        <ele>139.8</ele>
        <time>2011-05-01T07:09:18Z</time>
      </trkpt>
      <trkpt lat="49.33879" lon="1.17195">
        <ele>140.2</ele>
        <time>2011-05-01T07:09:20Z</time>
      </trkpt>
      <trkpt lat="49.3388" lon="1.17193">
        <ele>140.4</ele>
        <time>2011-05-01T07:09:21Z</time>
      </trkpt>
      <trkpt lat="49.33882" lon="1.17189">
        <ele>140.6</ele>
        <time>2011-05-01T07:09:22Z</time>
      </trkpt>
      <trkpt lat="49.33883" lon="1.17185">
        <ele>140.6</ele>
        <time>2011-05-01T07:09:23Z</time>
      </trkpt>
      <trkpt lat="49.33889" lon="1.17173">
        <ele>141</ele>
        <time>2011-05-01T07:09:27Z</time>
      </trkpt>
      <trkpt lat="49.33896" lon="1.17164">
        <ele>141.4</ele>
        <time>2011-05-01T07:09:32Z</time>
      </trkpt>
      <trkpt lat="49.33899" lon="1.17165">
        <ele>141.6</ele>
        <time>2011-05-01T07:09:33Z</time>
      </trkpt>
      <trkpt lat="49.33905" lon="1.17168">
        <ele>142</ele>
        <time>2011-05-01T07:09:35Z</time>
      </trkpt>
      <trkpt lat="49.33909" lon="1.17164">
        <ele>142.4</ele>
        <time>2011-05-01T07:09:37Z</time>
      </trkpt>
      <trkpt lat="49.33915" lon="1.17158">
        <ele>142.6</ele>
        <time>2011-05-01T07:09:39Z</time>
      </trkpt>
      <trkpt lat="49.33918" lon="1.17156">
        <ele>142.8</ele>
        <time>2011-05-01T07:09:40Z</time>
      </trkpt>
      <trkpt lat="49.33934" lon="1.17154">
        <ele>143.2</ele>
        <time>2011-05-01T07:09:45Z</time>
      </trkpt>
      <trkpt lat="49.33937" lon="1.17153">
        <ele>143.2</ele>
        <time>2011-05-01T07:09:46Z</time>
      </trkpt>
      <trkpt lat="49.33944" lon="1.17151">
        <ele>144</ele>
        <time>2011-05-01T07:09:49Z</time>
      </trkpt>
      <trkpt lat="49.33951" lon="1.17153">
        <ele>144.2</ele>
        <time>2011-05-01T07:09:51Z</time>
      </trkpt>
      <trkpt lat="49.33959" lon="1.17152">
        <ele>144.6</ele>
        <time>2011-05-01T07:09:53Z</time>
      </trkpt>
      <trkpt lat="49.33965" lon="1.17153">
        <ele>144.8</ele>
        <time>2011-05-01T07:09:55Z</time>
      </trkpt>
      <trkpt lat="49.33969" lon="1.17155">
        <ele>145</ele>
        <time>2011-05-01T07:09:57Z</time>
      </trkpt>
      <trkpt lat="49.33979" lon="1.17158">
        <ele>145.2</ele>
        <time>2011-05-01T07:10:01Z</time>
      </trkpt>
      <trkpt lat="49.33984" lon="1.17159">
        <ele>145.8</ele>
        <time>2011-05-01T07:10:06Z</time>
      </trkpt>
      <trkpt lat="49.33986" lon="1.17161">
        <ele>146.2</ele>
        <time>2011-05-01T07:10:08Z</time>
      </trkpt>
      <trkpt lat="49.3399" lon="1.17162">
        <ele>146.2</ele>
        <time>2011-05-01T07:10:09Z</time>
      </trkpt>
      <trkpt lat="49.33994" lon="1.17163">
        <ele>146.4</ele>
        <time>2011-05-01T07:10:10Z</time>
      </trkpt>
      <trkpt lat="49.34002" lon="1.17164">
        <ele>146.8</ele>
        <time>2011-05-01T07:10:12Z</time>
      </trkpt>
      <trkpt lat="49.34009" lon="1.17165">
        <ele>147</ele>
        <time>2011-05-01T07:10:14Z</time>
      </trkpt>
      <trkpt lat="49.34014" lon="1.17165">
        <ele>147.2</ele>
        <time>2011-05-01T07:10:16Z</time>
      </trkpt>
      <trkpt lat="49.34028" lon="1.17166">
        <ele>147.4</ele>
        <time>2011-05-01T07:10:21Z</time>
      </trkpt>
      <trkpt lat="49.34034" lon="1.17163">
        <ele>147.4</ele>
        <time>2011-05-01T07:10:23Z</time>
      </trkpt>
      <trkpt lat="49.34053" lon="1.17153">
        <ele>147.6</ele>
        <time>2011-05-01T07:10:28Z</time>
      </trkpt>
      <trkpt lat="49.34057" lon="1.17152">
        <ele>147.6</ele>
        <time>2011-05-01T07:10:29Z</time>
      </trkpt>
      <trkpt lat="49.34076" lon="1.17153">
        <ele>147.8</ele>
        <time>2011-05-01T07:10:34Z</time>
      </trkpt>
      <trkpt lat="49.34079" lon="1.17154">
        <ele>148</ele>
        <time>2011-05-01T07:10:35Z</time>
      </trkpt>
      <trkpt lat="49.34085" lon="1.17155">
        <ele>148.4</ele>
        <time>2011-05-01T07:10:37Z</time>
      </trkpt>
      <trkpt lat="49.34093" lon="1.17158">
        <ele>148.6</ele>
        <time>2011-05-01T07:10:39Z</time>
      </trkpt>
      <trkpt lat="49.34099" lon="1.17161">
        <ele>148.8</ele>
        <time>2011-05-01T07:10:40Z</time>
      </trkpt>
      <trkpt lat="49.34103" lon="1.17162">
        <ele>149</ele>
        <time>2011-05-01T07:10:41Z</time>
      </trkpt>
      <trkpt lat="49.34111" lon="1.17164">
        <ele>149.2</ele>
        <time>2011-05-01T07:10:43Z</time>
      </trkpt>
      <trkpt lat="49.34126" lon="1.1717">
        <ele>149.6</ele>
        <time>2011-05-01T07:10:48Z</time>
      </trkpt>
      <trkpt lat="49.34145" lon="1.17182">
        <ele>149.8</ele>
        <time>2011-05-01T07:10:53Z</time>
      </trkpt>
      <trkpt lat="49.3416" lon="1.17201">
        <ele>149.8</ele>
        <time>2011-05-01T07:10:58Z</time>
      </trkpt>
      <trkpt lat="49.34165" lon="1.17221">
        <ele>150</ele>
        <time>2011-05-01T07:11:03Z</time>
      </trkpt>
      <trkpt lat="49.34165" lon="1.17225">
        <ele>150</ele>
        <time>2011-05-01T07:11:05Z</time>
      </trkpt>
      <trkpt lat="49.34168" lon="1.17235">
        <ele>150</ele>
        <time>2011-05-01T07:11:08Z</time>
      </trkpt>
      <trkpt lat="49.34177" lon="1.17244">
        <ele>150.6</ele>
        <time>2011-05-01T07:11:11Z</time>
      </trkpt>
      <trkpt lat="49.3418" lon="1.17246">
        <ele>150.8</ele>
        <time>2011-05-01T07:11:12Z</time>
      </trkpt>
      <trkpt lat="49.34184" lon="1.17247">
        <ele>151</ele>
        <time>2011-05-01T07:11:13Z</time>
      </trkpt>
      <trkpt lat="49.3419" lon="1.17246">
        <ele>151.2</ele>
        <time>2011-05-01T07:11:15Z</time>
      </trkpt>
      <trkpt lat="49.34194" lon="1.17244">
        <ele>151.4</ele>
        <time>2011-05-01T07:11:17Z</time>
      </trkpt>
      <trkpt lat="49.34196" lon="1.17243">
        <ele>151.4</ele>
        <time>2011-05-01T07:11:18Z</time>
      </trkpt>
      <trkpt lat="49.34197" lon="1.17243">
        <ele>151.6</ele>
        <time>2011-05-01T07:11:19Z</time>
      </trkpt>
      <trkpt lat="49.34213" lon="1.17252">
        <ele>152</ele>
        <time>2011-05-01T07:11:25Z</time>
      </trkpt>
      <trkpt lat="49.34229" lon="1.17261">
        <ele>152</ele>
        <time>2011-05-01T07:11:29Z</time>
      </trkpt>
      <trkpt lat="49.34237" lon="1.17266">
        <ele>152</ele>
        <time>2011-05-01T07:11:31Z</time>
      </trkpt>
      <trkpt lat="49.34246" lon="1.1728">
        <ele>152.2</ele>
        <time>2011-05-01T07:11:35Z</time>
      </trkpt>
      <trkpt lat="49.34255" lon="1.17297">
        <ele>152.2</ele>
        <time>2011-05-01T07:11:40Z</time>
      </trkpt>
      <trkpt lat="49.34257" lon="1.17299">
        <ele>152.2</ele>
        <time>2011-05-01T07:11:41Z</time>
      </trkpt>
      <trkpt lat="49.34262" lon="1.173">
        <ele>152.2</ele>
        <time>2011-05-01T07:11:44Z</time>
      </trkpt>
      <trkpt lat="49.34264" lon="1.173">
        <ele>152.2</ele>
        <time>2011-05-01T07:11:45Z</time>
      </trkpt>
      <trkpt lat="49.34273" lon="1.17298">
        <ele>152.2</ele>
        <time>2011-05-01T07:11:49Z</time>
      </trkpt>
      <trkpt lat="49.34284" lon="1.17302">
        <ele>152.2</ele>
        <time>2011-05-01T07:11:54Z</time>
      </trkpt>
      <trkpt lat="49.34295" lon="1.17304">
        <ele>152.2</ele>
        <time>2011-05-01T07:11:58Z</time>
      </trkpt>
      <trkpt lat="49.34298" lon="1.17303">
        <ele>152.2</ele>
        <time>2011-05-01T07:11:59Z</time>
      </trkpt>
      <trkpt lat="49.3431" lon="1.17298">
        <ele>152.2</ele>
        <time>2011-05-01T07:12:04Z</time>
      </trkpt>
      <trkpt lat="49.34313" lon="1.17313">
        <ele>152.2</ele>
        <time>2011-05-01T07:12:09Z</time>
      </trkpt>
      <trkpt lat="49.34315" lon="1.17326">
        <ele>152.2</ele>
        <time>2011-05-01T07:12:14Z</time>
      </trkpt>
      <trkpt lat="49.34316" lon="1.17327">
        <ele>152.2</ele>
        <time>2011-05-01T07:12:15Z</time>
      </trkpt>
      <trkpt lat="49.34319" lon="1.17328">
        <ele>152.6</ele>
        <time>2011-05-01T07:12:17Z</time>
      </trkpt>
      <trkpt lat="49.34324" lon="1.17328">
        <ele>152.8</ele>
        <time>2011-05-01T07:12:19Z</time>
      </trkpt>
      <trkpt lat="49.34332" lon="1.17328">
        <ele>153.2</ele>
        <time>2011-05-01T07:12:21Z</time>
      </trkpt>
      <trkpt lat="49.3434" lon="1.17328">
        <ele>153.4</ele>
        <time>2011-05-01T07:12:23Z</time>
      </trkpt>
      <trkpt lat="49.34349" lon="1.17328">
        <ele>153.6</ele>
        <time>2011-05-01T07:12:25Z</time>
      </trkpt>
      <trkpt lat="49.34372" lon="1.17324">
        <ele>154</ele>
        <time>2011-05-01T07:12:31Z</time>
      </trkpt>
      <trkpt lat="49.34386" lon="1.17324">
        <ele>154.2</ele>
        <time>2011-05-01T07:12:35Z</time>
      </trkpt>
      <trkpt lat="49.34401" lon="1.17321">
        <ele>154.2</ele>
        <time>2011-05-01T07:12:39Z</time>
      </trkpt>
      <trkpt lat="49.34409" lon="1.17317">
        <ele>154.4</ele>
        <time>2011-05-01T07:12:41Z</time>
      </trkpt>
      <trkpt lat="49.34449" lon="1.17317">
        <ele>154.4</ele>
        <time>2011-05-01T07:12:47Z</time>
      </trkpt>
      <trkpt lat="49.34454" lon="1.17317">
        <ele>154.4</ele>
        <time>2011-05-01T07:12:48Z</time>
      </trkpt>
      <trkpt lat="49.34491" lon="1.17307">
        <ele>154.4</ele>
        <time>2011-05-01T07:12:54Z</time>
      </trkpt>
      <trkpt lat="49.34498" lon="1.17306">
        <ele>154.4</ele>
        <time>2011-05-01T07:12:56Z</time>
      </trkpt>
      <trkpt lat="49.34512" lon="1.17304">
        <ele>154.4</ele>
        <time>2011-05-01T07:12:59Z</time>
      </trkpt>
      <trkpt lat="49.34535" lon="1.17296">
        <ele>154.4</ele>
        <time>2011-05-01T07:13:04Z</time>
      </trkpt>
      <trkpt lat="49.34572" lon="1.17284">
        <ele>154.4</ele>
        <time>2011-05-01T07:13:12Z</time>
      </trkpt>
      <trkpt lat="49.34576" lon="1.17281">
        <ele>154.4</ele>
        <time>2011-05-01T07:13:13Z</time>
      </trkpt>
      <trkpt lat="49.34585" lon="1.17279">
        <ele>154.4</ele>
        <time>2011-05-01T07:13:15Z</time>
      </trkpt>
      <trkpt lat="49.3462" lon="1.17264">
        <ele>154.4</ele>
        <time>2011-05-01T07:13:22Z</time>
      </trkpt>
      <trkpt lat="49.34637" lon="1.17255">
        <ele>154.2</ele>
        <time>2011-05-01T07:13:25Z</time>
      </trkpt>
      <trkpt lat="49.34642" lon="1.17253">
        <ele>154</ele>
        <time>2011-05-01T07:13:26Z</time>
      </trkpt>
      <trkpt lat="49.34648" lon="1.17253">
        <ele>154</ele>
        <time>2011-05-01T07:13:27Z</time>
      </trkpt>
      <trkpt lat="49.34659" lon="1.17258">
        <ele>153.6</ele>
        <time>2011-05-01T07:13:29Z</time>
      </trkpt>
      <trkpt lat="49.34662" lon="1.17265">
        <ele>153.6</ele>
        <time>2011-05-01T07:13:30Z</time>
      </trkpt>
      <trkpt lat="49.34669" lon="1.17293">
        <ele>153</ele>
        <time>2011-05-01T07:13:33Z</time>
      </trkpt>
      <trkpt lat="49.34671" lon="1.17302">
        <ele>152.8</ele>
        <time>2011-05-01T07:13:34Z</time>
      </trkpt>
      <trkpt lat="49.34674" lon="1.1731">
        <ele>152.4</ele>
        <time>2011-05-01T07:13:35Z</time>
      </trkpt>
      <trkpt lat="49.34681" lon="1.17327">
        <ele>152</ele>
        <time>2011-05-01T07:13:37Z</time>
      </trkpt>
      <trkpt lat="49.34687" lon="1.17344">
        <ele>151.6</ele>
        <time>2011-05-01T07:13:39Z</time>
      </trkpt>
      <trkpt lat="49.34692" lon="1.17361">
        <ele>151.4</ele>
        <time>2011-05-01T07:13:41Z</time>
      </trkpt>
      <trkpt lat="49.34695" lon="1.17368">
        <ele>151.2</ele>
        <time>2011-05-01T07:13:42Z</time>
      </trkpt>
      <trkpt lat="49.34709" lon="1.17389">
        <ele>151</ele>
        <time>2011-05-01T07:13:45Z</time>
      </trkpt>
      <trkpt lat="49.3475" lon="1.17433">
        <ele>150.6</ele>
        <time>2011-05-01T07:13:54Z</time>
      </trkpt>
      <trkpt lat="49.34779" lon="1.17466">
        <ele>150.4</ele>
        <time>2011-05-01T07:14:01Z</time>
      </trkpt>
      <trkpt lat="49.34804" lon="1.17495">
        <ele>150.4</ele>
        <time>2011-05-01T07:14:07Z</time>
      </trkpt>
      <trkpt lat="49.34836" lon="1.17527">
        <ele>150.2</ele>
        <time>2011-05-01T07:14:15Z</time>
      </trkpt>
      <trkpt lat="49.34841" lon="1.1753">
        <ele>150.2</ele>
        <time>2011-05-01T07:14:16Z</time>
      </trkpt>
      <trkpt lat="49.34861" lon="1.17533">
        <ele>150.2</ele>
        <time>2011-05-01T07:14:20Z</time>
      </trkpt>
      <trkpt lat="49.3488" lon="1.17523">
        <ele>150.2</ele>
        <time>2011-05-01T07:14:24Z</time>
      </trkpt>
      <trkpt lat="49.34892" lon="1.1751">
        <ele>150.2</ele>
        <time>2011-05-01T07:14:28Z</time>
      </trkpt>
      <trkpt lat="49.3489" lon="1.17499">
        <ele>150.2</ele>
        <time>2011-05-01T07:14:33Z</time>
      </trkpt>
      <trkpt lat="49.34881" lon="1.17512">
        <ele>150.2</ele>
        <time>2011-05-01T07:14:36Z</time>
      </trkpt>
      <trkpt lat="49.34875" lon="1.17523">
        <ele>150.2</ele>
        <time>2011-05-01T07:14:38Z</time>
      </trkpt>
      <trkpt lat="49.34866" lon="1.17529">
        <ele>150.2</ele>
        <time>2011-05-01T07:14:40Z</time>
      </trkpt>
      <trkpt lat="49.34839" lon="1.17528">
        <ele>150.2</ele>
        <time>2011-05-01T07:14:45Z</time>
      </trkpt>
      <trkpt lat="49.3483" lon="1.17521">
        <ele>150.2</ele>
        <time>2011-05-01T07:14:47Z</time>
      </trkpt>
      <trkpt lat="49.34812" lon="1.17504">
        <ele>150.2</ele>
        <time>2011-05-01T07:14:51Z</time>
      </trkpt>
      <trkpt lat="49.3478" lon="1.17467">
        <ele>150.2</ele>
        <time>2011-05-01T07:14:58Z</time>
      </trkpt>
      <trkpt lat="49.34771" lon="1.17458">
        <ele>150.2</ele>
        <time>2011-05-01T07:15:02Z</time>
      </trkpt>
      <trkpt lat="49.34771" lon="1.1746">
        <ele>150.2</ele>
        <time>2011-05-01T07:15:03Z</time>
      </trkpt>
      <trkpt lat="49.34771" lon="1.17468">
        <ele>150.2</ele>
        <time>2011-05-01T07:15:05Z</time>
      </trkpt>
      <trkpt lat="49.34773" lon="1.17493">
        <ele>150.2</ele>
        <time>2011-05-01T07:15:12Z</time>
      </trkpt>
      <trkpt lat="49.34779" lon="1.17511">
        <ele>150.2</ele>
        <time>2011-05-01T07:15:15Z</time>
      </trkpt>
      <trkpt lat="49.34789" lon="1.17535">
        <ele>150.2</ele>
        <time>2011-05-01T07:15:21Z</time>
      </trkpt>
      <trkpt lat="49.34798" lon="1.1756">
        <ele>150.2</ele>
        <time>2011-05-01T07:15:27Z</time>
      </trkpt>
      <trkpt lat="49.34801" lon="1.17581">
        <ele>150.2</ele>
        <time>2011-05-01T07:15:33Z</time>
      </trkpt>
      <trkpt lat="49.34803" lon="1.17586">
        <ele>150.2</ele>
        <time>2011-05-01T07:15:35Z</time>
      </trkpt>
      <trkpt lat="49.34802" lon="1.1759">
        <ele>150.4</ele>
        <time>2011-05-01T07:15:37Z</time>
      </trkpt>
      <trkpt lat="49.34798" lon="1.17591">
        <ele>150.8</ele>
        <time>2011-05-01T07:15:39Z</time>
      </trkpt>
      <trkpt lat="49.34791" lon="1.17593">
        <ele>151</ele>
        <time>2011-05-01T07:15:41Z</time>
      </trkpt>
      <trkpt lat="49.34784" lon="1.17595">
        <ele>151.4</ele>
        <time>2011-05-01T07:15:43Z</time>
      </trkpt>
      <trkpt lat="49.34781" lon="1.17597">
        <ele>151.4</ele>
        <time>2011-05-01T07:15:44Z</time>
      </trkpt>
      <trkpt lat="49.34777" lon="1.17599">
        <ele>151.4</ele>
        <time>2011-05-01T07:15:45Z</time>
      </trkpt>
      <trkpt lat="49.3477" lon="1.17606">
        <ele>151.8</ele>
        <time>2011-05-01T07:15:48Z</time>
      </trkpt>
      <trkpt lat="49.34773" lon="1.1763">
        <ele>152</ele>
        <time>2011-05-01T07:15:53Z</time>
      </trkpt>
      <trkpt lat="49.34784" lon="1.17666">
        <ele>152.2</ele>
        <time>2011-05-01T07:16:00Z</time>
      </trkpt>
      <trkpt lat="49.34794" lon="1.17709">
        <ele>152.4</ele>
        <time>2011-05-01T07:16:08Z</time>
      </trkpt>
      <trkpt lat="49.34796" lon="1.17719">
        <ele>152.8</ele>
        <time>2011-05-01T07:16:10Z</time>
      </trkpt>
      <trkpt lat="49.34798" lon="1.17729">
        <ele>153.2</ele>
        <time>2011-05-01T07:16:12Z</time>
      </trkpt>
      <trkpt lat="49.348" lon="1.17739">
        <ele>153.4</ele>
        <time>2011-05-01T07:16:14Z</time>
      </trkpt>
      <trkpt lat="49.34801" lon="1.17749">
        <ele>153.6</ele>
        <time>2011-05-01T07:16:16Z</time>
      </trkpt>
      <trkpt lat="49.34806" lon="1.17776">
        <ele>153.8</ele>
        <time>2011-05-01T07:16:21Z</time>
      </trkpt>
      <trkpt lat="49.34807" lon="1.17782">
        <ele>154</ele>
        <time>2011-05-01T07:16:22Z</time>
      </trkpt>
      <trkpt lat="49.34802" lon="1.17799">
        <ele>154</ele>
        <time>2011-05-01T07:16:26Z</time>
      </trkpt>
      <trkpt lat="49.34798" lon="1.178">
        <ele>154.2</ele>
        <time>2011-05-01T07:16:27Z</time>
      </trkpt>
      <trkpt lat="49.34793" lon="1.17801">
        <ele>154.4</ele>
        <time>2011-05-01T07:16:28Z</time>
      </trkpt>
      <trkpt lat="49.34784" lon="1.17803">
        <ele>154.8</ele>
        <time>2011-05-01T07:16:30Z</time>
      </trkpt>
      <trkpt lat="49.34776" lon="1.17806">
        <ele>155</ele>
        <time>2011-05-01T07:16:32Z</time>
      </trkpt>
      <trkpt lat="49.3477" lon="1.1781">
        <ele>155.4</ele>
        <time>2011-05-01T07:16:34Z</time>
      </trkpt>
      <trkpt lat="49.34762" lon="1.17813">
        <ele>155.6</ele>
        <time>2011-05-01T07:16:36Z</time>
      </trkpt>
      <trkpt lat="49.3472" lon="1.17828">
        <ele>156.2</ele>
        <time>2011-05-01T07:16:46Z</time>
      </trkpt>
      <trkpt lat="49.34716" lon="1.17828">
        <ele>156.2</ele>
        <time>2011-05-01T07:16:47Z</time>
      </trkpt>
      <trkpt lat="49.34711" lon="1.17829">
        <ele>156.2</ele>
        <time>2011-05-01T07:16:48Z</time>
      </trkpt>
      <trkpt lat="49.34667" lon="1.1784">
        <ele>156.4</ele>
        <time>2011-05-01T07:16:58Z</time>
      </trkpt>
      <trkpt lat="49.34635" lon="1.17847">
        <ele>156.4</ele>
        <time>2011-05-01T07:17:05Z</time>
      </trkpt>
      <trkpt lat="49.34612" lon="1.17852">
        <ele>156.6</ele>
        <time>2011-05-01T07:17:10Z</time>
      </trkpt>
      <trkpt lat="49.34603" lon="1.17853">
        <ele>157</ele>
        <time>2011-05-01T07:17:12Z</time>
      </trkpt>
      <trkpt lat="49.34594" lon="1.17853">
        <ele>157.2</ele>
        <time>2011-05-01T07:17:14Z</time>
      </trkpt>
      <trkpt lat="49.34585" lon="1.17854">
        <ele>157.4</ele>
        <time>2011-05-01T07:17:16Z</time>
      </trkpt>
      <trkpt lat="49.34576" lon="1.17854">
        <ele>157.6</ele>
        <time>2011-05-01T07:17:18Z</time>
      </trkpt>
      <trkpt lat="49.34557" lon="1.17855">
        <ele>158</ele>
        <time>2011-05-01T07:17:22Z</time>
      </trkpt>
      <trkpt lat="49.3451" lon="1.17858">
        <ele>158.4</ele>
        <time>2011-05-01T07:17:32Z</time>
      </trkpt>
      <trkpt lat="49.34495" lon="1.17859">
        <ele>158.4</ele>
        <time>2011-05-01T07:17:35Z</time>
      </trkpt>
      <trkpt lat="49.34451" lon="1.17858">
        <ele>158.4</ele>
        <time>2011-05-01T07:17:44Z</time>
      </trkpt>
      <trkpt lat="49.34407" lon="1.17858">
        <ele>158.4</ele>
        <time>2011-05-01T07:17:53Z</time>
      </trkpt>
      <trkpt lat="49.3437" lon="1.17858">
        <ele>158.2</ele>
        <time>2011-05-01T07:18:00Z</time>
      </trkpt>
      <trkpt lat="49.3436" lon="1.17858">
        <ele>158</ele>
        <time>2011-05-01T07:18:02Z</time>
      </trkpt>
      <trkpt lat="49.3435" lon="1.17858">
        <ele>157.6</ele>
        <time>2011-05-01T07:18:04Z</time>
      </trkpt>
      <trkpt lat="49.34339" lon="1.17857">
        <ele>157.4</ele>
        <time>2011-05-01T07:18:06Z</time>
      </trkpt>
      <trkpt lat="49.34328" lon="1.17856">
        <ele>157.2</ele>
        <time>2011-05-01T07:18:08Z</time>
      </trkpt>
      <trkpt lat="49.34277" lon="1.17853">
        <ele>156.6</ele>
        <time>2011-05-01T07:18:17Z</time>
      </trkpt>
      <trkpt lat="49.34228" lon="1.17857">
        <ele>156.4</ele>
        <time>2011-05-01T07:18:26Z</time>
      </trkpt>
      <trkpt lat="49.34192" lon="1.17862">
        <ele>156.2</ele>
        <time>2011-05-01T07:18:33Z</time>
      </trkpt>
      <trkpt lat="49.34182" lon="1.17863">
        <ele>155.8</ele>
        <time>2011-05-01T07:18:35Z</time>
      </trkpt>
      <trkpt lat="49.34177" lon="1.17864">
        <ele>155.6</ele>
        <time>2011-05-01T07:18:36Z</time>
      </trkpt>
      <trkpt lat="49.34172" lon="1.17864">
        <ele>155.6</ele>
        <time>2011-05-01T07:18:37Z</time>
      </trkpt>
      <trkpt lat="49.34162" lon="1.17866">
        <ele>155.2</ele>
        <time>2011-05-01T07:18:39Z</time>
      </trkpt>
      <trkpt lat="49.34151" lon="1.17867">
        <ele>155</ele>
        <time>2011-05-01T07:18:41Z</time>
      </trkpt>
      <trkpt lat="49.34094" lon="1.17877">
        <ele>154.6</ele>
        <time>2011-05-01T07:18:52Z</time>
      </trkpt>
      <trkpt lat="49.34047" lon="1.17893">
        <ele>154.4</ele>
        <time>2011-05-01T07:19:01Z</time>
      </trkpt>
      <trkpt lat="49.34013" lon="1.17908">
        <ele>154.2</ele>
        <time>2011-05-01T07:19:08Z</time>
      </trkpt>
      <trkpt lat="49.34008" lon="1.17911">
        <ele>154</ele>
        <time>2011-05-01T07:19:09Z</time>
      </trkpt>
      <trkpt lat="49.34003" lon="1.17914">
        <ele>153.8</ele>
        <time>2011-05-01T07:19:10Z</time>
      </trkpt>
      <trkpt lat="49.33993" lon="1.17919">
        <ele>153.4</ele>
        <time>2011-05-01T07:19:12Z</time>
      </trkpt>
      <trkpt lat="49.33983" lon="1.17923">
        <ele>153.2</ele>
        <time>2011-05-01T07:19:14Z</time>
      </trkpt>
      <trkpt lat="49.33973" lon="1.17927">
        <ele>153</ele>
        <time>2011-05-01T07:19:16Z</time>
      </trkpt>
      <trkpt lat="49.33918" lon="1.17953">
        <ele>152.4</ele>
        <time>2011-05-01T07:19:27Z</time>
      </trkpt>
      <trkpt lat="49.33882" lon="1.17968">
        <ele>152.2</ele>
        <time>2011-05-01T07:19:34Z</time>
      </trkpt>
      <trkpt lat="49.33872" lon="1.17972">
        <ele>151.8</ele>
        <time>2011-05-01T07:19:36Z</time>
      </trkpt>
      <trkpt lat="49.33862" lon="1.17977">
        <ele>151.4</ele>
        <time>2011-05-01T07:19:38Z</time>
      </trkpt>
      <trkpt lat="49.33851" lon="1.17981">
        <ele>151.2</ele>
        <time>2011-05-01T07:19:40Z</time>
      </trkpt>
      <trkpt lat="49.33841" lon="1.17986">
        <ele>151</ele>
        <time>2011-05-01T07:19:42Z</time>
      </trkpt>
      <trkpt lat="49.33806" lon="1.18001">
        <ele>150.6</ele>
        <time>2011-05-01T07:19:49Z</time>
      </trkpt>
      <trkpt lat="49.33757" lon="1.18022">
        <ele>150.2</ele>
        <time>2011-05-01T07:19:58Z</time>
      </trkpt>
      <trkpt lat="49.33746" lon="1.18026">
        <ele>149.8</ele>
        <time>2011-05-01T07:20:00Z</time>
      </trkpt>
      <trkpt lat="49.33735" lon="1.1803">
        <ele>149.4</ele>
        <time>2011-05-01T07:20:02Z</time>
      </trkpt>
      <trkpt lat="49.33724" lon="1.18035">
        <ele>149.2</ele>
        <time>2011-05-01T07:20:04Z</time>
      </trkpt>
      <trkpt lat="49.33713" lon="1.18039">
        <ele>149</ele>
        <time>2011-05-01T07:20:06Z</time>
      </trkpt>
      <trkpt lat="49.33661" lon="1.18061">
        <ele>148.2</ele>
        <time>2011-05-01T07:20:16Z</time>
      </trkpt>
      <trkpt lat="49.33656" lon="1.18063">
        <ele>148</ele>
        <time>2011-05-01T07:20:17Z</time>
      </trkpt>
      <trkpt lat="49.33653" lon="1.18065">
        <ele>147.8</ele>
        <time>2011-05-01T07:20:18Z</time>
      </trkpt>
      <trkpt lat="49.33646" lon="1.18069">
        <ele>147.4</ele>
        <time>2011-05-01T07:20:20Z</time>
      </trkpt>
      <trkpt lat="49.3364" lon="1.18068">
        <ele>147.2</ele>
        <time>2011-05-01T07:20:22Z</time>
      </trkpt>
      <trkpt lat="49.33632" lon="1.18063">
        <ele>147</ele>
        <time>2011-05-01T07:20:24Z</time>
      </trkpt>
      <trkpt lat="49.33597" lon="1.18033">
        <ele>146.4</ele>
        <time>2011-05-01T07:20:32Z</time>
      </trkpt>
      <trkpt lat="49.33563" lon="1.18008">
        <ele>146.2</ele>
        <time>2011-05-01T07:20:39Z</time>
      </trkpt>
      <trkpt lat="49.33554" lon="1.18">
        <ele>146.2</ele>
        <time>2011-05-01T07:20:41Z</time>
      </trkpt>
      <trkpt lat="49.3354" lon="1.1799">
        <ele>146.2</ele>
        <time>2011-05-01T07:20:44Z</time>
      </trkpt>
      <trkpt lat="49.3351" lon="1.17967">
        <ele>146.2</ele>
        <time>2011-05-01T07:20:51Z</time>
      </trkpt>
      <trkpt lat="49.33501" lon="1.17959">
        <ele>146.2</ele>
        <time>2011-05-01T07:20:53Z</time>
      </trkpt>
      <trkpt lat="49.33488" lon="1.17948">
        <ele>145.6</ele>
        <time>2011-05-01T07:20:56Z</time>
      </trkpt>
      <trkpt lat="49.33481" lon="1.1794">
        <ele>145.2</ele>
        <time>2011-05-01T07:20:58Z</time>
      </trkpt>
      <trkpt lat="49.33473" lon="1.17931">
        <ele>145</ele>
        <time>2011-05-01T07:21:00Z</time>
      </trkpt>
      <trkpt lat="49.33465" lon="1.17921">
        <ele>144.8</ele>
        <time>2011-05-01T07:21:02Z</time>
      </trkpt>
      <trkpt lat="49.33433" lon="1.17886">
        <ele>144.4</ele>
        <time>2011-05-01T07:21:09Z</time>
      </trkpt>
      <trkpt lat="49.33394" lon="1.17841">
        <ele>144</ele>
        <time>2011-05-01T07:21:18Z</time>
      </trkpt>
      <trkpt lat="49.33386" lon="1.17831">
        <ele>143.6</ele>
        <time>2011-05-01T07:21:20Z</time>
      </trkpt>
      <trkpt lat="49.33377" lon="1.17821">
        <ele>143.4</ele>
        <time>2011-05-01T07:21:22Z</time>
      </trkpt>
      <trkpt lat="49.33368" lon="1.1781">
        <ele>143</ele>
        <time>2011-05-01T07:21:25Z</time>
      </trkpt>
      <trkpt lat="49.3336" lon="1.17802">
        <ele>142.8</ele>
        <time>2011-05-01T07:21:26Z</time>
      </trkpt>
      <trkpt lat="49.33343" lon="1.17784">
        <ele>142.6</ele>
        <time>2011-05-01T07:21:30Z</time>
      </trkpt>
      <trkpt lat="49.33317" lon="1.17765">
        <ele>142</ele>
        <time>2011-05-01T07:21:36Z</time>
      </trkpt>
      <trkpt lat="49.33312" lon="1.17763">
        <ele>141.8</ele>
        <time>2011-05-01T07:21:37Z</time>
      </trkpt>
      <trkpt lat="49.33297" lon="1.17767">
        <ele>141.4</ele>
        <time>2011-05-01T07:21:40Z</time>
      </trkpt>
      <trkpt lat="49.3329" lon="1.17781">
        <ele>141</ele>
        <time>2011-05-01T07:21:42Z</time>
      </trkpt>
      <trkpt lat="49.33288" lon="1.17789">
        <ele>141</ele>
        <time>2011-05-01T07:21:43Z</time>
      </trkpt>
      <trkpt lat="49.33286" lon="1.17798">
        <ele>140.8</ele>
        <time>2011-05-01T07:21:44Z</time>
      </trkpt>
      <trkpt lat="49.33263" lon="1.17877">
        <ele>140.2</ele>
        <time>2011-05-01T07:21:54Z</time>
      </trkpt>
      <trkpt lat="49.3325" lon="1.17921">
        <ele>140</ele>
        <time>2011-05-01T07:22:00Z</time>
      </trkpt>
      <trkpt lat="49.33234" lon="1.1798">
        <ele>140</ele>
        <time>2011-05-01T07:22:08Z</time>
      </trkpt>
      <trkpt lat="49.33224" lon="1.18016">
        <ele>139.8</ele>
        <time>2011-05-01T07:22:13Z</time>
      </trkpt>
      <trkpt lat="49.33213" lon="1.18059">
        <ele>139.8</ele>
        <time>2011-05-01T07:22:19Z</time>
      </trkpt>
      <trkpt lat="49.332" lon="1.18098">
        <ele>139.8</ele>
        <time>2011-05-01T07:22:24Z</time>
      </trkpt>
      <trkpt lat="49.33189" lon="1.1813">
        <ele>139.8</ele>
        <time>2011-05-01T07:22:28Z</time>
      </trkpt>
      <trkpt lat="49.33178" lon="1.18165">
        <ele>139.8</ele>
        <time>2011-05-01T07:22:33Z</time>
      </trkpt>
      <trkpt lat="49.33172" lon="1.18185">
        <ele>139.8</ele>
        <time>2011-05-01T07:22:36Z</time>
      </trkpt>
      <trkpt lat="49.33164" lon="1.18221">
        <ele>139.8</ele>
        <time>2011-05-01T07:22:41Z</time>
      </trkpt>
      <trkpt lat="49.3316" lon="1.18243">
        <ele>139.8</ele>
        <time>2011-05-01T07:22:44Z</time>
      </trkpt>
      <trkpt lat="49.33154" lon="1.18259">
        <ele>139.4</ele>
        <time>2011-05-01T07:22:47Z</time>
      </trkpt>
      <trkpt lat="49.33147" lon="1.18283">
        <ele>139</ele>
        <time>2011-05-01T07:22:49Z</time>
      </trkpt>
      <trkpt lat="49.33143" lon="1.183">
        <ele>138.8</ele>
        <time>2011-05-01T07:22:51Z</time>
      </trkpt>
      <trkpt lat="49.33139" lon="1.18317">
        <ele>138.6</ele>
        <time>2011-05-01T07:22:53Z</time>
      </trkpt>
      <trkpt lat="49.33135" lon="1.18332">
        <ele>138.4</ele>
        <time>2011-05-01T07:22:55Z</time>
      </trkpt>
      <trkpt lat="49.33122" lon="1.18373">
        <ele>138</ele>
        <time>2011-05-01T07:23:00Z</time>
      </trkpt>
      <trkpt lat="49.33117" lon="1.18389">
        <ele>137.4</ele>
        <time>2011-05-01T07:23:02Z</time>
      </trkpt>
      <trkpt lat="49.3311" lon="1.18406">
        <ele>137.2</ele>
        <time>2011-05-01T07:23:04Z</time>
      </trkpt>
      <trkpt lat="49.33104" lon="1.18423">
        <ele>136.8</ele>
        <time>2011-05-01T07:23:06Z</time>
      </trkpt>
      <trkpt lat="49.33097" lon="1.18442">
        <ele>136.6</ele>
        <time>2011-05-01T07:23:08Z</time>
      </trkpt>
      <trkpt lat="49.33082" lon="1.18486">
        <ele>136</ele>
        <time>2011-05-01T07:23:13Z</time>
      </trkpt>
      <trkpt lat="49.33076" lon="1.18504">
        <ele>135.6</ele>
        <time>2011-05-01T07:23:15Z</time>
      </trkpt>
      <trkpt lat="49.33071" lon="1.18523">
        <ele>135.2</ele>
        <time>2011-05-01T07:23:17Z</time>
      </trkpt>
      <trkpt lat="49.33065" lon="1.1854">
        <ele>134.8</ele>
        <time>2011-05-01T07:23:20Z</time>
      </trkpt>
      <trkpt lat="49.3306" lon="1.18558">
        <ele>134.6</ele>
        <time>2011-05-01T07:23:21Z</time>
      </trkpt>
      <trkpt lat="49.33046" lon="1.18603">
        <ele>133.8</ele>
        <time>2011-05-01T07:23:26Z</time>
      </trkpt>
      <trkpt lat="49.33044" lon="1.18613">
        <ele>133.6</ele>
        <time>2011-05-01T07:23:27Z</time>
      </trkpt>
      <trkpt lat="49.33041" lon="1.18622">
        <ele>133.4</ele>
        <time>2011-05-01T07:23:28Z</time>
      </trkpt>
      <trkpt lat="49.33038" lon="1.18633">
        <ele>133</ele>
        <time>2011-05-01T07:23:30Z</time>
      </trkpt>
      <trkpt lat="49.33024" lon="1.18671">
        <ele>131.8</ele>
        <time>2011-05-01T07:23:33Z</time>
      </trkpt>
      <trkpt lat="49.33022" lon="1.18681">
        <ele>131.6</ele>
        <time>2011-05-01T07:23:34Z</time>
      </trkpt>
      <trkpt lat="49.33019" lon="1.1869">
        <ele>131.2</ele>
        <time>2011-05-01T07:23:35Z</time>
      </trkpt>
      <trkpt lat="49.33016" lon="1.187">
        <ele>130.8</ele>
        <time>2011-05-01T07:23:36Z</time>
      </trkpt>
      <trkpt lat="49.33009" lon="1.18722">
        <ele>129.8</ele>
        <time>2011-05-01T07:23:38Z</time>
      </trkpt>
      <trkpt lat="49.33004" lon="1.18734">
        <ele>129.6</ele>
        <time>2011-05-01T07:23:39Z</time>
      </trkpt>
      <trkpt lat="49.33001" lon="1.18745">
        <ele>129</ele>
        <time>2011-05-01T07:23:40Z</time>
      </trkpt>
      <trkpt lat="49.32994" lon="1.1877">
        <ele>128</ele>
        <time>2011-05-01T07:23:42Z</time>
      </trkpt>
      <trkpt lat="49.32991" lon="1.18782">
        <ele>127.4</ele>
        <time>2011-05-01T07:23:43Z</time>
      </trkpt>
      <trkpt lat="49.32985" lon="1.18808">
        <ele>126.4</ele>
        <time>2011-05-01T07:23:45Z</time>
      </trkpt>
      <trkpt lat="49.32982" lon="1.1882">
        <ele>125.8</ele>
        <time>2011-05-01T07:23:46Z</time>
      </trkpt>
      <trkpt lat="49.32974" lon="1.18845">
        <ele>124.6</ele>
        <time>2011-05-01T07:23:49Z</time>
      </trkpt>
      <trkpt lat="49.32967" lon="1.18869">
        <ele>123.4</ele>
        <time>2011-05-01T07:23:50Z</time>
      </trkpt>
      <trkpt lat="49.32959" lon="1.18895">
        <ele>122.2</ele>
        <time>2011-05-01T07:23:52Z</time>
      </trkpt>
      <trkpt lat="49.32955" lon="1.18908">
        <ele>121.4</ele>
        <time>2011-05-01T07:23:53Z</time>
      </trkpt>
      <trkpt lat="49.32947" lon="1.18935">
        <ele>120.2</ele>
        <time>2011-05-01T07:23:55Z</time>
      </trkpt>
      <trkpt lat="49.32943" lon="1.18948">
        <ele>119.4</ele>
        <time>2011-05-01T07:23:56Z</time>
      </trkpt>
      <trkpt lat="49.32935" lon="1.18976">
        <ele>118</ele>
        <time>2011-05-01T07:23:58Z</time>
      </trkpt>
      <trkpt lat="49.32931" lon="1.1899">
        <ele>117.2</ele>
        <time>2011-05-01T07:24:00Z</time>
      </trkpt>
      <trkpt lat="49.32922" lon="1.19018">
        <ele>115.6</ele>
        <time>2011-05-01T07:24:01Z</time>
      </trkpt>
      <trkpt lat="49.32913" lon="1.1905">
        <ele>113.8</ele>
        <time>2011-05-01T07:24:03Z</time>
      </trkpt>
      <trkpt lat="49.32902" lon="1.19083">
        <ele>111.8</ele>
        <time>2011-05-01T07:24:05Z</time>
      </trkpt>
      <trkpt lat="49.32892" lon="1.19117">
        <ele>109.8</ele>
        <time>2011-05-01T07:24:07Z</time>
      </trkpt>
      <trkpt lat="49.32883" lon="1.19151">
        <ele>107.6</ele>
        <time>2011-05-01T07:24:09Z</time>
      </trkpt>
      <trkpt lat="49.32872" lon="1.19186">
        <ele>105.4</ele>
        <time>2011-05-01T07:24:11Z</time>
      </trkpt>
      <trkpt lat="49.32862" lon="1.19222">
        <ele>103.2</ele>
        <time>2011-05-01T07:24:13Z</time>
      </trkpt>
      <trkpt lat="49.32851" lon="1.19257">
        <ele>100.8</ele>
        <time>2011-05-01T07:24:15Z</time>
      </trkpt>
      <trkpt lat="49.3284" lon="1.19294">
        <ele>98.4</ele>
        <time>2011-05-01T07:24:18Z</time>
      </trkpt>
      <trkpt lat="49.32831" lon="1.19326">
        <ele>96</ele>
        <time>2011-05-01T07:24:20Z</time>
      </trkpt>
      <trkpt lat="49.32823" lon="1.19348">
        <ele>93.8</ele>
        <time>2011-05-01T07:24:21Z</time>
      </trkpt>
      <trkpt lat="49.32819" lon="1.19356">
        <ele>92.6</ele>
        <time>2011-05-01T07:24:22Z</time>
      </trkpt>
      <trkpt lat="49.32817" lon="1.19371">
        <ele>90.6</ele>
        <time>2011-05-01T07:24:24Z</time>
      </trkpt>
      <trkpt lat="49.32822" lon="1.19383">
        <ele>88.8</ele>
        <time>2011-05-01T07:24:26Z</time>
      </trkpt>
      <trkpt lat="49.3283" lon="1.19395">
        <ele>87.2</ele>
        <time>2011-05-01T07:24:28Z</time>
      </trkpt>
      <trkpt lat="49.32833" lon="1.19402">
        <ele>86.6</ele>
        <time>2011-05-01T07:24:29Z</time>
      </trkpt>
      <trkpt lat="49.32839" lon="1.19425">
        <ele>85</ele>
        <time>2011-05-01T07:24:32Z</time>
      </trkpt>
      <trkpt lat="49.32856" lon="1.19483">
        <ele>82.4</ele>
        <time>2011-05-01T07:24:41Z</time>
      </trkpt>
      <trkpt lat="49.32868" lon="1.1952">
        <ele>81.8</ele>
        <time>2011-05-01T07:24:47Z</time>
      </trkpt>
      <trkpt lat="49.3287" lon="1.19526">
        <ele>81.6</ele>
        <time>2011-05-01T07:24:48Z</time>
      </trkpt>
      <trkpt lat="49.32866" lon="1.19553">
        <ele>81.4</ele>
        <time>2011-05-01T07:24:52Z</time>
      </trkpt>
      <trkpt lat="49.32862" lon="1.19559">
        <ele>81.4</ele>
        <time>2011-05-01T07:24:54Z</time>
      </trkpt>
      <trkpt lat="49.32851" lon="1.1957">
        <ele>81.2</ele>
        <time>2011-05-01T07:24:55Z</time>
      </trkpt>
      <trkpt lat="49.32827" lon="1.19588">
        <ele>80.8</ele>
        <time>2011-05-01T07:24:59Z</time>
      </trkpt>
      <trkpt lat="49.32815" lon="1.19597">
        <ele>80.4</ele>
        <time>2011-05-01T07:25:02Z</time>
      </trkpt>
      <trkpt lat="49.32803" lon="1.19606">
        <ele>80.2</ele>
        <time>2011-05-01T07:25:03Z</time>
      </trkpt>
      <trkpt lat="49.32791" lon="1.19616">
        <ele>79.8</ele>
        <time>2011-05-01T07:25:05Z</time>
      </trkpt>
      <trkpt lat="49.32779" lon="1.19625">
        <ele>79.6</ele>
        <time>2011-05-01T07:25:07Z</time>
      </trkpt>
      <trkpt lat="49.32772" lon="1.19629">
        <ele>79.2</ele>
        <time>2011-05-01T07:25:08Z</time>
      </trkpt>
      <trkpt lat="49.3276" lon="1.19638">
        <ele>78.8</ele>
        <time>2011-05-01T07:25:10Z</time>
      </trkpt>
      <trkpt lat="49.32747" lon="1.19648">
        <ele>78.4</ele>
        <time>2011-05-01T07:25:12Z</time>
      </trkpt>
      <trkpt lat="49.32734" lon="1.1966">
        <ele>77.6</ele>
        <time>2011-05-01T07:25:14Z</time>
      </trkpt>
      <trkpt lat="49.32719" lon="1.19673">
        <ele>77</ele>
        <time>2011-05-01T07:25:16Z</time>
      </trkpt>
      <trkpt lat="49.32711" lon="1.1968">
        <ele>76.4</ele>
        <time>2011-05-01T07:25:17Z</time>
      </trkpt>
      <trkpt lat="49.32695" lon="1.19695">
        <ele>75.4</ele>
        <time>2011-05-01T07:25:19Z</time>
      </trkpt>
      <trkpt lat="49.32686" lon="1.19703">
        <ele>74.8</ele>
        <time>2011-05-01T07:25:20Z</time>
      </trkpt>
      <trkpt lat="49.32668" lon="1.19719">
        <ele>73.6</ele>
        <time>2011-05-01T07:25:23Z</time>
      </trkpt>
      <trkpt lat="49.3266" lon="1.19726">
        <ele>73</ele>
        <time>2011-05-01T07:25:24Z</time>
      </trkpt>
      <trkpt lat="49.32637" lon="1.19744">
        <ele>71</ele>
        <time>2011-05-01T07:25:26Z</time>
      </trkpt>
      <trkpt lat="49.32624" lon="1.19753">
        <ele>69.4</ele>
        <time>2011-05-01T07:25:28Z</time>
      </trkpt>
      <trkpt lat="49.3262" lon="1.19759">
        <ele>68.6</ele>
        <time>2011-05-01T07:25:29Z</time>
      </trkpt>
      <trkpt lat="49.32618" lon="1.19765">
        <ele>68</ele>
        <time>2011-05-01T07:25:30Z</time>
      </trkpt>
      <trkpt lat="49.32617" lon="1.19773">
        <ele>67</ele>
        <time>2011-05-01T07:25:31Z</time>
      </trkpt>
      <trkpt lat="49.32618" lon="1.19782">
        <ele>66.2</ele>
        <time>2011-05-01T07:25:32Z</time>
      </trkpt>
      <trkpt lat="49.32623" lon="1.19809">
        <ele>64.4</ele>
        <time>2011-05-01T07:25:36Z</time>
      </trkpt>
      <trkpt lat="49.32626" lon="1.19824">
        <ele>63.4</ele>
        <time>2011-05-01T07:25:37Z</time>
      </trkpt>
      <trkpt lat="49.32628" lon="1.19838">
        <ele>62.6</ele>
        <time>2011-05-01T07:25:39Z</time>
      </trkpt>
      <trkpt lat="49.32633" lon="1.19891">
        <ele>60.8</ele>
        <time>2011-05-01T07:25:47Z</time>
      </trkpt>
      <trkpt lat="49.32633" lon="1.19957">
        <ele>60</ele>
        <time>2011-05-01T07:25:57Z</time>
      </trkpt>
      <trkpt lat="49.3263" lon="1.2003">
        <ele>59.6</ele>
        <time>2011-05-01T07:26:05Z</time>
      </trkpt>
      <trkpt lat="49.32628" lon="1.20055">
        <ele>59.6</ele>
        <time>2011-05-01T07:26:09Z</time>
      </trkpt>
      <trkpt lat="49.32631" lon="1.20088">
        <ele>59.4</ele>
        <time>2011-05-01T07:26:12Z</time>
      </trkpt>
      <trkpt lat="49.32633" lon="1.20092">
        <ele>59.2</ele>
        <time>2011-05-01T07:26:13Z</time>
      </trkpt>
      <trkpt lat="49.32636" lon="1.20096">
        <ele>59</ele>
        <time>2011-05-01T07:26:15Z</time>
      </trkpt>
      <trkpt lat="49.32635" lon="1.20097">
        <ele>58.8</ele>
        <time>2011-05-01T07:26:16Z</time>
      </trkpt>
      <trkpt lat="49.32634" lon="1.20096">
        <ele>58.6</ele>
        <time>2011-05-01T07:26:17Z</time>
      </trkpt>
      <trkpt lat="49.32629" lon="1.20094">
        <ele>58.4</ele>
        <time>2011-05-01T07:26:19Z</time>
      </trkpt>
      <trkpt lat="49.32625" lon="1.20092">
        <ele>58.2</ele>
        <time>2011-05-01T07:26:20Z</time>
      </trkpt>
      <trkpt lat="49.32621" lon="1.20089">
        <ele>58.2</ele>
        <time>2011-05-01T07:26:21Z</time>
      </trkpt>
      <trkpt lat="49.32598" lon="1.20074">
        <ele>57.8</ele>
        <time>2011-05-01T07:26:25Z</time>
      </trkpt>
      <trkpt lat="49.32591" lon="1.2007">
        <ele>57.6</ele>
        <time>2011-05-01T07:26:26Z</time>
      </trkpt>
      <trkpt lat="49.32577" lon="1.20061">
        <ele>57</ele>
        <time>2011-05-01T07:26:28Z</time>
      </trkpt>
      <trkpt lat="49.32561" lon="1.20051">
        <ele>56.4</ele>
        <time>2011-05-01T07:26:30Z</time>
      </trkpt>
      <trkpt lat="49.32534" lon="1.20038">
        <ele>55.2</ele>
        <time>2011-05-01T07:26:33Z</time>
      </trkpt>
      <trkpt lat="49.32516" lon="1.20032">
        <ele>54.2</ele>
        <time>2011-05-01T07:26:35Z</time>
      </trkpt>
      <trkpt lat="49.32506" lon="1.20029">
        <ele>53.6</ele>
        <time>2011-05-01T07:26:36Z</time>
      </trkpt>
      <trkpt lat="49.32488" lon="1.20023">
        <ele>52.6</ele>
        <time>2011-05-01T07:26:38Z</time>
      </trkpt>
      <trkpt lat="49.32471" lon="1.20015">
        <ele>51.6</ele>
        <time>2011-05-01T07:26:40Z</time>
      </trkpt>
      <trkpt lat="49.32454" lon="1.20004">
        <ele>50.6</ele>
        <time>2011-05-01T07:26:42Z</time>
      </trkpt>
      <trkpt lat="49.32437" lon="1.19993">
        <ele>49.4</ele>
        <time>2011-05-01T07:26:44Z</time>
      </trkpt>
      <trkpt lat="49.32421" lon="1.19984">
        <ele>48.4</ele>
        <time>2011-05-01T07:26:46Z</time>
      </trkpt>
      <trkpt lat="49.32405" lon="1.19978">
        <ele>47.4</ele>
        <time>2011-05-01T07:26:48Z</time>
      </trkpt>
      <trkpt lat="49.3239" lon="1.19975">
        <ele>46.6</ele>
        <time>2011-05-01T07:26:50Z</time>
      </trkpt>
      <trkpt lat="49.32379" lon="1.19974">
        <ele>45.8</ele>
        <time>2011-05-01T07:26:52Z</time>
      </trkpt>
      <trkpt lat="49.32376" lon="1.19974">
        <ele>45.4</ele>
        <time>2011-05-01T07:26:53Z</time>
      </trkpt>
      <trkpt lat="49.32374" lon="1.19969">
        <ele>44.4</ele>
        <time>2011-05-01T07:26:56Z</time>
      </trkpt>
      <trkpt lat="49.32375" lon="1.19966">
        <ele>44</ele>
        <time>2011-05-01T07:26:57Z</time>
      </trkpt>
      <trkpt lat="49.32371" lon="1.19961">
        <ele>43.4</ele>
        <time>2011-05-01T07:27:00Z</time>
      </trkpt>
      <trkpt lat="49.32367" lon="1.19965">
        <ele>43</ele>
        <time>2011-05-01T07:27:02Z</time>
      </trkpt>
      <trkpt lat="49.32362" lon="1.19972">
        <ele>42.6</ele>
        <time>2011-05-01T07:27:04Z</time>
      </trkpt>
      <trkpt lat="49.3235" lon="1.19976">
        <ele>42.2</ele>
        <time>2011-05-01T07:27:07Z</time>
      </trkpt>
      <trkpt lat="49.32338" lon="1.19975">
        <ele>41.6</ele>
        <time>2011-05-01T07:27:09Z</time>
      </trkpt>
      <trkpt lat="49.32326" lon="1.19974">
        <ele>41.2</ele>
        <time>2011-05-01T07:27:11Z</time>
      </trkpt>
      <trkpt lat="49.32314" lon="1.19974">
        <ele>40.8</ele>
        <time>2011-05-01T07:27:13Z</time>
      </trkpt>
      <trkpt lat="49.32303" lon="1.19974">
        <ele>40.6</ele>
        <time>2011-05-01T07:27:15Z</time>
      </trkpt>
      <trkpt lat="49.32264" lon="1.19978">
        <ele>39.8</ele>
        <time>2011-05-01T07:27:22Z</time>
      </trkpt>
      <trkpt lat="49.32251" lon="1.19979">
        <ele>39.4</ele>
        <time>2011-05-01T07:27:23Z</time>
      </trkpt>
      <trkpt lat="49.32238" lon="1.19981">
        <ele>39</ele>
        <time>2011-05-01T07:27:26Z</time>
      </trkpt>
      <trkpt lat="49.32225" lon="1.19983">
        <ele>38.6</ele>
        <time>2011-05-01T07:27:28Z</time>
      </trkpt>
      <trkpt lat="49.32212" lon="1.19985">
        <ele>38.4</ele>
        <time>2011-05-01T07:27:29Z</time>
      </trkpt>
      <trkpt lat="49.32179" lon="1.19989">
        <ele>37.6</ele>
        <time>2011-05-01T07:27:34Z</time>
      </trkpt>
      <trkpt lat="49.32165" lon="1.19991">
        <ele>37.2</ele>
        <time>2011-05-01T07:27:36Z</time>
      </trkpt>
      <trkpt lat="49.3215" lon="1.19993">
        <ele>36.8</ele>
        <time>2011-05-01T07:27:39Z</time>
      </trkpt>
      <trkpt lat="49.32137" lon="1.19995">
        <ele>36.4</ele>
        <time>2011-05-01T07:27:41Z</time>
      </trkpt>
      <trkpt lat="49.32122" lon="1.19999">
        <ele>36.2</ele>
        <time>2011-05-01T07:27:42Z</time>
      </trkpt>
      <trkpt lat="49.32087" lon="1.20009">
        <ele>35.4</ele>
        <time>2011-05-01T07:27:47Z</time>
      </trkpt>
      <trkpt lat="49.32074" lon="1.20014">
        <ele>35</ele>
        <time>2011-05-01T07:27:49Z</time>
      </trkpt>
      <trkpt lat="49.32061" lon="1.20018">
        <ele>34.6</ele>
        <time>2011-05-01T07:27:51Z</time>
      </trkpt>
      <trkpt lat="49.32048" lon="1.20019">
        <ele>34.2</ele>
        <time>2011-05-01T07:27:53Z</time>
      </trkpt>
      <trkpt lat="49.32035" lon="1.2002">
        <ele>34</ele>
        <time>2011-05-01T07:27:55Z</time>
      </trkpt>
      <trkpt lat="49.31987" lon="1.20017">
        <ele>33.4</ele>
        <time>2011-05-01T07:28:02Z</time>
      </trkpt>
      <trkpt lat="49.31945" lon="1.20013">
        <ele>33</ele>
        <time>2011-05-01T07:28:08Z</time>
      </trkpt>
      <trkpt lat="49.31937" lon="1.20013">
        <ele>32.8</ele>
        <time>2011-05-01T07:28:09Z</time>
      </trkpt>
      <trkpt lat="49.31924" lon="1.20013">
        <ele>32.4</ele>
        <time>2011-05-01T07:28:11Z</time>
      </trkpt>
      <trkpt lat="49.31911" lon="1.20012">
        <ele>32</ele>
        <time>2011-05-01T07:28:13Z</time>
      </trkpt>
      <trkpt lat="49.31899" lon="1.20013">
        <ele>31.8</ele>
        <time>2011-05-01T07:28:15Z</time>
      </trkpt>
      <trkpt lat="49.31887" lon="1.20015">
        <ele>31.6</ele>
        <time>2011-05-01T07:28:17Z</time>
      </trkpt>
      <trkpt lat="49.31852" lon="1.20018">
        <ele>31.2</ele>
        <time>2011-05-01T07:28:23Z</time>
      </trkpt>
      <trkpt lat="49.31794" lon="1.20015">
        <ele>30.8</ele>
        <time>2011-05-01T07:28:34Z</time>
      </trkpt>
      <trkpt lat="49.3175" lon="1.20014">
        <ele>30.8</ele>
        <time>2011-05-01T07:28:41Z</time>
      </trkpt>
      <trkpt lat="49.31745" lon="1.20014">
        <ele>30.6</ele>
        <time>2011-05-01T07:28:42Z</time>
      </trkpt>
      <trkpt lat="49.31736" lon="1.20015">
        <ele>30.2</ele>
        <time>2011-05-01T07:28:44Z</time>
      </trkpt>
      <trkpt lat="49.31731" lon="1.20017">
        <ele>30</ele>
        <time>2011-05-01T07:28:45Z</time>
      </trkpt>
      <trkpt lat="49.31727" lon="1.20017">
        <ele>29.8</ele>
        <time>2011-05-01T07:28:46Z</time>
      </trkpt>
      <trkpt lat="49.3172" lon="1.20019">
        <ele>29.6</ele>
        <time>2011-05-01T07:28:48Z</time>
      </trkpt>
      <trkpt lat="49.31709" lon="1.2002">
        <ele>29.4</ele>
        <time>2011-05-01T07:28:51Z</time>
      </trkpt>
      <trkpt lat="49.31697" lon="1.20019">
        <ele>29.2</ele>
        <time>2011-05-01T07:28:53Z</time>
      </trkpt>
      <trkpt lat="49.31659" lon="1.20037">
        <ele>29</ele>
        <time>2011-05-01T07:28:59Z</time>
      </trkpt>
      <trkpt lat="49.31633" lon="1.20055">
        <ele>28.8</ele>
        <time>2011-05-01T07:29:04Z</time>
      </trkpt>
      <trkpt lat="49.31614" lon="1.20071">
        <ele>28.6</ele>
        <time>2011-05-01T07:29:08Z</time>
      </trkpt>
      <trkpt lat="49.31583" lon="1.20086">
        <ele>28.6</ele>
        <time>2011-05-01T07:29:14Z</time>
      </trkpt>
      <trkpt lat="49.31566" lon="1.20092">
        <ele>28.4</ele>
        <time>2011-05-01T07:29:17Z</time>
      </trkpt>
      <trkpt lat="49.31555" lon="1.20096">
        <ele>28</ele>
        <time>2011-05-01T07:29:19Z</time>
      </trkpt>
      <trkpt lat="49.31544" lon="1.20099">
        <ele>27.6</ele>
        <time>2011-05-01T07:29:21Z</time>
      </trkpt>
      <trkpt lat="49.31533" lon="1.20101">
        <ele>27.4</ele>
        <time>2011-05-01T07:29:23Z</time>
      </trkpt>
      <trkpt lat="49.31521" lon="1.20103">
        <ele>27.2</ele>
        <time>2011-05-01T07:29:25Z</time>
      </trkpt>
      <trkpt lat="49.31482" lon="1.2011">
        <ele>26.8</ele>
        <time>2011-05-01T07:29:32Z</time>
      </trkpt>
      <trkpt lat="49.31443" lon="1.20117">
        <ele>26.6</ele>
        <time>2011-05-01T07:29:39Z</time>
      </trkpt>
      <trkpt lat="49.31405" lon="1.20124">
        <ele>26.4</ele>
        <time>2011-05-01T07:29:46Z</time>
      </trkpt>
      <trkpt lat="49.31374" lon="1.20129">
        <ele>26.4</ele>
        <time>2011-05-01T07:29:52Z</time>
      </trkpt>
      <trkpt lat="49.31329" lon="1.2013">
        <ele>26.4</ele>
        <time>2011-05-01T07:30:00Z</time>
      </trkpt>
      <trkpt lat="49.31284" lon="1.20122">
        <ele>26.4</ele>
        <time>2011-05-01T07:30:08Z</time>
      </trkpt>
      <trkpt lat="49.31231" lon="1.2011">
        <ele>26.4</ele>
        <time>2011-05-01T07:30:18Z</time>
      </trkpt>
      <trkpt lat="49.31178" lon="1.20097">
        <ele>26.4</ele>
        <time>2011-05-01T07:30:26Z</time>
      </trkpt>
      <trkpt lat="49.31125" lon="1.20082">
        <ele>26.4</ele>
        <time>2011-05-01T07:30:35Z</time>
      </trkpt>
      <trkpt lat="49.31086" lon="1.20074">
        <ele>26.4</ele>
        <time>2011-05-01T07:30:42Z</time>
      </trkpt>
      <trkpt lat="49.31075" lon="1.20063">
        <ele>26.4</ele>
        <time>2011-05-01T07:30:46Z</time>
      </trkpt>
      <trkpt lat="49.31075" lon="1.20039">
        <ele>26.4</ele>
        <time>2011-05-01T07:30:48Z</time>
      </trkpt>
      <trkpt lat="49.31064" lon="1.20023">
        <ele>26.4</ele>
        <time>2011-05-01T07:30:52Z</time>
      </trkpt>
      <trkpt lat="49.31048" lon="1.20015">
        <ele>25.8</ele>
        <time>2011-05-01T07:30:55Z</time>
      </trkpt>
      <trkpt lat="49.31037" lon="1.20008">
        <ele>25.6</ele>
        <time>2011-05-01T07:30:57Z</time>
      </trkpt>
      <trkpt lat="49.31027" lon="1.20002">
        <ele>25.2</ele>
        <time>2011-05-01T07:30:59Z</time>
      </trkpt>
      <trkpt lat="49.31025" lon="1.20002">
        <ele>25</ele>
        <time>2011-05-01T07:31:01Z</time>
      </trkpt>
      <trkpt lat="49.31021" lon="1.20004">
        <ele>24.4</ele>
        <time>2011-05-01T07:31:02Z</time>
      </trkpt>
      <trkpt lat="49.3102" lon="1.20003">
        <ele>23.8</ele>
        <time>2011-05-01T07:31:04Z</time>
      </trkpt>
      <trkpt lat="49.31011" lon="1.19995">
        <ele>23.4</ele>
        <time>2011-05-01T07:31:07Z</time>
      </trkpt>
      <trkpt lat="49.31006" lon="1.19993">
        <ele>23.2</ele>
        <time>2011-05-01T07:31:08Z</time>
      </trkpt>
      <trkpt lat="49.31002" lon="1.19991">
        <ele>23</ele>
        <time>2011-05-01T07:31:09Z</time>
      </trkpt>
      <trkpt lat="49.30991" lon="1.2">
        <ele>22.6</ele>
        <time>2011-05-01T07:31:13Z</time>
      </trkpt>
      <trkpt lat="49.30992" lon="1.20007">
        <ele>22.6</ele>
        <time>2011-05-01T07:31:14Z</time>
      </trkpt>
      <trkpt lat="49.30996" lon="1.20029">
        <ele>22.4</ele>
        <time>2011-05-01T07:31:18Z</time>
      </trkpt>
      <trkpt lat="49.30998" lon="1.20069">
        <ele>22.2</ele>
        <time>2011-05-01T07:31:22Z</time>
      </trkpt>
      <trkpt lat="49.31" lon="1.20093">
        <ele>22.2</ele>
        <time>2011-05-01T07:31:25Z</time>
      </trkpt>
      <trkpt lat="49.31005" lon="1.20137">
        <ele>22</ele>
        <time>2011-05-01T07:31:32Z</time>
      </trkpt>
      <trkpt lat="49.31015" lon="1.2019">
        <ele>22</ele>
        <time>2011-05-01T07:31:39Z</time>
      </trkpt>
      <trkpt lat="49.31018" lon="1.20203">
        <ele>22</ele>
        <time>2011-05-01T07:31:40Z</time>
      </trkpt>
      <trkpt lat="49.31021" lon="1.20218">
        <ele>22</ele>
        <time>2011-05-01T07:31:43Z</time>
      </trkpt>
      <trkpt lat="49.3103" lon="1.20277">
        <ele>22</ele>
        <time>2011-05-01T07:31:50Z</time>
      </trkpt>
      <trkpt lat="49.31031" lon="1.20285">
        <ele>22</ele>
        <time>2011-05-01T07:31:52Z</time>
      </trkpt>
      <trkpt lat="49.31036" lon="1.20316">
        <ele>22</ele>
        <time>2011-05-01T07:31:56Z</time>
      </trkpt>
      <trkpt lat="49.31041" lon="1.20345">
        <ele>22</ele>
        <time>2011-05-01T07:32:00Z</time>
      </trkpt>
      <trkpt lat="49.31042" lon="1.20364">
        <ele>22</ele>
        <time>2011-05-01T07:32:02Z</time>
      </trkpt>
      <trkpt lat="49.31044" lon="1.20385">
        <ele>22</ele>
        <time>2011-05-01T07:32:07Z</time>
      </trkpt>
      <trkpt lat="49.31049" lon="1.20396">
        <ele>22</ele>
        <time>2011-05-01T07:32:09Z</time>
      </trkpt>
      <trkpt lat="49.31062" lon="1.20423">
        <ele>22</ele>
        <time>2011-05-01T07:32:13Z</time>
      </trkpt>
      <trkpt lat="49.31065" lon="1.20428">
        <ele>22</ele>
        <time>2011-05-01T07:32:15Z</time>
      </trkpt>
      <trkpt lat="49.31073" lon="1.20462">
        <ele>22</ele>
        <time>2011-05-01T07:32:20Z</time>
      </trkpt>
      <trkpt lat="49.31074" lon="1.20469">
        <ele>22</ele>
        <time>2011-05-01T07:32:21Z</time>
      </trkpt>
      <trkpt lat="49.31076" lon="1.20496">
        <ele>22</ele>
        <time>2011-05-01T07:32:25Z</time>
      </trkpt>
      <trkpt lat="49.31078" lon="1.20527">
        <ele>22</ele>
        <time>2011-05-01T07:32:31Z</time>
      </trkpt>
      <trkpt lat="49.31083" lon="1.20576">
        <ele>22</ele>
        <time>2011-05-01T07:32:37Z</time>
      </trkpt>
      <trkpt lat="49.3109" lon="1.20634">
        <ele>22</ele>
        <time>2011-05-01T07:32:45Z</time>
      </trkpt>
      <trkpt lat="49.3109" lon="1.20642">
        <ele>22</ele>
        <time>2011-05-01T07:32:46Z</time>
      </trkpt>
      <trkpt lat="49.31093" lon="1.20664">
        <ele>22</ele>
        <time>2011-05-01T07:32:49Z</time>
      </trkpt>
      <trkpt lat="49.31096" lon="1.20684">
        <ele>22</ele>
        <time>2011-05-01T07:32:52Z</time>
      </trkpt>
      <trkpt lat="49.31096" lon="1.20703">
        <ele>22</ele>
        <time>2011-05-01T07:32:55Z</time>
      </trkpt>
      <trkpt lat="49.31097" lon="1.20727">
        <ele>22</ele>
        <time>2011-05-01T07:32:58Z</time>
      </trkpt>
      <trkpt lat="49.31097" lon="1.20753">
        <ele>22</ele>
        <time>2011-05-01T07:33:05Z</time>
      </trkpt>
      <trkpt lat="49.31099" lon="1.20785">
        <ele>22</ele>
        <time>2011-05-01T07:33:10Z</time>
      </trkpt>
      <trkpt lat="49.31103" lon="1.20833">
        <ele>22</ele>
        <time>2011-05-01T07:33:17Z</time>
      </trkpt>
      <trkpt lat="49.31104" lon="1.20839">
        <ele>22</ele>
        <time>2011-05-01T07:33:18Z</time>
      </trkpt>
      <trkpt lat="49.31116" lon="1.2088">
        <ele>22</ele>
        <time>2011-05-01T07:33:25Z</time>
      </trkpt>
      <trkpt lat="49.31118" lon="1.20887">
        <ele>22</ele>
        <time>2011-05-01T07:33:26Z</time>
      </trkpt>
      <trkpt lat="49.31123" lon="1.20906">
        <ele>22.2</ele>
        <time>2011-05-01T07:33:29Z</time>
      </trkpt>
      <trkpt lat="49.31123" lon="1.20912">
        <ele>22.4</ele>
        <time>2011-05-01T07:33:30Z</time>
      </trkpt>
      <trkpt lat="49.31124" lon="1.20919">
        <ele>22.6</ele>
        <time>2011-05-01T07:33:31Z</time>
      </trkpt>
      <trkpt lat="49.31125" lon="1.20932">
        <ele>22.8</ele>
        <time>2011-05-01T07:33:32Z</time>
      </trkpt>
      <trkpt lat="49.31125" lon="1.20939">
        <ele>23</ele>
        <time>2011-05-01T07:33:34Z</time>
      </trkpt>
      <trkpt lat="49.31126" lon="1.20945">
        <ele>23</ele>
        <time>2011-05-01T07:33:35Z</time>
      </trkpt>
      <trkpt lat="49.31128" lon="1.2096">
        <ele>23.2</ele>
        <time>2011-05-01T07:33:37Z</time>
      </trkpt>
      <trkpt lat="49.31137" lon="1.20997">
        <ele>23.6</ele>
        <time>2011-05-01T07:33:41Z</time>
      </trkpt>
      <trkpt lat="49.31147" lon="1.21019">
        <ele>23.8</ele>
        <time>2011-05-01T07:33:46Z</time>
      </trkpt>
      <trkpt lat="49.31156" lon="1.21046">
        <ele>23.8</ele>
        <time>2011-05-01T07:33:51Z</time>
      </trkpt>
      <trkpt lat="49.31154" lon="1.21058">
        <ele>24</ele>
        <time>2011-05-01T07:33:52Z</time>
      </trkpt>
      <trkpt lat="49.31153" lon="1.2107">
        <ele>24</ele>
        <time>2011-05-01T07:33:55Z</time>
      </trkpt>
      <trkpt lat="49.31156" lon="1.21092">
        <ele>24</ele>
        <time>2011-05-01T07:33:58Z</time>
      </trkpt>
      <trkpt lat="49.31161" lon="1.21116">
        <ele>23.8</ele>
        <time>2011-05-01T07:34:01Z</time>
      </trkpt>
      <trkpt lat="49.31164" lon="1.21132">
        <ele>23.4</ele>
        <time>2011-05-01T07:34:03Z</time>
      </trkpt>
      <trkpt lat="49.31166" lon="1.21141">
        <ele>23.4</ele>
        <time>2011-05-01T07:34:04Z</time>
      </trkpt>
      <trkpt lat="49.31167" lon="1.21149">
        <ele>23.2</ele>
        <time>2011-05-01T07:34:05Z</time>
      </trkpt>
      <trkpt lat="49.31171" lon="1.21166">
        <ele>23</ele>
        <time>2011-05-01T07:34:07Z</time>
      </trkpt>
      <trkpt lat="49.31175" lon="1.21182">
        <ele>22.8</ele>
        <time>2011-05-01T07:34:09Z</time>
      </trkpt>
      <trkpt lat="49.31182" lon="1.21205">
        <ele>22.6</ele>
        <time>2011-05-01T07:34:11Z</time>
      </trkpt>
      <trkpt lat="49.31181" lon="1.21223">
        <ele>22.2</ele>
        <time>2011-05-01T07:34:16Z</time>
      </trkpt>
      <trkpt lat="49.3118" lon="1.21236">
        <ele>21.8</ele>
        <time>2011-05-01T07:34:17Z</time>
      </trkpt>
      <trkpt lat="49.31179" lon="1.2125">
        <ele>21.4</ele>
        <time>2011-05-01T07:34:19Z</time>
      </trkpt>
      <trkpt lat="49.31179" lon="1.21258">
        <ele>21.2</ele>
        <time>2011-05-01T07:34:21Z</time>
      </trkpt>
      <trkpt lat="49.31179" lon="1.21265">
        <ele>21</ele>
        <time>2011-05-01T07:34:22Z</time>
      </trkpt>
      <trkpt lat="49.31178" lon="1.21279">
        <ele>20.8</ele>
        <time>2011-05-01T07:34:24Z</time>
      </trkpt>
      <trkpt lat="49.31177" lon="1.21285">
        <ele>20.6</ele>
        <time>2011-05-01T07:34:25Z</time>
      </trkpt>
      <trkpt lat="49.31171" lon="1.21319">
        <ele>20.4</ele>
        <time>2011-05-01T07:34:29Z</time>
      </trkpt>
      <trkpt lat="49.3117" lon="1.21326">
        <ele>20.2</ele>
        <time>2011-05-01T07:34:30Z</time>
      </trkpt>
      <trkpt lat="49.31164" lon="1.21363">
        <ele>20</ele>
        <time>2011-05-01T07:34:35Z</time>
      </trkpt>
      <trkpt lat="49.31162" lon="1.21371">
        <ele>20</ele>
        <time>2011-05-01T07:34:37Z</time>
      </trkpt>
      <trkpt lat="49.31156" lon="1.21422">
        <ele>19.8</ele>
        <time>2011-05-01T07:34:44Z</time>
      </trkpt>
      <trkpt lat="49.31155" lon="1.21428">
        <ele>19.8</ele>
        <time>2011-05-01T07:34:45Z</time>
      </trkpt>
      <trkpt lat="49.31154" lon="1.21443">
        <ele>19.8</ele>
        <time>2011-05-01T07:34:47Z</time>
      </trkpt>
      <trkpt lat="49.31149" lon="1.2147">
        <ele>19.8</ele>
        <time>2011-05-01T07:34:50Z</time>
      </trkpt>
      <trkpt lat="49.31141" lon="1.21494">
        <ele>19.8</ele>
        <time>2011-05-01T07:34:55Z</time>
      </trkpt>
      <trkpt lat="49.31138" lon="1.21501">
        <ele>19.8</ele>
        <time>2011-05-01T07:34:56Z</time>
      </trkpt>
      <trkpt lat="49.31129" lon="1.2153">
        <ele>19.8</ele>
        <time>2011-05-01T07:35:01Z</time>
      </trkpt>
      <trkpt lat="49.31126" lon="1.21542">
        <ele>19.8</ele>
        <time>2011-05-01T07:35:03Z</time>
      </trkpt>
      <trkpt lat="49.31115" lon="1.21565">
        <ele>19.8</ele>
        <time>2011-05-01T07:35:07Z</time>
      </trkpt>
      <trkpt lat="49.31113" lon="1.21583">
        <ele>19.8</ele>
        <time>2011-05-01T07:35:10Z</time>
      </trkpt>
      <trkpt lat="49.31111" lon="1.21615">
        <ele>19.8</ele>
        <time>2011-05-01T07:35:14Z</time>
      </trkpt>
      <trkpt lat="49.31112" lon="1.21644">
        <ele>19.8</ele>
        <time>2011-05-01T07:35:17Z</time>
      </trkpt>
      <trkpt lat="49.31104" lon="1.21697">
        <ele>19.8</ele>
        <time>2011-05-01T07:35:23Z</time>
      </trkpt>
      <trkpt lat="49.31104" lon="1.21712">
        <ele>19.8</ele>
        <time>2011-05-01T07:35:25Z</time>
      </trkpt>
      <trkpt lat="49.31104" lon="1.21727">
        <ele>19.8</ele>
        <time>2011-05-01T07:35:27Z</time>
      </trkpt>
      <trkpt lat="49.31101" lon="1.21766">
        <ele>19.8</ele>
        <time>2011-05-01T07:35:31Z</time>
      </trkpt>
      <trkpt lat="49.31102" lon="1.21793">
        <ele>19.8</ele>
        <time>2011-05-01T07:35:36Z</time>
      </trkpt>
      <trkpt lat="49.31101" lon="1.21825">
        <ele>19.8</ele>
        <time>2011-05-01T07:35:40Z</time>
      </trkpt>
      <trkpt lat="49.31102" lon="1.2189">
        <ele>19.8</ele>
        <time>2011-05-01T07:35:49Z</time>
      </trkpt>
      <trkpt lat="49.31101" lon="1.21904">
        <ele>19.8</ele>
        <time>2011-05-01T07:35:51Z</time>
      </trkpt>
      <trkpt lat="49.31102" lon="1.21941">
        <ele>19.8</ele>
        <time>2011-05-01T07:35:56Z</time>
      </trkpt>
      <trkpt lat="49.31103" lon="1.21953">
        <ele>19.8</ele>
        <time>2011-05-01T07:35:58Z</time>
      </trkpt>
      <trkpt lat="49.31107" lon="1.21987">
        <ele>19.8</ele>
        <time>2011-05-01T07:36:03Z</time>
      </trkpt>
      <trkpt lat="49.31111" lon="1.22036">
        <ele>19.8</ele>
        <time>2011-05-01T07:36:10Z</time>
      </trkpt>
      <trkpt lat="49.31115" lon="1.22085">
        <ele>19.8</ele>
        <time>2011-05-01T07:36:16Z</time>
      </trkpt>
      <trkpt lat="49.31115" lon="1.22093">
        <ele>19.8</ele>
        <time>2011-05-01T07:36:18Z</time>
      </trkpt>
      <trkpt lat="49.31117" lon="1.22144">
        <ele>19.8</ele>
        <time>2011-05-01T07:36:25Z</time>
      </trkpt>
      <trkpt lat="49.31121" lon="1.22195">
        <ele>19.8</ele>
        <time>2011-05-01T07:36:32Z</time>
      </trkpt>
      <trkpt lat="49.31127" lon="1.22251">
        <ele>19.8</ele>
        <time>2011-05-01T07:36:39Z</time>
      </trkpt>
      <trkpt lat="49.31135" lon="1.22327">
        <ele>19.8</ele>
        <time>2011-05-01T07:36:48Z</time>
      </trkpt>
      <trkpt lat="49.31142" lon="1.2237">
        <ele>19.8</ele>
        <time>2011-05-01T07:36:53Z</time>
      </trkpt>
      <trkpt lat="49.31154" lon="1.22397">
        <ele>19.8</ele>
        <time>2011-05-01T07:36:57Z</time>
      </trkpt>
      <trkpt lat="49.31186" lon="1.22431">
        <ele>19.8</ele>
        <time>2011-05-01T07:37:04Z</time>
      </trkpt>
      <trkpt lat="49.31204" lon="1.22447">
        <ele>19.8</ele>
        <time>2011-05-01T07:37:08Z</time>
      </trkpt>
      <trkpt lat="49.31221" lon="1.22467">
        <ele>19.8</ele>
        <time>2011-05-01T07:37:12Z</time>
      </trkpt>
      <trkpt lat="49.3124" lon="1.22483">
        <ele>19.8</ele>
        <time>2011-05-01T07:37:15Z</time>
      </trkpt>
      <trkpt lat="49.31263" lon="1.22505">
        <ele>19.8</ele>
        <time>2011-05-01T07:37:21Z</time>
      </trkpt>
      <trkpt lat="49.31272" lon="1.22511">
        <ele>19.8</ele>
        <time>2011-05-01T07:37:23Z</time>
      </trkpt>
      <trkpt lat="49.31286" lon="1.2252">
        <ele>19.8</ele>
        <time>2011-05-01T07:37:26Z</time>
      </trkpt>
      <trkpt lat="49.31317" lon="1.22547">
        <ele>19.8</ele>
        <time>2011-05-01T07:37:33Z</time>
      </trkpt>
      <trkpt lat="49.31347" lon="1.22577">
        <ele>19.8</ele>
        <time>2011-05-01T07:37:40Z</time>
      </trkpt>
      <trkpt lat="49.31371" lon="1.226">
        <ele>19.8</ele>
        <time>2011-05-01T07:37:46Z</time>
      </trkpt>
      <trkpt lat="49.31393" lon="1.22619">
        <ele>19.8</ele>
        <time>2011-05-01T07:37:51Z</time>
      </trkpt>
      <trkpt lat="49.31419" lon="1.22646">
        <ele>19.8</ele>
        <time>2011-05-01T07:37:57Z</time>
      </trkpt>
      <trkpt lat="49.31436" lon="1.22662">
        <ele>19.8</ele>
        <time>2011-05-01T07:38:01Z</time>
      </trkpt>
      <trkpt lat="49.31452" lon="1.22682">
        <ele>19.8</ele>
        <time>2011-05-01T07:38:05Z</time>
      </trkpt>
      <trkpt lat="49.31468" lon="1.22699">
        <ele>19.8</ele>
        <time>2011-05-01T07:38:09Z</time>
      </trkpt>
      <trkpt lat="49.31482" lon="1.22717">
        <ele>19.8</ele>
        <time>2011-05-01T07:38:13Z</time>
      </trkpt>
      <trkpt lat="49.31492" lon="1.22737">
        <ele>19.8</ele>
        <time>2011-05-01T07:38:17Z</time>
      </trkpt>
      <trkpt lat="49.31502" lon="1.22751">
        <ele>19.8</ele>
        <time>2011-05-01T07:38:22Z</time>
      </trkpt>
      <trkpt lat="49.31507" lon="1.2276">
        <ele>19.8</ele>
        <time>2011-05-01T07:38:26Z</time>
      </trkpt>
      <trkpt lat="49.31506" lon="1.2276">
        <ele>19.8</ele>
        <time>2011-05-01T07:38:31Z</time>
      </trkpt>
      <trkpt lat="49.31506" lon="1.22759">
        <ele>19.8</ele>
        <time>2011-05-01T07:44:00Z</time>
      </trkpt>
      <trkpt lat="49.31508" lon="1.22763">
        <ele>19.8</ele>
        <time>2011-05-01T07:44:03Z</time>
      </trkpt>
      <trkpt lat="49.3151" lon="1.22768">
        <ele>19.8</ele>
        <time>2011-05-01T07:44:06Z</time>
      </trkpt>
      <trkpt lat="49.3151" lon="1.22772">
        <ele>19.8</ele>
        <time>2011-05-01T07:44:08Z</time>
      </trkpt>
      <trkpt lat="49.31509" lon="1.22774">
        <ele>19.8</ele>
        <time>2011-05-01T07:44:09Z</time>
      </trkpt>
      <trkpt lat="49.31502" lon="1.22793">
        <ele>19.8</ele>
        <time>2011-05-01T07:44:15Z</time>
      </trkpt>
      <trkpt lat="49.31498" lon="1.22802">
        <ele>19.8</ele>
        <time>2011-05-01T07:44:17Z</time>
      </trkpt>
      <trkpt lat="49.31499" lon="1.22816">
        <ele>19.8</ele>
        <time>2011-05-01T07:44:21Z</time>
      </trkpt>
      <trkpt lat="49.31504" lon="1.22823">
        <ele>19.8</ele>
        <time>2011-05-01T07:44:23Z</time>
      </trkpt>
      <trkpt lat="49.31511" lon="1.22832">
        <ele>19.8</ele>
        <time>2011-05-01T07:44:25Z</time>
      </trkpt>
      <trkpt lat="49.31519" lon="1.22841">
        <ele>19.8</ele>
        <time>2011-05-01T07:44:27Z</time>
      </trkpt>
      <trkpt lat="49.31541" lon="1.22879">
        <ele>19.8</ele>
        <time>2011-05-01T07:44:34Z</time>
      </trkpt>
      <trkpt lat="49.31556" lon="1.22908">
        <ele>19.8</ele>
        <time>2011-05-01T07:44:39Z</time>
      </trkpt>
      <trkpt lat="49.31569" lon="1.22936">
        <ele>19.8</ele>
        <time>2011-05-01T07:44:43Z</time>
      </trkpt>
      <trkpt lat="49.31578" lon="1.22953">
        <ele>19.8</ele>
        <time>2011-05-01T07:44:46Z</time>
      </trkpt>
      <trkpt lat="49.3158" lon="1.2296">
        <ele>19.8</ele>
        <time>2011-05-01T07:44:47Z</time>
      </trkpt>
      <trkpt lat="49.31591" lon="1.22988">
        <ele>19.8</ele>
        <time>2011-05-01T07:44:51Z</time>
      </trkpt>
      <trkpt lat="49.31595" lon="1.22995">
        <ele>19.8</ele>
        <time>2011-05-01T07:44:52Z</time>
      </trkpt>
      <trkpt lat="49.31611" lon="1.23032">
        <ele>19.8</ele>
        <time>2011-05-01T07:44:58Z</time>
      </trkpt>
      <trkpt lat="49.31614" lon="1.23036">
        <ele>19.8</ele>
        <time>2011-05-01T07:44:59Z</time>
      </trkpt>
      <trkpt lat="49.31625" lon="1.23038">
        <ele>19.8</ele>
        <time>2011-05-01T07:45:02Z</time>
      </trkpt>
      <trkpt lat="49.31634" lon="1.23039">
        <ele>19.8</ele>
        <time>2011-05-01T07:45:04Z</time>
      </trkpt>
      <trkpt lat="49.31651" lon="1.23038">
        <ele>19.8</ele>
        <time>2011-05-01T07:45:08Z</time>
      </trkpt>
      <trkpt lat="49.31668" lon="1.23041">
        <ele>19.8</ele>
        <time>2011-05-01T07:45:11Z</time>
      </trkpt>
      <trkpt lat="49.31688" lon="1.23042">
        <ele>20</ele>
        <time>2011-05-01T07:45:15Z</time>
      </trkpt>
      <trkpt lat="49.31698" lon="1.23041">
        <ele>20.4</ele>
        <time>2011-05-01T07:45:17Z</time>
      </trkpt>
      <trkpt lat="49.31708" lon="1.2304">
        <ele>20.6</ele>
        <time>2011-05-01T07:45:19Z</time>
      </trkpt>
      <trkpt lat="49.31713" lon="1.23039">
        <ele>20.8</ele>
        <time>2011-05-01T07:45:20Z</time>
      </trkpt>
      <trkpt lat="49.31728" lon="1.23037">
        <ele>21</ele>
        <time>2011-05-01T07:45:23Z</time>
      </trkpt>
      <trkpt lat="49.31771" lon="1.23034">
        <ele>21.4</ele>
        <time>2011-05-01T07:45:30Z</time>
      </trkpt>
      <trkpt lat="49.31791" lon="1.23033">
        <ele>21.6</ele>
        <time>2011-05-01T07:45:34Z</time>
      </trkpt>
      <trkpt lat="49.31796" lon="1.23032">
        <ele>21.6</ele>
        <time>2011-05-01T07:45:35Z</time>
      </trkpt>
      <trkpt lat="49.31808" lon="1.23033">
        <ele>21.6</ele>
        <time>2011-05-01T07:45:37Z</time>
      </trkpt>
      <trkpt lat="49.31824" lon="1.23036">
        <ele>21.8</ele>
        <time>2011-05-01T07:45:40Z</time>
      </trkpt>
      <trkpt lat="49.31841" lon="1.23035">
        <ele>21.8</ele>
        <time>2011-05-01T07:45:43Z</time>
      </trkpt>
      <trkpt lat="49.31867" lon="1.23047">
        <ele>21.8</ele>
        <time>2011-05-01T07:45:47Z</time>
      </trkpt>
      <trkpt lat="49.31882" lon="1.23061">
        <ele>21.6</ele>
        <time>2011-05-01T07:45:50Z</time>
      </trkpt>
      <trkpt lat="49.31891" lon="1.23067">
        <ele>21.2</ele>
        <time>2011-05-01T07:45:52Z</time>
      </trkpt>
      <trkpt lat="49.31896" lon="1.2307">
        <ele>21.2</ele>
        <time>2011-05-01T07:45:53Z</time>
      </trkpt>
      <trkpt lat="49.31913" lon="1.23078">
        <ele>20.8</ele>
        <time>2011-05-01T07:45:56Z</time>
      </trkpt>
      <trkpt lat="49.31925" lon="1.23084">
        <ele>20.6</ele>
        <time>2011-05-01T07:45:58Z</time>
      </trkpt>
      <trkpt lat="49.31972" lon="1.23102">
        <ele>20.2</ele>
        <time>2011-05-01T07:46:06Z</time>
      </trkpt>
      <trkpt lat="49.31977" lon="1.23105">
        <ele>20</ele>
        <time>2011-05-01T07:46:07Z</time>
      </trkpt>
      <trkpt lat="49.31996" lon="1.23116">
        <ele>20</ele>
        <time>2011-05-01T07:46:11Z</time>
      </trkpt>
      <trkpt lat="49.32014" lon="1.23107">
        <ele>20</ele>
        <time>2011-05-01T07:46:15Z</time>
      </trkpt>
      <trkpt lat="49.32019" lon="1.23103">
        <ele>20</ele>
        <time>2011-05-01T07:46:16Z</time>
      </trkpt>
      <trkpt lat="49.3205" lon="1.23073">
        <ele>20</ele>
        <time>2011-05-01T07:46:23Z</time>
      </trkpt>
      <trkpt lat="49.32059" lon="1.23065">
        <ele>20.4</ele>
        <time>2011-05-01T07:46:25Z</time>
      </trkpt>
      <trkpt lat="49.3207" lon="1.23057">
        <ele>20.8</ele>
        <time>2011-05-01T07:46:27Z</time>
      </trkpt>
      <trkpt lat="49.3208" lon="1.23049">
        <ele>21</ele>
        <time>2011-05-01T07:46:29Z</time>
      </trkpt>
      <trkpt lat="49.32091" lon="1.23041">
        <ele>21.2</ele>
        <time>2011-05-01T07:46:31Z</time>
      </trkpt>
      <trkpt lat="49.32124" lon="1.23015">
        <ele>21.4</ele>
        <time>2011-05-01T07:46:37Z</time>
      </trkpt>
      <trkpt lat="49.32159" lon="1.22992">
        <ele>21.6</ele>
        <time>2011-05-01T07:46:42Z</time>
      </trkpt>
      <trkpt lat="49.32187" lon="1.22977">
        <ele>22</ele>
        <time>2011-05-01T07:46:47Z</time>
      </trkpt>
      <trkpt lat="49.32197" lon="1.22972">
        <ele>22.4</ele>
        <time>2011-05-01T07:46:49Z</time>
      </trkpt>
      <trkpt lat="49.32208" lon="1.22966">
        <ele>22.6</ele>
        <time>2011-05-01T07:46:51Z</time>
      </trkpt>
      <trkpt lat="49.32218" lon="1.22961">
        <ele>23</ele>
        <time>2011-05-01T07:46:53Z</time>
      </trkpt>
      <trkpt lat="49.32229" lon="1.22955">
        <ele>23.2</ele>
        <time>2011-05-01T07:46:55Z</time>
      </trkpt>
      <trkpt lat="49.32264" lon="1.22932">
        <ele>23.6</ele>
        <time>2011-05-01T07:47:03Z</time>
      </trkpt>
      <trkpt lat="49.32272" lon="1.22927">
        <ele>23.6</ele>
        <time>2011-05-01T07:47:05Z</time>
      </trkpt>
      <trkpt lat="49.32284" lon="1.22918">
        <ele>24.4</ele>
        <time>2011-05-01T07:47:08Z</time>
      </trkpt>
      <trkpt lat="49.32292" lon="1.22912">
        <ele>24.6</ele>
        <time>2011-05-01T07:47:10Z</time>
      </trkpt>
      <trkpt lat="49.32301" lon="1.22908">
        <ele>25</ele>
        <time>2011-05-01T07:47:12Z</time>
      </trkpt>
      <trkpt lat="49.3231" lon="1.22902">
        <ele>25.2</ele>
        <time>2011-05-01T07:47:14Z</time>
      </trkpt>
      <trkpt lat="49.32341" lon="1.22886">
        <ele>25.8</ele>
        <time>2011-05-01T07:47:21Z</time>
      </trkpt>
      <trkpt lat="49.32346" lon="1.22883">
        <ele>26</ele>
        <time>2011-05-01T07:47:22Z</time>
      </trkpt>
      <trkpt lat="49.32358" lon="1.22873">
        <ele>26.6</ele>
        <time>2011-05-01T07:47:25Z</time>
      </trkpt>
      <trkpt lat="49.32368" lon="1.22867">
        <ele>26.8</ele>
        <time>2011-05-01T07:47:27Z</time>
      </trkpt>
      <trkpt lat="49.32377" lon="1.22861">
        <ele>27</ele>
        <time>2011-05-01T07:47:29Z</time>
      </trkpt>
      <trkpt lat="49.32408" lon="1.22844">
        <ele>27.6</ele>
        <time>2011-05-01T07:47:36Z</time>
      </trkpt>
      <trkpt lat="49.32432" lon="1.22834">
        <ele>28</ele>
        <time>2011-05-01T07:47:41Z</time>
      </trkpt>
      <trkpt lat="49.32443" lon="1.22829">
        <ele>28.4</ele>
        <time>2011-05-01T07:47:43Z</time>
      </trkpt>
      <trkpt lat="49.32453" lon="1.22823">
        <ele>28.8</ele>
        <time>2011-05-01T07:47:45Z</time>
      </trkpt>
      <trkpt lat="49.32462" lon="1.22816">
        <ele>29</ele>
        <time>2011-05-01T07:47:47Z</time>
      </trkpt>
      <trkpt lat="49.32471" lon="1.22808">
        <ele>29.2</ele>
        <time>2011-05-01T07:47:49Z</time>
      </trkpt>
      <trkpt lat="49.32503" lon="1.22782">
        <ele>29.6</ele>
        <time>2011-05-01T07:47:56Z</time>
      </trkpt>
      <trkpt lat="49.32551" lon="1.2275">
        <ele>30</ele>
        <time>2011-05-01T07:48:06Z</time>
      </trkpt>
      <trkpt lat="49.32574" lon="1.22734">
        <ele>30.2</ele>
        <time>2011-05-01T07:48:11Z</time>
      </trkpt>
      <trkpt lat="49.32583" lon="1.22728">
        <ele>30.6</ele>
        <time>2011-05-01T07:48:13Z</time>
      </trkpt>
      <trkpt lat="49.32592" lon="1.22721">
        <ele>30.8</ele>
        <time>2011-05-01T07:48:15Z</time>
      </trkpt>
      <trkpt lat="49.32601" lon="1.22715">
        <ele>31.2</ele>
        <time>2011-05-01T07:48:17Z</time>
      </trkpt>
      <trkpt lat="49.3261" lon="1.22708">
        <ele>31.4</ele>
        <time>2011-05-01T07:48:19Z</time>
      </trkpt>
      <trkpt lat="49.32657" lon="1.22675">
        <ele>31.8</ele>
        <time>2011-05-01T07:48:29Z</time>
      </trkpt>
      <trkpt lat="49.327" lon="1.22649">
        <ele>32</ele>
        <time>2011-05-01T07:48:38Z</time>
      </trkpt>
      <trkpt lat="49.32727" lon="1.22632">
        <ele>32.4</ele>
        <time>2011-05-01T07:48:44Z</time>
      </trkpt>
      <trkpt lat="49.32736" lon="1.22626">
        <ele>32.6</ele>
        <time>2011-05-01T07:48:46Z</time>
      </trkpt>
      <trkpt lat="49.32744" lon="1.22622">
        <ele>33</ele>
        <time>2011-05-01T07:48:48Z</time>
      </trkpt>
      <trkpt lat="49.32751" lon="1.22618">
        <ele>33.2</ele>
        <time>2011-05-01T07:48:50Z</time>
      </trkpt>
      <trkpt lat="49.32758" lon="1.22614">
        <ele>33.6</ele>
        <time>2011-05-01T07:48:52Z</time>
      </trkpt>
      <trkpt lat="49.32764" lon="1.22612">
        <ele>34.2</ele>
        <time>2011-05-01T07:48:54Z</time>
      </trkpt>
      <trkpt lat="49.3277" lon="1.22611">
        <ele>34.6</ele>
        <time>2011-05-01T07:48:56Z</time>
      </trkpt>
      <trkpt lat="49.32777" lon="1.22609">
        <ele>35</ele>
        <time>2011-05-01T07:48:58Z</time>
      </trkpt>
      <trkpt lat="49.32784" lon="1.22605">
        <ele>35.2</ele>
        <time>2011-05-01T07:49:00Z</time>
      </trkpt>
      <trkpt lat="49.32796" lon="1.22597">
        <ele>35.6</ele>
        <time>2011-05-01T07:49:03Z</time>
      </trkpt>
      <trkpt lat="49.32842" lon="1.22577">
        <ele>36.2</ele>
        <time>2011-05-01T07:49:13Z</time>
      </trkpt>
      <trkpt lat="49.32895" lon="1.22553">
        <ele>36.4</ele>
        <time>2011-05-01T07:49:24Z</time>
      </trkpt>
      <trkpt lat="49.32938" lon="1.22533">
        <ele>36.4</ele>
        <time>2011-05-01T07:49:33Z</time>
      </trkpt>
      <trkpt lat="49.32984" lon="1.22516">
        <ele>36.4</ele>
        <time>2011-05-01T07:49:41Z</time>
      </trkpt>
      <trkpt lat="49.33038" lon="1.22507">
        <ele>36.4</ele>
        <time>2011-05-01T07:49:50Z</time>
      </trkpt>
      <trkpt lat="49.33066" lon="1.22503">
        <ele>36.2</ele>
        <time>2011-05-01T07:49:55Z</time>
      </trkpt>
      <trkpt lat="49.33077" lon="1.22501">
        <ele>36</ele>
        <time>2011-05-01T07:49:57Z</time>
      </trkpt>
      <trkpt lat="49.33087" lon="1.225">
        <ele>35.6</ele>
        <time>2011-05-01T07:49:59Z</time>
      </trkpt>
      <trkpt lat="49.33097" lon="1.22499">
        <ele>35.4</ele>
        <time>2011-05-01T07:50:01Z</time>
      </trkpt>
      <trkpt lat="49.33101" lon="1.22499">
        <ele>35.4</ele>
        <time>2011-05-01T07:50:02Z</time>
      </trkpt>
      <trkpt lat="49.33117" lon="1.22498">
        <ele>35</ele>
        <time>2011-05-01T07:50:06Z</time>
      </trkpt>
      <trkpt lat="49.33126" lon="1.22514">
        <ele>34.8</ele>
        <time>2011-05-01T07:50:10Z</time>
      </trkpt>
      <trkpt lat="49.33127" lon="1.2252">
        <ele>35</ele>
        <time>2011-05-01T07:50:11Z</time>
      </trkpt>
      <trkpt lat="49.33129" lon="1.2253">
        <ele>35.4</ele>
        <time>2011-05-01T07:50:13Z</time>
      </trkpt>
      <trkpt lat="49.33132" lon="1.2254">
        <ele>35.6</ele>
        <time>2011-05-01T07:50:15Z</time>
      </trkpt>
      <trkpt lat="49.33134" lon="1.22549">
        <ele>36</ele>
        <time>2011-05-01T07:50:17Z</time>
      </trkpt>
      <trkpt lat="49.33135" lon="1.22559">
        <ele>36.4</ele>
        <time>2011-05-01T07:50:19Z</time>
      </trkpt>
      <trkpt lat="49.33136" lon="1.2257">
        <ele>37</ele>
        <time>2011-05-01T07:50:21Z</time>
      </trkpt>
      <trkpt lat="49.33138" lon="1.22579">
        <ele>37.2</ele>
        <time>2011-05-01T07:50:23Z</time>
      </trkpt>
      <trkpt lat="49.33139" lon="1.22589">
        <ele>37.6</ele>
        <time>2011-05-01T07:50:25Z</time>
      </trkpt>
      <trkpt lat="49.3314" lon="1.22594">
        <ele>37.8</ele>
        <time>2011-05-01T07:50:26Z</time>
      </trkpt>
      <trkpt lat="49.33141" lon="1.22605">
        <ele>38.4</ele>
        <time>2011-05-01T07:50:28Z</time>
      </trkpt>
      <trkpt lat="49.33143" lon="1.22616">
        <ele>39</ele>
        <time>2011-05-01T07:50:30Z</time>
      </trkpt>
      <trkpt lat="49.33145" lon="1.22626">
        <ele>39.4</ele>
        <time>2011-05-01T07:50:32Z</time>
      </trkpt>
      <trkpt lat="49.33147" lon="1.22636">
        <ele>39.6</ele>
        <time>2011-05-01T07:50:34Z</time>
      </trkpt>
      <trkpt lat="49.33151" lon="1.22678">
        <ele>40.4</ele>
        <time>2011-05-01T07:50:42Z</time>
      </trkpt>
      <trkpt lat="49.33152" lon="1.22694">
        <ele>40.8</ele>
        <time>2011-05-01T07:50:45Z</time>
      </trkpt>
      <trkpt lat="49.33154" lon="1.22705">
        <ele>41.2</ele>
        <time>2011-05-01T07:50:47Z</time>
      </trkpt>
      <trkpt lat="49.33154" lon="1.22716">
        <ele>41.6</ele>
        <time>2011-05-01T07:50:49Z</time>
      </trkpt>
      <trkpt lat="49.33156" lon="1.22728">
        <ele>41.8</ele>
        <time>2011-05-01T07:50:51Z</time>
      </trkpt>
      <trkpt lat="49.33157" lon="1.2274">
        <ele>42</ele>
        <time>2011-05-01T07:50:53Z</time>
      </trkpt>
      <trkpt lat="49.33162" lon="1.22786">
        <ele>42.6</ele>
        <time>2011-05-01T07:51:00Z</time>
      </trkpt>
      <trkpt lat="49.33163" lon="1.22831">
        <ele>42.8</ele>
        <time>2011-05-01T07:51:06Z</time>
      </trkpt>
      <trkpt lat="49.33154" lon="1.22903">
        <ele>43</ele>
        <time>2011-05-01T07:51:16Z</time>
      </trkpt>
      <trkpt lat="49.33147" lon="1.22972">
        <ele>43</ele>
        <time>2011-05-01T07:51:25Z</time>
      </trkpt>
      <trkpt lat="49.33146" lon="1.22979">
        <ele>43</ele>
        <time>2011-05-01T07:51:26Z</time>
      </trkpt>
      <trkpt lat="49.33144" lon="1.22998">
        <ele>43</ele>
        <time>2011-05-01T07:51:29Z</time>
      </trkpt>
      <trkpt lat="49.33135" lon="1.23045">
        <ele>43</ele>
        <time>2011-05-01T07:51:36Z</time>
      </trkpt>
      <trkpt lat="49.33124" lon="1.231">
        <ele>43</ele>
        <time>2011-05-01T07:51:43Z</time>
      </trkpt>
      <trkpt lat="49.33122" lon="1.23116">
        <ele>43</ele>
        <time>2011-05-01T07:51:45Z</time>
      </trkpt>
      <trkpt lat="49.3312" lon="1.23133">
        <ele>43</ele>
        <time>2011-05-01T07:51:47Z</time>
      </trkpt>
      <trkpt lat="49.33122" lon="1.23181">
        <ele>43</ele>
        <time>2011-05-01T07:51:53Z</time>
      </trkpt>
      <trkpt lat="49.33119" lon="1.23223">
        <ele>43</ele>
        <time>2011-05-01T07:51:58Z</time>
      </trkpt>
      <trkpt lat="49.33118" lon="1.23241">
        <ele>42.8</ele>
        <time>2011-05-01T07:52:00Z</time>
      </trkpt>
      <trkpt lat="49.33117" lon="1.23259">
        <ele>42.6</ele>
        <time>2011-05-01T07:52:02Z</time>
      </trkpt>
      <trkpt lat="49.33117" lon="1.23275">
        <ele>42.2</ele>
        <time>2011-05-01T07:52:04Z</time>
      </trkpt>
      <trkpt lat="49.33117" lon="1.23291">
        <ele>42</ele>
        <time>2011-05-01T07:52:06Z</time>
      </trkpt>
      <trkpt lat="49.33119" lon="1.23307">
        <ele>41.8</ele>
        <time>2011-05-01T07:52:08Z</time>
      </trkpt>
      <trkpt lat="49.33131" lon="1.2336">
        <ele>41.4</ele>
        <time>2011-05-01T07:52:16Z</time>
      </trkpt>
      <trkpt lat="49.33147" lon="1.23428">
        <ele>41.2</ele>
        <time>2011-05-01T07:52:26Z</time>
      </trkpt>
      <trkpt lat="49.33151" lon="1.23456">
        <ele>41.2</ele>
        <time>2011-05-01T07:52:30Z</time>
      </trkpt>
      <trkpt lat="49.33158" lon="1.23478">
        <ele>41.2</ele>
        <time>2011-05-01T07:52:34Z</time>
      </trkpt>
      <trkpt lat="49.33164" lon="1.23495">
        <ele>41.4</ele>
        <time>2011-05-01T07:52:38Z</time>
      </trkpt>
      <trkpt lat="49.33166" lon="1.23505">
        <ele>41.6</ele>
        <time>2011-05-01T07:52:40Z</time>
      </trkpt>
      <trkpt lat="49.33169" lon="1.23515">
        <ele>42</ele>
        <time>2011-05-01T07:52:42Z</time>
      </trkpt>
      <trkpt lat="49.33171" lon="1.23526">
        <ele>42.2</ele>
        <time>2011-05-01T07:52:44Z</time>
      </trkpt>
      <trkpt lat="49.33174" lon="1.23538">
        <ele>42.4</ele>
        <time>2011-05-01T07:52:46Z</time>
      </trkpt>
      <trkpt lat="49.33183" lon="1.23578">
        <ele>42.8</ele>
        <time>2011-05-01T07:52:53Z</time>
      </trkpt>
      <trkpt lat="49.33198" lon="1.23633">
        <ele>43</ele>
        <time>2011-05-01T07:53:03Z</time>
      </trkpt>
      <trkpt lat="49.33207" lon="1.2367">
        <ele>43</ele>
        <time>2011-05-01T07:53:10Z</time>
      </trkpt>
      <trkpt lat="49.33218" lon="1.23711">
        <ele>43.4</ele>
        <time>2011-05-01T07:53:17Z</time>
      </trkpt>
      <trkpt lat="49.3322" lon="1.23723">
        <ele>43.6</ele>
        <time>2011-05-01T07:53:19Z</time>
      </trkpt>
      <trkpt lat="49.33223" lon="1.23734">
        <ele>44</ele>
        <time>2011-05-01T07:53:21Z</time>
      </trkpt>
      <trkpt lat="49.33225" lon="1.23747">
        <ele>44.2</ele>
        <time>2011-05-01T07:53:23Z</time>
      </trkpt>
      <trkpt lat="49.33227" lon="1.23755">
        <ele>44.2</ele>
        <time>2011-05-01T07:53:24Z</time>
      </trkpt>
      <trkpt lat="49.3324" lon="1.23827">
        <ele>44.8</ele>
        <time>2011-05-01T07:53:34Z</time>
      </trkpt>
      <trkpt lat="49.33244" lon="1.23848">
        <ele>44.8</ele>
        <time>2011-05-01T07:53:37Z</time>
      </trkpt>
      <trkpt lat="49.33247" lon="1.23861">
        <ele>44.4</ele>
        <time>2011-05-01T07:53:39Z</time>
      </trkpt>
      <trkpt lat="49.33251" lon="1.23876">
        <ele>44.2</ele>
        <time>2011-05-01T07:53:41Z</time>
      </trkpt>
      <trkpt lat="49.33254" lon="1.23892">
        <ele>44</ele>
        <time>2011-05-01T07:53:43Z</time>
      </trkpt>
      <trkpt lat="49.33257" lon="1.2391">
        <ele>43.6</ele>
        <time>2011-05-01T07:53:45Z</time>
      </trkpt>
      <trkpt lat="49.33261" lon="1.23929">
        <ele>43</ele>
        <time>2011-05-01T07:53:47Z</time>
      </trkpt>
      <trkpt lat="49.33265" lon="1.23946">
        <ele>42.6</ele>
        <time>2011-05-01T07:53:49Z</time>
      </trkpt>
      <trkpt lat="49.3327" lon="1.23962">
        <ele>42</ele>
        <time>2011-05-01T07:53:51Z</time>
      </trkpt>
      <trkpt lat="49.33275" lon="1.23979">
        <ele>41.4</ele>
        <time>2011-05-01T07:53:53Z</time>
      </trkpt>
      <trkpt lat="49.3328" lon="1.23997">
        <ele>40.8</ele>
        <time>2011-05-01T07:53:55Z</time>
      </trkpt>
      <trkpt lat="49.33286" lon="1.24014">
        <ele>40.4</ele>
        <time>2011-05-01T07:53:57Z</time>
      </trkpt>
      <trkpt lat="49.33291" lon="1.24032">
        <ele>40</ele>
        <time>2011-05-01T07:53:59Z</time>
      </trkpt>
      <trkpt lat="49.33294" lon="1.2404">
        <ele>39.8</ele>
        <time>2011-05-01T07:54:00Z</time>
      </trkpt>
      <trkpt lat="49.33299" lon="1.24056">
        <ele>39.2</ele>
        <time>2011-05-01T07:54:02Z</time>
      </trkpt>
      <trkpt lat="49.33304" lon="1.24071">
        <ele>38.6</ele>
        <time>2011-05-01T07:54:04Z</time>
      </trkpt>
      <trkpt lat="49.33309" lon="1.24086">
        <ele>38.2</ele>
        <time>2011-05-01T07:54:06Z</time>
      </trkpt>
      <trkpt lat="49.33314" lon="1.241">
        <ele>38</ele>
        <time>2011-05-01T07:54:08Z</time>
      </trkpt>
      <trkpt lat="49.33325" lon="1.24132">
        <ele>37.4</ele>
        <time>2011-05-01T07:54:13Z</time>
      </trkpt>
      <trkpt lat="49.33328" lon="1.24145">
        <ele>37.2</ele>
        <time>2011-05-01T07:54:15Z</time>
      </trkpt>
      <trkpt lat="49.33332" lon="1.24202">
        <ele>36.8</ele>
        <time>2011-05-01T07:54:22Z</time>
      </trkpt>
      <trkpt lat="49.33331" lon="1.24284">
        <ele>36.6</ele>
        <time>2011-05-01T07:54:31Z</time>
      </trkpt>
      <trkpt lat="49.33328" lon="1.2434">
        <ele>36.6</ele>
        <time>2011-05-01T07:54:38Z</time>
      </trkpt>
      <trkpt lat="49.33326" lon="1.24347">
        <ele>36.6</ele>
        <time>2011-05-01T07:54:39Z</time>
      </trkpt>
      <trkpt lat="49.33321" lon="1.24385">
        <ele>36.6</ele>
        <time>2011-05-01T07:54:44Z</time>
      </trkpt>
      <trkpt lat="49.33325" lon="1.24411">
        <ele>36.6</ele>
        <time>2011-05-01T07:54:48Z</time>
      </trkpt>
      <trkpt lat="49.33327" lon="1.24416">
        <ele>36.6</ele>
        <time>2011-05-01T07:54:49Z</time>
      </trkpt>
      <trkpt lat="49.33342" lon="1.2446">
        <ele>36.6</ele>
        <time>2011-05-01T07:54:59Z</time>
      </trkpt>
      <trkpt lat="49.3335" lon="1.24481">
        <ele>36.6</ele>
        <time>2011-05-01T07:55:04Z</time>
      </trkpt>
      <trkpt lat="49.33354" lon="1.2449">
        <ele>36.8</ele>
        <time>2011-05-01T07:55:06Z</time>
      </trkpt>
      <trkpt lat="49.33357" lon="1.24499">
        <ele>37.2</ele>
        <time>2011-05-01T07:55:08Z</time>
      </trkpt>
      <trkpt lat="49.3336" lon="1.24508">
        <ele>37.4</ele>
        <time>2011-05-01T07:55:10Z</time>
      </trkpt>
      <trkpt lat="49.33364" lon="1.24517">
        <ele>37.6</ele>
        <time>2011-05-01T07:55:12Z</time>
      </trkpt>
      <trkpt lat="49.33368" lon="1.24526">
        <ele>37.8</ele>
        <time>2011-05-01T07:55:14Z</time>
      </trkpt>
      <trkpt lat="49.33372" lon="1.24537">
        <ele>38</ele>
        <time>2011-05-01T07:55:16Z</time>
      </trkpt>
      <trkpt lat="49.33387" lon="1.24579">
        <ele>38.2</ele>
        <time>2011-05-01T07:55:23Z</time>
      </trkpt>
      <trkpt lat="49.33404" lon="1.24631">
        <ele>38.4</ele>
        <time>2011-05-01T07:55:31Z</time>
      </trkpt>
      <trkpt lat="49.33422" lon="1.24685">
        <ele>38.6</ele>
        <time>2011-05-01T07:55:39Z</time>
      </trkpt>
      <trkpt lat="49.33435" lon="1.24727">
        <ele>38.4</ele>
        <time>2011-05-01T07:55:45Z</time>
      </trkpt>
      <trkpt lat="49.3344" lon="1.24742">
        <ele>38</ele>
        <time>2011-05-01T07:55:47Z</time>
      </trkpt>
      <trkpt lat="49.33444" lon="1.24757">
        <ele>37.6</ele>
        <time>2011-05-01T07:55:49Z</time>
      </trkpt>
      <trkpt lat="49.33448" lon="1.24772">
        <ele>37.4</ele>
        <time>2011-05-01T07:55:51Z</time>
      </trkpt>
      <trkpt lat="49.33453" lon="1.24786">
        <ele>37.2</ele>
        <time>2011-05-01T07:55:53Z</time>
      </trkpt>
      <trkpt lat="49.33468" lon="1.24836">
        <ele>36.8</ele>
        <time>2011-05-01T07:56:00Z</time>
      </trkpt>
      <trkpt lat="49.33486" lon="1.24887">
        <ele>36.6</ele>
        <time>2011-05-01T07:56:09Z</time>
      </trkpt>
      <trkpt lat="49.33499" lon="1.24918">
        <ele>36.4</ele>
        <time>2011-05-01T07:56:15Z</time>
      </trkpt>
      <trkpt lat="49.33516" lon="1.24955">
        <ele>36.4</ele>
        <time>2011-05-01T07:56:22Z</time>
      </trkpt>
      <trkpt lat="49.33534" lon="1.24999">
        <ele>36.4</ele>
        <time>2011-05-01T07:56:30Z</time>
      </trkpt>
      <trkpt lat="49.33552" lon="1.25031">
        <ele>36.4</ele>
        <time>2011-05-01T07:56:37Z</time>
      </trkpt>
      <trkpt lat="49.3356" lon="1.25047">
        <ele>36.4</ele>
        <time>2011-05-01T07:56:40Z</time>
      </trkpt>
      <trkpt lat="49.3357" lon="1.25083">
        <ele>36.4</ele>
        <time>2011-05-01T07:56:46Z</time>
      </trkpt>
      <trkpt lat="49.33581" lon="1.25123">
        <ele>36.4</ele>
        <time>2011-05-01T07:56:53Z</time>
      </trkpt>
      <trkpt lat="49.3359" lon="1.25148">
        <ele>36.4</ele>
        <time>2011-05-01T07:56:58Z</time>
      </trkpt>
      <trkpt lat="49.33599" lon="1.25165">
        <ele>36.6</ele>
        <time>2011-05-01T07:57:02Z</time>
      </trkpt>
      <trkpt lat="49.33604" lon="1.25174">
        <ele>37</ele>
        <time>2011-05-01T07:57:04Z</time>
      </trkpt>
      <trkpt lat="49.33608" lon="1.25182">
        <ele>37.2</ele>
        <time>2011-05-01T07:57:06Z</time>
      </trkpt>
      <trkpt lat="49.33612" lon="1.25191">
        <ele>37.4</ele>
        <time>2011-05-01T07:57:08Z</time>
      </trkpt>
      <trkpt lat="49.33615" lon="1.25199">
        <ele>37.8</ele>
        <time>2011-05-01T07:57:10Z</time>
      </trkpt>
      <trkpt lat="49.33618" lon="1.25207">
        <ele>38.4</ele>
        <time>2011-05-01T07:57:12Z</time>
      </trkpt>
      <trkpt lat="49.33621" lon="1.25214">
        <ele>38.8</ele>
        <time>2011-05-01T07:57:14Z</time>
      </trkpt>
      <trkpt lat="49.33624" lon="1.25222">
        <ele>39.2</ele>
        <time>2011-05-01T07:57:16Z</time>
      </trkpt>
      <trkpt lat="49.33628" lon="1.25231">
        <ele>39.4</ele>
        <time>2011-05-01T07:57:18Z</time>
      </trkpt>
      <trkpt lat="49.3363" lon="1.25237">
        <ele>39.8</ele>
        <time>2011-05-01T07:57:19Z</time>
      </trkpt>
      <trkpt lat="49.33633" lon="1.25247">
        <ele>40.2</ele>
        <time>2011-05-01T07:57:21Z</time>
      </trkpt>
      <trkpt lat="49.33636" lon="1.25257">
        <ele>40.8</ele>
        <time>2011-05-01T07:57:23Z</time>
      </trkpt>
      <trkpt lat="49.33639" lon="1.25266">
        <ele>41.2</ele>
        <time>2011-05-01T07:57:25Z</time>
      </trkpt>
      <trkpt lat="49.3364" lon="1.2527">
        <ele>41.2</ele>
        <time>2011-05-01T07:57:26Z</time>
      </trkpt>
      <trkpt lat="49.33632" lon="1.25292">
        <ele>41.8</ele>
        <time>2011-05-01T07:57:30Z</time>
      </trkpt>
      <trkpt lat="49.33626" lon="1.25298">
        <ele>41.8</ele>
        <time>2011-05-01T07:57:31Z</time>
      </trkpt>
      <trkpt lat="49.33604" lon="1.25317">
        <ele>41.8</ele>
        <time>2011-05-01T07:57:34Z</time>
      </trkpt>
      <trkpt lat="49.33591" lon="1.25329">
        <ele>41.2</ele>
        <time>2011-05-01T07:57:36Z</time>
      </trkpt>
      <trkpt lat="49.33586" lon="1.25333">
        <ele>40.8</ele>
        <time>2011-05-01T07:57:37Z</time>
      </trkpt>
      <trkpt lat="49.33585" lon="1.25346">
        <ele>39.8</ele>
        <time>2011-05-01T07:57:40Z</time>
      </trkpt>
      <trkpt lat="49.33592" lon="1.25356">
        <ele>38.8</ele>
        <time>2011-05-01T07:57:42Z</time>
      </trkpt>
      <trkpt lat="49.33596" lon="1.25368">
        <ele>38.2</ele>
        <time>2011-05-01T07:57:44Z</time>
      </trkpt>
      <trkpt lat="49.33597" lon="1.25374">
        <ele>37.8</ele>
        <time>2011-05-01T07:57:45Z</time>
      </trkpt>
      <trkpt lat="49.33599" lon="1.25381">
        <ele>37.6</ele>
        <time>2011-05-01T07:57:46Z</time>
      </trkpt>
      <trkpt lat="49.33602" lon="1.25395">
        <ele>37.2</ele>
        <time>2011-05-01T07:57:48Z</time>
      </trkpt>
      <trkpt lat="49.33609" lon="1.25422">
        <ele>36.4</ele>
        <time>2011-05-01T07:57:52Z</time>
      </trkpt>
      <trkpt lat="49.33613" lon="1.25435">
        <ele>36.2</ele>
        <time>2011-05-01T07:57:54Z</time>
      </trkpt>
      <trkpt lat="49.33622" lon="1.25484">
        <ele>35.6</ele>
        <time>2011-05-01T07:58:02Z</time>
      </trkpt>
      <trkpt lat="49.3363" lon="1.25523">
        <ele>35.4</ele>
        <time>2011-05-01T07:58:08Z</time>
      </trkpt>
      <trkpt lat="49.33641" lon="1.25552">
        <ele>35.4</ele>
        <time>2011-05-01T07:58:14Z</time>
      </trkpt>
      <trkpt lat="49.33646" lon="1.25564">
        <ele>35.2</ele>
        <time>2011-05-01T07:58:17Z</time>
      </trkpt>
      <trkpt lat="49.33638" lon="1.25581">
        <ele>35.2</ele>
        <time>2011-05-01T07:58:21Z</time>
      </trkpt>
      <trkpt lat="49.33636" lon="1.25585">
        <ele>35</ele>
        <time>2011-05-01T07:58:22Z</time>
      </trkpt>
      <trkpt lat="49.33637" lon="1.25595">
        <ele>34.6</ele>
        <time>2011-05-01T07:58:24Z</time>
      </trkpt>
      <trkpt lat="49.3364" lon="1.25605">
        <ele>34.4</ele>
        <time>2011-05-01T07:58:26Z</time>
      </trkpt>
      <trkpt lat="49.33644" lon="1.25615">
        <ele>34.2</ele>
        <time>2011-05-01T07:58:28Z</time>
      </trkpt>
      <trkpt lat="49.33646" lon="1.25623">
        <ele>34</ele>
        <time>2011-05-01T07:58:30Z</time>
      </trkpt>
      <trkpt lat="49.33652" lon="1.25649">
        <ele>33.6</ele>
        <time>2011-05-01T07:58:35Z</time>
      </trkpt>
      <trkpt lat="49.33655" lon="1.25663">
        <ele>33.4</ele>
        <time>2011-05-01T07:58:38Z</time>
      </trkpt>
      <trkpt lat="49.33653" lon="1.25681">
        <ele>33.4</ele>
        <time>2011-05-01T07:58:43Z</time>
      </trkpt>
      <trkpt lat="49.33658" lon="1.25697">
        <ele>33.2</ele>
        <time>2011-05-01T07:58:47Z</time>
      </trkpt>
      <trkpt lat="49.33659" lon="1.25703">
        <ele>33.2</ele>
        <time>2011-05-01T07:58:48Z</time>
      </trkpt>
      <trkpt lat="49.33664" lon="1.25739">
        <ele>33.2</ele>
        <time>2011-05-01T07:58:54Z</time>
      </trkpt>
      <trkpt lat="49.3367" lon="1.25773">
        <ele>33.2</ele>
        <time>2011-05-01T07:59:00Z</time>
      </trkpt>
      <trkpt lat="49.33679" lon="1.25816">
        <ele>33.2</ele>
        <time>2011-05-01T07:59:07Z</time>
      </trkpt>
      <trkpt lat="49.33685" lon="1.25841">
        <ele>33.2</ele>
        <time>2011-05-01T07:59:12Z</time>
      </trkpt>
      <trkpt lat="49.33691" lon="1.25866">
        <ele>33.2</ele>
        <time>2011-05-01T07:59:17Z</time>
      </trkpt>
      <trkpt lat="49.33695" lon="1.25884">
        <ele>33.2</ele>
        <time>2011-05-01T07:59:21Z</time>
      </trkpt>
      <trkpt lat="49.33702" lon="1.25913">
        <ele>33.2</ele>
        <time>2011-05-01T07:59:27Z</time>
      </trkpt>
      <trkpt lat="49.33703" lon="1.25918">
        <ele>33.2</ele>
        <time>2011-05-01T07:59:28Z</time>
      </trkpt>
      <trkpt lat="49.33711" lon="1.25924">
        <ele>33.2</ele>
        <time>2011-05-01T07:59:32Z</time>
      </trkpt>
      <trkpt lat="49.33715" lon="1.25919">
        <ele>33.2</ele>
        <time>2011-05-01T07:59:34Z</time>
      </trkpt>
      <trkpt lat="49.33718" lon="1.25898">
        <ele>33.2</ele>
        <time>2011-05-01T07:59:40Z</time>
      </trkpt>
      <trkpt lat="49.33722" lon="1.25896">
        <ele>33.2</ele>
        <time>2011-05-01T07:59:43Z</time>
      </trkpt>
      <trkpt lat="49.33728" lon="1.2591">
        <ele>33.4</ele>
        <time>2011-05-01T07:59:48Z</time>
      </trkpt>
      <trkpt lat="49.33731" lon="1.25914">
        <ele>33.8</ele>
        <time>2011-05-01T07:59:50Z</time>
      </trkpt>
      <trkpt lat="49.33732" lon="1.25915">
        <ele>33.8</ele>
        <time>2011-05-01T07:59:51Z</time>
      </trkpt>
      <trkpt lat="49.33736" lon="1.25916">
        <ele>34.2</ele>
        <time>2011-05-01T07:59:54Z</time>
      </trkpt>
      <trkpt lat="49.33737" lon="1.25917">
        <ele>34.4</ele>
        <time>2011-05-01T07:59:56Z</time>
      </trkpt>
      <trkpt lat="49.33737" lon="1.25919">
        <ele>34.8</ele>
        <time>2011-05-01T07:59:57Z</time>
      </trkpt>
      <trkpt lat="49.33737" lon="1.25921">
        <ele>35.4</ele>
        <time>2011-05-01T07:59:59Z</time>
      </trkpt>
      <trkpt lat="49.3374" lon="1.25922">
        <ele>35.8</ele>
        <time>2011-05-01T08:00:01Z</time>
      </trkpt>
      <trkpt lat="49.33742" lon="1.25924">
        <ele>36.4</ele>
        <time>2011-05-01T08:00:03Z</time>
      </trkpt>
      <trkpt lat="49.33744" lon="1.25925">
        <ele>37</ele>
        <time>2011-05-01T08:00:05Z</time>
      </trkpt>
      <trkpt lat="49.33746" lon="1.25926">
        <ele>37.6</ele>
        <time>2011-05-01T08:00:07Z</time>
      </trkpt>
      <trkpt lat="49.33747" lon="1.25928">
        <ele>38</ele>
        <time>2011-05-01T08:00:08Z</time>
      </trkpt>
      <trkpt lat="49.3375" lon="1.25931">
        <ele>38.8</ele>
        <time>2011-05-01T08:00:10Z</time>
      </trkpt>
      <trkpt lat="49.33753" lon="1.25933">
        <ele>39.6</ele>
        <time>2011-05-01T08:00:12Z</time>
      </trkpt>
      <trkpt lat="49.33755" lon="1.25934">
        <ele>40.2</ele>
        <time>2011-05-01T08:00:14Z</time>
      </trkpt>
      <trkpt lat="49.33755" lon="1.25935">
        <ele>41</ele>
        <time>2011-05-01T08:00:16Z</time>
      </trkpt>
      <trkpt lat="49.33755" lon="1.25936">
        <ele>41.8</ele>
        <time>2011-05-01T08:00:18Z</time>
      </trkpt>
      <trkpt lat="49.33756" lon="1.25937">
        <ele>42.2</ele>
        <time>2011-05-01T08:00:20Z</time>
      </trkpt>
      <trkpt lat="49.33757" lon="1.25937">
        <ele>42.6</ele>
        <time>2011-05-01T08:00:22Z</time>
      </trkpt>
      <trkpt lat="49.33764" lon="1.25939">
        <ele>43.8</ele>
        <time>2011-05-01T08:00:29Z</time>
      </trkpt>
      <trkpt lat="49.33767" lon="1.25939">
        <ele>44.4</ele>
        <time>2011-05-01T08:00:31Z</time>
      </trkpt>
      <trkpt lat="49.33769" lon="1.25939">
        <ele>44.8</ele>
        <time>2011-05-01T08:00:33Z</time>
      </trkpt>
      <trkpt lat="49.33771" lon="1.2594">
        <ele>45</ele>
        <time>2011-05-01T08:00:35Z</time>
      </trkpt>
      <trkpt lat="49.33773" lon="1.2594">
        <ele>45.6</ele>
        <time>2011-05-01T08:00:37Z</time>
      </trkpt>
      <trkpt lat="49.33774" lon="1.2594">
        <ele>46.2</ele>
        <time>2011-05-01T08:00:39Z</time>
      </trkpt>
      <trkpt lat="49.33775" lon="1.2594">
        <ele>46.6</ele>
        <time>2011-05-01T08:00:41Z</time>
      </trkpt>
      <trkpt lat="49.33777" lon="1.25941">
        <ele>47</ele>
        <time>2011-05-01T08:00:43Z</time>
      </trkpt>
      <trkpt lat="49.33779" lon="1.25942">
        <ele>47.4</ele>
        <time>2011-05-01T08:00:45Z</time>
      </trkpt>
      <trkpt lat="49.33782" lon="1.25943">
        <ele>48</ele>
        <time>2011-05-01T08:00:48Z</time>
      </trkpt>
      <trkpt lat="49.33784" lon="1.25943">
        <ele>48.6</ele>
        <time>2011-05-01T08:00:50Z</time>
      </trkpt>
      <trkpt lat="49.33785" lon="1.25943">
        <ele>49</ele>
        <time>2011-05-01T08:00:52Z</time>
      </trkpt>
      <trkpt lat="49.33786" lon="1.25944">
        <ele>49.4</ele>
        <time>2011-05-01T08:00:54Z</time>
      </trkpt>
      <trkpt lat="49.33787" lon="1.25945">
        <ele>49.6</ele>
        <time>2011-05-01T08:00:56Z</time>
      </trkpt>
      <trkpt lat="49.33791" lon="1.25948">
        <ele>50.4</ele>
        <time>2011-05-01T08:01:00Z</time>
      </trkpt>
      <trkpt lat="49.33792" lon="1.25949">
        <ele>50.8</ele>
        <time>2011-05-01T08:01:02Z</time>
      </trkpt>
      <trkpt lat="49.33792" lon="1.25951">
        <ele>51.4</ele>
        <time>2011-05-01T08:01:04Z</time>
      </trkpt>
      <trkpt lat="49.33793" lon="1.25951">
        <ele>51.6</ele>
        <time>2011-05-01T08:01:06Z</time>
      </trkpt>
      <trkpt lat="49.33795" lon="1.25952">
        <ele>52</ele>
        <time>2011-05-01T08:01:08Z</time>
      </trkpt>
      <trkpt lat="49.33801" lon="1.25955">
        <ele>52.6</ele>
        <time>2011-05-01T08:01:12Z</time>
      </trkpt>
      <trkpt lat="49.33802" lon="1.25958">
        <ele>53</ele>
        <time>2011-05-01T08:01:14Z</time>
      </trkpt>
      <trkpt lat="49.33804" lon="1.25959">
        <ele>53.4</ele>
        <time>2011-05-01T08:01:16Z</time>
      </trkpt>
      <trkpt lat="49.33806" lon="1.25959">
        <ele>53.8</ele>
        <time>2011-05-01T08:01:18Z</time>
      </trkpt>
      <trkpt lat="49.33808" lon="1.25957">
        <ele>54</ele>
        <time>2011-05-01T08:01:20Z</time>
      </trkpt>
      <trkpt lat="49.33809" lon="1.25957">
        <ele>54.4</ele>
        <time>2011-05-01T08:01:21Z</time>
      </trkpt>
      <trkpt lat="49.3381" lon="1.25956">
        <ele>55</ele>
        <time>2011-05-01T08:01:23Z</time>
      </trkpt>
      <trkpt lat="49.33811" lon="1.25955">
        <ele>55.4</ele>
        <time>2011-05-01T08:01:25Z</time>
      </trkpt>
      <trkpt lat="49.33812" lon="1.25955">
        <ele>55.8</ele>
        <time>2011-05-01T08:01:27Z</time>
      </trkpt>
      <trkpt lat="49.33813" lon="1.25957">
        <ele>56</ele>
        <time>2011-05-01T08:01:29Z</time>
      </trkpt>
      <trkpt lat="49.33814" lon="1.25957">
        <ele>56.4</ele>
        <time>2011-05-01T08:01:30Z</time>
      </trkpt>
      <trkpt lat="49.33817" lon="1.25958">
        <ele>57</ele>
        <time>2011-05-01T08:01:32Z</time>
      </trkpt>
      <trkpt lat="49.33818" lon="1.25958">
        <ele>57.4</ele>
        <time>2011-05-01T08:01:34Z</time>
      </trkpt>
      <trkpt lat="49.3382" lon="1.25958">
        <ele>57.8</ele>
        <time>2011-05-01T08:01:36Z</time>
      </trkpt>
      <trkpt lat="49.33822" lon="1.25957">
        <ele>58.2</ele>
        <time>2011-05-01T08:01:38Z</time>
      </trkpt>
      <trkpt lat="49.33824" lon="1.25957">
        <ele>58.4</ele>
        <time>2011-05-01T08:01:39Z</time>
      </trkpt>
      <trkpt lat="49.33826" lon="1.25956">
        <ele>59</ele>
        <time>2011-05-01T08:01:41Z</time>
      </trkpt>
      <trkpt lat="49.33828" lon="1.25955">
        <ele>59.6</ele>
        <time>2011-05-01T08:01:43Z</time>
      </trkpt>
      <trkpt lat="49.33828" lon="1.25955">
        <ele>59.8</ele>
        <time>2011-05-01T08:01:44Z</time>
      </trkpt>
      <trkpt lat="49.33833" lon="1.25952">
        <ele>62.6</ele>
        <time>2011-05-01T08:01:58Z</time>
      </trkpt>
      <trkpt lat="49.33834" lon="1.25951">
        <ele>62.6</ele>
        <time>2011-05-01T08:01:59Z</time>
      </trkpt>
      <trkpt lat="49.33835" lon="1.2595">
        <ele>62.8</ele>
        <time>2011-05-01T08:02:00Z</time>
      </trkpt>
      <trkpt lat="49.33836" lon="1.25948">
        <ele>62.8</ele>
        <time>2011-05-01T08:02:01Z</time>
      </trkpt>
      <trkpt lat="49.33839" lon="1.25947">
        <ele>63</ele>
        <time>2011-05-01T08:02:03Z</time>
      </trkpt>
      <trkpt lat="49.3384" lon="1.25946">
        <ele>63</ele>
        <time>2011-05-01T08:02:04Z</time>
      </trkpt>
      <trkpt lat="49.33842" lon="1.25945">
        <ele>63.2</ele>
        <time>2011-05-01T08:02:07Z</time>
      </trkpt>
      <trkpt lat="49.33847" lon="1.25948">
        <ele>64.6</ele>
        <time>2011-05-01T08:02:21Z</time>
      </trkpt>
      <trkpt lat="49.33847" lon="1.25948">
        <ele>64.8</ele>
        <time>2011-05-01T08:02:22Z</time>
      </trkpt>
      <trkpt lat="49.33848" lon="1.25949">
        <ele>64.8</ele>
        <time>2011-05-01T08:02:23Z</time>
      </trkpt>
      <trkpt lat="49.33849" lon="1.2595">
        <ele>65</ele>
        <time>2011-05-01T08:02:24Z</time>
      </trkpt>
      <trkpt lat="49.3385" lon="1.2595">
        <ele>65.2</ele>
        <time>2011-05-01T08:02:26Z</time>
      </trkpt>
      <trkpt lat="49.33852" lon="1.25951">
        <ele>65.4</ele>
        <time>2011-05-01T08:02:30Z</time>
      </trkpt>
      <trkpt lat="49.33854" lon="1.25952">
        <ele>65.4</ele>
        <time>2011-05-01T08:02:32Z</time>
      </trkpt>
      <trkpt lat="49.33856" lon="1.25954">
        <ele>65.6</ele>
        <time>2011-05-01T08:02:34Z</time>
      </trkpt>
      <trkpt lat="49.33857" lon="1.25955">
        <ele>65.8</ele>
        <time>2011-05-01T08:02:36Z</time>
      </trkpt>
      <trkpt lat="49.33859" lon="1.25957">
        <ele>66.2</ele>
        <time>2011-05-01T08:02:38Z</time>
      </trkpt>
      <trkpt lat="49.33861" lon="1.25959">
        <ele>66.4</ele>
        <time>2011-05-01T08:02:40Z</time>
      </trkpt>
      <trkpt lat="49.33863" lon="1.25961">
        <ele>66.8</ele>
        <time>2011-05-01T08:02:42Z</time>
      </trkpt>
      <trkpt lat="49.33865" lon="1.25964">
        <ele>67</ele>
        <time>2011-05-01T08:02:44Z</time>
      </trkpt>
      <trkpt lat="49.33879" lon="1.25978">
        <ele>67.4</ele>
        <time>2011-05-01T08:02:50Z</time>
      </trkpt>
      <trkpt lat="49.33884" lon="1.25981">
        <ele>67.4</ele>
        <time>2011-05-01T08:02:52Z</time>
      </trkpt>
      <trkpt lat="49.33891" lon="1.25984">
        <ele>67.6</ele>
        <time>2011-05-01T08:02:56Z</time>
      </trkpt>
      <trkpt lat="49.33898" lon="1.25991">
        <ele>67.8</ele>
        <time>2011-05-01T08:03:02Z</time>
      </trkpt>
      <trkpt lat="49.33908" lon="1.25999">
        <ele>67.8</ele>
        <time>2011-05-01T08:03:07Z</time>
      </trkpt>
      <trkpt lat="49.33911" lon="1.26005">
        <ele>67.8</ele>
        <time>2011-05-01T08:03:12Z</time>
      </trkpt>
      <trkpt lat="49.33912" lon="1.26006">
        <ele>67.8</ele>
        <time>2011-05-01T08:03:13Z</time>
      </trkpt>
      <trkpt lat="49.33922" lon="1.26024">
        <ele>67.8</ele>
        <time>2011-05-01T08:03:19Z</time>
      </trkpt>
      <trkpt lat="49.33934" lon="1.26043">
        <ele>67.8</ele>
        <time>2011-05-01T08:03:23Z</time>
      </trkpt>
      <trkpt lat="49.33939" lon="1.26052">
        <ele>67.8</ele>
        <time>2011-05-01T08:03:25Z</time>
      </trkpt>
      <trkpt lat="49.33961" lon="1.26088">
        <ele>67.8</ele>
        <time>2011-05-01T08:03:29Z</time>
      </trkpt>
      <trkpt lat="49.33976" lon="1.26108">
        <ele>67.6</ele>
        <time>2011-05-01T08:03:31Z</time>
      </trkpt>
      <trkpt lat="49.33985" lon="1.26128">
        <ele>67.2</ele>
        <time>2011-05-01T08:03:33Z</time>
      </trkpt>
      <trkpt lat="49.33989" lon="1.26142">
        <ele>66.8</ele>
        <time>2011-05-01T08:03:35Z</time>
      </trkpt>
      <trkpt lat="49.33991" lon="1.26148">
        <ele>66.4</ele>
        <time>2011-05-01T08:03:36Z</time>
      </trkpt>
      <trkpt lat="49.33994" lon="1.26156">
        <ele>66.2</ele>
        <time>2011-05-01T08:03:37Z</time>
      </trkpt>
      <trkpt lat="49.34002" lon="1.26178">
        <ele>65.4</ele>
        <time>2011-05-01T08:03:39Z</time>
      </trkpt>
      <trkpt lat="49.34006" lon="1.26189">
        <ele>65</ele>
        <time>2011-05-01T08:03:40Z</time>
      </trkpt>
      <trkpt lat="49.34024" lon="1.26215">
        <ele>63.8</ele>
        <time>2011-05-01T08:03:43Z</time>
      </trkpt>
      <trkpt lat="49.34028" lon="1.26223">
        <ele>62.8</ele>
        <time>2011-05-01T08:03:45Z</time>
      </trkpt>
      <trkpt lat="49.34028" lon="1.26224">
        <ele>62.4</ele>
        <time>2011-05-01T08:03:46Z</time>
      </trkpt>
      <trkpt lat="49.34025" lon="1.26228">
        <ele>61.4</ele>
        <time>2011-05-01T08:03:49Z</time>
      </trkpt>
      <trkpt lat="49.34025" lon="1.26229">
        <ele>60.8</ele>
        <time>2011-05-01T08:03:50Z</time>
      </trkpt>
      <trkpt lat="49.34021" lon="1.26237">
        <ele>59.8</ele>
        <time>2011-05-01T08:03:53Z</time>
      </trkpt>
      <trkpt lat="49.34009" lon="1.2625">
        <ele>59.2</ele>
        <time>2011-05-01T08:03:55Z</time>
      </trkpt>
      <trkpt lat="49.34001" lon="1.26253">
        <ele>58.8</ele>
        <time>2011-05-01T08:03:57Z</time>
      </trkpt>
      <trkpt lat="49.33985" lon="1.2625">
        <ele>58</ele>
        <time>2011-05-01T08:04:02Z</time>
      </trkpt>
      <trkpt lat="49.33982" lon="1.26248">
        <ele>58</ele>
        <time>2011-05-01T08:04:03Z</time>
      </trkpt>
      <trkpt lat="49.33965" lon="1.26247">
        <ele>57.6</ele>
        <time>2011-05-01T08:04:08Z</time>
      </trkpt>
      <trkpt lat="49.3395" lon="1.26247">
        <ele>57.4</ele>
        <time>2011-05-01T08:04:13Z</time>
      </trkpt>
      <trkpt lat="49.33946" lon="1.26245">
        <ele>57.2</ele>
        <time>2011-05-01T08:04:16Z</time>
      </trkpt>
      <trkpt lat="49.33944" lon="1.26243">
        <ele>57.2</ele>
        <time>2011-05-01T08:04:17Z</time>
      </trkpt>
      <trkpt lat="49.33933" lon="1.26239">
        <ele>57.2</ele>
        <time>2011-05-01T08:04:22Z</time>
      </trkpt>
      <trkpt lat="49.33933" lon="1.26238">
        <ele>57</ele>
        <time>2011-05-01T08:04:23Z</time>
      </trkpt>
      <trkpt lat="49.33932" lon="1.26237">
        <ele>57.2</ele>
        <time>2011-05-01T08:04:24Z</time>
      </trkpt>
      <trkpt lat="49.33931" lon="1.26236">
        <ele>57.6</ele>
        <time>2011-05-01T08:04:26Z</time>
      </trkpt>
      <trkpt lat="49.33929" lon="1.26235">
        <ele>57.8</ele>
        <time>2011-05-01T08:04:27Z</time>
      </trkpt>
      <trkpt lat="49.33927" lon="1.26234">
        <ele>57.8</ele>
        <time>2011-05-01T08:04:28Z</time>
      </trkpt>
      <trkpt lat="49.33918" lon="1.26234">
        <ele>58.2</ele>
        <time>2011-05-01T08:04:30Z</time>
      </trkpt>
      <trkpt lat="49.33909" lon="1.26233">
        <ele>58.2</ele>
        <time>2011-05-01T08:04:32Z</time>
      </trkpt>
      <trkpt lat="49.33906" lon="1.26233">
        <ele>58.6</ele>
        <time>2011-05-01T08:04:33Z</time>
      </trkpt>
      <trkpt lat="49.33902" lon="1.26235">
        <ele>59</ele>
        <time>2011-05-01T08:04:35Z</time>
      </trkpt>
      <trkpt lat="49.33895" lon="1.26236">
        <ele>59.4</ele>
        <time>2011-05-01T08:04:37Z</time>
      </trkpt>
      <trkpt lat="49.33888" lon="1.26236">
        <ele>59.8</ele>
        <time>2011-05-01T08:04:39Z</time>
      </trkpt>
      <trkpt lat="49.33879" lon="1.26236">
        <ele>60</ele>
        <time>2011-05-01T08:04:41Z</time>
      </trkpt>
      <trkpt lat="49.33876" lon="1.26237">
        <ele>60.4</ele>
        <time>2011-05-01T08:04:42Z</time>
      </trkpt>
      <trkpt lat="49.33871" lon="1.26241">
        <ele>61</ele>
        <time>2011-05-01T08:04:44Z</time>
      </trkpt>
      <trkpt lat="49.33868" lon="1.26247">
        <ele>61.4</ele>
        <time>2011-05-01T08:04:46Z</time>
      </trkpt>
      <trkpt lat="49.33861" lon="1.26255">
        <ele>61.8</ele>
        <time>2011-05-01T08:04:48Z</time>
      </trkpt>
      <trkpt lat="49.33855" lon="1.26262">
        <ele>62</ele>
        <time>2011-05-01T08:04:50Z</time>
      </trkpt>
      <trkpt lat="49.33849" lon="1.26267">
        <ele>62.4</ele>
        <time>2011-05-01T08:04:52Z</time>
      </trkpt>
      <trkpt lat="49.33844" lon="1.26273">
        <ele>63</ele>
        <time>2011-05-01T08:04:54Z</time>
      </trkpt>
      <trkpt lat="49.33844" lon="1.2628">
        <ele>63.4</ele>
        <time>2011-05-01T08:04:56Z</time>
      </trkpt>
      <trkpt lat="49.33846" lon="1.26283">
        <ele>63.6</ele>
        <time>2011-05-01T08:04:57Z</time>
      </trkpt>
      <trkpt lat="49.33847" lon="1.26286">
        <ele>63.8</ele>
        <time>2011-05-01T08:04:58Z</time>
      </trkpt>
      <trkpt lat="49.33848" lon="1.26295">
        <ele>64</ele>
        <time>2011-05-01T08:05:00Z</time>
      </trkpt>
      <trkpt lat="49.33845" lon="1.26319">
        <ele>64.4</ele>
        <time>2011-05-01T08:05:04Z</time>
      </trkpt>
      <trkpt lat="49.33845" lon="1.26325">
        <ele>64.6</ele>
        <time>2011-05-01T08:05:05Z</time>
      </trkpt>
      <trkpt lat="49.33844" lon="1.26331">
        <ele>64.8</ele>
        <time>2011-05-01T08:05:06Z</time>
      </trkpt>
      <trkpt lat="49.33841" lon="1.26343">
        <ele>65.4</ele>
        <time>2011-05-01T08:05:08Z</time>
      </trkpt>
      <trkpt lat="49.33839" lon="1.26353">
        <ele>65.8</ele>
        <time>2011-05-01T08:05:10Z</time>
      </trkpt>
      <trkpt lat="49.33836" lon="1.26361">
        <ele>66</ele>
        <time>2011-05-01T08:05:12Z</time>
      </trkpt>
      <trkpt lat="49.33832" lon="1.2637">
        <ele>66.4</ele>
        <time>2011-05-01T08:05:14Z</time>
      </trkpt>
      <trkpt lat="49.33829" lon="1.26385">
        <ele>67</ele>
        <time>2011-05-01T08:05:18Z</time>
      </trkpt>
      <trkpt lat="49.33829" lon="1.26387">
        <ele>67.2</ele>
        <time>2011-05-01T08:05:19Z</time>
      </trkpt>
      <trkpt lat="49.33828" lon="1.26388">
        <ele>67.4</ele>
        <time>2011-05-01T08:05:20Z</time>
      </trkpt>
      <trkpt lat="49.33826" lon="1.26392">
        <ele>67.8</ele>
        <time>2011-05-01T08:05:22Z</time>
      </trkpt>
      <trkpt lat="49.33825" lon="1.26397">
        <ele>68.2</ele>
        <time>2011-05-01T08:05:24Z</time>
      </trkpt>
      <trkpt lat="49.33825" lon="1.26403">
        <ele>68.4</ele>
        <time>2011-05-01T08:05:26Z</time>
      </trkpt>
      <trkpt lat="49.33826" lon="1.26407">
        <ele>68.8</ele>
        <time>2011-05-01T08:05:27Z</time>
      </trkpt>
      <trkpt lat="49.33827" lon="1.26411">
        <ele>69</ele>
        <time>2011-05-01T08:05:28Z</time>
      </trkpt>
      <trkpt lat="49.33828" lon="1.26414">
        <ele>69.4</ele>
        <time>2011-05-01T08:05:29Z</time>
      </trkpt>
      <trkpt lat="49.33828" lon="1.26417">
        <ele>69.6</ele>
        <time>2011-05-01T08:05:30Z</time>
      </trkpt>
      <trkpt lat="49.33829" lon="1.26419">
        <ele>69.8</ele>
        <time>2011-05-01T08:05:31Z</time>
      </trkpt>
      <trkpt lat="49.33829" lon="1.26422">
        <ele>70.2</ele>
        <time>2011-05-01T08:05:32Z</time>
      </trkpt>
      <trkpt lat="49.33829" lon="1.26427">
        <ele>71</ele>
        <time>2011-05-01T08:05:34Z</time>
      </trkpt>
      <trkpt lat="49.33831" lon="1.2643">
        <ele>71.6</ele>
        <time>2011-05-01T08:05:36Z</time>
      </trkpt>
      <trkpt lat="49.33832" lon="1.26432">
        <ele>72.2</ele>
        <time>2011-05-01T08:05:38Z</time>
      </trkpt>
      <trkpt lat="49.33833" lon="1.26433">
        <ele>72.6</ele>
        <time>2011-05-01T08:05:39Z</time>
      </trkpt>
      <trkpt lat="49.33834" lon="1.26435">
        <ele>73.2</ele>
        <time>2011-05-01T08:05:41Z</time>
      </trkpt>
      <trkpt lat="49.33835" lon="1.26437">
        <ele>74.8</ele>
        <time>2011-05-01T08:05:47Z</time>
      </trkpt>
      <trkpt lat="49.33835" lon="1.26437">
        <ele>75.2</ele>
        <time>2011-05-01T08:05:48Z</time>
      </trkpt>
      <trkpt lat="49.33835" lon="1.26439">
        <ele>75.8</ele>
        <time>2011-05-01T08:05:50Z</time>
      </trkpt>
      <trkpt lat="49.33836" lon="1.26441">
        <ele>76.4</ele>
        <time>2011-05-01T08:05:52Z</time>
      </trkpt>
      <trkpt lat="49.33836" lon="1.26442">
        <ele>76.8</ele>
        <time>2011-05-01T08:05:54Z</time>
      </trkpt>
      <trkpt lat="49.33837" lon="1.26443">
        <ele>77</ele>
        <time>2011-05-01T08:05:56Z</time>
      </trkpt>
      <trkpt lat="49.33838" lon="1.26444">
        <ele>77.6</ele>
        <time>2011-05-01T08:05:58Z</time>
      </trkpt>
      <trkpt lat="49.33839" lon="1.26445">
        <ele>78.2</ele>
        <time>2011-05-01T08:06:00Z</time>
      </trkpt>
      <trkpt lat="49.3384" lon="1.26447">
        <ele>78.6</ele>
        <time>2011-05-01T08:06:02Z</time>
      </trkpt>
      <trkpt lat="49.33841" lon="1.26447">
        <ele>79</ele>
        <time>2011-05-01T08:06:04Z</time>
      </trkpt>
      <trkpt lat="49.33842" lon="1.26449">
        <ele>79.2</ele>
        <time>2011-05-01T08:06:06Z</time>
      </trkpt>
      <trkpt lat="49.33843" lon="1.2645">
        <ele>79.8</ele>
        <time>2011-05-01T08:06:08Z</time>
      </trkpt>
      <trkpt lat="49.33844" lon="1.26452">
        <ele>80.2</ele>
        <time>2011-05-01T08:06:10Z</time>
      </trkpt>
      <trkpt lat="49.33844" lon="1.26452">
        <ele>80.8</ele>
        <time>2011-05-01T08:06:12Z</time>
      </trkpt>
      <trkpt lat="49.33845" lon="1.26453">
        <ele>81</ele>
        <time>2011-05-01T08:06:14Z</time>
      </trkpt>
      <trkpt lat="49.33845" lon="1.26454">
        <ele>81.4</ele>
        <time>2011-05-01T08:06:16Z</time>
      </trkpt>
      <trkpt lat="49.33846" lon="1.26455">
        <ele>81.6</ele>
        <time>2011-05-01T08:06:18Z</time>
      </trkpt>
      <trkpt lat="49.33846" lon="1.26455">
        <ele>82</ele>
        <time>2011-05-01T08:06:19Z</time>
      </trkpt>
      <trkpt lat="49.33847" lon="1.26456">
        <ele>82.6</ele>
        <time>2011-05-01T08:06:21Z</time>
      </trkpt>
      <trkpt lat="49.33848" lon="1.26456">
        <ele>83</ele>
        <time>2011-05-01T08:06:23Z</time>
      </trkpt>
      <trkpt lat="49.33849" lon="1.26457">
        <ele>83.4</ele>
        <time>2011-05-01T08:06:25Z</time>
      </trkpt>
      <trkpt lat="49.33851" lon="1.26458">
        <ele>83.6</ele>
        <time>2011-05-01T08:06:27Z</time>
      </trkpt>
      <trkpt lat="49.33851" lon="1.2646">
        <ele>84</ele>
        <time>2011-05-01T08:06:29Z</time>
      </trkpt>
      <trkpt lat="49.33852" lon="1.26461">
        <ele>84.6</ele>
        <time>2011-05-01T08:06:31Z</time>
      </trkpt>
      <trkpt lat="49.33853" lon="1.26462">
        <ele>85</ele>
        <time>2011-05-01T08:06:33Z</time>
      </trkpt>
      <trkpt lat="49.33854" lon="1.26463">
        <ele>85.4</ele>
        <time>2011-05-01T08:06:35Z</time>
      </trkpt>
      <trkpt lat="49.33855" lon="1.26464">
        <ele>85.6</ele>
        <time>2011-05-01T08:06:37Z</time>
      </trkpt>
      <trkpt lat="49.33856" lon="1.26467">
        <ele>86.4</ele>
        <time>2011-05-01T08:06:41Z</time>
      </trkpt>
      <trkpt lat="49.33856" lon="1.26467">
        <ele>86.8</ele>
        <time>2011-05-01T08:06:43Z</time>
      </trkpt>
      <trkpt lat="49.33858" lon="1.26471">
        <ele>89</ele>
        <time>2011-05-01T08:06:55Z</time>
      </trkpt>
      <trkpt lat="49.33858" lon="1.26472">
        <ele>89.2</ele>
        <time>2011-05-01T08:06:56Z</time>
      </trkpt>
      <trkpt lat="49.33859" lon="1.26473">
        <ele>89.4</ele>
        <time>2011-05-01T08:06:57Z</time>
      </trkpt>
      <trkpt lat="49.33859" lon="1.26473">
        <ele>89.6</ele>
        <time>2011-05-01T08:06:58Z</time>
      </trkpt>
      <trkpt lat="49.3386" lon="1.26475">
        <ele>89.8</ele>
        <time>2011-05-01T08:07:00Z</time>
      </trkpt>
      <trkpt lat="49.3386" lon="1.26475">
        <ele>90</ele>
        <time>2011-05-01T08:07:01Z</time>
      </trkpt>
      <trkpt lat="49.33862" lon="1.26478">
        <ele>91.8</ele>
        <time>2011-05-01T08:07:10Z</time>
      </trkpt>
      <trkpt lat="49.33862" lon="1.26479">
        <ele>92</ele>
        <time>2011-05-01T08:07:11Z</time>
      </trkpt>
      <trkpt lat="49.33862" lon="1.26479">
        <ele>92.2</ele>
        <time>2011-05-01T08:07:12Z</time>
      </trkpt>
      <trkpt lat="49.33862" lon="1.2648">
        <ele>92.2</ele>
        <time>2011-05-01T08:07:13Z</time>
      </trkpt>
      <trkpt lat="49.33863" lon="1.26481">
        <ele>92.4</ele>
        <time>2011-05-01T08:07:15Z</time>
      </trkpt>
      <trkpt lat="49.33863" lon="1.26483">
        <ele>92.6</ele>
        <time>2011-05-01T08:07:17Z</time>
      </trkpt>
      <trkpt lat="49.33864" lon="1.26484">
        <ele>92.6</ele>
        <time>2011-05-01T08:07:19Z</time>
      </trkpt>
      <trkpt lat="49.33865" lon="1.26486">
        <ele>93</ele>
        <time>2011-05-01T08:07:22Z</time>
      </trkpt>
      <trkpt lat="49.33868" lon="1.26489">
        <ele>93.4</ele>
        <time>2011-05-01T08:07:24Z</time>
      </trkpt>
      <trkpt lat="49.3387" lon="1.26495">
        <ele>93.8</ele>
        <time>2011-05-01T08:07:26Z</time>
      </trkpt>
      <trkpt lat="49.33872" lon="1.26501">
        <ele>94</ele>
        <time>2011-05-01T08:07:28Z</time>
      </trkpt>
      <trkpt lat="49.33874" lon="1.26505">
        <ele>94.2</ele>
        <time>2011-05-01T08:07:30Z</time>
      </trkpt>
      <trkpt lat="49.33876" lon="1.26508">
        <ele>94.6</ele>
        <time>2011-05-01T08:07:32Z</time>
      </trkpt>
      <trkpt lat="49.33876" lon="1.2651">
        <ele>95.2</ele>
        <time>2011-05-01T08:07:34Z</time>
      </trkpt>
      <trkpt lat="49.33876" lon="1.26515">
        <ele>95.6</ele>
        <time>2011-05-01T08:07:36Z</time>
      </trkpt>
      <trkpt lat="49.33877" lon="1.26522">
        <ele>96</ele>
        <time>2011-05-01T08:07:38Z</time>
      </trkpt>
      <trkpt lat="49.33879" lon="1.2653">
        <ele>96.2</ele>
        <time>2011-05-01T08:07:40Z</time>
      </trkpt>
      <trkpt lat="49.33879" lon="1.26533">
        <ele>96.2</ele>
        <time>2011-05-01T08:07:41Z</time>
      </trkpt>
      <trkpt lat="49.33877" lon="1.26543">
        <ele>96.8</ele>
        <time>2011-05-01T08:07:44Z</time>
      </trkpt>
      <trkpt lat="49.33877" lon="1.26552">
        <ele>97.2</ele>
        <time>2011-05-01T08:07:46Z</time>
      </trkpt>
      <trkpt lat="49.33879" lon="1.26558">
        <ele>97.6</ele>
        <time>2011-05-01T08:07:48Z</time>
      </trkpt>
      <trkpt lat="49.33881" lon="1.26566">
        <ele>98</ele>
        <time>2011-05-01T08:07:50Z</time>
      </trkpt>
      <trkpt lat="49.33883" lon="1.26569">
        <ele>98.2</ele>
        <time>2011-05-01T08:07:51Z</time>
      </trkpt>
      <trkpt lat="49.33885" lon="1.26585">
        <ele>98.6</ele>
        <time>2011-05-01T08:07:56Z</time>
      </trkpt>
      <trkpt lat="49.33885" lon="1.26589">
        <ele>98.8</ele>
        <time>2011-05-01T08:07:57Z</time>
      </trkpt>
      <trkpt lat="49.33882" lon="1.26618">
        <ele>99</ele>
        <time>2011-05-01T08:08:02Z</time>
      </trkpt>
      <trkpt lat="49.33879" lon="1.26635">
        <ele>99.2</ele>
        <time>2011-05-01T08:08:05Z</time>
      </trkpt>
      <trkpt lat="49.3388" lon="1.26645">
        <ele>99.4</ele>
        <time>2011-05-01T08:08:07Z</time>
      </trkpt>
      <trkpt lat="49.33881" lon="1.26654">
        <ele>99.8</ele>
        <time>2011-05-01T08:08:09Z</time>
      </trkpt>
      <trkpt lat="49.33882" lon="1.26659">
        <ele>100</ele>
        <time>2011-05-01T08:08:10Z</time>
      </trkpt>
      <trkpt lat="49.33882" lon="1.26663">
        <ele>100.2</ele>
        <time>2011-05-01T08:08:11Z</time>
      </trkpt>
      <trkpt lat="49.33882" lon="1.26672">
        <ele>100.4</ele>
        <time>2011-05-01T08:08:13Z</time>
      </trkpt>
      <trkpt lat="49.33883" lon="1.26682">
        <ele>100.6</ele>
        <time>2011-05-01T08:08:15Z</time>
      </trkpt>
      <trkpt lat="49.33886" lon="1.26717">
        <ele>101</ele>
        <time>2011-05-01T08:08:22Z</time>
      </trkpt>
      <trkpt lat="49.33889" lon="1.26753">
        <ele>101.2</ele>
        <time>2011-05-01T08:08:29Z</time>
      </trkpt>
      <trkpt lat="49.3389" lon="1.26794">
        <ele>101.4</ele>
        <time>2011-05-01T08:08:35Z</time>
      </trkpt>
      <trkpt lat="49.33889" lon="1.2681">
        <ele>101.4</ele>
        <time>2011-05-01T08:08:37Z</time>
      </trkpt>
      <trkpt lat="49.33889" lon="1.26849">
        <ele>101.4</ele>
        <time>2011-05-01T08:08:41Z</time>
      </trkpt>
      <trkpt lat="49.33887" lon="1.26892">
        <ele>101.4</ele>
        <time>2011-05-01T08:08:46Z</time>
      </trkpt>
      <trkpt lat="49.33887" lon="1.26921">
        <ele>101.2</ele>
        <time>2011-05-01T08:08:49Z</time>
      </trkpt>
      <trkpt lat="49.33887" lon="1.2694">
        <ele>100.8</ele>
        <time>2011-05-01T08:08:51Z</time>
      </trkpt>
      <trkpt lat="49.33886" lon="1.26962">
        <ele>100.4</ele>
        <time>2011-05-01T08:08:53Z</time>
      </trkpt>
      <trkpt lat="49.33886" lon="1.26971">
        <ele>100.2</ele>
        <time>2011-05-01T08:08:54Z</time>
      </trkpt>
      <trkpt lat="49.33885" lon="1.26982">
        <ele>99.8</ele>
        <time>2011-05-01T08:08:55Z</time>
      </trkpt>
      <trkpt lat="49.33886" lon="1.27011">
        <ele>99</ele>
        <time>2011-05-01T08:08:58Z</time>
      </trkpt>
      <trkpt lat="49.33887" lon="1.2703">
        <ele>98.6</ele>
        <time>2011-05-01T08:09:00Z</time>
      </trkpt>
      <trkpt lat="49.33887" lon="1.27049">
        <ele>98.4</ele>
        <time>2011-05-01T08:09:02Z</time>
      </trkpt>
      <trkpt lat="49.33888" lon="1.27058">
        <ele>98.2</ele>
        <time>2011-05-01T08:09:03Z</time>
      </trkpt>
      <trkpt lat="49.33889" lon="1.27085">
        <ele>97.6</ele>
        <time>2011-05-01T08:09:06Z</time>
      </trkpt>
      <trkpt lat="49.33888" lon="1.27095">
        <ele>97.4</ele>
        <time>2011-05-01T08:09:07Z</time>
      </trkpt>
      <trkpt lat="49.33888" lon="1.27106">
        <ele>97</ele>
        <time>2011-05-01T08:09:08Z</time>
      </trkpt>
      <trkpt lat="49.33888" lon="1.27116">
        <ele>96.6</ele>
        <time>2011-05-01T08:09:09Z</time>
      </trkpt>
      <trkpt lat="49.33886" lon="1.27135">
        <ele>95.8</ele>
        <time>2011-05-01T08:09:11Z</time>
      </trkpt>
      <trkpt lat="49.33885" lon="1.27144">
        <ele>95.2</ele>
        <time>2011-05-01T08:09:12Z</time>
      </trkpt>
      <trkpt lat="49.33882" lon="1.27152">
        <ele>94.8</ele>
        <time>2011-05-01T08:09:13Z</time>
      </trkpt>
      <trkpt lat="49.3388" lon="1.2716">
        <ele>94</ele>
        <time>2011-05-01T08:09:14Z</time>
      </trkpt>
      <trkpt lat="49.33876" lon="1.27178">
        <ele>92.6</ele>
        <time>2011-05-01T08:09:16Z</time>
      </trkpt>
      <trkpt lat="49.33873" lon="1.27197">
        <ele>91</ele>
        <time>2011-05-01T08:09:18Z</time>
      </trkpt>
      <trkpt lat="49.33872" lon="1.27205">
        <ele>90</ele>
        <time>2011-05-01T08:09:19Z</time>
      </trkpt>
      <trkpt lat="49.33872" lon="1.27213">
        <ele>89</ele>
        <time>2011-05-01T08:09:20Z</time>
      </trkpt>
      <trkpt lat="49.33873" lon="1.27227">
        <ele>87.2</ele>
        <time>2011-05-01T08:09:22Z</time>
      </trkpt>
      <trkpt lat="49.33874" lon="1.27237">
        <ele>85.8</ele>
        <time>2011-05-01T08:09:24Z</time>
      </trkpt>
      <trkpt lat="49.33875" lon="1.27242">
        <ele>85.2</ele>
        <time>2011-05-01T08:09:25Z</time>
      </trkpt>
      <trkpt lat="49.33876" lon="1.27246">
        <ele>84.6</ele>
        <time>2011-05-01T08:09:26Z</time>
      </trkpt>
      <trkpt lat="49.33877" lon="1.27255">
        <ele>83.6</ele>
        <time>2011-05-01T08:09:28Z</time>
      </trkpt>
      <trkpt lat="49.33879" lon="1.27267">
        <ele>82.8</ele>
        <time>2011-05-01T08:09:30Z</time>
      </trkpt>
      <trkpt lat="49.33884" lon="1.27289">
        <ele>81.4</ele>
        <time>2011-05-01T08:09:35Z</time>
      </trkpt>
      <trkpt lat="49.33887" lon="1.27304">
        <ele>81</ele>
        <time>2011-05-01T08:09:38Z</time>
      </trkpt>
      <trkpt lat="49.33891" lon="1.27314">
        <ele>81</ele>
        <time>2011-05-01T08:09:40Z</time>
      </trkpt>
      <trkpt lat="49.33893" lon="1.27324">
        <ele>81</ele>
        <time>2011-05-01T08:09:42Z</time>
      </trkpt>
      <trkpt lat="49.33896" lon="1.27334">
        <ele>81.2</ele>
        <time>2011-05-01T08:09:44Z</time>
      </trkpt>
      <trkpt lat="49.33897" lon="1.27343">
        <ele>81.4</ele>
        <time>2011-05-01T08:09:46Z</time>
      </trkpt>
      <trkpt lat="49.33896" lon="1.27347">
        <ele>81.4</ele>
        <time>2011-05-01T08:09:47Z</time>
      </trkpt>
      <trkpt lat="49.33897" lon="1.2735">
        <ele>81.4</ele>
        <time>2011-05-01T08:09:48Z</time>
      </trkpt>
      <trkpt lat="49.33895" lon="1.27361">
        <ele>81.6</ele>
        <time>2011-05-01T08:09:51Z</time>
      </trkpt>
      <trkpt lat="49.33893" lon="1.27364">
        <ele>81.6</ele>
        <time>2011-05-01T08:09:52Z</time>
      </trkpt>
      <trkpt lat="49.33888" lon="1.27374">
        <ele>81.4</ele>
        <time>2011-05-01T08:09:54Z</time>
      </trkpt>
      <trkpt lat="49.33885" lon="1.27382">
        <ele>81</ele>
        <time>2011-05-01T08:09:56Z</time>
      </trkpt>
      <trkpt lat="49.33886" lon="1.27387">
        <ele>80.4</ele>
        <time>2011-05-01T08:09:57Z</time>
      </trkpt>
      <trkpt lat="49.33887" lon="1.27395">
        <ele>79.8</ele>
        <time>2011-05-01T08:09:59Z</time>
      </trkpt>
      <trkpt lat="49.33886" lon="1.27399">
        <ele>79.2</ele>
        <time>2011-05-01T08:10:00Z</time>
      </trkpt>
      <trkpt lat="49.33882" lon="1.27408">
        <ele>78</ele>
        <time>2011-05-01T08:10:02Z</time>
      </trkpt>
      <trkpt lat="49.3388" lon="1.27412">
        <ele>77.4</ele>
        <time>2011-05-01T08:10:03Z</time>
      </trkpt>
      <trkpt lat="49.33878" lon="1.27417">
        <ele>76.6</ele>
        <time>2011-05-01T08:10:04Z</time>
      </trkpt>
      <trkpt lat="49.33879" lon="1.27422">
        <ele>75.8</ele>
        <time>2011-05-01T08:10:05Z</time>
      </trkpt>
      <trkpt lat="49.33878" lon="1.27427">
        <ele>74.8</ele>
        <time>2011-05-01T08:10:06Z</time>
      </trkpt>
      <trkpt lat="49.33876" lon="1.27434">
        <ele>73.2</ele>
        <time>2011-05-01T08:10:08Z</time>
      </trkpt>
      <trkpt lat="49.33877" lon="1.27438">
        <ele>72.4</ele>
        <time>2011-05-01T08:10:09Z</time>
      </trkpt>
      <trkpt lat="49.33875" lon="1.27441">
        <ele>71.4</ele>
        <time>2011-05-01T08:10:10Z</time>
      </trkpt>
      <trkpt lat="49.33874" lon="1.27445">
        <ele>70.8</ele>
        <time>2011-05-01T08:10:11Z</time>
      </trkpt>
      <trkpt lat="49.33872" lon="1.27449">
        <ele>69.8</ele>
        <time>2011-05-01T08:10:12Z</time>
      </trkpt>
      <trkpt lat="49.33872" lon="1.27453">
        <ele>68.8</ele>
        <time>2011-05-01T08:10:13Z</time>
      </trkpt>
      <trkpt lat="49.33872" lon="1.27459">
        <ele>67.8</ele>
        <time>2011-05-01T08:10:14Z</time>
      </trkpt>
      <trkpt lat="49.33872" lon="1.27471">
        <ele>65.8</ele>
        <time>2011-05-01T08:10:16Z</time>
      </trkpt>
      <trkpt lat="49.3387" lon="1.27477">
        <ele>64.8</ele>
        <time>2011-05-01T08:10:17Z</time>
      </trkpt>
      <trkpt lat="49.33866" lon="1.27482">
        <ele>63.6</ele>
        <time>2011-05-01T08:10:18Z</time>
      </trkpt>
      <trkpt lat="49.33863" lon="1.27492">
        <ele>61.4</ele>
        <time>2011-05-01T08:10:20Z</time>
      </trkpt>
      <trkpt lat="49.33862" lon="1.275">
        <ele>59.6</ele>
        <time>2011-05-01T08:10:22Z</time>
      </trkpt>
      <trkpt lat="49.33862" lon="1.27502">
        <ele>58.4</ele>
        <time>2011-05-01T08:10:23Z</time>
      </trkpt>
      <trkpt lat="49.3386" lon="1.27505">
        <ele>54.6</ele>
        <time>2011-05-01T08:10:28Z</time>
      </trkpt>
      <trkpt lat="49.3386" lon="1.27505">
        <ele>54</ele>
        <time>2011-05-01T08:10:29Z</time>
      </trkpt>
      <trkpt lat="49.3386" lon="1.27506">
        <ele>53.6</ele>
        <time>2011-05-01T08:10:30Z</time>
      </trkpt>
      <trkpt lat="49.3386" lon="1.27509">
        <ele>52.8</ele>
        <time>2011-05-01T08:10:32Z</time>
      </trkpt>
      <trkpt lat="49.3386" lon="1.27511">
        <ele>51.8</ele>
        <time>2011-05-01T08:10:34Z</time>
      </trkpt>
      <trkpt lat="49.33859" lon="1.27513">
        <ele>50.8</ele>
        <time>2011-05-01T08:10:36Z</time>
      </trkpt>
      <trkpt lat="49.33858" lon="1.27515">
        <ele>50</ele>
        <time>2011-05-01T08:10:38Z</time>
      </trkpt>
      <trkpt lat="49.33858" lon="1.27517">
        <ele>49.8</ele>
        <time>2011-05-01T08:10:39Z</time>
      </trkpt>
      <trkpt lat="49.33857" lon="1.2752">
        <ele>49.4</ele>
        <time>2011-05-01T08:10:40Z</time>
      </trkpt>
      <trkpt lat="49.33856" lon="1.27521">
        <ele>49</ele>
        <time>2011-05-01T08:10:41Z</time>
      </trkpt>
      <trkpt lat="49.33854" lon="1.27526">
        <ele>48.2</ele>
        <time>2011-05-01T08:10:43Z</time>
      </trkpt>
      <trkpt lat="49.33853" lon="1.2753">
        <ele>47.8</ele>
        <time>2011-05-01T08:10:44Z</time>
      </trkpt>
      <trkpt lat="49.33852" lon="1.27535">
        <ele>47.6</ele>
        <time>2011-05-01T08:10:45Z</time>
      </trkpt>
      <trkpt lat="49.33851" lon="1.27548">
        <ele>47</ele>
        <time>2011-05-01T08:10:47Z</time>
      </trkpt>
      <trkpt lat="49.33852" lon="1.27561">
        <ele>46.6</ele>
        <time>2011-05-01T08:10:49Z</time>
      </trkpt>
      <trkpt lat="49.33854" lon="1.27576">
        <ele>46</ele>
        <time>2011-05-01T08:10:52Z</time>
      </trkpt>
      <trkpt lat="49.33857" lon="1.27586">
        <ele>45.4</ele>
        <time>2011-05-01T08:10:54Z</time>
      </trkpt>
      <trkpt lat="49.33858" lon="1.27597">
        <ele>44.8</ele>
        <time>2011-05-01T08:10:56Z</time>
      </trkpt>
      <trkpt lat="49.33859" lon="1.27602">
        <ele>44.6</ele>
        <time>2011-05-01T08:10:57Z</time>
      </trkpt>
      <trkpt lat="49.33859" lon="1.27606">
        <ele>44.4</ele>
        <time>2011-05-01T08:10:58Z</time>
      </trkpt>
      <trkpt lat="49.33855" lon="1.27615">
        <ele>44.2</ele>
        <time>2011-05-01T08:11:00Z</time>
      </trkpt>
      <trkpt lat="49.33847" lon="1.27621">
        <ele>43.6</ele>
        <time>2011-05-01T08:11:02Z</time>
      </trkpt>
      <trkpt lat="49.33844" lon="1.27633">
        <ele>43</ele>
        <time>2011-05-01T08:11:04Z</time>
      </trkpt>
      <trkpt lat="49.33848" lon="1.27643">
        <ele>42.6</ele>
        <time>2011-05-01T08:11:06Z</time>
      </trkpt>
      <trkpt lat="49.3385" lon="1.27648">
        <ele>42.4</ele>
        <time>2011-05-01T08:11:07Z</time>
      </trkpt>
      <trkpt lat="49.33853" lon="1.27652">
        <ele>42.2</ele>
        <time>2011-05-01T08:11:08Z</time>
      </trkpt>
      <trkpt lat="49.33858" lon="1.27656">
        <ele>42</ele>
        <time>2011-05-01T08:11:10Z</time>
      </trkpt>
      <trkpt lat="49.33867" lon="1.27665">
        <ele>41.4</ele>
        <time>2011-05-01T08:11:15Z</time>
      </trkpt>
      <trkpt lat="49.33872" lon="1.27672">
        <ele>41.4</ele>
        <time>2011-05-01T08:11:18Z</time>
      </trkpt>
      <trkpt lat="49.33874" lon="1.27677">
        <ele>41.6</ele>
        <time>2011-05-01T08:11:20Z</time>
      </trkpt>
      <trkpt lat="49.33876" lon="1.27679">
        <ele>41.8</ele>
        <time>2011-05-01T08:11:21Z</time>
      </trkpt>
      <trkpt lat="49.33879" lon="1.27686">
        <ele>42</ele>
        <time>2011-05-01T08:11:24Z</time>
      </trkpt>
      <trkpt lat="49.33882" lon="1.27691">
        <ele>42.2</ele>
        <time>2011-05-01T08:11:26Z</time>
      </trkpt>
      <trkpt lat="49.33884" lon="1.27696">
        <ele>42.8</ele>
        <time>2011-05-01T08:11:28Z</time>
      </trkpt>
      <trkpt lat="49.33887" lon="1.277">
        <ele>43.2</ele>
        <time>2011-05-01T08:11:30Z</time>
      </trkpt>
      <trkpt lat="49.33889" lon="1.27702">
        <ele>43.6</ele>
        <time>2011-05-01T08:11:31Z</time>
      </trkpt>
      <trkpt lat="49.33893" lon="1.27705">
        <ele>44.2</ele>
        <time>2011-05-01T08:11:33Z</time>
      </trkpt>
      <trkpt lat="49.33896" lon="1.27707">
        <ele>44.6</ele>
        <time>2011-05-01T08:11:35Z</time>
      </trkpt>
      <trkpt lat="49.33899" lon="1.27711">
        <ele>45.2</ele>
        <time>2011-05-01T08:11:37Z</time>
      </trkpt>
      <trkpt lat="49.33902" lon="1.27716">
        <ele>45.6</ele>
        <time>2011-05-01T08:11:39Z</time>
      </trkpt>
      <trkpt lat="49.33904" lon="1.27721">
        <ele>46.2</ele>
        <time>2011-05-01T08:11:41Z</time>
      </trkpt>
      <trkpt lat="49.33907" lon="1.27725">
        <ele>46.8</ele>
        <time>2011-05-01T08:11:43Z</time>
      </trkpt>
      <trkpt lat="49.3391" lon="1.27729">
        <ele>47.2</ele>
        <time>2011-05-01T08:11:45Z</time>
      </trkpt>
      <trkpt lat="49.33912" lon="1.27733">
        <ele>47.8</ele>
        <time>2011-05-01T08:11:47Z</time>
      </trkpt>
      <trkpt lat="49.33913" lon="1.27737">
        <ele>48.4</ele>
        <time>2011-05-01T08:11:49Z</time>
      </trkpt>
      <trkpt lat="49.33915" lon="1.2774">
        <ele>49</ele>
        <time>2011-05-01T08:11:51Z</time>
      </trkpt>
      <trkpt lat="49.33919" lon="1.27742">
        <ele>49.4</ele>
        <time>2011-05-01T08:11:53Z</time>
      </trkpt>
      <trkpt lat="49.33921" lon="1.27744">
        <ele>49.6</ele>
        <time>2011-05-01T08:11:54Z</time>
      </trkpt>
      <trkpt lat="49.33923" lon="1.27747">
        <ele>49.8</ele>
        <time>2011-05-01T08:11:55Z</time>
      </trkpt>
      <trkpt lat="49.33926" lon="1.27754">
        <ele>50.4</ele>
        <time>2011-05-01T08:11:58Z</time>
      </trkpt>
      <trkpt lat="49.33928" lon="1.27758">
        <ele>51</ele>
        <time>2011-05-01T08:12:00Z</time>
      </trkpt>
      <trkpt lat="49.3393" lon="1.2776">
        <ele>51.2</ele>
        <time>2011-05-01T08:12:01Z</time>
      </trkpt>
      <trkpt lat="49.33931" lon="1.27761">
        <ele>51.4</ele>
        <time>2011-05-01T08:12:02Z</time>
      </trkpt>
      <trkpt lat="49.33934" lon="1.27764">
        <ele>52</ele>
        <time>2011-05-01T08:12:04Z</time>
      </trkpt>
      <trkpt lat="49.33935" lon="1.27768">
        <ele>52.6</ele>
        <time>2011-05-01T08:12:06Z</time>
      </trkpt>
      <trkpt lat="49.33937" lon="1.27772">
        <ele>53.2</ele>
        <time>2011-05-01T08:12:08Z</time>
      </trkpt>
      <trkpt lat="49.3394" lon="1.27774">
        <ele>53.6</ele>
        <time>2011-05-01T08:12:10Z</time>
      </trkpt>
      <trkpt lat="49.33943" lon="1.27778">
        <ele>54</ele>
        <time>2011-05-01T08:12:12Z</time>
      </trkpt>
      <trkpt lat="49.33944" lon="1.27778">
        <ele>54.2</ele>
        <time>2011-05-01T08:12:13Z</time>
      </trkpt>
      <trkpt lat="49.33947" lon="1.2778">
        <ele>55</ele>
        <time>2011-05-01T08:12:15Z</time>
      </trkpt>
      <trkpt lat="49.3395" lon="1.27781">
        <ele>55.4</ele>
        <time>2011-05-01T08:12:17Z</time>
      </trkpt>
      <trkpt lat="49.33953" lon="1.27783">
        <ele>55.8</ele>
        <time>2011-05-01T08:12:19Z</time>
      </trkpt>
      <trkpt lat="49.33954" lon="1.27783">
        <ele>56.2</ele>
        <time>2011-05-01T08:12:20Z</time>
      </trkpt>
      <trkpt lat="49.33955" lon="1.27783">
        <ele>57</ele>
        <time>2011-05-01T08:12:22Z</time>
      </trkpt>
      <trkpt lat="49.33956" lon="1.27788">
        <ele>57.6</ele>
        <time>2011-05-01T08:12:24Z</time>
      </trkpt>
      <trkpt lat="49.33956" lon="1.2779">
        <ele>57.8</ele>
        <time>2011-05-01T08:12:25Z</time>
      </trkpt>
      <trkpt lat="49.3396" lon="1.27797">
        <ele>58.6</ele>
        <time>2011-05-01T08:12:28Z</time>
      </trkpt>
      <trkpt lat="49.33964" lon="1.27801">
        <ele>59.2</ele>
        <time>2011-05-01T08:12:30Z</time>
      </trkpt>
      <trkpt lat="49.33967" lon="1.27804">
        <ele>59.8</ele>
        <time>2011-05-01T08:12:32Z</time>
      </trkpt>
      <trkpt lat="49.33968" lon="1.27805">
        <ele>60</ele>
        <time>2011-05-01T08:12:33Z</time>
      </trkpt>
      <trkpt lat="49.33971" lon="1.27811">
        <ele>60.6</ele>
        <time>2011-05-01T08:12:36Z</time>
      </trkpt>
      <trkpt lat="49.33972" lon="1.27814">
        <ele>61</ele>
        <time>2011-05-01T08:12:37Z</time>
      </trkpt>
      <trkpt lat="49.33973" lon="1.27818">
        <ele>61.6</ele>
        <time>2011-05-01T08:12:39Z</time>
      </trkpt>
      <trkpt lat="49.33974" lon="1.27822">
        <ele>62</ele>
        <time>2011-05-01T08:12:41Z</time>
      </trkpt>
      <trkpt lat="49.33977" lon="1.27825">
        <ele>62.4</ele>
        <time>2011-05-01T08:12:43Z</time>
      </trkpt>
      <trkpt lat="49.33979" lon="1.27828">
        <ele>62.8</ele>
        <time>2011-05-01T08:12:45Z</time>
      </trkpt>
      <trkpt lat="49.33981" lon="1.27835">
        <ele>63.4</ele>
        <time>2011-05-01T08:12:48Z</time>
      </trkpt>
      <trkpt lat="49.33983" lon="1.27838">
        <ele>64</ele>
        <time>2011-05-01T08:12:50Z</time>
      </trkpt>
      <trkpt lat="49.33985" lon="1.27843">
        <ele>64.4</ele>
        <time>2011-05-01T08:12:52Z</time>
      </trkpt>
      <trkpt lat="49.33987" lon="1.27846">
        <ele>64.8</ele>
        <time>2011-05-01T08:12:54Z</time>
      </trkpt>
      <trkpt lat="49.33989" lon="1.27849">
        <ele>65.4</ele>
        <time>2011-05-01T08:12:56Z</time>
      </trkpt>
      <trkpt lat="49.3399" lon="1.27851">
        <ele>65.6</ele>
        <time>2011-05-01T08:12:57Z</time>
      </trkpt>
      <trkpt lat="49.33992" lon="1.27853">
        <ele>66.4</ele>
        <time>2011-05-01T08:13:00Z</time>
      </trkpt>
      <trkpt lat="49.33993" lon="1.27854">
        <ele>66.6</ele>
        <time>2011-05-01T08:13:01Z</time>
      </trkpt>
      <trkpt lat="49.33994" lon="1.27856">
        <ele>66.8</ele>
        <time>2011-05-01T08:13:02Z</time>
      </trkpt>
      <trkpt lat="49.33996" lon="1.2786">
        <ele>67.2</ele>
        <time>2011-05-01T08:13:04Z</time>
      </trkpt>
      <trkpt lat="49.33998" lon="1.27862">
        <ele>67.4</ele>
        <time>2011-05-01T08:13:05Z</time>
      </trkpt>
      <trkpt lat="49.34001" lon="1.27865">
        <ele>68</ele>
        <time>2011-05-01T08:13:07Z</time>
      </trkpt>
      <trkpt lat="49.34003" lon="1.27868">
        <ele>68.6</ele>
        <time>2011-05-01T08:13:09Z</time>
      </trkpt>
      <trkpt lat="49.34003" lon="1.2787">
        <ele>68.8</ele>
        <time>2011-05-01T08:13:10Z</time>
      </trkpt>
      <trkpt lat="49.34004" lon="1.27872">
        <ele>69</ele>
        <time>2011-05-01T08:13:11Z</time>
      </trkpt>
      <trkpt lat="49.34005" lon="1.27874">
        <ele>69.2</ele>
        <time>2011-05-01T08:13:12Z</time>
      </trkpt>
      <trkpt lat="49.34009" lon="1.27881">
        <ele>70</ele>
        <time>2011-05-01T08:13:16Z</time>
      </trkpt>
      <trkpt lat="49.34011" lon="1.27884">
        <ele>70.4</ele>
        <time>2011-05-01T08:13:18Z</time>
      </trkpt>
      <trkpt lat="49.34011" lon="1.27885">
        <ele>70.6</ele>
        <time>2011-05-01T08:13:19Z</time>
      </trkpt>
      <trkpt lat="49.34012" lon="1.27887">
        <ele>70.8</ele>
        <time>2011-05-01T08:13:20Z</time>
      </trkpt>
      <trkpt lat="49.34014" lon="1.27891">
        <ele>71.2</ele>
        <time>2011-05-01T08:13:22Z</time>
      </trkpt>
      <trkpt lat="49.34016" lon="1.27894">
        <ele>71.6</ele>
        <time>2011-05-01T08:13:24Z</time>
      </trkpt>
      <trkpt lat="49.34017" lon="1.27896">
        <ele>71.8</ele>
        <time>2011-05-01T08:13:25Z</time>
      </trkpt>
      <trkpt lat="49.34018" lon="1.27899">
        <ele>72.4</ele>
        <time>2011-05-01T08:13:27Z</time>
      </trkpt>
      <trkpt lat="49.34019" lon="1.27901">
        <ele>72.6</ele>
        <time>2011-05-01T08:13:28Z</time>
      </trkpt>
      <trkpt lat="49.34023" lon="1.27903">
        <ele>73.2</ele>
        <time>2011-05-01T08:13:31Z</time>
      </trkpt>
      <trkpt lat="49.34024" lon="1.27906">
        <ele>73.6</ele>
        <time>2011-05-01T08:13:33Z</time>
      </trkpt>
      <trkpt lat="49.34027" lon="1.2791">
        <ele>74</ele>
        <time>2011-05-01T08:13:35Z</time>
      </trkpt>
      <trkpt lat="49.34031" lon="1.27913">
        <ele>74.6</ele>
        <time>2011-05-01T08:13:37Z</time>
      </trkpt>
      <trkpt lat="49.34032" lon="1.27915">
        <ele>74.8</ele>
        <time>2011-05-01T08:13:38Z</time>
      </trkpt>
      <trkpt lat="49.34033" lon="1.27917">
        <ele>75</ele>
        <time>2011-05-01T08:13:39Z</time>
      </trkpt>
      <trkpt lat="49.34034" lon="1.27921">
        <ele>75.4</ele>
        <time>2011-05-01T08:13:41Z</time>
      </trkpt>
      <trkpt lat="49.34035" lon="1.27925">
        <ele>75.8</ele>
        <time>2011-05-01T08:13:43Z</time>
      </trkpt>
      <trkpt lat="49.34036" lon="1.27928">
        <ele>76.2</ele>
        <time>2011-05-01T08:13:44Z</time>
      </trkpt>
      <trkpt lat="49.34037" lon="1.27931">
        <ele>76.8</ele>
        <time>2011-05-01T08:13:46Z</time>
      </trkpt>
      <trkpt lat="49.34039" lon="1.27934">
        <ele>77.2</ele>
        <time>2011-05-01T08:13:48Z</time>
      </trkpt>
      <trkpt lat="49.34041" lon="1.27937">
        <ele>77.6</ele>
        <time>2011-05-01T08:13:50Z</time>
      </trkpt>
      <trkpt lat="49.34042" lon="1.27939">
        <ele>77.8</ele>
        <time>2011-05-01T08:13:51Z</time>
      </trkpt>
      <trkpt lat="49.34044" lon="1.27944">
        <ele>78.2</ele>
        <time>2011-05-01T08:13:54Z</time>
      </trkpt>
      <trkpt lat="49.34047" lon="1.27946">
        <ele>79</ele>
        <time>2011-05-01T08:13:57Z</time>
      </trkpt>
      <trkpt lat="49.34049" lon="1.27948">
        <ele>79.4</ele>
        <time>2011-05-01T08:13:59Z</time>
      </trkpt>
      <trkpt lat="49.34051" lon="1.2795">
        <ele>80</ele>
        <time>2011-05-01T08:14:01Z</time>
      </trkpt>
      <trkpt lat="49.34055" lon="1.27953">
        <ele>80.6</ele>
        <time>2011-05-01T08:14:03Z</time>
      </trkpt>
      <trkpt lat="49.34057" lon="1.27957">
        <ele>81.2</ele>
        <time>2011-05-01T08:14:05Z</time>
      </trkpt>
      <trkpt lat="49.34059" lon="1.27962">
        <ele>81.6</ele>
        <time>2011-05-01T08:14:07Z</time>
      </trkpt>
      <trkpt lat="49.34059" lon="1.27965">
        <ele>81.8</ele>
        <time>2011-05-01T08:14:08Z</time>
      </trkpt>
      <trkpt lat="49.34061" lon="1.27969">
        <ele>82.2</ele>
        <time>2011-05-01T08:14:11Z</time>
      </trkpt>
      <trkpt lat="49.34061" lon="1.2797">
        <ele>82.6</ele>
        <time>2011-05-01T08:14:14Z</time>
      </trkpt>
      <trkpt lat="49.3406" lon="1.2797">
        <ele>82.6</ele>
        <time>2011-05-01T08:14:15Z</time>
      </trkpt>
      <trkpt lat="49.34051" lon="1.27975">
        <ele>82.6</ele>
        <time>2011-05-01T08:14:17Z</time>
      </trkpt>
      <trkpt lat="49.34045" lon="1.27982">
        <ele>81.8</ele>
        <time>2011-05-01T08:14:19Z</time>
      </trkpt>
      <trkpt lat="49.3404" lon="1.27986">
        <ele>80.6</ele>
        <time>2011-05-01T08:14:21Z</time>
      </trkpt>
      <trkpt lat="49.34034" lon="1.27992">
        <ele>79</ele>
        <time>2011-05-01T08:14:23Z</time>
      </trkpt>
      <trkpt lat="49.34025" lon="1.27998">
        <ele>77</ele>
        <time>2011-05-01T08:14:25Z</time>
      </trkpt>
      <trkpt lat="49.34019" lon="1.28">
        <ele>75.8</ele>
        <time>2011-05-01T08:14:26Z</time>
      </trkpt>
      <trkpt lat="49.34009" lon="1.28008">
        <ele>73.4</ele>
        <time>2011-05-01T08:14:28Z</time>
      </trkpt>
      <trkpt lat="49.34005" lon="1.28011">
        <ele>72</ele>
        <time>2011-05-01T08:14:29Z</time>
      </trkpt>
      <trkpt lat="49.33999" lon="1.28016">
        <ele>69.4</ele>
        <time>2011-05-01T08:14:31Z</time>
      </trkpt>
      <trkpt lat="49.33992" lon="1.2802">
        <ele>68</ele>
        <time>2011-05-01T08:14:32Z</time>
      </trkpt>
      <trkpt lat="49.33974" lon="1.2803">
        <ele>63.6</ele>
        <time>2011-05-01T08:14:35Z</time>
      </trkpt>
      <trkpt lat="49.33964" lon="1.28035">
        <ele>60.6</ele>
        <time>2011-05-01T08:14:37Z</time>
      </trkpt>
      <trkpt lat="49.33949" lon="1.28044">
        <ele>57.6</ele>
        <time>2011-05-01T08:14:39Z</time>
      </trkpt>
      <trkpt lat="49.33932" lon="1.28053">
        <ele>54.6</ele>
        <time>2011-05-01T08:14:41Z</time>
      </trkpt>
      <trkpt lat="49.33915" lon="1.28062">
        <ele>51.6</ele>
        <time>2011-05-01T08:14:43Z</time>
      </trkpt>
      <trkpt lat="49.33895" lon="1.2807">
        <ele>48.8</ele>
        <time>2011-05-01T08:14:45Z</time>
      </trkpt>
      <trkpt lat="49.33888" lon="1.28073">
        <ele>47.4</ele>
        <time>2011-05-01T08:14:46Z</time>
      </trkpt>
      <trkpt lat="49.33873" lon="1.28087">
        <ele>44.8</ele>
        <time>2011-05-01T08:14:48Z</time>
      </trkpt>
      <trkpt lat="49.3386" lon="1.281">
        <ele>42.2</ele>
        <time>2011-05-01T08:14:50Z</time>
      </trkpt>
      <trkpt lat="49.33853" lon="1.28105">
        <ele>39.6</ele>
        <time>2011-05-01T08:14:52Z</time>
      </trkpt>
      <trkpt lat="49.33847" lon="1.28108">
        <ele>37.4</ele>
        <time>2011-05-01T08:14:54Z</time>
      </trkpt>
      <trkpt lat="49.33845" lon="1.28106">
        <ele>36.2</ele>
        <time>2011-05-01T08:14:55Z</time>
      </trkpt>
      <trkpt lat="49.33843" lon="1.28101">
        <ele>34.2</ele>
        <time>2011-05-01T08:14:57Z</time>
      </trkpt>
      <trkpt lat="49.33839" lon="1.28097">
        <ele>32.4</ele>
        <time>2011-05-01T08:14:59Z</time>
      </trkpt>
      <trkpt lat="49.33833" lon="1.28094">
        <ele>31.2</ele>
        <time>2011-05-01T08:15:01Z</time>
      </trkpt>
      <trkpt lat="49.3383" lon="1.28088">
        <ele>30</ele>
        <time>2011-05-01T08:15:03Z</time>
      </trkpt>
      <trkpt lat="49.33829" lon="1.28085">
        <ele>29.6</ele>
        <time>2011-05-01T08:15:04Z</time>
      </trkpt>
      <trkpt lat="49.33823" lon="1.2806">
        <ele>27.8</ele>
        <time>2011-05-01T08:15:09Z</time>
      </trkpt>
      <trkpt lat="49.33815" lon="1.28044">
        <ele>27</ele>
        <time>2011-05-01T08:15:13Z</time>
      </trkpt>
      <trkpt lat="49.33814" lon="1.2802">
        <ele>26.4</ele>
        <time>2011-05-01T08:15:17Z</time>
      </trkpt>
      <trkpt lat="49.33811" lon="1.28008">
        <ele>26.2</ele>
        <time>2011-05-01T08:15:19Z</time>
      </trkpt>
      <trkpt lat="49.33804" lon="1.27979">
        <ele>26</ele>
        <time>2011-05-01T08:15:24Z</time>
      </trkpt>
      <trkpt lat="49.33803" lon="1.27975">
        <ele>25.8</ele>
        <time>2011-05-01T08:15:25Z</time>
      </trkpt>
      <trkpt lat="49.33795" lon="1.27939">
        <ele>25.6</ele>
        <time>2011-05-01T08:15:31Z</time>
      </trkpt>
      <trkpt lat="49.33781" lon="1.27904">
        <ele>25.6</ele>
        <time>2011-05-01T08:15:36Z</time>
      </trkpt>
      <trkpt lat="49.33775" lon="1.27887">
        <ele>25.4</ele>
        <time>2011-05-01T08:15:40Z</time>
      </trkpt>
      <trkpt lat="49.33751" lon="1.27883">
        <ele>25.4</ele>
        <time>2011-05-01T08:15:45Z</time>
      </trkpt>
      <trkpt lat="49.33746" lon="1.27884">
        <ele>25.4</ele>
        <time>2011-05-01T08:15:46Z</time>
      </trkpt>
      <trkpt lat="49.33723" lon="1.27891">
        <ele>25.2</ele>
        <time>2011-05-01T08:15:50Z</time>
      </trkpt>
      <trkpt lat="49.33713" lon="1.27895">
        <ele>24.8</ele>
        <time>2011-05-01T08:15:52Z</time>
      </trkpt>
      <trkpt lat="49.33702" lon="1.27898">
        <ele>24.4</ele>
        <time>2011-05-01T08:15:54Z</time>
      </trkpt>
      <trkpt lat="49.33691" lon="1.27903">
        <ele>24.2</ele>
        <time>2011-05-01T08:15:56Z</time>
      </trkpt>
      <trkpt lat="49.3368" lon="1.27909">
        <ele>24</ele>
        <time>2011-05-01T08:15:58Z</time>
      </trkpt>
      <trkpt lat="49.33643" lon="1.27923">
        <ele>23.6</ele>
        <time>2011-05-01T08:16:05Z</time>
      </trkpt>
      <trkpt lat="49.33633" lon="1.27927">
        <ele>23.4</ele>
        <time>2011-05-01T08:16:07Z</time>
      </trkpt>
      <trkpt lat="49.33607" lon="1.27939">
        <ele>23.4</ele>
        <time>2011-05-01T08:16:12Z</time>
      </trkpt>
      <trkpt lat="49.33597" lon="1.27944">
        <ele>23.2</ele>
        <time>2011-05-01T08:16:14Z</time>
      </trkpt>
      <trkpt lat="49.33582" lon="1.27948">
        <ele>23.2</ele>
        <time>2011-05-01T08:16:17Z</time>
      </trkpt>
      <trkpt lat="49.33533" lon="1.27971">
        <ele>23.2</ele>
        <time>2011-05-01T08:16:26Z</time>
      </trkpt>
      <trkpt lat="49.33527" lon="1.27973">
        <ele>23.2</ele>
        <time>2011-05-01T08:16:27Z</time>
      </trkpt>
      <trkpt lat="49.33513" lon="1.27966">
        <ele>23.2</ele>
        <time>2011-05-01T08:16:30Z</time>
      </trkpt>
      <trkpt lat="49.33508" lon="1.2795">
        <ele>23.2</ele>
        <time>2011-05-01T08:16:32Z</time>
      </trkpt>
      <trkpt lat="49.33495" lon="1.27878">
        <ele>23.2</ele>
        <time>2011-05-01T08:16:40Z</time>
      </trkpt>
      <trkpt lat="49.33494" lon="1.27869">
        <ele>23.2</ele>
        <time>2011-05-01T08:16:41Z</time>
      </trkpt>
      <trkpt lat="49.33493" lon="1.27861">
        <ele>23.2</ele>
        <time>2011-05-01T08:16:42Z</time>
      </trkpt>
      <trkpt lat="49.33481" lon="1.27853">
        <ele>23.2</ele>
        <time>2011-05-01T08:16:45Z</time>
      </trkpt>
      <trkpt lat="49.33473" lon="1.27862">
        <ele>23.2</ele>
        <time>2011-05-01T08:16:47Z</time>
      </trkpt>
      <trkpt lat="49.33465" lon="1.27876">
        <ele>23.2</ele>
        <time>2011-05-01T08:16:49Z</time>
      </trkpt>
      <trkpt lat="49.33449" lon="1.27896">
        <ele>23.2</ele>
        <time>2011-05-01T08:16:53Z</time>
      </trkpt>
      <trkpt lat="49.33425" lon="1.27929">
        <ele>23.2</ele>
        <time>2011-05-01T08:16:59Z</time>
      </trkpt>
      <trkpt lat="49.33417" lon="1.27939">
        <ele>23.2</ele>
        <time>2011-05-01T08:17:01Z</time>
      </trkpt>
      <trkpt lat="49.334" lon="1.27963">
        <ele>23.2</ele>
        <time>2011-05-01T08:17:06Z</time>
      </trkpt>
      <trkpt lat="49.33385" lon="1.27981">
        <ele>23.2</ele>
        <time>2011-05-01T08:17:11Z</time>
      </trkpt>
      <trkpt lat="49.33375" lon="1.27994">
        <ele>23.2</ele>
        <time>2011-05-01T08:17:14Z</time>
      </trkpt>
      <trkpt lat="49.33373" lon="1.28">
        <ele>23.2</ele>
        <time>2011-05-01T08:17:15Z</time>
      </trkpt>
      <trkpt lat="49.33355" lon="1.28047">
        <ele>23.2</ele>
        <time>2011-05-01T08:17:20Z</time>
      </trkpt>
      <trkpt lat="49.3335" lon="1.28063">
        <ele>23.2</ele>
        <time>2011-05-01T08:17:22Z</time>
      </trkpt>
      <trkpt lat="49.33337" lon="1.28082">
        <ele>23.2</ele>
        <time>2011-05-01T08:17:26Z</time>
      </trkpt>
      <trkpt lat="49.33333" lon="1.28086">
        <ele>23.2</ele>
        <time>2011-05-01T08:17:27Z</time>
      </trkpt>
      <trkpt lat="49.33329" lon="1.28089">
        <ele>23.4</ele>
        <time>2011-05-01T08:17:28Z</time>
      </trkpt>
      <trkpt lat="49.33325" lon="1.28091">
        <ele>23.6</ele>
        <time>2011-05-01T08:17:29Z</time>
      </trkpt>
      <trkpt lat="49.33321" lon="1.28092">
        <ele>23.6</ele>
        <time>2011-05-01T08:17:30Z</time>
      </trkpt>
      <trkpt lat="49.33311" lon="1.28091">
        <ele>24</ele>
        <time>2011-05-01T08:17:32Z</time>
      </trkpt>
      <trkpt lat="49.33299" lon="1.28088">
        <ele>24.2</ele>
        <time>2011-05-01T08:17:34Z</time>
      </trkpt>
      <trkpt lat="49.33287" lon="1.28088">
        <ele>24.4</ele>
        <time>2011-05-01T08:17:36Z</time>
      </trkpt>
      <trkpt lat="49.33265" lon="1.28086">
        <ele>24.8</ele>
        <time>2011-05-01T08:17:40Z</time>
      </trkpt>
      <trkpt lat="49.33251" lon="1.28067">
        <ele>24.8</ele>
        <time>2011-05-01T08:17:44Z</time>
      </trkpt>
      <trkpt lat="49.33248" lon="1.28059">
        <ele>25</ele>
        <time>2011-05-01T08:17:45Z</time>
      </trkpt>
      <trkpt lat="49.33238" lon="1.28022">
        <ele>25</ele>
        <time>2011-05-01T08:17:50Z</time>
      </trkpt>
      <trkpt lat="49.33233" lon="1.28009">
        <ele>24.8</ele>
        <time>2011-05-01T08:17:52Z</time>
      </trkpt>
      <trkpt lat="49.33229" lon="1.27998">
        <ele>24.6</ele>
        <time>2011-05-01T08:17:54Z</time>
      </trkpt>
      <trkpt lat="49.33224" lon="1.2799">
        <ele>24.4</ele>
        <time>2011-05-01T08:17:56Z</time>
      </trkpt>
      <trkpt lat="49.3322" lon="1.27983">
        <ele>24</ele>
        <time>2011-05-01T08:17:58Z</time>
      </trkpt>
      <trkpt lat="49.33216" lon="1.27974">
        <ele>24</ele>
        <time>2011-05-01T08:18:00Z</time>
      </trkpt>
      <trkpt lat="49.33205" lon="1.27941">
        <ele>23.6</ele>
        <time>2011-05-01T08:18:06Z</time>
      </trkpt>
      <trkpt lat="49.33202" lon="1.27939">
        <ele>23.6</ele>
        <time>2011-05-01T08:18:08Z</time>
      </trkpt>
      <trkpt lat="49.33202" lon="1.27944">
        <ele>23.2</ele>
        <time>2011-05-01T08:18:32Z</time>
      </trkpt>
      <trkpt lat="49.33202" lon="1.27943">
        <ele>23.2</ele>
        <time>2011-05-01T08:18:33Z</time>
      </trkpt>
      <trkpt lat="49.332" lon="1.27944">
        <ele>23.2</ele>
        <time>2011-05-01T08:18:34Z</time>
      </trkpt>
      <trkpt lat="49.33191" lon="1.27949">
        <ele>23.2</ele>
        <time>2011-05-01T08:18:38Z</time>
      </trkpt>
      <trkpt lat="49.33182" lon="1.2796">
        <ele>23.2</ele>
        <time>2011-05-01T08:18:41Z</time>
      </trkpt>
      <trkpt lat="49.33178" lon="1.27964">
        <ele>23.2</ele>
        <time>2011-05-01T08:18:42Z</time>
      </trkpt>
      <trkpt lat="49.33158" lon="1.27983">
        <ele>23.2</ele>
        <time>2011-05-01T08:18:48Z</time>
      </trkpt>
      <trkpt lat="49.33152" lon="1.27991">
        <ele>23.2</ele>
        <time>2011-05-01T08:18:50Z</time>
      </trkpt>
      <trkpt lat="49.33136" lon="1.2801">
        <ele>23.4</ele>
        <time>2011-05-01T08:18:55Z</time>
      </trkpt>
      <trkpt lat="49.33128" lon="1.28016">
        <ele>23.8</ele>
        <time>2011-05-01T08:18:57Z</time>
      </trkpt>
      <trkpt lat="49.33121" lon="1.28024">
        <ele>24.2</ele>
        <time>2011-05-01T08:18:59Z</time>
      </trkpt>
      <trkpt lat="49.33114" lon="1.28033">
        <ele>24.4</ele>
        <time>2011-05-01T08:19:01Z</time>
      </trkpt>
      <trkpt lat="49.33107" lon="1.2804">
        <ele>24.6</ele>
        <time>2011-05-01T08:19:03Z</time>
      </trkpt>
      <trkpt lat="49.33101" lon="1.28045">
        <ele>24.8</ele>
        <time>2011-05-01T08:19:06Z</time>
      </trkpt>
      <trkpt lat="49.33089" lon="1.28039">
        <ele>25</ele>
        <time>2011-05-01T08:19:10Z</time>
      </trkpt>
      <trkpt lat="49.33085" lon="1.28035">
        <ele>25.2</ele>
        <time>2011-05-01T08:19:11Z</time>
      </trkpt>
      <trkpt lat="49.33053" lon="1.28007">
        <ele>25.4</ele>
        <time>2011-05-01T08:19:18Z</time>
      </trkpt>
      <trkpt lat="49.33045" lon="1.27997">
        <ele>25.4</ele>
        <time>2011-05-01T08:19:21Z</time>
      </trkpt>
      <trkpt lat="49.33042" lon="1.28008">
        <ele>25.4</ele>
        <time>2011-05-01T08:19:27Z</time>
      </trkpt>
      <trkpt lat="49.3304" lon="1.28009">
        <ele>25.6</ele>
        <time>2011-05-01T08:19:28Z</time>
      </trkpt>
      <trkpt lat="49.33034" lon="1.28012">
        <ele>26</ele>
        <time>2011-05-01T08:19:30Z</time>
      </trkpt>
      <trkpt lat="49.33029" lon="1.28017">
        <ele>26.4</ele>
        <time>2011-05-01T08:19:32Z</time>
      </trkpt>
      <trkpt lat="49.33026" lon="1.28019">
        <ele>26.6</ele>
        <time>2011-05-01T08:19:33Z</time>
      </trkpt>
      <trkpt lat="49.33021" lon="1.28025">
        <ele>27.2</ele>
        <time>2011-05-01T08:19:35Z</time>
      </trkpt>
      <trkpt lat="49.33019" lon="1.28028">
        <ele>27.8</ele>
        <time>2011-05-01T08:19:37Z</time>
      </trkpt>
      <trkpt lat="49.33017" lon="1.28032">
        <ele>28</ele>
        <time>2011-05-01T08:19:39Z</time>
      </trkpt>
      <trkpt lat="49.33014" lon="1.28036">
        <ele>28.6</ele>
        <time>2011-05-01T08:19:41Z</time>
      </trkpt>
      <trkpt lat="49.33011" lon="1.2804">
        <ele>29.4</ele>
        <time>2011-05-01T08:19:43Z</time>
      </trkpt>
      <trkpt lat="49.33008" lon="1.28043">
        <ele>29.8</ele>
        <time>2011-05-01T08:19:45Z</time>
      </trkpt>
      <trkpt lat="49.33006" lon="1.28045">
        <ele>30.6</ele>
        <time>2011-05-01T08:19:47Z</time>
      </trkpt>
      <trkpt lat="49.33003" lon="1.28048">
        <ele>31.2</ele>
        <time>2011-05-01T08:19:49Z</time>
      </trkpt>
      <trkpt lat="49.33001" lon="1.28051">
        <ele>31.8</ele>
        <time>2011-05-01T08:19:51Z</time>
      </trkpt>
      <trkpt lat="49.33" lon="1.28052">
        <ele>32.2</ele>
        <time>2011-05-01T08:19:52Z</time>
      </trkpt>
      <trkpt lat="49.33" lon="1.28054">
        <ele>32.4</ele>
        <time>2011-05-01T08:19:53Z</time>
      </trkpt>
      <trkpt lat="49.32999" lon="1.28056">
        <ele>32.8</ele>
        <time>2011-05-01T08:19:55Z</time>
      </trkpt>
      <trkpt lat="49.32999" lon="1.28057">
        <ele>33.6</ele>
        <time>2011-05-01T08:20:01Z</time>
      </trkpt>
      <trkpt lat="49.33" lon="1.2806">
        <ele>33.8</ele>
        <time>2011-05-01T08:20:05Z</time>
      </trkpt>
      <trkpt lat="49.33" lon="1.28061">
        <ele>34</ele>
        <time>2011-05-01T08:20:06Z</time>
      </trkpt>
      <trkpt lat="49.32999" lon="1.28062">
        <ele>34</ele>
        <time>2011-05-01T08:20:07Z</time>
      </trkpt>
      <trkpt lat="49.32998" lon="1.28066">
        <ele>34.2</ele>
        <time>2011-05-01T08:20:09Z</time>
      </trkpt>
      <trkpt lat="49.32997" lon="1.28071">
        <ele>34.6</ele>
        <time>2011-05-01T08:20:11Z</time>
      </trkpt>
      <trkpt lat="49.32997" lon="1.28073">
        <ele>35</ele>
        <time>2011-05-01T08:20:13Z</time>
      </trkpt>
      <trkpt lat="49.32998" lon="1.28075">
        <ele>35.4</ele>
        <time>2011-05-01T08:20:15Z</time>
      </trkpt>
      <trkpt lat="49.32998" lon="1.28075">
        <ele>35.4</ele>
        <time>2011-05-01T08:20:16Z</time>
      </trkpt>
      <trkpt lat="49.32997" lon="1.28081">
        <ele>36</ele>
        <time>2011-05-01T08:20:25Z</time>
      </trkpt>
      <trkpt lat="49.32997" lon="1.28082">
        <ele>36.2</ele>
        <time>2011-05-01T08:20:26Z</time>
      </trkpt>
      <trkpt lat="49.32997" lon="1.28082">
        <ele>36.2</ele>
        <time>2011-05-01T08:20:27Z</time>
      </trkpt>
      <trkpt lat="49.32996" lon="1.28086">
        <ele>37.2</ele>
        <time>2011-05-01T08:20:32Z</time>
      </trkpt>
      <trkpt lat="49.32995" lon="1.28087">
        <ele>37.4</ele>
        <time>2011-05-01T08:20:33Z</time>
      </trkpt>
      <trkpt lat="49.32995" lon="1.28088">
        <ele>37.6</ele>
        <time>2011-05-01T08:20:34Z</time>
      </trkpt>
      <trkpt lat="49.32995" lon="1.28088">
        <ele>37.8</ele>
        <time>2011-05-01T08:20:35Z</time>
      </trkpt>
      <trkpt lat="49.32997" lon="1.28094">
        <ele>39.4</ele>
        <time>2011-05-01T08:20:42Z</time>
      </trkpt>
      <trkpt lat="49.32996" lon="1.28095">
        <ele>39.6</ele>
        <time>2011-05-01T08:20:43Z</time>
      </trkpt>
      <trkpt lat="49.32994" lon="1.28095">
        <ele>39.8</ele>
        <time>2011-05-01T08:20:44Z</time>
      </trkpt>
      <trkpt lat="49.32993" lon="1.28095">
        <ele>39.8</ele>
        <time>2011-05-01T08:20:45Z</time>
      </trkpt>
      <trkpt lat="49.32991" lon="1.28095">
        <ele>40.2</ele>
        <time>2011-05-01T08:20:46Z</time>
      </trkpt>
      <trkpt lat="49.3299" lon="1.28095">
        <ele>40.6</ele>
        <time>2011-05-01T08:20:48Z</time>
      </trkpt>
      <trkpt lat="49.32989" lon="1.28096">
        <ele>41</ele>
        <time>2011-05-01T08:20:49Z</time>
      </trkpt>
      <trkpt lat="49.32986" lon="1.28103">
        <ele>41.4</ele>
        <time>2011-05-01T08:20:52Z</time>
      </trkpt>
      <trkpt lat="49.32984" lon="1.28108">
        <ele>41.8</ele>
        <time>2011-05-01T08:20:54Z</time>
      </trkpt>
      <trkpt lat="49.32983" lon="1.28112">
        <ele>42</ele>
        <time>2011-05-01T08:20:56Z</time>
      </trkpt>
      <trkpt lat="49.32978" lon="1.28116">
        <ele>42.4</ele>
        <time>2011-05-01T08:20:59Z</time>
      </trkpt>
      <trkpt lat="49.32977" lon="1.28117">
        <ele>42.8</ele>
        <time>2011-05-01T08:21:00Z</time>
      </trkpt>
      <trkpt lat="49.32973" lon="1.28121">
        <ele>43.4</ele>
        <time>2011-05-01T08:21:03Z</time>
      </trkpt>
      <trkpt lat="49.32969" lon="1.28122">
        <ele>43.8</ele>
        <time>2011-05-01T08:21:05Z</time>
      </trkpt>
      <trkpt lat="49.32964" lon="1.28122">
        <ele>44</ele>
        <time>2011-05-01T08:21:07Z</time>
      </trkpt>
      <trkpt lat="49.32963" lon="1.28121">
        <ele>44.2</ele>
        <time>2011-05-01T08:21:08Z</time>
      </trkpt>
      <trkpt lat="49.32956" lon="1.28115">
        <ele>44.6</ele>
        <time>2011-05-01T08:21:13Z</time>
      </trkpt>
      <trkpt lat="49.32954" lon="1.28113">
        <ele>44.8</ele>
        <time>2011-05-01T08:21:14Z</time>
      </trkpt>
      <trkpt lat="49.32953" lon="1.28112">
        <ele>45</ele>
        <time>2011-05-01T08:21:15Z</time>
      </trkpt>
      <trkpt lat="49.32951" lon="1.28111">
        <ele>45.2</ele>
        <time>2011-05-01T08:21:16Z</time>
      </trkpt>
      <trkpt lat="49.32949" lon="1.28107">
        <ele>45.6</ele>
        <time>2011-05-01T08:21:18Z</time>
      </trkpt>
      <trkpt lat="49.32947" lon="1.28104">
        <ele>46</ele>
        <time>2011-05-01T08:21:20Z</time>
      </trkpt>
      <trkpt lat="49.32945" lon="1.28102">
        <ele>46.2</ele>
        <time>2011-05-01T08:21:21Z</time>
      </trkpt>
      <trkpt lat="49.32943" lon="1.28099">
        <ele>46.8</ele>
        <time>2011-05-01T08:21:23Z</time>
      </trkpt>
      <trkpt lat="49.3294" lon="1.28097">
        <ele>47.4</ele>
        <time>2011-05-01T08:21:25Z</time>
      </trkpt>
      <trkpt lat="49.32937" lon="1.28095">
        <ele>47.8</ele>
        <time>2011-05-01T08:21:27Z</time>
      </trkpt>
      <trkpt lat="49.32934" lon="1.28092">
        <ele>48</ele>
        <time>2011-05-01T08:21:29Z</time>
      </trkpt>
      <trkpt lat="49.32928" lon="1.28087">
        <ele>48.8</ele>
        <time>2011-05-01T08:21:33Z</time>
      </trkpt>
      <trkpt lat="49.32925" lon="1.28085">
        <ele>49.4</ele>
        <time>2011-05-01T08:21:35Z</time>
      </trkpt>
      <trkpt lat="49.32921" lon="1.28082">
        <ele>49.8</ele>
        <time>2011-05-01T08:21:37Z</time>
      </trkpt>
      <trkpt lat="49.32918" lon="1.28081">
        <ele>50.2</ele>
        <time>2011-05-01T08:21:39Z</time>
      </trkpt>
      <trkpt lat="49.32915" lon="1.28079">
        <ele>50.4</ele>
        <time>2011-05-01T08:21:41Z</time>
      </trkpt>
      <trkpt lat="49.32913" lon="1.28076">
        <ele>50.8</ele>
        <time>2011-05-01T08:21:43Z</time>
      </trkpt>
      <trkpt lat="49.3291" lon="1.28075">
        <ele>51.4</ele>
        <time>2011-05-01T08:21:45Z</time>
      </trkpt>
      <trkpt lat="49.32907" lon="1.28073">
        <ele>51.8</ele>
        <time>2011-05-01T08:21:47Z</time>
      </trkpt>
      <trkpt lat="49.32906" lon="1.28072">
        <ele>52</ele>
        <time>2011-05-01T08:21:48Z</time>
      </trkpt>
      <trkpt lat="49.32905" lon="1.28071">
        <ele>52.2</ele>
        <time>2011-05-01T08:21:49Z</time>
      </trkpt>
      <trkpt lat="49.32904" lon="1.2807">
        <ele>52.4</ele>
        <time>2011-05-01T08:21:51Z</time>
      </trkpt>
      <trkpt lat="49.32902" lon="1.28068">
        <ele>53</ele>
        <time>2011-05-01T08:21:53Z</time>
      </trkpt>
      <trkpt lat="49.32901" lon="1.28067">
        <ele>53.2</ele>
        <time>2011-05-01T08:21:54Z</time>
      </trkpt>
      <trkpt lat="49.32896" lon="1.28063">
        <ele>54</ele>
        <time>2011-05-01T08:21:57Z</time>
      </trkpt>
      <trkpt lat="49.32893" lon="1.28061">
        <ele>54.2</ele>
        <time>2011-05-01T08:21:59Z</time>
      </trkpt>
      <trkpt lat="49.32891" lon="1.28058">
        <ele>54.6</ele>
        <time>2011-05-01T08:22:01Z</time>
      </trkpt>
      <trkpt lat="49.3289" lon="1.28057">
        <ele>54.8</ele>
        <time>2011-05-01T08:22:02Z</time>
      </trkpt>
      <trkpt lat="49.32888" lon="1.28055">
        <ele>55.4</ele>
        <time>2011-05-01T08:22:04Z</time>
      </trkpt>
      <trkpt lat="49.32888" lon="1.28053">
        <ele>55.8</ele>
        <time>2011-05-01T08:22:05Z</time>
      </trkpt>
      <trkpt lat="49.32887" lon="1.28052">
        <ele>56</ele>
        <time>2011-05-01T08:22:06Z</time>
      </trkpt>
      <trkpt lat="49.32883" lon="1.28049">
        <ele>56.4</ele>
        <time>2011-05-01T08:22:08Z</time>
      </trkpt>
      <trkpt lat="49.32881" lon="1.28045">
        <ele>56.6</ele>
        <time>2011-05-01T08:22:10Z</time>
      </trkpt>
      <trkpt lat="49.3288" lon="1.28043">
        <ele>57</ele>
        <time>2011-05-01T08:22:11Z</time>
      </trkpt>
      <trkpt lat="49.32879" lon="1.28042">
        <ele>57.2</ele>
        <time>2011-05-01T08:22:12Z</time>
      </trkpt>
      <trkpt lat="49.32878" lon="1.2804">
        <ele>57.6</ele>
        <time>2011-05-01T08:22:13Z</time>
      </trkpt>
      <trkpt lat="49.32875" lon="1.28037">
        <ele>58</ele>
        <time>2011-05-01T08:22:15Z</time>
      </trkpt>
      <trkpt lat="49.32873" lon="1.28034">
        <ele>58.4</ele>
        <time>2011-05-01T08:22:17Z</time>
      </trkpt>
      <trkpt lat="49.32873" lon="1.28033">
        <ele>58.6</ele>
        <time>2011-05-01T08:22:18Z</time>
      </trkpt>
      <trkpt lat="49.32873" lon="1.28027">
        <ele>59.2</ele>
        <time>2011-05-01T08:22:21Z</time>
      </trkpt>
      <trkpt lat="49.32872" lon="1.28024">
        <ele>59.6</ele>
        <time>2011-05-01T08:22:23Z</time>
      </trkpt>
      <trkpt lat="49.32871" lon="1.28022">
        <ele>60.2</ele>
        <time>2011-05-01T08:22:25Z</time>
      </trkpt>
      <trkpt lat="49.3287" lon="1.2802">
        <ele>60.4</ele>
        <time>2011-05-01T08:22:27Z</time>
      </trkpt>
      <trkpt lat="49.32869" lon="1.28018">
        <ele>60.8</ele>
        <time>2011-05-01T08:22:29Z</time>
      </trkpt>
      <trkpt lat="49.32867" lon="1.28011">
        <ele>61.4</ele>
        <time>2011-05-01T08:22:32Z</time>
      </trkpt>
      <trkpt lat="49.32865" lon="1.28009">
        <ele>61.8</ele>
        <time>2011-05-01T08:22:34Z</time>
      </trkpt>
      <trkpt lat="49.32861" lon="1.28005">
        <ele>62.4</ele>
        <time>2011-05-01T08:22:36Z</time>
      </trkpt>
      <trkpt lat="49.32859" lon="1.28005">
        <ele>62.4</ele>
        <time>2011-05-01T08:22:37Z</time>
      </trkpt>
      <trkpt lat="49.32857" lon="1.28002">
        <ele>62.6</ele>
        <time>2011-05-01T08:22:38Z</time>
      </trkpt>
      <trkpt lat="49.32855" lon="1.27997">
        <ele>63</ele>
        <time>2011-05-01T08:22:40Z</time>
      </trkpt>
      <trkpt lat="49.32853" lon="1.27993">
        <ele>63.4</ele>
        <time>2011-05-01T08:22:42Z</time>
      </trkpt>
      <trkpt lat="49.32851" lon="1.27989">
        <ele>64</ele>
        <time>2011-05-01T08:22:44Z</time>
      </trkpt>
      <trkpt lat="49.32849" lon="1.27988">
        <ele>64.4</ele>
        <time>2011-05-01T08:22:46Z</time>
      </trkpt>
      <trkpt lat="49.32848" lon="1.27987">
        <ele>64.6</ele>
        <time>2011-05-01T08:22:48Z</time>
      </trkpt>
      <trkpt lat="49.32847" lon="1.27984">
        <ele>65</ele>
        <time>2011-05-01T08:22:50Z</time>
      </trkpt>
      <trkpt lat="49.32844" lon="1.2798">
        <ele>65.2</ele>
        <time>2011-05-01T08:22:52Z</time>
      </trkpt>
      <trkpt lat="49.32843" lon="1.27978">
        <ele>65.6</ele>
        <time>2011-05-01T08:22:53Z</time>
      </trkpt>
      <trkpt lat="49.32841" lon="1.27975">
        <ele>66</ele>
        <time>2011-05-01T08:22:55Z</time>
      </trkpt>
      <trkpt lat="49.32838" lon="1.27973">
        <ele>66.6</ele>
        <time>2011-05-01T08:22:57Z</time>
      </trkpt>
      <trkpt lat="49.32835" lon="1.27971">
        <ele>66.8</ele>
        <time>2011-05-01T08:22:59Z</time>
      </trkpt>
      <trkpt lat="49.32833" lon="1.27968">
        <ele>67.2</ele>
        <time>2011-05-01T08:23:01Z</time>
      </trkpt>
      <trkpt lat="49.32831" lon="1.27965">
        <ele>67.6</ele>
        <time>2011-05-01T08:23:03Z</time>
      </trkpt>
      <trkpt lat="49.32829" lon="1.27962">
        <ele>68</ele>
        <time>2011-05-01T08:23:04Z</time>
      </trkpt>
      <trkpt lat="49.32825" lon="1.27953">
        <ele>68.6</ele>
        <time>2011-05-01T08:23:07Z</time>
      </trkpt>
      <trkpt lat="49.32824" lon="1.27951">
        <ele>68.8</ele>
        <time>2011-05-01T08:23:08Z</time>
      </trkpt>
      <trkpt lat="49.32825" lon="1.27946">
        <ele>69.4</ele>
        <time>2011-05-01T08:23:11Z</time>
      </trkpt>
      <trkpt lat="49.32825" lon="1.27942">
        <ele>69.8</ele>
        <time>2011-05-01T08:23:14Z</time>
      </trkpt>
      <trkpt lat="49.32825" lon="1.2794">
        <ele>70.2</ele>
        <time>2011-05-01T08:23:15Z</time>
      </trkpt>
      <trkpt lat="49.32824" lon="1.27939">
        <ele>70.4</ele>
        <time>2011-05-01T08:23:16Z</time>
      </trkpt>
      <trkpt lat="49.32823" lon="1.27937">
        <ele>70.8</ele>
        <time>2011-05-01T08:23:18Z</time>
      </trkpt>
      <trkpt lat="49.32822" lon="1.27933">
        <ele>71.2</ele>
        <time>2011-05-01T08:23:20Z</time>
      </trkpt>
      <trkpt lat="49.32821" lon="1.27929">
        <ele>71.4</ele>
        <time>2011-05-01T08:23:22Z</time>
      </trkpt>
      <trkpt lat="49.32815" lon="1.27921">
        <ele>72.2</ele>
        <time>2011-05-01T08:23:27Z</time>
      </trkpt>
      <trkpt lat="49.32812" lon="1.27918">
        <ele>72.6</ele>
        <time>2011-05-01T08:23:29Z</time>
      </trkpt>
      <trkpt lat="49.32809" lon="1.27915">
        <ele>73</ele>
        <time>2011-05-01T08:23:31Z</time>
      </trkpt>
      <trkpt lat="49.32805" lon="1.27911">
        <ele>73.4</ele>
        <time>2011-05-01T08:23:33Z</time>
      </trkpt>
      <trkpt lat="49.32801" lon="1.27908">
        <ele>73.6</ele>
        <time>2011-05-01T08:23:35Z</time>
      </trkpt>
      <trkpt lat="49.32799" lon="1.27906">
        <ele>74</ele>
        <time>2011-05-01T08:23:36Z</time>
      </trkpt>
      <trkpt lat="49.32794" lon="1.27902">
        <ele>74.6</ele>
        <time>2011-05-01T08:23:38Z</time>
      </trkpt>
      <trkpt lat="49.32791" lon="1.27899">
        <ele>75</ele>
        <time>2011-05-01T08:23:40Z</time>
      </trkpt>
      <trkpt lat="49.32788" lon="1.27897">
        <ele>75.2</ele>
        <time>2011-05-01T08:23:41Z</time>
      </trkpt>
      <trkpt lat="49.32786" lon="1.27895">
        <ele>75.4</ele>
        <time>2011-05-01T08:23:42Z</time>
      </trkpt>
      <trkpt lat="49.32782" lon="1.27892">
        <ele>75.6</ele>
        <time>2011-05-01T08:23:44Z</time>
      </trkpt>
      <trkpt lat="49.32781" lon="1.2789">
        <ele>76</ele>
        <time>2011-05-01T08:23:45Z</time>
      </trkpt>
      <trkpt lat="49.3278" lon="1.27889">
        <ele>76.2</ele>
        <time>2011-05-01T08:23:46Z</time>
      </trkpt>
      <trkpt lat="49.32775" lon="1.27885">
        <ele>77</ele>
        <time>2011-05-01T08:23:49Z</time>
      </trkpt>
      <trkpt lat="49.32769" lon="1.27881">
        <ele>77.4</ele>
        <time>2011-05-01T08:23:51Z</time>
      </trkpt>
      <trkpt lat="49.32764" lon="1.27877">
        <ele>77.6</ele>
        <time>2011-05-01T08:23:53Z</time>
      </trkpt>
      <trkpt lat="49.3276" lon="1.2787">
        <ele>78.2</ele>
        <time>2011-05-01T08:23:56Z</time>
      </trkpt>
      <trkpt lat="49.32758" lon="1.27865">
        <ele>78.8</ele>
        <time>2011-05-01T08:23:58Z</time>
      </trkpt>
      <trkpt lat="49.32758" lon="1.27859">
        <ele>79.2</ele>
        <time>2011-05-01T08:24:00Z</time>
      </trkpt>
      <trkpt lat="49.32758" lon="1.27854">
        <ele>79.6</ele>
        <time>2011-05-01T08:24:02Z</time>
      </trkpt>
      <trkpt lat="49.32758" lon="1.27851">
        <ele>79.8</ele>
        <time>2011-05-01T08:24:03Z</time>
      </trkpt>
      <trkpt lat="49.32758" lon="1.27848">
        <ele>79.8</ele>
        <time>2011-05-01T08:24:04Z</time>
      </trkpt>
      <trkpt lat="49.3275" lon="1.27831">
        <ele>80.4</ele>
        <time>2011-05-01T08:24:08Z</time>
      </trkpt>
      <trkpt lat="49.32747" lon="1.27821">
        <ele>80.6</ele>
        <time>2011-05-01T08:24:10Z</time>
      </trkpt>
      <trkpt lat="49.32744" lon="1.27813">
        <ele>81.2</ele>
        <time>2011-05-01T08:24:12Z</time>
      </trkpt>
      <trkpt lat="49.32742" lon="1.27803">
        <ele>81.6</ele>
        <time>2011-05-01T08:24:14Z</time>
      </trkpt>
      <trkpt lat="49.32741" lon="1.27793">
        <ele>81.8</ele>
        <time>2011-05-01T08:24:16Z</time>
      </trkpt>
      <trkpt lat="49.3274" lon="1.27789">
        <ele>82</ele>
        <time>2011-05-01T08:24:17Z</time>
      </trkpt>
      <trkpt lat="49.32739" lon="1.27785">
        <ele>82.2</ele>
        <time>2011-05-01T08:24:18Z</time>
      </trkpt>
      <trkpt lat="49.3273" lon="1.27759">
        <ele>82.6</ele>
        <time>2011-05-01T08:24:24Z</time>
      </trkpt>
      <trkpt lat="49.32724" lon="1.27743">
        <ele>82.8</ele>
        <time>2011-05-01T08:24:28Z</time>
      </trkpt>
      <trkpt lat="49.32726" lon="1.27708">
        <ele>83</ele>
        <time>2011-05-01T08:24:34Z</time>
      </trkpt>
      <trkpt lat="49.32725" lon="1.27694">
        <ele>83</ele>
        <time>2011-05-01T08:24:36Z</time>
      </trkpt>
      <trkpt lat="49.32718" lon="1.27674">
        <ele>83</ele>
        <time>2011-05-01T08:24:39Z</time>
      </trkpt>
      <trkpt lat="49.32713" lon="1.27653">
        <ele>82.4</ele>
        <time>2011-05-01T08:24:42Z</time>
      </trkpt>
      <trkpt lat="49.32712" lon="1.27645">
        <ele>82</ele>
        <time>2011-05-01T08:24:43Z</time>
      </trkpt>
      <trkpt lat="49.3271" lon="1.27635">
        <ele>81.6</ele>
        <time>2011-05-01T08:24:44Z</time>
      </trkpt>
      <trkpt lat="49.32712" lon="1.27597">
        <ele>80.6</ele>
        <time>2011-05-01T08:24:46Z</time>
      </trkpt>
      <trkpt lat="49.32712" lon="1.27588">
        <ele>80</ele>
        <time>2011-05-01T08:24:47Z</time>
      </trkpt>
      <trkpt lat="49.32711" lon="1.27571">
        <ele>78.4</ele>
        <time>2011-05-01T08:24:49Z</time>
      </trkpt>
      <trkpt lat="49.32717" lon="1.2755">
        <ele>76.2</ele>
        <time>2011-05-01T08:24:52Z</time>
      </trkpt>
      <trkpt lat="49.32722" lon="1.27543">
        <ele>75</ele>
        <time>2011-05-01T08:24:54Z</time>
      </trkpt>
      <trkpt lat="49.32723" lon="1.2754">
        <ele>74.4</ele>
        <time>2011-05-01T08:24:55Z</time>
      </trkpt>
      <trkpt lat="49.32724" lon="1.27537">
        <ele>74</ele>
        <time>2011-05-01T08:24:56Z</time>
      </trkpt>
      <trkpt lat="49.32723" lon="1.27527">
        <ele>73.2</ele>
        <time>2011-05-01T08:24:58Z</time>
      </trkpt>
      <trkpt lat="49.32726" lon="1.27515">
        <ele>72</ele>
        <time>2011-05-01T08:25:02Z</time>
      </trkpt>
      <trkpt lat="49.32726" lon="1.27512">
        <ele>71.6</ele>
        <time>2011-05-01T08:25:04Z</time>
      </trkpt>
      <trkpt lat="49.32725" lon="1.27482">
        <ele>70.8</ele>
        <time>2011-05-01T08:25:10Z</time>
      </trkpt>
      <trkpt lat="49.32724" lon="1.27456">
        <ele>70.4</ele>
        <time>2011-05-01T08:25:15Z</time>
      </trkpt>
      <trkpt lat="49.32724" lon="1.27443">
        <ele>70.4</ele>
        <time>2011-05-01T08:25:18Z</time>
      </trkpt>
      <trkpt lat="49.32727" lon="1.27426">
        <ele>70.2</ele>
        <time>2011-05-01T08:25:21Z</time>
      </trkpt>
      <trkpt lat="49.32726" lon="1.27416">
        <ele>70.2</ele>
        <time>2011-05-01T08:25:23Z</time>
      </trkpt>
      <trkpt lat="49.32718" lon="1.27386">
        <ele>69.8</ele>
        <time>2011-05-01T08:25:29Z</time>
      </trkpt>
      <trkpt lat="49.32714" lon="1.27377">
        <ele>69.4</ele>
        <time>2011-05-01T08:25:31Z</time>
      </trkpt>
      <trkpt lat="49.32712" lon="1.27373">
        <ele>69.2</ele>
        <time>2011-05-01T08:25:33Z</time>
      </trkpt>
      <trkpt lat="49.32713" lon="1.27373">
        <ele>69</ele>
        <time>2011-05-01T08:25:34Z</time>
      </trkpt>
      <trkpt lat="49.32713" lon="1.2737">
        <ele>69</ele>
        <time>2011-05-01T08:25:35Z</time>
      </trkpt>
      <trkpt lat="49.32713" lon="1.27366">
        <ele>68.8</ele>
        <time>2011-05-01T08:25:36Z</time>
      </trkpt>
      <trkpt lat="49.32702" lon="1.27347">
        <ele>68.4</ele>
        <time>2011-05-01T08:25:41Z</time>
      </trkpt>
      <trkpt lat="49.32691" lon="1.27313">
        <ele>68.2</ele>
        <time>2011-05-01T08:25:46Z</time>
      </trkpt>
      <trkpt lat="49.3269" lon="1.2731">
        <ele>68.2</ele>
        <time>2011-05-01T08:25:47Z</time>
      </trkpt>
      <trkpt lat="49.32689" lon="1.27301">
        <ele>68.2</ele>
        <time>2011-05-01T08:25:49Z</time>
      </trkpt>
      <trkpt lat="49.3268" lon="1.27286">
        <ele>68</ele>
        <time>2011-05-01T08:25:53Z</time>
      </trkpt>
      <trkpt lat="49.32673" lon="1.27269">
        <ele>68</ele>
        <time>2011-05-01T08:25:57Z</time>
      </trkpt>
      <trkpt lat="49.32673" lon="1.27266">
        <ele>68</ele>
        <time>2011-05-01T08:25:58Z</time>
      </trkpt>
      <trkpt lat="49.32668" lon="1.27243">
        <ele>68</ele>
        <time>2011-05-01T08:26:03Z</time>
      </trkpt>
      <trkpt lat="49.32669" lon="1.27222">
        <ele>68</ele>
        <time>2011-05-01T08:26:06Z</time>
      </trkpt>
      <trkpt lat="49.32668" lon="1.27208">
        <ele>68</ele>
        <time>2011-05-01T08:26:09Z</time>
      </trkpt>
      <trkpt lat="49.32664" lon="1.27202">
        <ele>68.2</ele>
        <time>2011-05-01T08:26:12Z</time>
      </trkpt>
      <trkpt lat="49.32662" lon="1.27194">
        <ele>68.4</ele>
        <time>2011-05-01T08:26:14Z</time>
      </trkpt>
      <trkpt lat="49.32661" lon="1.27188">
        <ele>68.6</ele>
        <time>2011-05-01T08:26:15Z</time>
      </trkpt>
      <trkpt lat="49.3266" lon="1.27172">
        <ele>69</ele>
        <time>2011-05-01T08:26:18Z</time>
      </trkpt>
      <trkpt lat="49.32663" lon="1.27169">
        <ele>69</ele>
        <time>2011-05-01T08:26:19Z</time>
      </trkpt>
      <trkpt lat="49.32666" lon="1.27163">
        <ele>69.2</ele>
        <time>2011-05-01T08:26:20Z</time>
      </trkpt>
      <trkpt lat="49.32671" lon="1.27141">
        <ele>69.4</ele>
        <time>2011-05-01T08:26:23Z</time>
      </trkpt>
      <trkpt lat="49.32669" lon="1.27114">
        <ele>69.6</ele>
        <time>2011-05-01T08:26:26Z</time>
      </trkpt>
      <trkpt lat="49.32668" lon="1.27111">
        <ele>69.6</ele>
        <time>2011-05-01T08:26:27Z</time>
      </trkpt>
      <trkpt lat="49.32666" lon="1.27109">
        <ele>69.6</ele>
        <time>2011-05-01T08:26:28Z</time>
      </trkpt>
      <trkpt lat="49.32663" lon="1.27094">
        <ele>69.8</ele>
        <time>2011-05-01T08:26:32Z</time>
      </trkpt>
      <trkpt lat="49.32656" lon="1.2708">
        <ele>69.8</ele>
        <time>2011-05-01T08:26:36Z</time>
      </trkpt>
      <trkpt lat="49.32649" lon="1.2705">
        <ele>69.8</ele>
        <time>2011-05-01T08:26:42Z</time>
      </trkpt>
      <trkpt lat="49.32647" lon="1.27017">
        <ele>70</ele>
        <time>2011-05-01T08:26:47Z</time>
      </trkpt>
      <trkpt lat="49.32647" lon="1.26996">
        <ele>70</ele>
        <time>2011-05-01T08:26:49Z</time>
      </trkpt>
      <trkpt lat="49.32638" lon="1.26969">
        <ele>70</ele>
        <time>2011-05-01T08:26:53Z</time>
      </trkpt>
      <trkpt lat="49.32628" lon="1.26951">
        <ele>70</ele>
        <time>2011-05-01T08:26:56Z</time>
      </trkpt>
      <trkpt lat="49.32618" lon="1.26929">
        <ele>70</ele>
        <time>2011-05-01T08:26:59Z</time>
      </trkpt>
      <trkpt lat="49.32609" lon="1.26916">
        <ele>70</ele>
        <time>2011-05-01T08:27:01Z</time>
      </trkpt>
      <trkpt lat="49.32602" lon="1.26905">
        <ele>70</ele>
        <time>2011-05-01T08:27:03Z</time>
      </trkpt>
      <trkpt lat="49.32603" lon="1.26887">
        <ele>69.4</ele>
        <time>2011-05-01T08:27:06Z</time>
      </trkpt>
      <trkpt lat="49.3261" lon="1.26876">
        <ele>68.8</ele>
        <time>2011-05-01T08:27:08Z</time>
      </trkpt>
      <trkpt lat="49.32615" lon="1.26872">
        <ele>68.4</ele>
        <time>2011-05-01T08:27:09Z</time>
      </trkpt>
      <trkpt lat="49.32625" lon="1.26863">
        <ele>67.8</ele>
        <time>2011-05-01T08:27:11Z</time>
      </trkpt>
      <trkpt lat="49.3263" lon="1.26859">
        <ele>67.4</ele>
        <time>2011-05-01T08:27:12Z</time>
      </trkpt>
      <trkpt lat="49.32633" lon="1.26855">
        <ele>67</ele>
        <time>2011-05-01T08:27:13Z</time>
      </trkpt>
      <trkpt lat="49.32637" lon="1.26839">
        <ele>65.8</ele>
        <time>2011-05-01T08:27:16Z</time>
      </trkpt>
      <trkpt lat="49.32639" lon="1.26826">
        <ele>65.4</ele>
        <time>2011-05-01T08:27:18Z</time>
      </trkpt>
      <trkpt lat="49.3264" lon="1.26817">
        <ele>65</ele>
        <time>2011-05-01T08:27:19Z</time>
      </trkpt>
      <trkpt lat="49.32641" lon="1.26789">
        <ele>64.4</ele>
        <time>2011-05-01T08:27:22Z</time>
      </trkpt>
      <trkpt lat="49.32641" lon="1.26766">
        <ele>63.6</ele>
        <time>2011-05-01T08:27:24Z</time>
      </trkpt>
      <trkpt lat="49.32642" lon="1.26755">
        <ele>63.2</ele>
        <time>2011-05-01T08:27:25Z</time>
      </trkpt>
      <trkpt lat="49.32645" lon="1.2673">
        <ele>62</ele>
        <time>2011-05-01T08:27:27Z</time>
      </trkpt>
      <trkpt lat="49.3265" lon="1.26706">
        <ele>60.8</ele>
        <time>2011-05-01T08:27:29Z</time>
      </trkpt>
      <trkpt lat="49.32652" lon="1.26695">
        <ele>60.2</ele>
        <time>2011-05-01T08:27:30Z</time>
      </trkpt>
      <trkpt lat="49.32656" lon="1.26679">
        <ele>58.6</ele>
        <time>2011-05-01T08:27:32Z</time>
      </trkpt>
      <trkpt lat="49.32657" lon="1.2666">
        <ele>57</ele>
        <time>2011-05-01T08:27:34Z</time>
      </trkpt>
      <trkpt lat="49.32658" lon="1.2664">
        <ele>55.4</ele>
        <time>2011-05-01T08:27:36Z</time>
      </trkpt>
      <trkpt lat="49.32657" lon="1.2662">
        <ele>53.6</ele>
        <time>2011-05-01T08:27:38Z</time>
      </trkpt>
      <trkpt lat="49.32655" lon="1.26598">
        <ele>51.8</ele>
        <time>2011-05-01T08:27:40Z</time>
      </trkpt>
      <trkpt lat="49.32654" lon="1.26587">
        <ele>50.8</ele>
        <time>2011-05-01T08:27:41Z</time>
      </trkpt>
      <trkpt lat="49.32648" lon="1.26566">
        <ele>49</ele>
        <time>2011-05-01T08:27:43Z</time>
      </trkpt>
      <trkpt lat="49.32641" lon="1.2655">
        <ele>47.4</ele>
        <time>2011-05-01T08:27:45Z</time>
      </trkpt>
      <trkpt lat="49.32634" lon="1.26541">
        <ele>46.8</ele>
        <time>2011-05-01T08:27:46Z</time>
      </trkpt>
      <trkpt lat="49.32629" lon="1.26532">
        <ele>46.2</ele>
        <time>2011-05-01T08:27:47Z</time>
      </trkpt>
      <trkpt lat="49.32622" lon="1.2652">
        <ele>45</ele>
        <time>2011-05-01T08:27:49Z</time>
      </trkpt>
      <trkpt lat="49.32618" lon="1.26512">
        <ele>44.2</ele>
        <time>2011-05-01T08:27:51Z</time>
      </trkpt>
      <trkpt lat="49.32615" lon="1.26506">
        <ele>43.8</ele>
        <time>2011-05-01T08:27:52Z</time>
      </trkpt>
      <trkpt lat="49.32611" lon="1.26499">
        <ele>43.6</ele>
        <time>2011-05-01T08:27:53Z</time>
      </trkpt>
      <trkpt lat="49.32603" lon="1.26486">
        <ele>43.6</ele>
        <time>2011-05-01T08:27:55Z</time>
      </trkpt>
      <trkpt lat="49.32596" lon="1.26476">
        <ele>43.4</ele>
        <time>2011-05-01T08:27:57Z</time>
      </trkpt>
      <trkpt lat="49.32589" lon="1.26466">
        <ele>43.6</ele>
        <time>2011-05-01T08:27:59Z</time>
      </trkpt>
      <trkpt lat="49.32583" lon="1.26458">
        <ele>43.8</ele>
        <time>2011-05-01T08:28:01Z</time>
      </trkpt>
      <trkpt lat="49.32578" lon="1.26451">
        <ele>44</ele>
        <time>2011-05-01T08:28:03Z</time>
      </trkpt>
      <trkpt lat="49.32574" lon="1.26444">
        <ele>44.2</ele>
        <time>2011-05-01T08:28:05Z</time>
      </trkpt>
      <trkpt lat="49.32572" lon="1.26441">
        <ele>44.4</ele>
        <time>2011-05-01T08:28:06Z</time>
      </trkpt>
      <trkpt lat="49.32569" lon="1.26434">
        <ele>44.8</ele>
        <time>2011-05-01T08:28:08Z</time>
      </trkpt>
      <trkpt lat="49.32566" lon="1.26428">
        <ele>45.2</ele>
        <time>2011-05-01T08:28:10Z</time>
      </trkpt>
      <trkpt lat="49.32563" lon="1.26422">
        <ele>45.6</ele>
        <time>2011-05-01T08:28:12Z</time>
      </trkpt>
      <trkpt lat="49.3256" lon="1.26418">
        <ele>46</ele>
        <time>2011-05-01T08:28:14Z</time>
      </trkpt>
      <trkpt lat="49.32559" lon="1.26415">
        <ele>46.4</ele>
        <time>2011-05-01T08:28:15Z</time>
      </trkpt>
      <trkpt lat="49.32558" lon="1.26409">
        <ele>47</ele>
        <time>2011-05-01T08:28:18Z</time>
      </trkpt>
      <trkpt lat="49.32557" lon="1.26404">
        <ele>47.4</ele>
        <time>2011-05-01T08:28:20Z</time>
      </trkpt>
      <trkpt lat="49.32555" lon="1.26401">
        <ele>47.8</ele>
        <time>2011-05-01T08:28:21Z</time>
      </trkpt>
      <trkpt lat="49.32553" lon="1.26397">
        <ele>48.4</ele>
        <time>2011-05-01T08:28:23Z</time>
      </trkpt>
      <trkpt lat="49.32551" lon="1.26393">
        <ele>49</ele>
        <time>2011-05-01T08:28:25Z</time>
      </trkpt>
      <trkpt lat="49.32549" lon="1.26388">
        <ele>49.4</ele>
        <time>2011-05-01T08:28:27Z</time>
      </trkpt>
      <trkpt lat="49.32546" lon="1.26383">
        <ele>50</ele>
        <time>2011-05-01T08:28:29Z</time>
      </trkpt>
      <trkpt lat="49.32545" lon="1.26382">
        <ele>50.2</ele>
        <time>2011-05-01T08:28:30Z</time>
      </trkpt>
      <trkpt lat="49.32539" lon="1.26376">
        <ele>51</ele>
        <time>2011-05-01T08:28:33Z</time>
      </trkpt>
      <trkpt lat="49.32536" lon="1.26373">
        <ele>51.4</ele>
        <time>2011-05-01T08:28:35Z</time>
      </trkpt>
      <trkpt lat="49.32533" lon="1.26368">
        <ele>52</ele>
        <time>2011-05-01T08:28:37Z</time>
      </trkpt>
      <trkpt lat="49.3253" lon="1.26365">
        <ele>52.6</ele>
        <time>2011-05-01T08:28:39Z</time>
      </trkpt>
      <trkpt lat="49.32528" lon="1.26362">
        <ele>53.2</ele>
        <time>2011-05-01T08:28:41Z</time>
      </trkpt>
      <trkpt lat="49.32525" lon="1.26358">
        <ele>53.6</ele>
        <time>2011-05-01T08:28:43Z</time>
      </trkpt>
      <trkpt lat="49.32522" lon="1.26356">
        <ele>54.2</ele>
        <time>2011-05-01T08:28:45Z</time>
      </trkpt>
      <trkpt lat="49.3252" lon="1.26352">
        <ele>54.8</ele>
        <time>2011-05-01T08:28:47Z</time>
      </trkpt>
      <trkpt lat="49.32517" lon="1.26348">
        <ele>55.2</ele>
        <time>2011-05-01T08:28:49Z</time>
      </trkpt>
      <trkpt lat="49.32515" lon="1.26345">
        <ele>55.8</ele>
        <time>2011-05-01T08:28:51Z</time>
      </trkpt>
      <trkpt lat="49.32513" lon="1.26344">
        <ele>55.8</ele>
        <time>2011-05-01T08:28:52Z</time>
      </trkpt>
      <trkpt lat="49.32512" lon="1.26342">
        <ele>56</ele>
        <time>2011-05-01T08:28:53Z</time>
      </trkpt>
      <trkpt lat="49.32509" lon="1.26336">
        <ele>56.6</ele>
        <time>2011-05-01T08:28:56Z</time>
      </trkpt>
      <trkpt lat="49.32506" lon="1.26332">
        <ele>57.2</ele>
        <time>2011-05-01T08:28:58Z</time>
      </trkpt>
      <trkpt lat="49.32504" lon="1.26328">
        <ele>57.6</ele>
        <time>2011-05-01T08:29:00Z</time>
      </trkpt>
      <trkpt lat="49.32502" lon="1.26326">
        <ele>57.8</ele>
        <time>2011-05-01T08:29:01Z</time>
      </trkpt>
      <trkpt lat="49.32499" lon="1.2632">
        <ele>58.4</ele>
        <time>2011-05-01T08:29:04Z</time>
      </trkpt>
      <trkpt lat="49.32497" lon="1.26316">
        <ele>58.8</ele>
        <time>2011-05-01T08:29:06Z</time>
      </trkpt>
      <trkpt lat="49.32495" lon="1.26314">
        <ele>59.4</ele>
        <time>2011-05-01T08:29:08Z</time>
      </trkpt>
      <trkpt lat="49.32493" lon="1.26313">
        <ele>59.8</ele>
        <time>2011-05-01T08:29:10Z</time>
      </trkpt>
      <trkpt lat="49.3249" lon="1.26311">
        <ele>60.2</ele>
        <time>2011-05-01T08:29:12Z</time>
      </trkpt>
      <trkpt lat="49.32488" lon="1.26307">
        <ele>60.6</ele>
        <time>2011-05-01T08:29:14Z</time>
      </trkpt>
      <trkpt lat="49.32485" lon="1.26302">
        <ele>61</ele>
        <time>2011-05-01T08:29:16Z</time>
      </trkpt>
      <trkpt lat="49.32483" lon="1.26299">
        <ele>61.6</ele>
        <time>2011-05-01T08:29:18Z</time>
      </trkpt>
      <trkpt lat="49.32482" lon="1.26297">
        <ele>61.8</ele>
        <time>2011-05-01T08:29:19Z</time>
      </trkpt>
      <trkpt lat="49.32481" lon="1.26295">
        <ele>62</ele>
        <time>2011-05-01T08:29:20Z</time>
      </trkpt>
      <trkpt lat="49.32479" lon="1.26293">
        <ele>62.4</ele>
        <time>2011-05-01T08:29:22Z</time>
      </trkpt>
      <trkpt lat="49.32478" lon="1.26291">
        <ele>62.6</ele>
        <time>2011-05-01T08:29:24Z</time>
      </trkpt>
      <trkpt lat="49.32476" lon="1.26286">
        <ele>63.2</ele>
        <time>2011-05-01T08:29:27Z</time>
      </trkpt>
      <trkpt lat="49.32474" lon="1.26281">
        <ele>63.8</ele>
        <time>2011-05-01T08:29:29Z</time>
      </trkpt>
      <trkpt lat="49.32474" lon="1.2628">
        <ele>64</ele>
        <time>2011-05-01T08:29:30Z</time>
      </trkpt>
      <trkpt lat="49.32473" lon="1.26278">
        <ele>64.2</ele>
        <time>2011-05-01T08:29:31Z</time>
      </trkpt>
      <trkpt lat="49.32472" lon="1.26277">
        <ele>64.6</ele>
        <time>2011-05-01T08:29:33Z</time>
      </trkpt>
      <trkpt lat="49.32468" lon="1.26276">
        <ele>65</ele>
        <time>2011-05-01T08:29:35Z</time>
      </trkpt>
      <trkpt lat="49.32464" lon="1.26273">
        <ele>65.6</ele>
        <time>2011-05-01T08:29:38Z</time>
      </trkpt>
      <trkpt lat="49.32461" lon="1.26271">
        <ele>66</ele>
        <time>2011-05-01T08:29:40Z</time>
      </trkpt>
      <trkpt lat="49.32459" lon="1.26269">
        <ele>66.6</ele>
        <time>2011-05-01T08:29:42Z</time>
      </trkpt>
      <trkpt lat="49.32456" lon="1.26266">
        <ele>67</ele>
        <time>2011-05-01T08:29:44Z</time>
      </trkpt>
      <trkpt lat="49.32454" lon="1.26264">
        <ele>67.2</ele>
        <time>2011-05-01T08:29:46Z</time>
      </trkpt>
      <trkpt lat="49.3244" lon="1.26252">
        <ele>68.2</ele>
        <time>2011-05-01T08:29:54Z</time>
      </trkpt>
      <trkpt lat="49.32439" lon="1.2625">
        <ele>68.4</ele>
        <time>2011-05-01T08:29:55Z</time>
      </trkpt>
      <trkpt lat="49.32436" lon="1.26247">
        <ele>69</ele>
        <time>2011-05-01T08:29:58Z</time>
      </trkpt>
      <trkpt lat="49.32435" lon="1.26246">
        <ele>69.2</ele>
        <time>2011-05-01T08:29:59Z</time>
      </trkpt>
      <trkpt lat="49.32434" lon="1.26245">
        <ele>69.4</ele>
        <time>2011-05-01T08:30:00Z</time>
      </trkpt>
      <trkpt lat="49.32432" lon="1.26244">
        <ele>69.6</ele>
        <time>2011-05-01T08:30:02Z</time>
      </trkpt>
      <trkpt lat="49.32425" lon="1.2624">
        <ele>70.2</ele>
        <time>2011-05-01T08:30:06Z</time>
      </trkpt>
      <trkpt lat="49.32424" lon="1.26238">
        <ele>70.4</ele>
        <time>2011-05-01T08:30:07Z</time>
      </trkpt>
      <trkpt lat="49.32423" lon="1.26237">
        <ele>70.6</ele>
        <time>2011-05-01T08:30:08Z</time>
      </trkpt>
      <trkpt lat="49.3242" lon="1.26234">
        <ele>71</ele>
        <time>2011-05-01T08:30:10Z</time>
      </trkpt>
      <trkpt lat="49.32419" lon="1.26232">
        <ele>71.4</ele>
        <time>2011-05-01T08:30:12Z</time>
      </trkpt>
      <trkpt lat="49.32416" lon="1.26229">
        <ele>71.6</ele>
        <time>2011-05-01T08:30:14Z</time>
      </trkpt>
      <trkpt lat="49.32406" lon="1.26222">
        <ele>72.2</ele>
        <time>2011-05-01T08:30:19Z</time>
      </trkpt>
      <trkpt lat="49.32403" lon="1.26218">
        <ele>72.6</ele>
        <time>2011-05-01T08:30:22Z</time>
      </trkpt>
      <trkpt lat="49.324" lon="1.26214">
        <ele>73</ele>
        <time>2011-05-01T08:30:24Z</time>
      </trkpt>
      <trkpt lat="49.32397" lon="1.26211">
        <ele>73.4</ele>
        <time>2011-05-01T08:30:26Z</time>
      </trkpt>
      <trkpt lat="49.32396" lon="1.26208">
        <ele>73.6</ele>
        <time>2011-05-01T08:30:28Z</time>
      </trkpt>
      <trkpt lat="49.32394" lon="1.26205">
        <ele>74</ele>
        <time>2011-05-01T08:30:30Z</time>
      </trkpt>
      <trkpt lat="49.3239" lon="1.26203">
        <ele>74.4</ele>
        <time>2011-05-01T08:30:33Z</time>
      </trkpt>
      <trkpt lat="49.32388" lon="1.26201">
        <ele>75</ele>
        <time>2011-05-01T08:30:35Z</time>
      </trkpt>
      <trkpt lat="49.32385" lon="1.26198">
        <ele>75.4</ele>
        <time>2011-05-01T08:30:37Z</time>
      </trkpt>
      <trkpt lat="49.32381" lon="1.26193">
        <ele>75.6</ele>
        <time>2011-05-01T08:30:39Z</time>
      </trkpt>
      <trkpt lat="49.32378" lon="1.26189">
        <ele>76</ele>
        <time>2011-05-01T08:30:41Z</time>
      </trkpt>
      <trkpt lat="49.32374" lon="1.26184">
        <ele>76.4</ele>
        <time>2011-05-01T08:30:44Z</time>
      </trkpt>
      <trkpt lat="49.32371" lon="1.26181">
        <ele>77</ele>
        <time>2011-05-01T08:30:46Z</time>
      </trkpt>
      <trkpt lat="49.32368" lon="1.2618">
        <ele>77.4</ele>
        <time>2011-05-01T08:30:48Z</time>
      </trkpt>
      <trkpt lat="49.32365" lon="1.26177">
        <ele>77.8</ele>
        <time>2011-05-01T08:30:50Z</time>
      </trkpt>
      <trkpt lat="49.32363" lon="1.26176">
        <ele>78.2</ele>
        <time>2011-05-01T08:30:51Z</time>
      </trkpt>
      <trkpt lat="49.32362" lon="1.26175">
        <ele>78.8</ele>
        <time>2011-05-01T08:30:53Z</time>
      </trkpt>
      <trkpt lat="49.3236" lon="1.26174">
        <ele>79.2</ele>
        <time>2011-05-01T08:30:55Z</time>
      </trkpt>
      <trkpt lat="49.32358" lon="1.26173">
        <ele>79.6</ele>
        <time>2011-05-01T08:30:57Z</time>
      </trkpt>
      <trkpt lat="49.32355" lon="1.2617">
        <ele>80</ele>
        <time>2011-05-01T08:30:59Z</time>
      </trkpt>
      <trkpt lat="49.32354" lon="1.26169">
        <ele>80.4</ele>
        <time>2011-05-01T08:31:00Z</time>
      </trkpt>
      <trkpt lat="49.32351" lon="1.26166">
        <ele>81</ele>
        <time>2011-05-01T08:31:02Z</time>
      </trkpt>
      <trkpt lat="49.32348" lon="1.26163">
        <ele>81.4</ele>
        <time>2011-05-01T08:31:04Z</time>
      </trkpt>
      <trkpt lat="49.32346" lon="1.26161">
        <ele>81.8</ele>
        <time>2011-05-01T08:31:06Z</time>
      </trkpt>
      <trkpt lat="49.32345" lon="1.26158">
        <ele>82.2</ele>
        <time>2011-05-01T08:31:08Z</time>
      </trkpt>
      <trkpt lat="49.32344" lon="1.26155">
        <ele>82.6</ele>
        <time>2011-05-01T08:31:10Z</time>
      </trkpt>
      <trkpt lat="49.32343" lon="1.26154">
        <ele>83.2</ele>
        <time>2011-05-01T08:31:12Z</time>
      </trkpt>
      <trkpt lat="49.32341" lon="1.26152">
        <ele>83.8</ele>
        <time>2011-05-01T08:31:14Z</time>
      </trkpt>
      <trkpt lat="49.32336" lon="1.26147">
        <ele>84.2</ele>
        <time>2011-05-01T08:31:16Z</time>
      </trkpt>
      <trkpt lat="49.3233" lon="1.26144">
        <ele>84.6</ele>
        <time>2011-05-01T08:31:18Z</time>
      </trkpt>
      <trkpt lat="49.32327" lon="1.26143">
        <ele>85</ele>
        <time>2011-05-01T08:31:20Z</time>
      </trkpt>
      <trkpt lat="49.32328" lon="1.26143">
        <ele>85.2</ele>
        <time>2011-05-01T08:31:21Z</time>
      </trkpt>
      <trkpt lat="49.32327" lon="1.26139">
        <ele>86</ele>
        <time>2011-05-01T08:31:24Z</time>
      </trkpt>
      <trkpt lat="49.32324" lon="1.26137">
        <ele>86.2</ele>
        <time>2011-05-01T08:31:25Z</time>
      </trkpt>
      <trkpt lat="49.32321" lon="1.26135">
        <ele>86.4</ele>
        <time>2011-05-01T08:31:26Z</time>
      </trkpt>
      <trkpt lat="49.32319" lon="1.26134">
        <ele>86.6</ele>
        <time>2011-05-01T08:31:27Z</time>
      </trkpt>
      <trkpt lat="49.32318" lon="1.26134">
        <ele>86.8</ele>
        <time>2011-05-01T08:31:29Z</time>
      </trkpt>
      <trkpt lat="49.32317" lon="1.26133">
        <ele>87.2</ele>
        <time>2011-05-01T08:31:30Z</time>
      </trkpt>
      <trkpt lat="49.32314" lon="1.26131">
        <ele>87.6</ele>
        <time>2011-05-01T08:31:32Z</time>
      </trkpt>
      <trkpt lat="49.32312" lon="1.26129">
        <ele>88.2</ele>
        <time>2011-05-01T08:31:34Z</time>
      </trkpt>
      <trkpt lat="49.3231" lon="1.26127">
        <ele>88.6</ele>
        <time>2011-05-01T08:31:36Z</time>
      </trkpt>
      <trkpt lat="49.32309" lon="1.26126">
        <ele>88.8</ele>
        <time>2011-05-01T08:31:38Z</time>
      </trkpt>
      <trkpt lat="49.32308" lon="1.26125">
        <ele>89.2</ele>
        <time>2011-05-01T08:31:39Z</time>
      </trkpt>
      <trkpt lat="49.32303" lon="1.26123">
        <ele>89.8</ele>
        <time>2011-05-01T08:31:41Z</time>
      </trkpt>
      <trkpt lat="49.32301" lon="1.26121">
        <ele>90.4</ele>
        <time>2011-05-01T08:31:43Z</time>
      </trkpt>
      <trkpt lat="49.323" lon="1.2612">
        <ele>90.8</ele>
        <time>2011-05-01T08:31:45Z</time>
      </trkpt>
      <trkpt lat="49.32297" lon="1.26117">
        <ele>91</ele>
        <time>2011-05-01T08:31:47Z</time>
      </trkpt>
      <trkpt lat="49.32294" lon="1.26113">
        <ele>91.6</ele>
        <time>2011-05-01T08:31:50Z</time>
      </trkpt>
      <trkpt lat="49.32293" lon="1.26111">
        <ele>92.2</ele>
        <time>2011-05-01T08:31:52Z</time>
      </trkpt>
      <trkpt lat="49.32291" lon="1.26108">
        <ele>92.6</ele>
        <time>2011-05-01T08:31:54Z</time>
      </trkpt>
      <trkpt lat="49.32288" lon="1.26106">
        <ele>93</ele>
        <time>2011-05-01T08:31:56Z</time>
      </trkpt>
      <trkpt lat="49.32285" lon="1.26105">
        <ele>93.2</ele>
        <time>2011-05-01T08:31:58Z</time>
      </trkpt>
      <trkpt lat="49.32284" lon="1.26103">
        <ele>93.6</ele>
        <time>2011-05-01T08:31:59Z</time>
      </trkpt>
      <trkpt lat="49.3228" lon="1.26102">
        <ele>94.2</ele>
        <time>2011-05-01T08:32:01Z</time>
      </trkpt>
      <trkpt lat="49.32276" lon="1.261">
        <ele>94.6</ele>
        <time>2011-05-01T08:32:03Z</time>
      </trkpt>
      <trkpt lat="49.32271" lon="1.26098">
        <ele>95</ele>
        <time>2011-05-01T08:32:05Z</time>
      </trkpt>
      <trkpt lat="49.32269" lon="1.26095">
        <ele>95.2</ele>
        <time>2011-05-01T08:32:07Z</time>
      </trkpt>
      <trkpt lat="49.32267" lon="1.26094">
        <ele>95.6</ele>
        <time>2011-05-01T08:32:08Z</time>
      </trkpt>
      <trkpt lat="49.32267" lon="1.26092">
        <ele>96.2</ele>
        <time>2011-05-01T08:32:10Z</time>
      </trkpt>
      <trkpt lat="49.32265" lon="1.2609">
        <ele>96.6</ele>
        <time>2011-05-01T08:32:12Z</time>
      </trkpt>
      <trkpt lat="49.32265" lon="1.26089">
        <ele>96.8</ele>
        <time>2011-05-01T08:32:13Z</time>
      </trkpt>
      <trkpt lat="49.32264" lon="1.26087">
        <ele>97.2</ele>
        <time>2011-05-01T08:32:15Z</time>
      </trkpt>
      <trkpt lat="49.32263" lon="1.26086">
        <ele>97.6</ele>
        <time>2011-05-01T08:32:16Z</time>
      </trkpt>
      <trkpt lat="49.32263" lon="1.26085">
        <ele>98</ele>
        <time>2011-05-01T08:32:17Z</time>
      </trkpt>
      <trkpt lat="49.32259" lon="1.26083">
        <ele>98.4</ele>
        <time>2011-05-01T08:32:19Z</time>
      </trkpt>
      <trkpt lat="49.32258" lon="1.26082">
        <ele>98.6</ele>
        <time>2011-05-01T08:32:20Z</time>
      </trkpt>
      <trkpt lat="49.32252" lon="1.26078">
        <ele>99.2</ele>
        <time>2011-05-01T08:32:23Z</time>
      </trkpt>
      <trkpt lat="49.32247" lon="1.26075">
        <ele>99.6</ele>
        <time>2011-05-01T08:32:25Z</time>
      </trkpt>
      <trkpt lat="49.32245" lon="1.26073">
        <ele>100</ele>
        <time>2011-05-01T08:32:26Z</time>
      </trkpt>
      <trkpt lat="49.32243" lon="1.26072">
        <ele>100.2</ele>
        <time>2011-05-01T08:32:27Z</time>
      </trkpt>
      <trkpt lat="49.3224" lon="1.26069">
        <ele>100.6</ele>
        <time>2011-05-01T08:32:29Z</time>
      </trkpt>
      <trkpt lat="49.32237" lon="1.26066">
        <ele>101</ele>
        <time>2011-05-01T08:32:31Z</time>
      </trkpt>
      <trkpt lat="49.32237" lon="1.26064">
        <ele>101.2</ele>
        <time>2011-05-01T08:32:32Z</time>
      </trkpt>
      <trkpt lat="49.32235" lon="1.26062">
        <ele>101.4</ele>
        <time>2011-05-01T08:32:33Z</time>
      </trkpt>
      <trkpt lat="49.32233" lon="1.26059">
        <ele>101.6</ele>
        <time>2011-05-01T08:32:35Z</time>
      </trkpt>
      <trkpt lat="49.32232" lon="1.26054">
        <ele>102.4</ele>
        <time>2011-05-01T08:32:38Z</time>
      </trkpt>
      <trkpt lat="49.32231" lon="1.26052">
        <ele>102.8</ele>
        <time>2011-05-01T08:32:39Z</time>
      </trkpt>
      <trkpt lat="49.32228" lon="1.26049">
        <ele>103.4</ele>
        <time>2011-05-01T08:32:42Z</time>
      </trkpt>
      <trkpt lat="49.32228" lon="1.26047">
        <ele>103.4</ele>
        <time>2011-05-01T08:32:43Z</time>
      </trkpt>
      <trkpt lat="49.32226" lon="1.26043">
        <ele>104</ele>
        <time>2011-05-01T08:32:46Z</time>
      </trkpt>
      <trkpt lat="49.32225" lon="1.26042">
        <ele>104.4</ele>
        <time>2011-05-01T08:32:47Z</time>
      </trkpt>
      <trkpt lat="49.32224" lon="1.26038">
        <ele>105</ele>
        <time>2011-05-01T08:32:50Z</time>
      </trkpt>
      <trkpt lat="49.32223" lon="1.26037">
        <ele>105.2</ele>
        <time>2011-05-01T08:32:51Z</time>
      </trkpt>
      <trkpt lat="49.32221" lon="1.26035">
        <ele>105.8</ele>
        <time>2011-05-01T08:32:54Z</time>
      </trkpt>
      <trkpt lat="49.3222" lon="1.26034">
        <ele>106.4</ele>
        <time>2011-05-01T08:32:56Z</time>
      </trkpt>
      <trkpt lat="49.3222" lon="1.26034">
        <ele>106.6</ele>
        <time>2011-05-01T08:32:57Z</time>
      </trkpt>
      <trkpt lat="49.3222" lon="1.26033">
        <ele>106.8</ele>
        <time>2011-05-01T08:32:58Z</time>
      </trkpt>
      <trkpt lat="49.3222" lon="1.26033">
        <ele>107</ele>
        <time>2011-05-01T08:32:59Z</time>
      </trkpt>
      <trkpt lat="49.32218" lon="1.2603">
        <ele>107.4</ele>
        <time>2011-05-01T08:33:01Z</time>
      </trkpt>
      <trkpt lat="49.32217" lon="1.26028">
        <ele>107.6</ele>
        <time>2011-05-01T08:33:02Z</time>
      </trkpt>
      <trkpt lat="49.32215" lon="1.26027">
        <ele>107.8</ele>
        <time>2011-05-01T08:33:03Z</time>
      </trkpt>
      <trkpt lat="49.32214" lon="1.26025">
        <ele>108</ele>
        <time>2011-05-01T08:33:04Z</time>
      </trkpt>
      <trkpt lat="49.32213" lon="1.26021">
        <ele>108.6</ele>
        <time>2011-05-01T08:33:06Z</time>
      </trkpt>
      <trkpt lat="49.32212" lon="1.2602">
        <ele>109</ele>
        <time>2011-05-01T08:33:07Z</time>
      </trkpt>
      <trkpt lat="49.32208" lon="1.26017">
        <ele>109.6</ele>
        <time>2011-05-01T08:33:10Z</time>
      </trkpt>
      <trkpt lat="49.32206" lon="1.26016">
        <ele>109.8</ele>
        <time>2011-05-01T08:33:12Z</time>
      </trkpt>
      <trkpt lat="49.32204" lon="1.26014">
        <ele>110.2</ele>
        <time>2011-05-01T08:33:14Z</time>
      </trkpt>
      <trkpt lat="49.32201" lon="1.26011">
        <ele>110.8</ele>
        <time>2011-05-01T08:33:16Z</time>
      </trkpt>
      <trkpt lat="49.32199" lon="1.26008">
        <ele>111.2</ele>
        <time>2011-05-01T08:33:18Z</time>
      </trkpt>
      <trkpt lat="49.32196" lon="1.26005">
        <ele>111.6</ele>
        <time>2011-05-01T08:33:20Z</time>
      </trkpt>
      <trkpt lat="49.32195" lon="1.26003">
        <ele>112</ele>
        <time>2011-05-01T08:33:22Z</time>
      </trkpt>
      <trkpt lat="49.32191" lon="1.25997">
        <ele>112.4</ele>
        <time>2011-05-01T08:33:25Z</time>
      </trkpt>
      <trkpt lat="49.32189" lon="1.25993">
        <ele>113</ele>
        <time>2011-05-01T08:33:27Z</time>
      </trkpt>
      <trkpt lat="49.32186" lon="1.25987">
        <ele>113.4</ele>
        <time>2011-05-01T08:33:29Z</time>
      </trkpt>
      <trkpt lat="49.32184" lon="1.25984">
        <ele>113.8</ele>
        <time>2011-05-01T08:33:31Z</time>
      </trkpt>
      <trkpt lat="49.32182" lon="1.2598">
        <ele>114</ele>
        <time>2011-05-01T08:33:33Z</time>
      </trkpt>
      <trkpt lat="49.32181" lon="1.25977">
        <ele>114.4</ele>
        <time>2011-05-01T08:33:35Z</time>
      </trkpt>
      <trkpt lat="49.32181" lon="1.25975">
        <ele>115</ele>
        <time>2011-05-01T08:33:37Z</time>
      </trkpt>
      <trkpt lat="49.3218" lon="1.25973">
        <ele>115.4</ele>
        <time>2011-05-01T08:33:39Z</time>
      </trkpt>
      <trkpt lat="49.32179" lon="1.2597">
        <ele>115.8</ele>
        <time>2011-05-01T08:33:41Z</time>
      </trkpt>
      <trkpt lat="49.32177" lon="1.25968">
        <ele>116</ele>
        <time>2011-05-01T08:33:43Z</time>
      </trkpt>
      <trkpt lat="49.32174" lon="1.25966">
        <ele>116.6</ele>
        <time>2011-05-01T08:33:46Z</time>
      </trkpt>
      <trkpt lat="49.32172" lon="1.25964">
        <ele>117</ele>
        <time>2011-05-01T08:33:48Z</time>
      </trkpt>
      <trkpt lat="49.32169" lon="1.25961">
        <ele>117.6</ele>
        <time>2011-05-01T08:33:50Z</time>
      </trkpt>
      <trkpt lat="49.32167" lon="1.25958">
        <ele>117.8</ele>
        <time>2011-05-01T08:33:52Z</time>
      </trkpt>
      <trkpt lat="49.32165" lon="1.25955">
        <ele>118.2</ele>
        <time>2011-05-01T08:33:54Z</time>
      </trkpt>
      <trkpt lat="49.3216" lon="1.25951">
        <ele>118.6</ele>
        <time>2011-05-01T08:33:57Z</time>
      </trkpt>
      <trkpt lat="49.32157" lon="1.25949">
        <ele>119.2</ele>
        <time>2011-05-01T08:33:59Z</time>
      </trkpt>
      <trkpt lat="49.32154" lon="1.25946">
        <ele>119.6</ele>
        <time>2011-05-01T08:34:01Z</time>
      </trkpt>
      <trkpt lat="49.32152" lon="1.25943">
        <ele>120</ele>
        <time>2011-05-01T08:34:03Z</time>
      </trkpt>
      <trkpt lat="49.32152" lon="1.25942">
        <ele>120.2</ele>
        <time>2011-05-01T08:34:05Z</time>
      </trkpt>
      <trkpt lat="49.32152" lon="1.25941">
        <ele>120.6</ele>
        <time>2011-05-01T08:34:07Z</time>
      </trkpt>
      <trkpt lat="49.32151" lon="1.2594">
        <ele>120.8</ele>
        <time>2011-05-01T08:34:08Z</time>
      </trkpt>
      <trkpt lat="49.32148" lon="1.25938">
        <ele>121.4</ele>
        <time>2011-05-01T08:34:10Z</time>
      </trkpt>
      <trkpt lat="49.32145" lon="1.25934">
        <ele>121.8</ele>
        <time>2011-05-01T08:34:12Z</time>
      </trkpt>
      <trkpt lat="49.32142" lon="1.2593">
        <ele>122</ele>
        <time>2011-05-01T08:34:14Z</time>
      </trkpt>
      <trkpt lat="49.3214" lon="1.25928">
        <ele>122.6</ele>
        <time>2011-05-01T08:34:16Z</time>
      </trkpt>
      <trkpt lat="49.32138" lon="1.25926">
        <ele>123</ele>
        <time>2011-05-01T08:34:18Z</time>
      </trkpt>
      <trkpt lat="49.32138" lon="1.25923">
        <ele>123.6</ele>
        <time>2011-05-01T08:34:20Z</time>
      </trkpt>
      <trkpt lat="49.32138" lon="1.2592">
        <ele>123.8</ele>
        <time>2011-05-01T08:34:22Z</time>
      </trkpt>
      <trkpt lat="49.32138" lon="1.25916">
        <ele>124.2</ele>
        <time>2011-05-01T08:34:24Z</time>
      </trkpt>
      <trkpt lat="49.32136" lon="1.25911">
        <ele>124.8</ele>
        <time>2011-05-01T08:34:27Z</time>
      </trkpt>
      <trkpt lat="49.32135" lon="1.25909">
        <ele>125.2</ele>
        <time>2011-05-01T08:34:29Z</time>
      </trkpt>
      <trkpt lat="49.32134" lon="1.25906">
        <ele>125.8</ele>
        <time>2011-05-01T08:34:31Z</time>
      </trkpt>
      <trkpt lat="49.32133" lon="1.25904">
        <ele>126</ele>
        <time>2011-05-01T08:34:33Z</time>
      </trkpt>
      <trkpt lat="49.32131" lon="1.25901">
        <ele>126.4</ele>
        <time>2011-05-01T08:34:35Z</time>
      </trkpt>
      <trkpt lat="49.3213" lon="1.25899">
        <ele>126.8</ele>
        <time>2011-05-01T08:34:36Z</time>
      </trkpt>
      <trkpt lat="49.32129" lon="1.25896">
        <ele>127.2</ele>
        <time>2011-05-01T08:34:38Z</time>
      </trkpt>
      <trkpt lat="49.32128" lon="1.25893">
        <ele>127.8</ele>
        <time>2011-05-01T08:34:40Z</time>
      </trkpt>
      <trkpt lat="49.32128" lon="1.2589">
        <ele>128.2</ele>
        <time>2011-05-01T08:34:42Z</time>
      </trkpt>
      <trkpt lat="49.32127" lon="1.25886">
        <ele>128.4</ele>
        <time>2011-05-01T08:34:44Z</time>
      </trkpt>
      <trkpt lat="49.32126" lon="1.25882">
        <ele>129</ele>
        <time>2011-05-01T08:34:46Z</time>
      </trkpt>
      <trkpt lat="49.32124" lon="1.25879">
        <ele>129.4</ele>
        <time>2011-05-01T08:34:48Z</time>
      </trkpt>
      <trkpt lat="49.32123" lon="1.25876">
        <ele>130</ele>
        <time>2011-05-01T08:34:50Z</time>
      </trkpt>
      <trkpt lat="49.32121" lon="1.25873">
        <ele>130.4</ele>
        <time>2011-05-01T08:34:52Z</time>
      </trkpt>
      <trkpt lat="49.3212" lon="1.25869">
        <ele>130.6</ele>
        <time>2011-05-01T08:34:54Z</time>
      </trkpt>
      <trkpt lat="49.32116" lon="1.25863">
        <ele>131.2</ele>
        <time>2011-05-01T08:34:57Z</time>
      </trkpt>
      <trkpt lat="49.32113" lon="1.25859">
        <ele>131.6</ele>
        <time>2011-05-01T08:34:59Z</time>
      </trkpt>
      <trkpt lat="49.3211" lon="1.25856">
        <ele>132.2</ele>
        <time>2011-05-01T08:35:01Z</time>
      </trkpt>
      <trkpt lat="49.32107" lon="1.25854">
        <ele>132.4</ele>
        <time>2011-05-01T08:35:03Z</time>
      </trkpt>
      <trkpt lat="49.32104" lon="1.25854">
        <ele>132.8</ele>
        <time>2011-05-01T08:35:05Z</time>
      </trkpt>
      <trkpt lat="49.32104" lon="1.25854">
        <ele>132.8</ele>
        <time>2011-05-01T08:35:06Z</time>
      </trkpt>
      <trkpt lat="49.32104" lon="1.25853">
        <ele>133.2</ele>
        <time>2011-05-01T08:35:08Z</time>
      </trkpt>
      <trkpt lat="49.32104" lon="1.25851">
        <ele>133.8</ele>
        <time>2011-05-01T08:35:10Z</time>
      </trkpt>
      <trkpt lat="49.32103" lon="1.25849">
        <ele>134.2</ele>
        <time>2011-05-01T08:35:12Z</time>
      </trkpt>
      <trkpt lat="49.32102" lon="1.25845">
        <ele>134.6</ele>
        <time>2011-05-01T08:35:14Z</time>
      </trkpt>
      <trkpt lat="49.32102" lon="1.2584">
        <ele>135</ele>
        <time>2011-05-01T08:35:16Z</time>
      </trkpt>
      <trkpt lat="49.32102" lon="1.25837">
        <ele>135.2</ele>
        <time>2011-05-01T08:35:19Z</time>
      </trkpt>
      <trkpt lat="49.32101" lon="1.25836">
        <ele>135.6</ele>
        <time>2011-05-01T08:35:21Z</time>
      </trkpt>
      <trkpt lat="49.32101" lon="1.25835">
        <ele>136.2</ele>
        <time>2011-05-01T08:35:23Z</time>
      </trkpt>
      <trkpt lat="49.321" lon="1.25834">
        <ele>136.4</ele>
        <time>2011-05-01T08:35:24Z</time>
      </trkpt>
      <trkpt lat="49.32099" lon="1.25833">
        <ele>136.6</ele>
        <time>2011-05-01T08:35:25Z</time>
      </trkpt>
      <trkpt lat="49.32099" lon="1.25832">
        <ele>136.8</ele>
        <time>2011-05-01T08:35:27Z</time>
      </trkpt>
      <trkpt lat="49.32102" lon="1.25829">
        <ele>137.2</ele>
        <time>2011-05-01T08:35:29Z</time>
      </trkpt>
      <trkpt lat="49.32103" lon="1.25827">
        <ele>137.4</ele>
        <time>2011-05-01T08:35:31Z</time>
      </trkpt>
      <trkpt lat="49.32101" lon="1.25822">
        <ele>137.8</ele>
        <time>2011-05-01T08:35:34Z</time>
      </trkpt>
      <trkpt lat="49.32097" lon="1.25819">
        <ele>138.4</ele>
        <time>2011-05-01T08:35:36Z</time>
      </trkpt>
      <trkpt lat="49.32094" lon="1.25815">
        <ele>138.6</ele>
        <time>2011-05-01T08:35:38Z</time>
      </trkpt>
      <trkpt lat="49.32091" lon="1.25812">
        <ele>139</ele>
        <time>2011-05-01T08:35:40Z</time>
      </trkpt>
      <trkpt lat="49.32088" lon="1.25809">
        <ele>139.2</ele>
        <time>2011-05-01T08:35:42Z</time>
      </trkpt>
      <trkpt lat="49.32082" lon="1.25803">
        <ele>140</ele>
        <time>2011-05-01T08:35:48Z</time>
      </trkpt>
      <trkpt lat="49.32081" lon="1.25802">
        <ele>140.6</ele>
        <time>2011-05-01T08:35:50Z</time>
      </trkpt>
      <trkpt lat="49.3208" lon="1.25801">
        <ele>141</ele>
        <time>2011-05-01T08:35:52Z</time>
      </trkpt>
      <trkpt lat="49.32078" lon="1.258">
        <ele>141.2</ele>
        <time>2011-05-01T08:35:54Z</time>
      </trkpt>
      <trkpt lat="49.32076" lon="1.25797">
        <ele>141.6</ele>
        <time>2011-05-01T08:35:56Z</time>
      </trkpt>
      <trkpt lat="49.32074" lon="1.25795">
        <ele>141.8</ele>
        <time>2011-05-01T08:35:58Z</time>
      </trkpt>
      <trkpt lat="49.32073" lon="1.25793">
        <ele>141.8</ele>
        <time>2011-05-01T08:35:59Z</time>
      </trkpt>
      <trkpt lat="49.32071" lon="1.2579">
        <ele>142.2</ele>
        <time>2011-05-01T08:36:01Z</time>
      </trkpt>
      <trkpt lat="49.3207" lon="1.25788">
        <ele>142.6</ele>
        <time>2011-05-01T08:36:03Z</time>
      </trkpt>
      <trkpt lat="49.32067" lon="1.25785">
        <ele>143</ele>
        <time>2011-05-01T08:36:05Z</time>
      </trkpt>
      <trkpt lat="49.32063" lon="1.25783">
        <ele>143.4</ele>
        <time>2011-05-01T08:36:07Z</time>
      </trkpt>
      <trkpt lat="49.32059" lon="1.25779">
        <ele>143.6</ele>
        <time>2011-05-01T08:36:09Z</time>
      </trkpt>
      <trkpt lat="49.3205" lon="1.25772">
        <ele>144.2</ele>
        <time>2011-05-01T08:36:14Z</time>
      </trkpt>
      <trkpt lat="49.32044" lon="1.2577">
        <ele>144.8</ele>
        <time>2011-05-01T08:36:16Z</time>
      </trkpt>
      <trkpt lat="49.32039" lon="1.25767">
        <ele>145.2</ele>
        <time>2011-05-01T08:36:18Z</time>
      </trkpt>
      <trkpt lat="49.32034" lon="1.25764">
        <ele>145.4</ele>
        <time>2011-05-01T08:36:20Z</time>
      </trkpt>
      <trkpt lat="49.32032" lon="1.25762">
        <ele>145.8</ele>
        <time>2011-05-01T08:36:22Z</time>
      </trkpt>
      <trkpt lat="49.32031" lon="1.25761">
        <ele>145.8</ele>
        <time>2011-05-01T08:36:23Z</time>
      </trkpt>
      <trkpt lat="49.32027" lon="1.25759">
        <ele>146.2</ele>
        <time>2011-05-01T08:36:26Z</time>
      </trkpt>
      <trkpt lat="49.32025" lon="1.25758">
        <ele>146.8</ele>
        <time>2011-05-01T08:36:28Z</time>
      </trkpt>
      <trkpt lat="49.32023" lon="1.25759">
        <ele>147.2</ele>
        <time>2011-05-01T08:36:30Z</time>
      </trkpt>
      <trkpt lat="49.32021" lon="1.25759">
        <ele>147.6</ele>
        <time>2011-05-01T08:36:32Z</time>
      </trkpt>
      <trkpt lat="49.3202" lon="1.25759">
        <ele>147.8</ele>
        <time>2011-05-01T08:36:34Z</time>
      </trkpt>
      <trkpt lat="49.32015" lon="1.25759">
        <ele>148.4</ele>
        <time>2011-05-01T08:36:40Z</time>
      </trkpt>
      <trkpt lat="49.32003" lon="1.25756">
        <ele>148.6</ele>
        <time>2011-05-01T08:36:45Z</time>
      </trkpt>
      <trkpt lat="49.32001" lon="1.25756">
        <ele>148.8</ele>
        <time>2011-05-01T08:36:46Z</time>
      </trkpt>
      <trkpt lat="49.31998" lon="1.25755">
        <ele>149.2</ele>
        <time>2011-05-01T08:36:48Z</time>
      </trkpt>
      <trkpt lat="49.31996" lon="1.25755">
        <ele>149.6</ele>
        <time>2011-05-01T08:36:50Z</time>
      </trkpt>
      <trkpt lat="49.31992" lon="1.25754">
        <ele>149.8</ele>
        <time>2011-05-01T08:36:52Z</time>
      </trkpt>
      <trkpt lat="49.31987" lon="1.25752">
        <ele>150</ele>
        <time>2011-05-01T08:36:54Z</time>
      </trkpt>
      <trkpt lat="49.31968" lon="1.25751">
        <ele>150.4</ele>
        <time>2011-05-01T08:37:00Z</time>
      </trkpt>
      <trkpt lat="49.31961" lon="1.25751">
        <ele>150.6</ele>
        <time>2011-05-01T08:37:03Z</time>
      </trkpt>
      <trkpt lat="49.31956" lon="1.25757">
        <ele>150.8</ele>
        <time>2011-05-01T08:37:10Z</time>
      </trkpt>
      <trkpt lat="49.31948" lon="1.25759">
        <ele>150.8</ele>
        <time>2011-05-01T08:37:14Z</time>
      </trkpt>
      <trkpt lat="49.31939" lon="1.25761">
        <ele>151</ele>
        <time>2011-05-01T08:37:18Z</time>
      </trkpt>
      <trkpt lat="49.31934" lon="1.25762">
        <ele>151.4</ele>
        <time>2011-05-01T08:37:20Z</time>
      </trkpt>
      <trkpt lat="49.3193" lon="1.25764">
        <ele>151.6</ele>
        <time>2011-05-01T08:37:22Z</time>
      </trkpt>
      <trkpt lat="49.31927" lon="1.25767">
        <ele>152</ele>
        <time>2011-05-01T08:37:24Z</time>
      </trkpt>
      <trkpt lat="49.31923" lon="1.2577">
        <ele>152.2</ele>
        <time>2011-05-01T08:37:26Z</time>
      </trkpt>
      <trkpt lat="49.31921" lon="1.25771">
        <ele>152.2</ele>
        <time>2011-05-01T08:37:27Z</time>
      </trkpt>
      <trkpt lat="49.31911" lon="1.25777">
        <ele>152.6</ele>
        <time>2011-05-01T08:37:32Z</time>
      </trkpt>
      <trkpt lat="49.31902" lon="1.25784">
        <ele>152.6</ele>
        <time>2011-05-01T08:37:37Z</time>
      </trkpt>
      <trkpt lat="49.31901" lon="1.25784">
        <ele>152.8</ele>
        <time>2011-05-01T08:37:38Z</time>
      </trkpt>
      <trkpt lat="49.31898" lon="1.25784">
        <ele>152.8</ele>
        <time>2011-05-01T08:37:44Z</time>
      </trkpt>
      <trkpt lat="49.31897" lon="1.25784">
        <ele>152.8</ele>
        <time>2011-05-01T08:37:48Z</time>
      </trkpt>
      <trkpt lat="49.31895" lon="1.25784">
        <ele>152.8</ele>
        <time>2011-05-01T08:37:50Z</time>
      </trkpt>
      <trkpt lat="49.31894" lon="1.25784">
        <ele>152.8</ele>
        <time>2011-05-01T08:37:51Z</time>
      </trkpt>
      <trkpt lat="49.31887" lon="1.25792">
        <ele>153</ele>
        <time>2011-05-01T08:37:55Z</time>
      </trkpt>
      <trkpt lat="49.31871" lon="1.25787">
        <ele>153</ele>
        <time>2011-05-01T08:38:00Z</time>
      </trkpt>
      <trkpt lat="49.31869" lon="1.25784">
        <ele>153</ele>
        <time>2011-05-01T08:38:01Z</time>
      </trkpt>
      <trkpt lat="49.31852" lon="1.25763">
        <ele>153</ele>
        <time>2011-05-01T08:38:06Z</time>
      </trkpt>
      <trkpt lat="49.31842" lon="1.25745">
        <ele>153</ele>
        <time>2011-05-01T08:38:10Z</time>
      </trkpt>
      <trkpt lat="49.31831" lon="1.25726">
        <ele>153</ele>
        <time>2011-05-01T08:38:15Z</time>
      </trkpt>
      <trkpt lat="49.31817" lon="1.25707">
        <ele>153</ele>
        <time>2011-05-01T08:38:20Z</time>
      </trkpt>
      <trkpt lat="49.31807" lon="1.25693">
        <ele>153</ele>
        <time>2011-05-01T08:38:25Z</time>
      </trkpt>
      <trkpt lat="49.31806" lon="1.25692">
        <ele>153</ele>
        <time>2011-05-01T08:38:26Z</time>
      </trkpt>
      <trkpt lat="49.31808" lon="1.25691">
        <ele>153</ele>
        <time>2011-05-01T08:38:40Z</time>
      </trkpt>
      <trkpt lat="49.31808" lon="1.2569">
        <ele>153</ele>
        <time>2011-05-01T08:38:42Z</time>
      </trkpt>
      <trkpt lat="49.318" lon="1.25674">
        <ele>153</ele>
        <time>2011-05-01T08:38:47Z</time>
      </trkpt>
      <trkpt lat="49.31788" lon="1.25658">
        <ele>153</ele>
        <time>2011-05-01T08:38:51Z</time>
      </trkpt>
      <trkpt lat="49.31774" lon="1.25635">
        <ele>153</ele>
        <time>2011-05-01T08:38:56Z</time>
      </trkpt>
      <trkpt lat="49.31769" lon="1.25623">
        <ele>153</ele>
        <time>2011-05-01T08:38:59Z</time>
      </trkpt>
      <trkpt lat="49.31757" lon="1.25599">
        <ele>153</ele>
        <time>2011-05-01T08:39:04Z</time>
      </trkpt>
      <trkpt lat="49.31751" lon="1.25585">
        <ele>153</ele>
        <time>2011-05-01T08:39:07Z</time>
      </trkpt>
      <trkpt lat="49.31736" lon="1.25568">
        <ele>153</ele>
        <time>2011-05-01T08:39:11Z</time>
      </trkpt>
      <trkpt lat="49.31732" lon="1.25553">
        <ele>153</ele>
        <time>2011-05-01T08:39:14Z</time>
      </trkpt>
      <trkpt lat="49.31732" lon="1.25547">
        <ele>153</ele>
        <time>2011-05-01T08:39:15Z</time>
      </trkpt>
      <trkpt lat="49.31732" lon="1.25539">
        <ele>153.2</ele>
        <time>2011-05-01T08:39:16Z</time>
      </trkpt>
      <trkpt lat="49.31731" lon="1.25523">
        <ele>153.4</ele>
        <time>2011-05-01T08:39:18Z</time>
      </trkpt>
      <trkpt lat="49.31732" lon="1.25505">
        <ele>153.8</ele>
        <time>2011-05-01T08:39:20Z</time>
      </trkpt>
      <trkpt lat="49.31735" lon="1.25479">
        <ele>154</ele>
        <time>2011-05-01T08:39:22Z</time>
      </trkpt>
      <trkpt lat="49.31737" lon="1.25463">
        <ele>154.2</ele>
        <time>2011-05-01T08:39:24Z</time>
      </trkpt>
      <trkpt lat="49.31739" lon="1.25459">
        <ele>154.2</ele>
        <time>2011-05-01T08:39:25Z</time>
      </trkpt>
      <trkpt lat="49.31742" lon="1.25449">
        <ele>154.4</ele>
        <time>2011-05-01T08:39:28Z</time>
      </trkpt>
      <trkpt lat="49.31749" lon="1.25431">
        <ele>154.6</ele>
        <time>2011-05-01T08:39:32Z</time>
      </trkpt>
      <trkpt lat="49.3175" lon="1.25425">
        <ele>154.6</ele>
        <time>2011-05-01T08:39:33Z</time>
      </trkpt>
      <trkpt lat="49.31754" lon="1.2539">
        <ele>154.8</ele>
        <time>2011-05-01T08:39:38Z</time>
      </trkpt>
      <trkpt lat="49.31755" lon="1.25382">
        <ele>154.8</ele>
        <time>2011-05-01T08:39:39Z</time>
      </trkpt>
      <trkpt lat="49.31756" lon="1.25363">
        <ele>154.8</ele>
        <time>2011-05-01T08:39:41Z</time>
      </trkpt>
      <trkpt lat="49.31759" lon="1.25319">
        <ele>154.8</ele>
        <time>2011-05-01T08:39:45Z</time>
      </trkpt>
      <trkpt lat="49.3175" lon="1.25283">
        <ele>155</ele>
        <time>2011-05-01T08:39:50Z</time>
      </trkpt>
      <trkpt lat="49.3175" lon="1.25268">
        <ele>155</ele>
        <time>2011-05-01T08:39:52Z</time>
      </trkpt>
      <trkpt lat="49.31748" lon="1.25229">
        <ele>155</ele>
        <time>2011-05-01T08:39:58Z</time>
      </trkpt>
      <trkpt lat="49.31748" lon="1.25222">
        <ele>155</ele>
        <time>2011-05-01T08:39:59Z</time>
      </trkpt>
      <trkpt lat="49.31747" lon="1.25214">
        <ele>155</ele>
        <time>2011-05-01T08:40:00Z</time>
      </trkpt>
      <trkpt lat="49.31739" lon="1.25178">
        <ele>155</ele>
        <time>2011-05-01T08:40:04Z</time>
      </trkpt>
      <trkpt lat="49.31737" lon="1.25172">
        <ele>155</ele>
        <time>2011-05-01T08:40:05Z</time>
      </trkpt>
      <trkpt lat="49.31737" lon="1.25166">
        <ele>155</ele>
        <time>2011-05-01T08:40:06Z</time>
      </trkpt>
      <trkpt lat="49.31739" lon="1.25144">
        <ele>155</ele>
        <time>2011-05-01T08:40:10Z</time>
      </trkpt>
      <trkpt lat="49.31739" lon="1.25138">
        <ele>155</ele>
        <time>2011-05-01T08:40:11Z</time>
      </trkpt>
      <trkpt lat="49.3174" lon="1.25118">
        <ele>155</ele>
        <time>2011-05-01T08:40:14Z</time>
      </trkpt>
      <trkpt lat="49.31755" lon="1.25065">
        <ele>155</ele>
        <time>2011-05-01T08:40:20Z</time>
      </trkpt>
      <trkpt lat="49.31757" lon="1.25033">
        <ele>155</ele>
        <time>2011-05-01T08:40:24Z</time>
      </trkpt>
      <trkpt lat="49.31759" lon="1.25008">
        <ele>155</ele>
        <time>2011-05-01T08:40:27Z</time>
      </trkpt>
      <trkpt lat="49.31761" lon="1.24983">
        <ele>155</ele>
        <time>2011-05-01T08:40:30Z</time>
      </trkpt>
      <trkpt lat="49.31766" lon="1.24927">
        <ele>155</ele>
        <time>2011-05-01T08:40:37Z</time>
      </trkpt>
      <trkpt lat="49.31766" lon="1.2492">
        <ele>155</ele>
        <time>2011-05-01T08:40:38Z</time>
      </trkpt>
      <trkpt lat="49.31763" lon="1.24904">
        <ele>155</ele>
        <time>2011-05-01T08:40:40Z</time>
      </trkpt>
      <trkpt lat="49.31757" lon="1.24874">
        <ele>154.4</ele>
        <time>2011-05-01T08:40:43Z</time>
      </trkpt>
      <trkpt lat="49.31755" lon="1.24866">
        <ele>154.2</ele>
        <time>2011-05-01T08:40:44Z</time>
      </trkpt>
      <trkpt lat="49.31754" lon="1.2486">
        <ele>154.2</ele>
        <time>2011-05-01T08:40:45Z</time>
      </trkpt>
      <trkpt lat="49.31754" lon="1.24846">
        <ele>154</ele>
        <time>2011-05-01T08:40:47Z</time>
      </trkpt>
      <trkpt lat="49.31755" lon="1.24839">
        <ele>153.8</ele>
        <time>2011-05-01T08:40:48Z</time>
      </trkpt>
      <trkpt lat="49.3175" lon="1.24799">
        <ele>153.2</ele>
        <time>2011-05-01T08:40:52Z</time>
      </trkpt>
      <trkpt lat="49.31747" lon="1.24789">
        <ele>153</ele>
        <time>2011-05-01T08:40:53Z</time>
      </trkpt>
      <trkpt lat="49.31743" lon="1.24779">
        <ele>152.8</ele>
        <time>2011-05-01T08:40:54Z</time>
      </trkpt>
      <trkpt lat="49.31742" lon="1.24771">
        <ele>152.6</ele>
        <time>2011-05-01T08:40:55Z</time>
      </trkpt>
      <trkpt lat="49.31743" lon="1.24765">
        <ele>152.4</ele>
        <time>2011-05-01T08:40:56Z</time>
      </trkpt>
      <trkpt lat="49.31742" lon="1.2476">
        <ele>152</ele>
        <time>2011-05-01T08:40:57Z</time>
      </trkpt>
      <trkpt lat="49.31737" lon="1.2475">
        <ele>151.4</ele>
        <time>2011-05-01T08:40:59Z</time>
      </trkpt>
      <trkpt lat="49.31732" lon="1.24745">
        <ele>151</ele>
        <time>2011-05-01T08:41:00Z</time>
      </trkpt>
      <trkpt lat="49.31729" lon="1.24739">
        <ele>150.8</ele>
        <time>2011-05-01T08:41:01Z</time>
      </trkpt>
      <trkpt lat="49.31722" lon="1.24726">
        <ele>150</ele>
        <time>2011-05-01T08:41:03Z</time>
      </trkpt>
      <trkpt lat="49.31716" lon="1.24713">
        <ele>149.4</ele>
        <time>2011-05-01T08:41:05Z</time>
      </trkpt>
      <trkpt lat="49.31707" lon="1.24693">
        <ele>148.6</ele>
        <time>2011-05-01T08:41:07Z</time>
      </trkpt>
      <trkpt lat="49.31698" lon="1.24674">
        <ele>147.6</ele>
        <time>2011-05-01T08:41:09Z</time>
      </trkpt>
      <trkpt lat="49.31694" lon="1.24662">
        <ele>147</ele>
        <time>2011-05-01T08:41:10Z</time>
      </trkpt>
      <trkpt lat="49.31684" lon="1.24641">
        <ele>145.8</ele>
        <time>2011-05-01T08:41:12Z</time>
      </trkpt>
      <trkpt lat="49.3168" lon="1.24618">
        <ele>145</ele>
        <time>2011-05-01T08:41:13Z</time>
      </trkpt>
      <trkpt lat="49.31671" lon="1.24592">
        <ele>143.8</ele>
        <time>2011-05-01T08:41:15Z</time>
      </trkpt>
      <trkpt lat="49.31667" lon="1.24578">
        <ele>143</ele>
        <time>2011-05-01T08:41:16Z</time>
      </trkpt>
      <trkpt lat="49.31664" lon="1.24565">
        <ele>142.4</ele>
        <time>2011-05-01T08:41:17Z</time>
      </trkpt>
      <trkpt lat="49.31657" lon="1.24544">
        <ele>141.8</ele>
        <time>2011-05-01T08:41:18Z</time>
      </trkpt>
      <trkpt lat="49.31654" lon="1.2453">
        <ele>141</ele>
        <time>2011-05-01T08:41:19Z</time>
      </trkpt>
      <trkpt lat="49.31648" lon="1.24506">
        <ele>139.8</ele>
        <time>2011-05-01T08:41:21Z</time>
      </trkpt>
      <trkpt lat="49.31645" lon="1.24487">
        <ele>138.4</ele>
        <time>2011-05-01T08:41:23Z</time>
      </trkpt>
      <trkpt lat="49.3164" lon="1.24467">
        <ele>137.2</ele>
        <time>2011-05-01T08:41:25Z</time>
      </trkpt>
      <trkpt lat="49.31639" lon="1.24456">
        <ele>136.6</ele>
        <time>2011-05-01T08:41:26Z</time>
      </trkpt>
      <trkpt lat="49.31637" lon="1.24445">
        <ele>135.8</ele>
        <time>2011-05-01T08:41:27Z</time>
      </trkpt>
      <trkpt lat="49.31635" lon="1.24435">
        <ele>135.2</ele>
        <time>2011-05-01T08:41:28Z</time>
      </trkpt>
      <trkpt lat="49.31632" lon="1.24424">
        <ele>133.8</ele>
        <time>2011-05-01T08:41:30Z</time>
      </trkpt>
      <trkpt lat="49.31627" lon="1.24418">
        <ele>132.4</ele>
        <time>2011-05-01T08:41:32Z</time>
      </trkpt>
      <trkpt lat="49.31623" lon="1.24415">
        <ele>131.4</ele>
        <time>2011-05-01T08:41:33Z</time>
      </trkpt>
      <trkpt lat="49.31616" lon="1.24409">
        <ele>130</ele>
        <time>2011-05-01T08:41:35Z</time>
      </trkpt>
      <trkpt lat="49.3161" lon="1.24407">
        <ele>129.4</ele>
        <time>2011-05-01T08:41:36Z</time>
      </trkpt>
      <trkpt lat="49.31592" lon="1.24406">
        <ele>127</ele>
        <time>2011-05-01T08:41:39Z</time>
      </trkpt>
      <trkpt lat="49.31579" lon="1.24408">
        <ele>125.2</ele>
        <time>2011-05-01T08:41:41Z</time>
      </trkpt>
      <trkpt lat="49.31567" lon="1.2441">
        <ele>123</ele>
        <time>2011-05-01T08:41:43Z</time>
      </trkpt>
      <trkpt lat="49.3156" lon="1.24409">
        <ele>122</ele>
        <time>2011-05-01T08:41:44Z</time>
      </trkpt>
      <trkpt lat="49.31555" lon="1.2441">
        <ele>120.8</ele>
        <time>2011-05-01T08:41:45Z</time>
      </trkpt>
      <trkpt lat="49.31543" lon="1.24414">
        <ele>118.4</ele>
        <time>2011-05-01T08:41:47Z</time>
      </trkpt>
      <trkpt lat="49.3153" lon="1.24418">
        <ele>115.8</ele>
        <time>2011-05-01T08:41:49Z</time>
      </trkpt>
      <trkpt lat="49.31526" lon="1.24422">
        <ele>114.6</ele>
        <time>2011-05-01T08:41:50Z</time>
      </trkpt>
      <trkpt lat="49.31522" lon="1.24425">
        <ele>113.2</ele>
        <time>2011-05-01T08:41:51Z</time>
      </trkpt>
      <trkpt lat="49.31523" lon="1.24432">
        <ele>110.6</ele>
        <time>2011-05-01T08:41:53Z</time>
      </trkpt>
      <trkpt lat="49.31526" lon="1.24441">
        <ele>108.2</ele>
        <time>2011-05-01T08:41:55Z</time>
      </trkpt>
      <trkpt lat="49.31528" lon="1.24443">
        <ele>107.2</ele>
        <time>2011-05-01T08:41:56Z</time>
      </trkpt>
      <trkpt lat="49.31529" lon="1.24451">
        <ele>105</ele>
        <time>2011-05-01T08:41:58Z</time>
      </trkpt>
      <trkpt lat="49.31531" lon="1.24457">
        <ele>102.8</ele>
        <time>2011-05-01T08:42:00Z</time>
      </trkpt>
      <trkpt lat="49.31533" lon="1.24461">
        <ele>100.8</ele>
        <time>2011-05-01T08:42:02Z</time>
      </trkpt>
      <trkpt lat="49.31536" lon="1.24467">
        <ele>99</ele>
        <time>2011-05-01T08:42:04Z</time>
      </trkpt>
      <trkpt lat="49.31539" lon="1.24477">
        <ele>97.2</ele>
        <time>2011-05-01T08:42:06Z</time>
      </trkpt>
      <trkpt lat="49.3154" lon="1.24483">
        <ele>96.4</ele>
        <time>2011-05-01T08:42:07Z</time>
      </trkpt>
      <trkpt lat="49.3154" lon="1.24494">
        <ele>94.8</ele>
        <time>2011-05-01T08:42:09Z</time>
      </trkpt>
      <trkpt lat="49.3154" lon="1.24499">
        <ele>93.8</ele>
        <time>2011-05-01T08:42:10Z</time>
      </trkpt>
      <trkpt lat="49.31541" lon="1.24504">
        <ele>93</ele>
        <time>2011-05-01T08:42:11Z</time>
      </trkpt>
      <trkpt lat="49.31541" lon="1.24509">
        <ele>92.2</ele>
        <time>2011-05-01T08:42:12Z</time>
      </trkpt>
      <trkpt lat="49.31541" lon="1.24516">
        <ele>91.2</ele>
        <time>2011-05-01T08:42:13Z</time>
      </trkpt>
      <trkpt lat="49.31543" lon="1.24531">
        <ele>89.4</ele>
        <time>2011-05-01T08:42:15Z</time>
      </trkpt>
      <trkpt lat="49.31544" lon="1.24537">
        <ele>88.6</ele>
        <time>2011-05-01T08:42:16Z</time>
      </trkpt>
      <trkpt lat="49.31544" lon="1.24544">
        <ele>86.8</ele>
        <time>2011-05-01T08:42:18Z</time>
      </trkpt>
      <trkpt lat="49.31542" lon="1.24547">
        <ele>85.8</ele>
        <time>2011-05-01T08:42:19Z</time>
      </trkpt>
      <trkpt lat="49.3154" lon="1.24549">
        <ele>85</ele>
        <time>2011-05-01T08:42:20Z</time>
      </trkpt>
      <trkpt lat="49.31537" lon="1.2455">
        <ele>84</ele>
        <time>2011-05-01T08:42:21Z</time>
      </trkpt>
      <trkpt lat="49.31533" lon="1.24546">
        <ele>82.2</ele>
        <time>2011-05-01T08:42:23Z</time>
      </trkpt>
      <trkpt lat="49.31526" lon="1.24537">
        <ele>80.2</ele>
        <time>2011-05-01T08:42:25Z</time>
      </trkpt>
      <trkpt lat="49.31517" lon="1.24531">
        <ele>78</ele>
        <time>2011-05-01T08:42:27Z</time>
      </trkpt>
      <trkpt lat="49.31508" lon="1.24534">
        <ele>76</ele>
        <time>2011-05-01T08:42:29Z</time>
      </trkpt>
      <trkpt lat="49.31504" lon="1.24536">
        <ele>73.6</ele>
        <time>2011-05-01T08:42:31Z</time>
      </trkpt>
      <trkpt lat="49.31497" lon="1.24532">
        <ele>72.6</ele>
        <time>2011-05-01T08:42:32Z</time>
      </trkpt>
      <trkpt lat="49.3148" lon="1.2452">
        <ele>68.6</ele>
        <time>2011-05-01T08:42:35Z</time>
      </trkpt>
      <trkpt lat="49.31477" lon="1.24514">
        <ele>67.4</ele>
        <time>2011-05-01T08:42:36Z</time>
      </trkpt>
      <trkpt lat="49.31474" lon="1.24509">
        <ele>66</ele>
        <time>2011-05-01T08:42:37Z</time>
      </trkpt>
      <trkpt lat="49.31466" lon="1.24499">
        <ele>63</ele>
        <time>2011-05-01T08:42:39Z</time>
      </trkpt>
      <trkpt lat="49.31456" lon="1.24487">
        <ele>60.2</ele>
        <time>2011-05-01T08:42:41Z</time>
      </trkpt>
      <trkpt lat="49.31446" lon="1.24477">
        <ele>57.2</ele>
        <time>2011-05-01T08:42:43Z</time>
      </trkpt>
      <trkpt lat="49.31439" lon="1.24471">
        <ele>55.6</ele>
        <time>2011-05-01T08:42:44Z</time>
      </trkpt>
      <trkpt lat="49.31424" lon="1.24451">
        <ele>51.2</ele>
        <time>2011-05-01T08:42:47Z</time>
      </trkpt>
      <trkpt lat="49.3142" lon="1.24443">
        <ele>49.8</ele>
        <time>2011-05-01T08:42:48Z</time>
      </trkpt>
      <trkpt lat="49.31419" lon="1.24434">
        <ele>48.2</ele>
        <time>2011-05-01T08:42:49Z</time>
      </trkpt>
      <trkpt lat="49.31414" lon="1.24424">
        <ele>45.6</ele>
        <time>2011-05-01T08:42:51Z</time>
      </trkpt>
      <trkpt lat="49.31413" lon="1.24416">
        <ele>43</ele>
        <time>2011-05-01T08:42:53Z</time>
      </trkpt>
      <trkpt lat="49.31412" lon="1.24413">
        <ele>42</ele>
        <time>2011-05-01T08:42:54Z</time>
      </trkpt>
      <trkpt lat="49.31412" lon="1.24407">
        <ele>39.8</ele>
        <time>2011-05-01T08:42:56Z</time>
      </trkpt>
      <trkpt lat="49.31412" lon="1.24403">
        <ele>38.8</ele>
        <time>2011-05-01T08:42:57Z</time>
      </trkpt>
      <trkpt lat="49.31413" lon="1.24397">
        <ele>37.8</ele>
        <time>2011-05-01T08:42:58Z</time>
      </trkpt>
      <trkpt lat="49.31421" lon="1.24381">
        <ele>35.8</ele>
        <time>2011-05-01T08:43:00Z</time>
      </trkpt>
      <trkpt lat="49.31427" lon="1.24372">
        <ele>34.8</ele>
        <time>2011-05-01T08:43:01Z</time>
      </trkpt>
      <trkpt lat="49.31434" lon="1.24353">
        <ele>33.2</ele>
        <time>2011-05-01T08:43:03Z</time>
      </trkpt>
      <trkpt lat="49.31438" lon="1.24346">
        <ele>32.4</ele>
        <time>2011-05-01T08:43:04Z</time>
      </trkpt>
      <trkpt lat="49.3144" lon="1.24338">
        <ele>31.8</ele>
        <time>2011-05-01T08:43:05Z</time>
      </trkpt>
      <trkpt lat="49.31444" lon="1.24326">
        <ele>30.6</ele>
        <time>2011-05-01T08:43:07Z</time>
      </trkpt>
      <trkpt lat="49.31441" lon="1.24313">
        <ele>29.8</ele>
        <time>2011-05-01T08:43:09Z</time>
      </trkpt>
      <trkpt lat="49.31436" lon="1.24305">
        <ele>29.2</ele>
        <time>2011-05-01T08:43:10Z</time>
      </trkpt>
      <trkpt lat="49.31431" lon="1.24295">
        <ele>28.6</ele>
        <time>2011-05-01T08:43:11Z</time>
      </trkpt>
      <trkpt lat="49.31425" lon="1.24286">
        <ele>28</ele>
        <time>2011-05-01T08:43:12Z</time>
      </trkpt>
      <trkpt lat="49.31411" lon="1.24268">
        <ele>27.2</ele>
        <time>2011-05-01T08:43:14Z</time>
      </trkpt>
      <trkpt lat="49.31405" lon="1.24258">
        <ele>26.6</ele>
        <time>2011-05-01T08:43:15Z</time>
      </trkpt>
      <trkpt lat="49.31392" lon="1.24239">
        <ele>25.6</ele>
        <time>2011-05-01T08:43:17Z</time>
      </trkpt>
      <trkpt lat="49.31381" lon="1.24221">
        <ele>24.8</ele>
        <time>2011-05-01T08:43:19Z</time>
      </trkpt>
      <trkpt lat="49.31371" lon="1.24206">
        <ele>24.2</ele>
        <time>2011-05-01T08:43:21Z</time>
      </trkpt>
      <trkpt lat="49.31362" lon="1.24192">
        <ele>23.6</ele>
        <time>2011-05-01T08:43:23Z</time>
      </trkpt>
      <trkpt lat="49.3134" lon="1.24152">
        <ele>22.8</ele>
        <time>2011-05-01T08:43:28Z</time>
      </trkpt>
      <trkpt lat="49.31337" lon="1.24146">
        <ele>22.6</ele>
        <time>2011-05-01T08:43:29Z</time>
      </trkpt>
      <trkpt lat="49.31321" lon="1.24114">
        <ele>22.2</ele>
        <time>2011-05-01T08:43:34Z</time>
      </trkpt>
      <trkpt lat="49.31312" lon="1.24094">
        <ele>22</ele>
        <time>2011-05-01T08:43:37Z</time>
      </trkpt>
      <trkpt lat="49.31292" lon="1.24069">
        <ele>21.8</ele>
        <time>2011-05-01T08:43:41Z</time>
      </trkpt>
      <trkpt lat="49.31289" lon="1.24064">
        <ele>21.8</ele>
        <time>2011-05-01T08:43:42Z</time>
      </trkpt>
      <trkpt lat="49.31281" lon="1.2405">
        <ele>21.6</ele>
        <time>2011-05-01T08:43:44Z</time>
      </trkpt>
      <trkpt lat="49.31266" lon="1.24037">
        <ele>21.6</ele>
        <time>2011-05-01T08:43:46Z</time>
      </trkpt>
      <trkpt lat="49.31253" lon="1.24015">
        <ele>21.6</ele>
        <time>2011-05-01T08:43:49Z</time>
      </trkpt>
      <trkpt lat="49.31253" lon="1.23968">
        <ele>21.6</ele>
        <time>2011-05-01T08:43:54Z</time>
      </trkpt>
      <trkpt lat="49.31255" lon="1.23942">
        <ele>21.4</ele>
        <time>2011-05-01T08:43:57Z</time>
      </trkpt>
      <trkpt lat="49.31261" lon="1.23909">
        <ele>21.4</ele>
        <time>2011-05-01T08:44:01Z</time>
      </trkpt>
      <trkpt lat="49.31268" lon="1.23875">
        <ele>21.4</ele>
        <time>2011-05-01T08:44:05Z</time>
      </trkpt>
      <trkpt lat="49.31269" lon="1.2384">
        <ele>21.4</ele>
        <time>2011-05-01T08:44:09Z</time>
      </trkpt>
      <trkpt lat="49.31266" lon="1.23816">
        <ele>21.2</ele>
        <time>2011-05-01T08:44:12Z</time>
      </trkpt>
      <trkpt lat="49.31267" lon="1.23808">
        <ele>21</ele>
        <time>2011-05-01T08:44:13Z</time>
      </trkpt>
      <trkpt lat="49.31267" lon="1.23799">
        <ele>20.8</ele>
        <time>2011-05-01T08:44:14Z</time>
      </trkpt>
      <trkpt lat="49.31266" lon="1.2378">
        <ele>20.6</ele>
        <time>2011-05-01T08:44:16Z</time>
      </trkpt>
      <trkpt lat="49.31267" lon="1.23765">
        <ele>20.4</ele>
        <time>2011-05-01T08:44:18Z</time>
      </trkpt>
      <trkpt lat="49.31268" lon="1.23747">
        <ele>20.2</ele>
        <time>2011-05-01T08:44:20Z</time>
      </trkpt>
      <trkpt lat="49.31273" lon="1.23688">
        <ele>19.8</ele>
        <time>2011-05-01T08:44:27Z</time>
      </trkpt>
      <trkpt lat="49.31274" lon="1.23636">
        <ele>19.6</ele>
        <time>2011-05-01T08:44:33Z</time>
      </trkpt>
      <trkpt lat="49.31275" lon="1.23612">
        <ele>19.6</ele>
        <time>2011-05-01T08:44:36Z</time>
      </trkpt>
      <trkpt lat="49.31284" lon="1.23561">
        <ele>19.4</ele>
        <time>2011-05-01T08:44:42Z</time>
      </trkpt>
      <trkpt lat="49.31285" lon="1.2349">
        <ele>19.4</ele>
        <time>2011-05-01T08:44:50Z</time>
      </trkpt>
      <trkpt lat="49.31284" lon="1.23444">
        <ele>19.4</ele>
        <time>2011-05-01T08:44:56Z</time>
      </trkpt>
      <trkpt lat="49.31284" lon="1.23437">
        <ele>19.4</ele>
        <time>2011-05-01T08:44:57Z</time>
      </trkpt>
      <trkpt lat="49.31285" lon="1.23415">
        <ele>19.4</ele>
        <time>2011-05-01T08:45:00Z</time>
      </trkpt>
      <trkpt lat="49.31277" lon="1.23331">
        <ele>19.4</ele>
        <time>2011-05-01T08:45:10Z</time>
      </trkpt>
      <trkpt lat="49.31272" lon="1.23272">
        <ele>19.4</ele>
        <time>2011-05-01T08:45:17Z</time>
      </trkpt>
      <trkpt lat="49.31271" lon="1.23247">
        <ele>19.4</ele>
        <time>2011-05-01T08:45:20Z</time>
      </trkpt>
      <trkpt lat="49.3128" lon="1.23198">
        <ele>19.4</ele>
        <time>2011-05-01T08:45:26Z</time>
      </trkpt>
      <trkpt lat="49.3128" lon="1.2319">
        <ele>19.4</ele>
        <time>2011-05-01T08:45:27Z</time>
      </trkpt>
      <trkpt lat="49.31273" lon="1.23168">
        <ele>19.4</ele>
        <time>2011-05-01T08:45:30Z</time>
      </trkpt>
      <trkpt lat="49.31268" lon="1.23161">
        <ele>19.4</ele>
        <time>2011-05-01T08:45:31Z</time>
      </trkpt>
      <trkpt lat="49.31259" lon="1.23125">
        <ele>19.2</ele>
        <time>2011-05-01T08:45:35Z</time>
      </trkpt>
      <trkpt lat="49.31257" lon="1.23106">
        <ele>18.8</ele>
        <time>2011-05-01T08:45:37Z</time>
      </trkpt>
      <trkpt lat="49.31256" lon="1.23097">
        <ele>18.6</ele>
        <time>2011-05-01T08:45:38Z</time>
      </trkpt>
      <trkpt lat="49.31255" lon="1.23088">
        <ele>18.6</ele>
        <time>2011-05-01T08:45:39Z</time>
      </trkpt>
      <trkpt lat="49.31252" lon="1.23071">
        <ele>18.4</ele>
        <time>2011-05-01T08:45:41Z</time>
      </trkpt>
      <trkpt lat="49.31248" lon="1.23054">
        <ele>18.2</ele>
        <time>2011-05-01T08:45:43Z</time>
      </trkpt>
      <trkpt lat="49.31243" lon="1.2303">
        <ele>18</ele>
        <time>2011-05-01T08:45:46Z</time>
      </trkpt>
      <trkpt lat="49.31232" lon="1.22964">
        <ele>17.6</ele>
        <time>2011-05-01T08:45:54Z</time>
      </trkpt>
      <trkpt lat="49.31224" lon="1.22912">
        <ele>17.4</ele>
        <time>2011-05-01T08:46:00Z</time>
      </trkpt>
      <trkpt lat="49.31218" lon="1.22868">
        <ele>17.4</ele>
        <time>2011-05-01T08:46:05Z</time>
      </trkpt>
      <trkpt lat="49.31213" lon="1.22826">
        <ele>17.4</ele>
        <time>2011-05-01T08:46:10Z</time>
      </trkpt>
      <trkpt lat="49.31211" lon="1.22818">
        <ele>17.4</ele>
        <time>2011-05-01T08:46:11Z</time>
      </trkpt>
      <trkpt lat="49.31208" lon="1.22804">
        <ele>17.4</ele>
        <time>2011-05-01T08:46:13Z</time>
      </trkpt>
      <trkpt lat="49.3121" lon="1.22776">
        <ele>17.4</ele>
        <time>2011-05-01T08:46:17Z</time>
      </trkpt>
      <trkpt lat="49.31203" lon="1.22736">
        <ele>17.4</ele>
        <time>2011-05-01T08:46:22Z</time>
      </trkpt>
      <trkpt lat="49.31197" lon="1.22697">
        <ele>17.4</ele>
        <time>2011-05-01T08:46:27Z</time>
      </trkpt>
      <trkpt lat="49.31191" lon="1.22664">
        <ele>17.4</ele>
        <time>2011-05-01T08:46:31Z</time>
      </trkpt>
      <trkpt lat="49.31181" lon="1.22606">
        <ele>17.4</ele>
        <time>2011-05-01T08:46:38Z</time>
      </trkpt>
      <trkpt lat="49.31178" lon="1.22575">
        <ele>17.4</ele>
        <time>2011-05-01T08:46:42Z</time>
      </trkpt>
      <trkpt lat="49.31166" lon="1.22526">
        <ele>17.4</ele>
        <time>2011-05-01T08:46:48Z</time>
      </trkpt>
      <trkpt lat="49.31163" lon="1.2251">
        <ele>17.4</ele>
        <time>2011-05-01T08:46:50Z</time>
      </trkpt>
      <trkpt lat="49.31169" lon="1.22496">
        <ele>17.4</ele>
        <time>2011-05-01T08:46:53Z</time>
      </trkpt>
      <trkpt lat="49.31178" lon="1.22501">
        <ele>17.4</ele>
        <time>2011-05-01T08:46:56Z</time>
      </trkpt>
      <trkpt lat="49.31185" lon="1.22504">
        <ele>17.4</ele>
        <time>2011-05-01T08:46:59Z</time>
      </trkpt>
      <trkpt lat="49.31189" lon="1.22505">
        <ele>17.4</ele>
        <time>2011-05-01T08:47:01Z</time>
      </trkpt>
      <trkpt lat="49.31193" lon="1.22512">
        <ele>17.4</ele>
        <time>2011-05-01T08:47:06Z</time>
      </trkpt>
      <trkpt lat="49.312" lon="1.22518">
        <ele>17.2</ele>
        <time>2011-05-01T08:47:10Z</time>
      </trkpt>
      <trkpt lat="49.31203" lon="1.22522">
        <ele>16.8</ele>
        <time>2011-05-01T08:47:12Z</time>
      </trkpt>
      <trkpt lat="49.31204" lon="1.22523">
        <ele>16.6</ele>
        <time>2011-05-01T08:47:13Z</time>
      </trkpt>
      <trkpt lat="49.31206" lon="1.22524">
        <ele>16.6</ele>
        <time>2011-05-01T08:47:14Z</time>
      </trkpt>
      <trkpt lat="49.31208" lon="1.22526">
        <ele>16.2</ele>
        <time>2011-05-01T08:47:16Z</time>
      </trkpt>
      <trkpt lat="49.31212" lon="1.22529">
        <ele>16.2</ele>
        <time>2011-05-01T08:47:18Z</time>
      </trkpt>
      <trkpt lat="49.31213" lon="1.22531">
        <ele>16</ele>
        <time>2011-05-01T08:47:19Z</time>
      </trkpt>
      <trkpt lat="49.31219" lon="1.22538">
        <ele>15.8</ele>
        <time>2011-05-01T08:47:23Z</time>
      </trkpt>
      <trkpt lat="49.31221" lon="1.2254">
        <ele>15.8</ele>
        <time>2011-05-01T08:47:24Z</time>
      </trkpt>
      <trkpt lat="49.31229" lon="1.2255">
        <ele>15.6</ele>
        <time>2011-05-01T08:47:29Z</time>
      </trkpt>
      <trkpt lat="49.31235" lon="1.22553">
        <ele>15.6</ele>
        <time>2011-05-01T08:47:31Z</time>
      </trkpt>
      <trkpt lat="49.31243" lon="1.22561">
        <ele>15.4</ele>
        <time>2011-05-01T08:47:37Z</time>
      </trkpt>
      <trkpt lat="49.31262" lon="1.22572">
        <ele>15.4</ele>
        <time>2011-05-01T08:47:43Z</time>
      </trkpt>
      <trkpt lat="49.31262" lon="1.22574">
        <ele>15.4</ele>
        <time>2011-05-01T08:47:44Z</time>
      </trkpt>
      <trkpt lat="49.31267" lon="1.22581">
        <ele>15.4</ele>
        <time>2011-05-01T08:47:49Z</time>
      </trkpt>
      <trkpt lat="49.31268" lon="1.22584">
        <ele>15.4</ele>
        <time>2011-05-01T08:47:50Z</time>
      </trkpt>
      <trkpt lat="49.31275" lon="1.2259">
        <ele>15.4</ele>
        <time>2011-05-01T08:47:55Z</time>
      </trkpt>
      <trkpt lat="49.31277" lon="1.22591">
        <ele>15.4</ele>
        <time>2011-05-01T08:47:56Z</time>
      </trkpt>
      <trkpt lat="49.3129" lon="1.22603">
        <ele>15.4</ele>
        <time>2011-05-01T08:48:01Z</time>
      </trkpt>
      <trkpt lat="49.31293" lon="1.22608">
        <ele>15.4</ele>
        <time>2011-05-01T08:48:03Z</time>
      </trkpt>
      <trkpt lat="49.31302" lon="1.22617">
        <ele>15.4</ele>
        <time>2011-05-01T08:48:07Z</time>
      </trkpt>
      <trkpt lat="49.31307" lon="1.22621">
        <ele>15.4</ele>
        <time>2011-05-01T08:48:10Z</time>
      </trkpt>
      <trkpt lat="49.31314" lon="1.22628">
        <ele>15.4</ele>
        <time>2011-05-01T08:48:14Z</time>
      </trkpt>
      <trkpt lat="49.31319" lon="1.22635">
        <ele>15.4</ele>
        <time>2011-05-01T08:48:17Z</time>
      </trkpt>
      <trkpt lat="49.31325" lon="1.22647">
        <ele>15.4</ele>
        <time>2011-05-01T08:48:21Z</time>
      </trkpt>
      <trkpt lat="49.3135" lon="1.22669">
        <ele>15.4</ele>
        <time>2011-05-01T08:48:27Z</time>
      </trkpt>
      <trkpt lat="49.31371" lon="1.22686">
        <ele>15.4</ele>
        <time>2011-05-01T08:48:31Z</time>
      </trkpt>
      <trkpt lat="49.31387" lon="1.22701">
        <ele>15.4</ele>
        <time>2011-05-01T08:48:35Z</time>
      </trkpt>
      <trkpt lat="49.314" lon="1.22716">
        <ele>15.4</ele>
        <time>2011-05-01T08:48:39Z</time>
      </trkpt>
      <trkpt lat="49.31417" lon="1.22732">
        <ele>15.4</ele>
        <time>2011-05-01T08:48:44Z</time>
      </trkpt>
      <trkpt lat="49.31431" lon="1.2275">
        <ele>15.4</ele>
        <time>2011-05-01T08:48:48Z</time>
      </trkpt>
      <trkpt lat="49.31449" lon="1.22768">
        <ele>15.4</ele>
        <time>2011-05-01T08:48:52Z</time>
      </trkpt>
      <trkpt lat="49.31471" lon="1.22792">
        <ele>15.4</ele>
        <time>2011-05-01T08:48:56Z</time>
      </trkpt>
      <trkpt lat="49.31474" lon="1.22796">
        <ele>15.4</ele>
        <time>2011-05-01T08:48:57Z</time>
      </trkpt>
      <trkpt lat="49.31488" lon="1.22802">
        <ele>15.4</ele>
        <time>2011-05-01T08:49:01Z</time>
      </trkpt>
      <trkpt lat="49.31489" lon="1.22801">
        <ele>15.4</ele>
        <time>2011-05-01T08:49:02Z</time>
      </trkpt>
      <trkpt lat="49.31489" lon="1.22801">
        <ele>15.4</ele>
        <time>2011-05-01T08:49:05Z</time>
      </trkpt>
      <trkpt lat="49.31489" lon="1.22803">
        <ele>15.4</ele>
        <time>2011-05-01T08:49:08Z</time>
      </trkpt>
      <trkpt lat="49.3149" lon="1.22804">
        <ele>15.4</ele>
        <time>2011-05-01T08:49:12Z</time>
      </trkpt>
      <trkpt lat="49.3149" lon="1.22803">
        <ele>15.4</ele>
        <time>2011-05-01T08:49:13Z</time>
      </trkpt>
      <trkpt lat="49.31499" lon="1.22791">
        <ele>15.4</ele>
        <time>2011-05-01T08:49:17Z</time>
      </trkpt>
      <trkpt lat="49.31516" lon="1.22768">
        <ele>15.4</ele>
        <time>2011-05-01T08:49:24Z</time>
      </trkpt>
      <trkpt lat="49.31517" lon="1.22766">
        <ele>15.4</ele>
        <time>2011-05-01T08:49:25Z</time>
      </trkpt>
      <trkpt lat="49.3151" lon="1.22765">
        <ele>15.4</ele>
        <time>2011-05-01T08:49:29Z</time>
      </trkpt>
      <trkpt lat="49.3151" lon="1.22766">
        <ele>15.4</ele>
        <time>2011-05-01T08:49:30Z</time>
      </trkpt>
      <trkpt lat="49.31511" lon="1.22767">
        <ele>15.4</ele>
        <time>2011-05-01T08:49:32Z</time>
      </trkpt>
      <trkpt lat="49.31511" lon="1.22767">
        <ele>15.4</ele>
        <time>2011-05-01T08:49:34Z</time>
      </trkpt>
      <trkpt lat="49.31513" lon="1.22766">
        <ele>13.2</ele>
        <time>2011-05-01T08:54:32Z</time>
      </trkpt>
      <trkpt lat="49.31513" lon="1.22766">
        <ele>13.2</ele>
        <time>2011-05-01T08:54:33Z</time>
      </trkpt>
      <trkpt lat="49.31514" lon="1.22766">
        <ele>13.2</ele>
        <time>2011-05-01T08:54:34Z</time>
      </trkpt>
      <trkpt lat="49.31515" lon="1.22765">
        <ele>13.2</ele>
        <time>2011-05-01T08:54:35Z</time>
      </trkpt>
      <trkpt lat="49.31517" lon="1.22764">
        <ele>13.2</ele>
        <time>2011-05-01T08:54:37Z</time>
      </trkpt>
      <trkpt lat="49.31519" lon="1.22763">
        <ele>13.2</ele>
        <time>2011-05-01T08:54:39Z</time>
      </trkpt>
      <trkpt lat="49.31521" lon="1.22762">
        <ele>13.2</ele>
        <time>2011-05-01T08:54:41Z</time>
      </trkpt>
      <trkpt lat="49.31522" lon="1.2276">
        <ele>13.2</ele>
        <time>2011-05-01T08:54:44Z</time>
      </trkpt>
      <trkpt lat="49.31523" lon="1.22758">
        <ele>13.2</ele>
        <time>2011-05-01T08:54:46Z</time>
      </trkpt>
      <trkpt lat="49.31532" lon="1.22738">
        <ele>13.2</ele>
        <time>2011-05-01T08:54:53Z</time>
      </trkpt>
      <trkpt lat="49.31546" lon="1.22707">
        <ele>13.2</ele>
        <time>2011-05-01T08:55:00Z</time>
      </trkpt>
      <trkpt lat="49.31562" lon="1.22678">
        <ele>13.2</ele>
        <time>2011-05-01T08:55:06Z</time>
      </trkpt>
      <trkpt lat="49.31573" lon="1.22657">
        <ele>13.2</ele>
        <time>2011-05-01T08:55:10Z</time>
      </trkpt>
      <trkpt lat="49.31591" lon="1.22624">
        <ele>13.2</ele>
        <time>2011-05-01T08:55:16Z</time>
      </trkpt>
      <trkpt lat="49.31617" lon="1.22586">
        <ele>13.2</ele>
        <time>2011-05-01T08:55:23Z</time>
      </trkpt>
      <trkpt lat="49.31636" lon="1.22559">
        <ele>13.4</ele>
        <time>2011-05-01T08:55:30Z</time>
      </trkpt>
      <trkpt lat="49.31642" lon="1.22552">
        <ele>13.8</ele>
        <time>2011-05-01T08:55:32Z</time>
      </trkpt>
      <trkpt lat="49.31645" lon="1.22547">
        <ele>14</ele>
        <time>2011-05-01T08:55:33Z</time>
      </trkpt>
      <trkpt lat="49.31655" lon="1.22536">
        <ele>14.4</ele>
        <time>2011-05-01T08:55:36Z</time>
      </trkpt>
      <trkpt lat="49.31661" lon="1.22528">
        <ele>14.6</ele>
        <time>2011-05-01T08:55:38Z</time>
      </trkpt>
      <trkpt lat="49.31679" lon="1.22498">
        <ele>15</ele>
        <time>2011-05-01T08:55:44Z</time>
      </trkpt>
      <trkpt lat="49.31685" lon="1.22488">
        <ele>15.6</ele>
        <time>2011-05-01T08:55:46Z</time>
      </trkpt>
      <trkpt lat="49.31691" lon="1.22478">
        <ele>16</ele>
        <time>2011-05-01T08:55:48Z</time>
      </trkpt>
      <trkpt lat="49.31697" lon="1.22468">
        <ele>16.2</ele>
        <time>2011-05-01T08:55:50Z</time>
      </trkpt>
      <trkpt lat="49.31703" lon="1.22457">
        <ele>16.4</ele>
        <time>2011-05-01T08:55:52Z</time>
      </trkpt>
      <trkpt lat="49.3173" lon="1.22411">
        <ele>17</ele>
        <time>2011-05-01T08:56:01Z</time>
      </trkpt>
      <trkpt lat="49.31761" lon="1.22358">
        <ele>17.4</ele>
        <time>2011-05-01T08:56:12Z</time>
      </trkpt>
      <trkpt lat="49.31776" lon="1.22333">
        <ele>17.6</ele>
        <time>2011-05-01T08:56:17Z</time>
      </trkpt>
      <trkpt lat="49.31782" lon="1.22323">
        <ele>18</ele>
        <time>2011-05-01T08:56:19Z</time>
      </trkpt>
      <trkpt lat="49.31785" lon="1.22318">
        <ele>18.2</ele>
        <time>2011-05-01T08:56:20Z</time>
      </trkpt>
      <trkpt lat="49.31796" lon="1.22304">
        <ele>18.6</ele>
        <time>2011-05-01T08:56:23Z</time>
      </trkpt>
      <trkpt lat="49.31799" lon="1.22299">
        <ele>18.6</ele>
        <time>2011-05-01T08:56:24Z</time>
      </trkpt>
      <trkpt lat="49.31814" lon="1.22275">
        <ele>19</ele>
        <time>2011-05-01T08:56:29Z</time>
      </trkpt>
      <trkpt lat="49.31818" lon="1.22269">
        <ele>19</ele>
        <time>2011-05-01T08:56:30Z</time>
      </trkpt>
      <trkpt lat="49.31826" lon="1.22257">
        <ele>19.2</ele>
        <time>2011-05-01T08:56:33Z</time>
      </trkpt>
      <trkpt lat="49.31842" lon="1.22245">
        <ele>19.4</ele>
        <time>2011-05-01T08:56:37Z</time>
      </trkpt>
      <trkpt lat="49.31871" lon="1.22243">
        <ele>19.4</ele>
        <time>2011-05-01T08:56:43Z</time>
      </trkpt>
      <trkpt lat="49.31885" lon="1.22247">
        <ele>19.4</ele>
        <time>2011-05-01T08:56:47Z</time>
      </trkpt>
      <trkpt lat="49.31892" lon="1.22263">
        <ele>20.2</ele>
        <time>2011-05-01T08:56:50Z</time>
      </trkpt>
      <trkpt lat="49.31896" lon="1.22276">
        <ele>20.4</ele>
        <time>2011-05-01T08:56:52Z</time>
      </trkpt>
      <trkpt lat="49.31899" lon="1.2229">
        <ele>20.8</ele>
        <time>2011-05-01T08:56:54Z</time>
      </trkpt>
      <trkpt lat="49.31902" lon="1.22304">
        <ele>21</ele>
        <time>2011-05-01T08:56:56Z</time>
      </trkpt>
      <trkpt lat="49.31906" lon="1.22326">
        <ele>21.2</ele>
        <time>2011-05-01T08:56:59Z</time>
      </trkpt>
      <trkpt lat="49.31918" lon="1.22344">
        <ele>21.4</ele>
        <time>2011-05-01T08:57:03Z</time>
      </trkpt>
      <trkpt lat="49.31921" lon="1.22342">
        <ele>21.4</ele>
        <time>2011-05-01T08:57:04Z</time>
      </trkpt>
      <trkpt lat="49.31949" lon="1.22326">
        <ele>21.6</ele>
        <time>2011-05-01T08:57:10Z</time>
      </trkpt>
      <trkpt lat="49.31968" lon="1.22321">
        <ele>21.8</ele>
        <time>2011-05-01T08:57:14Z</time>
      </trkpt>
      <trkpt lat="49.31982" lon="1.22335">
        <ele>21.8</ele>
        <time>2011-05-01T08:57:18Z</time>
      </trkpt>
      <trkpt lat="49.31983" lon="1.22343">
        <ele>21.8</ele>
        <time>2011-05-01T08:57:19Z</time>
      </trkpt>
      <trkpt lat="49.31988" lon="1.22387">
        <ele>21.8</ele>
        <time>2011-05-01T08:57:25Z</time>
      </trkpt>
      <trkpt lat="49.31999" lon="1.22391">
        <ele>21.8</ele>
        <time>2011-05-01T08:57:28Z</time>
      </trkpt>
      <trkpt lat="49.32038" lon="1.22385">
        <ele>21.8</ele>
        <time>2011-05-01T08:57:36Z</time>
      </trkpt>
      <trkpt lat="49.32078" lon="1.22384">
        <ele>21.8</ele>
        <time>2011-05-01T08:57:45Z</time>
      </trkpt>
      <trkpt lat="49.32107" lon="1.2239">
        <ele>21.8</ele>
        <time>2011-05-01T08:57:52Z</time>
      </trkpt>
      <trkpt lat="49.32132" lon="1.22396">
        <ele>21.8</ele>
        <time>2011-05-01T08:57:58Z</time>
      </trkpt>
      <trkpt lat="49.32168" lon="1.22405">
        <ele>21.8</ele>
        <time>2011-05-01T08:58:07Z</time>
      </trkpt>
      <trkpt lat="49.32177" lon="1.22418">
        <ele>21.8</ele>
        <time>2011-05-01T08:58:11Z</time>
      </trkpt>
      <trkpt lat="49.32193" lon="1.22414">
        <ele>21.8</ele>
        <time>2011-05-01T08:58:15Z</time>
      </trkpt>
      <trkpt lat="49.32196" lon="1.22412">
        <ele>21.8</ele>
        <time>2011-05-01T08:58:16Z</time>
      </trkpt>
      <trkpt lat="49.32205" lon="1.22409">
        <ele>21.8</ele>
        <time>2011-05-01T08:58:18Z</time>
      </trkpt>
      <trkpt lat="49.32222" lon="1.22415">
        <ele>21.8</ele>
        <time>2011-05-01T08:58:22Z</time>
      </trkpt>
      <trkpt lat="49.32233" lon="1.22421">
        <ele>21.8</ele>
        <time>2011-05-01T08:58:24Z</time>
      </trkpt>
      <trkpt lat="49.3226" lon="1.22432">
        <ele>21.8</ele>
        <time>2011-05-01T08:58:31Z</time>
      </trkpt>
      <trkpt lat="49.3228" lon="1.22437">
        <ele>21.8</ele>
        <time>2011-05-01T08:58:36Z</time>
      </trkpt>
      <trkpt lat="49.32299" lon="1.22444">
        <ele>21.8</ele>
        <time>2011-05-01T08:58:40Z</time>
      </trkpt>
      <trkpt lat="49.32327" lon="1.22445">
        <ele>21.8</ele>
        <time>2011-05-01T08:58:46Z</time>
      </trkpt>
      <trkpt lat="49.3234" lon="1.22447">
        <ele>21.8</ele>
        <time>2011-05-01T08:58:49Z</time>
      </trkpt>
      <trkpt lat="49.32353" lon="1.22445">
        <ele>21.8</ele>
        <time>2011-05-01T08:58:52Z</time>
      </trkpt>
      <trkpt lat="49.32383" lon="1.22447">
        <ele>21.8</ele>
        <time>2011-05-01T08:58:58Z</time>
      </trkpt>
      <trkpt lat="49.32388" lon="1.22447">
        <ele>22</ele>
        <time>2011-05-01T08:58:59Z</time>
      </trkpt>
      <trkpt lat="49.32398" lon="1.22448">
        <ele>22.4</ele>
        <time>2011-05-01T08:59:01Z</time>
      </trkpt>
      <trkpt lat="49.32407" lon="1.22449">
        <ele>22.8</ele>
        <time>2011-05-01T08:59:03Z</time>
      </trkpt>
      <trkpt lat="49.32416" lon="1.22449">
        <ele>23</ele>
        <time>2011-05-01T08:59:05Z</time>
      </trkpt>
      <trkpt lat="49.32425" lon="1.2245">
        <ele>23.2</ele>
        <time>2011-05-01T08:59:07Z</time>
      </trkpt>
      <trkpt lat="49.3243" lon="1.22452">
        <ele>23.2</ele>
        <time>2011-05-01T08:59:08Z</time>
      </trkpt>
      <trkpt lat="49.32454" lon="1.22456">
        <ele>23.6</ele>
        <time>2011-05-01T08:59:14Z</time>
      </trkpt>
      <trkpt lat="49.32482" lon="1.22454">
        <ele>23.8</ele>
        <time>2011-05-01T08:59:21Z</time>
      </trkpt>
      <trkpt lat="49.32521" lon="1.22451">
        <ele>23.8</ele>
        <time>2011-05-01T08:59:30Z</time>
      </trkpt>
      <trkpt lat="49.32525" lon="1.2245">
        <ele>23.8</ele>
        <time>2011-05-01T08:59:31Z</time>
      </trkpt>
      <trkpt lat="49.32538" lon="1.22447">
        <ele>24</ele>
        <time>2011-05-01T08:59:34Z</time>
      </trkpt>
      <trkpt lat="49.32552" lon="1.22445">
        <ele>24</ele>
        <time>2011-05-01T08:59:37Z</time>
      </trkpt>
      <trkpt lat="49.32564" lon="1.22441">
        <ele>24.4</ele>
        <time>2011-05-01T08:59:40Z</time>
      </trkpt>
      <trkpt lat="49.32571" lon="1.22437">
        <ele>24.8</ele>
        <time>2011-05-01T08:59:42Z</time>
      </trkpt>
      <trkpt lat="49.32578" lon="1.22433">
        <ele>25</ele>
        <time>2011-05-01T08:59:44Z</time>
      </trkpt>
      <trkpt lat="49.32586" lon="1.22429">
        <ele>25.2</ele>
        <time>2011-05-01T08:59:46Z</time>
      </trkpt>
      <trkpt lat="49.32604" lon="1.22416">
        <ele>25.6</ele>
        <time>2011-05-01T08:59:51Z</time>
      </trkpt>
      <trkpt lat="49.32608" lon="1.22413">
        <ele>25.6</ele>
        <time>2011-05-01T08:59:52Z</time>
      </trkpt>
      <trkpt lat="49.32619" lon="1.22407">
        <ele>25.8</ele>
        <time>2011-05-01T08:59:55Z</time>
      </trkpt>
      <trkpt lat="49.32653" lon="1.22396">
        <ele>26</ele>
        <time>2011-05-01T09:00:04Z</time>
      </trkpt>
      <trkpt lat="49.32668" lon="1.22393">
        <ele>26.2</ele>
        <time>2011-05-01T09:00:08Z</time>
      </trkpt>
      <trkpt lat="49.32675" lon="1.22393">
        <ele>26.6</ele>
        <time>2011-05-01T09:00:10Z</time>
      </trkpt>
      <trkpt lat="49.32683" lon="1.22394">
        <ele>26.8</ele>
        <time>2011-05-01T09:00:12Z</time>
      </trkpt>
      <trkpt lat="49.3269" lon="1.22393">
        <ele>27</ele>
        <time>2011-05-01T09:00:14Z</time>
      </trkpt>
      <trkpt lat="49.32697" lon="1.22391">
        <ele>27.2</ele>
        <time>2011-05-01T09:00:16Z</time>
      </trkpt>
      <trkpt lat="49.32723" lon="1.22386">
        <ele>27.8</ele>
        <time>2011-05-01T09:00:25Z</time>
      </trkpt>
      <trkpt lat="49.32731" lon="1.22385">
        <ele>28</ele>
        <time>2011-05-01T09:00:28Z</time>
      </trkpt>
      <trkpt lat="49.32736" lon="1.22385">
        <ele>28.4</ele>
        <time>2011-05-01T09:00:30Z</time>
      </trkpt>
      <trkpt lat="49.32741" lon="1.22383">
        <ele>28.8</ele>
        <time>2011-05-01T09:00:32Z</time>
      </trkpt>
      <trkpt lat="49.32744" lon="1.22384">
        <ele>29</ele>
        <time>2011-05-01T09:00:33Z</time>
      </trkpt>
      <trkpt lat="49.32748" lon="1.22386">
        <ele>29.4</ele>
        <time>2011-05-01T09:00:35Z</time>
      </trkpt>
      <trkpt lat="49.32753" lon="1.22385">
        <ele>30</ele>
        <time>2011-05-01T09:00:37Z</time>
      </trkpt>
      <trkpt lat="49.32755" lon="1.22384">
        <ele>30.2</ele>
        <time>2011-05-01T09:00:38Z</time>
      </trkpt>
      <trkpt lat="49.32758" lon="1.22382">
        <ele>30.4</ele>
        <time>2011-05-01T09:00:39Z</time>
      </trkpt>
      <trkpt lat="49.32765" lon="1.22378">
        <ele>30.8</ele>
        <time>2011-05-01T09:00:41Z</time>
      </trkpt>
      <trkpt lat="49.32773" lon="1.22376">
        <ele>31</ele>
        <time>2011-05-01T09:00:43Z</time>
      </trkpt>
      <trkpt lat="49.32792" lon="1.22368">
        <ele>31.6</ele>
        <time>2011-05-01T09:00:48Z</time>
      </trkpt>
      <trkpt lat="49.32803" lon="1.22361">
        <ele>31.8</ele>
        <time>2011-05-01T09:00:51Z</time>
      </trkpt>
      <trkpt lat="49.32831" lon="1.2235">
        <ele>32</ele>
        <time>2011-05-01T09:00:58Z</time>
      </trkpt>
      <trkpt lat="49.32839" lon="1.22346">
        <ele>32.2</ele>
        <time>2011-05-01T09:01:00Z</time>
      </trkpt>
      <trkpt lat="49.32851" lon="1.2234">
        <ele>32.2</ele>
        <time>2011-05-01T09:01:03Z</time>
      </trkpt>
      <trkpt lat="49.32881" lon="1.22328">
        <ele>32.2</ele>
        <time>2011-05-01T09:01:10Z</time>
      </trkpt>
      <trkpt lat="49.32906" lon="1.22321">
        <ele>32.2</ele>
        <time>2011-05-01T09:01:15Z</time>
      </trkpt>
      <trkpt lat="49.32928" lon="1.22306">
        <ele>32.4</ele>
        <time>2011-05-01T09:01:20Z</time>
      </trkpt>
      <trkpt lat="49.32947" lon="1.22285">
        <ele>32.4</ele>
        <time>2011-05-01T09:01:25Z</time>
      </trkpt>
      <trkpt lat="49.32952" lon="1.22281">
        <ele>32.4</ele>
        <time>2011-05-01T09:01:26Z</time>
      </trkpt>
      <trkpt lat="49.32968" lon="1.22272">
        <ele>31.8</ele>
        <time>2011-05-01T09:01:29Z</time>
      </trkpt>
      <trkpt lat="49.32973" lon="1.2227">
        <ele>31.6</ele>
        <time>2011-05-01T09:01:30Z</time>
      </trkpt>
      <trkpt lat="49.32979" lon="1.22268">
        <ele>31.4</ele>
        <time>2011-05-01T09:01:31Z</time>
      </trkpt>
      <trkpt lat="49.32984" lon="1.22267">
        <ele>31.4</ele>
        <time>2011-05-01T09:01:32Z</time>
      </trkpt>
      <trkpt lat="49.3299" lon="1.22266">
        <ele>31.2</ele>
        <time>2011-05-01T09:01:33Z</time>
      </trkpt>
      <trkpt lat="49.33001" lon="1.22264">
        <ele>31</ele>
        <time>2011-05-01T09:01:35Z</time>
      </trkpt>
      <trkpt lat="49.33023" lon="1.22259">
        <ele>30.8</ele>
        <time>2011-05-01T09:01:39Z</time>
      </trkpt>
      <trkpt lat="49.33068" lon="1.22238">
        <ele>30.4</ele>
        <time>2011-05-01T09:01:48Z</time>
      </trkpt>
      <trkpt lat="49.33093" lon="1.22229">
        <ele>30.2</ele>
        <time>2011-05-01T09:01:55Z</time>
      </trkpt>
      <trkpt lat="49.33112" lon="1.22236">
        <ele>30.2</ele>
        <time>2011-05-01T09:02:02Z</time>
      </trkpt>
      <trkpt lat="49.3312" lon="1.22238">
        <ele>30.4</ele>
        <time>2011-05-01T09:02:06Z</time>
      </trkpt>
      <trkpt lat="49.33124" lon="1.22239">
        <ele>30.8</ele>
        <time>2011-05-01T09:02:08Z</time>
      </trkpt>
      <trkpt lat="49.33127" lon="1.2224">
        <ele>31</ele>
        <time>2011-05-01T09:02:10Z</time>
      </trkpt>
      <trkpt lat="49.33132" lon="1.22242">
        <ele>31.2</ele>
        <time>2011-05-01T09:02:12Z</time>
      </trkpt>
      <trkpt lat="49.33135" lon="1.22242">
        <ele>31.4</ele>
        <time>2011-05-01T09:02:13Z</time>
      </trkpt>
      <trkpt lat="49.33137" lon="1.22243">
        <ele>31.4</ele>
        <time>2011-05-01T09:02:14Z</time>
      </trkpt>
      <trkpt lat="49.3314" lon="1.22243">
        <ele>31.8</ele>
        <time>2011-05-01T09:02:15Z</time>
      </trkpt>
      <trkpt lat="49.33143" lon="1.22242">
        <ele>32.2</ele>
        <time>2011-05-01T09:02:17Z</time>
      </trkpt>
      <trkpt lat="49.33148" lon="1.22243">
        <ele>32.6</ele>
        <time>2011-05-01T09:02:19Z</time>
      </trkpt>
      <trkpt lat="49.3315" lon="1.22244">
        <ele>32.8</ele>
        <time>2011-05-01T09:02:20Z</time>
      </trkpt>
      <trkpt lat="49.33153" lon="1.22245">
        <ele>33</ele>
        <time>2011-05-01T09:02:21Z</time>
      </trkpt>
      <trkpt lat="49.33157" lon="1.22248">
        <ele>33.2</ele>
        <time>2011-05-01T09:02:23Z</time>
      </trkpt>
      <trkpt lat="49.33161" lon="1.2225">
        <ele>33.4</ele>
        <time>2011-05-01T09:02:25Z</time>
      </trkpt>
      <trkpt lat="49.33165" lon="1.2225">
        <ele>33.8</ele>
        <time>2011-05-01T09:02:27Z</time>
      </trkpt>
      <trkpt lat="49.33169" lon="1.2225">
        <ele>34.2</ele>
        <time>2011-05-01T09:02:29Z</time>
      </trkpt>
      <trkpt lat="49.3317" lon="1.2225">
        <ele>34.4</ele>
        <time>2011-05-01T09:02:30Z</time>
      </trkpt>
      <trkpt lat="49.33172" lon="1.2225">
        <ele>34.6</ele>
        <time>2011-05-01T09:02:31Z</time>
      </trkpt>
      <trkpt lat="49.33175" lon="1.22251">
        <ele>35</ele>
        <time>2011-05-01T09:02:33Z</time>
      </trkpt>
      <trkpt lat="49.3318" lon="1.22252">
        <ele>35.2</ele>
        <time>2011-05-01T09:02:35Z</time>
      </trkpt>
      <trkpt lat="49.33188" lon="1.22253">
        <ele>35.8</ele>
        <time>2011-05-01T09:02:39Z</time>
      </trkpt>
      <trkpt lat="49.3319" lon="1.22253">
        <ele>36.4</ele>
        <time>2011-05-01T09:02:41Z</time>
      </trkpt>
      <trkpt lat="49.33193" lon="1.22253">
        <ele>36.8</ele>
        <time>2011-05-01T09:02:43Z</time>
      </trkpt>
      <trkpt lat="49.33195" lon="1.22252">
        <ele>37.2</ele>
        <time>2011-05-01T09:02:45Z</time>
      </trkpt>
      <trkpt lat="49.33199" lon="1.22252">
        <ele>37.6</ele>
        <time>2011-05-01T09:02:47Z</time>
      </trkpt>
      <trkpt lat="49.33206" lon="1.22253">
        <ele>38.2</ele>
        <time>2011-05-01T09:02:49Z</time>
      </trkpt>
      <trkpt lat="49.33213" lon="1.22254">
        <ele>38.8</ele>
        <time>2011-05-01T09:02:51Z</time>
      </trkpt>
      <trkpt lat="49.33217" lon="1.22255">
        <ele>39</ele>
        <time>2011-05-01T09:02:53Z</time>
      </trkpt>
      <trkpt lat="49.33218" lon="1.22256">
        <ele>39.4</ele>
        <time>2011-05-01T09:02:55Z</time>
      </trkpt>
      <trkpt lat="49.33222" lon="1.22258">
        <ele>39.8</ele>
        <time>2011-05-01T09:02:57Z</time>
      </trkpt>
      <trkpt lat="49.3323" lon="1.2226">
        <ele>40.4</ele>
        <time>2011-05-01T09:02:59Z</time>
      </trkpt>
      <trkpt lat="49.33237" lon="1.22262">
        <ele>40.8</ele>
        <time>2011-05-01T09:03:01Z</time>
      </trkpt>
      <trkpt lat="49.33244" lon="1.22265">
        <ele>41.2</ele>
        <time>2011-05-01T09:03:03Z</time>
      </trkpt>
      <trkpt lat="49.33249" lon="1.22267">
        <ele>41.6</ele>
        <time>2011-05-01T09:03:05Z</time>
      </trkpt>
      <trkpt lat="49.33256" lon="1.22269">
        <ele>42.2</ele>
        <time>2011-05-01T09:03:08Z</time>
      </trkpt>
      <trkpt lat="49.33261" lon="1.22273">
        <ele>42.6</ele>
        <time>2011-05-01T09:03:10Z</time>
      </trkpt>
      <trkpt lat="49.33265" lon="1.22276">
        <ele>43</ele>
        <time>2011-05-01T09:03:12Z</time>
      </trkpt>
      <trkpt lat="49.33266" lon="1.22279">
        <ele>43.2</ele>
        <time>2011-05-01T09:03:13Z</time>
      </trkpt>
      <trkpt lat="49.33269" lon="1.22281">
        <ele>43.4</ele>
        <time>2011-05-01T09:03:14Z</time>
      </trkpt>
      <trkpt lat="49.33271" lon="1.22284">
        <ele>43.6</ele>
        <time>2011-05-01T09:03:16Z</time>
      </trkpt>
      <trkpt lat="49.33277" lon="1.22284">
        <ele>44</ele>
        <time>2011-05-01T09:03:19Z</time>
      </trkpt>
      <trkpt lat="49.33278" lon="1.22286">
        <ele>44.2</ele>
        <time>2011-05-01T09:03:20Z</time>
      </trkpt>
      <trkpt lat="49.33279" lon="1.22287">
        <ele>44.2</ele>
        <time>2011-05-01T09:03:21Z</time>
      </trkpt>
      <trkpt lat="49.33283" lon="1.2229">
        <ele>45</ele>
        <time>2011-05-01T09:03:24Z</time>
      </trkpt>
      <trkpt lat="49.33287" lon="1.2229">
        <ele>45.4</ele>
        <time>2011-05-01T09:03:26Z</time>
      </trkpt>
      <trkpt lat="49.33292" lon="1.22293">
        <ele>45.6</ele>
        <time>2011-05-01T09:03:28Z</time>
      </trkpt>
      <trkpt lat="49.33295" lon="1.22295">
        <ele>46</ele>
        <time>2011-05-01T09:03:30Z</time>
      </trkpt>
      <trkpt lat="49.33295" lon="1.22296">
        <ele>46.2</ele>
        <time>2011-05-01T09:03:31Z</time>
      </trkpt>
      <trkpt lat="49.33298" lon="1.22298">
        <ele>46.8</ele>
        <time>2011-05-01T09:03:33Z</time>
      </trkpt>
      <trkpt lat="49.33301" lon="1.223">
        <ele>47.2</ele>
        <time>2011-05-01T09:03:35Z</time>
      </trkpt>
      <trkpt lat="49.33304" lon="1.22302">
        <ele>47.6</ele>
        <time>2011-05-01T09:03:37Z</time>
      </trkpt>
      <trkpt lat="49.33308" lon="1.22302">
        <ele>48</ele>
        <time>2011-05-01T09:03:39Z</time>
      </trkpt>
      <trkpt lat="49.33312" lon="1.22304">
        <ele>48.6</ele>
        <time>2011-05-01T09:03:41Z</time>
      </trkpt>
      <trkpt lat="49.33315" lon="1.22307">
        <ele>49</ele>
        <time>2011-05-01T09:03:43Z</time>
      </trkpt>
      <trkpt lat="49.33317" lon="1.2231">
        <ele>49.4</ele>
        <time>2011-05-01T09:03:45Z</time>
      </trkpt>
      <trkpt lat="49.33322" lon="1.22314">
        <ele>49.8</ele>
        <time>2011-05-01T09:03:47Z</time>
      </trkpt>
      <trkpt lat="49.33332" lon="1.2232">
        <ele>50.2</ele>
        <time>2011-05-01T09:03:50Z</time>
      </trkpt>
      <trkpt lat="49.33335" lon="1.2232">
        <ele>50.6</ele>
        <time>2011-05-01T09:03:52Z</time>
      </trkpt>
      <trkpt lat="49.3334" lon="1.22323">
        <ele>51</ele>
        <time>2011-05-01T09:03:54Z</time>
      </trkpt>
      <trkpt lat="49.33344" lon="1.22325">
        <ele>51.4</ele>
        <time>2011-05-01T09:03:56Z</time>
      </trkpt>
      <trkpt lat="49.33345" lon="1.22325">
        <ele>51.8</ele>
        <time>2011-05-01T09:03:58Z</time>
      </trkpt>
      <trkpt lat="49.33347" lon="1.22324">
        <ele>52</ele>
        <time>2011-05-01T09:03:59Z</time>
      </trkpt>
      <trkpt lat="49.33355" lon="1.22326">
        <ele>52.8</ele>
        <time>2011-05-01T09:04:02Z</time>
      </trkpt>
      <trkpt lat="49.33358" lon="1.22327">
        <ele>53.4</ele>
        <time>2011-05-01T09:04:04Z</time>
      </trkpt>
      <trkpt lat="49.3336" lon="1.22326">
        <ele>53.6</ele>
        <time>2011-05-01T09:04:06Z</time>
      </trkpt>
      <trkpt lat="49.33363" lon="1.22326">
        <ele>54</ele>
        <time>2011-05-01T09:04:08Z</time>
      </trkpt>
      <trkpt lat="49.33365" lon="1.22325">
        <ele>54.2</ele>
        <time>2011-05-01T09:04:09Z</time>
      </trkpt>
      <trkpt lat="49.33372" lon="1.22324">
        <ele>54.6</ele>
        <time>2011-05-01T09:04:13Z</time>
      </trkpt>
      <trkpt lat="49.33376" lon="1.22324">
        <ele>54.8</ele>
        <time>2011-05-01T09:04:15Z</time>
      </trkpt>
      <trkpt lat="49.33376" lon="1.22324">
        <ele>55.2</ele>
        <time>2011-05-01T09:04:16Z</time>
      </trkpt>
      <trkpt lat="49.33378" lon="1.22325">
        <ele>55.6</ele>
        <time>2011-05-01T09:04:18Z</time>
      </trkpt>
      <trkpt lat="49.33379" lon="1.22326">
        <ele>55.8</ele>
        <time>2011-05-01T09:04:19Z</time>
      </trkpt>
      <trkpt lat="49.33381" lon="1.22327">
        <ele>56</ele>
        <time>2011-05-01T09:04:21Z</time>
      </trkpt>
      <trkpt lat="49.33384" lon="1.22328">
        <ele>56.2</ele>
        <time>2011-05-01T09:04:23Z</time>
      </trkpt>
      <trkpt lat="49.33388" lon="1.22329">
        <ele>56.4</ele>
        <time>2011-05-01T09:04:25Z</time>
      </trkpt>
      <trkpt lat="49.3339" lon="1.2233">
        <ele>56.8</ele>
        <time>2011-05-01T09:04:27Z</time>
      </trkpt>
      <trkpt lat="49.33393" lon="1.2233">
        <ele>57.4</ele>
        <time>2011-05-01T09:04:29Z</time>
      </trkpt>
      <trkpt lat="49.33395" lon="1.22332">
        <ele>57.8</ele>
        <time>2011-05-01T09:04:31Z</time>
      </trkpt>
      <trkpt lat="49.33398" lon="1.22333">
        <ele>58</ele>
        <time>2011-05-01T09:04:33Z</time>
      </trkpt>
      <trkpt lat="49.33401" lon="1.22335">
        <ele>58.4</ele>
        <time>2011-05-01T09:04:35Z</time>
      </trkpt>
      <trkpt lat="49.33403" lon="1.22336">
        <ele>58.6</ele>
        <time>2011-05-01T09:04:36Z</time>
      </trkpt>
      <trkpt lat="49.33405" lon="1.22338">
        <ele>59.2</ele>
        <time>2011-05-01T09:04:38Z</time>
      </trkpt>
      <trkpt lat="49.33406" lon="1.2234">
        <ele>59.6</ele>
        <time>2011-05-01T09:04:40Z</time>
      </trkpt>
      <trkpt lat="49.33407" lon="1.22342">
        <ele>60</ele>
        <time>2011-05-01T09:04:42Z</time>
      </trkpt>
      <trkpt lat="49.33409" lon="1.22344">
        <ele>60.2</ele>
        <time>2011-05-01T09:04:44Z</time>
      </trkpt>
      <trkpt lat="49.3342" lon="1.22344">
        <ele>61</ele>
        <time>2011-05-01T09:04:49Z</time>
      </trkpt>
      <trkpt lat="49.33424" lon="1.22347">
        <ele>61.6</ele>
        <time>2011-05-01T09:04:51Z</time>
      </trkpt>
      <trkpt lat="49.33427" lon="1.22356">
        <ele>62</ele>
        <time>2011-05-01T09:04:53Z</time>
      </trkpt>
      <trkpt lat="49.33433" lon="1.22361">
        <ele>62.2</ele>
        <time>2011-05-01T09:04:55Z</time>
      </trkpt>
      <trkpt lat="49.33435" lon="1.22361">
        <ele>62.6</ele>
        <time>2011-05-01T09:04:57Z</time>
      </trkpt>
      <trkpt lat="49.33439" lon="1.22363">
        <ele>63.2</ele>
        <time>2011-05-01T09:05:01Z</time>
      </trkpt>
      <trkpt lat="49.33441" lon="1.22363">
        <ele>63.6</ele>
        <time>2011-05-01T09:05:03Z</time>
      </trkpt>
      <trkpt lat="49.33442" lon="1.22364">
        <ele>63.8</ele>
        <time>2011-05-01T09:05:04Z</time>
      </trkpt>
      <trkpt lat="49.33449" lon="1.22363">
        <ele>64.4</ele>
        <time>2011-05-01T09:05:07Z</time>
      </trkpt>
      <trkpt lat="49.33454" lon="1.22363">
        <ele>64.6</ele>
        <time>2011-05-01T09:05:09Z</time>
      </trkpt>
      <trkpt lat="49.33465" lon="1.22367">
        <ele>65</ele>
        <time>2011-05-01T09:05:13Z</time>
      </trkpt>
      <trkpt lat="49.3347" lon="1.22365">
        <ele>65.4</ele>
        <time>2011-05-01T09:05:15Z</time>
      </trkpt>
      <trkpt lat="49.33472" lon="1.22364">
        <ele>65.6</ele>
        <time>2011-05-01T09:05:16Z</time>
      </trkpt>
      <trkpt lat="49.33474" lon="1.22364">
        <ele>65.8</ele>
        <time>2011-05-01T09:05:17Z</time>
      </trkpt>
      <trkpt lat="49.33474" lon="1.22364">
        <ele>66</ele>
        <time>2011-05-01T09:05:18Z</time>
      </trkpt>
      <trkpt lat="49.33483" lon="1.22362">
        <ele>66.4</ele>
        <time>2011-05-01T09:05:21Z</time>
      </trkpt>
      <trkpt lat="49.33489" lon="1.22361">
        <ele>66.6</ele>
        <time>2011-05-01T09:05:23Z</time>
      </trkpt>
      <trkpt lat="49.335" lon="1.22369">
        <ele>67.2</ele>
        <time>2011-05-01T09:05:28Z</time>
      </trkpt>
      <trkpt lat="49.33504" lon="1.22371">
        <ele>67.2</ele>
        <time>2011-05-01T09:05:29Z</time>
      </trkpt>
      <trkpt lat="49.33508" lon="1.22375">
        <ele>67.4</ele>
        <time>2011-05-01T09:05:31Z</time>
      </trkpt>
      <trkpt lat="49.33512" lon="1.22376">
        <ele>67.8</ele>
        <time>2011-05-01T09:05:32Z</time>
      </trkpt>
      <trkpt lat="49.33515" lon="1.22379">
        <ele>68</ele>
        <time>2011-05-01T09:05:33Z</time>
      </trkpt>
      <trkpt lat="49.33522" lon="1.22385">
        <ele>68.2</ele>
        <time>2011-05-01T09:05:35Z</time>
      </trkpt>
      <trkpt lat="49.3353" lon="1.22391">
        <ele>68.6</ele>
        <time>2011-05-01T09:05:37Z</time>
      </trkpt>
      <trkpt lat="49.33538" lon="1.22393">
        <ele>68.8</ele>
        <time>2011-05-01T09:05:39Z</time>
      </trkpt>
      <trkpt lat="49.33553" lon="1.22389">
        <ele>69.2</ele>
        <time>2011-05-01T09:05:43Z</time>
      </trkpt>
      <trkpt lat="49.33567" lon="1.22381">
        <ele>69.4</ele>
        <time>2011-05-01T09:05:48Z</time>
      </trkpt>
      <trkpt lat="49.33573" lon="1.22377">
        <ele>69.8</ele>
        <time>2011-05-01T09:05:52Z</time>
      </trkpt>
      <trkpt lat="49.33576" lon="1.22377">
        <ele>70.2</ele>
        <time>2011-05-01T09:05:54Z</time>
      </trkpt>
      <trkpt lat="49.3358" lon="1.22375">
        <ele>70.4</ele>
        <time>2011-05-01T09:05:56Z</time>
      </trkpt>
      <trkpt lat="49.33584" lon="1.22374">
        <ele>70.8</ele>
        <time>2011-05-01T09:05:58Z</time>
      </trkpt>
      <trkpt lat="49.33588" lon="1.22373">
        <ele>71</ele>
        <time>2011-05-01T09:06:00Z</time>
      </trkpt>
      <trkpt lat="49.3359" lon="1.22372">
        <ele>71.2</ele>
        <time>2011-05-01T09:06:01Z</time>
      </trkpt>
      <trkpt lat="49.33595" lon="1.22367">
        <ele>71.8</ele>
        <time>2011-05-01T09:06:03Z</time>
      </trkpt>
      <trkpt lat="49.33598" lon="1.22364">
        <ele>72</ele>
        <time>2011-05-01T09:06:04Z</time>
      </trkpt>
      <trkpt lat="49.3361" lon="1.22356">
        <ele>72.6</ele>
        <time>2011-05-01T09:06:07Z</time>
      </trkpt>
      <trkpt lat="49.33616" lon="1.22351">
        <ele>72.8</ele>
        <time>2011-05-01T09:06:09Z</time>
      </trkpt>
      <trkpt lat="49.33618" lon="1.22349">
        <ele>73</ele>
        <time>2011-05-01T09:06:10Z</time>
      </trkpt>
      <trkpt lat="49.33618" lon="1.22347">
        <ele>73.2</ele>
        <time>2011-05-01T09:06:11Z</time>
      </trkpt>
      <trkpt lat="49.33618" lon="1.22342">
        <ele>73.8</ele>
        <time>2011-05-01T09:06:13Z</time>
      </trkpt>
      <trkpt lat="49.33618" lon="1.2234">
        <ele>74</ele>
        <time>2011-05-01T09:06:14Z</time>
      </trkpt>
      <trkpt lat="49.33617" lon="1.22337">
        <ele>74.2</ele>
        <time>2011-05-01T09:06:15Z</time>
      </trkpt>
      <trkpt lat="49.33616" lon="1.22332">
        <ele>74.6</ele>
        <time>2011-05-01T09:06:17Z</time>
      </trkpt>
      <trkpt lat="49.33616" lon="1.22326">
        <ele>74.8</ele>
        <time>2011-05-01T09:06:19Z</time>
      </trkpt>
      <trkpt lat="49.33616" lon="1.22323">
        <ele>75</ele>
        <time>2011-05-01T09:06:20Z</time>
      </trkpt>
      <trkpt lat="49.33625" lon="1.22306">
        <ele>75.6</ele>
        <time>2011-05-01T09:06:24Z</time>
      </trkpt>
      <trkpt lat="49.3363" lon="1.22297">
        <ele>76.2</ele>
        <time>2011-05-01T09:06:26Z</time>
      </trkpt>
      <trkpt lat="49.33632" lon="1.22293">
        <ele>76.4</ele>
        <time>2011-05-01T09:06:27Z</time>
      </trkpt>
      <trkpt lat="49.33634" lon="1.22286">
        <ele>76.8</ele>
        <time>2011-05-01T09:06:30Z</time>
      </trkpt>
      <trkpt lat="49.33633" lon="1.2228">
        <ele>77.2</ele>
        <time>2011-05-01T09:06:32Z</time>
      </trkpt>
      <trkpt lat="49.33633" lon="1.22272">
        <ele>77.6</ele>
        <time>2011-05-01T09:06:35Z</time>
      </trkpt>
      <trkpt lat="49.33634" lon="1.22268">
        <ele>78.2</ele>
        <time>2011-05-01T09:06:37Z</time>
      </trkpt>
      <trkpt lat="49.33636" lon="1.22263">
        <ele>78.6</ele>
        <time>2011-05-01T09:06:39Z</time>
      </trkpt>
      <trkpt lat="49.33639" lon="1.22258">
        <ele>79</ele>
        <time>2011-05-01T09:06:41Z</time>
      </trkpt>
      <trkpt lat="49.33643" lon="1.22255">
        <ele>79.2</ele>
        <time>2011-05-01T09:06:43Z</time>
      </trkpt>
      <trkpt lat="49.33653" lon="1.22243">
        <ele>79.8</ele>
        <time>2011-05-01T09:06:48Z</time>
      </trkpt>
      <trkpt lat="49.33653" lon="1.2224">
        <ele>80.4</ele>
        <time>2011-05-01T09:06:50Z</time>
      </trkpt>
      <trkpt lat="49.33654" lon="1.22237">
        <ele>80.6</ele>
        <time>2011-05-01T09:06:51Z</time>
      </trkpt>
      <trkpt lat="49.33658" lon="1.22231">
        <ele>81</ele>
        <time>2011-05-01T09:06:54Z</time>
      </trkpt>
      <trkpt lat="49.33662" lon="1.22226">
        <ele>81.4</ele>
        <time>2011-05-01T09:06:56Z</time>
      </trkpt>
      <trkpt lat="49.33671" lon="1.22208">
        <ele>81.8</ele>
        <time>2011-05-01T09:07:01Z</time>
      </trkpt>
      <trkpt lat="49.33673" lon="1.22205">
        <ele>82</ele>
        <time>2011-05-01T09:07:02Z</time>
      </trkpt>
      <trkpt lat="49.33675" lon="1.22202">
        <ele>82.6</ele>
        <time>2011-05-01T09:07:04Z</time>
      </trkpt>
      <trkpt lat="49.33677" lon="1.22199">
        <ele>82.8</ele>
        <time>2011-05-01T09:07:05Z</time>
      </trkpt>
      <trkpt lat="49.33679" lon="1.22196">
        <ele>82.8</ele>
        <time>2011-05-01T09:07:06Z</time>
      </trkpt>
      <trkpt lat="49.33682" lon="1.2219">
        <ele>83.2</ele>
        <time>2011-05-01T09:07:08Z</time>
      </trkpt>
      <trkpt lat="49.33683" lon="1.22186">
        <ele>83.4</ele>
        <time>2011-05-01T09:07:09Z</time>
      </trkpt>
      <trkpt lat="49.33684" lon="1.22184">
        <ele>83.4</ele>
        <time>2011-05-01T09:07:10Z</time>
      </trkpt>
      <trkpt lat="49.33684" lon="1.22182">
        <ele>83.6</ele>
        <time>2011-05-01T09:07:11Z</time>
      </trkpt>
      <trkpt lat="49.33687" lon="1.22176">
        <ele>84.4</ele>
        <time>2011-05-01T09:07:14Z</time>
      </trkpt>
      <trkpt lat="49.33689" lon="1.22172">
        <ele>84.8</ele>
        <time>2011-05-01T09:07:16Z</time>
      </trkpt>
      <trkpt lat="49.33694" lon="1.22164">
        <ele>85.2</ele>
        <time>2011-05-01T09:07:18Z</time>
      </trkpt>
      <trkpt lat="49.33696" lon="1.2216">
        <ele>85.2</ele>
        <time>2011-05-01T09:07:19Z</time>
      </trkpt>
      <trkpt lat="49.33699" lon="1.22156">
        <ele>85.4</ele>
        <time>2011-05-01T09:07:20Z</time>
      </trkpt>
      <trkpt lat="49.33705" lon="1.22149">
        <ele>85.8</ele>
        <time>2011-05-01T09:07:22Z</time>
      </trkpt>
      <trkpt lat="49.33709" lon="1.22143">
        <ele>86.4</ele>
        <time>2011-05-01T09:07:24Z</time>
      </trkpt>
      <trkpt lat="49.33713" lon="1.22138">
        <ele>86.8</ele>
        <time>2011-05-01T09:07:26Z</time>
      </trkpt>
      <trkpt lat="49.33716" lon="1.22132">
        <ele>87.2</ele>
        <time>2011-05-01T09:07:28Z</time>
      </trkpt>
      <trkpt lat="49.33717" lon="1.22129">
        <ele>87.6</ele>
        <time>2011-05-01T09:07:29Z</time>
      </trkpt>
      <trkpt lat="49.33718" lon="1.22124">
        <ele>88.2</ele>
        <time>2011-05-01T09:07:31Z</time>
      </trkpt>
      <trkpt lat="49.3372" lon="1.22119">
        <ele>88.8</ele>
        <time>2011-05-01T09:07:33Z</time>
      </trkpt>
      <trkpt lat="49.33724" lon="1.22114">
        <ele>89.2</ele>
        <time>2011-05-01T09:07:35Z</time>
      </trkpt>
      <trkpt lat="49.33726" lon="1.22111">
        <ele>89.6</ele>
        <time>2011-05-01T09:07:36Z</time>
      </trkpt>
      <trkpt lat="49.33732" lon="1.22104">
        <ele>90.2</ele>
        <time>2011-05-01T09:07:38Z</time>
      </trkpt>
      <trkpt lat="49.33736" lon="1.221">
        <ele>90.6</ele>
        <time>2011-05-01T09:07:40Z</time>
      </trkpt>
      <trkpt lat="49.33738" lon="1.22097">
        <ele>91.2</ele>
        <time>2011-05-01T09:07:42Z</time>
      </trkpt>
      <trkpt lat="49.3374" lon="1.22095">
        <ele>91.6</ele>
        <time>2011-05-01T09:07:44Z</time>
      </trkpt>
      <trkpt lat="49.33743" lon="1.22093">
        <ele>92.4</ele>
        <time>2011-05-01T09:07:46Z</time>
      </trkpt>
      <trkpt lat="49.33747" lon="1.22091">
        <ele>92.8</ele>
        <time>2011-05-01T09:07:48Z</time>
      </trkpt>
      <trkpt lat="49.33751" lon="1.22089">
        <ele>93.4</ele>
        <time>2011-05-01T09:07:50Z</time>
      </trkpt>
      <trkpt lat="49.33755" lon="1.22085">
        <ele>93.6</ele>
        <time>2011-05-01T09:07:52Z</time>
      </trkpt>
      <trkpt lat="49.33757" lon="1.22082">
        <ele>93.8</ele>
        <time>2011-05-01T09:07:53Z</time>
      </trkpt>
      <trkpt lat="49.33762" lon="1.22077">
        <ele>94.4</ele>
        <time>2011-05-01T09:07:56Z</time>
      </trkpt>
      <trkpt lat="49.33763" lon="1.22076">
        <ele>94.6</ele>
        <time>2011-05-01T09:07:57Z</time>
      </trkpt>
      <trkpt lat="49.33766" lon="1.22071">
        <ele>95.4</ele>
        <time>2011-05-01T09:08:00Z</time>
      </trkpt>
      <trkpt lat="49.33769" lon="1.22068">
        <ele>95.8</ele>
        <time>2011-05-01T09:08:02Z</time>
      </trkpt>
      <trkpt lat="49.33773" lon="1.22065">
        <ele>96.2</ele>
        <time>2011-05-01T09:08:04Z</time>
      </trkpt>
      <trkpt lat="49.33777" lon="1.22062">
        <ele>96.8</ele>
        <time>2011-05-01T09:08:06Z</time>
      </trkpt>
      <trkpt lat="49.33779" lon="1.2206">
        <ele>97.2</ele>
        <time>2011-05-01T09:08:07Z</time>
      </trkpt>
      <trkpt lat="49.33783" lon="1.22054">
        <ele>97.8</ele>
        <time>2011-05-01T09:08:10Z</time>
      </trkpt>
      <trkpt lat="49.33786" lon="1.22051">
        <ele>98</ele>
        <time>2011-05-01T09:08:12Z</time>
      </trkpt>
      <trkpt lat="49.33786" lon="1.22048">
        <ele>98.4</ele>
        <time>2011-05-01T09:08:13Z</time>
      </trkpt>
      <trkpt lat="49.33788" lon="1.22043">
        <ele>99</ele>
        <time>2011-05-01T09:08:15Z</time>
      </trkpt>
      <trkpt lat="49.33789" lon="1.2204">
        <ele>99.4</ele>
        <time>2011-05-01T09:08:16Z</time>
      </trkpt>
      <trkpt lat="49.3379" lon="1.22038">
        <ele>99.6</ele>
        <time>2011-05-01T09:08:17Z</time>
      </trkpt>
      <trkpt lat="49.33793" lon="1.22035">
        <ele>100</ele>
        <time>2011-05-01T09:08:19Z</time>
      </trkpt>
      <trkpt lat="49.33794" lon="1.22033">
        <ele>100.2</ele>
        <time>2011-05-01T09:08:20Z</time>
      </trkpt>
      <trkpt lat="49.33797" lon="1.22029">
        <ele>100.8</ele>
        <time>2011-05-01T09:08:23Z</time>
      </trkpt>
      <trkpt lat="49.338" lon="1.22026">
        <ele>101.4</ele>
        <time>2011-05-01T09:08:25Z</time>
      </trkpt>
      <trkpt lat="49.33803" lon="1.22024">
        <ele>101.8</ele>
        <time>2011-05-01T09:08:27Z</time>
      </trkpt>
      <trkpt lat="49.33806" lon="1.2202">
        <ele>102.2</ele>
        <time>2011-05-01T09:08:29Z</time>
      </trkpt>
      <trkpt lat="49.33807" lon="1.22017">
        <ele>102.6</ele>
        <time>2011-05-01T09:08:31Z</time>
      </trkpt>
      <trkpt lat="49.33808" lon="1.22014">
        <ele>102.6</ele>
        <time>2011-05-01T09:08:32Z</time>
      </trkpt>
      <trkpt lat="49.33812" lon="1.22007">
        <ele>103.6</ele>
        <time>2011-05-01T09:08:35Z</time>
      </trkpt>
      <trkpt lat="49.33815" lon="1.22002">
        <ele>104.2</ele>
        <time>2011-05-01T09:08:37Z</time>
      </trkpt>
      <trkpt lat="49.33817" lon="1.21998">
        <ele>104.6</ele>
        <time>2011-05-01T09:08:39Z</time>
      </trkpt>
      <trkpt lat="49.33819" lon="1.21994">
        <ele>104.8</ele>
        <time>2011-05-01T09:08:41Z</time>
      </trkpt>
      <trkpt lat="49.33823" lon="1.21991">
        <ele>105.2</ele>
        <time>2011-05-01T09:08:44Z</time>
      </trkpt>
      <trkpt lat="49.33825" lon="1.21986">
        <ele>105.6</ele>
        <time>2011-05-01T09:08:46Z</time>
      </trkpt>
      <trkpt lat="49.33827" lon="1.21982">
        <ele>106.2</ele>
        <time>2011-05-01T09:08:48Z</time>
      </trkpt>
      <trkpt lat="49.33831" lon="1.21977">
        <ele>106.6</ele>
        <time>2011-05-01T09:08:50Z</time>
      </trkpt>
      <trkpt lat="49.33834" lon="1.21972">
        <ele>106.8</ele>
        <time>2011-05-01T09:08:52Z</time>
      </trkpt>
      <trkpt lat="49.33836" lon="1.2197">
        <ele>107</ele>
        <time>2011-05-01T09:08:53Z</time>
      </trkpt>
      <trkpt lat="49.33838" lon="1.21968">
        <ele>107.2</ele>
        <time>2011-05-01T09:08:54Z</time>
      </trkpt>
      <trkpt lat="49.33839" lon="1.21966">
        <ele>107.4</ele>
        <time>2011-05-01T09:08:55Z</time>
      </trkpt>
      <trkpt lat="49.33842" lon="1.21962">
        <ele>108</ele>
        <time>2011-05-01T09:08:57Z</time>
      </trkpt>
      <trkpt lat="49.33845" lon="1.21959">
        <ele>108.6</ele>
        <time>2011-05-01T09:08:59Z</time>
      </trkpt>
      <trkpt lat="49.33846" lon="1.21956">
        <ele>108.8</ele>
        <time>2011-05-01T09:09:00Z</time>
      </trkpt>
      <trkpt lat="49.33847" lon="1.21955">
        <ele>109</ele>
        <time>2011-05-01T09:09:01Z</time>
      </trkpt>
      <trkpt lat="49.33849" lon="1.21952">
        <ele>109.2</ele>
        <time>2011-05-01T09:09:03Z</time>
      </trkpt>
      <trkpt lat="49.3385" lon="1.21951">
        <ele>109.4</ele>
        <time>2011-05-01T09:09:04Z</time>
      </trkpt>
      <trkpt lat="49.33853" lon="1.21947">
        <ele>109.8</ele>
        <time>2011-05-01T09:09:07Z</time>
      </trkpt>
      <trkpt lat="49.33857" lon="1.21942">
        <ele>110.6</ele>
        <time>2011-05-01T09:09:10Z</time>
      </trkpt>
      <trkpt lat="49.3386" lon="1.21938">
        <ele>111</ele>
        <time>2011-05-01T09:09:12Z</time>
      </trkpt>
      <trkpt lat="49.3386" lon="1.21935">
        <ele>111.4</ele>
        <time>2011-05-01T09:09:14Z</time>
      </trkpt>
      <trkpt lat="49.33861" lon="1.21931">
        <ele>111.6</ele>
        <time>2011-05-01T09:09:16Z</time>
      </trkpt>
      <trkpt lat="49.33865" lon="1.21922">
        <ele>112.4</ele>
        <time>2011-05-01T09:09:21Z</time>
      </trkpt>
      <trkpt lat="49.33868" lon="1.21917">
        <ele>112.8</ele>
        <time>2011-05-01T09:09:23Z</time>
      </trkpt>
      <trkpt lat="49.3387" lon="1.21911">
        <ele>113.2</ele>
        <time>2011-05-01T09:09:25Z</time>
      </trkpt>
      <trkpt lat="49.3387" lon="1.21909">
        <ele>113.4</ele>
        <time>2011-05-01T09:09:26Z</time>
      </trkpt>
      <trkpt lat="49.33871" lon="1.21906">
        <ele>113.6</ele>
        <time>2011-05-01T09:09:27Z</time>
      </trkpt>
      <trkpt lat="49.33872" lon="1.21898">
        <ele>113.8</ele>
        <time>2011-05-01T09:09:29Z</time>
      </trkpt>
      <trkpt lat="49.33873" lon="1.2189">
        <ele>114</ele>
        <time>2011-05-01T09:09:31Z</time>
      </trkpt>
      <trkpt lat="49.33877" lon="1.21881">
        <ele>114.6</ele>
        <time>2011-05-01T09:09:34Z</time>
      </trkpt>
      <trkpt lat="49.33881" lon="1.21877">
        <ele>115</ele>
        <time>2011-05-01T09:09:36Z</time>
      </trkpt>
      <trkpt lat="49.33886" lon="1.21871">
        <ele>115.4</ele>
        <time>2011-05-01T09:09:38Z</time>
      </trkpt>
      <trkpt lat="49.33893" lon="1.21866">
        <ele>115.8</ele>
        <time>2011-05-01T09:09:40Z</time>
      </trkpt>
      <trkpt lat="49.33897" lon="1.21862">
        <ele>116</ele>
        <time>2011-05-01T09:09:42Z</time>
      </trkpt>
      <trkpt lat="49.339" lon="1.21857">
        <ele>116.6</ele>
        <time>2011-05-01T09:09:45Z</time>
      </trkpt>
      <trkpt lat="49.33902" lon="1.21854">
        <ele>117</ele>
        <time>2011-05-01T09:09:47Z</time>
      </trkpt>
      <trkpt lat="49.33904" lon="1.21851">
        <ele>117.6</ele>
        <time>2011-05-01T09:09:49Z</time>
      </trkpt>
      <trkpt lat="49.33906" lon="1.21849">
        <ele>117.6</ele>
        <time>2011-05-01T09:09:50Z</time>
      </trkpt>
      <trkpt lat="49.33907" lon="1.21848">
        <ele>117.8</ele>
        <time>2011-05-01T09:09:51Z</time>
      </trkpt>
      <trkpt lat="49.3391" lon="1.21844">
        <ele>118.2</ele>
        <time>2011-05-01T09:09:53Z</time>
      </trkpt>
      <trkpt lat="49.33917" lon="1.21838">
        <ele>118.8</ele>
        <time>2011-05-01T09:09:57Z</time>
      </trkpt>
      <trkpt lat="49.3392" lon="1.21836">
        <ele>119.2</ele>
        <time>2011-05-01T09:09:59Z</time>
      </trkpt>
      <trkpt lat="49.33922" lon="1.21833">
        <ele>119.6</ele>
        <time>2011-05-01T09:10:01Z</time>
      </trkpt>
      <trkpt lat="49.33925" lon="1.2183">
        <ele>120</ele>
        <time>2011-05-01T09:10:03Z</time>
      </trkpt>
      <trkpt lat="49.33928" lon="1.21826">
        <ele>120.2</ele>
        <time>2011-05-01T09:10:05Z</time>
      </trkpt>
      <trkpt lat="49.33932" lon="1.21821">
        <ele>120.8</ele>
        <time>2011-05-01T09:10:08Z</time>
      </trkpt>
      <trkpt lat="49.33936" lon="1.21818">
        <ele>121.4</ele>
        <time>2011-05-01T09:10:10Z</time>
      </trkpt>
      <trkpt lat="49.33942" lon="1.21815">
        <ele>121.8</ele>
        <time>2011-05-01T09:10:12Z</time>
      </trkpt>
      <trkpt lat="49.33947" lon="1.21813">
        <ele>122</ele>
        <time>2011-05-01T09:10:14Z</time>
      </trkpt>
      <trkpt lat="49.3395" lon="1.21811">
        <ele>122.4</ele>
        <time>2011-05-01T09:10:16Z</time>
      </trkpt>
      <trkpt lat="49.33953" lon="1.21811">
        <ele>122.4</ele>
        <time>2011-05-01T09:10:17Z</time>
      </trkpt>
      <trkpt lat="49.33954" lon="1.2181">
        <ele>122.8</ele>
        <time>2011-05-01T09:10:18Z</time>
      </trkpt>
      <trkpt lat="49.33955" lon="1.21809">
        <ele>123</ele>
        <time>2011-05-01T09:10:19Z</time>
      </trkpt>
      <trkpt lat="49.33957" lon="1.21808">
        <ele>123.4</ele>
        <time>2011-05-01T09:10:20Z</time>
      </trkpt>
      <trkpt lat="49.3396" lon="1.21808">
        <ele>123.8</ele>
        <time>2011-05-01T09:10:22Z</time>
      </trkpt>
      <trkpt lat="49.33962" lon="1.21808">
        <ele>124</ele>
        <time>2011-05-01T09:10:23Z</time>
      </trkpt>
      <trkpt lat="49.33963" lon="1.21807">
        <ele>124</ele>
        <time>2011-05-01T09:10:24Z</time>
      </trkpt>
      <trkpt lat="49.33967" lon="1.21803">
        <ele>124.4</ele>
        <time>2011-05-01T09:10:26Z</time>
      </trkpt>
      <trkpt lat="49.33981" lon="1.21796">
        <ele>125</ele>
        <time>2011-05-01T09:10:32Z</time>
      </trkpt>
      <trkpt lat="49.33985" lon="1.21792">
        <ele>125</ele>
        <time>2011-05-01T09:10:34Z</time>
      </trkpt>
      <trkpt lat="49.33993" lon="1.21786">
        <ele>125.8</ele>
        <time>2011-05-01T09:10:37Z</time>
      </trkpt>
      <trkpt lat="49.34001" lon="1.21781">
        <ele>126</ele>
        <time>2011-05-01T09:10:39Z</time>
      </trkpt>
      <trkpt lat="49.34008" lon="1.21777">
        <ele>126.4</ele>
        <time>2011-05-01T09:10:41Z</time>
      </trkpt>
      <trkpt lat="49.34014" lon="1.21773">
        <ele>126.6</ele>
        <time>2011-05-01T09:10:43Z</time>
      </trkpt>
      <trkpt lat="49.34025" lon="1.21766">
        <ele>127</ele>
        <time>2011-05-01T09:10:48Z</time>
      </trkpt>
      <trkpt lat="49.34033" lon="1.21756">
        <ele>127.2</ele>
        <time>2011-05-01T09:10:52Z</time>
      </trkpt>
      <trkpt lat="49.34047" lon="1.21743">
        <ele>127.6</ele>
        <time>2011-05-01T09:10:58Z</time>
      </trkpt>
      <trkpt lat="49.3405" lon="1.21736">
        <ele>128</ele>
        <time>2011-05-01T09:11:00Z</time>
      </trkpt>
      <trkpt lat="49.34054" lon="1.21731">
        <ele>128.2</ele>
        <time>2011-05-01T09:11:02Z</time>
      </trkpt>
      <trkpt lat="49.34057" lon="1.21726">
        <ele>128.6</ele>
        <time>2011-05-01T09:11:04Z</time>
      </trkpt>
      <trkpt lat="49.34062" lon="1.21721">
        <ele>128.8</ele>
        <time>2011-05-01T09:11:06Z</time>
      </trkpt>
      <trkpt lat="49.34074" lon="1.21707">
        <ele>129.2</ele>
        <time>2011-05-01T09:11:11Z</time>
      </trkpt>
      <trkpt lat="49.34089" lon="1.21695">
        <ele>129.6</ele>
        <time>2011-05-01T09:11:16Z</time>
      </trkpt>
      <trkpt lat="49.34095" lon="1.21691">
        <ele>130</ele>
        <time>2011-05-01T09:11:18Z</time>
      </trkpt>
      <trkpt lat="49.34102" lon="1.21685">
        <ele>130.2</ele>
        <time>2011-05-01T09:11:20Z</time>
      </trkpt>
      <trkpt lat="49.34109" lon="1.21681">
        <ele>130.6</ele>
        <time>2011-05-01T09:11:22Z</time>
      </trkpt>
      <trkpt lat="49.34117" lon="1.21676">
        <ele>130.8</ele>
        <time>2011-05-01T09:11:24Z</time>
      </trkpt>
      <trkpt lat="49.34129" lon="1.21668">
        <ele>131</ele>
        <time>2011-05-01T09:11:28Z</time>
      </trkpt>
      <trkpt lat="49.34145" lon="1.21661">
        <ele>131.2</ele>
        <time>2011-05-01T09:11:33Z</time>
      </trkpt>
      <trkpt lat="49.34166" lon="1.21662">
        <ele>131.4</ele>
        <time>2011-05-01T09:11:38Z</time>
      </trkpt>
      <trkpt lat="49.34189" lon="1.21662">
        <ele>131.6</ele>
        <time>2011-05-01T09:11:44Z</time>
      </trkpt>
      <trkpt lat="49.34204" lon="1.21656">
        <ele>131.6</ele>
        <time>2011-05-01T09:11:48Z</time>
      </trkpt>
      <trkpt lat="49.34215" lon="1.2165">
        <ele>131.8</ele>
        <time>2011-05-01T09:11:51Z</time>
      </trkpt>
      <trkpt lat="49.34222" lon="1.21647">
        <ele>132.2</ele>
        <time>2011-05-01T09:11:53Z</time>
      </trkpt>
      <trkpt lat="49.34228" lon="1.21644">
        <ele>132.4</ele>
        <time>2011-05-01T09:11:55Z</time>
      </trkpt>
      <trkpt lat="49.34234" lon="1.21641">
        <ele>132.8</ele>
        <time>2011-05-01T09:11:57Z</time>
      </trkpt>
      <trkpt lat="49.3424" lon="1.21639">
        <ele>132.8</ele>
        <time>2011-05-01T09:11:59Z</time>
      </trkpt>
      <trkpt lat="49.34252" lon="1.21636">
        <ele>133.2</ele>
        <time>2011-05-01T09:12:02Z</time>
      </trkpt>
      <trkpt lat="49.34274" lon="1.21628">
        <ele>133.4</ele>
        <time>2011-05-01T09:12:07Z</time>
      </trkpt>
      <trkpt lat="49.34295" lon="1.21627">
        <ele>133.6</ele>
        <time>2011-05-01T09:12:12Z</time>
      </trkpt>
      <trkpt lat="49.34318" lon="1.21619">
        <ele>133.6</ele>
        <time>2011-05-01T09:12:18Z</time>
      </trkpt>
      <trkpt lat="49.34338" lon="1.21613">
        <ele>133.6</ele>
        <time>2011-05-01T09:12:23Z</time>
      </trkpt>
      <trkpt lat="49.34352" lon="1.21604">
        <ele>133.6</ele>
        <time>2011-05-01T09:12:27Z</time>
      </trkpt>
      <trkpt lat="49.34358" lon="1.216">
        <ele>133.6</ele>
        <time>2011-05-01T09:12:29Z</time>
      </trkpt>
      <trkpt lat="49.34375" lon="1.21582">
        <ele>133.8</ele>
        <time>2011-05-01T09:12:33Z</time>
      </trkpt>
      <trkpt lat="49.34388" lon="1.21567">
        <ele>133.8</ele>
        <time>2011-05-01T09:12:37Z</time>
      </trkpt>
      <trkpt lat="49.3439" lon="1.21565">
        <ele>133.8</ele>
        <time>2011-05-01T09:12:38Z</time>
      </trkpt>
      <trkpt lat="49.34392" lon="1.21561">
        <ele>133.8</ele>
        <time>2011-05-01T09:12:41Z</time>
      </trkpt>
      <trkpt lat="49.34391" lon="1.21563">
        <ele>133.8</ele>
        <time>2011-05-01T09:12:43Z</time>
      </trkpt>
      <trkpt lat="49.3439" lon="1.21566">
        <ele>133.8</ele>
        <time>2011-05-01T09:12:48Z</time>
      </trkpt>
      <trkpt lat="49.3439" lon="1.21566">
        <ele>133.8</ele>
        <time>2011-05-01T09:12:49Z</time>
      </trkpt>
      <trkpt lat="49.34395" lon="1.21542">
        <ele>133.8</ele>
        <time>2011-05-01T09:12:56Z</time>
      </trkpt>
      <trkpt lat="49.34403" lon="1.21523">
        <ele>133.8</ele>
        <time>2011-05-01T09:13:00Z</time>
      </trkpt>
      <trkpt lat="49.34413" lon="1.21501">
        <ele>133.8</ele>
        <time>2011-05-01T09:13:05Z</time>
      </trkpt>
      <trkpt lat="49.34424" lon="1.21481">
        <ele>133.8</ele>
        <time>2011-05-01T09:13:09Z</time>
      </trkpt>
      <trkpt lat="49.34436" lon="1.21466">
        <ele>133.8</ele>
        <time>2011-05-01T09:13:12Z</time>
      </trkpt>
      <trkpt lat="49.34453" lon="1.2146">
        <ele>133.8</ele>
        <time>2011-05-01T09:13:16Z</time>
      </trkpt>
      <trkpt lat="49.3446" lon="1.21464">
        <ele>133.8</ele>
        <time>2011-05-01T09:13:18Z</time>
      </trkpt>
      <trkpt lat="49.34468" lon="1.21471">
        <ele>133.8</ele>
        <time>2011-05-01T09:13:20Z</time>
      </trkpt>
      <trkpt lat="49.34472" lon="1.21476">
        <ele>133.8</ele>
        <time>2011-05-01T09:13:21Z</time>
      </trkpt>
      <trkpt lat="49.34493" lon="1.21486">
        <ele>133.8</ele>
        <time>2011-05-01T09:13:25Z</time>
      </trkpt>
      <trkpt lat="49.34505" lon="1.21477">
        <ele>133.8</ele>
        <time>2011-05-01T09:13:28Z</time>
      </trkpt>
      <trkpt lat="49.34509" lon="1.21473">
        <ele>133.6</ele>
        <time>2011-05-01T09:13:30Z</time>
      </trkpt>
      <trkpt lat="49.34511" lon="1.21473">
        <ele>133.4</ele>
        <time>2011-05-01T09:13:31Z</time>
      </trkpt>
      <trkpt lat="49.34519" lon="1.21463">
        <ele>132.8</ele>
        <time>2011-05-01T09:13:34Z</time>
      </trkpt>
      <trkpt lat="49.34522" lon="1.21459">
        <ele>132.6</ele>
        <time>2011-05-01T09:13:35Z</time>
      </trkpt>
      <trkpt lat="49.34537" lon="1.21444">
        <ele>132.4</ele>
        <time>2011-05-01T09:13:38Z</time>
      </trkpt>
      <trkpt lat="49.34556" lon="1.21423">
        <ele>132</ele>
        <time>2011-05-01T09:13:42Z</time>
      </trkpt>
      <trkpt lat="49.34559" lon="1.21417">
        <ele>132</ele>
        <time>2011-05-01T09:13:43Z</time>
      </trkpt>
      <trkpt lat="49.34571" lon="1.21401">
        <ele>131.4</ele>
        <time>2011-05-01T09:13:46Z</time>
      </trkpt>
      <trkpt lat="49.34575" lon="1.21396">
        <ele>131.2</ele>
        <time>2011-05-01T09:13:47Z</time>
      </trkpt>
      <trkpt lat="49.34579" lon="1.21393">
        <ele>131</ele>
        <time>2011-05-01T09:13:48Z</time>
      </trkpt>
      <trkpt lat="49.34582" lon="1.21389">
        <ele>130.8</ele>
        <time>2011-05-01T09:13:49Z</time>
      </trkpt>
      <trkpt lat="49.34592" lon="1.21376">
        <ele>130.4</ele>
        <time>2011-05-01T09:13:52Z</time>
      </trkpt>
      <trkpt lat="49.34608" lon="1.21366">
        <ele>130</ele>
        <time>2011-05-01T09:13:56Z</time>
      </trkpt>
      <trkpt lat="49.3463" lon="1.21351">
        <ele>129.8</ele>
        <time>2011-05-01T09:13:59Z</time>
      </trkpt>
      <trkpt lat="49.34646" lon="1.21341">
        <ele>129.6</ele>
        <time>2011-05-01T09:14:02Z</time>
      </trkpt>
      <trkpt lat="49.34646" lon="1.21339">
        <ele>129.2</ele>
        <time>2011-05-01T09:14:03Z</time>
      </trkpt>
      <trkpt lat="49.34659" lon="1.21342">
        <ele>128.6</ele>
        <time>2011-05-01T09:14:06Z</time>
      </trkpt>
      <trkpt lat="49.34668" lon="1.21344">
        <ele>128.4</ele>
        <time>2011-05-01T09:14:08Z</time>
      </trkpt>
      <trkpt lat="49.34671" lon="1.21343">
        <ele>128.2</ele>
        <time>2011-05-01T09:14:09Z</time>
      </trkpt>
      <trkpt lat="49.34674" lon="1.21341">
        <ele>128.2</ele>
        <time>2011-05-01T09:14:10Z</time>
      </trkpt>
      <trkpt lat="49.34683" lon="1.21342">
        <ele>127.8</ele>
        <time>2011-05-01T09:14:14Z</time>
      </trkpt>
      <trkpt lat="49.34687" lon="1.21345">
        <ele>127.6</ele>
        <time>2011-05-01T09:14:15Z</time>
      </trkpt>
      <trkpt lat="49.34692" lon="1.21351">
        <ele>127</ele>
        <time>2011-05-01T09:14:17Z</time>
      </trkpt>
      <trkpt lat="49.34698" lon="1.21357">
        <ele>126.6</ele>
        <time>2011-05-01T09:14:19Z</time>
      </trkpt>
      <trkpt lat="49.34702" lon="1.2136">
        <ele>126.4</ele>
        <time>2011-05-01T09:14:21Z</time>
      </trkpt>
      <trkpt lat="49.34709" lon="1.21367">
        <ele>126.2</ele>
        <time>2011-05-01T09:14:23Z</time>
      </trkpt>
      <trkpt lat="49.34724" lon="1.2138">
        <ele>126</ele>
        <time>2011-05-01T09:14:27Z</time>
      </trkpt>
      <trkpt lat="49.34731" lon="1.21388">
        <ele>126.2</ele>
        <time>2011-05-01T09:14:29Z</time>
      </trkpt>
      <trkpt lat="49.34734" lon="1.2139">
        <ele>126.4</ele>
        <time>2011-05-01T09:14:30Z</time>
      </trkpt>
      <trkpt lat="49.34736" lon="1.21392">
        <ele>126.4</ele>
        <time>2011-05-01T09:14:31Z</time>
      </trkpt>
      <trkpt lat="49.34742" lon="1.21393">
        <ele>126.6</ele>
        <time>2011-05-01T09:14:33Z</time>
      </trkpt>
      <trkpt lat="49.34749" lon="1.21396">
        <ele>126.8</ele>
        <time>2011-05-01T09:14:35Z</time>
      </trkpt>
      <trkpt lat="49.34751" lon="1.21392">
        <ele>127</ele>
        <time>2011-05-01T09:14:36Z</time>
      </trkpt>
      <trkpt lat="49.34755" lon="1.21385">
        <ele>127.4</ele>
        <time>2011-05-01T09:14:38Z</time>
      </trkpt>
      <trkpt lat="49.34759" lon="1.21379">
        <ele>127.8</ele>
        <time>2011-05-01T09:14:40Z</time>
      </trkpt>
      <trkpt lat="49.34763" lon="1.21375">
        <ele>128.2</ele>
        <time>2011-05-01T09:14:42Z</time>
      </trkpt>
      <trkpt lat="49.34769" lon="1.21371">
        <ele>128.4</ele>
        <time>2011-05-01T09:14:44Z</time>
      </trkpt>
      <trkpt lat="49.34779" lon="1.21359">
        <ele>128.8</ele>
        <time>2011-05-01T09:14:48Z</time>
      </trkpt>
      <trkpt lat="49.34782" lon="1.2136">
        <ele>129.4</ele>
        <time>2011-05-01T09:14:50Z</time>
      </trkpt>
      <trkpt lat="49.34785" lon="1.2136">
        <ele>129.8</ele>
        <time>2011-05-01T09:14:52Z</time>
      </trkpt>
      <trkpt lat="49.34793" lon="1.2136">
        <ele>130</ele>
        <time>2011-05-01T09:14:54Z</time>
      </trkpt>
      <trkpt lat="49.34799" lon="1.21358">
        <ele>130.4</ele>
        <time>2011-05-01T09:14:56Z</time>
      </trkpt>
      <trkpt lat="49.3481" lon="1.21357">
        <ele>130.8</ele>
        <time>2011-05-01T09:15:00Z</time>
      </trkpt>
      <trkpt lat="49.34819" lon="1.21355">
        <ele>131</ele>
        <time>2011-05-01T09:15:02Z</time>
      </trkpt>
      <trkpt lat="49.34826" lon="1.21351">
        <ele>131.6</ele>
        <time>2011-05-01T09:15:04Z</time>
      </trkpt>
      <trkpt lat="49.34833" lon="1.2135">
        <ele>132</ele>
        <time>2011-05-01T09:15:06Z</time>
      </trkpt>
      <trkpt lat="49.34834" lon="1.2135">
        <ele>132</ele>
        <time>2011-05-01T09:15:07Z</time>
      </trkpt>
      <trkpt lat="49.34836" lon="1.2135">
        <ele>132.2</ele>
        <time>2011-05-01T09:15:08Z</time>
      </trkpt>
      <trkpt lat="49.34839" lon="1.21349">
        <ele>132.4</ele>
        <time>2011-05-01T09:15:09Z</time>
      </trkpt>
      <trkpt lat="49.34861" lon="1.21349">
        <ele>133</ele>
        <time>2011-05-01T09:15:15Z</time>
      </trkpt>
      <trkpt lat="49.34866" lon="1.21348">
        <ele>133.2</ele>
        <time>2011-05-01T09:15:17Z</time>
      </trkpt>
      <trkpt lat="49.34869" lon="1.21347">
        <ele>133.8</ele>
        <time>2011-05-01T09:15:19Z</time>
      </trkpt>
      <trkpt lat="49.34872" lon="1.21347">
        <ele>134.2</ele>
        <time>2011-05-01T09:15:21Z</time>
      </trkpt>
      <trkpt lat="49.34881" lon="1.21341">
        <ele>134.4</ele>
        <time>2011-05-01T09:15:23Z</time>
      </trkpt>
      <trkpt lat="49.3489" lon="1.21336">
        <ele>134.6</ele>
        <time>2011-05-01T09:15:25Z</time>
      </trkpt>
      <trkpt lat="49.34903" lon="1.2134">
        <ele>135</ele>
        <time>2011-05-01T09:15:29Z</time>
      </trkpt>
      <trkpt lat="49.34912" lon="1.21344">
        <ele>135.2</ele>
        <time>2011-05-01T09:15:33Z</time>
      </trkpt>
      <trkpt lat="49.34918" lon="1.21348">
        <ele>135.4</ele>
        <time>2011-05-01T09:15:35Z</time>
      </trkpt>
      <trkpt lat="49.34927" lon="1.21349">
        <ele>135.4</ele>
        <time>2011-05-01T09:15:37Z</time>
      </trkpt>
      <trkpt lat="49.34944" lon="1.21354">
        <ele>135.6</ele>
        <time>2011-05-01T09:15:41Z</time>
      </trkpt>
      <trkpt lat="49.3495" lon="1.21355">
        <ele>135.8</ele>
        <time>2011-05-01T09:15:42Z</time>
      </trkpt>
      <trkpt lat="49.34956" lon="1.21357">
        <ele>136.2</ele>
        <time>2011-05-01T09:15:44Z</time>
      </trkpt>
      <trkpt lat="49.3496" lon="1.21357">
        <ele>136.4</ele>
        <time>2011-05-01T09:15:45Z</time>
      </trkpt>
      <trkpt lat="49.34969" lon="1.21362">
        <ele>136.8</ele>
        <time>2011-05-01T09:15:48Z</time>
      </trkpt>
      <trkpt lat="49.34975" lon="1.21366">
        <ele>137</ele>
        <time>2011-05-01T09:15:50Z</time>
      </trkpt>
      <trkpt lat="49.34981" lon="1.21374">
        <ele>137.2</ele>
        <time>2011-05-01T09:15:53Z</time>
      </trkpt>
      <trkpt lat="49.34996" lon="1.21391">
        <ele>137.6</ele>
        <time>2011-05-01T09:15:58Z</time>
      </trkpt>
      <trkpt lat="49.35014" lon="1.21407">
        <ele>137.6</ele>
        <time>2011-05-01T09:16:02Z</time>
      </trkpt>
      <trkpt lat="49.35025" lon="1.21414">
        <ele>137.8</ele>
        <time>2011-05-01T09:16:05Z</time>
      </trkpt>
      <trkpt lat="49.35038" lon="1.21427">
        <ele>137.8</ele>
        <time>2011-05-01T09:16:10Z</time>
      </trkpt>
      <trkpt lat="49.3505" lon="1.21444">
        <ele>137.8</ele>
        <time>2011-05-01T09:16:14Z</time>
      </trkpt>
      <trkpt lat="49.35062" lon="1.21459">
        <ele>137.8</ele>
        <time>2011-05-01T09:16:18Z</time>
      </trkpt>
      <trkpt lat="49.35076" lon="1.21479">
        <ele>137.8</ele>
        <time>2011-05-01T09:16:23Z</time>
      </trkpt>
      <trkpt lat="49.35085" lon="1.21491">
        <ele>138</ele>
        <time>2011-05-01T09:16:25Z</time>
      </trkpt>
      <trkpt lat="49.35109" lon="1.21509">
        <ele>138</ele>
        <time>2011-05-01T09:16:30Z</time>
      </trkpt>
      <trkpt lat="49.35113" lon="1.21512">
        <ele>138</ele>
        <time>2011-05-01T09:16:31Z</time>
      </trkpt>
      <trkpt lat="49.35117" lon="1.21514">
        <ele>138</ele>
        <time>2011-05-01T09:16:32Z</time>
      </trkpt>
      <trkpt lat="49.3514" lon="1.21523">
        <ele>138</ele>
        <time>2011-05-01T09:16:37Z</time>
      </trkpt>
      <trkpt lat="49.35145" lon="1.21524">
        <ele>138</ele>
        <time>2011-05-01T09:16:38Z</time>
      </trkpt>
      <trkpt lat="49.3515" lon="1.21525">
        <ele>138</ele>
        <time>2011-05-01T09:16:39Z</time>
      </trkpt>
      <trkpt lat="49.35165" lon="1.21531">
        <ele>138.2</ele>
        <time>2011-05-01T09:16:42Z</time>
      </trkpt>
      <trkpt lat="49.35173" lon="1.21533">
        <ele>138.4</ele>
        <time>2011-05-01T09:16:44Z</time>
      </trkpt>
      <trkpt lat="49.35181" lon="1.21535">
        <ele>138.8</ele>
        <time>2011-05-01T09:16:46Z</time>
      </trkpt>
      <trkpt lat="49.35191" lon="1.21541">
        <ele>139</ele>
        <time>2011-05-01T09:16:48Z</time>
      </trkpt>
      <trkpt lat="49.35201" lon="1.21545">
        <ele>139.2</ele>
        <time>2011-05-01T09:16:50Z</time>
      </trkpt>
      <trkpt lat="49.35237" lon="1.21554">
        <ele>139.6</ele>
        <time>2011-05-01T09:16:58Z</time>
      </trkpt>
      <trkpt lat="49.3525" lon="1.21557">
        <ele>140.2</ele>
        <time>2011-05-01T09:17:01Z</time>
      </trkpt>
      <trkpt lat="49.35258" lon="1.21557">
        <ele>140.6</ele>
        <time>2011-05-01T09:17:03Z</time>
      </trkpt>
      <trkpt lat="49.35266" lon="1.21559">
        <ele>140.8</ele>
        <time>2011-05-01T09:17:05Z</time>
      </trkpt>
      <trkpt lat="49.35275" lon="1.2156">
        <ele>141</ele>
        <time>2011-05-01T09:17:07Z</time>
      </trkpt>
      <trkpt lat="49.35311" lon="1.21564">
        <ele>141.6</ele>
        <time>2011-05-01T09:17:16Z</time>
      </trkpt>
      <trkpt lat="49.35328" lon="1.21566">
        <ele>142</ele>
        <time>2011-05-01T09:17:20Z</time>
      </trkpt>
      <trkpt lat="49.35335" lon="1.21567">
        <ele>142.4</ele>
        <time>2011-05-01T09:17:22Z</time>
      </trkpt>
      <trkpt lat="49.35343" lon="1.21569">
        <ele>142.8</ele>
        <time>2011-05-01T09:17:24Z</time>
      </trkpt>
      <trkpt lat="49.35351" lon="1.21571">
        <ele>143</ele>
        <time>2011-05-01T09:17:26Z</time>
      </trkpt>
      <trkpt lat="49.35359" lon="1.21572">
        <ele>143.2</ele>
        <time>2011-05-01T09:17:28Z</time>
      </trkpt>
      <trkpt lat="49.3539" lon="1.21575">
        <ele>143.8</ele>
        <time>2011-05-01T09:17:35Z</time>
      </trkpt>
      <trkpt lat="49.35441" lon="1.21577">
        <ele>144.2</ele>
        <time>2011-05-01T09:17:46Z</time>
      </trkpt>
      <trkpt lat="49.35485" lon="1.21579">
        <ele>144.2</ele>
        <time>2011-05-01T09:17:55Z</time>
      </trkpt>
      <trkpt lat="49.35489" lon="1.21579">
        <ele>144.2</ele>
        <time>2011-05-01T09:17:56Z</time>
      </trkpt>
      <trkpt lat="49.35521" lon="1.2158">
        <ele>144.2</ele>
        <time>2011-05-01T09:18:03Z</time>
      </trkpt>
      <trkpt lat="49.35574" lon="1.21579">
        <ele>144.2</ele>
        <time>2011-05-01T09:18:13Z</time>
      </trkpt>
      <trkpt lat="49.3559" lon="1.2158">
        <ele>144.2</ele>
        <time>2011-05-01T09:18:16Z</time>
      </trkpt>
      <trkpt lat="49.35643" lon="1.21573">
        <ele>144.2</ele>
        <time>2011-05-01T09:18:27Z</time>
      </trkpt>
      <trkpt lat="49.35672" lon="1.21565">
        <ele>144.2</ele>
        <time>2011-05-01T09:18:33Z</time>
      </trkpt>
      <trkpt lat="49.35711" lon="1.21552">
        <ele>144.2</ele>
        <time>2011-05-01T09:18:41Z</time>
      </trkpt>
      <trkpt lat="49.35721" lon="1.21549">
        <ele>144.2</ele>
        <time>2011-05-01T09:18:43Z</time>
      </trkpt>
      <trkpt lat="49.35725" lon="1.21547">
        <ele>144.4</ele>
        <time>2011-05-01T09:18:44Z</time>
      </trkpt>
      <trkpt lat="49.35734" lon="1.21544">
        <ele>144.8</ele>
        <time>2011-05-01T09:18:46Z</time>
      </trkpt>
      <trkpt lat="49.35743" lon="1.2154">
        <ele>145.2</ele>
        <time>2011-05-01T09:18:48Z</time>
      </trkpt>
      <trkpt lat="49.35752" lon="1.21537">
        <ele>145.4</ele>
        <time>2011-05-01T09:18:50Z</time>
      </trkpt>
      <trkpt lat="49.35761" lon="1.21534">
        <ele>145.6</ele>
        <time>2011-05-01T09:18:52Z</time>
      </trkpt>
      <trkpt lat="49.35811" lon="1.21512">
        <ele>146.2</ele>
        <time>2011-05-01T09:19:04Z</time>
      </trkpt>
      <trkpt lat="49.35815" lon="1.2151">
        <ele>146.4</ele>
        <time>2011-05-01T09:19:05Z</time>
      </trkpt>
      <trkpt lat="49.35823" lon="1.21506">
        <ele>146.8</ele>
        <time>2011-05-01T09:19:07Z</time>
      </trkpt>
      <trkpt lat="49.35831" lon="1.21503">
        <ele>147.2</ele>
        <time>2011-05-01T09:19:09Z</time>
      </trkpt>
      <trkpt lat="49.35838" lon="1.21501">
        <ele>147.4</ele>
        <time>2011-05-01T09:19:11Z</time>
      </trkpt>
      <trkpt lat="49.35847" lon="1.21495">
        <ele>147.6</ele>
        <time>2011-05-01T09:19:13Z</time>
      </trkpt>
      <trkpt lat="49.35869" lon="1.21486">
        <ele>148.2</ele>
        <time>2011-05-01T09:19:19Z</time>
      </trkpt>
      <trkpt lat="49.35878" lon="1.21485">
        <ele>148.6</ele>
        <time>2011-05-01T09:19:21Z</time>
      </trkpt>
      <trkpt lat="49.35886" lon="1.21483">
        <ele>149</ele>
        <time>2011-05-01T09:19:23Z</time>
      </trkpt>
      <trkpt lat="49.35894" lon="1.21481">
        <ele>149.4</ele>
        <time>2011-05-01T09:19:25Z</time>
      </trkpt>
      <trkpt lat="49.35903" lon="1.21479">
        <ele>149.6</ele>
        <time>2011-05-01T09:19:27Z</time>
      </trkpt>
      <trkpt lat="49.3595" lon="1.21475">
        <ele>150.2</ele>
        <time>2011-05-01T09:19:37Z</time>
      </trkpt>
      <trkpt lat="49.35955" lon="1.21475">
        <ele>150.2</ele>
        <time>2011-05-01T09:19:38Z</time>
      </trkpt>
      <trkpt lat="49.35985" lon="1.2147">
        <ele>150.4</ele>
        <time>2011-05-01T09:19:44Z</time>
      </trkpt>
      <trkpt lat="49.36042" lon="1.21455">
        <ele>150.4</ele>
        <time>2011-05-01T09:19:54Z</time>
      </trkpt>
      <trkpt lat="49.3608" lon="1.21448">
        <ele>150.6</ele>
        <time>2011-05-01T09:20:00Z</time>
      </trkpt>
      <trkpt lat="49.36117" lon="1.21457">
        <ele>150.6</ele>
        <time>2011-05-01T09:20:06Z</time>
      </trkpt>
      <trkpt lat="49.36146" lon="1.21474">
        <ele>150.6</ele>
        <time>2011-05-01T09:20:11Z</time>
      </trkpt>
      <trkpt lat="49.36201" lon="1.21514">
        <ele>150.8</ele>
        <time>2011-05-01T09:20:21Z</time>
      </trkpt>
      <trkpt lat="49.36212" lon="1.21521">
        <ele>151</ele>
        <time>2011-05-01T09:20:23Z</time>
      </trkpt>
      <trkpt lat="49.36223" lon="1.21529">
        <ele>151.4</ele>
        <time>2011-05-01T09:20:25Z</time>
      </trkpt>
      <trkpt lat="49.36235" lon="1.21536">
        <ele>151.6</ele>
        <time>2011-05-01T09:20:27Z</time>
      </trkpt>
      <trkpt lat="49.36245" lon="1.21543">
        <ele>151.8</ele>
        <time>2011-05-01T09:20:29Z</time>
      </trkpt>
      <trkpt lat="49.36272" lon="1.2156">
        <ele>152.2</ele>
        <time>2011-05-01T09:20:35Z</time>
      </trkpt>
      <trkpt lat="49.36319" lon="1.21593">
        <ele>152.4</ele>
        <time>2011-05-01T09:20:46Z</time>
      </trkpt>
      <trkpt lat="49.36348" lon="1.21615">
        <ele>152.6</ele>
        <time>2011-05-01T09:20:52Z</time>
      </trkpt>
      <trkpt lat="49.36352" lon="1.2162">
        <ele>152.8</ele>
        <time>2011-05-01T09:20:53Z</time>
      </trkpt>
      <trkpt lat="49.36357" lon="1.21624">
        <ele>153</ele>
        <time>2011-05-01T09:20:54Z</time>
      </trkpt>
      <trkpt lat="49.36366" lon="1.21633">
        <ele>153.4</ele>
        <time>2011-05-01T09:20:56Z</time>
      </trkpt>
      <trkpt lat="49.36375" lon="1.21642">
        <ele>153.6</ele>
        <time>2011-05-01T09:20:58Z</time>
      </trkpt>
      <trkpt lat="49.36383" lon="1.2165">
        <ele>153.8</ele>
        <time>2011-05-01T09:21:00Z</time>
      </trkpt>
      <trkpt lat="49.36423" lon="1.21684">
        <ele>154.4</ele>
        <time>2011-05-01T09:21:09Z</time>
      </trkpt>
      <trkpt lat="49.36473" lon="1.21718">
        <ele>154.6</ele>
        <time>2011-05-01T09:21:19Z</time>
      </trkpt>
      <trkpt lat="49.36481" lon="1.21722">
        <ele>154.8</ele>
        <time>2011-05-01T09:21:21Z</time>
      </trkpt>
      <trkpt lat="49.36491" lon="1.21728">
        <ele>155.2</ele>
        <time>2011-05-01T09:21:23Z</time>
      </trkpt>
      <trkpt lat="49.36501" lon="1.21734">
        <ele>155.6</ele>
        <time>2011-05-01T09:21:25Z</time>
      </trkpt>
      <trkpt lat="49.3651" lon="1.2174">
        <ele>155.8</ele>
        <time>2011-05-01T09:21:27Z</time>
      </trkpt>
      <trkpt lat="49.3652" lon="1.21747">
        <ele>156</ele>
        <time>2011-05-01T09:21:29Z</time>
      </trkpt>
      <trkpt lat="49.36539" lon="1.2176">
        <ele>156.2</ele>
        <time>2011-05-01T09:21:33Z</time>
      </trkpt>
      <trkpt lat="49.36585" lon="1.21802">
        <ele>156.6</ele>
        <time>2011-05-01T09:21:43Z</time>
      </trkpt>
      <trkpt lat="49.36627" lon="1.2185">
        <ele>156.8</ele>
        <time>2011-05-01T09:21:52Z</time>
      </trkpt>
      <trkpt lat="49.36663" lon="1.21891">
        <ele>156.8</ele>
        <time>2011-05-01T09:21:59Z</time>
      </trkpt>
      <trkpt lat="49.36696" lon="1.21929">
        <ele>156.8</ele>
        <time>2011-05-01T09:22:06Z</time>
      </trkpt>
      <trkpt lat="49.36728" lon="1.21965">
        <ele>156.8</ele>
        <time>2011-05-01T09:22:14Z</time>
      </trkpt>
      <trkpt lat="49.36742" lon="1.21963">
        <ele>156.8</ele>
        <time>2011-05-01T09:22:18Z</time>
      </trkpt>
      <trkpt lat="49.36739" lon="1.21939">
        <ele>156.8</ele>
        <time>2011-05-01T09:22:21Z</time>
      </trkpt>
      <trkpt lat="49.36736" lon="1.21929">
        <ele>156.8</ele>
        <time>2011-05-01T09:22:22Z</time>
      </trkpt>
      <trkpt lat="49.3672" lon="1.21875">
        <ele>156.8</ele>
        <time>2011-05-01T09:22:28Z</time>
      </trkpt>
      <trkpt lat="49.36716" lon="1.21846">
        <ele>156.8</ele>
        <time>2011-05-01T09:22:31Z</time>
      </trkpt>
      <trkpt lat="49.36725" lon="1.21821">
        <ele>156.8</ele>
        <time>2011-05-01T09:22:34Z</time>
      </trkpt>
      <trkpt lat="49.3673" lon="1.21815">
        <ele>156.8</ele>
        <time>2011-05-01T09:22:35Z</time>
      </trkpt>
      <trkpt lat="49.36779" lon="1.2177">
        <ele>156.6</ele>
        <time>2011-05-01T09:22:43Z</time>
      </trkpt>
      <trkpt lat="49.36792" lon="1.21756">
        <ele>156.2</ele>
        <time>2011-05-01T09:22:45Z</time>
      </trkpt>
      <trkpt lat="49.36807" lon="1.21742">
        <ele>156</ele>
        <time>2011-05-01T09:22:47Z</time>
      </trkpt>
      <trkpt lat="49.36822" lon="1.21728">
        <ele>155.4</ele>
        <time>2011-05-01T09:22:49Z</time>
      </trkpt>
      <trkpt lat="49.36837" lon="1.21714">
        <ele>154.8</ele>
        <time>2011-05-01T09:22:51Z</time>
      </trkpt>
      <trkpt lat="49.36852" lon="1.21701">
        <ele>154.2</ele>
        <time>2011-05-01T09:22:53Z</time>
      </trkpt>
      <trkpt lat="49.36867" lon="1.21688">
        <ele>153.8</ele>
        <time>2011-05-01T09:22:55Z</time>
      </trkpt>
      <trkpt lat="49.36875" lon="1.21682">
        <ele>153.4</ele>
        <time>2011-05-01T09:22:56Z</time>
      </trkpt>
      <trkpt lat="49.36888" lon="1.21671">
        <ele>152.8</ele>
        <time>2011-05-01T09:22:58Z</time>
      </trkpt>
      <trkpt lat="49.36893" lon="1.21665">
        <ele>152.6</ele>
        <time>2011-05-01T09:22:59Z</time>
      </trkpt>
      <trkpt lat="49.36898" lon="1.2166">
        <ele>152.2</ele>
        <time>2011-05-01T09:23:00Z</time>
      </trkpt>
      <trkpt lat="49.36904" lon="1.21655">
        <ele>151.8</ele>
        <time>2011-05-01T09:23:01Z</time>
      </trkpt>
      <trkpt lat="49.36914" lon="1.21647">
        <ele>151</ele>
        <time>2011-05-01T09:23:03Z</time>
      </trkpt>
      <trkpt lat="49.36926" lon="1.2164">
        <ele>150.4</ele>
        <time>2011-05-01T09:23:05Z</time>
      </trkpt>
      <trkpt lat="49.36932" lon="1.21634">
        <ele>150.2</ele>
        <time>2011-05-01T09:23:06Z</time>
      </trkpt>
      <trkpt lat="49.36939" lon="1.21629">
        <ele>150</ele>
        <time>2011-05-01T09:23:07Z</time>
      </trkpt>
      <trkpt lat="49.3695" lon="1.21617">
        <ele>149.6</ele>
        <time>2011-05-01T09:23:09Z</time>
      </trkpt>
      <trkpt lat="49.36976" lon="1.21593">
        <ele>148.8</ele>
        <time>2011-05-01T09:23:14Z</time>
      </trkpt>
      <trkpt lat="49.37" lon="1.2157">
        <ele>148.4</ele>
        <time>2011-05-01T09:23:19Z</time>
      </trkpt>
      <trkpt lat="49.37025" lon="1.21543">
        <ele>148.2</ele>
        <time>2011-05-01T09:23:24Z</time>
      </trkpt>
      <trkpt lat="49.37053" lon="1.21511">
        <ele>148</ele>
        <time>2011-05-01T09:23:30Z</time>
      </trkpt>
      <trkpt lat="49.37058" lon="1.21504">
        <ele>148</ele>
        <time>2011-05-01T09:23:31Z</time>
      </trkpt>
      <trkpt lat="49.37086" lon="1.21475">
        <ele>148</ele>
        <time>2011-05-01T09:23:37Z</time>
      </trkpt>
      <trkpt lat="49.3711" lon="1.21448">
        <ele>147.8</ele>
        <time>2011-05-01T09:23:43Z</time>
      </trkpt>
      <trkpt lat="49.37128" lon="1.21437">
        <ele>147.8</ele>
        <time>2011-05-01T09:23:46Z</time>
      </trkpt>
      <trkpt lat="49.37159" lon="1.21422">
        <ele>147.8</ele>
        <time>2011-05-01T09:23:52Z</time>
      </trkpt>
      <trkpt lat="49.37164" lon="1.2142">
        <ele>147.8</ele>
        <time>2011-05-01T09:23:53Z</time>
      </trkpt>
      <trkpt lat="49.37178" lon="1.21419">
        <ele>148</ele>
        <time>2011-05-01T09:23:56Z</time>
      </trkpt>
      <trkpt lat="49.37186" lon="1.21416">
        <ele>148.4</ele>
        <time>2011-05-01T09:23:58Z</time>
      </trkpt>
      <trkpt lat="49.37191" lon="1.21414">
        <ele>148.6</ele>
        <time>2011-05-01T09:23:59Z</time>
      </trkpt>
      <trkpt lat="49.37198" lon="1.21406">
        <ele>149</ele>
        <time>2011-05-01T09:24:02Z</time>
      </trkpt>
      <trkpt lat="49.37202" lon="1.21401">
        <ele>149.2</ele>
        <time>2011-05-01T09:24:03Z</time>
      </trkpt>
      <trkpt lat="49.37215" lon="1.21383">
        <ele>149.4</ele>
        <time>2011-05-01T09:24:07Z</time>
      </trkpt>
      <trkpt lat="49.37226" lon="1.21383">
        <ele>149.6</ele>
        <time>2011-05-01T09:24:10Z</time>
      </trkpt>
      <trkpt lat="49.37241" lon="1.21382">
        <ele>149.8</ele>
        <time>2011-05-01T09:24:13Z</time>
      </trkpt>
      <trkpt lat="49.37253" lon="1.21379">
        <ele>149.8</ele>
        <time>2011-05-01T09:24:16Z</time>
      </trkpt>
      <trkpt lat="49.37272" lon="1.21368">
        <ele>150</ele>
        <time>2011-05-01T09:24:20Z</time>
      </trkpt>
      <trkpt lat="49.37283" lon="1.21364">
        <ele>149.8</ele>
        <time>2011-05-01T09:24:22Z</time>
      </trkpt>
      <trkpt lat="49.37293" lon="1.21362">
        <ele>149.4</ele>
        <time>2011-05-01T09:24:24Z</time>
      </trkpt>
      <trkpt lat="49.37299" lon="1.21363">
        <ele>149.2</ele>
        <time>2011-05-01T09:24:25Z</time>
      </trkpt>
      <trkpt lat="49.37307" lon="1.21362">
        <ele>149</ele>
        <time>2011-05-01T09:24:26Z</time>
      </trkpt>
      <trkpt lat="49.37316" lon="1.21361">
        <ele>148.8</ele>
        <time>2011-05-01T09:24:27Z</time>
      </trkpt>
      <trkpt lat="49.37323" lon="1.21363">
        <ele>148.4</ele>
        <time>2011-05-01T09:24:28Z</time>
      </trkpt>
      <trkpt lat="49.37331" lon="1.21364">
        <ele>148.2</ele>
        <time>2011-05-01T09:24:29Z</time>
      </trkpt>
      <trkpt lat="49.37337" lon="1.21365">
        <ele>147.6</ele>
        <time>2011-05-01T09:24:30Z</time>
      </trkpt>
      <trkpt lat="49.37343" lon="1.21366">
        <ele>146.6</ele>
        <time>2011-05-01T09:24:32Z</time>
      </trkpt>
      <trkpt lat="49.37347" lon="1.21368">
        <ele>146</ele>
        <time>2011-05-01T09:24:33Z</time>
      </trkpt>
      <trkpt lat="49.3735" lon="1.2137">
        <ele>145.4</ele>
        <time>2011-05-01T09:24:34Z</time>
      </trkpt>
      <trkpt lat="49.37361" lon="1.21381">
        <ele>144.2</ele>
        <time>2011-05-01T09:24:36Z</time>
      </trkpt>
      <trkpt lat="49.37369" lon="1.21383">
        <ele>142.8</ele>
        <time>2011-05-01T09:24:38Z</time>
      </trkpt>
      <trkpt lat="49.37376" lon="1.21383">
        <ele>142.2</ele>
        <time>2011-05-01T09:24:39Z</time>
      </trkpt>
      <trkpt lat="49.37392" lon="1.2138">
        <ele>140.8</ele>
        <time>2011-05-01T09:24:42Z</time>
      </trkpt>
      <trkpt lat="49.37396" lon="1.21377">
        <ele>140.2</ele>
        <time>2011-05-01T09:24:43Z</time>
      </trkpt>
      <trkpt lat="49.37398" lon="1.21376">
        <ele>139.8</ele>
        <time>2011-05-01T09:24:44Z</time>
      </trkpt>
      <trkpt lat="49.3741" lon="1.21379">
        <ele>138.4</ele>
        <time>2011-05-01T09:24:47Z</time>
      </trkpt>
      <trkpt lat="49.37413" lon="1.21377">
        <ele>138.2</ele>
        <time>2011-05-01T09:24:48Z</time>
      </trkpt>
      <trkpt lat="49.37419" lon="1.21377">
        <ele>137.8</ele>
        <time>2011-05-01T09:24:49Z</time>
      </trkpt>
      <trkpt lat="49.3743" lon="1.21374">
        <ele>137.2</ele>
        <time>2011-05-01T09:24:51Z</time>
      </trkpt>
      <trkpt lat="49.37436" lon="1.21373">
        <ele>137</ele>
        <time>2011-05-01T09:24:52Z</time>
      </trkpt>
      <trkpt lat="49.37451" lon="1.2137">
        <ele>136.4</ele>
        <time>2011-05-01T09:24:56Z</time>
      </trkpt>
      <trkpt lat="49.37464" lon="1.21365">
        <ele>135.8</ele>
        <time>2011-05-01T09:25:00Z</time>
      </trkpt>
      <trkpt lat="49.37475" lon="1.21361">
        <ele>135.6</ele>
        <time>2011-05-01T09:25:04Z</time>
      </trkpt>
      <trkpt lat="49.37477" lon="1.21359">
        <ele>135.6</ele>
        <time>2011-05-01T09:25:05Z</time>
      </trkpt>
      <trkpt lat="49.37488" lon="1.21356">
        <ele>135.4</ele>
        <time>2011-05-01T09:25:09Z</time>
      </trkpt>
      <trkpt lat="49.37491" lon="1.21355">
        <ele>135.6</ele>
        <time>2011-05-01T09:25:10Z</time>
      </trkpt>
      <trkpt lat="49.37498" lon="1.21354">
        <ele>135.8</ele>
        <time>2011-05-01T09:25:12Z</time>
      </trkpt>
      <trkpt lat="49.37501" lon="1.21354">
        <ele>136</ele>
        <time>2011-05-01T09:25:13Z</time>
      </trkpt>
      <trkpt lat="49.37518" lon="1.21342">
        <ele>136.4</ele>
        <time>2011-05-01T09:25:16Z</time>
      </trkpt>
      <trkpt lat="49.37531" lon="1.21337">
        <ele>136.6</ele>
        <time>2011-05-01T09:25:18Z</time>
      </trkpt>
      <trkpt lat="49.3754" lon="1.21337">
        <ele>136.6</ele>
        <time>2011-05-01T09:25:20Z</time>
      </trkpt>
      <trkpt lat="49.37555" lon="1.2134">
        <ele>136.8</ele>
        <time>2011-05-01T09:25:25Z</time>
      </trkpt>
      <trkpt lat="49.37556" lon="1.21343">
        <ele>137</ele>
        <time>2011-05-01T09:25:26Z</time>
      </trkpt>
      <trkpt lat="49.37558" lon="1.21346">
        <ele>137.2</ele>
        <time>2011-05-01T09:25:27Z</time>
      </trkpt>
      <trkpt lat="49.37562" lon="1.2135">
        <ele>137.6</ele>
        <time>2011-05-01T09:25:29Z</time>
      </trkpt>
      <trkpt lat="49.37565" lon="1.21353">
        <ele>137.8</ele>
        <time>2011-05-01T09:25:30Z</time>
      </trkpt>
      <trkpt lat="49.37577" lon="1.21354">
        <ele>138.2</ele>
        <time>2011-05-01T09:25:33Z</time>
      </trkpt>
      <trkpt lat="49.37582" lon="1.21355">
        <ele>138.4</ele>
        <time>2011-05-01T09:25:35Z</time>
      </trkpt>
      <trkpt lat="49.37599" lon="1.2135">
        <ele>138.8</ele>
        <time>2011-05-01T09:25:39Z</time>
      </trkpt>
      <trkpt lat="49.37602" lon="1.2135">
        <ele>139</ele>
        <time>2011-05-01T09:25:40Z</time>
      </trkpt>
      <trkpt lat="49.37606" lon="1.21349">
        <ele>139.4</ele>
        <time>2011-05-01T09:25:42Z</time>
      </trkpt>
      <trkpt lat="49.37611" lon="1.21348">
        <ele>139.8</ele>
        <time>2011-05-01T09:25:44Z</time>
      </trkpt>
      <trkpt lat="49.37618" lon="1.21345">
        <ele>140.2</ele>
        <time>2011-05-01T09:25:46Z</time>
      </trkpt>
      <trkpt lat="49.37625" lon="1.21341">
        <ele>140.4</ele>
        <time>2011-05-01T09:25:48Z</time>
      </trkpt>
      <trkpt lat="49.37635" lon="1.21335">
        <ele>141</ele>
        <time>2011-05-01T09:25:51Z</time>
      </trkpt>
      <trkpt lat="49.37642" lon="1.21332">
        <ele>141.4</ele>
        <time>2011-05-01T09:25:53Z</time>
      </trkpt>
      <trkpt lat="49.37649" lon="1.21329">
        <ele>141.8</ele>
        <time>2011-05-01T09:25:55Z</time>
      </trkpt>
      <trkpt lat="49.37655" lon="1.21326">
        <ele>142.2</ele>
        <time>2011-05-01T09:25:57Z</time>
      </trkpt>
      <trkpt lat="49.37661" lon="1.21323">
        <ele>142.4</ele>
        <time>2011-05-01T09:25:59Z</time>
      </trkpt>
      <trkpt lat="49.37667" lon="1.2132">
        <ele>142.8</ele>
        <time>2011-05-01T09:26:01Z</time>
      </trkpt>
      <trkpt lat="49.37672" lon="1.21318">
        <ele>143.4</ele>
        <time>2011-05-01T09:26:03Z</time>
      </trkpt>
      <trkpt lat="49.37677" lon="1.21315">
        <ele>143.8</ele>
        <time>2011-05-01T09:26:05Z</time>
      </trkpt>
      <trkpt lat="49.37681" lon="1.21312">
        <ele>144.2</ele>
        <time>2011-05-01T09:26:07Z</time>
      </trkpt>
      <trkpt lat="49.37686" lon="1.2131">
        <ele>144.4</ele>
        <time>2011-05-01T09:26:09Z</time>
      </trkpt>
      <trkpt lat="49.37697" lon="1.21303">
        <ele>145.2</ele>
        <time>2011-05-01T09:26:14Z</time>
      </trkpt>
      <trkpt lat="49.37702" lon="1.213">
        <ele>145.6</ele>
        <time>2011-05-01T09:26:16Z</time>
      </trkpt>
      <trkpt lat="49.37707" lon="1.21297">
        <ele>146.2</ele>
        <time>2011-05-01T09:26:18Z</time>
      </trkpt>
      <trkpt lat="49.37712" lon="1.21295">
        <ele>146.4</ele>
        <time>2011-05-01T09:26:20Z</time>
      </trkpt>
      <trkpt lat="49.37718" lon="1.21292">
        <ele>146.8</ele>
        <time>2011-05-01T09:26:22Z</time>
      </trkpt>
      <trkpt lat="49.37732" lon="1.21285">
        <ele>147.4</ele>
        <time>2011-05-01T09:26:27Z</time>
      </trkpt>
      <trkpt lat="49.37738" lon="1.21282">
        <ele>148</ele>
        <time>2011-05-01T09:26:29Z</time>
      </trkpt>
      <trkpt lat="49.37744" lon="1.21279">
        <ele>148.2</ele>
        <time>2011-05-01T09:26:31Z</time>
      </trkpt>
      <trkpt lat="49.3775" lon="1.21276">
        <ele>148.6</ele>
        <time>2011-05-01T09:26:33Z</time>
      </trkpt>
      <trkpt lat="49.37756" lon="1.21273">
        <ele>148.8</ele>
        <time>2011-05-01T09:26:35Z</time>
      </trkpt>
      <trkpt lat="49.3778" lon="1.21259">
        <ele>149.8</ele>
        <time>2011-05-01T09:26:44Z</time>
      </trkpt>
      <trkpt lat="49.37785" lon="1.21255">
        <ele>150.2</ele>
        <time>2011-05-01T09:26:46Z</time>
      </trkpt>
      <trkpt lat="49.3779" lon="1.21251">
        <ele>150.6</ele>
        <time>2011-05-01T09:26:48Z</time>
      </trkpt>
      <trkpt lat="49.37795" lon="1.21247">
        <ele>150.8</ele>
        <time>2011-05-01T09:26:50Z</time>
      </trkpt>
      <trkpt lat="49.378" lon="1.21242">
        <ele>151</ele>
        <time>2011-05-01T09:26:52Z</time>
      </trkpt>
      <trkpt lat="49.37802" lon="1.2124">
        <ele>151.4</ele>
        <time>2011-05-01T09:26:53Z</time>
      </trkpt>
      <trkpt lat="49.37807" lon="1.21234">
        <ele>151.8</ele>
        <time>2011-05-01T09:26:55Z</time>
      </trkpt>
      <trkpt lat="49.37811" lon="1.21229">
        <ele>152.2</ele>
        <time>2011-05-01T09:26:57Z</time>
      </trkpt>
      <trkpt lat="49.37815" lon="1.21224">
        <ele>152.6</ele>
        <time>2011-05-01T09:26:59Z</time>
      </trkpt>
      <trkpt lat="49.37819" lon="1.21218">
        <ele>152.8</ele>
        <time>2011-05-01T09:27:01Z</time>
      </trkpt>
      <trkpt lat="49.3783" lon="1.21203">
        <ele>153.6</ele>
        <time>2011-05-01T09:27:06Z</time>
      </trkpt>
      <trkpt lat="49.37835" lon="1.21197">
        <ele>154</ele>
        <time>2011-05-01T09:27:08Z</time>
      </trkpt>
      <trkpt lat="49.3784" lon="1.2119">
        <ele>154.4</ele>
        <time>2011-05-01T09:27:10Z</time>
      </trkpt>
      <trkpt lat="49.37845" lon="1.21182">
        <ele>154.8</ele>
        <time>2011-05-01T09:27:12Z</time>
      </trkpt>
      <trkpt lat="49.37851" lon="1.21174">
        <ele>155</ele>
        <time>2011-05-01T09:27:14Z</time>
      </trkpt>
      <trkpt lat="49.37875" lon="1.21139">
        <ele>155.6</ele>
        <time>2011-05-01T09:27:22Z</time>
      </trkpt>
      <trkpt lat="49.37896" lon="1.21114">
        <ele>155.8</ele>
        <time>2011-05-01T09:27:28Z</time>
      </trkpt>
      <trkpt lat="49.37927" lon="1.21087">
        <ele>156</ele>
        <time>2011-05-01T09:27:35Z</time>
      </trkpt>
      <trkpt lat="49.37953" lon="1.21061">
        <ele>156</ele>
        <time>2011-05-01T09:27:40Z</time>
      </trkpt>
      <trkpt lat="49.37969" lon="1.21044">
        <ele>155.8</ele>
        <time>2011-05-01T09:27:43Z</time>
      </trkpt>
      <trkpt lat="49.37979" lon="1.21031">
        <ele>155.4</ele>
        <time>2011-05-01T09:27:45Z</time>
      </trkpt>
      <trkpt lat="49.37989" lon="1.21016">
        <ele>155.2</ele>
        <time>2011-05-01T09:27:47Z</time>
      </trkpt>
      <trkpt lat="49.37999" lon="1.21">
        <ele>155</ele>
        <time>2011-05-01T09:27:49Z</time>
      </trkpt>
      <trkpt lat="49.38004" lon="1.20992">
        <ele>154.6</ele>
        <time>2011-05-01T09:27:50Z</time>
      </trkpt>
      <trkpt lat="49.38013" lon="1.20974">
        <ele>154</ele>
        <time>2011-05-01T09:27:52Z</time>
      </trkpt>
      <trkpt lat="49.38022" lon="1.20956">
        <ele>153.6</ele>
        <time>2011-05-01T09:27:54Z</time>
      </trkpt>
      <trkpt lat="49.38026" lon="1.20946">
        <ele>153.2</ele>
        <time>2011-05-01T09:27:55Z</time>
      </trkpt>
      <trkpt lat="49.38034" lon="1.20927">
        <ele>152.6</ele>
        <time>2011-05-01T09:27:57Z</time>
      </trkpt>
      <trkpt lat="49.38042" lon="1.20908">
        <ele>152</ele>
        <time>2011-05-01T09:27:59Z</time>
      </trkpt>
      <trkpt lat="49.38048" lon="1.20891">
        <ele>151.6</ele>
        <time>2011-05-01T09:28:01Z</time>
      </trkpt>
      <trkpt lat="49.38054" lon="1.20874">
        <ele>151.2</ele>
        <time>2011-05-01T09:28:03Z</time>
      </trkpt>
      <trkpt lat="49.38082" lon="1.20802">
        <ele>150.2</ele>
        <time>2011-05-01T09:28:12Z</time>
      </trkpt>
      <trkpt lat="49.38108" lon="1.20756">
        <ele>149.8</ele>
        <time>2011-05-01T09:28:19Z</time>
      </trkpt>
      <trkpt lat="49.38146" lon="1.20703">
        <ele>149.8</ele>
        <time>2011-05-01T09:28:29Z</time>
      </trkpt>
      <trkpt lat="49.38185" lon="1.20647">
        <ele>149.6</ele>
        <time>2011-05-01T09:28:40Z</time>
      </trkpt>
      <trkpt lat="49.38201" lon="1.20629">
        <ele>149.6</ele>
        <time>2011-05-01T09:28:45Z</time>
      </trkpt>
      <trkpt lat="49.38226" lon="1.20598">
        <ele>149.6</ele>
        <time>2011-05-01T09:28:52Z</time>
      </trkpt>
      <trkpt lat="49.38254" lon="1.20571">
        <ele>149.6</ele>
        <time>2011-05-01T09:28:59Z</time>
      </trkpt>
      <trkpt lat="49.38273" lon="1.20554">
        <ele>149.8</ele>
        <time>2011-05-01T09:29:05Z</time>
      </trkpt>
      <trkpt lat="49.3828" lon="1.20549">
        <ele>150.2</ele>
        <time>2011-05-01T09:29:07Z</time>
      </trkpt>
      <trkpt lat="49.38287" lon="1.20542">
        <ele>150.6</ele>
        <time>2011-05-01T09:29:09Z</time>
      </trkpt>
      <trkpt lat="49.38294" lon="1.20537">
        <ele>150.8</ele>
        <time>2011-05-01T09:29:11Z</time>
      </trkpt>
      <trkpt lat="49.38302" lon="1.20531">
        <ele>151</ele>
        <time>2011-05-01T09:29:13Z</time>
      </trkpt>
      <trkpt lat="49.38323" lon="1.20508">
        <ele>151.4</ele>
        <time>2011-05-01T09:29:19Z</time>
      </trkpt>
      <trkpt lat="49.38344" lon="1.20478">
        <ele>151.8</ele>
        <time>2011-05-01T09:29:26Z</time>
      </trkpt>
      <trkpt lat="49.38351" lon="1.20471">
        <ele>152.2</ele>
        <time>2011-05-01T09:29:28Z</time>
      </trkpt>
      <trkpt lat="49.38357" lon="1.20464">
        <ele>152.6</ele>
        <time>2011-05-01T09:29:30Z</time>
      </trkpt>
      <trkpt lat="49.38362" lon="1.20456">
        <ele>152.8</ele>
        <time>2011-05-01T09:29:32Z</time>
      </trkpt>
      <trkpt lat="49.38362" lon="1.20452">
        <ele>152.8</ele>
        <time>2011-05-01T09:29:33Z</time>
      </trkpt>
      <trkpt lat="49.38359" lon="1.20434">
        <ele>153.2</ele>
        <time>2011-05-01T09:29:36Z</time>
      </trkpt>
      <trkpt lat="49.38347" lon="1.20411">
        <ele>153.4</ele>
        <time>2011-05-01T09:29:40Z</time>
      </trkpt>
      <trkpt lat="49.38321" lon="1.20362">
        <ele>153.6</ele>
        <time>2011-05-01T09:29:48Z</time>
      </trkpt>
      <trkpt lat="49.38314" lon="1.2035">
        <ele>153.8</ele>
        <time>2011-05-01T09:29:50Z</time>
      </trkpt>
      <trkpt lat="49.38301" lon="1.20316">
        <ele>153.8</ele>
        <time>2011-05-01T09:29:55Z</time>
      </trkpt>
      <trkpt lat="49.3829" lon="1.20254">
        <ele>153.8</ele>
        <time>2011-05-01T09:30:03Z</time>
      </trkpt>
      <trkpt lat="49.38283" lon="1.20189">
        <ele>153.8</ele>
        <time>2011-05-01T09:30:11Z</time>
      </trkpt>
      <trkpt lat="49.38282" lon="1.20181">
        <ele>153.8</ele>
        <time>2011-05-01T09:30:12Z</time>
      </trkpt>
      <trkpt lat="49.38274" lon="1.20145">
        <ele>153.8</ele>
        <time>2011-05-01T09:30:17Z</time>
      </trkpt>
      <trkpt lat="49.38268" lon="1.20124">
        <ele>154</ele>
        <time>2011-05-01T09:30:20Z</time>
      </trkpt>
      <trkpt lat="49.38264" lon="1.2011">
        <ele>154.4</ele>
        <time>2011-05-01T09:30:22Z</time>
      </trkpt>
      <trkpt lat="49.3826" lon="1.20097">
        <ele>154.8</ele>
        <time>2011-05-01T09:30:24Z</time>
      </trkpt>
      <trkpt lat="49.38256" lon="1.20084">
        <ele>155</ele>
        <time>2011-05-01T09:30:26Z</time>
      </trkpt>
      <trkpt lat="49.38251" lon="1.2007">
        <ele>155.2</ele>
        <time>2011-05-01T09:30:28Z</time>
      </trkpt>
      <trkpt lat="49.38233" lon="1.20023">
        <ele>155.6</ele>
        <time>2011-05-01T09:30:35Z</time>
      </trkpt>
      <trkpt lat="49.38204" lon="1.19962">
        <ele>155.8</ele>
        <time>2011-05-01T09:30:44Z</time>
      </trkpt>
      <trkpt lat="49.38173" lon="1.19902">
        <ele>155.8</ele>
        <time>2011-05-01T09:30:53Z</time>
      </trkpt>
      <trkpt lat="49.3815" lon="1.19863">
        <ele>156</ele>
        <time>2011-05-01T09:30:59Z</time>
      </trkpt>
      <trkpt lat="49.38142" lon="1.19848">
        <ele>156.4</ele>
        <time>2011-05-01T09:31:01Z</time>
      </trkpt>
      <trkpt lat="49.38134" lon="1.19834">
        <ele>156.8</ele>
        <time>2011-05-01T09:31:03Z</time>
      </trkpt>
      <trkpt lat="49.38126" lon="1.19821">
        <ele>157</ele>
        <time>2011-05-01T09:31:05Z</time>
      </trkpt>
      <trkpt lat="49.38123" lon="1.19815">
        <ele>157</ele>
        <time>2011-05-01T09:31:06Z</time>
      </trkpt>
      <trkpt lat="49.38101" lon="1.19777">
        <ele>157.4</ele>
        <time>2011-05-01T09:31:12Z</time>
      </trkpt>
      <trkpt lat="49.38088" lon="1.19757">
        <ele>157.6</ele>
        <time>2011-05-01T09:31:16Z</time>
      </trkpt>
      <trkpt lat="49.38068" lon="1.19724">
        <ele>157.8</ele>
        <time>2011-05-01T09:31:22Z</time>
      </trkpt>
      <trkpt lat="49.38045" lon="1.1968">
        <ele>157.8</ele>
        <time>2011-05-01T09:31:29Z</time>
      </trkpt>
      <trkpt lat="49.38014" lon="1.19627">
        <ele>158</ele>
        <time>2011-05-01T09:31:38Z</time>
      </trkpt>
      <trkpt lat="49.38003" lon="1.19608">
        <ele>158</ele>
        <time>2011-05-01T09:31:41Z</time>
      </trkpt>
      <trkpt lat="49.37987" lon="1.19591">
        <ele>158</ele>
        <time>2011-05-01T09:31:45Z</time>
      </trkpt>
      <trkpt lat="49.37945" lon="1.19575">
        <ele>158</ele>
        <time>2011-05-01T09:31:53Z</time>
      </trkpt>
      <trkpt lat="49.37893" lon="1.19554">
        <ele>158</ele>
        <time>2011-05-01T09:32:03Z</time>
      </trkpt>
      <trkpt lat="49.37847" lon="1.19536">
        <ele>158</ele>
        <time>2011-05-01T09:32:11Z</time>
      </trkpt>
      <trkpt lat="49.37834" lon="1.19531">
        <ele>157.8</ele>
        <time>2011-05-01T09:32:13Z</time>
      </trkpt>
      <trkpt lat="49.37822" lon="1.19525">
        <ele>157.4</ele>
        <time>2011-05-01T09:32:15Z</time>
      </trkpt>
      <trkpt lat="49.37808" lon="1.1952">
        <ele>157.2</ele>
        <time>2011-05-01T09:32:17Z</time>
      </trkpt>
      <trkpt lat="49.37794" lon="1.19514">
        <ele>156.8</ele>
        <time>2011-05-01T09:32:19Z</time>
      </trkpt>
      <trkpt lat="49.3778" lon="1.19509">
        <ele>156.6</ele>
        <time>2011-05-01T09:32:21Z</time>
      </trkpt>
      <trkpt lat="49.37747" lon="1.19504">
        <ele>156.2</ele>
        <time>2011-05-01T09:32:26Z</time>
      </trkpt>
      <trkpt lat="49.37734" lon="1.19502">
        <ele>155.6</ele>
        <time>2011-05-01T09:32:28Z</time>
      </trkpt>
      <trkpt lat="49.37721" lon="1.19501">
        <ele>155.4</ele>
        <time>2011-05-01T09:32:30Z</time>
      </trkpt>
      <trkpt lat="49.37708" lon="1.195">
        <ele>155</ele>
        <time>2011-05-01T09:32:32Z</time>
      </trkpt>
      <trkpt lat="49.37695" lon="1.19499">
        <ele>154.8</ele>
        <time>2011-05-01T09:32:34Z</time>
      </trkpt>
      <trkpt lat="49.37638" lon="1.19494">
        <ele>154.2</ele>
        <time>2011-05-01T09:32:44Z</time>
      </trkpt>
      <trkpt lat="49.37581" lon="1.19488">
        <ele>154</ele>
        <time>2011-05-01T09:32:55Z</time>
      </trkpt>
      <trkpt lat="49.3754" lon="1.19486">
        <ele>154</ele>
        <time>2011-05-01T09:33:03Z</time>
      </trkpt>
      <trkpt lat="49.3753" lon="1.19486">
        <ele>154.4</ele>
        <time>2011-05-01T09:33:05Z</time>
      </trkpt>
      <trkpt lat="49.3752" lon="1.19485">
        <ele>154.6</ele>
        <time>2011-05-01T09:33:07Z</time>
      </trkpt>
      <trkpt lat="49.3751" lon="1.19484">
        <ele>154.8</ele>
        <time>2011-05-01T09:33:09Z</time>
      </trkpt>
      <trkpt lat="49.37501" lon="1.19484">
        <ele>155</ele>
        <time>2011-05-01T09:33:11Z</time>
      </trkpt>
      <trkpt lat="49.37456" lon="1.19482">
        <ele>155.6</ele>
        <time>2011-05-01T09:33:20Z</time>
      </trkpt>
      <trkpt lat="49.37419" lon="1.19489">
        <ele>155.6</ele>
        <time>2011-05-01T09:33:27Z</time>
      </trkpt>
      <trkpt lat="49.37375" lon="1.195">
        <ele>155.8</ele>
        <time>2011-05-01T09:33:35Z</time>
      </trkpt>
      <trkpt lat="49.37328" lon="1.19514">
        <ele>155.6</ele>
        <time>2011-05-01T09:33:43Z</time>
      </trkpt>
      <trkpt lat="49.37316" lon="1.19518">
        <ele>155.2</ele>
        <time>2011-05-01T09:33:45Z</time>
      </trkpt>
      <trkpt lat="49.37305" lon="1.19522">
        <ele>155</ele>
        <time>2011-05-01T09:33:47Z</time>
      </trkpt>
      <trkpt lat="49.37293" lon="1.19526">
        <ele>154.8</ele>
        <time>2011-05-01T09:33:49Z</time>
      </trkpt>
      <trkpt lat="49.37282" lon="1.1953">
        <ele>154.4</ele>
        <time>2011-05-01T09:33:51Z</time>
      </trkpt>
      <trkpt lat="49.3727" lon="1.19535">
        <ele>153.8</ele>
        <time>2011-05-01T09:33:53Z</time>
      </trkpt>
      <trkpt lat="49.37258" lon="1.19539">
        <ele>153.4</ele>
        <time>2011-05-01T09:33:55Z</time>
      </trkpt>
      <trkpt lat="49.37244" lon="1.19542">
        <ele>153</ele>
        <time>2011-05-01T09:33:57Z</time>
      </trkpt>
      <trkpt lat="49.37231" lon="1.19548">
        <ele>152.4</ele>
        <time>2011-05-01T09:33:59Z</time>
      </trkpt>
      <trkpt lat="49.37216" lon="1.19554">
        <ele>151.8</ele>
        <time>2011-05-01T09:34:01Z</time>
      </trkpt>
      <trkpt lat="49.37202" lon="1.19558">
        <ele>151.4</ele>
        <time>2011-05-01T09:34:03Z</time>
      </trkpt>
      <trkpt lat="49.37194" lon="1.19559">
        <ele>151</ele>
        <time>2011-05-01T09:34:04Z</time>
      </trkpt>
      <trkpt lat="49.37178" lon="1.19561">
        <ele>150.2</ele>
        <time>2011-05-01T09:34:06Z</time>
      </trkpt>
      <trkpt lat="49.37163" lon="1.19563">
        <ele>149.6</ele>
        <time>2011-05-01T09:34:08Z</time>
      </trkpt>
      <trkpt lat="49.37156" lon="1.19564">
        <ele>149.2</ele>
        <time>2011-05-01T09:34:09Z</time>
      </trkpt>
      <trkpt lat="49.37142" lon="1.19565">
        <ele>148.4</ele>
        <time>2011-05-01T09:34:11Z</time>
      </trkpt>
      <trkpt lat="49.37135" lon="1.19566">
        <ele>148</ele>
        <time>2011-05-01T09:34:12Z</time>
      </trkpt>
      <trkpt lat="49.37117" lon="1.19569">
        <ele>147.2</ele>
        <time>2011-05-01T09:34:15Z</time>
      </trkpt>
      <trkpt lat="49.37111" lon="1.19567">
        <ele>146.8</ele>
        <time>2011-05-01T09:34:16Z</time>
      </trkpt>
      <trkpt lat="49.37101" lon="1.19566">
        <ele>146</ele>
        <time>2011-05-01T09:34:18Z</time>
      </trkpt>
      <trkpt lat="49.37095" lon="1.19567">
        <ele>145.8</ele>
        <time>2011-05-01T09:34:19Z</time>
      </trkpt>
      <trkpt lat="49.37091" lon="1.19564">
        <ele>145.4</ele>
        <time>2011-05-01T09:34:20Z</time>
      </trkpt>
      <trkpt lat="49.37083" lon="1.19564">
        <ele>145</ele>
        <time>2011-05-01T09:34:22Z</time>
      </trkpt>
      <trkpt lat="49.37077" lon="1.19565">
        <ele>144.8</ele>
        <time>2011-05-01T09:34:23Z</time>
      </trkpt>
      <trkpt lat="49.37073" lon="1.19565">
        <ele>144.6</ele>
        <time>2011-05-01T09:34:24Z</time>
      </trkpt>
      <trkpt lat="49.37062" lon="1.19566">
        <ele>144</ele>
        <time>2011-05-01T09:34:26Z</time>
      </trkpt>
      <trkpt lat="49.37055" lon="1.19568">
        <ele>143.6</ele>
        <time>2011-05-01T09:34:27Z</time>
      </trkpt>
      <trkpt lat="49.37048" lon="1.19572">
        <ele>143.4</ele>
        <time>2011-05-01T09:34:28Z</time>
      </trkpt>
      <trkpt lat="49.37038" lon="1.19577">
        <ele>143</ele>
        <time>2011-05-01T09:34:29Z</time>
      </trkpt>
      <trkpt lat="49.37021" lon="1.19584">
        <ele>142</ele>
        <time>2011-05-01T09:34:31Z</time>
      </trkpt>
      <trkpt lat="49.37013" lon="1.19585">
        <ele>141.6</ele>
        <time>2011-05-01T09:34:32Z</time>
      </trkpt>
      <trkpt lat="49.36996" lon="1.19589">
        <ele>140.6</ele>
        <time>2011-05-01T09:34:34Z</time>
      </trkpt>
      <trkpt lat="49.36987" lon="1.19591">
        <ele>140</ele>
        <time>2011-05-01T09:34:35Z</time>
      </trkpt>
      <trkpt lat="49.36978" lon="1.19597">
        <ele>139.4</ele>
        <time>2011-05-01T09:34:36Z</time>
      </trkpt>
      <trkpt lat="49.36971" lon="1.19603">
        <ele>138.8</ele>
        <time>2011-05-01T09:34:37Z</time>
      </trkpt>
      <trkpt lat="49.36962" lon="1.19608">
        <ele>138.2</ele>
        <time>2011-05-01T09:34:38Z</time>
      </trkpt>
      <trkpt lat="49.36947" lon="1.19617">
        <ele>136.8</ele>
        <time>2011-05-01T09:34:40Z</time>
      </trkpt>
      <trkpt lat="49.36939" lon="1.1962">
        <ele>136</ele>
        <time>2011-05-01T09:34:41Z</time>
      </trkpt>
      <trkpt lat="49.36921" lon="1.19621">
        <ele>134.4</ele>
        <time>2011-05-01T09:34:43Z</time>
      </trkpt>
      <trkpt lat="49.36906" lon="1.19631">
        <ele>132.6</ele>
        <time>2011-05-01T09:34:45Z</time>
      </trkpt>
      <trkpt lat="49.36893" lon="1.19648">
        <ele>130.8</ele>
        <time>2011-05-01T09:34:47Z</time>
      </trkpt>
      <trkpt lat="49.36889" lon="1.19656">
        <ele>129.8</ele>
        <time>2011-05-01T09:34:48Z</time>
      </trkpt>
      <trkpt lat="49.36872" lon="1.19678">
        <ele>126.6</ele>
        <time>2011-05-01T09:34:51Z</time>
      </trkpt>
      <trkpt lat="49.36867" lon="1.19686">
        <ele>125.4</ele>
        <time>2011-05-01T09:34:52Z</time>
      </trkpt>
      <trkpt lat="49.36861" lon="1.19692">
        <ele>124.2</ele>
        <time>2011-05-01T09:34:53Z</time>
      </trkpt>
      <trkpt lat="49.36844" lon="1.1971">
        <ele>121.6</ele>
        <time>2011-05-01T09:34:55Z</time>
      </trkpt>
      <trkpt lat="49.36828" lon="1.19725">
        <ele>119.4</ele>
        <time>2011-05-01T09:34:57Z</time>
      </trkpt>
      <trkpt lat="49.36824" lon="1.19731">
        <ele>118.2</ele>
        <time>2011-05-01T09:34:58Z</time>
      </trkpt>
      <trkpt lat="49.36816" lon="1.19739">
        <ele>116</ele>
        <time>2011-05-01T09:35:00Z</time>
      </trkpt>
      <trkpt lat="49.36809" lon="1.19741">
        <ele>114.2</ele>
        <time>2011-05-01T09:35:02Z</time>
      </trkpt>
      <trkpt lat="49.36799" lon="1.19743">
        <ele>112.2</ele>
        <time>2011-05-01T09:35:04Z</time>
      </trkpt>
      <trkpt lat="49.36793" lon="1.19744">
        <ele>111.2</ele>
        <time>2011-05-01T09:35:05Z</time>
      </trkpt>
      <trkpt lat="49.36783" lon="1.19745">
        <ele>110.2</ele>
        <time>2011-05-01T09:35:06Z</time>
      </trkpt>
      <trkpt lat="49.36766" lon="1.1974">
        <ele>108.2</ele>
        <time>2011-05-01T09:35:08Z</time>
      </trkpt>
      <trkpt lat="49.36752" lon="1.19736">
        <ele>106.2</ele>
        <time>2011-05-01T09:35:10Z</time>
      </trkpt>
      <trkpt lat="49.36745" lon="1.19735">
        <ele>105.4</ele>
        <time>2011-05-01T09:35:11Z</time>
      </trkpt>
      <trkpt lat="49.3674" lon="1.19734">
        <ele>104.4</ele>
        <time>2011-05-01T09:35:12Z</time>
      </trkpt>
      <trkpt lat="49.36734" lon="1.19733">
        <ele>103.4</ele>
        <time>2011-05-01T09:35:13Z</time>
      </trkpt>
      <trkpt lat="49.36716" lon="1.19735">
        <ele>102.6</ele>
        <time>2011-05-01T09:35:14Z</time>
      </trkpt>
      <trkpt lat="49.36699" lon="1.19744">
        <ele>100.6</ele>
        <time>2011-05-01T09:35:16Z</time>
      </trkpt>
      <trkpt lat="49.36695" lon="1.19748">
        <ele>99.8</ele>
        <time>2011-05-01T09:35:17Z</time>
      </trkpt>
      <trkpt lat="49.3669" lon="1.19757">
        <ele>99</ele>
        <time>2011-05-01T09:35:18Z</time>
      </trkpt>
      <trkpt lat="49.36678" lon="1.19773">
        <ele>97.4</ele>
        <time>2011-05-01T09:35:20Z</time>
      </trkpt>
      <trkpt lat="49.3667" lon="1.19793">
        <ele>95.8</ele>
        <time>2011-05-01T09:35:22Z</time>
      </trkpt>
      <trkpt lat="49.36661" lon="1.1981">
        <ele>94.6</ele>
        <time>2011-05-01T09:35:24Z</time>
      </trkpt>
      <trkpt lat="49.36655" lon="1.19818">
        <ele>94</ele>
        <time>2011-05-01T09:35:25Z</time>
      </trkpt>
      <trkpt lat="49.36649" lon="1.19822">
        <ele>93.6</ele>
        <time>2011-05-01T09:35:26Z</time>
      </trkpt>
      <trkpt lat="49.36645" lon="1.19826">
        <ele>93.2</ele>
        <time>2011-05-01T09:35:27Z</time>
      </trkpt>
      <trkpt lat="49.36623" lon="1.19834">
        <ele>92</ele>
        <time>2011-05-01T09:35:31Z</time>
      </trkpt>
      <trkpt lat="49.3661" lon="1.19841">
        <ele>91</ele>
        <time>2011-05-01T09:35:34Z</time>
      </trkpt>
      <trkpt lat="49.36606" lon="1.19845">
        <ele>90.6</ele>
        <time>2011-05-01T09:35:35Z</time>
      </trkpt>
      <trkpt lat="49.36604" lon="1.19849">
        <ele>90.4</ele>
        <time>2011-05-01T09:35:36Z</time>
      </trkpt>
      <trkpt lat="49.36587" lon="1.19852">
        <ele>89.8</ele>
        <time>2011-05-01T09:35:38Z</time>
      </trkpt>
      <trkpt lat="49.36579" lon="1.19853">
        <ele>89.6</ele>
        <time>2011-05-01T09:35:39Z</time>
      </trkpt>
      <trkpt lat="49.36571" lon="1.19853">
        <ele>89.4</ele>
        <time>2011-05-01T09:35:40Z</time>
      </trkpt>
      <trkpt lat="49.36563" lon="1.19854">
        <ele>89.2</ele>
        <time>2011-05-01T09:35:41Z</time>
      </trkpt>
      <trkpt lat="49.36536" lon="1.19853">
        <ele>88.2</ele>
        <time>2011-05-01T09:35:47Z</time>
      </trkpt>
      <trkpt lat="49.36522" lon="1.19848">
        <ele>88</ele>
        <time>2011-05-01T09:35:50Z</time>
      </trkpt>
      <trkpt lat="49.36484" lon="1.19845">
        <ele>87.2</ele>
        <time>2011-05-01T09:35:53Z</time>
      </trkpt>
      <trkpt lat="49.36468" lon="1.19853">
        <ele>87</ele>
        <time>2011-05-01T09:35:55Z</time>
      </trkpt>
      <trkpt lat="49.36461" lon="1.19858">
        <ele>86.8</ele>
        <time>2011-05-01T09:35:56Z</time>
      </trkpt>
      <trkpt lat="49.36439" lon="1.1987">
        <ele>86.4</ele>
        <time>2011-05-01T09:35:59Z</time>
      </trkpt>
      <trkpt lat="49.36434" lon="1.19875">
        <ele>86.2</ele>
        <time>2011-05-01T09:36:00Z</time>
      </trkpt>
      <trkpt lat="49.36413" lon="1.19908">
        <ele>86</ele>
        <time>2011-05-01T09:36:04Z</time>
      </trkpt>
      <trkpt lat="49.36406" lon="1.19919">
        <ele>85.8</ele>
        <time>2011-05-01T09:36:05Z</time>
      </trkpt>
      <trkpt lat="49.36392" lon="1.19957">
        <ele>85.6</ele>
        <time>2011-05-01T09:36:09Z</time>
      </trkpt>
      <trkpt lat="49.36387" lon="1.19966">
        <ele>85.6</ele>
        <time>2011-05-01T09:36:10Z</time>
      </trkpt>
      <trkpt lat="49.36384" lon="1.19975">
        <ele>85.6</ele>
        <time>2011-05-01T09:36:11Z</time>
      </trkpt>
      <trkpt lat="49.36379" lon="1.20008">
        <ele>85.4</ele>
        <time>2011-05-01T09:36:14Z</time>
      </trkpt>
      <trkpt lat="49.36374" lon="1.20035">
        <ele>84.8</ele>
        <time>2011-05-01T09:36:16Z</time>
      </trkpt>
      <trkpt lat="49.3637" lon="1.20045">
        <ele>84.8</ele>
        <time>2011-05-01T09:36:17Z</time>
      </trkpt>
      <trkpt lat="49.36362" lon="1.2007">
        <ele>84.2</ele>
        <time>2011-05-01T09:36:20Z</time>
      </trkpt>
      <trkpt lat="49.3636" lon="1.20079">
        <ele>84.2</ele>
        <time>2011-05-01T09:36:21Z</time>
      </trkpt>
      <trkpt lat="49.36346" lon="1.20107">
        <ele>83.8</ele>
        <time>2011-05-01T09:36:25Z</time>
      </trkpt>
      <trkpt lat="49.36328" lon="1.20136">
        <ele>83.4</ele>
        <time>2011-05-01T09:36:30Z</time>
      </trkpt>
      <trkpt lat="49.36327" lon="1.20138">
        <ele>83.2</ele>
        <time>2011-05-01T09:36:31Z</time>
      </trkpt>
      <trkpt lat="49.36325" lon="1.20144">
        <ele>83</ele>
        <time>2011-05-01T09:36:32Z</time>
      </trkpt>
      <trkpt lat="49.36324" lon="1.20148">
        <ele>82.8</ele>
        <time>2011-05-01T09:36:33Z</time>
      </trkpt>
      <trkpt lat="49.36321" lon="1.20159">
        <ele>82.6</ele>
        <time>2011-05-01T09:36:35Z</time>
      </trkpt>
      <trkpt lat="49.36317" lon="1.2017">
        <ele>82.2</ele>
        <time>2011-05-01T09:36:37Z</time>
      </trkpt>
      <trkpt lat="49.36311" lon="1.20181">
        <ele>82</ele>
        <time>2011-05-01T09:36:39Z</time>
      </trkpt>
      <trkpt lat="49.36306" lon="1.20192">
        <ele>82</ele>
        <time>2011-05-01T09:36:40Z</time>
      </trkpt>
      <trkpt lat="49.36299" lon="1.20211">
        <ele>81.8</ele>
        <time>2011-05-01T09:36:42Z</time>
      </trkpt>
      <trkpt lat="49.36293" lon="1.20231">
        <ele>81.6</ele>
        <time>2011-05-01T09:36:44Z</time>
      </trkpt>
      <trkpt lat="49.36272" lon="1.20274">
        <ele>81.4</ele>
        <time>2011-05-01T09:36:49Z</time>
      </trkpt>
      <trkpt lat="49.36262" lon="1.20308">
        <ele>81.2</ele>
        <time>2011-05-01T09:36:53Z</time>
      </trkpt>
      <trkpt lat="49.36265" lon="1.20338">
        <ele>81.2</ele>
        <time>2011-05-01T09:36:57Z</time>
      </trkpt>
      <trkpt lat="49.36266" lon="1.20342">
        <ele>81.2</ele>
        <time>2011-05-01T09:36:58Z</time>
      </trkpt>
      <trkpt lat="49.36269" lon="1.20367">
        <ele>81.2</ele>
        <time>2011-05-01T09:37:02Z</time>
      </trkpt>
      <trkpt lat="49.36262" lon="1.20378">
        <ele>81.2</ele>
        <time>2011-05-01T09:37:05Z</time>
      </trkpt>
      <trkpt lat="49.36257" lon="1.20381">
        <ele>81.2</ele>
        <time>2011-05-01T09:37:07Z</time>
      </trkpt>
      <trkpt lat="49.36252" lon="1.20376">
        <ele>81.2</ele>
        <time>2011-05-01T09:37:12Z</time>
      </trkpt>
      <trkpt lat="49.36249" lon="1.20374">
        <ele>81.2</ele>
        <time>2011-05-01T09:37:13Z</time>
      </trkpt>
      <trkpt lat="49.36231" lon="1.20375">
        <ele>81</ele>
        <time>2011-05-01T09:37:17Z</time>
      </trkpt>
      <trkpt lat="49.36225" lon="1.20374">
        <ele>81</ele>
        <time>2011-05-01T09:37:18Z</time>
      </trkpt>
      <trkpt lat="49.36215" lon="1.20373">
        <ele>81</ele>
        <time>2011-05-01T09:37:20Z</time>
      </trkpt>
      <trkpt lat="49.36195" lon="1.20368">
        <ele>80.8</ele>
        <time>2011-05-01T09:37:22Z</time>
      </trkpt>
      <trkpt lat="49.36178" lon="1.20364">
        <ele>80.6</ele>
        <time>2011-05-01T09:37:24Z</time>
      </trkpt>
      <trkpt lat="49.36173" lon="1.20361">
        <ele>80.4</ele>
        <time>2011-05-01T09:37:25Z</time>
      </trkpt>
      <trkpt lat="49.36171" lon="1.20359">
        <ele>80.2</ele>
        <time>2011-05-01T09:37:26Z</time>
      </trkpt>
      <trkpt lat="49.36167" lon="1.20354">
        <ele>80.2</ele>
        <time>2011-05-01T09:37:27Z</time>
      </trkpt>
      <trkpt lat="49.36165" lon="1.2035">
        <ele>80</ele>
        <time>2011-05-01T09:37:28Z</time>
      </trkpt>
      <trkpt lat="49.36158" lon="1.20341">
        <ele>79.8</ele>
        <time>2011-05-01T09:37:30Z</time>
      </trkpt>
      <trkpt lat="49.36153" lon="1.20337">
        <ele>79.8</ele>
        <time>2011-05-01T09:37:31Z</time>
      </trkpt>
      <trkpt lat="49.36131" lon="1.20319">
        <ele>79.4</ele>
        <time>2011-05-01T09:37:36Z</time>
      </trkpt>
      <trkpt lat="49.36125" lon="1.20307">
        <ele>79.4</ele>
        <time>2011-05-01T09:37:39Z</time>
      </trkpt>
      <trkpt lat="49.36098" lon="1.20277">
        <ele>79</ele>
        <time>2011-05-01T09:37:44Z</time>
      </trkpt>
      <trkpt lat="49.36085" lon="1.20267">
        <ele>78.6</ele>
        <time>2011-05-01T09:37:46Z</time>
      </trkpt>
      <trkpt lat="49.36077" lon="1.20261">
        <ele>78.4</ele>
        <time>2011-05-01T09:37:48Z</time>
      </trkpt>
      <trkpt lat="49.3607" lon="1.20254">
        <ele>78</ele>
        <time>2011-05-01T09:37:50Z</time>
      </trkpt>
      <trkpt lat="49.36067" lon="1.20252">
        <ele>78</ele>
        <time>2011-05-01T09:37:51Z</time>
      </trkpt>
      <trkpt lat="49.36039" lon="1.20242">
        <ele>77.6</ele>
        <time>2011-05-01T09:37:56Z</time>
      </trkpt>
      <trkpt lat="49.36019" lon="1.20227">
        <ele>77.4</ele>
        <time>2011-05-01T09:38:01Z</time>
      </trkpt>
      <trkpt lat="49.36009" lon="1.20224">
        <ele>77.2</ele>
        <time>2011-05-01T09:38:03Z</time>
      </trkpt>
      <trkpt lat="49.35975" lon="1.20222">
        <ele>77.2</ele>
        <time>2011-05-01T09:38:09Z</time>
      </trkpt>
      <trkpt lat="49.3595" lon="1.20212">
        <ele>77</ele>
        <time>2011-05-01T09:38:14Z</time>
      </trkpt>
      <trkpt lat="49.35937" lon="1.20207">
        <ele>77</ele>
        <time>2011-05-01T09:38:18Z</time>
      </trkpt>
      <trkpt lat="49.35933" lon="1.20205">
        <ele>77</ele>
        <time>2011-05-01T09:38:20Z</time>
      </trkpt>
      <trkpt lat="49.35923" lon="1.20199">
        <ele>76.8</ele>
        <time>2011-05-01T09:38:22Z</time>
      </trkpt>
      <trkpt lat="49.35918" lon="1.20193">
        <ele>76.4</ele>
        <time>2011-05-01T09:38:24Z</time>
      </trkpt>
      <trkpt lat="49.35914" lon="1.20185">
        <ele>76.2</ele>
        <time>2011-05-01T09:38:26Z</time>
      </trkpt>
      <trkpt lat="49.3591" lon="1.20177">
        <ele>76</ele>
        <time>2011-05-01T09:38:28Z</time>
      </trkpt>
      <trkpt lat="49.3591" lon="1.20174">
        <ele>75.8</ele>
        <time>2011-05-01T09:38:29Z</time>
      </trkpt>
      <trkpt lat="49.35909" lon="1.20167">
        <ele>75.8</ele>
        <time>2011-05-01T09:38:30Z</time>
      </trkpt>
      <trkpt lat="49.35899" lon="1.20144">
        <ele>75.4</ele>
        <time>2011-05-01T09:38:35Z</time>
      </trkpt>
      <trkpt lat="49.35898" lon="1.20141">
        <ele>75.4</ele>
        <time>2011-05-01T09:38:36Z</time>
      </trkpt>
      <trkpt lat="49.35895" lon="1.20135">
        <ele>75.2</ele>
        <time>2011-05-01T09:38:38Z</time>
      </trkpt>
      <trkpt lat="49.35894" lon="1.20126">
        <ele>75.2</ele>
        <time>2011-05-01T09:38:42Z</time>
      </trkpt>
      <trkpt lat="49.35897" lon="1.20122">
        <ele>75.6</ele>
        <time>2011-05-01T09:38:45Z</time>
      </trkpt>
      <trkpt lat="49.35899" lon="1.20118">
        <ele>76</ele>
        <time>2011-05-01T09:38:47Z</time>
      </trkpt>
      <trkpt lat="49.359" lon="1.20117">
        <ele>76.4</ele>
        <time>2011-05-01T09:38:49Z</time>
      </trkpt>
      <trkpt lat="49.35898" lon="1.20116">
        <ele>77</ele>
        <time>2011-05-01T09:38:51Z</time>
      </trkpt>
      <trkpt lat="49.35898" lon="1.20115">
        <ele>77.4</ele>
        <time>2011-05-01T09:38:53Z</time>
      </trkpt>
      <trkpt lat="49.35897" lon="1.20114">
        <ele>78</ele>
        <time>2011-05-01T09:38:56Z</time>
      </trkpt>
      <trkpt lat="49.35897" lon="1.20113">
        <ele>78.4</ele>
        <time>2011-05-01T09:38:57Z</time>
      </trkpt>
      <trkpt lat="49.35897" lon="1.20111">
        <ele>79</ele>
        <time>2011-05-01T09:38:59Z</time>
      </trkpt>
      <trkpt lat="49.35898" lon="1.2011">
        <ele>79.4</ele>
        <time>2011-05-01T09:39:01Z</time>
      </trkpt>
      <trkpt lat="49.35899" lon="1.20109">
        <ele>79.8</ele>
        <time>2011-05-01T09:39:03Z</time>
      </trkpt>
      <trkpt lat="49.359" lon="1.20108">
        <ele>80.2</ele>
        <time>2011-05-01T09:39:05Z</time>
      </trkpt>
      <trkpt lat="49.35902" lon="1.20106">
        <ele>80.8</ele>
        <time>2011-05-01T09:39:08Z</time>
      </trkpt>
      <trkpt lat="49.35903" lon="1.20105">
        <ele>81.4</ele>
        <time>2011-05-01T09:39:10Z</time>
      </trkpt>
      <trkpt lat="49.35904" lon="1.20104">
        <ele>81.8</ele>
        <time>2011-05-01T09:39:12Z</time>
      </trkpt>
      <trkpt lat="49.35904" lon="1.20104">
        <ele>82.2</ele>
        <time>2011-05-01T09:39:14Z</time>
      </trkpt>
      <trkpt lat="49.35905" lon="1.20103">
        <ele>82.4</ele>
        <time>2011-05-01T09:39:15Z</time>
      </trkpt>
      <trkpt lat="49.35909" lon="1.20088">
        <ele>83</ele>
        <time>2011-05-01T09:39:22Z</time>
      </trkpt>
      <trkpt lat="49.35911" lon="1.20083">
        <ele>83.4</ele>
        <time>2011-05-01T09:39:25Z</time>
      </trkpt>
      <trkpt lat="49.3591" lon="1.20078">
        <ele>84</ele>
        <time>2011-05-01T09:39:27Z</time>
      </trkpt>
      <trkpt lat="49.35909" lon="1.20075">
        <ele>84.4</ele>
        <time>2011-05-01T09:39:29Z</time>
      </trkpt>
      <trkpt lat="49.35909" lon="1.20071">
        <ele>84.6</ele>
        <time>2011-05-01T09:39:31Z</time>
      </trkpt>
      <trkpt lat="49.35909" lon="1.20066">
        <ele>85</ele>
        <time>2011-05-01T09:39:33Z</time>
      </trkpt>
      <trkpt lat="49.35908" lon="1.20062">
        <ele>85.6</ele>
        <time>2011-05-01T09:39:35Z</time>
      </trkpt>
      <trkpt lat="49.35908" lon="1.2006">
        <ele>86</ele>
        <time>2011-05-01T09:39:37Z</time>
      </trkpt>
      <trkpt lat="49.35908" lon="1.20056">
        <ele>86.4</ele>
        <time>2011-05-01T09:39:39Z</time>
      </trkpt>
      <trkpt lat="49.35908" lon="1.20054">
        <ele>86.8</ele>
        <time>2011-05-01T09:39:40Z</time>
      </trkpt>
      <trkpt lat="49.35911" lon="1.20051">
        <ele>87.4</ele>
        <time>2011-05-01T09:39:42Z</time>
      </trkpt>
      <trkpt lat="49.35913" lon="1.20048">
        <ele>88</ele>
        <time>2011-05-01T09:39:44Z</time>
      </trkpt>
      <trkpt lat="49.35915" lon="1.20046">
        <ele>88.4</ele>
        <time>2011-05-01T09:39:46Z</time>
      </trkpt>
      <trkpt lat="49.35918" lon="1.20044">
        <ele>88.6</ele>
        <time>2011-05-01T09:39:48Z</time>
      </trkpt>
      <trkpt lat="49.35922" lon="1.20041">
        <ele>89.4</ele>
        <time>2011-05-01T09:39:52Z</time>
      </trkpt>
      <trkpt lat="49.35926" lon="1.20036">
        <ele>90</ele>
        <time>2011-05-01T09:39:54Z</time>
      </trkpt>
      <trkpt lat="49.35931" lon="1.20035">
        <ele>90.4</ele>
        <time>2011-05-01T09:39:56Z</time>
      </trkpt>
      <trkpt lat="49.35933" lon="1.20035">
        <ele>90.6</ele>
        <time>2011-05-01T09:39:57Z</time>
      </trkpt>
      <trkpt lat="49.35936" lon="1.20038">
        <ele>91</ele>
        <time>2011-05-01T09:40:00Z</time>
      </trkpt>
      <trkpt lat="49.35941" lon="1.20035">
        <ele>91.4</ele>
        <time>2011-05-01T09:40:04Z</time>
      </trkpt>
      <trkpt lat="49.35949" lon="1.20029">
        <ele>91.8</ele>
        <time>2011-05-01T09:40:09Z</time>
      </trkpt>
      <trkpt lat="49.35951" lon="1.20028">
        <ele>92.4</ele>
        <time>2011-05-01T09:40:11Z</time>
      </trkpt>
      <trkpt lat="49.35953" lon="1.20029">
        <ele>92.8</ele>
        <time>2011-05-01T09:40:13Z</time>
      </trkpt>
      <trkpt lat="49.35958" lon="1.20028">
        <ele>93.6</ele>
        <time>2011-05-01T09:40:20Z</time>
      </trkpt>
      <trkpt lat="49.3596" lon="1.20028">
        <ele>93.6</ele>
        <time>2011-05-01T09:40:22Z</time>
      </trkpt>
      <trkpt lat="49.35962" lon="1.20028">
        <ele>93.8</ele>
        <time>2011-05-01T09:40:24Z</time>
      </trkpt>
      <trkpt lat="49.35964" lon="1.20028">
        <ele>94.2</ele>
        <time>2011-05-01T09:40:26Z</time>
      </trkpt>
      <trkpt lat="49.35964" lon="1.20028">
        <ele>94.4</ele>
        <time>2011-05-01T09:40:27Z</time>
      </trkpt>
      <trkpt lat="49.35968" lon="1.20029">
        <ele>95.4</ele>
        <time>2011-05-01T09:40:33Z</time>
      </trkpt>
      <trkpt lat="49.35969" lon="1.20029">
        <ele>95.4</ele>
        <time>2011-05-01T09:40:34Z</time>
      </trkpt>
      <trkpt lat="49.3597" lon="1.20028">
        <ele>95.8</ele>
        <time>2011-05-01T09:40:35Z</time>
      </trkpt>
      <trkpt lat="49.35973" lon="1.20026">
        <ele>96.2</ele>
        <time>2011-05-01T09:40:37Z</time>
      </trkpt>
      <trkpt lat="49.35974" lon="1.20025">
        <ele>96.6</ele>
        <time>2011-05-01T09:40:39Z</time>
      </trkpt>
      <trkpt lat="49.35975" lon="1.20024">
        <ele>97</ele>
        <time>2011-05-01T09:40:41Z</time>
      </trkpt>
      <trkpt lat="49.35977" lon="1.20023">
        <ele>97.4</ele>
        <time>2011-05-01T09:40:43Z</time>
      </trkpt>
      <trkpt lat="49.35977" lon="1.20023">
        <ele>97.6</ele>
        <time>2011-05-01T09:40:44Z</time>
      </trkpt>
      <trkpt lat="49.35978" lon="1.2002">
        <ele>98.2</ele>
        <time>2011-05-01T09:40:46Z</time>
      </trkpt>
      <trkpt lat="49.35979" lon="1.20019">
        <ele>98.6</ele>
        <time>2011-05-01T09:40:48Z</time>
      </trkpt>
      <trkpt lat="49.3598" lon="1.20018">
        <ele>99</ele>
        <time>2011-05-01T09:40:50Z</time>
      </trkpt>
      <trkpt lat="49.35981" lon="1.20016">
        <ele>99.4</ele>
        <time>2011-05-01T09:40:52Z</time>
      </trkpt>
      <trkpt lat="49.35986" lon="1.2001">
        <ele>99.8</ele>
        <time>2011-05-01T09:40:56Z</time>
      </trkpt>
      <trkpt lat="49.35986" lon="1.20002">
        <ele>100</ele>
        <time>2011-05-01T09:41:00Z</time>
      </trkpt>
      <trkpt lat="49.35982" lon="1.19997">
        <ele>100.6</ele>
        <time>2011-05-01T09:41:05Z</time>
      </trkpt>
      <trkpt lat="49.35982" lon="1.19995">
        <ele>100.8</ele>
        <time>2011-05-01T09:41:06Z</time>
      </trkpt>
      <trkpt lat="49.35982" lon="1.19993">
        <ele>101</ele>
        <time>2011-05-01T09:41:07Z</time>
      </trkpt>
      <trkpt lat="49.35984" lon="1.19988">
        <ele>101.2</ele>
        <time>2011-05-01T09:41:09Z</time>
      </trkpt>
      <trkpt lat="49.35985" lon="1.19984">
        <ele>101.4</ele>
        <time>2011-05-01T09:41:10Z</time>
      </trkpt>
      <trkpt lat="49.35987" lon="1.19978">
        <ele>101.6</ele>
        <time>2011-05-01T09:41:11Z</time>
      </trkpt>
      <trkpt lat="49.35986" lon="1.19973">
        <ele>101.6</ele>
        <time>2011-05-01T09:41:12Z</time>
      </trkpt>
      <trkpt lat="49.35987" lon="1.19969">
        <ele>101.8</ele>
        <time>2011-05-01T09:41:13Z</time>
      </trkpt>
      <trkpt lat="49.35986" lon="1.19954">
        <ele>102</ele>
        <time>2011-05-01T09:41:16Z</time>
      </trkpt>
      <trkpt lat="49.35983" lon="1.19947">
        <ele>102.2</ele>
        <time>2011-05-01T09:41:18Z</time>
      </trkpt>
      <trkpt lat="49.3598" lon="1.19944">
        <ele>102.4</ele>
        <time>2011-05-01T09:41:21Z</time>
      </trkpt>
      <trkpt lat="49.35981" lon="1.19932">
        <ele>102.4</ele>
        <time>2011-05-01T09:41:25Z</time>
      </trkpt>
      <trkpt lat="49.35981" lon="1.19928">
        <ele>102.6</ele>
        <time>2011-05-01T09:41:26Z</time>
      </trkpt>
      <trkpt lat="49.3598" lon="1.19919">
        <ele>102.6</ele>
        <time>2011-05-01T09:41:28Z</time>
      </trkpt>
      <trkpt lat="49.35977" lon="1.199">
        <ele>102.6</ele>
        <time>2011-05-01T09:41:32Z</time>
      </trkpt>
      <trkpt lat="49.35979" lon="1.19888">
        <ele>102.6</ele>
        <time>2011-05-01T09:41:34Z</time>
      </trkpt>
      <trkpt lat="49.35978" lon="1.19865">
        <ele>102.6</ele>
        <time>2011-05-01T09:41:38Z</time>
      </trkpt>
      <trkpt lat="49.35973" lon="1.19841">
        <ele>102.8</ele>
        <time>2011-05-01T09:41:42Z</time>
      </trkpt>
      <trkpt lat="49.35975" lon="1.19829">
        <ele>102.8</ele>
        <time>2011-05-01T09:41:44Z</time>
      </trkpt>
      <trkpt lat="49.35982" lon="1.19796">
        <ele>102.8</ele>
        <time>2011-05-01T09:41:49Z</time>
      </trkpt>
      <trkpt lat="49.35985" lon="1.19768">
        <ele>102.8</ele>
        <time>2011-05-01T09:41:53Z</time>
      </trkpt>
      <trkpt lat="49.35991" lon="1.19743">
        <ele>102.8</ele>
        <time>2011-05-01T09:41:57Z</time>
      </trkpt>
      <trkpt lat="49.35995" lon="1.19729">
        <ele>102.8</ele>
        <time>2011-05-01T09:41:59Z</time>
      </trkpt>
      <trkpt lat="49.36003" lon="1.19695">
        <ele>102.8</ele>
        <time>2011-05-01T09:42:03Z</time>
      </trkpt>
      <trkpt lat="49.36015" lon="1.19648">
        <ele>103</ele>
        <time>2011-05-01T09:42:07Z</time>
      </trkpt>
      <trkpt lat="49.36018" lon="1.19637">
        <ele>103.4</ele>
        <time>2011-05-01T09:42:09Z</time>
      </trkpt>
      <trkpt lat="49.36018" lon="1.19626">
        <ele>103.6</ele>
        <time>2011-05-01T09:42:11Z</time>
      </trkpt>
      <trkpt lat="49.3602" lon="1.19621">
        <ele>103.8</ele>
        <time>2011-05-01T09:42:13Z</time>
      </trkpt>
      <trkpt lat="49.36022" lon="1.19609">
        <ele>104</ele>
        <time>2011-05-01T09:42:15Z</time>
      </trkpt>
      <trkpt lat="49.36028" lon="1.19584">
        <ele>104.4</ele>
        <time>2011-05-01T09:42:20Z</time>
      </trkpt>
      <trkpt lat="49.3603" lon="1.19579">
        <ele>104.6</ele>
        <time>2011-05-01T09:42:21Z</time>
      </trkpt>
      <trkpt lat="49.36033" lon="1.19567">
        <ele>105</ele>
        <time>2011-05-01T09:42:23Z</time>
      </trkpt>
      <trkpt lat="49.36035" lon="1.19558">
        <ele>105.4</ele>
        <time>2011-05-01T09:42:25Z</time>
      </trkpt>
      <trkpt lat="49.36038" lon="1.19548">
        <ele>105.8</ele>
        <time>2011-05-01T09:42:27Z</time>
      </trkpt>
      <trkpt lat="49.3604" lon="1.19539">
        <ele>106</ele>
        <time>2011-05-01T09:42:29Z</time>
      </trkpt>
      <trkpt lat="49.36042" lon="1.1953">
        <ele>106.4</ele>
        <time>2011-05-01T09:42:31Z</time>
      </trkpt>
      <trkpt lat="49.36044" lon="1.19519">
        <ele>106.8</ele>
        <time>2011-05-01T09:42:33Z</time>
      </trkpt>
      <trkpt lat="49.36047" lon="1.19508">
        <ele>107.2</ele>
        <time>2011-05-01T09:42:35Z</time>
      </trkpt>
      <trkpt lat="49.3605" lon="1.19496">
        <ele>107.6</ele>
        <time>2011-05-01T09:42:37Z</time>
      </trkpt>
      <trkpt lat="49.36053" lon="1.19486">
        <ele>107.8</ele>
        <time>2011-05-01T09:42:39Z</time>
      </trkpt>
      <trkpt lat="49.36059" lon="1.19467">
        <ele>108.4</ele>
        <time>2011-05-01T09:42:43Z</time>
      </trkpt>
      <trkpt lat="49.36061" lon="1.19459">
        <ele>109</ele>
        <time>2011-05-01T09:42:45Z</time>
      </trkpt>
      <trkpt lat="49.36063" lon="1.1945">
        <ele>109.4</ele>
        <time>2011-05-01T09:42:47Z</time>
      </trkpt>
      <trkpt lat="49.36065" lon="1.19441">
        <ele>109.6</ele>
        <time>2011-05-01T09:42:49Z</time>
      </trkpt>
      <trkpt lat="49.36067" lon="1.19434">
        <ele>110</ele>
        <time>2011-05-01T09:42:51Z</time>
      </trkpt>
      <trkpt lat="49.36071" lon="1.19415">
        <ele>110.6</ele>
        <time>2011-05-01T09:42:56Z</time>
      </trkpt>
      <trkpt lat="49.36074" lon="1.19406">
        <ele>111.2</ele>
        <time>2011-05-01T09:42:58Z</time>
      </trkpt>
      <trkpt lat="49.36076" lon="1.19397">
        <ele>111.6</ele>
        <time>2011-05-01T09:43:00Z</time>
      </trkpt>
      <trkpt lat="49.36077" lon="1.19388">
        <ele>111.8</ele>
        <time>2011-05-01T09:43:02Z</time>
      </trkpt>
      <trkpt lat="49.36079" lon="1.19378">
        <ele>112.2</ele>
        <time>2011-05-01T09:43:04Z</time>
      </trkpt>
      <trkpt lat="49.36082" lon="1.1937">
        <ele>112.6</ele>
        <time>2011-05-01T09:43:06Z</time>
      </trkpt>
      <trkpt lat="49.36084" lon="1.19361">
        <ele>113.2</ele>
        <time>2011-05-01T09:43:08Z</time>
      </trkpt>
      <trkpt lat="49.36086" lon="1.19352">
        <ele>113.6</ele>
        <time>2011-05-01T09:43:10Z</time>
      </trkpt>
      <trkpt lat="49.36087" lon="1.19345">
        <ele>114</ele>
        <time>2011-05-01T09:43:12Z</time>
      </trkpt>
      <trkpt lat="49.36089" lon="1.19338">
        <ele>114.2</ele>
        <time>2011-05-01T09:43:14Z</time>
      </trkpt>
      <trkpt lat="49.3609" lon="1.19323">
        <ele>114.8</ele>
        <time>2011-05-01T09:43:19Z</time>
      </trkpt>
      <trkpt lat="49.36095" lon="1.19299">
        <ele>115.2</ele>
        <time>2011-05-01T09:43:24Z</time>
      </trkpt>
      <trkpt lat="49.36097" lon="1.19294">
        <ele>115.4</ele>
        <time>2011-05-01T09:43:25Z</time>
      </trkpt>
      <trkpt lat="49.36098" lon="1.19282">
        <ele>115.8</ele>
        <time>2011-05-01T09:43:27Z</time>
      </trkpt>
      <trkpt lat="49.361" lon="1.19271">
        <ele>116.2</ele>
        <time>2011-05-01T09:43:29Z</time>
      </trkpt>
      <trkpt lat="49.36101" lon="1.19262">
        <ele>116.6</ele>
        <time>2011-05-01T09:43:31Z</time>
      </trkpt>
      <trkpt lat="49.36104" lon="1.19252">
        <ele>116.8</ele>
        <time>2011-05-01T09:43:33Z</time>
      </trkpt>
      <trkpt lat="49.36105" lon="1.19234">
        <ele>117.4</ele>
        <time>2011-05-01T09:43:37Z</time>
      </trkpt>
      <trkpt lat="49.36106" lon="1.19227">
        <ele>117.8</ele>
        <time>2011-05-01T09:43:39Z</time>
      </trkpt>
      <trkpt lat="49.36106" lon="1.19222">
        <ele>118.2</ele>
        <time>2011-05-01T09:43:41Z</time>
      </trkpt>
      <trkpt lat="49.36107" lon="1.19216">
        <ele>118.6</ele>
        <time>2011-05-01T09:43:43Z</time>
      </trkpt>
      <trkpt lat="49.36108" lon="1.1921">
        <ele>118.8</ele>
        <time>2011-05-01T09:43:45Z</time>
      </trkpt>
      <trkpt lat="49.36112" lon="1.19188">
        <ele>119.4</ele>
        <time>2011-05-01T09:43:51Z</time>
      </trkpt>
      <trkpt lat="49.36112" lon="1.19183">
        <ele>119.6</ele>
        <time>2011-05-01T09:43:52Z</time>
      </trkpt>
      <trkpt lat="49.36112" lon="1.19173">
        <ele>120.2</ele>
        <time>2011-05-01T09:43:54Z</time>
      </trkpt>
      <trkpt lat="49.36114" lon="1.19164">
        <ele>120.4</ele>
        <time>2011-05-01T09:43:56Z</time>
      </trkpt>
      <trkpt lat="49.36115" lon="1.19156">
        <ele>120.8</ele>
        <time>2011-05-01T09:43:58Z</time>
      </trkpt>
      <trkpt lat="49.36117" lon="1.19148">
        <ele>121</ele>
        <time>2011-05-01T09:44:00Z</time>
      </trkpt>
      <trkpt lat="49.36117" lon="1.19136">
        <ele>121.4</ele>
        <time>2011-05-01T09:44:04Z</time>
      </trkpt>
      <trkpt lat="49.36117" lon="1.19129">
        <ele>121.8</ele>
        <time>2011-05-01T09:44:06Z</time>
      </trkpt>
      <trkpt lat="49.36115" lon="1.19121">
        <ele>122.2</ele>
        <time>2011-05-01T09:44:08Z</time>
      </trkpt>
      <trkpt lat="49.36116" lon="1.19113">
        <ele>122.6</ele>
        <time>2011-05-01T09:44:10Z</time>
      </trkpt>
      <trkpt lat="49.36118" lon="1.19105">
        <ele>123</ele>
        <time>2011-05-01T09:44:12Z</time>
      </trkpt>
      <trkpt lat="49.3612" lon="1.191">
        <ele>123.2</ele>
        <time>2011-05-01T09:44:13Z</time>
      </trkpt>
      <trkpt lat="49.36122" lon="1.19091">
        <ele>123.8</ele>
        <time>2011-05-01T09:44:15Z</time>
      </trkpt>
      <trkpt lat="49.36123" lon="1.19081">
        <ele>124.4</ele>
        <time>2011-05-01T09:44:17Z</time>
      </trkpt>
      <trkpt lat="49.36125" lon="1.19071">
        <ele>124.8</ele>
        <time>2011-05-01T09:44:19Z</time>
      </trkpt>
      <trkpt lat="49.36126" lon="1.19067">
        <ele>125.2</ele>
        <time>2011-05-01T09:44:20Z</time>
      </trkpt>
      <trkpt lat="49.36128" lon="1.19058">
        <ele>125.8</ele>
        <time>2011-05-01T09:44:22Z</time>
      </trkpt>
      <trkpt lat="49.36129" lon="1.19051">
        <ele>126.4</ele>
        <time>2011-05-01T09:44:24Z</time>
      </trkpt>
      <trkpt lat="49.36129" lon="1.19044">
        <ele>126.8</ele>
        <time>2011-05-01T09:44:26Z</time>
      </trkpt>
      <trkpt lat="49.3613" lon="1.19037">
        <ele>127.4</ele>
        <time>2011-05-01T09:44:28Z</time>
      </trkpt>
      <trkpt lat="49.36131" lon="1.1903">
        <ele>128</ele>
        <time>2011-05-01T09:44:30Z</time>
      </trkpt>
      <trkpt lat="49.36133" lon="1.19023">
        <ele>128.6</ele>
        <time>2011-05-01T09:44:32Z</time>
      </trkpt>
      <trkpt lat="49.36134" lon="1.19016">
        <ele>129</ele>
        <time>2011-05-01T09:44:34Z</time>
      </trkpt>
      <trkpt lat="49.36135" lon="1.19009">
        <ele>129.4</ele>
        <time>2011-05-01T09:44:36Z</time>
      </trkpt>
      <trkpt lat="49.36134" lon="1.19">
        <ele>129.6</ele>
        <time>2011-05-01T09:44:39Z</time>
      </trkpt>
      <trkpt lat="49.3613" lon="1.18997">
        <ele>130.6</ele>
        <time>2011-05-01T09:44:42Z</time>
      </trkpt>
      <trkpt lat="49.36128" lon="1.18999">
        <ele>131</ele>
        <time>2011-05-01T09:44:44Z</time>
      </trkpt>
      <trkpt lat="49.36126" lon="1.19">
        <ele>131.2</ele>
        <time>2011-05-01T09:44:45Z</time>
      </trkpt>
      <trkpt lat="49.36121" lon="1.19006">
        <ele>131.8</ele>
        <time>2011-05-01T09:44:48Z</time>
      </trkpt>
      <trkpt lat="49.36117" lon="1.1901">
        <ele>132.2</ele>
        <time>2011-05-01T09:44:50Z</time>
      </trkpt>
      <trkpt lat="49.36113" lon="1.19013">
        <ele>132.8</ele>
        <time>2011-05-01T09:44:52Z</time>
      </trkpt>
      <trkpt lat="49.36109" lon="1.19015">
        <ele>133.2</ele>
        <time>2011-05-01T09:44:54Z</time>
      </trkpt>
      <trkpt lat="49.36105" lon="1.19016">
        <ele>133.6</ele>
        <time>2011-05-01T09:44:56Z</time>
      </trkpt>
      <trkpt lat="49.36101" lon="1.19018">
        <ele>133.8</ele>
        <time>2011-05-01T09:44:58Z</time>
      </trkpt>
      <trkpt lat="49.36097" lon="1.1902">
        <ele>134.4</ele>
        <time>2011-05-01T09:45:00Z</time>
      </trkpt>
      <trkpt lat="49.36094" lon="1.19022">
        <ele>135</ele>
        <time>2011-05-01T09:45:02Z</time>
      </trkpt>
      <trkpt lat="49.3609" lon="1.19023">
        <ele>135.4</ele>
        <time>2011-05-01T09:45:04Z</time>
      </trkpt>
      <trkpt lat="49.36086" lon="1.19024">
        <ele>135.8</ele>
        <time>2011-05-01T09:45:06Z</time>
      </trkpt>
      <trkpt lat="49.36083" lon="1.19026">
        <ele>136</ele>
        <time>2011-05-01T09:45:08Z</time>
      </trkpt>
      <trkpt lat="49.36075" lon="1.19031">
        <ele>136.6</ele>
        <time>2011-05-01T09:45:11Z</time>
      </trkpt>
      <trkpt lat="49.36071" lon="1.19033">
        <ele>137.2</ele>
        <time>2011-05-01T09:45:13Z</time>
      </trkpt>
      <trkpt lat="49.36067" lon="1.19037">
        <ele>137.6</ele>
        <time>2011-05-01T09:45:15Z</time>
      </trkpt>
      <trkpt lat="49.36063" lon="1.1904">
        <ele>138</ele>
        <time>2011-05-01T09:45:17Z</time>
      </trkpt>
      <trkpt lat="49.36059" lon="1.19041">
        <ele>138.2</ele>
        <time>2011-05-01T09:45:19Z</time>
      </trkpt>
      <trkpt lat="49.3605" lon="1.19046">
        <ele>139</ele>
        <time>2011-05-01T09:45:23Z</time>
      </trkpt>
      <trkpt lat="49.36045" lon="1.19048">
        <ele>139.4</ele>
        <time>2011-05-01T09:45:25Z</time>
      </trkpt>
      <trkpt lat="49.3604" lon="1.19051">
        <ele>139.8</ele>
        <time>2011-05-01T09:45:27Z</time>
      </trkpt>
      <trkpt lat="49.36035" lon="1.19053">
        <ele>140.2</ele>
        <time>2011-05-01T09:45:29Z</time>
      </trkpt>
      <trkpt lat="49.3603" lon="1.19056">
        <ele>140.4</ele>
        <time>2011-05-01T09:45:31Z</time>
      </trkpt>
      <trkpt lat="49.36008" lon="1.19062">
        <ele>141.2</ele>
        <time>2011-05-01T09:45:39Z</time>
      </trkpt>
      <trkpt lat="49.35982" lon="1.19061">
        <ele>141.4</ele>
        <time>2011-05-01T09:45:46Z</time>
      </trkpt>
      <trkpt lat="49.35943" lon="1.19053">
        <ele>141.6</ele>
        <time>2011-05-01T09:45:54Z</time>
      </trkpt>
      <trkpt lat="49.35912" lon="1.19037">
        <ele>141.6</ele>
        <time>2011-05-01T09:46:00Z</time>
      </trkpt>
      <trkpt lat="49.3588" lon="1.1902">
        <ele>141.6</ele>
        <time>2011-05-01T09:46:06Z</time>
      </trkpt>
      <trkpt lat="49.35856" lon="1.18998">
        <ele>141.6</ele>
        <time>2011-05-01T09:46:11Z</time>
      </trkpt>
      <trkpt lat="49.35825" lon="1.18951">
        <ele>141.6</ele>
        <time>2011-05-01T09:46:18Z</time>
      </trkpt>
      <trkpt lat="49.35817" lon="1.18932">
        <ele>141.4</ele>
        <time>2011-05-01T09:46:20Z</time>
      </trkpt>
      <trkpt lat="49.35809" lon="1.18913">
        <ele>141.2</ele>
        <time>2011-05-01T09:46:22Z</time>
      </trkpt>
      <trkpt lat="49.35801" lon="1.18896">
        <ele>140.8</ele>
        <time>2011-05-01T09:46:24Z</time>
      </trkpt>
      <trkpt lat="49.35796" lon="1.18889">
        <ele>140.8</ele>
        <time>2011-05-01T09:46:25Z</time>
      </trkpt>
      <trkpt lat="49.35791" lon="1.18882">
        <ele>140.6</ele>
        <time>2011-05-01T09:46:26Z</time>
      </trkpt>
      <trkpt lat="49.35778" lon="1.18872">
        <ele>140.4</ele>
        <time>2011-05-01T09:46:28Z</time>
      </trkpt>
      <trkpt lat="49.35772" lon="1.18868">
        <ele>140.2</ele>
        <time>2011-05-01T09:46:29Z</time>
      </trkpt>
      <trkpt lat="49.35758" lon="1.18862">
        <ele>139.6</ele>
        <time>2011-05-01T09:46:31Z</time>
      </trkpt>
      <trkpt lat="49.35751" lon="1.1886">
        <ele>139.4</ele>
        <time>2011-05-01T09:46:32Z</time>
      </trkpt>
      <trkpt lat="49.35733" lon="1.18864">
        <ele>138.8</ele>
        <time>2011-05-01T09:46:35Z</time>
      </trkpt>
      <trkpt lat="49.35723" lon="1.18873">
        <ele>138.6</ele>
        <time>2011-05-01T09:46:37Z</time>
      </trkpt>
      <trkpt lat="49.35716" lon="1.18887">
        <ele>138.4</ele>
        <time>2011-05-01T09:46:39Z</time>
      </trkpt>
      <trkpt lat="49.35711" lon="1.18899">
        <ele>138.2</ele>
        <time>2011-05-01T09:46:41Z</time>
      </trkpt>
      <trkpt lat="49.35705" lon="1.18917">
        <ele>138.6</ele>
        <time>2011-05-01T09:46:44Z</time>
      </trkpt>
      <trkpt lat="49.35701" lon="1.18928">
        <ele>138.8</ele>
        <time>2011-05-01T09:46:46Z</time>
      </trkpt>
      <trkpt lat="49.35695" lon="1.1894">
        <ele>139</ele>
        <time>2011-05-01T09:46:48Z</time>
      </trkpt>
      <trkpt lat="49.35693" lon="1.18946">
        <ele>139</ele>
        <time>2011-05-01T09:46:49Z</time>
      </trkpt>
      <trkpt lat="49.35686" lon="1.18964">
        <ele>139.2</ele>
        <time>2011-05-01T09:46:52Z</time>
      </trkpt>
      <trkpt lat="49.3567" lon="1.18996">
        <ele>139.4</ele>
        <time>2011-05-01T09:46:58Z</time>
      </trkpt>
      <trkpt lat="49.35649" lon="1.19013">
        <ele>139.4</ele>
        <time>2011-05-01T09:47:03Z</time>
      </trkpt>
      <trkpt lat="49.35635" lon="1.19014">
        <ele>139.6</ele>
        <time>2011-05-01T09:47:06Z</time>
      </trkpt>
      <trkpt lat="49.35629" lon="1.19013">
        <ele>139.8</ele>
        <time>2011-05-01T09:47:07Z</time>
      </trkpt>
      <trkpt lat="49.35624" lon="1.19011">
        <ele>140</ele>
        <time>2011-05-01T09:47:08Z</time>
      </trkpt>
      <trkpt lat="49.35619" lon="1.19009">
        <ele>140.2</ele>
        <time>2011-05-01T09:47:09Z</time>
      </trkpt>
      <trkpt lat="49.35605" lon="1.19003">
        <ele>140.6</ele>
        <time>2011-05-01T09:47:12Z</time>
      </trkpt>
      <trkpt lat="49.35596" lon="1.18999">
        <ele>140.8</ele>
        <time>2011-05-01T09:47:14Z</time>
      </trkpt>
      <trkpt lat="49.35557" lon="1.18978">
        <ele>141.2</ele>
        <time>2011-05-01T09:47:22Z</time>
      </trkpt>
      <trkpt lat="49.35548" lon="1.18973">
        <ele>141.4</ele>
        <time>2011-05-01T09:47:24Z</time>
      </trkpt>
      <trkpt lat="49.35547" lon="1.1896">
        <ele>141.4</ele>
        <time>2011-05-01T09:47:28Z</time>
      </trkpt>
      <trkpt lat="49.35551" lon="1.18951">
        <ele>141.4</ele>
        <time>2011-05-01T09:47:33Z</time>
      </trkpt>
      <trkpt lat="49.35554" lon="1.18949">
        <ele>141.6</ele>
        <time>2011-05-01T09:47:35Z</time>
      </trkpt>
      <trkpt lat="49.35555" lon="1.18945">
        <ele>141.6</ele>
        <time>2011-05-01T09:47:37Z</time>
      </trkpt>
      <trkpt lat="49.35555" lon="1.18943">
        <ele>141.6</ele>
        <time>2011-05-01T09:47:39Z</time>
      </trkpt>
      <trkpt lat="49.35553" lon="1.18942">
        <ele>141.6</ele>
        <time>2011-05-01T09:52:07Z</time>
      </trkpt>
      <trkpt lat="49.35553" lon="1.18941">
        <ele>141.6</ele>
        <time>2011-05-01T09:52:08Z</time>
      </trkpt>
      <trkpt lat="49.35556" lon="1.18929">
        <ele>141.6</ele>
        <time>2011-05-01T09:52:13Z</time>
      </trkpt>
      <trkpt lat="49.35555" lon="1.18907">
        <ele>141.6</ele>
        <time>2011-05-01T09:52:18Z</time>
      </trkpt>
      <trkpt lat="49.35547" lon="1.18886">
        <ele>141.6</ele>
        <time>2011-05-01T09:52:23Z</time>
      </trkpt>
      <trkpt lat="49.35541" lon="1.18879">
        <ele>141.6</ele>
        <time>2011-05-01T09:52:25Z</time>
      </trkpt>
      <trkpt lat="49.35524" lon="1.18847">
        <ele>141.6</ele>
        <time>2011-05-01T09:52:31Z</time>
      </trkpt>
      <trkpt lat="49.35497" lon="1.18787">
        <ele>141.6</ele>
        <time>2011-05-01T09:52:42Z</time>
      </trkpt>
      <trkpt lat="49.35467" lon="1.18718">
        <ele>141.6</ele>
        <time>2011-05-01T09:52:54Z</time>
      </trkpt>
      <trkpt lat="49.35464" lon="1.18712">
        <ele>141.8</ele>
        <time>2011-05-01T09:52:55Z</time>
      </trkpt>
      <trkpt lat="49.35456" lon="1.18694">
        <ele>142.2</ele>
        <time>2011-05-01T09:52:57Z</time>
      </trkpt>
      <trkpt lat="49.3545" lon="1.1868">
        <ele>142.4</ele>
        <time>2011-05-01T09:52:59Z</time>
      </trkpt>
      <trkpt lat="49.35446" lon="1.18669">
        <ele>142.8</ele>
        <time>2011-05-01T09:53:01Z</time>
      </trkpt>
      <trkpt lat="49.3544" lon="1.18657">
        <ele>143</ele>
        <time>2011-05-01T09:53:03Z</time>
      </trkpt>
      <trkpt lat="49.35413" lon="1.18596">
        <ele>143.4</ele>
        <time>2011-05-01T09:53:13Z</time>
      </trkpt>
      <trkpt lat="49.35405" lon="1.18578">
        <ele>143.8</ele>
        <time>2011-05-01T09:53:16Z</time>
      </trkpt>
      <trkpt lat="49.354" lon="1.18566">
        <ele>144</ele>
        <time>2011-05-01T09:53:18Z</time>
      </trkpt>
      <trkpt lat="49.35394" lon="1.18553">
        <ele>144.4</ele>
        <time>2011-05-01T09:53:20Z</time>
      </trkpt>
      <trkpt lat="49.35389" lon="1.18541">
        <ele>144.6</ele>
        <time>2011-05-01T09:53:22Z</time>
      </trkpt>
      <trkpt lat="49.35383" lon="1.18528">
        <ele>144.8</ele>
        <time>2011-05-01T09:53:24Z</time>
      </trkpt>
      <trkpt lat="49.35353" lon="1.18464">
        <ele>145.4</ele>
        <time>2011-05-01T09:53:34Z</time>
      </trkpt>
      <trkpt lat="49.35332" lon="1.1842">
        <ele>145.8</ele>
        <time>2011-05-01T09:53:41Z</time>
      </trkpt>
      <trkpt lat="49.35325" lon="1.1841">
        <ele>146.2</ele>
        <time>2011-05-01T09:53:43Z</time>
      </trkpt>
      <trkpt lat="49.3532" lon="1.18405">
        <ele>146.4</ele>
        <time>2011-05-01T09:53:44Z</time>
      </trkpt>
      <trkpt lat="49.35316" lon="1.18401">
        <ele>146.6</ele>
        <time>2011-05-01T09:53:45Z</time>
      </trkpt>
      <trkpt lat="49.35307" lon="1.18393">
        <ele>146.8</ele>
        <time>2011-05-01T09:53:47Z</time>
      </trkpt>
      <trkpt lat="49.35297" lon="1.18385">
        <ele>147</ele>
        <time>2011-05-01T09:53:49Z</time>
      </trkpt>
      <trkpt lat="49.3527" lon="1.18362">
        <ele>147.4</ele>
        <time>2011-05-01T09:53:55Z</time>
      </trkpt>
      <trkpt lat="49.35265" lon="1.18343">
        <ele>147.6</ele>
        <time>2011-05-01T09:53:59Z</time>
      </trkpt>
      <trkpt lat="49.35267" lon="1.18338">
        <ele>147.6</ele>
        <time>2011-05-01T09:54:03Z</time>
      </trkpt>
      <trkpt lat="49.35267" lon="1.1834">
        <ele>147.8</ele>
        <time>2011-05-01T09:54:08Z</time>
      </trkpt>
      <trkpt lat="49.35266" lon="1.18338">
        <ele>147.8</ele>
        <time>2011-05-01T09:54:09Z</time>
      </trkpt>
      <trkpt lat="49.35265" lon="1.18337">
        <ele>147.8</ele>
        <time>2011-05-01T09:54:10Z</time>
      </trkpt>
      <trkpt lat="49.35256" lon="1.18336">
        <ele>147.8</ele>
        <time>2011-05-01T09:54:13Z</time>
      </trkpt>
      <trkpt lat="49.35246" lon="1.18335">
        <ele>147.8</ele>
        <time>2011-05-01T09:54:15Z</time>
      </trkpt>
      <trkpt lat="49.35234" lon="1.18331">
        <ele>147.8</ele>
        <time>2011-05-01T09:54:18Z</time>
      </trkpt>
      <trkpt lat="49.35225" lon="1.18324">
        <ele>147.8</ele>
        <time>2011-05-01T09:54:20Z</time>
      </trkpt>
      <trkpt lat="49.3519" lon="1.18287">
        <ele>147.8</ele>
        <time>2011-05-01T09:54:28Z</time>
      </trkpt>
      <trkpt lat="49.35185" lon="1.18282">
        <ele>147.8</ele>
        <time>2011-05-01T09:54:29Z</time>
      </trkpt>
      <trkpt lat="49.35165" lon="1.18251">
        <ele>147.8</ele>
        <time>2011-05-01T09:54:34Z</time>
      </trkpt>
      <trkpt lat="49.35159" lon="1.1822">
        <ele>147.8</ele>
        <time>2011-05-01T09:54:38Z</time>
      </trkpt>
      <trkpt lat="49.3516" lon="1.18211">
        <ele>147.8</ele>
        <time>2011-05-01T09:54:39Z</time>
      </trkpt>
      <trkpt lat="49.35167" lon="1.18203">
        <ele>147.8</ele>
        <time>2011-05-01T09:54:41Z</time>
      </trkpt>
      <trkpt lat="49.3518" lon="1.18198">
        <ele>147.8</ele>
        <time>2011-05-01T09:54:44Z</time>
      </trkpt>
      <trkpt lat="49.35207" lon="1.18188">
        <ele>147.8</ele>
        <time>2011-05-01T09:54:50Z</time>
      </trkpt>
      <trkpt lat="49.35216" lon="1.18185">
        <ele>147.8</ele>
        <time>2011-05-01T09:54:53Z</time>
      </trkpt>
      <trkpt lat="49.35227" lon="1.1818">
        <ele>147.8</ele>
        <time>2011-05-01T09:54:56Z</time>
      </trkpt>
      <trkpt lat="49.35248" lon="1.18166">
        <ele>147.8</ele>
        <time>2011-05-01T09:55:00Z</time>
      </trkpt>
      <trkpt lat="49.35265" lon="1.18155">
        <ele>147.8</ele>
        <time>2011-05-01T09:55:03Z</time>
      </trkpt>
      <trkpt lat="49.35301" lon="1.1813">
        <ele>147.8</ele>
        <time>2011-05-01T09:55:10Z</time>
      </trkpt>
      <trkpt lat="49.35318" lon="1.18118">
        <ele>147.8</ele>
        <time>2011-05-01T09:55:14Z</time>
      </trkpt>
      <trkpt lat="49.35336" lon="1.18097">
        <ele>148</ele>
        <time>2011-05-01T09:55:19Z</time>
      </trkpt>
      <trkpt lat="49.35341" lon="1.18094">
        <ele>148.2</ele>
        <time>2011-05-01T09:55:20Z</time>
      </trkpt>
      <trkpt lat="49.35346" lon="1.18091">
        <ele>148.4</ele>
        <time>2011-05-01T09:55:21Z</time>
      </trkpt>
      <trkpt lat="49.35356" lon="1.18086">
        <ele>148.8</ele>
        <time>2011-05-01T09:55:23Z</time>
      </trkpt>
      <trkpt lat="49.35366" lon="1.18083">
        <ele>149</ele>
        <time>2011-05-01T09:55:25Z</time>
      </trkpt>
      <trkpt lat="49.35371" lon="1.18082">
        <ele>149</ele>
        <time>2011-05-01T09:55:26Z</time>
      </trkpt>
      <trkpt lat="49.35375" lon="1.18081">
        <ele>149.2</ele>
        <time>2011-05-01T09:55:27Z</time>
      </trkpt>
      <trkpt lat="49.35397" lon="1.18082">
        <ele>149.4</ele>
        <time>2011-05-01T09:55:32Z</time>
      </trkpt>
      <trkpt lat="49.35402" lon="1.1808">
        <ele>149.6</ele>
        <time>2011-05-01T09:55:33Z</time>
      </trkpt>
      <trkpt lat="49.35445" lon="1.18062">
        <ele>149.8</ele>
        <time>2011-05-01T09:55:42Z</time>
      </trkpt>
      <trkpt lat="49.35489" lon="1.18036">
        <ele>149.8</ele>
        <time>2011-05-01T09:55:52Z</time>
      </trkpt>
      <trkpt lat="49.35528" lon="1.1801">
        <ele>150</ele>
        <time>2011-05-01T09:56:01Z</time>
      </trkpt>
      <trkpt lat="49.3554" lon="1.18001">
        <ele>150</ele>
        <time>2011-05-01T09:56:04Z</time>
      </trkpt>
      <trkpt lat="49.35564" lon="1.17987">
        <ele>150</ele>
        <time>2011-05-01T09:56:10Z</time>
      </trkpt>
      <trkpt lat="49.35567" lon="1.17963">
        <ele>150</ele>
        <time>2011-05-01T09:56:14Z</time>
      </trkpt>
      <trkpt lat="49.35557" lon="1.17933">
        <ele>150</ele>
        <time>2011-05-01T09:56:18Z</time>
      </trkpt>
      <trkpt lat="49.35556" lon="1.17925">
        <ele>150</ele>
        <time>2011-05-01T09:56:19Z</time>
      </trkpt>
      <trkpt lat="49.35554" lon="1.17909">
        <ele>150</ele>
        <time>2011-05-01T09:56:21Z</time>
      </trkpt>
      <trkpt lat="49.35548" lon="1.17844">
        <ele>150</ele>
        <time>2011-05-01T09:56:29Z</time>
      </trkpt>
      <trkpt lat="49.35544" lon="1.17785">
        <ele>149.8</ele>
        <time>2011-05-01T09:56:36Z</time>
      </trkpt>
      <trkpt lat="49.35544" lon="1.17767">
        <ele>149.4</ele>
        <time>2011-05-01T09:56:38Z</time>
      </trkpt>
      <trkpt lat="49.35544" lon="1.1775">
        <ele>149.2</ele>
        <time>2011-05-01T09:56:40Z</time>
      </trkpt>
      <trkpt lat="49.35543" lon="1.17742">
        <ele>149</ele>
        <time>2011-05-01T09:56:41Z</time>
      </trkpt>
      <trkpt lat="49.35541" lon="1.17735">
        <ele>148.8</ele>
        <time>2011-05-01T09:56:42Z</time>
      </trkpt>
      <trkpt lat="49.35538" lon="1.17723">
        <ele>148.8</ele>
        <time>2011-05-01T09:56:44Z</time>
      </trkpt>
      <trkpt lat="49.35538" lon="1.17712">
        <ele>148.6</ele>
        <time>2011-05-01T09:56:46Z</time>
      </trkpt>
      <trkpt lat="49.35541" lon="1.17701">
        <ele>148.4</ele>
        <time>2011-05-01T09:56:48Z</time>
      </trkpt>
      <trkpt lat="49.35544" lon="1.17663">
        <ele>148</ele>
        <time>2011-05-01T09:56:53Z</time>
      </trkpt>
      <trkpt lat="49.35544" lon="1.17644">
        <ele>147.6</ele>
        <time>2011-05-01T09:56:55Z</time>
      </trkpt>
      <trkpt lat="49.35544" lon="1.17624">
        <ele>147.2</ele>
        <time>2011-05-01T09:56:57Z</time>
      </trkpt>
      <trkpt lat="49.35544" lon="1.17605">
        <ele>147</ele>
        <time>2011-05-01T09:56:59Z</time>
      </trkpt>
      <trkpt lat="49.35544" lon="1.17585">
        <ele>146.8</ele>
        <time>2011-05-01T09:57:01Z</time>
      </trkpt>
      <trkpt lat="49.35542" lon="1.17536">
        <ele>146.4</ele>
        <time>2011-05-01T09:57:06Z</time>
      </trkpt>
      <trkpt lat="49.35539" lon="1.17518">
        <ele>145.6</ele>
        <time>2011-05-01T09:57:09Z</time>
      </trkpt>
      <trkpt lat="49.35533" lon="1.17514">
        <ele>145.2</ele>
        <time>2011-05-01T09:57:11Z</time>
      </trkpt>
      <trkpt lat="49.35531" lon="1.17513">
        <ele>145</ele>
        <time>2011-05-01T09:57:12Z</time>
      </trkpt>
      <trkpt lat="49.3553" lon="1.17511">
        <ele>144.8</ele>
        <time>2011-05-01T09:57:13Z</time>
      </trkpt>
      <trkpt lat="49.35531" lon="1.17509">
        <ele>144.6</ele>
        <time>2011-05-01T09:57:15Z</time>
      </trkpt>
      <trkpt lat="49.3554" lon="1.17513">
        <ele>144.2</ele>
        <time>2011-05-01T09:57:19Z</time>
      </trkpt>
      <trkpt lat="49.35541" lon="1.1751">
        <ele>144</ele>
        <time>2011-05-01T09:57:23Z</time>
      </trkpt>
      <trkpt lat="49.35542" lon="1.17513">
        <ele>143.8</ele>
        <time>2011-05-01T09:57:30Z</time>
      </trkpt>
      <trkpt lat="49.35542" lon="1.17514">
        <ele>143.8</ele>
        <time>2011-05-01T09:57:31Z</time>
      </trkpt>
      <trkpt lat="49.35543" lon="1.17515">
        <ele>143.6</ele>
        <time>2011-05-01T09:57:36Z</time>
      </trkpt>
      <trkpt lat="49.35543" lon="1.17514">
        <ele>143.6</ele>
        <time>2011-05-01T09:57:40Z</time>
      </trkpt>
      <trkpt lat="49.3555" lon="1.17507">
        <ele>143.6</ele>
        <time>2011-05-01T09:57:43Z</time>
      </trkpt>
      <trkpt lat="49.35559" lon="1.17484">
        <ele>143.6</ele>
        <time>2011-05-01T09:57:49Z</time>
      </trkpt>
      <trkpt lat="49.35554" lon="1.17463">
        <ele>143.6</ele>
        <time>2011-05-01T09:57:53Z</time>
      </trkpt>
      <trkpt lat="49.35554" lon="1.17457">
        <ele>143.6</ele>
        <time>2011-05-01T09:57:54Z</time>
      </trkpt>
      <trkpt lat="49.35553" lon="1.17443">
        <ele>143.6</ele>
        <time>2011-05-01T09:57:56Z</time>
      </trkpt>
      <trkpt lat="49.35543" lon="1.174">
        <ele>143.6</ele>
        <time>2011-05-01T09:58:02Z</time>
      </trkpt>
      <trkpt lat="49.35539" lon="1.17382">
        <ele>143.6</ele>
        <time>2011-05-01T09:58:04Z</time>
      </trkpt>
      <trkpt lat="49.35537" lon="1.17372">
        <ele>143.4</ele>
        <time>2011-05-01T09:58:05Z</time>
      </trkpt>
      <trkpt lat="49.35533" lon="1.17354">
        <ele>143</ele>
        <time>2011-05-01T09:58:07Z</time>
      </trkpt>
      <trkpt lat="49.35529" lon="1.17336">
        <ele>142.6</ele>
        <time>2011-05-01T09:58:09Z</time>
      </trkpt>
      <trkpt lat="49.35524" lon="1.17319">
        <ele>142.4</ele>
        <time>2011-05-01T09:58:11Z</time>
      </trkpt>
      <trkpt lat="49.35523" lon="1.17311">
        <ele>142.4</ele>
        <time>2011-05-01T09:58:12Z</time>
      </trkpt>
      <trkpt lat="49.35522" lon="1.17281">
        <ele>142</ele>
        <time>2011-05-01T09:58:16Z</time>
      </trkpt>
      <trkpt lat="49.35523" lon="1.1725">
        <ele>141.8</ele>
        <time>2011-05-01T09:58:20Z</time>
      </trkpt>
      <trkpt lat="49.35523" lon="1.17241">
        <ele>141.8</ele>
        <time>2011-05-01T09:58:21Z</time>
      </trkpt>
      <trkpt lat="49.35535" lon="1.172">
        <ele>141.6</ele>
        <time>2011-05-01T09:58:26Z</time>
      </trkpt>
      <trkpt lat="49.35561" lon="1.17142">
        <ele>141.6</ele>
        <time>2011-05-01T09:58:34Z</time>
      </trkpt>
      <trkpt lat="49.3558" lon="1.17088">
        <ele>141.6</ele>
        <time>2011-05-01T09:58:42Z</time>
      </trkpt>
      <trkpt lat="49.35581" lon="1.1708">
        <ele>141.6</ele>
        <time>2011-05-01T09:58:43Z</time>
      </trkpt>
      <trkpt lat="49.35578" lon="1.1705">
        <ele>141.6</ele>
        <time>2011-05-01T09:58:47Z</time>
      </trkpt>
      <trkpt lat="49.35576" lon="1.17042">
        <ele>141.6</ele>
        <time>2011-05-01T09:58:48Z</time>
      </trkpt>
      <trkpt lat="49.35556" lon="1.16984">
        <ele>141.4</ele>
        <time>2011-05-01T09:58:56Z</time>
      </trkpt>
      <trkpt lat="49.35536" lon="1.1695">
        <ele>141.4</ele>
        <time>2011-05-01T09:59:01Z</time>
      </trkpt>
      <trkpt lat="49.35525" lon="1.16917">
        <ele>141.4</ele>
        <time>2011-05-01T09:59:05Z</time>
      </trkpt>
      <trkpt lat="49.35506" lon="1.16839">
        <ele>141.4</ele>
        <time>2011-05-01T09:59:14Z</time>
      </trkpt>
      <trkpt lat="49.35504" lon="1.16831">
        <ele>141.4</ele>
        <time>2011-05-01T09:59:15Z</time>
      </trkpt>
      <trkpt lat="49.355" lon="1.16815">
        <ele>141.2</ele>
        <time>2011-05-01T09:59:17Z</time>
      </trkpt>
      <trkpt lat="49.35496" lon="1.16798">
        <ele>141</ele>
        <time>2011-05-01T09:59:19Z</time>
      </trkpt>
      <trkpt lat="49.35492" lon="1.16782">
        <ele>140.6</ele>
        <time>2011-05-01T09:59:21Z</time>
      </trkpt>
      <trkpt lat="49.35488" lon="1.16766">
        <ele>140.4</ele>
        <time>2011-05-01T09:59:23Z</time>
      </trkpt>
      <trkpt lat="49.35483" lon="1.1675">
        <ele>140.2</ele>
        <time>2011-05-01T09:59:25Z</time>
      </trkpt>
      <trkpt lat="49.35477" lon="1.16727">
        <ele>140</ele>
        <time>2011-05-01T09:59:28Z</time>
      </trkpt>
      <trkpt lat="49.35476" lon="1.16695">
        <ele>139.8</ele>
        <time>2011-05-01T09:59:32Z</time>
      </trkpt>
      <trkpt lat="49.35484" lon="1.16619">
        <ele>139.6</ele>
        <time>2011-05-01T09:59:41Z</time>
      </trkpt>
      <trkpt lat="49.35486" lon="1.16611">
        <ele>139.6</ele>
        <time>2011-05-01T09:59:42Z</time>
      </trkpt>
      <trkpt lat="49.35484" lon="1.1658">
        <ele>139</ele>
        <time>2011-05-01T09:59:45Z</time>
      </trkpt>
      <trkpt lat="49.35481" lon="1.1657">
        <ele>138.8</ele>
        <time>2011-05-01T09:59:46Z</time>
      </trkpt>
      <trkpt lat="49.35476" lon="1.16551">
        <ele>138.4</ele>
        <time>2011-05-01T09:59:48Z</time>
      </trkpt>
      <trkpt lat="49.35472" lon="1.16533">
        <ele>137.8</ele>
        <time>2011-05-01T09:59:50Z</time>
      </trkpt>
      <trkpt lat="49.35469" lon="1.16525">
        <ele>137.4</ele>
        <time>2011-05-01T09:59:51Z</time>
      </trkpt>
      <trkpt lat="49.35465" lon="1.16521">
        <ele>137</ele>
        <time>2011-05-01T09:59:52Z</time>
      </trkpt>
      <trkpt lat="49.35456" lon="1.16519">
        <ele>136.2</ele>
        <time>2011-05-01T09:59:54Z</time>
      </trkpt>
      <trkpt lat="49.35445" lon="1.1652">
        <ele>135.4</ele>
        <time>2011-05-01T09:59:56Z</time>
      </trkpt>
      <trkpt lat="49.3544" lon="1.1652">
        <ele>135.2</ele>
        <time>2011-05-01T09:59:57Z</time>
      </trkpt>
      <trkpt lat="49.35425" lon="1.1652">
        <ele>134.4</ele>
        <time>2011-05-01T09:59:59Z</time>
      </trkpt>
      <trkpt lat="49.3542" lon="1.16518">
        <ele>134</ele>
        <time>2011-05-01T10:00:00Z</time>
      </trkpt>
      <trkpt lat="49.35414" lon="1.16509">
        <ele>133.4</ele>
        <time>2011-05-01T10:00:02Z</time>
      </trkpt>
      <trkpt lat="49.35411" lon="1.16497">
        <ele>132.6</ele>
        <time>2011-05-01T10:00:04Z</time>
      </trkpt>
      <trkpt lat="49.35408" lon="1.16488">
        <ele>132.2</ele>
        <time>2011-05-01T10:00:05Z</time>
      </trkpt>
      <trkpt lat="49.35405" lon="1.1648">
        <ele>131.8</ele>
        <time>2011-05-01T10:00:06Z</time>
      </trkpt>
      <trkpt lat="49.35396" lon="1.16462">
        <ele>130.8</ele>
        <time>2011-05-01T10:00:08Z</time>
      </trkpt>
      <trkpt lat="49.3539" lon="1.16456">
        <ele>130.4</ele>
        <time>2011-05-01T10:00:09Z</time>
      </trkpt>
      <trkpt lat="49.35385" lon="1.16448">
        <ele>129.8</ele>
        <time>2011-05-01T10:00:10Z</time>
      </trkpt>
      <trkpt lat="49.35379" lon="1.1644">
        <ele>129.2</ele>
        <time>2011-05-01T10:00:11Z</time>
      </trkpt>
      <trkpt lat="49.35371" lon="1.16432">
        <ele>128.6</ele>
        <time>2011-05-01T10:00:12Z</time>
      </trkpt>
      <trkpt lat="49.3536" lon="1.16425">
        <ele>127.4</ele>
        <time>2011-05-01T10:00:14Z</time>
      </trkpt>
      <trkpt lat="49.35356" lon="1.16422">
        <ele>126.6</ele>
        <time>2011-05-01T10:00:15Z</time>
      </trkpt>
      <trkpt lat="49.35359" lon="1.1641">
        <ele>124.8</ele>
        <time>2011-05-01T10:00:18Z</time>
      </trkpt>
      <trkpt lat="49.3536" lon="1.16402">
        <ele>124.2</ele>
        <time>2011-05-01T10:00:19Z</time>
      </trkpt>
      <trkpt lat="49.35369" lon="1.1638">
        <ele>122.8</ele>
        <time>2011-05-01T10:00:22Z</time>
      </trkpt>
      <trkpt lat="49.35373" lon="1.16375">
        <ele>122.4</ele>
        <time>2011-05-01T10:00:23Z</time>
      </trkpt>
      <trkpt lat="49.35378" lon="1.16367">
        <ele>122</ele>
        <time>2011-05-01T10:00:24Z</time>
      </trkpt>
      <trkpt lat="49.35383" lon="1.16363">
        <ele>121.6</ele>
        <time>2011-05-01T10:00:25Z</time>
      </trkpt>
      <trkpt lat="49.35387" lon="1.16357">
        <ele>121.4</ele>
        <time>2011-05-01T10:00:26Z</time>
      </trkpt>
      <trkpt lat="49.35411" lon="1.16342">
        <ele>120.2</ele>
        <time>2011-05-01T10:00:31Z</time>
      </trkpt>
      <trkpt lat="49.35417" lon="1.16339">
        <ele>120.2</ele>
        <time>2011-05-01T10:00:32Z</time>
      </trkpt>
      <trkpt lat="49.35428" lon="1.16333">
        <ele>119.8</ele>
        <time>2011-05-01T10:00:34Z</time>
      </trkpt>
      <trkpt lat="49.35444" lon="1.16332">
        <ele>119.6</ele>
        <time>2011-05-01T10:00:37Z</time>
      </trkpt>
      <trkpt lat="49.35453" lon="1.16327">
        <ele>119.4</ele>
        <time>2011-05-01T10:00:39Z</time>
      </trkpt>
      <trkpt lat="49.3547" lon="1.16315">
        <ele>119.2</ele>
        <time>2011-05-01T10:00:43Z</time>
      </trkpt>
      <trkpt lat="49.35494" lon="1.16303">
        <ele>119</ele>
        <time>2011-05-01T10:00:50Z</time>
      </trkpt>
      <trkpt lat="49.35505" lon="1.16295">
        <ele>119</ele>
        <time>2011-05-01T10:00:53Z</time>
      </trkpt>
      <trkpt lat="49.35512" lon="1.16289">
        <ele>119.4</ele>
        <time>2011-05-01T10:00:55Z</time>
      </trkpt>
      <trkpt lat="49.35518" lon="1.16283">
        <ele>119.6</ele>
        <time>2011-05-01T10:00:57Z</time>
      </trkpt>
      <trkpt lat="49.35524" lon="1.16278">
        <ele>120</ele>
        <time>2011-05-01T10:00:59Z</time>
      </trkpt>
      <trkpt lat="49.35529" lon="1.16274">
        <ele>120.2</ele>
        <time>2011-05-01T10:01:01Z</time>
      </trkpt>
      <trkpt lat="49.35534" lon="1.16272">
        <ele>120.4</ele>
        <time>2011-05-01T10:01:03Z</time>
      </trkpt>
      <trkpt lat="49.35536" lon="1.16269">
        <ele>120.8</ele>
        <time>2011-05-01T10:01:04Z</time>
      </trkpt>
      <trkpt lat="49.35539" lon="1.16268">
        <ele>121</ele>
        <time>2011-05-01T10:01:05Z</time>
      </trkpt>
      <trkpt lat="49.35543" lon="1.16265">
        <ele>121.4</ele>
        <time>2011-05-01T10:01:07Z</time>
      </trkpt>
      <trkpt lat="49.35549" lon="1.16261">
        <ele>121.6</ele>
        <time>2011-05-01T10:01:09Z</time>
      </trkpt>
      <trkpt lat="49.35554" lon="1.16257">
        <ele>121.8</ele>
        <time>2011-05-01T10:01:11Z</time>
      </trkpt>
      <trkpt lat="49.35559" lon="1.16255">
        <ele>122</ele>
        <time>2011-05-01T10:01:13Z</time>
      </trkpt>
      <trkpt lat="49.35564" lon="1.16251">
        <ele>122.8</ele>
        <time>2011-05-01T10:01:16Z</time>
      </trkpt>
      <trkpt lat="49.35571" lon="1.16248">
        <ele>123.4</ele>
        <time>2011-05-01T10:01:18Z</time>
      </trkpt>
      <trkpt lat="49.35576" lon="1.16242">
        <ele>123.6</ele>
        <time>2011-05-01T10:01:20Z</time>
      </trkpt>
      <trkpt lat="49.35581" lon="1.16238">
        <ele>124</ele>
        <time>2011-05-01T10:01:22Z</time>
      </trkpt>
      <trkpt lat="49.35587" lon="1.16237">
        <ele>124.4</ele>
        <time>2011-05-01T10:01:26Z</time>
      </trkpt>
      <trkpt lat="49.35589" lon="1.16237">
        <ele>124.6</ele>
        <time>2011-05-01T10:01:27Z</time>
      </trkpt>
      <trkpt lat="49.35593" lon="1.16235">
        <ele>125.2</ele>
        <time>2011-05-01T10:01:29Z</time>
      </trkpt>
      <trkpt lat="49.35596" lon="1.16233">
        <ele>125.4</ele>
        <time>2011-05-01T10:01:31Z</time>
      </trkpt>
      <trkpt lat="49.35598" lon="1.16233">
        <ele>125.6</ele>
        <time>2011-05-01T10:01:32Z</time>
      </trkpt>
      <trkpt lat="49.35606" lon="1.16228">
        <ele>126</ele>
        <time>2011-05-01T10:01:35Z</time>
      </trkpt>
      <trkpt lat="49.35617" lon="1.16213">
        <ele>126.6</ele>
        <time>2011-05-01T10:01:40Z</time>
      </trkpt>
      <trkpt lat="49.35618" lon="1.16211">
        <ele>126.8</ele>
        <time>2011-05-01T10:01:41Z</time>
      </trkpt>
      <trkpt lat="49.35619" lon="1.16208">
        <ele>127</ele>
        <time>2011-05-01T10:01:42Z</time>
      </trkpt>
      <trkpt lat="49.35628" lon="1.16201">
        <ele>127.6</ele>
        <time>2011-05-01T10:01:45Z</time>
      </trkpt>
      <trkpt lat="49.35634" lon="1.16194">
        <ele>128</ele>
        <time>2011-05-01T10:01:47Z</time>
      </trkpt>
      <trkpt lat="49.35637" lon="1.16193">
        <ele>128</ele>
        <time>2011-05-01T10:01:48Z</time>
      </trkpt>
      <trkpt lat="49.35644" lon="1.16189">
        <ele>128.4</ele>
        <time>2011-05-01T10:01:51Z</time>
      </trkpt>
      <trkpt lat="49.35656" lon="1.1618">
        <ele>128.8</ele>
        <time>2011-05-01T10:01:56Z</time>
      </trkpt>
      <trkpt lat="49.3567" lon="1.16169">
        <ele>129.2</ele>
        <time>2011-05-01T10:02:01Z</time>
      </trkpt>
      <trkpt lat="49.35674" lon="1.16165">
        <ele>129.6</ele>
        <time>2011-05-01T10:02:03Z</time>
      </trkpt>
      <trkpt lat="49.3568" lon="1.16158">
        <ele>129.8</ele>
        <time>2011-05-01T10:02:05Z</time>
      </trkpt>
      <trkpt lat="49.35684" lon="1.16153">
        <ele>130.2</ele>
        <time>2011-05-01T10:02:07Z</time>
      </trkpt>
      <trkpt lat="49.3569" lon="1.16147">
        <ele>130.4</ele>
        <time>2011-05-01T10:02:09Z</time>
      </trkpt>
      <trkpt lat="49.35694" lon="1.16142">
        <ele>130.6</ele>
        <time>2011-05-01T10:02:11Z</time>
      </trkpt>
      <trkpt lat="49.35704" lon="1.16137">
        <ele>130.8</ele>
        <time>2011-05-01T10:02:16Z</time>
      </trkpt>
      <trkpt lat="49.35707" lon="1.16135">
        <ele>131</ele>
        <time>2011-05-01T10:02:17Z</time>
      </trkpt>
      <trkpt lat="49.35714" lon="1.16131">
        <ele>131.6</ele>
        <time>2011-05-01T10:02:19Z</time>
      </trkpt>
      <trkpt lat="49.35719" lon="1.16127">
        <ele>131.8</ele>
        <time>2011-05-01T10:02:21Z</time>
      </trkpt>
      <trkpt lat="49.35725" lon="1.16121">
        <ele>132.2</ele>
        <time>2011-05-01T10:02:23Z</time>
      </trkpt>
      <trkpt lat="49.35731" lon="1.16116">
        <ele>132.4</ele>
        <time>2011-05-01T10:02:25Z</time>
      </trkpt>
      <trkpt lat="49.35745" lon="1.16105">
        <ele>132.8</ele>
        <time>2011-05-01T10:02:30Z</time>
      </trkpt>
      <trkpt lat="49.35757" lon="1.16094">
        <ele>133</ele>
        <time>2011-05-01T10:02:34Z</time>
      </trkpt>
      <trkpt lat="49.35772" lon="1.16086">
        <ele>133</ele>
        <time>2011-05-01T10:02:39Z</time>
      </trkpt>
      <trkpt lat="49.35775" lon="1.16081">
        <ele>133.2</ele>
        <time>2011-05-01T10:02:40Z</time>
      </trkpt>
      <trkpt lat="49.35784" lon="1.16076">
        <ele>133.4</ele>
        <time>2011-05-01T10:02:43Z</time>
      </trkpt>
      <trkpt lat="49.35786" lon="1.16073">
        <ele>133.6</ele>
        <time>2011-05-01T10:02:44Z</time>
      </trkpt>
      <trkpt lat="49.35789" lon="1.16069">
        <ele>133.8</ele>
        <time>2011-05-01T10:02:45Z</time>
      </trkpt>
      <trkpt lat="49.35795" lon="1.16057">
        <ele>134</ele>
        <time>2011-05-01T10:02:47Z</time>
      </trkpt>
      <trkpt lat="49.358" lon="1.16046">
        <ele>134.4</ele>
        <time>2011-05-01T10:02:49Z</time>
      </trkpt>
      <trkpt lat="49.35802" lon="1.1604">
        <ele>134.4</ele>
        <time>2011-05-01T10:02:50Z</time>
      </trkpt>
      <trkpt lat="49.35809" lon="1.16013">
        <ele>134.6</ele>
        <time>2011-05-01T10:02:54Z</time>
      </trkpt>
      <trkpt lat="49.35815" lon="1.16007">
        <ele>134.2</ele>
        <time>2011-05-01T10:02:56Z</time>
      </trkpt>
      <trkpt lat="49.35822" lon="1.16005">
        <ele>134</ele>
        <time>2011-05-01T10:02:58Z</time>
      </trkpt>
      <trkpt lat="49.35824" lon="1.16004">
        <ele>134</ele>
        <time>2011-05-01T10:02:59Z</time>
      </trkpt>
      <trkpt lat="49.35825" lon="1.16">
        <ele>133.8</ele>
        <time>2011-05-01T10:03:00Z</time>
      </trkpt>
      <trkpt lat="49.35826" lon="1.15995">
        <ele>133.8</ele>
        <time>2011-05-01T10:03:02Z</time>
      </trkpt>
      <trkpt lat="49.35825" lon="1.15991">
        <ele>133.4</ele>
        <time>2011-05-01T10:03:03Z</time>
      </trkpt>
      <trkpt lat="49.35826" lon="1.15982">
        <ele>133</ele>
        <time>2011-05-01T10:03:05Z</time>
      </trkpt>
      <trkpt lat="49.35828" lon="1.15976">
        <ele>132.8</ele>
        <time>2011-05-01T10:03:06Z</time>
      </trkpt>
      <trkpt lat="49.3583" lon="1.15971">
        <ele>132.6</ele>
        <time>2011-05-01T10:03:07Z</time>
      </trkpt>
      <trkpt lat="49.35835" lon="1.15964">
        <ele>132.6</ele>
        <time>2011-05-01T10:03:08Z</time>
      </trkpt>
      <trkpt lat="49.35837" lon="1.1596">
        <ele>132.4</ele>
        <time>2011-05-01T10:03:09Z</time>
      </trkpt>
      <trkpt lat="49.3584" lon="1.15954">
        <ele>132</ele>
        <time>2011-05-01T10:03:10Z</time>
      </trkpt>
      <trkpt lat="49.35847" lon="1.15939">
        <ele>131.4</ele>
        <time>2011-05-01T10:03:12Z</time>
      </trkpt>
      <trkpt lat="49.35846" lon="1.15933">
        <ele>131.2</ele>
        <time>2011-05-01T10:03:13Z</time>
      </trkpt>
      <trkpt lat="49.35846" lon="1.15928">
        <ele>131</ele>
        <time>2011-05-01T10:03:14Z</time>
      </trkpt>
      <trkpt lat="49.3585" lon="1.15913">
        <ele>130.2</ele>
        <time>2011-05-01T10:03:16Z</time>
      </trkpt>
      <trkpt lat="49.35851" lon="1.15906">
        <ele>129.8</ele>
        <time>2011-05-01T10:03:17Z</time>
      </trkpt>
      <trkpt lat="49.35858" lon="1.15885">
        <ele>128.6</ele>
        <time>2011-05-01T10:03:20Z</time>
      </trkpt>
      <trkpt lat="49.35861" lon="1.1588">
        <ele>128.2</ele>
        <time>2011-05-01T10:03:21Z</time>
      </trkpt>
      <trkpt lat="49.35863" lon="1.15879">
        <ele>127.8</ele>
        <time>2011-05-01T10:03:22Z</time>
      </trkpt>
      <trkpt lat="49.35868" lon="1.15868">
        <ele>127</ele>
        <time>2011-05-01T10:03:24Z</time>
      </trkpt>
      <trkpt lat="49.35874" lon="1.1586">
        <ele>126.2</ele>
        <time>2011-05-01T10:03:26Z</time>
      </trkpt>
      <trkpt lat="49.35879" lon="1.15855">
        <ele>125.6</ele>
        <time>2011-05-01T10:03:27Z</time>
      </trkpt>
      <trkpt lat="49.35886" lon="1.15844">
        <ele>124.4</ele>
        <time>2011-05-01T10:03:30Z</time>
      </trkpt>
      <trkpt lat="49.35889" lon="1.15838">
        <ele>123.8</ele>
        <time>2011-05-01T10:03:32Z</time>
      </trkpt>
      <trkpt lat="49.35891" lon="1.15833">
        <ele>123.4</ele>
        <time>2011-05-01T10:03:34Z</time>
      </trkpt>
      <trkpt lat="49.35892" lon="1.15829">
        <ele>123</ele>
        <time>2011-05-01T10:03:35Z</time>
      </trkpt>
      <trkpt lat="49.35893" lon="1.15819">
        <ele>122.2</ele>
        <time>2011-05-01T10:03:37Z</time>
      </trkpt>
      <trkpt lat="49.35893" lon="1.15812">
        <ele>122</ele>
        <time>2011-05-01T10:03:38Z</time>
      </trkpt>
      <trkpt lat="49.35894" lon="1.15797">
        <ele>121.4</ele>
        <time>2011-05-01T10:03:40Z</time>
      </trkpt>
      <trkpt lat="49.35894" lon="1.15792">
        <ele>121.2</ele>
        <time>2011-05-01T10:03:41Z</time>
      </trkpt>
      <trkpt lat="49.35893" lon="1.15778">
        <ele>120.6</ele>
        <time>2011-05-01T10:03:43Z</time>
      </trkpt>
      <trkpt lat="49.35892" lon="1.15771">
        <ele>120</ele>
        <time>2011-05-01T10:03:45Z</time>
      </trkpt>
      <trkpt lat="49.3589" lon="1.15768">
        <ele>119.6</ele>
        <time>2011-05-01T10:03:46Z</time>
      </trkpt>
      <trkpt lat="49.35888" lon="1.15762">
        <ele>119</ele>
        <time>2011-05-01T10:03:48Z</time>
      </trkpt>
      <trkpt lat="49.35886" lon="1.15754">
        <ele>118.2</ele>
        <time>2011-05-01T10:03:50Z</time>
      </trkpt>
      <trkpt lat="49.35882" lon="1.15743">
        <ele>117.6</ele>
        <time>2011-05-01T10:03:52Z</time>
      </trkpt>
      <trkpt lat="49.35878" lon="1.15732">
        <ele>116.8</ele>
        <time>2011-05-01T10:03:54Z</time>
      </trkpt>
      <trkpt lat="49.35874" lon="1.15721">
        <ele>116</ele>
        <time>2011-05-01T10:03:56Z</time>
      </trkpt>
      <trkpt lat="49.35874" lon="1.15717">
        <ele>115.6</ele>
        <time>2011-05-01T10:03:57Z</time>
      </trkpt>
      <trkpt lat="49.35877" lon="1.15703">
        <ele>114</ele>
        <time>2011-05-01T10:04:00Z</time>
      </trkpt>
      <trkpt lat="49.35876" lon="1.15696">
        <ele>113.2</ele>
        <time>2011-05-01T10:04:01Z</time>
      </trkpt>
      <trkpt lat="49.35874" lon="1.15678">
        <ele>112</ele>
        <time>2011-05-01T10:04:03Z</time>
      </trkpt>
      <trkpt lat="49.35871" lon="1.15667">
        <ele>111.4</ele>
        <time>2011-05-01T10:04:04Z</time>
      </trkpt>
      <trkpt lat="49.35862" lon="1.1564">
        <ele>110</ele>
        <time>2011-05-01T10:04:06Z</time>
      </trkpt>
      <trkpt lat="49.35857" lon="1.1563">
        <ele>109.2</ele>
        <time>2011-05-01T10:04:07Z</time>
      </trkpt>
      <trkpt lat="49.35846" lon="1.15605">
        <ele>108</ele>
        <time>2011-05-01T10:04:09Z</time>
      </trkpt>
      <trkpt lat="49.3584" lon="1.15596">
        <ele>107.4</ele>
        <time>2011-05-01T10:04:10Z</time>
      </trkpt>
      <trkpt lat="49.35837" lon="1.15584">
        <ele>106.6</ele>
        <time>2011-05-01T10:04:11Z</time>
      </trkpt>
      <trkpt lat="49.3583" lon="1.15559">
        <ele>105.4</ele>
        <time>2011-05-01T10:04:13Z</time>
      </trkpt>
      <trkpt lat="49.35819" lon="1.15534">
        <ele>104.4</ele>
        <time>2011-05-01T10:04:15Z</time>
      </trkpt>
      <trkpt lat="49.35803" lon="1.15514">
        <ele>103.4</ele>
        <time>2011-05-01T10:04:17Z</time>
      </trkpt>
      <trkpt lat="49.3579" lon="1.15496">
        <ele>102.2</ele>
        <time>2011-05-01T10:04:19Z</time>
      </trkpt>
      <trkpt lat="49.35782" lon="1.15478">
        <ele>101.4</ele>
        <time>2011-05-01T10:04:21Z</time>
      </trkpt>
      <trkpt lat="49.35778" lon="1.15469">
        <ele>100.8</ele>
        <time>2011-05-01T10:04:22Z</time>
      </trkpt>
      <trkpt lat="49.35774" lon="1.1546">
        <ele>100.2</ele>
        <time>2011-05-01T10:04:23Z</time>
      </trkpt>
      <trkpt lat="49.35768" lon="1.15435">
        <ele>99.2</ele>
        <time>2011-05-01T10:04:25Z</time>
      </trkpt>
      <trkpt lat="49.35765" lon="1.15408">
        <ele>98</ele>
        <time>2011-05-01T10:04:27Z</time>
      </trkpt>
      <trkpt lat="49.35762" lon="1.15381">
        <ele>97</ele>
        <time>2011-05-01T10:04:29Z</time>
      </trkpt>
      <trkpt lat="49.3576" lon="1.15357">
        <ele>95.8</ele>
        <time>2011-05-01T10:04:31Z</time>
      </trkpt>
      <trkpt lat="49.35757" lon="1.15337">
        <ele>95</ele>
        <time>2011-05-01T10:04:33Z</time>
      </trkpt>
      <trkpt lat="49.35757" lon="1.1533">
        <ele>94.4</ele>
        <time>2011-05-01T10:04:34Z</time>
      </trkpt>
      <trkpt lat="49.35761" lon="1.15319">
        <ele>93.4</ele>
        <time>2011-05-01T10:04:36Z</time>
      </trkpt>
      <trkpt lat="49.35763" lon="1.15314">
        <ele>92.8</ele>
        <time>2011-05-01T10:04:37Z</time>
      </trkpt>
      <trkpt lat="49.35766" lon="1.15302">
        <ele>92.2</ele>
        <time>2011-05-01T10:04:39Z</time>
      </trkpt>
      <trkpt lat="49.35762" lon="1.15281">
        <ele>91.2</ele>
        <time>2011-05-01T10:04:42Z</time>
      </trkpt>
      <trkpt lat="49.35759" lon="1.15274">
        <ele>90.8</ele>
        <time>2011-05-01T10:04:43Z</time>
      </trkpt>
      <trkpt lat="49.35754" lon="1.1526">
        <ele>90</ele>
        <time>2011-05-01T10:04:45Z</time>
      </trkpt>
      <trkpt lat="49.35753" lon="1.15253">
        <ele>89.8</ele>
        <time>2011-05-01T10:04:46Z</time>
      </trkpt>
      <trkpt lat="49.35755" lon="1.15247">
        <ele>89.4</ele>
        <time>2011-05-01T10:04:47Z</time>
      </trkpt>
      <trkpt lat="49.35762" lon="1.15242">
        <ele>89</ele>
        <time>2011-05-01T10:04:49Z</time>
      </trkpt>
      <trkpt lat="49.35768" lon="1.15241">
        <ele>88.8</ele>
        <time>2011-05-01T10:04:50Z</time>
      </trkpt>
      <trkpt lat="49.35778" lon="1.1524">
        <ele>88.4</ele>
        <time>2011-05-01T10:04:52Z</time>
      </trkpt>
      <trkpt lat="49.35818" lon="1.15214">
        <ele>87.4</ele>
        <time>2011-05-01T10:05:01Z</time>
      </trkpt>
      <trkpt lat="49.35841" lon="1.15195">
        <ele>87.2</ele>
        <time>2011-05-01T10:05:07Z</time>
      </trkpt>
      <trkpt lat="49.35849" lon="1.1519">
        <ele>87</ele>
        <time>2011-05-01T10:05:09Z</time>
      </trkpt>
      <trkpt lat="49.35863" lon="1.15176">
        <ele>87.2</ele>
        <time>2011-05-01T10:05:13Z</time>
      </trkpt>
      <trkpt lat="49.3587" lon="1.15169">
        <ele>87.6</ele>
        <time>2011-05-01T10:05:15Z</time>
      </trkpt>
      <trkpt lat="49.35873" lon="1.15166">
        <ele>87.6</ele>
        <time>2011-05-01T10:05:16Z</time>
      </trkpt>
      <trkpt lat="49.35877" lon="1.15165">
        <ele>87.8</ele>
        <time>2011-05-01T10:05:17Z</time>
      </trkpt>
      <trkpt lat="49.35881" lon="1.15163">
        <ele>87.8</ele>
        <time>2011-05-01T10:05:18Z</time>
      </trkpt>
      <trkpt lat="49.35893" lon="1.15158">
        <ele>88.2</ele>
        <time>2011-05-01T10:05:21Z</time>
      </trkpt>
      <trkpt lat="49.35904" lon="1.15158">
        <ele>88.4</ele>
        <time>2011-05-01T10:05:24Z</time>
      </trkpt>
      <trkpt lat="49.35913" lon="1.1516">
        <ele>88.6</ele>
        <time>2011-05-01T10:05:26Z</time>
      </trkpt>
      <trkpt lat="49.35921" lon="1.15163">
        <ele>89</ele>
        <time>2011-05-01T10:05:28Z</time>
      </trkpt>
      <trkpt lat="49.3593" lon="1.15166">
        <ele>89.4</ele>
        <time>2011-05-01T10:05:30Z</time>
      </trkpt>
      <trkpt lat="49.35938" lon="1.15168">
        <ele>89.6</ele>
        <time>2011-05-01T10:05:32Z</time>
      </trkpt>
      <trkpt lat="49.35947" lon="1.15168">
        <ele>90</ele>
        <time>2011-05-01T10:05:34Z</time>
      </trkpt>
      <trkpt lat="49.35951" lon="1.15167">
        <ele>90</ele>
        <time>2011-05-01T10:05:35Z</time>
      </trkpt>
      <trkpt lat="49.35962" lon="1.15162">
        <ele>90.2</ele>
        <time>2011-05-01T10:05:38Z</time>
      </trkpt>
      <trkpt lat="49.35981" lon="1.15148">
        <ele>90.8</ele>
        <time>2011-05-01T10:05:43Z</time>
      </trkpt>
      <trkpt lat="49.35988" lon="1.15141">
        <ele>91.2</ele>
        <time>2011-05-01T10:05:45Z</time>
      </trkpt>
      <trkpt lat="49.35994" lon="1.15135">
        <ele>91.4</ele>
        <time>2011-05-01T10:05:47Z</time>
      </trkpt>
      <trkpt lat="49.36001" lon="1.15132">
        <ele>91.8</ele>
        <time>2011-05-01T10:05:49Z</time>
      </trkpt>
      <trkpt lat="49.36008" lon="1.1513">
        <ele>92</ele>
        <time>2011-05-01T10:05:51Z</time>
      </trkpt>
      <trkpt lat="49.36018" lon="1.15134">
        <ele>92.6</ele>
        <time>2011-05-01T10:05:55Z</time>
      </trkpt>
      <trkpt lat="49.36024" lon="1.15137">
        <ele>93</ele>
        <time>2011-05-01T10:05:57Z</time>
      </trkpt>
      <trkpt lat="49.36029" lon="1.1514">
        <ele>93.4</ele>
        <time>2011-05-01T10:05:59Z</time>
      </trkpt>
      <trkpt lat="49.36034" lon="1.15143">
        <ele>93.6</ele>
        <time>2011-05-01T10:06:01Z</time>
      </trkpt>
      <trkpt lat="49.36037" lon="1.15144">
        <ele>94</ele>
        <time>2011-05-01T10:06:02Z</time>
      </trkpt>
      <trkpt lat="49.36041" lon="1.15148">
        <ele>94.6</ele>
        <time>2011-05-01T10:06:04Z</time>
      </trkpt>
      <trkpt lat="49.36046" lon="1.1515">
        <ele>95</ele>
        <time>2011-05-01T10:06:06Z</time>
      </trkpt>
      <trkpt lat="49.3605" lon="1.15153">
        <ele>95.4</ele>
        <time>2011-05-01T10:06:08Z</time>
      </trkpt>
      <trkpt lat="49.36055" lon="1.15154">
        <ele>95.8</ele>
        <time>2011-05-01T10:06:10Z</time>
      </trkpt>
      <trkpt lat="49.36057" lon="1.15154">
        <ele>96</ele>
        <time>2011-05-01T10:06:11Z</time>
      </trkpt>
      <trkpt lat="49.36062" lon="1.15154">
        <ele>96.8</ele>
        <time>2011-05-01T10:06:13Z</time>
      </trkpt>
      <trkpt lat="49.36066" lon="1.15153">
        <ele>97.2</ele>
        <time>2011-05-01T10:06:15Z</time>
      </trkpt>
      <trkpt lat="49.36071" lon="1.15151">
        <ele>97.6</ele>
        <time>2011-05-01T10:06:17Z</time>
      </trkpt>
      <trkpt lat="49.36075" lon="1.15148">
        <ele>98</ele>
        <time>2011-05-01T10:06:19Z</time>
      </trkpt>
      <trkpt lat="49.36079" lon="1.15144">
        <ele>98.4</ele>
        <time>2011-05-01T10:06:21Z</time>
      </trkpt>
      <trkpt lat="49.36083" lon="1.1514">
        <ele>99</ele>
        <time>2011-05-01T10:06:23Z</time>
      </trkpt>
      <trkpt lat="49.36087" lon="1.15137">
        <ele>99.4</ele>
        <time>2011-05-01T10:06:25Z</time>
      </trkpt>
      <trkpt lat="49.36091" lon="1.15135">
        <ele>99.8</ele>
        <time>2011-05-01T10:06:27Z</time>
      </trkpt>
      <trkpt lat="49.36095" lon="1.15132">
        <ele>100.2</ele>
        <time>2011-05-01T10:06:29Z</time>
      </trkpt>
      <trkpt lat="49.361" lon="1.1513">
        <ele>100.6</ele>
        <time>2011-05-01T10:06:31Z</time>
      </trkpt>
      <trkpt lat="49.36104" lon="1.15127">
        <ele>101.2</ele>
        <time>2011-05-01T10:06:33Z</time>
      </trkpt>
      <trkpt lat="49.36108" lon="1.15124">
        <ele>101.6</ele>
        <time>2011-05-01T10:06:35Z</time>
      </trkpt>
      <trkpt lat="49.36112" lon="1.15122">
        <ele>102</ele>
        <time>2011-05-01T10:06:37Z</time>
      </trkpt>
      <trkpt lat="49.36116" lon="1.1512">
        <ele>102.2</ele>
        <time>2011-05-01T10:06:39Z</time>
      </trkpt>
      <trkpt lat="49.3612" lon="1.15117">
        <ele>102.8</ele>
        <time>2011-05-01T10:06:41Z</time>
      </trkpt>
      <trkpt lat="49.36124" lon="1.15113">
        <ele>103.2</ele>
        <time>2011-05-01T10:06:43Z</time>
      </trkpt>
      <trkpt lat="49.36128" lon="1.1511">
        <ele>103.8</ele>
        <time>2011-05-01T10:06:45Z</time>
      </trkpt>
      <trkpt lat="49.36131" lon="1.15104">
        <ele>104</ele>
        <time>2011-05-01T10:06:47Z</time>
      </trkpt>
      <trkpt lat="49.36131" lon="1.151">
        <ele>104.2</ele>
        <time>2011-05-01T10:06:48Z</time>
      </trkpt>
      <trkpt lat="49.36131" lon="1.15095">
        <ele>104.4</ele>
        <time>2011-05-01T10:06:49Z</time>
      </trkpt>
      <trkpt lat="49.36122" lon="1.15078">
        <ele>104.8</ele>
        <time>2011-05-01T10:06:52Z</time>
      </trkpt>
      <trkpt lat="49.36109" lon="1.15066">
        <ele>104.8</ele>
        <time>2011-05-01T10:06:54Z</time>
      </trkpt>
      <trkpt lat="49.36087" lon="1.15046">
        <ele>104.8</ele>
        <time>2011-05-01T10:06:57Z</time>
      </trkpt>
      <trkpt lat="49.36071" lon="1.15031">
        <ele>104.6</ele>
        <time>2011-05-01T10:06:59Z</time>
      </trkpt>
      <trkpt lat="49.36063" lon="1.15022">
        <ele>104.4</ele>
        <time>2011-05-01T10:07:00Z</time>
      </trkpt>
      <trkpt lat="49.36046" lon="1.15006">
        <ele>103.8</ele>
        <time>2011-05-01T10:07:02Z</time>
      </trkpt>
      <trkpt lat="49.36037" lon="1.14998">
        <ele>103.2</ele>
        <time>2011-05-01T10:07:03Z</time>
      </trkpt>
      <trkpt lat="49.36018" lon="1.14983">
        <ele>102.2</ele>
        <time>2011-05-01T10:07:05Z</time>
      </trkpt>
      <trkpt lat="49.35999" lon="1.14967">
        <ele>101</ele>
        <time>2011-05-01T10:07:07Z</time>
      </trkpt>
      <trkpt lat="49.35989" lon="1.14959">
        <ele>100.4</ele>
        <time>2011-05-01T10:07:08Z</time>
      </trkpt>
      <trkpt lat="49.3597" lon="1.14942">
        <ele>99.2</ele>
        <time>2011-05-01T10:07:10Z</time>
      </trkpt>
      <trkpt lat="49.35962" lon="1.14932">
        <ele>98.4</ele>
        <time>2011-05-01T10:07:11Z</time>
      </trkpt>
      <trkpt lat="49.35946" lon="1.14913">
        <ele>97.2</ele>
        <time>2011-05-01T10:07:13Z</time>
      </trkpt>
      <trkpt lat="49.35929" lon="1.14896">
        <ele>96.2</ele>
        <time>2011-05-01T10:07:15Z</time>
      </trkpt>
      <trkpt lat="49.35912" lon="1.1488">
        <ele>95</ele>
        <time>2011-05-01T10:07:17Z</time>
      </trkpt>
      <trkpt lat="49.35904" lon="1.14872">
        <ele>94.4</ele>
        <time>2011-05-01T10:07:18Z</time>
      </trkpt>
      <trkpt lat="49.3589" lon="1.14854">
        <ele>93.2</ele>
        <time>2011-05-01T10:07:20Z</time>
      </trkpt>
      <trkpt lat="49.35883" lon="1.14844">
        <ele>92.4</ele>
        <time>2011-05-01T10:07:21Z</time>
      </trkpt>
      <trkpt lat="49.35867" lon="1.14812">
        <ele>90.6</ele>
        <time>2011-05-01T10:07:24Z</time>
      </trkpt>
      <trkpt lat="49.3586" lon="1.14797">
        <ele>89.4</ele>
        <time>2011-05-01T10:07:26Z</time>
      </trkpt>
      <trkpt lat="49.35858" lon="1.14794">
        <ele>88.8</ele>
        <time>2011-05-01T10:07:27Z</time>
      </trkpt>
      <trkpt lat="49.35853" lon="1.14804">
        <ele>87.4</ele>
        <time>2011-05-01T10:07:30Z</time>
      </trkpt>
      <trkpt lat="49.35848" lon="1.14819">
        <ele>86.4</ele>
        <time>2011-05-01T10:07:32Z</time>
      </trkpt>
      <trkpt lat="49.35846" lon="1.14825">
        <ele>86</ele>
        <time>2011-05-01T10:07:33Z</time>
      </trkpt>
      <trkpt lat="49.35836" lon="1.14844">
        <ele>84.8</ele>
        <time>2011-05-01T10:07:36Z</time>
      </trkpt>
      <trkpt lat="49.35828" lon="1.14858">
        <ele>84.4</ele>
        <time>2011-05-01T10:07:38Z</time>
      </trkpt>
      <trkpt lat="49.35823" lon="1.14864">
        <ele>84.2</ele>
        <time>2011-05-01T10:07:39Z</time>
      </trkpt>
      <trkpt lat="49.35807" lon="1.14881">
        <ele>83.4</ele>
        <time>2011-05-01T10:07:42Z</time>
      </trkpt>
      <trkpt lat="49.35796" lon="1.14886">
        <ele>82.6</ele>
        <time>2011-05-01T10:07:44Z</time>
      </trkpt>
      <trkpt lat="49.3579" lon="1.14888">
        <ele>82.4</ele>
        <time>2011-05-01T10:07:45Z</time>
      </trkpt>
      <trkpt lat="49.35784" lon="1.14887">
        <ele>82.2</ele>
        <time>2011-05-01T10:07:46Z</time>
      </trkpt>
      <trkpt lat="49.35773" lon="1.14886">
        <ele>81.8</ele>
        <time>2011-05-01T10:07:48Z</time>
      </trkpt>
      <trkpt lat="49.35767" lon="1.14886">
        <ele>81.6</ele>
        <time>2011-05-01T10:07:49Z</time>
      </trkpt>
      <trkpt lat="49.35735" lon="1.14897">
        <ele>80.8</ele>
        <time>2011-05-01T10:07:55Z</time>
      </trkpt>
      <trkpt lat="49.35699" lon="1.14914">
        <ele>80.4</ele>
        <time>2011-05-01T10:08:01Z</time>
      </trkpt>
      <trkpt lat="49.35672" lon="1.14925">
        <ele>80</ele>
        <time>2011-05-01T10:08:05Z</time>
      </trkpt>
      <trkpt lat="49.35665" lon="1.14927">
        <ele>79.8</ele>
        <time>2011-05-01T10:08:06Z</time>
      </trkpt>
      <trkpt lat="49.35645" lon="1.14925">
        <ele>79.4</ele>
        <time>2011-05-01T10:08:09Z</time>
      </trkpt>
      <trkpt lat="49.35634" lon="1.14915">
        <ele>79</ele>
        <time>2011-05-01T10:08:11Z</time>
      </trkpt>
      <trkpt lat="49.35624" lon="1.149">
        <ele>78.8</ele>
        <time>2011-05-01T10:08:13Z</time>
      </trkpt>
      <trkpt lat="49.35619" lon="1.14892">
        <ele>78.8</ele>
        <time>2011-05-01T10:08:14Z</time>
      </trkpt>
      <trkpt lat="49.3559" lon="1.14841">
        <ele>78.4</ele>
        <time>2011-05-01T10:08:21Z</time>
      </trkpt>
      <trkpt lat="49.35565" lon="1.14793">
        <ele>78.2</ele>
        <time>2011-05-01T10:08:29Z</time>
      </trkpt>
      <trkpt lat="49.35551" lon="1.14776">
        <ele>78</ele>
        <time>2011-05-01T10:08:33Z</time>
      </trkpt>
      <trkpt lat="49.35544" lon="1.14769">
        <ele>78.2</ele>
        <time>2011-05-01T10:08:35Z</time>
      </trkpt>
      <trkpt lat="49.3554" lon="1.1476">
        <ele>78.6</ele>
        <time>2011-05-01T10:08:37Z</time>
      </trkpt>
      <trkpt lat="49.3554" lon="1.14755">
        <ele>78.8</ele>
        <time>2011-05-01T10:08:38Z</time>
      </trkpt>
      <trkpt lat="49.35539" lon="1.14734">
        <ele>79.2</ele>
        <time>2011-05-01T10:08:41Z</time>
      </trkpt>
      <trkpt lat="49.35538" lon="1.14723">
        <ele>79.4</ele>
        <time>2011-05-01T10:08:43Z</time>
      </trkpt>
      <trkpt lat="49.35537" lon="1.14697">
        <ele>79.8</ele>
        <time>2011-05-01T10:08:47Z</time>
      </trkpt>
      <trkpt lat="49.35538" lon="1.14649">
        <ele>80</ele>
        <time>2011-05-01T10:08:53Z</time>
      </trkpt>
      <trkpt lat="49.35544" lon="1.14603">
        <ele>80.2</ele>
        <time>2011-05-01T10:08:58Z</time>
      </trkpt>
      <trkpt lat="49.35548" lon="1.14552">
        <ele>80.2</ele>
        <time>2011-05-01T10:09:04Z</time>
      </trkpt>
      <trkpt lat="49.35557" lon="1.14509">
        <ele>80</ele>
        <time>2011-05-01T10:09:09Z</time>
      </trkpt>
      <trkpt lat="49.3556" lon="1.14491">
        <ele>79.6</ele>
        <time>2011-05-01T10:09:11Z</time>
      </trkpt>
      <trkpt lat="49.35562" lon="1.14472">
        <ele>79.4</ele>
        <time>2011-05-01T10:09:13Z</time>
      </trkpt>
      <trkpt lat="49.35563" lon="1.14462">
        <ele>79.2</ele>
        <time>2011-05-01T10:09:14Z</time>
      </trkpt>
      <trkpt lat="49.35561" lon="1.14432">
        <ele>79</ele>
        <time>2011-05-01T10:09:17Z</time>
      </trkpt>
      <trkpt lat="49.35561" lon="1.14423">
        <ele>78.8</ele>
        <time>2011-05-01T10:09:18Z</time>
      </trkpt>
      <trkpt lat="49.35561" lon="1.14414">
        <ele>78.4</ele>
        <time>2011-05-01T10:09:19Z</time>
      </trkpt>
      <trkpt lat="49.35559" lon="1.14389">
        <ele>77.8</ele>
        <time>2011-05-01T10:09:22Z</time>
      </trkpt>
      <trkpt lat="49.35559" lon="1.1438">
        <ele>77.6</ele>
        <time>2011-05-01T10:09:23Z</time>
      </trkpt>
      <trkpt lat="49.35559" lon="1.14355">
        <ele>77.2</ele>
        <time>2011-05-01T10:09:26Z</time>
      </trkpt>
      <trkpt lat="49.35559" lon="1.14345">
        <ele>77.2</ele>
        <time>2011-05-01T10:09:27Z</time>
      </trkpt>
      <trkpt lat="49.35553" lon="1.14308">
        <ele>76.8</ele>
        <time>2011-05-01T10:09:31Z</time>
      </trkpt>
      <trkpt lat="49.35553" lon="1.14291">
        <ele>76.4</ele>
        <time>2011-05-01T10:09:35Z</time>
      </trkpt>
      <trkpt lat="49.35559" lon="1.14291">
        <ele>75.8</ele>
        <time>2011-05-01T10:09:37Z</time>
      </trkpt>
      <trkpt lat="49.35564" lon="1.14292">
        <ele>75.6</ele>
        <time>2011-05-01T10:09:38Z</time>
      </trkpt>
      <trkpt lat="49.35579" lon="1.14292">
        <ele>75.2</ele>
        <time>2011-05-01T10:09:41Z</time>
      </trkpt>
      <trkpt lat="49.35583" lon="1.14291">
        <ele>75</ele>
        <time>2011-05-01T10:09:42Z</time>
      </trkpt>
      <trkpt lat="49.35588" lon="1.14289">
        <ele>75</ele>
        <time>2011-05-01T10:09:43Z</time>
      </trkpt>
      <trkpt lat="49.35601" lon="1.14282">
        <ele>74.4</ele>
        <time>2011-05-01T10:09:47Z</time>
      </trkpt>
      <trkpt lat="49.35602" lon="1.1428">
        <ele>74.2</ele>
        <time>2011-05-01T10:09:48Z</time>
      </trkpt>
      <trkpt lat="49.35604" lon="1.14279">
        <ele>73.4</ele>
        <time>2011-05-01T10:09:51Z</time>
      </trkpt>
      <trkpt lat="49.35604" lon="1.14279">
        <ele>73</ele>
        <time>2011-05-01T10:09:52Z</time>
      </trkpt>
      <trkpt lat="49.35604" lon="1.14279">
        <ele>72.4</ele>
        <time>2011-05-01T10:09:54Z</time>
      </trkpt>
      <trkpt lat="49.35605" lon="1.14278">
        <ele>71.8</ele>
        <time>2011-05-01T10:09:56Z</time>
      </trkpt>
      <trkpt lat="49.35606" lon="1.14278">
        <ele>71.4</ele>
        <time>2011-05-01T10:09:58Z</time>
      </trkpt>
      <trkpt lat="49.35607" lon="1.14278">
        <ele>70.8</ele>
        <time>2011-05-01T10:10:00Z</time>
      </trkpt>
      <trkpt lat="49.35608" lon="1.14278">
        <ele>68.2</ele>
        <time>2011-05-01T10:10:14Z</time>
      </trkpt>
      <trkpt lat="49.35609" lon="1.14277">
        <ele>68.2</ele>
        <time>2011-05-01T10:10:16Z</time>
      </trkpt>
      <trkpt lat="49.3561" lon="1.14276">
        <ele>68</ele>
        <time>2011-05-01T10:10:18Z</time>
      </trkpt>
      <trkpt lat="49.35611" lon="1.14274">
        <ele>68</ele>
        <time>2011-05-01T10:10:20Z</time>
      </trkpt>
      <trkpt lat="49.35611" lon="1.14273">
        <ele>67.6</ele>
        <time>2011-05-01T10:10:21Z</time>
      </trkpt>
      <trkpt lat="49.35613" lon="1.14271">
        <ele>67.2</ele>
        <time>2011-05-01T10:10:23Z</time>
      </trkpt>
      <trkpt lat="49.35617" lon="1.14266">
        <ele>66.8</ele>
        <time>2011-05-01T10:10:25Z</time>
      </trkpt>
      <trkpt lat="49.35619" lon="1.14264">
        <ele>66.4</ele>
        <time>2011-05-01T10:10:26Z</time>
      </trkpt>
      <trkpt lat="49.35623" lon="1.1426">
        <ele>65.8</ele>
        <time>2011-05-01T10:10:28Z</time>
      </trkpt>
      <trkpt lat="49.35626" lon="1.14253">
        <ele>65</ele>
        <time>2011-05-01T10:10:30Z</time>
      </trkpt>
      <trkpt lat="49.35629" lon="1.14248">
        <ele>64.2</ele>
        <time>2011-05-01T10:10:32Z</time>
      </trkpt>
      <trkpt lat="49.3563" lon="1.14248">
        <ele>63.8</ele>
        <time>2011-05-01T10:10:33Z</time>
      </trkpt>
      <trkpt lat="49.35631" lon="1.14248">
        <ele>63.2</ele>
        <time>2011-05-01T10:10:34Z</time>
      </trkpt>
      <trkpt lat="49.35634" lon="1.14247">
        <ele>62.2</ele>
        <time>2011-05-01T10:10:36Z</time>
      </trkpt>
      <trkpt lat="49.35635" lon="1.14245">
        <ele>61.2</ele>
        <time>2011-05-01T10:10:38Z</time>
      </trkpt>
      <trkpt lat="49.35636" lon="1.14243">
        <ele>60.8</ele>
        <time>2011-05-01T10:10:39Z</time>
      </trkpt>
      <trkpt lat="49.35638" lon="1.14242">
        <ele>60.2</ele>
        <time>2011-05-01T10:10:40Z</time>
      </trkpt>
      <trkpt lat="49.3564" lon="1.14241">
        <ele>59.8</ele>
        <time>2011-05-01T10:10:41Z</time>
      </trkpt>
      <trkpt lat="49.35649" lon="1.14238">
        <ele>58.8</ele>
        <time>2011-05-01T10:10:44Z</time>
      </trkpt>
      <trkpt lat="49.35653" lon="1.14234">
        <ele>58.2</ele>
        <time>2011-05-01T10:10:45Z</time>
      </trkpt>
      <trkpt lat="49.35658" lon="1.14227">
        <ele>57.4</ele>
        <time>2011-05-01T10:10:47Z</time>
      </trkpt>
      <trkpt lat="49.35664" lon="1.14223">
        <ele>57</ele>
        <time>2011-05-01T10:10:48Z</time>
      </trkpt>
      <trkpt lat="49.3567" lon="1.14213">
        <ele>56.2</ele>
        <time>2011-05-01T10:10:51Z</time>
      </trkpt>
      <trkpt lat="49.35676" lon="1.14201">
        <ele>55.8</ele>
        <time>2011-05-01T10:10:53Z</time>
      </trkpt>
      <trkpt lat="49.35681" lon="1.14188">
        <ele>55.2</ele>
        <time>2011-05-01T10:10:56Z</time>
      </trkpt>
      <trkpt lat="49.35685" lon="1.1417">
        <ele>54.6</ele>
        <time>2011-05-01T10:11:01Z</time>
      </trkpt>
      <trkpt lat="49.35692" lon="1.14151">
        <ele>54.2</ele>
        <time>2011-05-01T10:11:04Z</time>
      </trkpt>
      <trkpt lat="49.35693" lon="1.14146">
        <ele>54</ele>
        <time>2011-05-01T10:11:05Z</time>
      </trkpt>
      <trkpt lat="49.357" lon="1.1413">
        <ele>53.6</ele>
        <time>2011-05-01T10:11:07Z</time>
      </trkpt>
      <trkpt lat="49.35714" lon="1.1411">
        <ele>53</ele>
        <time>2011-05-01T10:11:10Z</time>
      </trkpt>
      <trkpt lat="49.35722" lon="1.14101">
        <ele>52.8</ele>
        <time>2011-05-01T10:11:12Z</time>
      </trkpt>
      <trkpt lat="49.35743" lon="1.14082">
        <ele>52.4</ele>
        <time>2011-05-01T10:11:17Z</time>
      </trkpt>
      <trkpt lat="49.3576" lon="1.1406">
        <ele>52.2</ele>
        <time>2011-05-01T10:11:21Z</time>
      </trkpt>
      <trkpt lat="49.35773" lon="1.14049">
        <ele>52</ele>
        <time>2011-05-01T10:11:24Z</time>
      </trkpt>
      <trkpt lat="49.35781" lon="1.14047">
        <ele>52</ele>
        <time>2011-05-01T10:11:27Z</time>
      </trkpt>
      <trkpt lat="49.35804" lon="1.14034">
        <ele>52</ele>
        <time>2011-05-01T10:11:32Z</time>
      </trkpt>
      <trkpt lat="49.35805" lon="1.14033">
        <ele>52.2</ele>
        <time>2011-05-01T10:11:33Z</time>
      </trkpt>
      <trkpt lat="49.35808" lon="1.14032">
        <ele>52.4</ele>
        <time>2011-05-01T10:11:34Z</time>
      </trkpt>
      <trkpt lat="49.35811" lon="1.14027">
        <ele>52.6</ele>
        <time>2011-05-01T10:11:36Z</time>
      </trkpt>
      <trkpt lat="49.35814" lon="1.14025">
        <ele>53</ele>
        <time>2011-05-01T10:11:37Z</time>
      </trkpt>
      <trkpt lat="49.35818" lon="1.14021">
        <ele>53.6</ele>
        <time>2011-05-01T10:11:39Z</time>
      </trkpt>
      <trkpt lat="49.35821" lon="1.14019">
        <ele>53.8</ele>
        <time>2011-05-01T10:11:40Z</time>
      </trkpt>
      <trkpt lat="49.35827" lon="1.14007">
        <ele>54.4</ele>
        <time>2011-05-01T10:11:43Z</time>
      </trkpt>
      <trkpt lat="49.3583" lon="1.14004">
        <ele>54.6</ele>
        <time>2011-05-01T10:11:44Z</time>
      </trkpt>
      <trkpt lat="49.35834" lon="1.14001">
        <ele>55.4</ele>
        <time>2011-05-01T10:11:46Z</time>
      </trkpt>
      <trkpt lat="49.35835" lon="1.14">
        <ele>55.6</ele>
        <time>2011-05-01T10:11:47Z</time>
      </trkpt>
      <trkpt lat="49.35846" lon="1.14">
        <ele>56.2</ele>
        <time>2011-05-01T10:11:50Z</time>
      </trkpt>
      <trkpt lat="49.3585" lon="1.14">
        <ele>56.4</ele>
        <time>2011-05-01T10:11:51Z</time>
      </trkpt>
      <trkpt lat="49.35855" lon="1.14">
        <ele>56.6</ele>
        <time>2011-05-01T10:11:53Z</time>
      </trkpt>
      <trkpt lat="49.35858" lon="1.14001">
        <ele>57</ele>
        <time>2011-05-01T10:11:56Z</time>
      </trkpt>
      <trkpt lat="49.35873" lon="1.14006">
        <ele>57.4</ele>
        <time>2011-05-01T10:12:02Z</time>
      </trkpt>
      <trkpt lat="49.35881" lon="1.14011">
        <ele>57.8</ele>
        <time>2011-05-01T10:12:05Z</time>
      </trkpt>
      <trkpt lat="49.35885" lon="1.14014">
        <ele>58.2</ele>
        <time>2011-05-01T10:12:07Z</time>
      </trkpt>
      <trkpt lat="49.35887" lon="1.14015">
        <ele>58.4</ele>
        <time>2011-05-01T10:12:08Z</time>
      </trkpt>
      <trkpt lat="49.3589" lon="1.14016">
        <ele>58.6</ele>
        <time>2011-05-01T10:12:09Z</time>
      </trkpt>
      <trkpt lat="49.35898" lon="1.14018">
        <ele>58.8</ele>
        <time>2011-05-01T10:12:11Z</time>
      </trkpt>
      <trkpt lat="49.35906" lon="1.1402">
        <ele>59</ele>
        <time>2011-05-01T10:12:13Z</time>
      </trkpt>
      <trkpt lat="49.35915" lon="1.14018">
        <ele>59.2</ele>
        <time>2011-05-01T10:12:16Z</time>
      </trkpt>
      <trkpt lat="49.35929" lon="1.14015">
        <ele>59.6</ele>
        <time>2011-05-01T10:12:20Z</time>
      </trkpt>
      <trkpt lat="49.35926" lon="1.14002">
        <ele>59.6</ele>
        <time>2011-05-01T10:12:25Z</time>
      </trkpt>
      <trkpt lat="49.35918" lon="1.13973">
        <ele>59.8</ele>
        <time>2011-05-01T10:12:33Z</time>
      </trkpt>
      <trkpt lat="49.35919" lon="1.13961">
        <ele>59.8</ele>
        <time>2011-05-01T10:12:37Z</time>
      </trkpt>
      <trkpt lat="49.35915" lon="1.13948">
        <ele>60</ele>
        <time>2011-05-01T10:12:44Z</time>
      </trkpt>
      <trkpt lat="49.35913" lon="1.13948">
        <ele>60.2</ele>
        <time>2011-05-01T10:12:46Z</time>
      </trkpt>
      <trkpt lat="49.35911" lon="1.13949">
        <ele>60.6</ele>
        <time>2011-05-01T10:12:48Z</time>
      </trkpt>
      <trkpt lat="49.35907" lon="1.13947">
        <ele>60.8</ele>
        <time>2011-05-01T10:12:50Z</time>
      </trkpt>
      <trkpt lat="49.35903" lon="1.13944">
        <ele>61</ele>
        <time>2011-05-01T10:12:52Z</time>
      </trkpt>
      <trkpt lat="49.35901" lon="1.13939">
        <ele>61.2</ele>
        <time>2011-05-01T10:12:54Z</time>
      </trkpt>
      <trkpt lat="49.35901" lon="1.13937">
        <ele>61.4</ele>
        <time>2011-05-01T10:12:55Z</time>
      </trkpt>
      <trkpt lat="49.35898" lon="1.13933">
        <ele>61.6</ele>
        <time>2011-05-01T10:12:57Z</time>
      </trkpt>
      <trkpt lat="49.35897" lon="1.13931">
        <ele>62</ele>
        <time>2011-05-01T10:12:58Z</time>
      </trkpt>
      <trkpt lat="49.35894" lon="1.13929">
        <ele>62.4</ele>
        <time>2011-05-01T10:13:00Z</time>
      </trkpt>
      <trkpt lat="49.35893" lon="1.13927">
        <ele>62.6</ele>
        <time>2011-05-01T10:13:01Z</time>
      </trkpt>
      <trkpt lat="49.35889" lon="1.13926">
        <ele>63</ele>
        <time>2011-05-01T10:13:03Z</time>
      </trkpt>
      <trkpt lat="49.35887" lon="1.13925">
        <ele>63</ele>
        <time>2011-05-01T10:13:04Z</time>
      </trkpt>
      <trkpt lat="49.35885" lon="1.13922">
        <ele>63.2</ele>
        <time>2011-05-01T10:13:05Z</time>
      </trkpt>
      <trkpt lat="49.35882" lon="1.1392">
        <ele>63.6</ele>
        <time>2011-05-01T10:13:06Z</time>
      </trkpt>
      <trkpt lat="49.35878" lon="1.13915">
        <ele>64.2</ele>
        <time>2011-05-01T10:13:08Z</time>
      </trkpt>
      <trkpt lat="49.35874" lon="1.13909">
        <ele>64.6</ele>
        <time>2011-05-01T10:13:10Z</time>
      </trkpt>
      <trkpt lat="49.3587" lon="1.13903">
        <ele>65</ele>
        <time>2011-05-01T10:13:12Z</time>
      </trkpt>
      <trkpt lat="49.35868" lon="1.13897">
        <ele>65.2</ele>
        <time>2011-05-01T10:13:14Z</time>
      </trkpt>
      <trkpt lat="49.35867" lon="1.13888">
        <ele>65.6</ele>
        <time>2011-05-01T10:13:16Z</time>
      </trkpt>
      <trkpt lat="49.35867" lon="1.13885">
        <ele>66</ele>
        <time>2011-05-01T10:13:17Z</time>
      </trkpt>
      <trkpt lat="49.35868" lon="1.13876">
        <ele>66.6</ele>
        <time>2011-05-01T10:13:20Z</time>
      </trkpt>
      <trkpt lat="49.35868" lon="1.1387">
        <ele>67</ele>
        <time>2011-05-01T10:13:22Z</time>
      </trkpt>
      <trkpt lat="49.35868" lon="1.13867">
        <ele>67.2</ele>
        <time>2011-05-01T10:13:23Z</time>
      </trkpt>
      <trkpt lat="49.3587" lon="1.13858">
        <ele>68.2</ele>
        <time>2011-05-01T10:13:26Z</time>
      </trkpt>
      <trkpt lat="49.35871" lon="1.13852">
        <ele>68.6</ele>
        <time>2011-05-01T10:13:28Z</time>
      </trkpt>
      <trkpt lat="49.35873" lon="1.13845">
        <ele>69</ele>
        <time>2011-05-01T10:13:30Z</time>
      </trkpt>
      <trkpt lat="49.35875" lon="1.13842">
        <ele>69.2</ele>
        <time>2011-05-01T10:13:31Z</time>
      </trkpt>
      <trkpt lat="49.35876" lon="1.13838">
        <ele>69.4</ele>
        <time>2011-05-01T10:13:32Z</time>
      </trkpt>
      <trkpt lat="49.35877" lon="1.13836">
        <ele>69.8</ele>
        <time>2011-05-01T10:13:34Z</time>
      </trkpt>
      <trkpt lat="49.35878" lon="1.13836">
        <ele>70</ele>
        <time>2011-05-01T10:13:35Z</time>
      </trkpt>
      <trkpt lat="49.35879" lon="1.13838">
        <ele>70.4</ele>
        <time>2011-05-01T10:13:36Z</time>
      </trkpt>
      <trkpt lat="49.35882" lon="1.13841">
        <ele>70.8</ele>
        <time>2011-05-01T10:13:38Z</time>
      </trkpt>
      <trkpt lat="49.35884" lon="1.13843">
        <ele>71</ele>
        <time>2011-05-01T10:13:39Z</time>
      </trkpt>
      <trkpt lat="49.35886" lon="1.13845">
        <ele>71.2</ele>
        <time>2011-05-01T10:13:40Z</time>
      </trkpt>
      <trkpt lat="49.3589" lon="1.13847">
        <ele>71.4</ele>
        <time>2011-05-01T10:13:42Z</time>
      </trkpt>
      <trkpt lat="49.35908" lon="1.13859">
        <ele>72.2</ele>
        <time>2011-05-01T10:13:49Z</time>
      </trkpt>
      <trkpt lat="49.35931" lon="1.13881">
        <ele>72.4</ele>
        <time>2011-05-01T10:13:56Z</time>
      </trkpt>
      <trkpt lat="49.35934" lon="1.13885">
        <ele>72.4</ele>
        <time>2011-05-01T10:13:57Z</time>
      </trkpt>
      <trkpt lat="49.35948" lon="1.13912">
        <ele>72.6</ele>
        <time>2011-05-01T10:14:03Z</time>
      </trkpt>
      <trkpt lat="49.3596" lon="1.13947">
        <ele>72.6</ele>
        <time>2011-05-01T10:14:10Z</time>
      </trkpt>
      <trkpt lat="49.3597" lon="1.13972">
        <ele>72.6</ele>
        <time>2011-05-01T10:14:15Z</time>
      </trkpt>
      <trkpt lat="49.35993" lon="1.14005">
        <ele>72.8</ele>
        <time>2011-05-01T10:14:22Z</time>
      </trkpt>
      <trkpt lat="49.36" lon="1.1401">
        <ele>72.8</ele>
        <time>2011-05-01T10:14:24Z</time>
      </trkpt>
      <trkpt lat="49.36019" lon="1.14028">
        <ele>72.8</ele>
        <time>2011-05-01T10:14:29Z</time>
      </trkpt>
      <trkpt lat="49.36035" lon="1.1404">
        <ele>72.8</ele>
        <time>2011-05-01T10:14:33Z</time>
      </trkpt>
      <trkpt lat="49.36065" lon="1.1405">
        <ele>72.8</ele>
        <time>2011-05-01T10:14:41Z</time>
      </trkpt>
      <trkpt lat="49.36082" lon="1.14051">
        <ele>72.8</ele>
        <time>2011-05-01T10:14:46Z</time>
      </trkpt>
      <trkpt lat="49.36086" lon="1.14051">
        <ele>73</ele>
        <time>2011-05-01T10:14:47Z</time>
      </trkpt>
      <trkpt lat="49.36092" lon="1.14055">
        <ele>73.4</ele>
        <time>2011-05-01T10:14:49Z</time>
      </trkpt>
      <trkpt lat="49.36098" lon="1.14059">
        <ele>73.6</ele>
        <time>2011-05-01T10:14:51Z</time>
      </trkpt>
      <trkpt lat="49.36104" lon="1.14064">
        <ele>73.8</ele>
        <time>2011-05-01T10:14:53Z</time>
      </trkpt>
      <trkpt lat="49.36109" lon="1.14071">
        <ele>74</ele>
        <time>2011-05-01T10:14:55Z</time>
      </trkpt>
      <trkpt lat="49.36117" lon="1.14084">
        <ele>74.6</ele>
        <time>2011-05-01T10:14:59Z</time>
      </trkpt>
      <trkpt lat="49.3612" lon="1.1409">
        <ele>75</ele>
        <time>2011-05-01T10:15:01Z</time>
      </trkpt>
      <trkpt lat="49.36123" lon="1.14096">
        <ele>75.4</ele>
        <time>2011-05-01T10:15:03Z</time>
      </trkpt>
      <trkpt lat="49.36127" lon="1.141">
        <ele>75.6</ele>
        <time>2011-05-01T10:15:05Z</time>
      </trkpt>
      <trkpt lat="49.3613" lon="1.14102">
        <ele>76</ele>
        <time>2011-05-01T10:15:07Z</time>
      </trkpt>
      <trkpt lat="49.36134" lon="1.14102">
        <ele>76.4</ele>
        <time>2011-05-01T10:15:09Z</time>
      </trkpt>
      <trkpt lat="49.36138" lon="1.14103">
        <ele>76.8</ele>
        <time>2011-05-01T10:15:11Z</time>
      </trkpt>
      <trkpt lat="49.36143" lon="1.14105">
        <ele>77.4</ele>
        <time>2011-05-01T10:15:13Z</time>
      </trkpt>
      <trkpt lat="49.36146" lon="1.14109">
        <ele>77.6</ele>
        <time>2011-05-01T10:15:15Z</time>
      </trkpt>
      <trkpt lat="49.36151" lon="1.14112">
        <ele>78</ele>
        <time>2011-05-01T10:15:17Z</time>
      </trkpt>
      <trkpt lat="49.36168" lon="1.14121">
        <ele>78.8</ele>
        <time>2011-05-01T10:15:25Z</time>
      </trkpt>
      <trkpt lat="49.36173" lon="1.14123">
        <ele>79.4</ele>
        <time>2011-05-01T10:15:27Z</time>
      </trkpt>
      <trkpt lat="49.36177" lon="1.14124">
        <ele>79.6</ele>
        <time>2011-05-01T10:15:29Z</time>
      </trkpt>
      <trkpt lat="49.36181" lon="1.14126">
        <ele>80</ele>
        <time>2011-05-01T10:15:31Z</time>
      </trkpt>
      <trkpt lat="49.36184" lon="1.14127">
        <ele>80.4</ele>
        <time>2011-05-01T10:15:33Z</time>
      </trkpt>
      <trkpt lat="49.36188" lon="1.14129">
        <ele>81</ele>
        <time>2011-05-01T10:15:35Z</time>
      </trkpt>
      <trkpt lat="49.36192" lon="1.14129">
        <ele>81.4</ele>
        <time>2011-05-01T10:15:37Z</time>
      </trkpt>
      <trkpt lat="49.36197" lon="1.1413">
        <ele>81.8</ele>
        <time>2011-05-01T10:15:39Z</time>
      </trkpt>
      <trkpt lat="49.36201" lon="1.14132">
        <ele>82</ele>
        <time>2011-05-01T10:15:41Z</time>
      </trkpt>
      <trkpt lat="49.36203" lon="1.14133">
        <ele>82.2</ele>
        <time>2011-05-01T10:15:42Z</time>
      </trkpt>
      <trkpt lat="49.36216" lon="1.14136">
        <ele>82.8</ele>
        <time>2011-05-01T10:15:48Z</time>
      </trkpt>
      <trkpt lat="49.36218" lon="1.14136">
        <ele>83</ele>
        <time>2011-05-01T10:15:49Z</time>
      </trkpt>
      <trkpt lat="49.3622" lon="1.14137">
        <ele>83.2</ele>
        <time>2011-05-01T10:15:50Z</time>
      </trkpt>
      <trkpt lat="49.36224" lon="1.1414">
        <ele>84</ele>
        <time>2011-05-01T10:15:53Z</time>
      </trkpt>
      <trkpt lat="49.36228" lon="1.14142">
        <ele>84.2</ele>
        <time>2011-05-01T10:15:55Z</time>
      </trkpt>
      <trkpt lat="49.36231" lon="1.14144">
        <ele>84.4</ele>
        <time>2011-05-01T10:15:57Z</time>
      </trkpt>
      <trkpt lat="49.36232" lon="1.14145">
        <ele>84.8</ele>
        <time>2011-05-01T10:15:58Z</time>
      </trkpt>
      <trkpt lat="49.36235" lon="1.14145">
        <ele>85.4</ele>
        <time>2011-05-01T10:16:00Z</time>
      </trkpt>
      <trkpt lat="49.36238" lon="1.14146">
        <ele>85.8</ele>
        <time>2011-05-01T10:16:02Z</time>
      </trkpt>
      <trkpt lat="49.36239" lon="1.14148">
        <ele>86</ele>
        <time>2011-05-01T10:16:03Z</time>
      </trkpt>
      <trkpt lat="49.36241" lon="1.14149">
        <ele>86.2</ele>
        <time>2011-05-01T10:16:04Z</time>
      </trkpt>
      <trkpt lat="49.36245" lon="1.1415">
        <ele>86.4</ele>
        <time>2011-05-01T10:16:06Z</time>
      </trkpt>
      <trkpt lat="49.36247" lon="1.1415">
        <ele>86.6</ele>
        <time>2011-05-01T10:16:07Z</time>
      </trkpt>
      <trkpt lat="49.36252" lon="1.14154">
        <ele>87.4</ele>
        <time>2011-05-01T10:16:10Z</time>
      </trkpt>
      <trkpt lat="49.36256" lon="1.14155">
        <ele>87.8</ele>
        <time>2011-05-01T10:16:12Z</time>
      </trkpt>
      <trkpt lat="49.36259" lon="1.14155">
        <ele>88.2</ele>
        <time>2011-05-01T10:16:14Z</time>
      </trkpt>
      <trkpt lat="49.36263" lon="1.14156">
        <ele>88.6</ele>
        <time>2011-05-01T10:16:16Z</time>
      </trkpt>
      <trkpt lat="49.3627" lon="1.1416">
        <ele>89.2</ele>
        <time>2011-05-01T10:16:20Z</time>
      </trkpt>
      <trkpt lat="49.36272" lon="1.14162">
        <ele>89.6</ele>
        <time>2011-05-01T10:16:22Z</time>
      </trkpt>
      <trkpt lat="49.36275" lon="1.14165">
        <ele>90</ele>
        <time>2011-05-01T10:16:24Z</time>
      </trkpt>
      <trkpt lat="49.36278" lon="1.14166">
        <ele>90.4</ele>
        <time>2011-05-01T10:16:26Z</time>
      </trkpt>
      <trkpt lat="49.36281" lon="1.14167">
        <ele>90.6</ele>
        <time>2011-05-01T10:16:28Z</time>
      </trkpt>
      <trkpt lat="49.36283" lon="1.14167">
        <ele>91.2</ele>
        <time>2011-05-01T10:16:30Z</time>
      </trkpt>
      <trkpt lat="49.36286" lon="1.14169">
        <ele>91.6</ele>
        <time>2011-05-01T10:16:32Z</time>
      </trkpt>
      <trkpt lat="49.36289" lon="1.14172">
        <ele>92.2</ele>
        <time>2011-05-01T10:16:34Z</time>
      </trkpt>
      <trkpt lat="49.36292" lon="1.14174">
        <ele>92.4</ele>
        <time>2011-05-01T10:16:36Z</time>
      </trkpt>
      <trkpt lat="49.36293" lon="1.14175">
        <ele>92.6</ele>
        <time>2011-05-01T10:16:37Z</time>
      </trkpt>
      <trkpt lat="49.36298" lon="1.14175">
        <ele>93.2</ele>
        <time>2011-05-01T10:16:40Z</time>
      </trkpt>
      <trkpt lat="49.36303" lon="1.14174">
        <ele>93.8</ele>
        <time>2011-05-01T10:16:42Z</time>
      </trkpt>
      <trkpt lat="49.36307" lon="1.14176">
        <ele>94.2</ele>
        <time>2011-05-01T10:16:44Z</time>
      </trkpt>
      <trkpt lat="49.3631" lon="1.14177">
        <ele>94.6</ele>
        <time>2011-05-01T10:16:46Z</time>
      </trkpt>
      <trkpt lat="49.36313" lon="1.14178">
        <ele>94.8</ele>
        <time>2011-05-01T10:16:48Z</time>
      </trkpt>
      <trkpt lat="49.36318" lon="1.14179">
        <ele>95.4</ele>
        <time>2011-05-01T10:16:51Z</time>
      </trkpt>
      <trkpt lat="49.36321" lon="1.1418">
        <ele>96</ele>
        <time>2011-05-01T10:16:53Z</time>
      </trkpt>
      <trkpt lat="49.36324" lon="1.14181">
        <ele>96.4</ele>
        <time>2011-05-01T10:16:55Z</time>
      </trkpt>
      <trkpt lat="49.36327" lon="1.14182">
        <ele>96.8</ele>
        <time>2011-05-01T10:16:57Z</time>
      </trkpt>
      <trkpt lat="49.3633" lon="1.14184">
        <ele>97</ele>
        <time>2011-05-01T10:16:59Z</time>
      </trkpt>
      <trkpt lat="49.36335" lon="1.14186">
        <ele>97.6</ele>
        <time>2011-05-01T10:17:02Z</time>
      </trkpt>
      <trkpt lat="49.36338" lon="1.14186">
        <ele>98.2</ele>
        <time>2011-05-01T10:17:04Z</time>
      </trkpt>
      <trkpt lat="49.36342" lon="1.14187">
        <ele>98.6</ele>
        <time>2011-05-01T10:17:06Z</time>
      </trkpt>
      <trkpt lat="49.36344" lon="1.14188">
        <ele>99</ele>
        <time>2011-05-01T10:17:08Z</time>
      </trkpt>
      <trkpt lat="49.36347" lon="1.14188">
        <ele>99.2</ele>
        <time>2011-05-01T10:17:10Z</time>
      </trkpt>
      <trkpt lat="49.36352" lon="1.1419">
        <ele>99.8</ele>
        <time>2011-05-01T10:17:13Z</time>
      </trkpt>
      <trkpt lat="49.36355" lon="1.14192">
        <ele>100.4</ele>
        <time>2011-05-01T10:17:15Z</time>
      </trkpt>
      <trkpt lat="49.36359" lon="1.14192">
        <ele>100.8</ele>
        <time>2011-05-01T10:17:17Z</time>
      </trkpt>
      <trkpt lat="49.36362" lon="1.14193">
        <ele>101.2</ele>
        <time>2011-05-01T10:17:19Z</time>
      </trkpt>
      <trkpt lat="49.36365" lon="1.14194">
        <ele>101.4</ele>
        <time>2011-05-01T10:17:21Z</time>
      </trkpt>
      <trkpt lat="49.36366" lon="1.14194">
        <ele>101.6</ele>
        <time>2011-05-01T10:17:22Z</time>
      </trkpt>
      <trkpt lat="49.36371" lon="1.14194">
        <ele>102.2</ele>
        <time>2011-05-01T10:17:25Z</time>
      </trkpt>
      <trkpt lat="49.36374" lon="1.14193">
        <ele>102.6</ele>
        <time>2011-05-01T10:17:27Z</time>
      </trkpt>
      <trkpt lat="49.36378" lon="1.14193">
        <ele>103.2</ele>
        <time>2011-05-01T10:17:29Z</time>
      </trkpt>
      <trkpt lat="49.36381" lon="1.14192">
        <ele>103.4</ele>
        <time>2011-05-01T10:17:32Z</time>
      </trkpt>
      <trkpt lat="49.36384" lon="1.14191">
        <ele>103.8</ele>
        <time>2011-05-01T10:17:33Z</time>
      </trkpt>
      <trkpt lat="49.36391" lon="1.14189">
        <ele>104.4</ele>
        <time>2011-05-01T10:17:37Z</time>
      </trkpt>
      <trkpt lat="49.36393" lon="1.14189">
        <ele>104.8</ele>
        <time>2011-05-01T10:17:39Z</time>
      </trkpt>
      <trkpt lat="49.36397" lon="1.14187">
        <ele>105.4</ele>
        <time>2011-05-01T10:17:41Z</time>
      </trkpt>
      <trkpt lat="49.364" lon="1.14184">
        <ele>105.6</ele>
        <time>2011-05-01T10:17:43Z</time>
      </trkpt>
      <trkpt lat="49.36403" lon="1.14181">
        <ele>106</ele>
        <time>2011-05-01T10:17:45Z</time>
      </trkpt>
      <trkpt lat="49.36411" lon="1.14176">
        <ele>106.6</ele>
        <time>2011-05-01T10:17:50Z</time>
      </trkpt>
      <trkpt lat="49.36414" lon="1.14175">
        <ele>107</ele>
        <time>2011-05-01T10:17:52Z</time>
      </trkpt>
      <trkpt lat="49.36417" lon="1.14175">
        <ele>107.4</ele>
        <time>2011-05-01T10:17:54Z</time>
      </trkpt>
      <trkpt lat="49.36419" lon="1.14176">
        <ele>107.6</ele>
        <time>2011-05-01T10:17:55Z</time>
      </trkpt>
      <trkpt lat="49.3642" lon="1.14177">
        <ele>107.8</ele>
        <time>2011-05-01T10:17:56Z</time>
      </trkpt>
      <trkpt lat="49.36423" lon="1.1418">
        <ele>108</ele>
        <time>2011-05-01T10:17:58Z</time>
      </trkpt>
      <trkpt lat="49.36425" lon="1.14183">
        <ele>108.2</ele>
        <time>2011-05-01T10:17:59Z</time>
      </trkpt>
      <trkpt lat="49.36429" lon="1.14191">
        <ele>108.4</ele>
        <time>2011-05-01T10:18:02Z</time>
      </trkpt>
      <trkpt lat="49.36435" lon="1.14205">
        <ele>108.8</ele>
        <time>2011-05-01T10:18:07Z</time>
      </trkpt>
      <trkpt lat="49.36438" lon="1.14211">
        <ele>109.4</ele>
        <time>2011-05-01T10:18:09Z</time>
      </trkpt>
      <trkpt lat="49.3644" lon="1.14218">
        <ele>109.6</ele>
        <time>2011-05-01T10:18:11Z</time>
      </trkpt>
      <trkpt lat="49.36444" lon="1.14225">
        <ele>110</ele>
        <time>2011-05-01T10:18:13Z</time>
      </trkpt>
      <trkpt lat="49.36447" lon="1.1423">
        <ele>110.2</ele>
        <time>2011-05-01T10:18:15Z</time>
      </trkpt>
      <trkpt lat="49.36459" lon="1.14247">
        <ele>111</ele>
        <time>2011-05-01T10:18:22Z</time>
      </trkpt>
      <trkpt lat="49.36462" lon="1.1425">
        <ele>111.4</ele>
        <time>2011-05-01T10:18:24Z</time>
      </trkpt>
      <trkpt lat="49.36465" lon="1.14256">
        <ele>111.8</ele>
        <time>2011-05-01T10:18:26Z</time>
      </trkpt>
      <trkpt lat="49.36469" lon="1.14264">
        <ele>112</ele>
        <time>2011-05-01T10:18:28Z</time>
      </trkpt>
      <trkpt lat="49.36472" lon="1.1427">
        <ele>112.2</ele>
        <time>2011-05-01T10:18:30Z</time>
      </trkpt>
      <trkpt lat="49.36484" lon="1.14291">
        <ele>113</ele>
        <time>2011-05-01T10:18:37Z</time>
      </trkpt>
      <trkpt lat="49.36488" lon="1.14299">
        <ele>113.4</ele>
        <time>2011-05-01T10:18:39Z</time>
      </trkpt>
      <trkpt lat="49.36492" lon="1.14307">
        <ele>113.8</ele>
        <time>2011-05-01T10:18:41Z</time>
      </trkpt>
      <trkpt lat="49.36496" lon="1.14315">
        <ele>114.2</ele>
        <time>2011-05-01T10:18:43Z</time>
      </trkpt>
      <trkpt lat="49.36499" lon="1.14321">
        <ele>114.4</ele>
        <time>2011-05-01T10:18:45Z</time>
      </trkpt>
      <trkpt lat="49.36509" lon="1.14337">
        <ele>115</ele>
        <time>2011-05-01T10:18:50Z</time>
      </trkpt>
      <trkpt lat="49.36513" lon="1.14343">
        <ele>115.4</ele>
        <time>2011-05-01T10:18:52Z</time>
      </trkpt>
      <trkpt lat="49.36517" lon="1.14349">
        <ele>115.8</ele>
        <time>2011-05-01T10:18:54Z</time>
      </trkpt>
      <trkpt lat="49.36521" lon="1.14355">
        <ele>116.2</ele>
        <time>2011-05-01T10:18:56Z</time>
      </trkpt>
      <trkpt lat="49.36524" lon="1.14362">
        <ele>116.4</ele>
        <time>2011-05-01T10:18:58Z</time>
      </trkpt>
      <trkpt lat="49.36544" lon="1.14392">
        <ele>117.2</ele>
        <time>2011-05-01T10:19:08Z</time>
      </trkpt>
      <trkpt lat="49.36547" lon="1.14398">
        <ele>117.6</ele>
        <time>2011-05-01T10:19:10Z</time>
      </trkpt>
      <trkpt lat="49.36549" lon="1.14402">
        <ele>118</ele>
        <time>2011-05-01T10:19:12Z</time>
      </trkpt>
      <trkpt lat="49.36555" lon="1.14407">
        <ele>118.2</ele>
        <time>2011-05-01T10:19:14Z</time>
      </trkpt>
      <trkpt lat="49.36562" lon="1.14409">
        <ele>118.4</ele>
        <time>2011-05-01T10:19:16Z</time>
      </trkpt>
      <trkpt lat="49.36583" lon="1.14407">
        <ele>119</ele>
        <time>2011-05-01T10:19:22Z</time>
      </trkpt>
      <trkpt lat="49.36599" lon="1.14405">
        <ele>119.4</ele>
        <time>2011-05-01T10:19:27Z</time>
      </trkpt>
      <trkpt lat="49.36605" lon="1.14403">
        <ele>119.8</ele>
        <time>2011-05-01T10:19:29Z</time>
      </trkpt>
      <trkpt lat="49.36612" lon="1.144">
        <ele>120</ele>
        <time>2011-05-01T10:19:31Z</time>
      </trkpt>
      <trkpt lat="49.36617" lon="1.14398">
        <ele>120.4</ele>
        <time>2011-05-01T10:19:33Z</time>
      </trkpt>
      <trkpt lat="49.36623" lon="1.14396">
        <ele>120.6</ele>
        <time>2011-05-01T10:19:35Z</time>
      </trkpt>
      <trkpt lat="49.36639" lon="1.14391">
        <ele>121.2</ele>
        <time>2011-05-01T10:19:41Z</time>
      </trkpt>
      <trkpt lat="49.36644" lon="1.14389">
        <ele>121.6</ele>
        <time>2011-05-01T10:19:43Z</time>
      </trkpt>
      <trkpt lat="49.3665" lon="1.14387">
        <ele>122</ele>
        <time>2011-05-01T10:19:45Z</time>
      </trkpt>
      <trkpt lat="49.36655" lon="1.14386">
        <ele>122.4</ele>
        <time>2011-05-01T10:19:47Z</time>
      </trkpt>
      <trkpt lat="49.3666" lon="1.14384">
        <ele>122.6</ele>
        <time>2011-05-01T10:19:49Z</time>
      </trkpt>
      <trkpt lat="49.36672" lon="1.1438">
        <ele>123.2</ele>
        <time>2011-05-01T10:19:53Z</time>
      </trkpt>
      <trkpt lat="49.36677" lon="1.14379">
        <ele>123.6</ele>
        <time>2011-05-01T10:19:55Z</time>
      </trkpt>
      <trkpt lat="49.36682" lon="1.14377">
        <ele>124</ele>
        <time>2011-05-01T10:19:57Z</time>
      </trkpt>
      <trkpt lat="49.36685" lon="1.14374">
        <ele>124.2</ele>
        <time>2011-05-01T10:19:59Z</time>
      </trkpt>
      <trkpt lat="49.36688" lon="1.14373">
        <ele>124.4</ele>
        <time>2011-05-01T10:20:00Z</time>
      </trkpt>
      <trkpt lat="49.3669" lon="1.14372">
        <ele>124.6</ele>
        <time>2011-05-01T10:20:01Z</time>
      </trkpt>
      <trkpt lat="49.36713" lon="1.14363">
        <ele>125.2</ele>
        <time>2011-05-01T10:20:10Z</time>
      </trkpt>
      <trkpt lat="49.36729" lon="1.14357">
        <ele>125.4</ele>
        <time>2011-05-01T10:20:16Z</time>
      </trkpt>
      <trkpt lat="49.36737" lon="1.14355">
        <ele>125.6</ele>
        <time>2011-05-01T10:20:19Z</time>
      </trkpt>
      <trkpt lat="49.36744" lon="1.14354">
        <ele>126</ele>
        <time>2011-05-01T10:20:21Z</time>
      </trkpt>
      <trkpt lat="49.3675" lon="1.14353">
        <ele>126.4</ele>
        <time>2011-05-01T10:20:23Z</time>
      </trkpt>
      <trkpt lat="49.36756" lon="1.14353">
        <ele>126.6</ele>
        <time>2011-05-01T10:20:25Z</time>
      </trkpt>
      <trkpt lat="49.36762" lon="1.14352">
        <ele>126.8</ele>
        <time>2011-05-01T10:20:27Z</time>
      </trkpt>
      <trkpt lat="49.36784" lon="1.14349">
        <ele>127.2</ele>
        <time>2011-05-01T10:20:34Z</time>
      </trkpt>
      <trkpt lat="49.36791" lon="1.14349">
        <ele>127.6</ele>
        <time>2011-05-01T10:20:36Z</time>
      </trkpt>
      <trkpt lat="49.36798" lon="1.1435">
        <ele>128</ele>
        <time>2011-05-01T10:20:38Z</time>
      </trkpt>
      <trkpt lat="49.36805" lon="1.14351">
        <ele>128.4</ele>
        <time>2011-05-01T10:20:40Z</time>
      </trkpt>
      <trkpt lat="49.36812" lon="1.14351">
        <ele>128.6</ele>
        <time>2011-05-01T10:20:42Z</time>
      </trkpt>
      <trkpt lat="49.36819" lon="1.14351">
        <ele>128.8</ele>
        <time>2011-05-01T10:20:44Z</time>
      </trkpt>
      <trkpt lat="49.36849" lon="1.14353">
        <ele>129.4</ele>
        <time>2011-05-01T10:20:52Z</time>
      </trkpt>
      <trkpt lat="49.36873" lon="1.14355">
        <ele>129.6</ele>
        <time>2011-05-01T10:20:58Z</time>
      </trkpt>
      <trkpt lat="49.36914" lon="1.14359">
        <ele>129.8</ele>
        <time>2011-05-01T10:21:07Z</time>
      </trkpt>
      <trkpt lat="49.3694" lon="1.14355">
        <ele>129.8</ele>
        <time>2011-05-01T10:21:14Z</time>
      </trkpt>
      <trkpt lat="49.36969" lon="1.14353">
        <ele>129.8</ele>
        <time>2011-05-01T10:21:22Z</time>
      </trkpt>
      <trkpt lat="49.3698" lon="1.14352">
        <ele>129.8</ele>
        <time>2011-05-01T10:21:25Z</time>
      </trkpt>
      <trkpt lat="49.36983" lon="1.14348">
        <ele>129.8</ele>
        <time>2011-05-01T10:21:27Z</time>
      </trkpt>
      <trkpt lat="49.36972" lon="1.14321">
        <ele>129.8</ele>
        <time>2011-05-01T10:21:34Z</time>
      </trkpt>
      <trkpt lat="49.36962" lon="1.14296">
        <ele>129.8</ele>
        <time>2011-05-01T10:21:39Z</time>
      </trkpt>
      <trkpt lat="49.36958" lon="1.14283">
        <ele>129.8</ele>
        <time>2011-05-01T10:21:41Z</time>
      </trkpt>
      <trkpt lat="49.36949" lon="1.14254">
        <ele>129.8</ele>
        <time>2011-05-01T10:21:45Z</time>
      </trkpt>
      <trkpt lat="49.36942" lon="1.14226">
        <ele>129.8</ele>
        <time>2011-05-01T10:21:49Z</time>
      </trkpt>
      <trkpt lat="49.36939" lon="1.14209">
        <ele>129.8</ele>
        <time>2011-05-01T10:21:51Z</time>
      </trkpt>
      <trkpt lat="49.36929" lon="1.14179">
        <ele>129.8</ele>
        <time>2011-05-01T10:21:54Z</time>
      </trkpt>
      <trkpt lat="49.36909" lon="1.14107">
        <ele>129.8</ele>
        <time>2011-05-01T10:22:04Z</time>
      </trkpt>
      <trkpt lat="49.36907" lon="1.141">
        <ele>129.8</ele>
        <time>2011-05-01T10:22:05Z</time>
      </trkpt>
      <trkpt lat="49.36903" lon="1.14084">
        <ele>129.6</ele>
        <time>2011-05-01T10:22:07Z</time>
      </trkpt>
      <trkpt lat="49.36899" lon="1.14068">
        <ele>129.2</ele>
        <time>2011-05-01T10:22:09Z</time>
      </trkpt>
      <trkpt lat="49.36895" lon="1.14054">
        <ele>129</ele>
        <time>2011-05-01T10:22:11Z</time>
      </trkpt>
      <trkpt lat="49.3689" lon="1.14038">
        <ele>128.8</ele>
        <time>2011-05-01T10:22:13Z</time>
      </trkpt>
      <trkpt lat="49.36885" lon="1.14021">
        <ele>128.6</ele>
        <time>2011-05-01T10:22:15Z</time>
      </trkpt>
      <trkpt lat="49.36883" lon="1.14012">
        <ele>128.4</ele>
        <time>2011-05-01T10:22:16Z</time>
      </trkpt>
      <trkpt lat="49.36878" lon="1.13998">
        <ele>128</ele>
        <time>2011-05-01T10:22:18Z</time>
      </trkpt>
      <trkpt lat="49.36872" lon="1.13975">
        <ele>127.4</ele>
        <time>2011-05-01T10:22:21Z</time>
      </trkpt>
      <trkpt lat="49.36866" lon="1.13956">
        <ele>127</ele>
        <time>2011-05-01T10:22:23Z</time>
      </trkpt>
      <trkpt lat="49.36858" lon="1.13934">
        <ele>126.6</ele>
        <time>2011-05-01T10:22:25Z</time>
      </trkpt>
      <trkpt lat="49.36852" lon="1.13916">
        <ele>126</ele>
        <time>2011-05-01T10:22:27Z</time>
      </trkpt>
      <trkpt lat="49.36849" lon="1.13908">
        <ele>125.6</ele>
        <time>2011-05-01T10:22:28Z</time>
      </trkpt>
      <trkpt lat="49.36843" lon="1.13887">
        <ele>125</ele>
        <time>2011-05-01T10:22:31Z</time>
      </trkpt>
      <trkpt lat="49.36841" lon="1.13882">
        <ele>124.8</ele>
        <time>2011-05-01T10:22:32Z</time>
      </trkpt>
      <trkpt lat="49.3684" lon="1.13873">
        <ele>124.4</ele>
        <time>2011-05-01T10:22:34Z</time>
      </trkpt>
      <trkpt lat="49.36842" lon="1.13863">
        <ele>123.8</ele>
        <time>2011-05-01T10:22:36Z</time>
      </trkpt>
      <trkpt lat="49.36845" lon="1.13848">
        <ele>123</ele>
        <time>2011-05-01T10:22:38Z</time>
      </trkpt>
      <trkpt lat="49.36847" lon="1.13836">
        <ele>122.2</ele>
        <time>2011-05-01T10:22:40Z</time>
      </trkpt>
      <trkpt lat="49.36847" lon="1.13831">
        <ele>121.6</ele>
        <time>2011-05-01T10:22:41Z</time>
      </trkpt>
      <trkpt lat="49.36848" lon="1.13821">
        <ele>120.4</ele>
        <time>2011-05-01T10:22:43Z</time>
      </trkpt>
      <trkpt lat="49.36849" lon="1.13815">
        <ele>119.8</ele>
        <time>2011-05-01T10:22:44Z</time>
      </trkpt>
      <trkpt lat="49.36849" lon="1.13807">
        <ele>119.2</ele>
        <time>2011-05-01T10:22:45Z</time>
      </trkpt>
      <trkpt lat="49.36848" lon="1.13798">
        <ele>118.6</ele>
        <time>2011-05-01T10:22:46Z</time>
      </trkpt>
      <trkpt lat="49.36847" lon="1.13787">
        <ele>118</ele>
        <time>2011-05-01T10:22:47Z</time>
      </trkpt>
      <trkpt lat="49.36844" lon="1.13766">
        <ele>116.8</ele>
        <time>2011-05-01T10:22:49Z</time>
      </trkpt>
      <trkpt lat="49.36837" lon="1.13756">
        <ele>116</ele>
        <time>2011-05-01T10:22:50Z</time>
      </trkpt>
      <trkpt lat="49.3683" lon="1.13741">
        <ele>114.6</ele>
        <time>2011-05-01T10:22:52Z</time>
      </trkpt>
      <trkpt lat="49.36826" lon="1.1373">
        <ele>113.8</ele>
        <time>2011-05-01T10:22:53Z</time>
      </trkpt>
      <trkpt lat="49.36821" lon="1.13715">
        <ele>112.2</ele>
        <time>2011-05-01T10:22:55Z</time>
      </trkpt>
      <trkpt lat="49.36817" lon="1.13701">
        <ele>110.6</ele>
        <time>2011-05-01T10:22:57Z</time>
      </trkpt>
      <trkpt lat="49.36816" lon="1.13694">
        <ele>109.6</ele>
        <time>2011-05-01T10:22:58Z</time>
      </trkpt>
      <trkpt lat="49.36815" lon="1.13687">
        <ele>108.8</ele>
        <time>2011-05-01T10:22:59Z</time>
      </trkpt>
      <trkpt lat="49.36813" lon="1.13679">
        <ele>108</ele>
        <time>2011-05-01T10:23:00Z</time>
      </trkpt>
      <trkpt lat="49.3681" lon="1.13672">
        <ele>107</ele>
        <time>2011-05-01T10:23:01Z</time>
      </trkpt>
      <trkpt lat="49.36807" lon="1.13663">
        <ele>106.2</ele>
        <time>2011-05-01T10:23:02Z</time>
      </trkpt>
      <trkpt lat="49.36799" lon="1.13649">
        <ele>104.6</ele>
        <time>2011-05-01T10:23:04Z</time>
      </trkpt>
      <trkpt lat="49.36792" lon="1.13635">
        <ele>103</ele>
        <time>2011-05-01T10:23:06Z</time>
      </trkpt>
      <trkpt lat="49.36788" lon="1.13627">
        <ele>102.2</ele>
        <time>2011-05-01T10:23:07Z</time>
      </trkpt>
      <trkpt lat="49.36781" lon="1.13609">
        <ele>100.6</ele>
        <time>2011-05-01T10:23:09Z</time>
      </trkpt>
      <trkpt lat="49.36779" lon="1.13599">
        <ele>99.8</ele>
        <time>2011-05-01T10:23:10Z</time>
      </trkpt>
      <trkpt lat="49.36778" lon="1.13594">
        <ele>99</ele>
        <time>2011-05-01T10:23:11Z</time>
      </trkpt>
      <trkpt lat="49.36777" lon="1.13588">
        <ele>98.2</ele>
        <time>2011-05-01T10:23:12Z</time>
      </trkpt>
      <trkpt lat="49.36775" lon="1.13582">
        <ele>97.2</ele>
        <time>2011-05-01T10:23:13Z</time>
      </trkpt>
      <trkpt lat="49.36772" lon="1.13573">
        <ele>95.8</ele>
        <time>2011-05-01T10:23:15Z</time>
      </trkpt>
      <trkpt lat="49.3677" lon="1.13564">
        <ele>94.4</ele>
        <time>2011-05-01T10:23:17Z</time>
      </trkpt>
      <trkpt lat="49.36769" lon="1.13559">
        <ele>93.6</ele>
        <time>2011-05-01T10:23:18Z</time>
      </trkpt>
      <trkpt lat="49.36768" lon="1.13557">
        <ele>93</ele>
        <time>2011-05-01T10:23:19Z</time>
      </trkpt>
      <trkpt lat="49.36768" lon="1.13555">
        <ele>92.4</ele>
        <time>2011-05-01T10:23:20Z</time>
      </trkpt>
      <trkpt lat="49.36768" lon="1.13547">
        <ele>91</ele>
        <time>2011-05-01T10:23:23Z</time>
      </trkpt>
      <trkpt lat="49.36767" lon="1.13541">
        <ele>90.4</ele>
        <time>2011-05-01T10:23:24Z</time>
      </trkpt>
      <trkpt lat="49.36765" lon="1.13532">
        <ele>89.8</ele>
        <time>2011-05-01T10:23:25Z</time>
      </trkpt>
      <trkpt lat="49.36757" lon="1.13506">
        <ele>88.2</ele>
        <time>2011-05-01T10:23:28Z</time>
      </trkpt>
      <trkpt lat="49.36754" lon="1.13497">
        <ele>87.6</ele>
        <time>2011-05-01T10:23:29Z</time>
      </trkpt>
      <trkpt lat="49.36749" lon="1.13483">
        <ele>86.4</ele>
        <time>2011-05-01T10:23:31Z</time>
      </trkpt>
      <trkpt lat="49.36745" lon="1.13473">
        <ele>85.8</ele>
        <time>2011-05-01T10:23:32Z</time>
      </trkpt>
      <trkpt lat="49.36738" lon="1.13455">
        <ele>84.4</ele>
        <time>2011-05-01T10:23:34Z</time>
      </trkpt>
      <trkpt lat="49.36735" lon="1.13446">
        <ele>83.8</ele>
        <time>2011-05-01T10:23:35Z</time>
      </trkpt>
      <trkpt lat="49.36731" lon="1.13428">
        <ele>82.2</ele>
        <time>2011-05-01T10:23:37Z</time>
      </trkpt>
      <trkpt lat="49.36728" lon="1.13419">
        <ele>81.4</ele>
        <time>2011-05-01T10:23:38Z</time>
      </trkpt>
      <trkpt lat="49.36722" lon="1.13404">
        <ele>80</ele>
        <time>2011-05-01T10:23:40Z</time>
      </trkpt>
      <trkpt lat="49.36719" lon="1.13398">
        <ele>79.2</ele>
        <time>2011-05-01T10:23:41Z</time>
      </trkpt>
      <trkpt lat="49.36717" lon="1.13392">
        <ele>78.4</ele>
        <time>2011-05-01T10:23:42Z</time>
      </trkpt>
      <trkpt lat="49.36716" lon="1.13386">
        <ele>77.6</ele>
        <time>2011-05-01T10:23:43Z</time>
      </trkpt>
      <trkpt lat="49.36715" lon="1.13381">
        <ele>76.8</ele>
        <time>2011-05-01T10:23:44Z</time>
      </trkpt>
      <trkpt lat="49.36711" lon="1.13373">
        <ele>75.2</ele>
        <time>2011-05-01T10:23:46Z</time>
      </trkpt>
      <trkpt lat="49.36708" lon="1.13368">
        <ele>74.4</ele>
        <time>2011-05-01T10:23:47Z</time>
      </trkpt>
      <trkpt lat="49.36706" lon="1.13356">
        <ele>72.8</ele>
        <time>2011-05-01T10:23:49Z</time>
      </trkpt>
      <trkpt lat="49.36702" lon="1.1334">
        <ele>71.4</ele>
        <time>2011-05-01T10:23:51Z</time>
      </trkpt>
      <trkpt lat="49.36699" lon="1.13333">
        <ele>70.6</ele>
        <time>2011-05-01T10:23:52Z</time>
      </trkpt>
      <trkpt lat="49.36696" lon="1.13323">
        <ele>69.8</ele>
        <time>2011-05-01T10:23:53Z</time>
      </trkpt>
      <trkpt lat="49.36694" lon="1.13315">
        <ele>69.2</ele>
        <time>2011-05-01T10:23:54Z</time>
      </trkpt>
      <trkpt lat="49.36691" lon="1.13306">
        <ele>68.4</ele>
        <time>2011-05-01T10:23:55Z</time>
      </trkpt>
      <trkpt lat="49.36689" lon="1.13296">
        <ele>67.6</ele>
        <time>2011-05-01T10:23:56Z</time>
      </trkpt>
      <trkpt lat="49.36687" lon="1.13288">
        <ele>66.8</ele>
        <time>2011-05-01T10:23:57Z</time>
      </trkpt>
      <trkpt lat="49.36685" lon="1.13281">
        <ele>66</ele>
        <time>2011-05-01T10:23:58Z</time>
      </trkpt>
      <trkpt lat="49.36682" lon="1.13255">
        <ele>64.4</ele>
        <time>2011-05-01T10:24:00Z</time>
      </trkpt>
      <trkpt lat="49.36681" lon="1.13242">
        <ele>63.6</ele>
        <time>2011-05-01T10:24:01Z</time>
      </trkpt>
      <trkpt lat="49.3668" lon="1.13231">
        <ele>62.8</ele>
        <time>2011-05-01T10:24:02Z</time>
      </trkpt>
      <trkpt lat="49.36677" lon="1.13215">
        <ele>61.4</ele>
        <time>2011-05-01T10:24:04Z</time>
      </trkpt>
      <trkpt lat="49.36678" lon="1.13197">
        <ele>59.8</ele>
        <time>2011-05-01T10:24:06Z</time>
      </trkpt>
      <trkpt lat="49.36681" lon="1.13188">
        <ele>59</ele>
        <time>2011-05-01T10:24:07Z</time>
      </trkpt>
      <trkpt lat="49.36686" lon="1.13171">
        <ele>57.6</ele>
        <time>2011-05-01T10:24:09Z</time>
      </trkpt>
      <trkpt lat="49.36687" lon="1.13164">
        <ele>56.8</ele>
        <time>2011-05-01T10:24:10Z</time>
      </trkpt>
      <trkpt lat="49.36691" lon="1.13156">
        <ele>56</ele>
        <time>2011-05-01T10:24:11Z</time>
      </trkpt>
      <trkpt lat="49.36692" lon="1.1315">
        <ele>55.4</ele>
        <time>2011-05-01T10:24:12Z</time>
      </trkpt>
      <trkpt lat="49.36699" lon="1.13137">
        <ele>54.6</ele>
        <time>2011-05-01T10:24:13Z</time>
      </trkpt>
      <trkpt lat="49.36706" lon="1.13118">
        <ele>53.2</ele>
        <time>2011-05-01T10:24:15Z</time>
      </trkpt>
      <trkpt lat="49.3671" lon="1.1311">
        <ele>52.2</ele>
        <time>2011-05-01T10:24:16Z</time>
      </trkpt>
      <trkpt lat="49.36717" lon="1.13095">
        <ele>50.8</ele>
        <time>2011-05-01T10:24:18Z</time>
      </trkpt>
      <trkpt lat="49.3672" lon="1.13089">
        <ele>50</ele>
        <time>2011-05-01T10:24:19Z</time>
      </trkpt>
      <trkpt lat="49.36722" lon="1.13076">
        <ele>48.4</ele>
        <time>2011-05-01T10:24:21Z</time>
      </trkpt>
      <trkpt lat="49.36722" lon="1.1307">
        <ele>47.4</ele>
        <time>2011-05-01T10:24:23Z</time>
      </trkpt>
      <trkpt lat="49.36721" lon="1.13068">
        <ele>46.2</ele>
        <time>2011-05-01T10:24:25Z</time>
      </trkpt>
      <trkpt lat="49.3672" lon="1.13068">
        <ele>45</ele>
        <time>2011-05-01T10:24:27Z</time>
      </trkpt>
      <trkpt lat="49.3672" lon="1.13066">
        <ele>44</ele>
        <time>2011-05-01T10:24:29Z</time>
      </trkpt>
      <trkpt lat="49.36719" lon="1.13063">
        <ele>43.4</ele>
        <time>2011-05-01T10:24:31Z</time>
      </trkpt>
      <trkpt lat="49.36719" lon="1.13056">
        <ele>42.8</ele>
        <time>2011-05-01T10:24:33Z</time>
      </trkpt>
      <trkpt lat="49.36721" lon="1.1304">
        <ele>41.6</ele>
        <time>2011-05-01T10:24:39Z</time>
      </trkpt>
      <trkpt lat="49.36722" lon="1.13032">
        <ele>41</ele>
        <time>2011-05-01T10:24:44Z</time>
      </trkpt>
      <trkpt lat="49.36727" lon="1.13019">
        <ele>40.6</ele>
        <time>2011-05-01T10:24:47Z</time>
      </trkpt>
      <trkpt lat="49.3673" lon="1.13012">
        <ele>40.2</ele>
        <time>2011-05-01T10:24:48Z</time>
      </trkpt>
      <trkpt lat="49.36733" lon="1.13005">
        <ele>40</ele>
        <time>2011-05-01T10:24:49Z</time>
      </trkpt>
      <trkpt lat="49.36741" lon="1.12992">
        <ele>39.4</ele>
        <time>2011-05-01T10:24:51Z</time>
      </trkpt>
      <trkpt lat="49.36744" lon="1.12987">
        <ele>39</ele>
        <time>2011-05-01T10:24:52Z</time>
      </trkpt>
      <trkpt lat="49.36748" lon="1.1298">
        <ele>38.6</ele>
        <time>2011-05-01T10:24:53Z</time>
      </trkpt>
      <trkpt lat="49.36752" lon="1.12971">
        <ele>38.2</ele>
        <time>2011-05-01T10:24:54Z</time>
      </trkpt>
      <trkpt lat="49.36761" lon="1.12952">
        <ele>37.2</ele>
        <time>2011-05-01T10:24:56Z</time>
      </trkpt>
      <trkpt lat="49.36767" lon="1.12943">
        <ele>36.6</ele>
        <time>2011-05-01T10:24:57Z</time>
      </trkpt>
      <trkpt lat="49.36779" lon="1.12931">
        <ele>35.4</ele>
        <time>2011-05-01T10:24:59Z</time>
      </trkpt>
      <trkpt lat="49.36784" lon="1.12926">
        <ele>34.8</ele>
        <time>2011-05-01T10:25:00Z</time>
      </trkpt>
      <trkpt lat="49.36795" lon="1.12919">
        <ele>33.4</ele>
        <time>2011-05-01T10:25:02Z</time>
      </trkpt>
      <trkpt lat="49.36801" lon="1.12917">
        <ele>32.6</ele>
        <time>2011-05-01T10:25:03Z</time>
      </trkpt>
      <trkpt lat="49.36816" lon="1.12918">
        <ele>31</ele>
        <time>2011-05-01T10:25:05Z</time>
      </trkpt>
      <trkpt lat="49.36831" lon="1.12926">
        <ele>29.6</ele>
        <time>2011-05-01T10:25:07Z</time>
      </trkpt>
      <trkpt lat="49.36839" lon="1.12932">
        <ele>28.6</ele>
        <time>2011-05-01T10:25:08Z</time>
      </trkpt>
      <trkpt lat="49.36853" lon="1.12943">
        <ele>27</ele>
        <time>2011-05-01T10:25:10Z</time>
      </trkpt>
      <trkpt lat="49.36859" lon="1.12945">
        <ele>26.2</ele>
        <time>2011-05-01T10:25:11Z</time>
      </trkpt>
      <trkpt lat="49.36865" lon="1.12941">
        <ele>24.6</ele>
        <time>2011-05-01T10:25:13Z</time>
      </trkpt>
      <trkpt lat="49.36867" lon="1.12935">
        <ele>23.8</ele>
        <time>2011-05-01T10:25:14Z</time>
      </trkpt>
      <trkpt lat="49.36866" lon="1.1293">
        <ele>23</ele>
        <time>2011-05-01T10:25:15Z</time>
      </trkpt>
      <trkpt lat="49.36865" lon="1.12924">
        <ele>22.4</ele>
        <time>2011-05-01T10:25:16Z</time>
      </trkpt>
      <trkpt lat="49.36864" lon="1.12917">
        <ele>21.6</ele>
        <time>2011-05-01T10:25:17Z</time>
      </trkpt>
      <trkpt lat="49.36863" lon="1.12903">
        <ele>20.4</ele>
        <time>2011-05-01T10:25:19Z</time>
      </trkpt>
      <trkpt lat="49.36863" lon="1.12891">
        <ele>19</ele>
        <time>2011-05-01T10:25:21Z</time>
      </trkpt>
      <trkpt lat="49.36866" lon="1.12888">
        <ele>18</ele>
        <time>2011-05-01T10:25:23Z</time>
      </trkpt>
      <trkpt lat="49.36868" lon="1.12887">
        <ele>17.6</ele>
        <time>2011-05-01T10:25:24Z</time>
      </trkpt>
      <trkpt lat="49.36876" lon="1.12885">
        <ele>16.6</ele>
        <time>2011-05-01T10:25:27Z</time>
      </trkpt>
      <trkpt lat="49.36882" lon="1.1289">
        <ele>16</ele>
        <time>2011-05-01T10:25:29Z</time>
      </trkpt>
      <trkpt lat="49.36893" lon="1.12886">
        <ele>15</ele>
        <time>2011-05-01T10:25:34Z</time>
      </trkpt>
      <trkpt lat="49.36895" lon="1.12882">
        <ele>14.8</ele>
        <time>2011-05-01T10:25:35Z</time>
      </trkpt>
      <trkpt lat="49.36908" lon="1.12864">
        <ele>14.4</ele>
        <time>2011-05-01T10:25:40Z</time>
      </trkpt>
      <trkpt lat="49.36913" lon="1.12867">
        <ele>14.2</ele>
        <time>2011-05-01T10:25:43Z</time>
      </trkpt>
      <trkpt lat="49.36918" lon="1.12881">
        <ele>13.8</ele>
        <time>2011-05-01T10:25:49Z</time>
      </trkpt>
      <trkpt lat="49.36921" lon="1.12884">
        <ele>13.8</ele>
        <time>2011-05-01T10:25:51Z</time>
      </trkpt>
      <trkpt lat="49.36927" lon="1.12893">
        <ele>13.8</ele>
        <time>2011-05-01T10:25:55Z</time>
      </trkpt>
      <trkpt lat="49.36933" lon="1.12901">
        <ele>13.8</ele>
        <time>2011-05-01T10:26:01Z</time>
      </trkpt>
      <trkpt lat="49.36935" lon="1.12904">
        <ele>14.2</ele>
        <time>2011-05-01T10:26:03Z</time>
      </trkpt>
      <trkpt lat="49.36938" lon="1.12906">
        <ele>14.6</ele>
        <time>2011-05-01T10:26:05Z</time>
      </trkpt>
      <trkpt lat="49.3694" lon="1.12908">
        <ele>14.8</ele>
        <time>2011-05-01T10:26:07Z</time>
      </trkpt>
      <trkpt lat="49.36941" lon="1.12909">
        <ele>15</ele>
        <time>2011-05-01T10:26:08Z</time>
      </trkpt>
      <trkpt lat="49.36941" lon="1.1291">
        <ele>15.6</ele>
        <time>2011-05-01T10:26:10Z</time>
      </trkpt>
      <trkpt lat="49.36941" lon="1.12911">
        <ele>16</ele>
        <time>2011-05-01T10:26:12Z</time>
      </trkpt>
      <trkpt lat="49.36942" lon="1.12912">
        <ele>16.4</ele>
        <time>2011-05-01T10:26:14Z</time>
      </trkpt>
      <trkpt lat="49.36943" lon="1.12913">
        <ele>16.6</ele>
        <time>2011-05-01T10:26:15Z</time>
      </trkpt>
      <trkpt lat="49.36944" lon="1.12914">
        <ele>17.2</ele>
        <time>2011-05-01T10:26:17Z</time>
      </trkpt>
      <trkpt lat="49.36945" lon="1.12915">
        <ele>17.8</ele>
        <time>2011-05-01T10:26:19Z</time>
      </trkpt>
      <trkpt lat="49.36946" lon="1.12916">
        <ele>18.2</ele>
        <time>2011-05-01T10:26:21Z</time>
      </trkpt>
      <trkpt lat="49.36946" lon="1.12917">
        <ele>18.4</ele>
        <time>2011-05-01T10:26:23Z</time>
      </trkpt>
      <trkpt lat="49.36947" lon="1.12918">
        <ele>19</ele>
        <time>2011-05-01T10:26:25Z</time>
      </trkpt>
      <trkpt lat="49.36948" lon="1.12919">
        <ele>19.8</ele>
        <time>2011-05-01T10:26:28Z</time>
      </trkpt>
      <trkpt lat="49.36949" lon="1.1292">
        <ele>20.2</ele>
        <time>2011-05-01T10:26:30Z</time>
      </trkpt>
      <trkpt lat="49.3695" lon="1.12921">
        <ele>20.6</ele>
        <time>2011-05-01T10:26:32Z</time>
      </trkpt>
      <trkpt lat="49.3695" lon="1.12921">
        <ele>20.8</ele>
        <time>2011-05-01T10:26:34Z</time>
      </trkpt>
      <trkpt lat="49.36952" lon="1.12922">
        <ele>21.2</ele>
        <time>2011-05-01T10:26:36Z</time>
      </trkpt>
      <trkpt lat="49.36953" lon="1.12923">
        <ele>21.8</ele>
        <time>2011-05-01T10:26:38Z</time>
      </trkpt>
      <trkpt lat="49.36954" lon="1.12924">
        <ele>22</ele>
        <time>2011-05-01T10:26:39Z</time>
      </trkpt>
      <trkpt lat="49.36954" lon="1.12924">
        <ele>22.4</ele>
        <time>2011-05-01T10:26:41Z</time>
      </trkpt>
      <trkpt lat="49.36955" lon="1.12924">
        <ele>22.6</ele>
        <time>2011-05-01T10:26:42Z</time>
      </trkpt>
      <trkpt lat="49.36956" lon="1.12925">
        <ele>23</ele>
        <time>2011-05-01T10:26:44Z</time>
      </trkpt>
      <trkpt lat="49.36957" lon="1.12926">
        <ele>23.2</ele>
        <time>2011-05-01T10:26:46Z</time>
      </trkpt>
      <trkpt lat="49.3696" lon="1.12927">
        <ele>23.6</ele>
        <time>2011-05-01T10:26:49Z</time>
      </trkpt>
      <trkpt lat="49.36961" lon="1.12928">
        <ele>24.2</ele>
        <time>2011-05-01T10:26:51Z</time>
      </trkpt>
      <trkpt lat="49.36962" lon="1.12929">
        <ele>24.6</ele>
        <time>2011-05-01T10:26:53Z</time>
      </trkpt>
      <trkpt lat="49.36963" lon="1.12929">
        <ele>25</ele>
        <time>2011-05-01T10:26:55Z</time>
      </trkpt>
      <trkpt lat="49.36964" lon="1.1293">
        <ele>25.2</ele>
        <time>2011-05-01T10:26:57Z</time>
      </trkpt>
      <trkpt lat="49.36965" lon="1.1293">
        <ele>25.8</ele>
        <time>2011-05-01T10:27:00Z</time>
      </trkpt>
      <trkpt lat="49.36966" lon="1.12931">
        <ele>26.2</ele>
        <time>2011-05-01T10:27:02Z</time>
      </trkpt>
      <trkpt lat="49.36968" lon="1.12931">
        <ele>26.6</ele>
        <time>2011-05-01T10:27:04Z</time>
      </trkpt>
      <trkpt lat="49.36969" lon="1.12931">
        <ele>27</ele>
        <time>2011-05-01T10:27:06Z</time>
      </trkpt>
      <trkpt lat="49.3697" lon="1.12931">
        <ele>27.4</ele>
        <time>2011-05-01T10:27:08Z</time>
      </trkpt>
      <trkpt lat="49.36972" lon="1.12932">
        <ele>27.8</ele>
        <time>2011-05-01T10:27:10Z</time>
      </trkpt>
      <trkpt lat="49.36974" lon="1.12932">
        <ele>28.4</ele>
        <time>2011-05-01T10:27:12Z</time>
      </trkpt>
      <trkpt lat="49.36976" lon="1.12933">
        <ele>28.8</ele>
        <time>2011-05-01T10:27:14Z</time>
      </trkpt>
      <trkpt lat="49.36977" lon="1.12933">
        <ele>29.2</ele>
        <time>2011-05-01T10:27:16Z</time>
      </trkpt>
      <trkpt lat="49.36978" lon="1.12934">
        <ele>29.6</ele>
        <time>2011-05-01T10:27:18Z</time>
      </trkpt>
      <trkpt lat="49.36978" lon="1.12934">
        <ele>29.8</ele>
        <time>2011-05-01T10:27:19Z</time>
      </trkpt>
      <trkpt lat="49.36979" lon="1.12934">
        <ele>30.4</ele>
        <time>2011-05-01T10:27:21Z</time>
      </trkpt>
      <trkpt lat="49.3698" lon="1.12935">
        <ele>31</ele>
        <time>2011-05-01T10:27:23Z</time>
      </trkpt>
      <trkpt lat="49.36982" lon="1.12935">
        <ele>31.2</ele>
        <time>2011-05-01T10:27:25Z</time>
      </trkpt>
      <trkpt lat="49.36983" lon="1.12936">
        <ele>31.6</ele>
        <time>2011-05-01T10:27:27Z</time>
      </trkpt>
      <trkpt lat="49.36985" lon="1.12936">
        <ele>32</ele>
        <time>2011-05-01T10:27:29Z</time>
      </trkpt>
      <trkpt lat="49.36988" lon="1.12937">
        <ele>32.6</ele>
        <time>2011-05-01T10:27:31Z</time>
      </trkpt>
      <trkpt lat="49.36991" lon="1.1294">
        <ele>33.2</ele>
        <time>2011-05-01T10:27:33Z</time>
      </trkpt>
      <trkpt lat="49.36994" lon="1.12942">
        <ele>33.6</ele>
        <time>2011-05-01T10:27:35Z</time>
      </trkpt>
      <trkpt lat="49.36996" lon="1.12944">
        <ele>33.8</ele>
        <time>2011-05-01T10:27:37Z</time>
      </trkpt>
      <trkpt lat="49.36998" lon="1.12945">
        <ele>34</ele>
        <time>2011-05-01T10:27:38Z</time>
      </trkpt>
      <trkpt lat="49.37002" lon="1.12949">
        <ele>34.6</ele>
        <time>2011-05-01T10:27:41Z</time>
      </trkpt>
      <trkpt lat="49.37005" lon="1.12951">
        <ele>35</ele>
        <time>2011-05-01T10:27:43Z</time>
      </trkpt>
      <trkpt lat="49.37007" lon="1.12953">
        <ele>35.4</ele>
        <time>2011-05-01T10:27:45Z</time>
      </trkpt>
      <trkpt lat="49.3701" lon="1.12954">
        <ele>35.8</ele>
        <time>2011-05-01T10:27:47Z</time>
      </trkpt>
      <trkpt lat="49.37012" lon="1.12955">
        <ele>36</ele>
        <time>2011-05-01T10:27:49Z</time>
      </trkpt>
      <trkpt lat="49.37016" lon="1.12956">
        <ele>36.6</ele>
        <time>2011-05-01T10:27:52Z</time>
      </trkpt>
      <trkpt lat="49.37018" lon="1.12957">
        <ele>37.2</ele>
        <time>2011-05-01T10:27:54Z</time>
      </trkpt>
      <trkpt lat="49.37019" lon="1.12957">
        <ele>37.6</ele>
        <time>2011-05-01T10:27:56Z</time>
      </trkpt>
      <trkpt lat="49.3702" lon="1.12958">
        <ele>38</ele>
        <time>2011-05-01T10:27:58Z</time>
      </trkpt>
      <trkpt lat="49.37022" lon="1.12958">
        <ele>38</ele>
        <time>2011-05-01T10:27:59Z</time>
      </trkpt>
      <trkpt lat="49.37023" lon="1.12957">
        <ele>38.2</ele>
        <time>2011-05-01T10:28:00Z</time>
      </trkpt>
      <trkpt lat="49.37028" lon="1.1296">
        <ele>39.2</ele>
        <time>2011-05-01T10:28:07Z</time>
      </trkpt>
      <trkpt lat="49.37029" lon="1.12962">
        <ele>39.6</ele>
        <time>2011-05-01T10:28:09Z</time>
      </trkpt>
      <trkpt lat="49.37031" lon="1.12962">
        <ele>40</ele>
        <time>2011-05-01T10:28:11Z</time>
      </trkpt>
      <trkpt lat="49.37032" lon="1.12962">
        <ele>40.4</ele>
        <time>2011-05-01T10:28:13Z</time>
      </trkpt>
      <trkpt lat="49.37033" lon="1.12962">
        <ele>40.6</ele>
        <time>2011-05-01T10:28:15Z</time>
      </trkpt>
      <trkpt lat="49.37034" lon="1.12962">
        <ele>41</ele>
        <time>2011-05-01T10:28:16Z</time>
      </trkpt>
      <trkpt lat="49.37035" lon="1.12962">
        <ele>41.4</ele>
        <time>2011-05-01T10:28:18Z</time>
      </trkpt>
      <trkpt lat="49.37037" lon="1.12961">
        <ele>41.8</ele>
        <time>2011-05-01T10:28:20Z</time>
      </trkpt>
      <trkpt lat="49.37039" lon="1.12961">
        <ele>42.2</ele>
        <time>2011-05-01T10:28:22Z</time>
      </trkpt>
      <trkpt lat="49.3704" lon="1.12962">
        <ele>42.6</ele>
        <time>2011-05-01T10:28:24Z</time>
      </trkpt>
      <trkpt lat="49.37041" lon="1.12963">
        <ele>43</ele>
        <time>2011-05-01T10:28:26Z</time>
      </trkpt>
      <trkpt lat="49.37042" lon="1.12964">
        <ele>43.6</ele>
        <time>2011-05-01T10:28:28Z</time>
      </trkpt>
      <trkpt lat="49.37043" lon="1.12964">
        <ele>44</ele>
        <time>2011-05-01T10:28:30Z</time>
      </trkpt>
      <trkpt lat="49.37044" lon="1.12964">
        <ele>44.4</ele>
        <time>2011-05-01T10:28:32Z</time>
      </trkpt>
      <trkpt lat="49.37045" lon="1.12963">
        <ele>44.6</ele>
        <time>2011-05-01T10:28:34Z</time>
      </trkpt>
      <trkpt lat="49.37048" lon="1.12963">
        <ele>45.2</ele>
        <time>2011-05-01T10:28:38Z</time>
      </trkpt>
      <trkpt lat="49.3705" lon="1.12962">
        <ele>45.8</ele>
        <time>2011-05-01T10:28:40Z</time>
      </trkpt>
      <trkpt lat="49.37051" lon="1.12961">
        <ele>46.2</ele>
        <time>2011-05-01T10:28:42Z</time>
      </trkpt>
      <trkpt lat="49.37052" lon="1.12961">
        <ele>46.6</ele>
        <time>2011-05-01T10:28:44Z</time>
      </trkpt>
      <trkpt lat="49.37053" lon="1.12961">
        <ele>46.8</ele>
        <time>2011-05-01T10:28:46Z</time>
      </trkpt>
      <trkpt lat="49.37053" lon="1.12961">
        <ele>47.2</ele>
        <time>2011-05-01T10:28:47Z</time>
      </trkpt>
      <trkpt lat="49.37054" lon="1.1296">
        <ele>47.6</ele>
        <time>2011-05-01T10:28:49Z</time>
      </trkpt>
      <trkpt lat="49.37055" lon="1.1296">
        <ele>48.2</ele>
        <time>2011-05-01T10:28:51Z</time>
      </trkpt>
      <trkpt lat="49.37057" lon="1.1296">
        <ele>48.6</ele>
        <time>2011-05-01T10:28:53Z</time>
      </trkpt>
      <trkpt lat="49.37058" lon="1.12959">
        <ele>48.8</ele>
        <time>2011-05-01T10:28:55Z</time>
      </trkpt>
      <trkpt lat="49.3706" lon="1.12959">
        <ele>49.4</ele>
        <time>2011-05-01T10:28:58Z</time>
      </trkpt>
      <trkpt lat="49.37061" lon="1.12959">
        <ele>50</ele>
        <time>2011-05-01T10:29:00Z</time>
      </trkpt>
      <trkpt lat="49.37063" lon="1.12958">
        <ele>50.4</ele>
        <time>2011-05-01T10:29:02Z</time>
      </trkpt>
      <trkpt lat="49.37064" lon="1.12958">
        <ele>50.6</ele>
        <time>2011-05-01T10:29:04Z</time>
      </trkpt>
      <trkpt lat="49.37066" lon="1.12958">
        <ele>51</ele>
        <time>2011-05-01T10:29:06Z</time>
      </trkpt>
      <trkpt lat="49.37071" lon="1.12957">
        <ele>51.8</ele>
        <time>2011-05-01T10:29:14Z</time>
      </trkpt>
      <trkpt lat="49.37072" lon="1.12956">
        <ele>52.4</ele>
        <time>2011-05-01T10:29:16Z</time>
      </trkpt>
      <trkpt lat="49.37074" lon="1.12956">
        <ele>52.8</ele>
        <time>2011-05-01T10:29:18Z</time>
      </trkpt>
      <trkpt lat="49.37075" lon="1.12955">
        <ele>53</ele>
        <time>2011-05-01T10:29:20Z</time>
      </trkpt>
      <trkpt lat="49.37077" lon="1.12955">
        <ele>53.2</ele>
        <time>2011-05-01T10:29:22Z</time>
      </trkpt>
      <trkpt lat="49.37078" lon="1.12954">
        <ele>53.6</ele>
        <time>2011-05-01T10:29:24Z</time>
      </trkpt>
      <trkpt lat="49.37079" lon="1.12955">
        <ele>54.2</ele>
        <time>2011-05-01T10:29:26Z</time>
      </trkpt>
      <trkpt lat="49.3708" lon="1.12956">
        <ele>54.6</ele>
        <time>2011-05-01T10:29:28Z</time>
      </trkpt>
      <trkpt lat="49.37081" lon="1.12956">
        <ele>55</ele>
        <time>2011-05-01T10:29:30Z</time>
      </trkpt>
      <trkpt lat="49.37082" lon="1.12955">
        <ele>55.4</ele>
        <time>2011-05-01T10:29:32Z</time>
      </trkpt>
      <trkpt lat="49.37084" lon="1.12955">
        <ele>56</ele>
        <time>2011-05-01T10:29:36Z</time>
      </trkpt>
      <trkpt lat="49.37085" lon="1.12955">
        <ele>56.4</ele>
        <time>2011-05-01T10:29:38Z</time>
      </trkpt>
      <trkpt lat="49.37086" lon="1.12955">
        <ele>56.8</ele>
        <time>2011-05-01T10:29:40Z</time>
      </trkpt>
      <trkpt lat="49.37087" lon="1.12955">
        <ele>57.2</ele>
        <time>2011-05-01T10:29:42Z</time>
      </trkpt>
      <trkpt lat="49.37089" lon="1.12954">
        <ele>57.6</ele>
        <time>2011-05-01T10:29:44Z</time>
      </trkpt>
      <trkpt lat="49.3709" lon="1.12954">
        <ele>58</ele>
        <time>2011-05-01T10:29:46Z</time>
      </trkpt>
      <trkpt lat="49.37091" lon="1.12954">
        <ele>58.6</ele>
        <time>2011-05-01T10:29:48Z</time>
      </trkpt>
      <trkpt lat="49.37092" lon="1.12953">
        <ele>59</ele>
        <time>2011-05-01T10:29:50Z</time>
      </trkpt>
      <trkpt lat="49.37094" lon="1.12953">
        <ele>59.4</ele>
        <time>2011-05-01T10:29:52Z</time>
      </trkpt>
      <trkpt lat="49.37095" lon="1.12953">
        <ele>59.6</ele>
        <time>2011-05-01T10:29:54Z</time>
      </trkpt>
      <trkpt lat="49.37096" lon="1.12952">
        <ele>61.6</ele>
        <time>2011-05-01T10:30:05Z</time>
      </trkpt>
      <trkpt lat="49.37096" lon="1.12952">
        <ele>61.6</ele>
        <time>2011-05-01T10:30:06Z</time>
      </trkpt>
      <trkpt lat="49.37096" lon="1.12952">
        <ele>61.8</ele>
        <time>2011-05-01T10:30:07Z</time>
      </trkpt>
      <trkpt lat="49.37097" lon="1.12953">
        <ele>62</ele>
        <time>2011-05-01T10:30:08Z</time>
      </trkpt>
      <trkpt lat="49.37099" lon="1.12953">
        <ele>62.2</ele>
        <time>2011-05-01T10:30:10Z</time>
      </trkpt>
      <trkpt lat="49.371" lon="1.12953">
        <ele>62.4</ele>
        <time>2011-05-01T10:30:12Z</time>
      </trkpt>
      <trkpt lat="49.37102" lon="1.12953">
        <ele>62.4</ele>
        <time>2011-05-01T10:30:14Z</time>
      </trkpt>
      <trkpt lat="49.37105" lon="1.12952">
        <ele>63</ele>
        <time>2011-05-01T10:30:19Z</time>
      </trkpt>
      <trkpt lat="49.37106" lon="1.12951">
        <ele>63.4</ele>
        <time>2011-05-01T10:30:21Z</time>
      </trkpt>
      <trkpt lat="49.37107" lon="1.12951">
        <ele>63.6</ele>
        <time>2011-05-01T10:30:23Z</time>
      </trkpt>
      <trkpt lat="49.37109" lon="1.12951">
        <ele>64</ele>
        <time>2011-05-01T10:30:25Z</time>
      </trkpt>
      <trkpt lat="49.3711" lon="1.12951">
        <ele>64.2</ele>
        <time>2011-05-01T10:30:27Z</time>
      </trkpt>
      <trkpt lat="49.37112" lon="1.1295">
        <ele>64.6</ele>
        <time>2011-05-01T10:30:30Z</time>
      </trkpt>
      <trkpt lat="49.37113" lon="1.12949">
        <ele>65.2</ele>
        <time>2011-05-01T10:30:32Z</time>
      </trkpt>
      <trkpt lat="49.37114" lon="1.12949">
        <ele>65.6</ele>
        <time>2011-05-01T10:30:34Z</time>
      </trkpt>
      <trkpt lat="49.37116" lon="1.12949">
        <ele>65.8</ele>
        <time>2011-05-01T10:30:36Z</time>
      </trkpt>
      <trkpt lat="49.37117" lon="1.12948">
        <ele>66.2</ele>
        <time>2011-05-01T10:30:38Z</time>
      </trkpt>
      <trkpt lat="49.3712" lon="1.12947">
        <ele>66.6</ele>
        <time>2011-05-01T10:30:43Z</time>
      </trkpt>
      <trkpt lat="49.37121" lon="1.12948">
        <ele>67</ele>
        <time>2011-05-01T10:30:45Z</time>
      </trkpt>
      <trkpt lat="49.37122" lon="1.12948">
        <ele>67.4</ele>
        <time>2011-05-01T10:30:47Z</time>
      </trkpt>
      <trkpt lat="49.37124" lon="1.12947">
        <ele>67.8</ele>
        <time>2011-05-01T10:30:49Z</time>
      </trkpt>
      <trkpt lat="49.37125" lon="1.12947">
        <ele>68.2</ele>
        <time>2011-05-01T10:30:51Z</time>
      </trkpt>
      <trkpt lat="49.37126" lon="1.12948">
        <ele>68.4</ele>
        <time>2011-05-01T10:30:53Z</time>
      </trkpt>
      <trkpt lat="49.3713" lon="1.12948">
        <ele>69.2</ele>
        <time>2011-05-01T10:31:00Z</time>
      </trkpt>
      <trkpt lat="49.37131" lon="1.12947">
        <ele>69.6</ele>
        <time>2011-05-01T10:31:02Z</time>
      </trkpt>
      <trkpt lat="49.37132" lon="1.12947">
        <ele>70</ele>
        <time>2011-05-01T10:31:04Z</time>
      </trkpt>
      <trkpt lat="49.37134" lon="1.12946">
        <ele>70.2</ele>
        <time>2011-05-01T10:31:06Z</time>
      </trkpt>
      <trkpt lat="49.37135" lon="1.12946">
        <ele>70.4</ele>
        <time>2011-05-01T10:31:08Z</time>
      </trkpt>
      <trkpt lat="49.37136" lon="1.12946">
        <ele>70.8</ele>
        <time>2011-05-01T10:31:09Z</time>
      </trkpt>
      <trkpt lat="49.37137" lon="1.12945">
        <ele>71.4</ele>
        <time>2011-05-01T10:31:11Z</time>
      </trkpt>
      <trkpt lat="49.37138" lon="1.12945">
        <ele>71.8</ele>
        <time>2011-05-01T10:31:13Z</time>
      </trkpt>
      <trkpt lat="49.3714" lon="1.12945">
        <ele>72</ele>
        <time>2011-05-01T10:31:15Z</time>
      </trkpt>
      <trkpt lat="49.37141" lon="1.12945">
        <ele>72.4</ele>
        <time>2011-05-01T10:31:17Z</time>
      </trkpt>
      <trkpt lat="49.37148" lon="1.12946">
        <ele>73.2</ele>
        <time>2011-05-01T10:31:25Z</time>
      </trkpt>
      <trkpt lat="49.3715" lon="1.12946">
        <ele>73.6</ele>
        <time>2011-05-01T10:31:27Z</time>
      </trkpt>
      <trkpt lat="49.37151" lon="1.12947">
        <ele>74</ele>
        <time>2011-05-01T10:31:29Z</time>
      </trkpt>
      <trkpt lat="49.37153" lon="1.12947">
        <ele>74.4</ele>
        <time>2011-05-01T10:31:31Z</time>
      </trkpt>
      <trkpt lat="49.37154" lon="1.12947">
        <ele>74.6</ele>
        <time>2011-05-01T10:31:33Z</time>
      </trkpt>
      <trkpt lat="49.37157" lon="1.12947">
        <ele>74.8</ele>
        <time>2011-05-01T10:31:37Z</time>
      </trkpt>
      <trkpt lat="49.37161" lon="1.12948">
        <ele>75.4</ele>
        <time>2011-05-01T10:31:42Z</time>
      </trkpt>
      <trkpt lat="49.37161" lon="1.12948">
        <ele>75.8</ele>
        <time>2011-05-01T10:31:43Z</time>
      </trkpt>
      <trkpt lat="49.37163" lon="1.12949">
        <ele>76.2</ele>
        <time>2011-05-01T10:31:45Z</time>
      </trkpt>
      <trkpt lat="49.37164" lon="1.12949">
        <ele>76.4</ele>
        <time>2011-05-01T10:31:47Z</time>
      </trkpt>
      <trkpt lat="49.37166" lon="1.12949">
        <ele>76.6</ele>
        <time>2011-05-01T10:31:49Z</time>
      </trkpt>
      <trkpt lat="49.37172" lon="1.12951">
        <ele>77.2</ele>
        <time>2011-05-01T10:31:57Z</time>
      </trkpt>
      <trkpt lat="49.37175" lon="1.12952">
        <ele>77.6</ele>
        <time>2011-05-01T10:32:01Z</time>
      </trkpt>
      <trkpt lat="49.37177" lon="1.12952">
        <ele>78</ele>
        <time>2011-05-01T10:32:03Z</time>
      </trkpt>
      <trkpt lat="49.37178" lon="1.12953">
        <ele>78.4</ele>
        <time>2011-05-01T10:32:05Z</time>
      </trkpt>
      <trkpt lat="49.37179" lon="1.12953">
        <ele>78.8</ele>
        <time>2011-05-01T10:32:07Z</time>
      </trkpt>
      <trkpt lat="49.37181" lon="1.12954">
        <ele>79</ele>
        <time>2011-05-01T10:32:09Z</time>
      </trkpt>
      <trkpt lat="49.3719" lon="1.12958">
        <ele>79.6</ele>
        <time>2011-05-01T10:32:16Z</time>
      </trkpt>
      <trkpt lat="49.37193" lon="1.12959">
        <ele>80</ele>
        <time>2011-05-01T10:32:18Z</time>
      </trkpt>
      <trkpt lat="49.37196" lon="1.12959">
        <ele>80.4</ele>
        <time>2011-05-01T10:32:20Z</time>
      </trkpt>
      <trkpt lat="49.37198" lon="1.1296">
        <ele>80.8</ele>
        <time>2011-05-01T10:32:22Z</time>
      </trkpt>
      <trkpt lat="49.37201" lon="1.12961">
        <ele>81</ele>
        <time>2011-05-01T10:32:24Z</time>
      </trkpt>
      <trkpt lat="49.37204" lon="1.12961">
        <ele>81.4</ele>
        <time>2011-05-01T10:32:26Z</time>
      </trkpt>
      <trkpt lat="49.37206" lon="1.12962">
        <ele>82</ele>
        <time>2011-05-01T10:32:28Z</time>
      </trkpt>
      <trkpt lat="49.37209" lon="1.12962">
        <ele>82.4</ele>
        <time>2011-05-01T10:32:30Z</time>
      </trkpt>
      <trkpt lat="49.37211" lon="1.12963">
        <ele>82.8</ele>
        <time>2011-05-01T10:32:32Z</time>
      </trkpt>
      <trkpt lat="49.37213" lon="1.12964">
        <ele>83</ele>
        <time>2011-05-01T10:32:34Z</time>
      </trkpt>
      <trkpt lat="49.37214" lon="1.12964">
        <ele>83.2</ele>
        <time>2011-05-01T10:32:35Z</time>
      </trkpt>
      <trkpt lat="49.37215" lon="1.12964">
        <ele>83.6</ele>
        <time>2011-05-01T10:32:37Z</time>
      </trkpt>
      <trkpt lat="49.37217" lon="1.12964">
        <ele>84.2</ele>
        <time>2011-05-01T10:32:39Z</time>
      </trkpt>
      <trkpt lat="49.37218" lon="1.12964">
        <ele>84.6</ele>
        <time>2011-05-01T10:32:41Z</time>
      </trkpt>
      <trkpt lat="49.3722" lon="1.12964">
        <ele>85</ele>
        <time>2011-05-01T10:32:43Z</time>
      </trkpt>
      <trkpt lat="49.37221" lon="1.12964">
        <ele>85.2</ele>
        <time>2011-05-01T10:32:45Z</time>
      </trkpt>
      <trkpt lat="49.37224" lon="1.12963">
        <ele>85.8</ele>
        <time>2011-05-01T10:32:49Z</time>
      </trkpt>
      <trkpt lat="49.37226" lon="1.12963">
        <ele>86.4</ele>
        <time>2011-05-01T10:32:51Z</time>
      </trkpt>
      <trkpt lat="49.37227" lon="1.12963">
        <ele>86.8</ele>
        <time>2011-05-01T10:32:53Z</time>
      </trkpt>
      <trkpt lat="49.37228" lon="1.12964">
        <ele>87.2</ele>
        <time>2011-05-01T10:32:55Z</time>
      </trkpt>
      <trkpt lat="49.37229" lon="1.12964">
        <ele>87.4</ele>
        <time>2011-05-01T10:32:57Z</time>
      </trkpt>
      <trkpt lat="49.37231" lon="1.12964">
        <ele>87.8</ele>
        <time>2011-05-01T10:32:59Z</time>
      </trkpt>
      <trkpt lat="49.37233" lon="1.12964">
        <ele>88.4</ele>
        <time>2011-05-01T10:33:01Z</time>
      </trkpt>
      <trkpt lat="49.37234" lon="1.12964">
        <ele>88.8</ele>
        <time>2011-05-01T10:33:03Z</time>
      </trkpt>
      <trkpt lat="49.37236" lon="1.12964">
        <ele>89.2</ele>
        <time>2011-05-01T10:33:05Z</time>
      </trkpt>
      <trkpt lat="49.37237" lon="1.12964">
        <ele>89.6</ele>
        <time>2011-05-01T10:33:09Z</time>
      </trkpt>
      <trkpt lat="49.37237" lon="1.12964">
        <ele>89.8</ele>
        <time>2011-05-01T10:33:11Z</time>
      </trkpt>
      <trkpt lat="49.37242" lon="1.12963">
        <ele>90.4</ele>
        <time>2011-05-01T10:33:16Z</time>
      </trkpt>
      <trkpt lat="49.37245" lon="1.12963">
        <ele>91</ele>
        <time>2011-05-01T10:33:18Z</time>
      </trkpt>
      <trkpt lat="49.37247" lon="1.12963">
        <ele>91.2</ele>
        <time>2011-05-01T10:33:20Z</time>
      </trkpt>
      <trkpt lat="49.3725" lon="1.12963">
        <ele>91.6</ele>
        <time>2011-05-01T10:33:22Z</time>
      </trkpt>
      <trkpt lat="49.37252" lon="1.12963">
        <ele>91.8</ele>
        <time>2011-05-01T10:33:24Z</time>
      </trkpt>
      <trkpt lat="49.37253" lon="1.12962">
        <ele>92</ele>
        <time>2011-05-01T10:33:25Z</time>
      </trkpt>
      <trkpt lat="49.37256" lon="1.12962">
        <ele>92.8</ele>
        <time>2011-05-01T10:33:28Z</time>
      </trkpt>
      <trkpt lat="49.37258" lon="1.12962">
        <ele>93.4</ele>
        <time>2011-05-01T10:33:31Z</time>
      </trkpt>
      <trkpt lat="49.37258" lon="1.12962">
        <ele>93.6</ele>
        <time>2011-05-01T10:33:33Z</time>
      </trkpt>
      <trkpt lat="49.3726" lon="1.12963">
        <ele>94</ele>
        <time>2011-05-01T10:33:35Z</time>
      </trkpt>
      <trkpt lat="49.37262" lon="1.12962">
        <ele>94.4</ele>
        <time>2011-05-01T10:33:37Z</time>
      </trkpt>
      <trkpt lat="49.37264" lon="1.12962">
        <ele>94.8</ele>
        <time>2011-05-01T10:33:39Z</time>
      </trkpt>
      <trkpt lat="49.37266" lon="1.12961">
        <ele>95.2</ele>
        <time>2011-05-01T10:33:41Z</time>
      </trkpt>
      <trkpt lat="49.37267" lon="1.1296">
        <ele>95.6</ele>
        <time>2011-05-01T10:33:43Z</time>
      </trkpt>
      <trkpt lat="49.37269" lon="1.12959">
        <ele>96</ele>
        <time>2011-05-01T10:33:45Z</time>
      </trkpt>
      <trkpt lat="49.3727" lon="1.12959">
        <ele>96</ele>
        <time>2011-05-01T10:33:46Z</time>
      </trkpt>
      <trkpt lat="49.37272" lon="1.1296">
        <ele>96.6</ele>
        <time>2011-05-01T10:33:50Z</time>
      </trkpt>
      <trkpt lat="49.37274" lon="1.12961">
        <ele>97.2</ele>
        <time>2011-05-01T10:33:52Z</time>
      </trkpt>
      <trkpt lat="49.37275" lon="1.12961">
        <ele>97.6</ele>
        <time>2011-05-01T10:33:54Z</time>
      </trkpt>
      <trkpt lat="49.37277" lon="1.12962">
        <ele>97.8</ele>
        <time>2011-05-01T10:33:56Z</time>
      </trkpt>
      <trkpt lat="49.37279" lon="1.12963">
        <ele>98</ele>
        <time>2011-05-01T10:33:58Z</time>
      </trkpt>
      <trkpt lat="49.37279" lon="1.12963">
        <ele>98.4</ele>
        <time>2011-05-01T10:33:59Z</time>
      </trkpt>
      <trkpt lat="49.37281" lon="1.12963">
        <ele>99</ele>
        <time>2011-05-01T10:34:01Z</time>
      </trkpt>
      <trkpt lat="49.37283" lon="1.12963">
        <ele>99.4</ele>
        <time>2011-05-01T10:34:03Z</time>
      </trkpt>
      <trkpt lat="49.37285" lon="1.12963">
        <ele>99.8</ele>
        <time>2011-05-01T10:34:05Z</time>
      </trkpt>
      <trkpt lat="49.37287" lon="1.12964">
        <ele>100</ele>
        <time>2011-05-01T10:34:07Z</time>
      </trkpt>
      <trkpt lat="49.37291" lon="1.12964">
        <ele>100.8</ele>
        <time>2011-05-01T10:34:11Z</time>
      </trkpt>
      <trkpt lat="49.37292" lon="1.12964">
        <ele>101.2</ele>
        <time>2011-05-01T10:34:13Z</time>
      </trkpt>
      <trkpt lat="49.37293" lon="1.12964">
        <ele>101.4</ele>
        <time>2011-05-01T10:34:14Z</time>
      </trkpt>
      <trkpt lat="49.37294" lon="1.12965">
        <ele>101.6</ele>
        <time>2011-05-01T10:34:15Z</time>
      </trkpt>
      <trkpt lat="49.37296" lon="1.12965">
        <ele>102</ele>
        <time>2011-05-01T10:34:17Z</time>
      </trkpt>
      <trkpt lat="49.37297" lon="1.12964">
        <ele>102.2</ele>
        <time>2011-05-01T10:34:19Z</time>
      </trkpt>
      <trkpt lat="49.37297" lon="1.12963">
        <ele>103</ele>
        <time>2011-05-01T10:34:28Z</time>
      </trkpt>
      <trkpt lat="49.373" lon="1.12964">
        <ele>103.4</ele>
        <time>2011-05-01T10:34:33Z</time>
      </trkpt>
      <trkpt lat="49.37302" lon="1.12964">
        <ele>103.8</ele>
        <time>2011-05-01T10:34:35Z</time>
      </trkpt>
      <trkpt lat="49.37304" lon="1.12965">
        <ele>104.2</ele>
        <time>2011-05-01T10:34:37Z</time>
      </trkpt>
      <trkpt lat="49.37306" lon="1.12965">
        <ele>104.4</ele>
        <time>2011-05-01T10:34:39Z</time>
      </trkpt>
      <trkpt lat="49.37308" lon="1.12965">
        <ele>104.6</ele>
        <time>2011-05-01T10:34:41Z</time>
      </trkpt>
      <trkpt lat="49.37311" lon="1.12966">
        <ele>105.2</ele>
        <time>2011-05-01T10:34:44Z</time>
      </trkpt>
      <trkpt lat="49.37313" lon="1.12966">
        <ele>105.6</ele>
        <time>2011-05-01T10:34:46Z</time>
      </trkpt>
      <trkpt lat="49.37315" lon="1.12966">
        <ele>106</ele>
        <time>2011-05-01T10:34:48Z</time>
      </trkpt>
      <trkpt lat="49.37317" lon="1.12967">
        <ele>106.4</ele>
        <time>2011-05-01T10:34:50Z</time>
      </trkpt>
      <trkpt lat="49.37319" lon="1.12968">
        <ele>106.6</ele>
        <time>2011-05-01T10:34:52Z</time>
      </trkpt>
      <trkpt lat="49.37321" lon="1.12969">
        <ele>107.2</ele>
        <time>2011-05-01T10:34:55Z</time>
      </trkpt>
      <trkpt lat="49.37323" lon="1.1297">
        <ele>107.6</ele>
        <time>2011-05-01T10:34:57Z</time>
      </trkpt>
      <trkpt lat="49.37325" lon="1.1297">
        <ele>108</ele>
        <time>2011-05-01T10:34:59Z</time>
      </trkpt>
      <trkpt lat="49.37326" lon="1.12969">
        <ele>108.4</ele>
        <time>2011-05-01T10:35:01Z</time>
      </trkpt>
      <trkpt lat="49.37328" lon="1.12969">
        <ele>108.6</ele>
        <time>2011-05-01T10:35:03Z</time>
      </trkpt>
      <trkpt lat="49.37332" lon="1.1297">
        <ele>109.4</ele>
        <time>2011-05-01T10:35:09Z</time>
      </trkpt>
      <trkpt lat="49.37333" lon="1.12971">
        <ele>109.8</ele>
        <time>2011-05-01T10:35:11Z</time>
      </trkpt>
      <trkpt lat="49.37335" lon="1.12972">
        <ele>110.2</ele>
        <time>2011-05-01T10:35:13Z</time>
      </trkpt>
      <trkpt lat="49.37336" lon="1.12974">
        <ele>110.6</ele>
        <time>2011-05-01T10:35:15Z</time>
      </trkpt>
      <trkpt lat="49.37336" lon="1.12977">
        <ele>111</ele>
        <time>2011-05-01T10:35:19Z</time>
      </trkpt>
      <trkpt lat="49.37335" lon="1.12979">
        <ele>111.2</ele>
        <time>2011-05-01T10:35:21Z</time>
      </trkpt>
      <trkpt lat="49.37334" lon="1.12987">
        <ele>111.4</ele>
        <time>2011-05-01T10:35:24Z</time>
      </trkpt>
      <trkpt lat="49.37334" lon="1.13003">
        <ele>111.2</ele>
        <time>2011-05-01T10:35:27Z</time>
      </trkpt>
      <trkpt lat="49.37336" lon="1.13011">
        <ele>111</ele>
        <time>2011-05-01T10:35:28Z</time>
      </trkpt>
      <trkpt lat="49.37337" lon="1.13018">
        <ele>110.8</ele>
        <time>2011-05-01T10:35:29Z</time>
      </trkpt>
      <trkpt lat="49.37339" lon="1.13025">
        <ele>110.4</ele>
        <time>2011-05-01T10:35:30Z</time>
      </trkpt>
      <trkpt lat="49.37344" lon="1.13039">
        <ele>109.8</ele>
        <time>2011-05-01T10:35:32Z</time>
      </trkpt>
      <trkpt lat="49.37349" lon="1.13053">
        <ele>109.4</ele>
        <time>2011-05-01T10:35:34Z</time>
      </trkpt>
      <trkpt lat="49.37353" lon="1.13069">
        <ele>108.8</ele>
        <time>2011-05-01T10:35:36Z</time>
      </trkpt>
      <trkpt lat="49.37353" lon="1.13081">
        <ele>108.4</ele>
        <time>2011-05-01T10:35:37Z</time>
      </trkpt>
      <trkpt lat="49.37351" lon="1.13103">
        <ele>107.6</ele>
        <time>2011-05-01T10:35:39Z</time>
      </trkpt>
      <trkpt lat="49.37349" lon="1.13111">
        <ele>107</ele>
        <time>2011-05-01T10:35:40Z</time>
      </trkpt>
      <trkpt lat="49.37347" lon="1.13121">
        <ele>106</ele>
        <time>2011-05-01T10:35:42Z</time>
      </trkpt>
      <trkpt lat="49.37346" lon="1.13133">
        <ele>104.6</ele>
        <time>2011-05-01T10:35:44Z</time>
      </trkpt>
      <trkpt lat="49.37346" lon="1.13142">
        <ele>104</ele>
        <time>2011-05-01T10:35:45Z</time>
      </trkpt>
      <trkpt lat="49.37349" lon="1.13165">
        <ele>102.6</ele>
        <time>2011-05-01T10:35:47Z</time>
      </trkpt>
      <trkpt lat="49.37354" lon="1.13188">
        <ele>101.2</ele>
        <time>2011-05-01T10:35:49Z</time>
      </trkpt>
      <trkpt lat="49.37357" lon="1.13208">
        <ele>100.2</ele>
        <time>2011-05-01T10:35:51Z</time>
      </trkpt>
      <trkpt lat="49.37358" lon="1.13229">
        <ele>99.4</ele>
        <time>2011-05-01T10:35:53Z</time>
      </trkpt>
      <trkpt lat="49.3736" lon="1.13248">
        <ele>98.6</ele>
        <time>2011-05-01T10:35:55Z</time>
      </trkpt>
      <trkpt lat="49.37361" lon="1.13256">
        <ele>98.4</ele>
        <time>2011-05-01T10:35:56Z</time>
      </trkpt>
      <trkpt lat="49.37366" lon="1.13278">
        <ele>97.4</ele>
        <time>2011-05-01T10:35:59Z</time>
      </trkpt>
      <trkpt lat="49.37368" lon="1.13285">
        <ele>97</ele>
        <time>2011-05-01T10:36:00Z</time>
      </trkpt>
      <trkpt lat="49.37375" lon="1.1331">
        <ele>96.2</ele>
        <time>2011-05-01T10:36:03Z</time>
      </trkpt>
      <trkpt lat="49.37376" lon="1.13315">
        <ele>95.8</ele>
        <time>2011-05-01T10:36:04Z</time>
      </trkpt>
      <trkpt lat="49.37377" lon="1.13322">
        <ele>95.6</ele>
        <time>2011-05-01T10:36:05Z</time>
      </trkpt>
      <trkpt lat="49.37378" lon="1.13339">
        <ele>95.2</ele>
        <time>2011-05-01T10:36:07Z</time>
      </trkpt>
      <trkpt lat="49.3738" lon="1.13351">
        <ele>94.8</ele>
        <time>2011-05-01T10:36:08Z</time>
      </trkpt>
      <trkpt lat="49.37384" lon="1.13364">
        <ele>94.4</ele>
        <time>2011-05-01T10:36:09Z</time>
      </trkpt>
      <trkpt lat="49.37387" lon="1.13375">
        <ele>94.2</ele>
        <time>2011-05-01T10:36:10Z</time>
      </trkpt>
      <trkpt lat="49.37394" lon="1.13394">
        <ele>93.6</ele>
        <time>2011-05-01T10:36:12Z</time>
      </trkpt>
      <trkpt lat="49.37397" lon="1.13401">
        <ele>93.2</ele>
        <time>2011-05-01T10:36:13Z</time>
      </trkpt>
      <trkpt lat="49.37403" lon="1.13414">
        <ele>92.4</ele>
        <time>2011-05-01T10:36:15Z</time>
      </trkpt>
      <trkpt lat="49.37405" lon="1.13419">
        <ele>92</ele>
        <time>2011-05-01T10:36:16Z</time>
      </trkpt>
      <trkpt lat="49.37408" lon="1.13426">
        <ele>91.8</ele>
        <time>2011-05-01T10:36:17Z</time>
      </trkpt>
      <trkpt lat="49.37411" lon="1.13434">
        <ele>91.4</ele>
        <time>2011-05-01T10:36:18Z</time>
      </trkpt>
      <trkpt lat="49.37419" lon="1.13471">
        <ele>90.6</ele>
        <time>2011-05-01T10:36:21Z</time>
      </trkpt>
      <trkpt lat="49.37416" lon="1.13491">
        <ele>90</ele>
        <time>2011-05-01T10:36:23Z</time>
      </trkpt>
      <trkpt lat="49.37413" lon="1.13498">
        <ele>89.4</ele>
        <time>2011-05-01T10:36:24Z</time>
      </trkpt>
      <trkpt lat="49.37413" lon="1.13514">
        <ele>88.2</ele>
        <time>2011-05-01T10:36:26Z</time>
      </trkpt>
      <trkpt lat="49.37417" lon="1.13524">
        <ele>87.6</ele>
        <time>2011-05-01T10:36:27Z</time>
      </trkpt>
      <trkpt lat="49.37419" lon="1.13535">
        <ele>86.6</ele>
        <time>2011-05-01T10:36:28Z</time>
      </trkpt>
      <trkpt lat="49.37423" lon="1.13555">
        <ele>84.8</ele>
        <time>2011-05-01T10:36:30Z</time>
      </trkpt>
      <trkpt lat="49.37433" lon="1.13586">
        <ele>82.8</ele>
        <time>2011-05-01T10:36:32Z</time>
      </trkpt>
      <trkpt lat="49.37439" lon="1.13612">
        <ele>80.4</ele>
        <time>2011-05-01T10:36:34Z</time>
      </trkpt>
      <trkpt lat="49.37444" lon="1.13631">
        <ele>77.6</ele>
        <time>2011-05-01T10:36:36Z</time>
      </trkpt>
      <trkpt lat="49.37446" lon="1.13642">
        <ele>76.4</ele>
        <time>2011-05-01T10:36:37Z</time>
      </trkpt>
      <trkpt lat="49.37451" lon="1.1366">
        <ele>73.6</ele>
        <time>2011-05-01T10:36:39Z</time>
      </trkpt>
      <trkpt lat="49.37462" lon="1.13701">
        <ele>69</ele>
        <time>2011-05-01T10:36:42Z</time>
      </trkpt>
      <trkpt lat="49.37466" lon="1.13707">
        <ele>67.6</ele>
        <time>2011-05-01T10:36:43Z</time>
      </trkpt>
      <trkpt lat="49.37468" lon="1.13714">
        <ele>66</ele>
        <time>2011-05-01T10:36:44Z</time>
      </trkpt>
      <trkpt lat="49.37472" lon="1.13708">
        <ele>63.4</ele>
        <time>2011-05-01T10:36:46Z</time>
      </trkpt>
      <trkpt lat="49.37472" lon="1.13709">
        <ele>62</ele>
        <time>2011-05-01T10:36:47Z</time>
      </trkpt>
      <trkpt lat="49.37474" lon="1.13711">
        <ele>60.8</ele>
        <time>2011-05-01T10:36:48Z</time>
      </trkpt>
      <trkpt lat="49.37475" lon="1.13725">
        <ele>58.8</ele>
        <time>2011-05-01T10:36:50Z</time>
      </trkpt>
      <trkpt lat="49.37472" lon="1.13727">
        <ele>57.6</ele>
        <time>2011-05-01T10:36:51Z</time>
      </trkpt>
      <trkpt lat="49.37463" lon="1.1373">
        <ele>55.6</ele>
        <time>2011-05-01T10:36:53Z</time>
      </trkpt>
      <trkpt lat="49.3746" lon="1.1373">
        <ele>54.4</ele>
        <time>2011-05-01T10:36:54Z</time>
      </trkpt>
      <trkpt lat="49.37456" lon="1.13739">
        <ele>52.2</ele>
        <time>2011-05-01T10:36:56Z</time>
      </trkpt>
      <trkpt lat="49.37453" lon="1.13754">
        <ele>50</ele>
        <time>2011-05-01T10:36:58Z</time>
      </trkpt>
      <trkpt lat="49.37451" lon="1.13764">
        <ele>47.6</ele>
        <time>2011-05-01T10:37:00Z</time>
      </trkpt>
      <trkpt lat="49.37452" lon="1.13766">
        <ele>46.6</ele>
        <time>2011-05-01T10:37:01Z</time>
      </trkpt>
      <trkpt lat="49.37454" lon="1.13769">
        <ele>45.6</ele>
        <time>2011-05-01T10:37:02Z</time>
      </trkpt>
      <trkpt lat="49.37457" lon="1.13776">
        <ele>43.8</ele>
        <time>2011-05-01T10:37:04Z</time>
      </trkpt>
      <trkpt lat="49.37462" lon="1.13778">
        <ele>42.6</ele>
        <time>2011-05-01T10:37:06Z</time>
      </trkpt>
      <trkpt lat="49.37467" lon="1.13783">
        <ele>41.4</ele>
        <time>2011-05-01T10:37:08Z</time>
      </trkpt>
      <trkpt lat="49.37484" lon="1.13806">
        <ele>39.2</ele>
        <time>2011-05-01T10:37:14Z</time>
      </trkpt>
      <trkpt lat="49.37494" lon="1.13806">
        <ele>38</ele>
        <time>2011-05-01T10:37:21Z</time>
      </trkpt>
      <trkpt lat="49.37514" lon="1.13822">
        <ele>37.6</ele>
        <time>2011-05-01T10:37:28Z</time>
      </trkpt>
      <trkpt lat="49.37518" lon="1.13822">
        <ele>37.8</ele>
        <time>2011-05-01T10:37:30Z</time>
      </trkpt>
      <trkpt lat="49.37522" lon="1.13823">
        <ele>38</ele>
        <time>2011-05-01T10:37:32Z</time>
      </trkpt>
      <trkpt lat="49.37527" lon="1.13827">
        <ele>38.2</ele>
        <time>2011-05-01T10:37:34Z</time>
      </trkpt>
      <trkpt lat="49.37531" lon="1.13829">
        <ele>38.4</ele>
        <time>2011-05-01T10:37:36Z</time>
      </trkpt>
      <trkpt lat="49.37548" lon="1.13841">
        <ele>38.8</ele>
        <time>2011-05-01T10:37:44Z</time>
      </trkpt>
      <trkpt lat="49.37551" lon="1.1384">
        <ele>39</ele>
        <time>2011-05-01T10:37:45Z</time>
      </trkpt>
      <trkpt lat="49.37556" lon="1.1384">
        <ele>39.4</ele>
        <time>2011-05-01T10:37:47Z</time>
      </trkpt>
      <trkpt lat="49.37561" lon="1.13842">
        <ele>39.8</ele>
        <time>2011-05-01T10:37:49Z</time>
      </trkpt>
      <trkpt lat="49.37566" lon="1.13846">
        <ele>40</ele>
        <time>2011-05-01T10:37:51Z</time>
      </trkpt>
      <trkpt lat="49.3757" lon="1.13847">
        <ele>40.2</ele>
        <time>2011-05-01T10:37:53Z</time>
      </trkpt>
      <trkpt lat="49.37577" lon="1.1385">
        <ele>40.8</ele>
        <time>2011-05-01T10:37:58Z</time>
      </trkpt>
      <trkpt lat="49.37581" lon="1.13853">
        <ele>41.2</ele>
        <time>2011-05-01T10:38:00Z</time>
      </trkpt>
      <trkpt lat="49.37584" lon="1.13857">
        <ele>41.6</ele>
        <time>2011-05-01T10:38:02Z</time>
      </trkpt>
      <trkpt lat="49.37587" lon="1.13858">
        <ele>42</ele>
        <time>2011-05-01T10:38:04Z</time>
      </trkpt>
      <trkpt lat="49.37588" lon="1.13864">
        <ele>42.2</ele>
        <time>2011-05-01T10:38:06Z</time>
      </trkpt>
      <trkpt lat="49.37599" lon="1.13864">
        <ele>43</ele>
        <time>2011-05-01T10:38:12Z</time>
      </trkpt>
      <trkpt lat="49.37603" lon="1.13863">
        <ele>43.4</ele>
        <time>2011-05-01T10:38:14Z</time>
      </trkpt>
      <trkpt lat="49.37603" lon="1.13858">
        <ele>43.8</ele>
        <time>2011-05-01T10:38:16Z</time>
      </trkpt>
      <trkpt lat="49.37605" lon="1.13862">
        <ele>44</ele>
        <time>2011-05-01T10:38:18Z</time>
      </trkpt>
      <trkpt lat="49.37609" lon="1.1387">
        <ele>44.4</ele>
        <time>2011-05-01T10:38:20Z</time>
      </trkpt>
      <trkpt lat="49.37611" lon="1.13875">
        <ele>44.6</ele>
        <time>2011-05-01T10:38:21Z</time>
      </trkpt>
      <trkpt lat="49.37615" lon="1.13875">
        <ele>45.2</ele>
        <time>2011-05-01T10:38:23Z</time>
      </trkpt>
      <trkpt lat="49.37619" lon="1.13876">
        <ele>45.6</ele>
        <time>2011-05-01T10:38:25Z</time>
      </trkpt>
      <trkpt lat="49.3762" lon="1.13879">
        <ele>45.8</ele>
        <time>2011-05-01T10:38:26Z</time>
      </trkpt>
      <trkpt lat="49.37624" lon="1.13886">
        <ele>46.2</ele>
        <time>2011-05-01T10:38:29Z</time>
      </trkpt>
      <trkpt lat="49.37625" lon="1.13886">
        <ele>46.8</ele>
        <time>2011-05-01T10:38:31Z</time>
      </trkpt>
      <trkpt lat="49.37627" lon="1.13887">
        <ele>47</ele>
        <time>2011-05-01T10:38:32Z</time>
      </trkpt>
      <trkpt lat="49.37634" lon="1.13888">
        <ele>47.8</ele>
        <time>2011-05-01T10:38:35Z</time>
      </trkpt>
      <trkpt lat="49.37639" lon="1.13888">
        <ele>48.2</ele>
        <time>2011-05-01T10:38:37Z</time>
      </trkpt>
      <trkpt lat="49.37643" lon="1.13888">
        <ele>48.4</ele>
        <time>2011-05-01T10:38:39Z</time>
      </trkpt>
      <trkpt lat="49.37644" lon="1.13887">
        <ele>48.8</ele>
        <time>2011-05-01T10:38:40Z</time>
      </trkpt>
      <trkpt lat="49.37646" lon="1.13887">
        <ele>49.4</ele>
        <time>2011-05-01T10:38:42Z</time>
      </trkpt>
      <trkpt lat="49.37649" lon="1.13888">
        <ele>49.8</ele>
        <time>2011-05-01T10:38:44Z</time>
      </trkpt>
      <trkpt lat="49.3765" lon="1.13889">
        <ele>50</ele>
        <time>2011-05-01T10:38:45Z</time>
      </trkpt>
      <trkpt lat="49.37653" lon="1.13893">
        <ele>50.4</ele>
        <time>2011-05-01T10:38:48Z</time>
      </trkpt>
      <trkpt lat="49.37655" lon="1.13893">
        <ele>50.6</ele>
        <time>2011-05-01T10:38:49Z</time>
      </trkpt>
      <trkpt lat="49.37662" lon="1.13889">
        <ele>51.4</ele>
        <time>2011-05-01T10:38:52Z</time>
      </trkpt>
      <trkpt lat="49.37667" lon="1.13887">
        <ele>52</ele>
        <time>2011-05-01T10:38:54Z</time>
      </trkpt>
      <trkpt lat="49.3767" lon="1.13889">
        <ele>52.4</ele>
        <time>2011-05-01T10:38:56Z</time>
      </trkpt>
      <trkpt lat="49.37671" lon="1.1389">
        <ele>52.4</ele>
        <time>2011-05-01T10:38:57Z</time>
      </trkpt>
      <trkpt lat="49.37673" lon="1.13891">
        <ele>52.6</ele>
        <time>2011-05-01T10:38:58Z</time>
      </trkpt>
      <trkpt lat="49.37684" lon="1.1389">
        <ele>53.4</ele>
        <time>2011-05-01T10:39:03Z</time>
      </trkpt>
      <trkpt lat="49.37688" lon="1.1389">
        <ele>53.8</ele>
        <time>2011-05-01T10:39:05Z</time>
      </trkpt>
      <trkpt lat="49.37692" lon="1.13891">
        <ele>54.2</ele>
        <time>2011-05-01T10:39:07Z</time>
      </trkpt>
      <trkpt lat="49.37695" lon="1.1389">
        <ele>54.6</ele>
        <time>2011-05-01T10:39:09Z</time>
      </trkpt>
      <trkpt lat="49.37699" lon="1.13888">
        <ele>54.8</ele>
        <time>2011-05-01T10:39:11Z</time>
      </trkpt>
      <trkpt lat="49.37705" lon="1.13888">
        <ele>55.4</ele>
        <time>2011-05-01T10:39:14Z</time>
      </trkpt>
      <trkpt lat="49.37709" lon="1.13887">
        <ele>56</ele>
        <time>2011-05-01T10:39:16Z</time>
      </trkpt>
      <trkpt lat="49.37711" lon="1.13886">
        <ele>56.2</ele>
        <time>2011-05-01T10:39:17Z</time>
      </trkpt>
      <trkpt lat="49.37713" lon="1.13886">
        <ele>56.4</ele>
        <time>2011-05-01T10:39:18Z</time>
      </trkpt>
      <trkpt lat="49.37716" lon="1.13886">
        <ele>56.8</ele>
        <time>2011-05-01T10:39:20Z</time>
      </trkpt>
      <trkpt lat="49.37719" lon="1.13886">
        <ele>57</ele>
        <time>2011-05-01T10:39:22Z</time>
      </trkpt>
      <trkpt lat="49.37725" lon="1.1388">
        <ele>57.4</ele>
        <time>2011-05-01T10:39:26Z</time>
      </trkpt>
      <trkpt lat="49.37728" lon="1.13875">
        <ele>57.6</ele>
        <time>2011-05-01T10:39:28Z</time>
      </trkpt>
      <trkpt lat="49.3773" lon="1.1387">
        <ele>58</ele>
        <time>2011-05-01T10:39:30Z</time>
      </trkpt>
      <trkpt lat="49.37733" lon="1.13866">
        <ele>58.4</ele>
        <time>2011-05-01T10:39:32Z</time>
      </trkpt>
      <trkpt lat="49.37734" lon="1.13864">
        <ele>58.6</ele>
        <time>2011-05-01T10:39:33Z</time>
      </trkpt>
      <trkpt lat="49.37735" lon="1.13862">
        <ele>58.8</ele>
        <time>2011-05-01T10:39:34Z</time>
      </trkpt>
      <trkpt lat="49.37737" lon="1.13858">
        <ele>59.2</ele>
        <time>2011-05-01T10:39:36Z</time>
      </trkpt>
      <trkpt lat="49.37738" lon="1.13855">
        <ele>59.6</ele>
        <time>2011-05-01T10:39:38Z</time>
      </trkpt>
      <trkpt lat="49.3774" lon="1.13853">
        <ele>60</ele>
        <time>2011-05-01T10:39:39Z</time>
      </trkpt>
      <trkpt lat="49.37741" lon="1.13852">
        <ele>60.2</ele>
        <time>2011-05-01T10:39:40Z</time>
      </trkpt>
      <trkpt lat="49.37745" lon="1.13851">
        <ele>60.8</ele>
        <time>2011-05-01T10:39:43Z</time>
      </trkpt>
      <trkpt lat="49.3775" lon="1.13852">
        <ele>61.4</ele>
        <time>2011-05-01T10:39:46Z</time>
      </trkpt>
      <trkpt lat="49.37757" lon="1.13857">
        <ele>62</ele>
        <time>2011-05-01T10:39:50Z</time>
      </trkpt>
      <trkpt lat="49.3776" lon="1.13857">
        <ele>62.6</ele>
        <time>2011-05-01T10:39:52Z</time>
      </trkpt>
      <trkpt lat="49.37761" lon="1.13857">
        <ele>62.8</ele>
        <time>2011-05-01T10:39:53Z</time>
      </trkpt>
      <trkpt lat="49.37762" lon="1.13858">
        <ele>63</ele>
        <time>2011-05-01T10:39:54Z</time>
      </trkpt>
      <trkpt lat="49.37764" lon="1.1386">
        <ele>63.4</ele>
        <time>2011-05-01T10:39:56Z</time>
      </trkpt>
      <trkpt lat="49.37767" lon="1.13861">
        <ele>63.6</ele>
        <time>2011-05-01T10:39:58Z</time>
      </trkpt>
      <trkpt lat="49.37768" lon="1.13862">
        <ele>63.8</ele>
        <time>2011-05-01T10:39:59Z</time>
      </trkpt>
      <trkpt lat="49.37769" lon="1.13863">
        <ele>64</ele>
        <time>2011-05-01T10:40:00Z</time>
      </trkpt>
      <trkpt lat="49.37771" lon="1.13864">
        <ele>64.6</ele>
        <time>2011-05-01T10:40:02Z</time>
      </trkpt>
      <trkpt lat="49.37773" lon="1.13865">
        <ele>64.8</ele>
        <time>2011-05-01T10:40:03Z</time>
      </trkpt>
      <trkpt lat="49.37775" lon="1.13868">
        <ele>65</ele>
        <time>2011-05-01T10:40:04Z</time>
      </trkpt>
      <trkpt lat="49.37779" lon="1.13873">
        <ele>65.4</ele>
        <time>2011-05-01T10:40:06Z</time>
      </trkpt>
      <trkpt lat="49.37784" lon="1.13876">
        <ele>65.6</ele>
        <time>2011-05-01T10:40:08Z</time>
      </trkpt>
      <trkpt lat="49.37788" lon="1.13881">
        <ele>66</ele>
        <time>2011-05-01T10:40:11Z</time>
      </trkpt>
      <trkpt lat="49.37791" lon="1.13881">
        <ele>66.2</ele>
        <time>2011-05-01T10:40:15Z</time>
      </trkpt>
      <trkpt lat="49.37796" lon="1.13878">
        <ele>67</ele>
        <time>2011-05-01T10:40:18Z</time>
      </trkpt>
      <trkpt lat="49.37798" lon="1.13879">
        <ele>67.4</ele>
        <time>2011-05-01T10:40:20Z</time>
      </trkpt>
      <trkpt lat="49.37799" lon="1.13881">
        <ele>67.6</ele>
        <time>2011-05-01T10:40:22Z</time>
      </trkpt>
      <trkpt lat="49.37801" lon="1.1388">
        <ele>68</ele>
        <time>2011-05-01T10:40:24Z</time>
      </trkpt>
      <trkpt lat="49.37803" lon="1.13878">
        <ele>68.6</ele>
        <time>2011-05-01T10:40:26Z</time>
      </trkpt>
      <trkpt lat="49.37804" lon="1.13877">
        <ele>68.8</ele>
        <time>2011-05-01T10:40:27Z</time>
      </trkpt>
      <trkpt lat="49.37807" lon="1.13875">
        <ele>69.4</ele>
        <time>2011-05-01T10:40:30Z</time>
      </trkpt>
      <trkpt lat="49.37811" lon="1.13873">
        <ele>69.8</ele>
        <time>2011-05-01T10:40:32Z</time>
      </trkpt>
      <trkpt lat="49.37823" lon="1.13863">
        <ele>70.2</ele>
        <time>2011-05-01T10:40:36Z</time>
      </trkpt>
      <trkpt lat="49.37839" lon="1.13853">
        <ele>70.4</ele>
        <time>2011-05-01T10:40:40Z</time>
      </trkpt>
      <trkpt lat="49.3785" lon="1.13845">
        <ele>70.6</ele>
        <time>2011-05-01T10:40:42Z</time>
      </trkpt>
      <trkpt lat="49.37871" lon="1.13834">
        <ele>70.4</ele>
        <time>2011-05-01T10:40:45Z</time>
      </trkpt>
      <trkpt lat="49.37881" lon="1.13833">
        <ele>70.2</ele>
        <time>2011-05-01T10:40:47Z</time>
      </trkpt>
      <trkpt lat="49.37884" lon="1.13833">
        <ele>70</ele>
        <time>2011-05-01T10:40:48Z</time>
      </trkpt>
      <trkpt lat="49.37887" lon="1.13831">
        <ele>69.6</ele>
        <time>2011-05-01T10:40:51Z</time>
      </trkpt>
      <trkpt lat="49.37886" lon="1.1383">
        <ele>69.6</ele>
        <time>2011-05-01T10:40:52Z</time>
      </trkpt>
      <trkpt lat="49.37887" lon="1.13829">
        <ele>70</ele>
        <time>2011-05-01T10:40:58Z</time>
      </trkpt>
      <trkpt lat="49.37887" lon="1.13829">
        <ele>70</ele>
        <time>2011-05-01T10:40:59Z</time>
      </trkpt>
      <trkpt lat="49.37888" lon="1.13828">
        <ele>70.2</ele>
        <time>2011-05-01T10:41:01Z</time>
      </trkpt>
      <trkpt lat="49.37889" lon="1.13827">
        <ele>70.4</ele>
        <time>2011-05-01T10:41:03Z</time>
      </trkpt>
      <trkpt lat="49.37892" lon="1.13824">
        <ele>70.4</ele>
        <time>2011-05-01T10:41:05Z</time>
      </trkpt>
      <trkpt lat="49.37895" lon="1.13822">
        <ele>70.8</ele>
        <time>2011-05-01T10:41:07Z</time>
      </trkpt>
      <trkpt lat="49.37895" lon="1.13821">
        <ele>71.2</ele>
        <time>2011-05-01T10:41:09Z</time>
      </trkpt>
      <trkpt lat="49.37896" lon="1.1382">
        <ele>71.6</ele>
        <time>2011-05-01T10:41:11Z</time>
      </trkpt>
      <trkpt lat="49.37897" lon="1.13818">
        <ele>71.8</ele>
        <time>2011-05-01T10:41:13Z</time>
      </trkpt>
      <trkpt lat="49.37898" lon="1.13815">
        <ele>72</ele>
        <time>2011-05-01T10:41:15Z</time>
      </trkpt>
      <trkpt lat="49.37899" lon="1.13814">
        <ele>72.2</ele>
        <time>2011-05-01T10:41:17Z</time>
      </trkpt>
      <trkpt lat="49.379" lon="1.13811">
        <ele>72.6</ele>
        <time>2011-05-01T10:41:19Z</time>
      </trkpt>
      <trkpt lat="49.37901" lon="1.13808">
        <ele>73.2</ele>
        <time>2011-05-01T10:41:21Z</time>
      </trkpt>
      <trkpt lat="49.37901" lon="1.13806">
        <ele>73.6</ele>
        <time>2011-05-01T10:41:23Z</time>
      </trkpt>
      <trkpt lat="49.37903" lon="1.13803">
        <ele>74</ele>
        <time>2011-05-01T10:41:25Z</time>
      </trkpt>
      <trkpt lat="49.37905" lon="1.138">
        <ele>74.2</ele>
        <time>2011-05-01T10:41:27Z</time>
      </trkpt>
      <trkpt lat="49.37906" lon="1.13799">
        <ele>74.6</ele>
        <time>2011-05-01T10:41:28Z</time>
      </trkpt>
      <trkpt lat="49.37908" lon="1.13797">
        <ele>75.2</ele>
        <time>2011-05-01T10:41:30Z</time>
      </trkpt>
      <trkpt lat="49.3791" lon="1.13793">
        <ele>75.6</ele>
        <time>2011-05-01T10:41:32Z</time>
      </trkpt>
      <trkpt lat="49.37911" lon="1.13789">
        <ele>76</ele>
        <time>2011-05-01T10:41:34Z</time>
      </trkpt>
      <trkpt lat="49.37912" lon="1.13785">
        <ele>76.2</ele>
        <time>2011-05-01T10:41:36Z</time>
      </trkpt>
      <trkpt lat="49.37915" lon="1.13779">
        <ele>76.8</ele>
        <time>2011-05-01T10:41:40Z</time>
      </trkpt>
      <trkpt lat="49.37917" lon="1.13778">
        <ele>77.4</ele>
        <time>2011-05-01T10:41:42Z</time>
      </trkpt>
      <trkpt lat="49.37918" lon="1.13775">
        <ele>77.8</ele>
        <time>2011-05-01T10:41:44Z</time>
      </trkpt>
      <trkpt lat="49.37919" lon="1.13773">
        <ele>78.2</ele>
        <time>2011-05-01T10:41:46Z</time>
      </trkpt>
      <trkpt lat="49.3792" lon="1.13771">
        <ele>78.4</ele>
        <time>2011-05-01T10:41:48Z</time>
      </trkpt>
      <trkpt lat="49.3792" lon="1.13771">
        <ele>78.8</ele>
        <time>2011-05-01T10:41:49Z</time>
      </trkpt>
      <trkpt lat="49.37921" lon="1.1377">
        <ele>79.4</ele>
        <time>2011-05-01T10:41:51Z</time>
      </trkpt>
      <trkpt lat="49.37922" lon="1.13767">
        <ele>79.8</ele>
        <time>2011-05-01T10:41:53Z</time>
      </trkpt>
      <trkpt lat="49.37923" lon="1.13765">
        <ele>80.2</ele>
        <time>2011-05-01T10:41:55Z</time>
      </trkpt>
      <trkpt lat="49.37923" lon="1.13764">
        <ele>80.4</ele>
        <time>2011-05-01T10:41:57Z</time>
      </trkpt>
      <trkpt lat="49.37923" lon="1.13763">
        <ele>80.6</ele>
        <time>2011-05-01T10:41:58Z</time>
      </trkpt>
      <trkpt lat="49.37925" lon="1.13761">
        <ele>81.8</ele>
        <time>2011-05-01T10:42:04Z</time>
      </trkpt>
      <trkpt lat="49.37926" lon="1.13759">
        <ele>82</ele>
        <time>2011-05-01T10:42:05Z</time>
      </trkpt>
      <trkpt lat="49.37927" lon="1.13758">
        <ele>82.2</ele>
        <time>2011-05-01T10:42:06Z</time>
      </trkpt>
      <trkpt lat="49.37928" lon="1.13756">
        <ele>82.2</ele>
        <time>2011-05-01T10:42:07Z</time>
      </trkpt>
      <trkpt lat="49.37929" lon="1.13754">
        <ele>82.6</ele>
        <time>2011-05-01T10:42:09Z</time>
      </trkpt>
      <trkpt lat="49.37929" lon="1.13754">
        <ele>82.8</ele>
        <time>2011-05-01T10:42:10Z</time>
      </trkpt>
      <trkpt lat="49.37928" lon="1.13753">
        <ele>83</ele>
        <time>2011-05-01T10:42:12Z</time>
      </trkpt>
      <trkpt lat="49.37928" lon="1.13752">
        <ele>83</ele>
        <time>2011-05-01T10:42:13Z</time>
      </trkpt>
      <trkpt lat="49.37929" lon="1.1375">
        <ele>83.2</ele>
        <time>2011-05-01T10:42:15Z</time>
      </trkpt>
      <trkpt lat="49.37931" lon="1.13749">
        <ele>83.6</ele>
        <time>2011-05-01T10:42:17Z</time>
      </trkpt>
      <trkpt lat="49.37931" lon="1.13748">
        <ele>84</ele>
        <time>2011-05-01T10:42:19Z</time>
      </trkpt>
      <trkpt lat="49.37932" lon="1.13747">
        <ele>84.6</ele>
        <time>2011-05-01T10:42:22Z</time>
      </trkpt>
      <trkpt lat="49.37933" lon="1.13746">
        <ele>84.8</ele>
        <time>2011-05-01T10:42:24Z</time>
      </trkpt>
      <trkpt lat="49.37934" lon="1.13744">
        <ele>85.2</ele>
        <time>2011-05-01T10:42:26Z</time>
      </trkpt>
      <trkpt lat="49.37936" lon="1.13742">
        <ele>85.4</ele>
        <time>2011-05-01T10:42:28Z</time>
      </trkpt>
      <trkpt lat="49.37936" lon="1.1374">
        <ele>85.4</ele>
        <time>2011-05-01T10:42:29Z</time>
      </trkpt>
      <trkpt lat="49.37939" lon="1.13737">
        <ele>85.8</ele>
        <time>2011-05-01T10:42:34Z</time>
      </trkpt>
      <trkpt lat="49.37939" lon="1.13736">
        <ele>86</ele>
        <time>2011-05-01T10:42:35Z</time>
      </trkpt>
      <trkpt lat="49.37941" lon="1.13734">
        <ele>86.4</ele>
        <time>2011-05-01T10:42:37Z</time>
      </trkpt>
      <trkpt lat="49.37943" lon="1.13732">
        <ele>86.8</ele>
        <time>2011-05-01T10:42:39Z</time>
      </trkpt>
      <trkpt lat="49.37945" lon="1.13731">
        <ele>87</ele>
        <time>2011-05-01T10:42:41Z</time>
      </trkpt>
      <trkpt lat="49.37947" lon="1.13728">
        <ele>87.2</ele>
        <time>2011-05-01T10:42:43Z</time>
      </trkpt>
      <trkpt lat="49.37948" lon="1.13726">
        <ele>87.4</ele>
        <time>2011-05-01T10:42:45Z</time>
      </trkpt>
      <trkpt lat="49.3795" lon="1.13723">
        <ele>88.8</ele>
        <time>2011-05-01T10:42:52Z</time>
      </trkpt>
      <trkpt lat="49.37951" lon="1.13722">
        <ele>88.8</ele>
        <time>2011-05-01T10:42:53Z</time>
      </trkpt>
      <trkpt lat="49.37951" lon="1.1372">
        <ele>89</ele>
        <time>2011-05-01T10:42:54Z</time>
      </trkpt>
      <trkpt lat="49.37952" lon="1.13719">
        <ele>89.2</ele>
        <time>2011-05-01T10:42:55Z</time>
      </trkpt>
      <trkpt lat="49.37953" lon="1.13717">
        <ele>89.4</ele>
        <time>2011-05-01T10:42:57Z</time>
      </trkpt>
      <trkpt lat="49.37954" lon="1.13717">
        <ele>89.6</ele>
        <time>2011-05-01T10:42:59Z</time>
      </trkpt>
      <trkpt lat="49.37955" lon="1.13716">
        <ele>89.6</ele>
        <time>2011-05-01T10:43:01Z</time>
      </trkpt>
      <trkpt lat="49.37955" lon="1.13715">
        <ele>90</ele>
        <time>2011-05-01T10:43:02Z</time>
      </trkpt>
      <trkpt lat="49.37956" lon="1.13713">
        <ele>90.4</ele>
        <time>2011-05-01T10:43:04Z</time>
      </trkpt>
      <trkpt lat="49.37956" lon="1.13711">
        <ele>90.8</ele>
        <time>2011-05-01T10:43:06Z</time>
      </trkpt>
      <trkpt lat="49.37957" lon="1.1371">
        <ele>91</ele>
        <time>2011-05-01T10:43:08Z</time>
      </trkpt>
      <trkpt lat="49.37958" lon="1.13709">
        <ele>91.2</ele>
        <time>2011-05-01T10:43:10Z</time>
      </trkpt>
      <trkpt lat="49.3796" lon="1.13709">
        <ele>91.4</ele>
        <time>2011-05-01T10:43:12Z</time>
      </trkpt>
      <trkpt lat="49.3796" lon="1.13708">
        <ele>91.8</ele>
        <time>2011-05-01T10:43:14Z</time>
      </trkpt>
      <trkpt lat="49.37961" lon="1.13707">
        <ele>92</ele>
        <time>2011-05-01T10:43:15Z</time>
      </trkpt>
      <trkpt lat="49.37962" lon="1.13705">
        <ele>92.6</ele>
        <time>2011-05-01T10:43:17Z</time>
      </trkpt>
      <trkpt lat="49.37962" lon="1.13703">
        <ele>92.8</ele>
        <time>2011-05-01T10:43:19Z</time>
      </trkpt>
      <trkpt lat="49.37963" lon="1.137">
        <ele>93.2</ele>
        <time>2011-05-01T10:43:21Z</time>
      </trkpt>
      <trkpt lat="49.37964" lon="1.13699">
        <ele>93.4</ele>
        <time>2011-05-01T10:43:23Z</time>
      </trkpt>
      <trkpt lat="49.37967" lon="1.13696">
        <ele>94</ele>
        <time>2011-05-01T10:43:27Z</time>
      </trkpt>
      <trkpt lat="49.37968" lon="1.13694">
        <ele>94.4</ele>
        <time>2011-05-01T10:43:29Z</time>
      </trkpt>
      <trkpt lat="49.37969" lon="1.13691">
        <ele>94.8</ele>
        <time>2011-05-01T10:43:31Z</time>
      </trkpt>
      <trkpt lat="49.37971" lon="1.1369">
        <ele>95.2</ele>
        <time>2011-05-01T10:43:33Z</time>
      </trkpt>
      <trkpt lat="49.37972" lon="1.13689">
        <ele>95.4</ele>
        <time>2011-05-01T10:43:35Z</time>
      </trkpt>
      <trkpt lat="49.3798" lon="1.13675">
        <ele>96.4</ele>
        <time>2011-05-01T10:43:46Z</time>
      </trkpt>
      <trkpt lat="49.37981" lon="1.13671">
        <ele>96.8</ele>
        <time>2011-05-01T10:43:48Z</time>
      </trkpt>
      <trkpt lat="49.37983" lon="1.13668">
        <ele>97.2</ele>
        <time>2011-05-01T10:43:50Z</time>
      </trkpt>
      <trkpt lat="49.37985" lon="1.13665">
        <ele>97.4</ele>
        <time>2011-05-01T10:43:52Z</time>
      </trkpt>
      <trkpt lat="49.37987" lon="1.13663">
        <ele>97.6</ele>
        <time>2011-05-01T10:43:54Z</time>
      </trkpt>
      <trkpt lat="49.37993" lon="1.13662">
        <ele>98.2</ele>
        <time>2011-05-01T10:44:02Z</time>
      </trkpt>
      <trkpt lat="49.37993" lon="1.13662">
        <ele>98.4</ele>
        <time>2011-05-01T10:44:03Z</time>
      </trkpt>
      <trkpt lat="49.37994" lon="1.13661">
        <ele>98.8</ele>
        <time>2011-05-01T10:44:04Z</time>
      </trkpt>
      <trkpt lat="49.37996" lon="1.13657">
        <ele>99.8</ele>
        <time>2011-05-01T10:44:11Z</time>
      </trkpt>
      <trkpt lat="49.37996" lon="1.13656">
        <ele>99.8</ele>
        <time>2011-05-01T10:44:12Z</time>
      </trkpt>
      <trkpt lat="49.37996" lon="1.13656">
        <ele>100</ele>
        <time>2011-05-01T10:44:13Z</time>
      </trkpt>
      <trkpt lat="49.37997" lon="1.13655">
        <ele>100.4</ele>
        <time>2011-05-01T10:44:15Z</time>
      </trkpt>
      <trkpt lat="49.37998" lon="1.13654">
        <ele>100.6</ele>
        <time>2011-05-01T10:44:16Z</time>
      </trkpt>
      <trkpt lat="49.38001" lon="1.13654">
        <ele>101</ele>
        <time>2011-05-01T10:44:18Z</time>
      </trkpt>
      <trkpt lat="49.38005" lon="1.13655">
        <ele>101.4</ele>
        <time>2011-05-01T10:44:20Z</time>
      </trkpt>
      <trkpt lat="49.3801" lon="1.13658">
        <ele>101.8</ele>
        <time>2011-05-01T10:44:22Z</time>
      </trkpt>
      <trkpt lat="49.38011" lon="1.13659">
        <ele>101.8</ele>
        <time>2011-05-01T10:44:23Z</time>
      </trkpt>
      <trkpt lat="49.38012" lon="1.13658">
        <ele>102</ele>
        <time>2011-05-01T10:44:25Z</time>
      </trkpt>
      <trkpt lat="49.38013" lon="1.13657">
        <ele>102.2</ele>
        <time>2011-05-01T10:44:26Z</time>
      </trkpt>
      <trkpt lat="49.38014" lon="1.13657">
        <ele>102.4</ele>
        <time>2011-05-01T10:44:29Z</time>
      </trkpt>
      <trkpt lat="49.38016" lon="1.13653">
        <ele>104</ele>
        <time>2011-05-01T10:44:41Z</time>
      </trkpt>
      <trkpt lat="49.38016" lon="1.13652">
        <ele>104.2</ele>
        <time>2011-05-01T10:44:42Z</time>
      </trkpt>
      <trkpt lat="49.38017" lon="1.13652">
        <ele>104.2</ele>
        <time>2011-05-01T10:44:43Z</time>
      </trkpt>
      <trkpt lat="49.38018" lon="1.1365">
        <ele>104.8</ele>
        <time>2011-05-01T10:44:53Z</time>
      </trkpt>
      <trkpt lat="49.38019" lon="1.1365">
        <ele>104.8</ele>
        <time>2011-05-01T10:44:54Z</time>
      </trkpt>
      <trkpt lat="49.3802" lon="1.13651">
        <ele>104.8</ele>
        <time>2011-05-01T10:44:56Z</time>
      </trkpt>
      <trkpt lat="49.38023" lon="1.13653">
        <ele>105</ele>
        <time>2011-05-01T10:44:58Z</time>
      </trkpt>
      <trkpt lat="49.38026" lon="1.13653">
        <ele>105</ele>
        <time>2011-05-01T10:45:00Z</time>
      </trkpt>
      <trkpt lat="49.38028" lon="1.13652">
        <ele>105</ele>
        <time>2011-05-01T10:45:03Z</time>
      </trkpt>
      <trkpt lat="49.3803" lon="1.13652">
        <ele>105.2</ele>
        <time>2011-05-01T10:45:05Z</time>
      </trkpt>
      <trkpt lat="49.38032" lon="1.13653">
        <ele>105.6</ele>
        <time>2011-05-01T10:45:07Z</time>
      </trkpt>
      <trkpt lat="49.38034" lon="1.13653">
        <ele>106</ele>
        <time>2011-05-01T10:45:09Z</time>
      </trkpt>
      <trkpt lat="49.38037" lon="1.13653">
        <ele>106.2</ele>
        <time>2011-05-01T10:45:11Z</time>
      </trkpt>
      <trkpt lat="49.38038" lon="1.13654">
        <ele>106.4</ele>
        <time>2011-05-01T10:45:13Z</time>
      </trkpt>
      <trkpt lat="49.38038" lon="1.13655">
        <ele>106.8</ele>
        <time>2011-05-01T10:45:14Z</time>
      </trkpt>
      <trkpt lat="49.38039" lon="1.13657">
        <ele>107.2</ele>
        <time>2011-05-01T10:45:16Z</time>
      </trkpt>
      <trkpt lat="49.38041" lon="1.1366">
        <ele>107.6</ele>
        <time>2011-05-01T10:45:18Z</time>
      </trkpt>
      <trkpt lat="49.38043" lon="1.13663">
        <ele>108</ele>
        <time>2011-05-01T10:45:20Z</time>
      </trkpt>
      <trkpt lat="49.38045" lon="1.13665">
        <ele>108.2</ele>
        <time>2011-05-01T10:45:22Z</time>
      </trkpt>
      <trkpt lat="49.38046" lon="1.13665">
        <ele>108.4</ele>
        <time>2011-05-01T10:45:23Z</time>
      </trkpt>
      <trkpt lat="49.38049" lon="1.13664">
        <ele>109.2</ele>
        <time>2011-05-01T10:45:26Z</time>
      </trkpt>
      <trkpt lat="49.38051" lon="1.13664">
        <ele>109.6</ele>
        <time>2011-05-01T10:45:28Z</time>
      </trkpt>
      <trkpt lat="49.38054" lon="1.13664">
        <ele>110</ele>
        <time>2011-05-01T10:45:30Z</time>
      </trkpt>
      <trkpt lat="49.38056" lon="1.13665">
        <ele>110.2</ele>
        <time>2011-05-01T10:45:32Z</time>
      </trkpt>
      <trkpt lat="49.38058" lon="1.13666">
        <ele>110.6</ele>
        <time>2011-05-01T10:45:34Z</time>
      </trkpt>
      <trkpt lat="49.3806" lon="1.13666">
        <ele>111.2</ele>
        <time>2011-05-01T10:45:36Z</time>
      </trkpt>
      <trkpt lat="49.38061" lon="1.13666">
        <ele>111.6</ele>
        <time>2011-05-01T10:45:38Z</time>
      </trkpt>
      <trkpt lat="49.38062" lon="1.13666">
        <ele>112</ele>
        <time>2011-05-01T10:45:40Z</time>
      </trkpt>
      <trkpt lat="49.38064" lon="1.13667">
        <ele>112.2</ele>
        <time>2011-05-01T10:45:42Z</time>
      </trkpt>
      <trkpt lat="49.38065" lon="1.13668">
        <ele>112.6</ele>
        <time>2011-05-01T10:45:44Z</time>
      </trkpt>
      <trkpt lat="49.38069" lon="1.13671">
        <ele>113.4</ele>
        <time>2011-05-01T10:45:50Z</time>
      </trkpt>
      <trkpt lat="49.3807" lon="1.13672">
        <ele>113.6</ele>
        <time>2011-05-01T10:45:51Z</time>
      </trkpt>
      <trkpt lat="49.3807" lon="1.13673">
        <ele>113.8</ele>
        <time>2011-05-01T10:45:52Z</time>
      </trkpt>
      <trkpt lat="49.38071" lon="1.13674">
        <ele>114</ele>
        <time>2011-05-01T10:45:53Z</time>
      </trkpt>
      <trkpt lat="49.38072" lon="1.13676">
        <ele>114.2</ele>
        <time>2011-05-01T10:45:55Z</time>
      </trkpt>
      <trkpt lat="49.38073" lon="1.13677">
        <ele>114.4</ele>
        <time>2011-05-01T10:45:57Z</time>
      </trkpt>
      <trkpt lat="49.38074" lon="1.13676">
        <ele>114.6</ele>
        <time>2011-05-01T10:45:59Z</time>
      </trkpt>
      <trkpt lat="49.38075" lon="1.13676">
        <ele>114.8</ele>
        <time>2011-05-01T10:46:00Z</time>
      </trkpt>
      <trkpt lat="49.38081" lon="1.13682">
        <ele>117.4</ele>
        <time>2011-05-01T10:46:25Z</time>
      </trkpt>
      <trkpt lat="49.38081" lon="1.13684">
        <ele>117.4</ele>
        <time>2011-05-01T10:46:26Z</time>
      </trkpt>
      <trkpt lat="49.38082" lon="1.13686">
        <ele>117.4</ele>
        <time>2011-05-01T10:46:27Z</time>
      </trkpt>
      <trkpt lat="49.38082" lon="1.13687">
        <ele>117.4</ele>
        <time>2011-05-01T10:46:28Z</time>
      </trkpt>
      <trkpt lat="49.38083" lon="1.13687">
        <ele>117.4</ele>
        <time>2011-05-01T10:46:30Z</time>
      </trkpt>
      <trkpt lat="49.38085" lon="1.13686">
        <ele>117.6</ele>
        <time>2011-05-01T10:46:32Z</time>
      </trkpt>
      <trkpt lat="49.38087" lon="1.13685">
        <ele>118</ele>
        <time>2011-05-01T10:46:34Z</time>
      </trkpt>
      <trkpt lat="49.38089" lon="1.13685">
        <ele>118.4</ele>
        <time>2011-05-01T10:46:36Z</time>
      </trkpt>
      <trkpt lat="49.3809" lon="1.13685">
        <ele>118.6</ele>
        <time>2011-05-01T10:46:38Z</time>
      </trkpt>
      <trkpt lat="49.38091" lon="1.13686">
        <ele>118.8</ele>
        <time>2011-05-01T10:46:40Z</time>
      </trkpt>
      <trkpt lat="49.38092" lon="1.13687">
        <ele>119.4</ele>
        <time>2011-05-01T10:46:44Z</time>
      </trkpt>
      <trkpt lat="49.38094" lon="1.1369">
        <ele>120.2</ele>
        <time>2011-05-01T10:46:48Z</time>
      </trkpt>
      <trkpt lat="49.38096" lon="1.13693">
        <ele>120.4</ele>
        <time>2011-05-01T10:46:50Z</time>
      </trkpt>
      <trkpt lat="49.38098" lon="1.13694">
        <ele>120.8</ele>
        <time>2011-05-01T10:46:52Z</time>
      </trkpt>
      <trkpt lat="49.38099" lon="1.13693">
        <ele>121</ele>
        <time>2011-05-01T10:46:55Z</time>
      </trkpt>
      <trkpt lat="49.381" lon="1.13692">
        <ele>121.2</ele>
        <time>2011-05-01T10:46:57Z</time>
      </trkpt>
      <trkpt lat="49.381" lon="1.13691">
        <ele>121.4</ele>
        <time>2011-05-01T10:46:59Z</time>
      </trkpt>
      <trkpt lat="49.38101" lon="1.1369">
        <ele>121.6</ele>
        <time>2011-05-01T10:47:00Z</time>
      </trkpt>
      <trkpt lat="49.38102" lon="1.1369">
        <ele>122</ele>
        <time>2011-05-01T10:47:02Z</time>
      </trkpt>
      <trkpt lat="49.38103" lon="1.1369">
        <ele>122.4</ele>
        <time>2011-05-01T10:47:04Z</time>
      </trkpt>
      <trkpt lat="49.38103" lon="1.13692">
        <ele>122.6</ele>
        <time>2011-05-01T10:47:06Z</time>
      </trkpt>
      <trkpt lat="49.38104" lon="1.13694">
        <ele>122.8</ele>
        <time>2011-05-01T10:47:08Z</time>
      </trkpt>
      <trkpt lat="49.38105" lon="1.13696">
        <ele>123.2</ele>
        <time>2011-05-01T10:47:10Z</time>
      </trkpt>
      <trkpt lat="49.38106" lon="1.13698">
        <ele>123.8</ele>
        <time>2011-05-01T10:47:12Z</time>
      </trkpt>
      <trkpt lat="49.38106" lon="1.137">
        <ele>124.2</ele>
        <time>2011-05-01T10:47:14Z</time>
      </trkpt>
      <trkpt lat="49.38107" lon="1.13701">
        <ele>124.4</ele>
        <time>2011-05-01T10:47:16Z</time>
      </trkpt>
      <trkpt lat="49.38108" lon="1.13702">
        <ele>124.8</ele>
        <time>2011-05-01T10:47:18Z</time>
      </trkpt>
      <trkpt lat="49.38111" lon="1.13699">
        <ele>125.6</ele>
        <time>2011-05-01T10:47:25Z</time>
      </trkpt>
      <trkpt lat="49.38113" lon="1.13699">
        <ele>126</ele>
        <time>2011-05-01T10:47:27Z</time>
      </trkpt>
      <trkpt lat="49.38114" lon="1.13699">
        <ele>126.4</ele>
        <time>2011-05-01T10:47:29Z</time>
      </trkpt>
      <trkpt lat="49.38116" lon="1.13699">
        <ele>126.6</ele>
        <time>2011-05-01T10:47:31Z</time>
      </trkpt>
      <trkpt lat="49.38117" lon="1.137">
        <ele>127</ele>
        <time>2011-05-01T10:47:33Z</time>
      </trkpt>
      <trkpt lat="49.38118" lon="1.13701">
        <ele>127.2</ele>
        <time>2011-05-01T10:47:34Z</time>
      </trkpt>
      <trkpt lat="49.38119" lon="1.13703">
        <ele>127.8</ele>
        <time>2011-05-01T10:47:36Z</time>
      </trkpt>
      <trkpt lat="49.38122" lon="1.13704">
        <ele>128.2</ele>
        <time>2011-05-01T10:47:38Z</time>
      </trkpt>
      <trkpt lat="49.38124" lon="1.13706">
        <ele>128.6</ele>
        <time>2011-05-01T10:47:40Z</time>
      </trkpt>
      <trkpt lat="49.38125" lon="1.13708">
        <ele>128.8</ele>
        <time>2011-05-01T10:47:42Z</time>
      </trkpt>
      <trkpt lat="49.38133" lon="1.13715">
        <ele>129.6</ele>
        <time>2011-05-01T10:47:49Z</time>
      </trkpt>
      <trkpt lat="49.38136" lon="1.13715">
        <ele>130</ele>
        <time>2011-05-01T10:47:51Z</time>
      </trkpt>
      <trkpt lat="49.38139" lon="1.13716">
        <ele>130.4</ele>
        <time>2011-05-01T10:47:53Z</time>
      </trkpt>
      <trkpt lat="49.38141" lon="1.13716">
        <ele>130.8</ele>
        <time>2011-05-01T10:47:55Z</time>
      </trkpt>
      <trkpt lat="49.38143" lon="1.13717">
        <ele>131</ele>
        <time>2011-05-01T10:47:57Z</time>
      </trkpt>
      <trkpt lat="49.38146" lon="1.13719">
        <ele>131.6</ele>
        <time>2011-05-01T10:48:01Z</time>
      </trkpt>
      <trkpt lat="49.38147" lon="1.1372">
        <ele>132</ele>
        <time>2011-05-01T10:48:03Z</time>
      </trkpt>
      <trkpt lat="49.38148" lon="1.13722">
        <ele>132.4</ele>
        <time>2011-05-01T10:48:05Z</time>
      </trkpt>
      <trkpt lat="49.38149" lon="1.13722">
        <ele>132.8</ele>
        <time>2011-05-01T10:48:07Z</time>
      </trkpt>
      <trkpt lat="49.3815" lon="1.13723">
        <ele>133</ele>
        <time>2011-05-01T10:48:09Z</time>
      </trkpt>
      <trkpt lat="49.38152" lon="1.13722">
        <ele>133.4</ele>
        <time>2011-05-01T10:48:12Z</time>
      </trkpt>
      <trkpt lat="49.38153" lon="1.13722">
        <ele>134</ele>
        <time>2011-05-01T10:48:14Z</time>
      </trkpt>
      <trkpt lat="49.38155" lon="1.13723">
        <ele>134.4</ele>
        <time>2011-05-01T10:48:16Z</time>
      </trkpt>
      <trkpt lat="49.38155" lon="1.13724">
        <ele>134.6</ele>
        <time>2011-05-01T10:48:17Z</time>
      </trkpt>
      <trkpt lat="49.38158" lon="1.13725">
        <ele>136</ele>
        <time>2011-05-01T10:48:40Z</time>
      </trkpt>
      <trkpt lat="49.38158" lon="1.13726">
        <ele>136</ele>
        <time>2011-05-01T10:48:41Z</time>
      </trkpt>
      <trkpt lat="49.38159" lon="1.13725">
        <ele>136</ele>
        <time>2011-05-01T10:48:42Z</time>
      </trkpt>
      <trkpt lat="49.3816" lon="1.13724">
        <ele>136</ele>
        <time>2011-05-01T10:48:43Z</time>
      </trkpt>
      <trkpt lat="49.3817" lon="1.13713">
        <ele>136</ele>
        <time>2011-05-01T10:48:50Z</time>
      </trkpt>
      <trkpt lat="49.38171" lon="1.13711">
        <ele>136</ele>
        <time>2011-05-01T10:48:51Z</time>
      </trkpt>
      <trkpt lat="49.38181" lon="1.13701">
        <ele>136.2</ele>
        <time>2011-05-01T10:48:56Z</time>
      </trkpt>
      <trkpt lat="49.38185" lon="1.13696">
        <ele>136.6</ele>
        <time>2011-05-01T10:48:58Z</time>
      </trkpt>
      <trkpt lat="49.38189" lon="1.13692">
        <ele>137</ele>
        <time>2011-05-01T10:49:00Z</time>
      </trkpt>
      <trkpt lat="49.38194" lon="1.13688">
        <ele>137.2</ele>
        <time>2011-05-01T10:49:02Z</time>
      </trkpt>
      <trkpt lat="49.38197" lon="1.13683">
        <ele>137.4</ele>
        <time>2011-05-01T10:49:04Z</time>
      </trkpt>
      <trkpt lat="49.38212" lon="1.1367">
        <ele>137.8</ele>
        <time>2011-05-01T10:49:11Z</time>
      </trkpt>
      <trkpt lat="49.38221" lon="1.13663">
        <ele>138.2</ele>
        <time>2011-05-01T10:49:15Z</time>
      </trkpt>
      <trkpt lat="49.38226" lon="1.13659">
        <ele>138.6</ele>
        <time>2011-05-01T10:49:17Z</time>
      </trkpt>
      <trkpt lat="49.3823" lon="1.13656">
        <ele>139</ele>
        <time>2011-05-01T10:49:19Z</time>
      </trkpt>
      <trkpt lat="49.38232" lon="1.13654">
        <ele>139</ele>
        <time>2011-05-01T10:49:20Z</time>
      </trkpt>
      <trkpt lat="49.38238" lon="1.13656">
        <ele>139.4</ele>
        <time>2011-05-01T10:49:23Z</time>
      </trkpt>
      <trkpt lat="49.38242" lon="1.13663">
        <ele>139.6</ele>
        <time>2011-05-01T10:49:25Z</time>
      </trkpt>
      <trkpt lat="49.38264" lon="1.13712">
        <ele>140</ele>
        <time>2011-05-01T10:49:36Z</time>
      </trkpt>
      <trkpt lat="49.38274" lon="1.13731">
        <ele>140.4</ele>
        <time>2011-05-01T10:49:41Z</time>
      </trkpt>
      <trkpt lat="49.38279" lon="1.13739">
        <ele>140.8</ele>
        <time>2011-05-01T10:49:43Z</time>
      </trkpt>
      <trkpt lat="49.38284" lon="1.13746">
        <ele>141</ele>
        <time>2011-05-01T10:49:45Z</time>
      </trkpt>
      <trkpt lat="49.38289" lon="1.13753">
        <ele>141.4</ele>
        <time>2011-05-01T10:49:47Z</time>
      </trkpt>
      <trkpt lat="49.38295" lon="1.13759">
        <ele>141.6</ele>
        <time>2011-05-01T10:49:49Z</time>
      </trkpt>
      <trkpt lat="49.38329" lon="1.13793">
        <ele>142.2</ele>
        <time>2011-05-01T10:50:00Z</time>
      </trkpt>
      <trkpt lat="49.38337" lon="1.13803">
        <ele>142.4</ele>
        <time>2011-05-01T10:50:03Z</time>
      </trkpt>
      <trkpt lat="49.38343" lon="1.13809">
        <ele>142.8</ele>
        <time>2011-05-01T10:50:05Z</time>
      </trkpt>
      <trkpt lat="49.38349" lon="1.13816">
        <ele>143.2</ele>
        <time>2011-05-01T10:50:07Z</time>
      </trkpt>
      <trkpt lat="49.38355" lon="1.13823">
        <ele>143.4</ele>
        <time>2011-05-01T10:50:09Z</time>
      </trkpt>
      <trkpt lat="49.38361" lon="1.1383">
        <ele>143.6</ele>
        <time>2011-05-01T10:50:11Z</time>
      </trkpt>
      <trkpt lat="49.38391" lon="1.13865">
        <ele>144.2</ele>
        <time>2011-05-01T10:50:21Z</time>
      </trkpt>
      <trkpt lat="49.38416" lon="1.13901">
        <ele>144.4</ele>
        <time>2011-05-01T10:50:30Z</time>
      </trkpt>
      <trkpt lat="49.38419" lon="1.13905">
        <ele>144.6</ele>
        <time>2011-05-01T10:50:31Z</time>
      </trkpt>
      <trkpt lat="49.38424" lon="1.13913">
        <ele>145</ele>
        <time>2011-05-01T10:50:33Z</time>
      </trkpt>
      <trkpt lat="49.38429" lon="1.13921">
        <ele>145.2</ele>
        <time>2011-05-01T10:50:35Z</time>
      </trkpt>
      <trkpt lat="49.38434" lon="1.13929">
        <ele>145.4</ele>
        <time>2011-05-01T10:50:37Z</time>
      </trkpt>
      <trkpt lat="49.3844" lon="1.13937">
        <ele>145.6</ele>
        <time>2011-05-01T10:50:39Z</time>
      </trkpt>
      <trkpt lat="49.38464" lon="1.13977">
        <ele>146.2</ele>
        <time>2011-05-01T10:50:48Z</time>
      </trkpt>
      <trkpt lat="49.38498" lon="1.14032">
        <ele>146.4</ele>
        <time>2011-05-01T10:51:01Z</time>
      </trkpt>
      <trkpt lat="49.38503" lon="1.1404">
        <ele>146.4</ele>
        <time>2011-05-01T10:51:03Z</time>
      </trkpt>
      <trkpt lat="49.38521" lon="1.14029">
        <ele>146.4</ele>
        <time>2011-05-01T10:51:09Z</time>
      </trkpt>
      <trkpt lat="49.38549" lon="1.13997">
        <ele>146.6</ele>
        <time>2011-05-01T10:51:17Z</time>
      </trkpt>
      <trkpt lat="49.38553" lon="1.13994">
        <ele>146.8</ele>
        <time>2011-05-01T10:51:18Z</time>
      </trkpt>
      <trkpt lat="49.38561" lon="1.13987">
        <ele>147.2</ele>
        <time>2011-05-01T10:51:20Z</time>
      </trkpt>
      <trkpt lat="49.38568" lon="1.13979">
        <ele>147.4</ele>
        <time>2011-05-01T10:51:22Z</time>
      </trkpt>
      <trkpt lat="49.38572" lon="1.13976">
        <ele>147.6</ele>
        <time>2011-05-01T10:51:23Z</time>
      </trkpt>
      <trkpt lat="49.38576" lon="1.13972">
        <ele>147.6</ele>
        <time>2011-05-01T10:51:24Z</time>
      </trkpt>
      <trkpt lat="49.38589" lon="1.13963">
        <ele>147.8</ele>
        <time>2011-05-01T10:51:26Z</time>
      </trkpt>
      <trkpt lat="49.38614" lon="1.1395">
        <ele>148.2</ele>
        <time>2011-05-01T10:51:32Z</time>
      </trkpt>
      <trkpt lat="49.38623" lon="1.13946">
        <ele>148.4</ele>
        <time>2011-05-01T10:51:34Z</time>
      </trkpt>
      <trkpt lat="49.38641" lon="1.13935">
        <ele>148.4</ele>
        <time>2011-05-01T10:51:38Z</time>
      </trkpt>
      <trkpt lat="49.38678" lon="1.13913">
        <ele>148.6</ele>
        <time>2011-05-01T10:51:46Z</time>
      </trkpt>
      <trkpt lat="49.38682" lon="1.1391">
        <ele>148.6</ele>
        <time>2011-05-01T10:51:47Z</time>
      </trkpt>
      <trkpt lat="49.38687" lon="1.13906">
        <ele>148.4</ele>
        <time>2011-05-01T10:51:48Z</time>
      </trkpt>
      <trkpt lat="49.38696" lon="1.139">
        <ele>148</ele>
        <time>2011-05-01T10:51:50Z</time>
      </trkpt>
      <trkpt lat="49.38705" lon="1.13893">
        <ele>147.8</ele>
        <time>2011-05-01T10:51:52Z</time>
      </trkpt>
      <trkpt lat="49.3871" lon="1.13889">
        <ele>147.6</ele>
        <time>2011-05-01T10:51:53Z</time>
      </trkpt>
      <trkpt lat="49.38715" lon="1.13885">
        <ele>147.6</ele>
        <time>2011-05-01T10:51:54Z</time>
      </trkpt>
      <trkpt lat="49.38724" lon="1.13876">
        <ele>147.4</ele>
        <time>2011-05-01T10:51:56Z</time>
      </trkpt>
      <trkpt lat="49.38737" lon="1.13861">
        <ele>147.2</ele>
        <time>2011-05-01T10:51:59Z</time>
      </trkpt>
      <trkpt lat="49.38766" lon="1.13836">
        <ele>146.6</ele>
        <time>2011-05-01T10:52:05Z</time>
      </trkpt>
      <trkpt lat="49.38776" lon="1.13826">
        <ele>146.2</ele>
        <time>2011-05-01T10:52:07Z</time>
      </trkpt>
      <trkpt lat="49.38785" lon="1.13816">
        <ele>146</ele>
        <time>2011-05-01T10:52:09Z</time>
      </trkpt>
      <trkpt lat="49.3879" lon="1.1381">
        <ele>145.8</ele>
        <time>2011-05-01T10:52:10Z</time>
      </trkpt>
      <trkpt lat="49.38806" lon="1.13794">
        <ele>145.4</ele>
        <time>2011-05-01T10:52:13Z</time>
      </trkpt>
      <trkpt lat="49.38816" lon="1.13785">
        <ele>145.2</ele>
        <time>2011-05-01T10:52:15Z</time>
      </trkpt>
      <trkpt lat="49.38828" lon="1.13783">
        <ele>144.8</ele>
        <time>2011-05-01T10:52:18Z</time>
      </trkpt>
      <trkpt lat="49.38834" lon="1.13791">
        <ele>144.4</ele>
        <time>2011-05-01T10:52:20Z</time>
      </trkpt>
      <trkpt lat="49.38836" lon="1.13797">
        <ele>144.2</ele>
        <time>2011-05-01T10:52:21Z</time>
      </trkpt>
      <trkpt lat="49.3884" lon="1.13817">
        <ele>143.6</ele>
        <time>2011-05-01T10:52:24Z</time>
      </trkpt>
      <trkpt lat="49.38844" lon="1.13829">
        <ele>143.4</ele>
        <time>2011-05-01T10:52:26Z</time>
      </trkpt>
      <trkpt lat="49.38857" lon="1.13877">
        <ele>142.6</ele>
        <time>2011-05-01T10:52:35Z</time>
      </trkpt>
      <trkpt lat="49.38866" lon="1.13908">
        <ele>142.6</ele>
        <time>2011-05-01T10:52:41Z</time>
      </trkpt>
      <trkpt lat="49.38868" lon="1.13917">
        <ele>143</ele>
        <time>2011-05-01T10:52:43Z</time>
      </trkpt>
      <trkpt lat="49.38871" lon="1.13928">
        <ele>143.2</ele>
        <time>2011-05-01T10:52:45Z</time>
      </trkpt>
      <trkpt lat="49.38875" lon="1.1394">
        <ele>143.4</ele>
        <time>2011-05-01T10:52:47Z</time>
      </trkpt>
      <trkpt lat="49.38879" lon="1.13952">
        <ele>143.6</ele>
        <time>2011-05-01T10:52:49Z</time>
      </trkpt>
      <trkpt lat="49.38897" lon="1.14007">
        <ele>144</ele>
        <time>2011-05-01T10:52:59Z</time>
      </trkpt>
      <trkpt lat="49.38899" lon="1.14013">
        <ele>144</ele>
        <time>2011-05-01T10:53:00Z</time>
      </trkpt>
      <trkpt lat="49.38892" lon="1.14028">
        <ele>144</ele>
        <time>2011-05-01T10:53:04Z</time>
      </trkpt>
      <trkpt lat="49.38872" lon="1.14042">
        <ele>144.2</ele>
        <time>2011-05-01T10:53:11Z</time>
      </trkpt>
      <trkpt lat="49.38861" lon="1.14056">
        <ele>144.2</ele>
        <time>2011-05-01T10:53:16Z</time>
      </trkpt>
      <trkpt lat="49.3886" lon="1.1406">
        <ele>144.2</ele>
        <time>2011-05-01T10:53:17Z</time>
      </trkpt>
      <trkpt lat="49.38862" lon="1.14074">
        <ele>144.4</ele>
        <time>2011-05-01T10:53:21Z</time>
      </trkpt>
      <trkpt lat="49.38862" lon="1.14076">
        <ele>144.6</ele>
        <time>2011-05-01T10:53:22Z</time>
      </trkpt>
      <trkpt lat="49.38861" lon="1.14077">
        <ele>144.8</ele>
        <time>2011-05-01T10:53:23Z</time>
      </trkpt>
      <trkpt lat="49.38858" lon="1.14078">
        <ele>145</ele>
        <time>2011-05-01T10:53:25Z</time>
      </trkpt>
      <trkpt lat="49.38857" lon="1.14078">
        <ele>145.2</ele>
        <time>2011-05-01T10:53:27Z</time>
      </trkpt>
      <trkpt lat="49.38856" lon="1.14078">
        <ele>145.4</ele>
        <time>2011-05-01T10:53:29Z</time>
      </trkpt>
      <trkpt lat="49.38852" lon="1.14084">
        <ele>146</ele>
        <time>2011-05-01T10:53:38Z</time>
      </trkpt>
      <trkpt lat="49.38853" lon="1.14085">
        <ele>146</ele>
        <time>2011-05-01T10:53:40Z</time>
      </trkpt>
      <trkpt lat="49.38855" lon="1.1409">
        <ele>146.2</ele>
        <time>2011-05-01T10:53:44Z</time>
      </trkpt>
      <trkpt lat="49.38857" lon="1.14096">
        <ele>146.2</ele>
        <time>2011-05-01T10:53:49Z</time>
      </trkpt>
    </trkseg>
  </trk>
</gpx>